<?xml version='1.0' encoding='UTF-8'?><gpx version="1.1" creator="JPX - https://github.com/jenetics/jpx" xmlns="http://www.topografix.com/GPX/1/1"><trk><trkseg><trkpt lat="37.03351176430981" lon="-3.1138035723930066"><ele>1956.0</ele><time>2026-04-22T11:27:21.999Z</time></trkpt><trkpt lat="37.0335586917001" lon="-3.113728623638415"><ele>1956.0</ele><time>2026-04-22T11:27:25.999Z</time></trkpt><trkpt lat="37.03362893481529" lon="-3.113753236362939"><ele>1956.0</ele><time>2026-04-22T11:29:13.999Z</time></trkpt><trkpt lat="37.03367031988137" lon="-3.113828369488459"><ele>1956.0</ele><time>2026-04-22T11:29:15.999Z</time></trkpt><trkpt lat="37.03370081693762" lon="-3.1139190726612123"><ele>1956.0</ele><time>2026-04-22T11:29:17.999Z</time></trkpt><trkpt lat="37.03372839066804" lon="-3.1140222897667273"><ele>1956.0</ele><time>2026-04-22T11:29:19.999Z</time></trkpt><trkpt lat="37.03376381696122" lon="-3.1141080442568874"><ele>1957.5</ele><time>2026-04-22T11:29:21.999Z</time></trkpt><trkpt lat="37.0338104322318" lon="-3.1141746872780307"><ele>1959.0</ele><time>2026-04-22T11:29:23.999Z</time></trkpt><trkpt lat="37.03388744761447" lon="-3.114261583251893"><ele>1960.5</ele><time>2026-04-22T11:29:26.999Z</time></trkpt><trkpt lat="37.033945613047486" lon="-3.1143307460938345"><ele>1962.0</ele><time>2026-04-22T11:29:28.999Z</time></trkpt><trkpt lat="37.03401821324445" lon="-3.1144086797796406"><ele>1963.5</ele><time>2026-04-22T11:29:31.999Z</time></trkpt><trkpt lat="37.03406987545312" lon="-3.114462509892084"><ele>1965.0</ele><time>2026-04-22T11:29:33.999Z</time></trkpt><trkpt lat="37.034119757983454" lon="-3.114518284044535"><ele>1965.5</ele><time>2026-04-22T11:29:35.999Z</time></trkpt><trkpt lat="37.03417936430345" lon="-3.1145888882307537"><ele>1966.0</ele><time>2026-04-22T11:29:38.999Z</time></trkpt><trkpt lat="37.03424670498115" lon="-3.114667593521791"><ele>1966.5</ele><time>2026-04-22T11:29:41.999Z</time></trkpt><trkpt lat="37.034286888966115" lon="-3.1147318215465103"><ele>1967.0</ele><time>2026-04-22T11:29:43.999Z</time></trkpt><trkpt lat="37.034329494687796" lon="-3.114796574036332"><ele>1967.5</ele><time>2026-04-22T11:29:45.999Z</time></trkpt><trkpt lat="37.0343912641361" lon="-3.114880788435924"><ele>1968.0</ele><time>2026-04-22T11:29:48.999Z</time></trkpt><trkpt lat="37.03444034523192" lon="-3.114936194356579"><ele>1968.571428571429</ele><time>2026-04-22T11:29:50.999Z</time></trkpt><trkpt lat="37.03448769055199" lon="-3.1149949785142343"><ele>1969.1428571428573</ele><time>2026-04-22T11:29:52.999Z</time></trkpt><trkpt lat="37.03453416663415" lon="-3.115048863304913"><ele>1969.7142857142858</ele><time>2026-04-22T11:29:54.999Z</time></trkpt><trkpt lat="37.034581700371206" lon="-3.1151046911160356"><ele>1970.2857142857144</ele><time>2026-04-22T11:29:56.999Z</time></trkpt><trkpt lat="37.034655809334694" lon="-3.115173681565576"><ele>1970.8571428571431</ele><time>2026-04-22T11:29:59.999Z</time></trkpt><trkpt lat="37.034707319818175" lon="-3.115228102142216"><ele>1971.4285714285713</ele><time>2026-04-22T11:30:01.999Z</time></trkpt><trkpt lat="37.0347371905541" lon="-3.115297729237183"><ele>1972.0</ele><time>2026-04-22T11:30:03.999Z</time></trkpt><trkpt lat="37.03470177438247" lon="-3.1154064795494545"><ele>1972.0</ele><time>2026-04-22T11:30:06.999Z</time></trkpt><trkpt lat="37.03464542473335" lon="-3.1154507251948207"><ele>1972.0</ele><time>2026-04-22T11:30:08.999Z</time></trkpt><trkpt lat="37.034576584518405" lon="-3.115479588873231"><ele>1972.0</ele><time>2026-04-22T11:30:10.998Z</time></trkpt><trkpt lat="37.03451451043419" lon="-3.1155233966588014"><ele>1972.0</ele><time>2026-04-22T11:30:12.998Z</time></trkpt><trkpt lat="37.03445637257812" lon="-3.1155670693360786"><ele>1972.0</ele><time>2026-04-22T11:30:14.998Z</time></trkpt><trkpt lat="37.0344002923897" lon="-3.115608111689047"><ele>1972.0</ele><time>2026-04-22T11:30:16.998Z</time></trkpt><trkpt lat="37.03434338697768" lon="-3.115652015264754"><ele>1972.0</ele><time>2026-04-22T11:30:18.998Z</time></trkpt><trkpt lat="37.03428757516428" lon="-3.1156938278999906"><ele>1971.2857142857142</ele><time>2026-04-22T11:30:20.998Z</time></trkpt><trkpt lat="37.034231809020355" lon="-3.115741469408383"><ele>1970.5714285714287</ele><time>2026-04-22T11:30:22.998Z</time></trkpt><trkpt lat="37.034179141226275" lon="-3.115789101457987"><ele>1969.857142857143</ele><time>2026-04-22T11:30:24.998Z</time></trkpt><trkpt lat="37.03412575785795" lon="-3.1158386140603302"><ele>1969.142857142857</ele><time>2026-04-22T11:30:26.998Z</time></trkpt><trkpt lat="37.034052512019656" lon="-3.1159204635887425"><ele>1968.4285714285716</ele><time>2026-04-22T11:30:29.998Z</time></trkpt><trkpt lat="37.03399974798265" lon="-3.115975057507726"><ele>1967.7142857142858</ele><time>2026-04-22T11:30:31.998Z</time></trkpt><trkpt lat="37.03395473511255" lon="-3.1160330703794332"><ele>1967.0</ele><time>2026-04-22T11:30:33.998Z</time></trkpt><trkpt lat="37.03390595344458" lon="-3.1160921472371297"><ele>1967.0</ele><time>2026-04-22T11:30:35.998Z</time></trkpt><trkpt lat="37.03385715477088" lon="-3.1161484211087465"><ele>1967.0</ele><time>2026-04-22T11:30:37.998Z</time></trkpt><trkpt lat="37.033812819000616" lon="-3.116205107322735"><ele>1967.0</ele><time>2026-04-22T11:30:39.997Z</time></trkpt><trkpt lat="37.03376631731768" lon="-3.116262072988795"><ele>1967.0</ele><time>2026-04-22T11:30:41.997Z</time></trkpt><trkpt lat="37.03372014810179" lon="-3.116319396397561"><ele>1967.0</ele><time>2026-04-22T11:30:43.997Z</time></trkpt><trkpt lat="37.033675759694006" lon="-3.1163771320671345"><ele>1967.0</ele><time>2026-04-22T11:30:45.997Z</time></trkpt><trkpt lat="37.03362767583802" lon="-3.1164406537882714"><ele>1967.0</ele><time>2026-04-22T11:30:47.997Z</time></trkpt><trkpt lat="37.03356297335418" lon="-3.11652822717607"><ele>1967.5714285714284</ele><time>2026-04-22T11:30:50.998Z</time></trkpt><trkpt lat="37.03352062052342" lon="-3.1165877280225485"><ele>1968.142857142857</ele><time>2026-04-22T11:30:52.998Z</time></trkpt><trkpt lat="37.03347107115105" lon="-3.1166563332008197"><ele>1968.7142857142858</ele><time>2026-04-22T11:30:54.998Z</time></trkpt><trkpt lat="37.033427071922816" lon="-3.116717198774728"><ele>1969.2857142857142</ele><time>2026-04-22T11:30:56.998Z</time></trkpt><trkpt lat="37.033383478585684" lon="-3.1167769926176536"><ele>1969.8571428571427</ele><time>2026-04-22T11:30:58.998Z</time></trkpt><trkpt lat="37.03334441952661" lon="-3.1168424563913253"><ele>1970.4285714285713</ele><time>2026-04-22T11:31:00.998Z</time></trkpt><trkpt lat="37.033302374284226" lon="-3.116901449366611"><ele>1971.0</ele><time>2026-04-22T11:31:02.998Z</time></trkpt><trkpt lat="37.03324206371484" lon="-3.1169871560612488"><ele>1969.8333333333333</ele><time>2026-04-22T11:31:05.998Z</time></trkpt><trkpt lat="37.03318482099448" lon="-3.1170784244477154"><ele>1968.6666666666665</ele><time>2026-04-22T11:31:08.999Z</time></trkpt><trkpt lat="37.033125515397764" lon="-3.1171652278886186"><ele>1967.5</ele><time>2026-04-22T11:31:11.999Z</time></trkpt><trkpt lat="37.033070825761286" lon="-3.1172492078533245"><ele>1966.3333333333333</ele><time>2026-04-22T11:31:14.999Z</time></trkpt><trkpt lat="37.03301646094888" lon="-3.1173019659073367"><ele>1965.1666666666665</ele><time>2026-04-22T11:31:16.999Z</time></trkpt><trkpt lat="37.03293567482419" lon="-3.117355006349072"><ele>1964.0</ele><time>2026-04-22T11:31:19.999Z</time></trkpt><trkpt lat="37.03284880583672" lon="-3.1174071818370375"><ele>1964.0</ele><time>2026-04-22T11:31:22.999Z</time></trkpt><trkpt lat="37.03278287235322" lon="-3.1174495050109408"><ele>1963.9999999999998</ele><time>2026-04-22T11:31:24.999Z</time></trkpt><trkpt lat="37.03272428741705" lon="-3.1174961057689914"><ele>1964.0</ele><time>2026-04-22T11:31:26.999Z</time></trkpt><trkpt lat="37.03266428810842" lon="-3.1175546029618326"><ele>1964.0</ele><time>2026-04-22T11:31:28.999Z</time></trkpt><trkpt lat="37.03261501357417" lon="-3.117606251528932"><ele>1963.9999999999998</ele><time>2026-04-22T11:31:30.999Z</time></trkpt><trkpt lat="37.03256006441875" lon="-3.11766127152892"><ele>1964.0</ele><time>2026-04-22T11:31:32.999Z</time></trkpt><trkpt lat="37.03248214222567" lon="-3.1177022417869202"><ele>1964.0</ele><time>2026-04-22T11:31:35.999Z</time></trkpt><trkpt lat="37.03240754992845" lon="-3.117760773485739"><ele>1961.9999999999998</ele><time>2026-04-22T11:32:14.999Z</time></trkpt><trkpt lat="37.032331523671104" lon="-3.1178135574802948"><ele>1960.0</ele><time>2026-04-22T11:32:17.999Z</time></trkpt><trkpt lat="37.03225366330282" lon="-3.1178705561271847"><ele>1958.0</ele><time>2026-04-22T11:32:20.999Z</time></trkpt><trkpt lat="37.032195472665926" lon="-3.1179108786146315"><ele>1956.0</ele><time>2026-04-22T11:32:22.999Z</time></trkpt><trkpt lat="37.03213408725072" lon="-3.1179523635621216"><ele>1953.9999999999998</ele><time>2026-04-22T11:32:24.999Z</time></trkpt><trkpt lat="37.03207404960512" lon="-3.1179967354624827"><ele>1952.0</ele><time>2026-04-22T11:32:26.999Z</time></trkpt><trkpt lat="37.03201768472734" lon="-3.118045334187964"><ele>1951.9999999999998</ele><time>2026-04-22T11:32:28.999Z</time></trkpt><trkpt lat="37.031962798812266" lon="-3.118095074600006"><ele>1952.0</ele><time>2026-04-22T11:32:30.999Z</time></trkpt><trkpt lat="37.031916574452396" lon="-3.1181487329748547"><ele>1951.9999999999998</ele><time>2026-04-22T11:32:32.999Z</time></trkpt><trkpt lat="37.03186967464326" lon="-3.1182066795959593"><ele>1951.9999999999998</ele><time>2026-04-22T11:32:34.999Z</time></trkpt><trkpt lat="37.031803780229595" lon="-3.118292509323735"><ele>1952.0</ele><time>2026-04-22T11:32:37.999Z</time></trkpt><trkpt lat="37.03175667289492" lon="-3.1183590517010105"><ele>1951.9999999999998</ele><time>2026-04-22T11:32:39.999Z</time></trkpt><trkpt lat="37.03171108187834" lon="-3.118421730645021"><ele>1951.9999999999998</ele><time>2026-04-22T11:32:41.999Z</time></trkpt><trkpt lat="37.031649598776774" lon="-3.1185093829073636"><ele>1950.9999999999998</ele><time>2026-04-22T11:32:44.999Z</time></trkpt><trkpt lat="37.03161006341954" lon="-3.1185725346130524"><ele>1950.0</ele><time>2026-04-22T11:32:46.998Z</time></trkpt><trkpt lat="37.03156262958738" lon="-3.1186346011614567"><ele>1948.9999999999998</ele><time>2026-04-22T11:32:48.998Z</time></trkpt><trkpt lat="37.031515177649574" lon="-3.118699349978577"><ele>1947.9999999999998</ele><time>2026-04-22T11:32:50.998Z</time></trkpt><trkpt lat="37.03146998918422" lon="-3.118764935194127"><ele>1947.0</ele><time>2026-04-22T11:32:52.998Z</time></trkpt><trkpt lat="37.03141896068591" lon="-3.1188335011988086"><ele>1945.9999999999998</ele><time>2026-04-22T11:32:54.998Z</time></trkpt><trkpt lat="37.031369744859475" lon="-3.1188983467051963"><ele>1944.9999999999998</ele><time>2026-04-22T11:32:56.999Z</time></trkpt><trkpt lat="37.03131186977943" lon="-3.118972493993839"><ele>1945.0000000000002</ele><time>2026-04-22T11:32:58.999Z</time></trkpt><trkpt lat="37.03125221327802" lon="-3.119050673174937"><ele>1945.0</ele><time>2026-04-22T11:33:00.999Z</time></trkpt><trkpt lat="37.03118304997297" lon="-3.119101225059571"><ele>1945.0</ele><time>2026-04-22T11:33:02.999Z</time></trkpt><trkpt lat="37.03112149786442" lon="-3.1191610673422243"><ele>1945.0</ele><time>2026-04-22T11:33:04.999Z</time></trkpt><trkpt lat="37.0310574972712" lon="-3.1192131436341017"><ele>1945.0000000000002</ele><time>2026-04-22T11:33:06.999Z</time></trkpt><trkpt lat="37.03097501079643" lon="-3.119276446128743"><ele>1945.0</ele><time>2026-04-22T11:33:08.999Z</time></trkpt><trkpt lat="37.03089700656974" lon="-3.1193422753811886"><ele>1944.6666666666667</ele><time>2026-04-22T11:33:10.999Z</time></trkpt><trkpt lat="37.030841546389894" lon="-3.1193970724740434"><ele>1944.3333333333335</ele><time>2026-04-22T11:33:12.999Z</time></trkpt><trkpt lat="37.030782097360465" lon="-3.119454505365604"><ele>1944.0</ele><time>2026-04-22T11:33:14.999Z</time></trkpt><trkpt lat="37.030719865808855" lon="-3.1195209879339525"><ele>1943.6666666666665</ele><time>2026-04-22T11:33:16.999Z</time></trkpt><trkpt lat="37.030654021360206" lon="-3.1195890255169965"><ele>1943.3333333333333</ele><time>2026-04-22T11:33:18.999Z</time></trkpt><trkpt lat="37.03059143524317" lon="-3.119657508639101"><ele>1943.0</ele><time>2026-04-22T11:33:20.999Z</time></trkpt><trkpt lat="37.03053227777172" lon="-3.1197358693499138"><ele>1943.0</ele><time>2026-04-22T11:33:22.999Z</time></trkpt><trkpt lat="37.03046836169742" lon="-3.1197817939447225"><ele>1943.0000000000002</ele><time>2026-04-22T11:33:24.999Z</time></trkpt><trkpt lat="37.0303847716845" lon="-3.1198165510318088"><ele>1943.0000000000002</ele><time>2026-04-22T11:33:27.999Z</time></trkpt><trkpt lat="37.030381157204324" lon="-3.1199276600960664"><ele>1943.0</ele><time>2026-04-22T11:43:38Z</time></trkpt><trkpt lat="37.03033601203754" lon="-3.120068756304"><ele>1943.0</ele><time>2026-04-22T11:43:40Z</time></trkpt><trkpt lat="37.03026481429102" lon="-3.1202041467587143"><ele>1943.4999999999998</ele><time>2026-04-22T11:43:42Z</time></trkpt><trkpt lat="37.03021243701759" lon="-3.1202688491217043"><ele>1944.0</ele><time>2026-04-22T11:43:43Z</time></trkpt><trkpt lat="37.030147930745876" lon="-3.1203360852279975"><ele>1944.5</ele><time>2026-04-22T11:43:44Z</time></trkpt><trkpt lat="37.03007179953373" lon="-3.120396027619939"><ele>1945.0</ele><time>2026-04-22T11:43:45Z</time></trkpt><trkpt lat="37.029985058405515" lon="-3.120460864522116"><ele>1945.4999999999998</ele><time>2026-04-22T11:43:46Z</time></trkpt><trkpt lat="37.02990378598787" lon="-3.120533412330241"><ele>1946.0</ele><time>2026-04-22T11:43:47Z</time></trkpt><trkpt lat="37.02983421978713" lon="-3.1206224409907257"><ele>1947.0</ele><time>2026-04-22T11:43:48Z</time></trkpt><trkpt lat="37.0297467265083" lon="-3.1206719153772338"><ele>1948.0</ele><time>2026-04-22T11:43:49Z</time></trkpt><trkpt lat="37.02966846589481" lon="-3.120751972745154"><ele>1949.0</ele><time>2026-04-22T11:43:50Z</time></trkpt><trkpt lat="37.0295740974843" lon="-3.120816573373452"><ele>1950.0</ele><time>2026-04-22T11:43:51Z</time></trkpt><trkpt lat="37.029472584003734" lon="-3.120874495632412"><ele>1951.0</ele><time>2026-04-22T11:43:52Z</time></trkpt><trkpt lat="37.02936825702126" lon="-3.120921576791064"><ele>1951.0</ele><time>2026-04-22T11:43:53Z</time></trkpt><trkpt lat="37.0292513784749" lon="-3.120961930194407"><ele>1951.0</ele><time>2026-04-22T11:43:54Z</time></trkpt><trkpt lat="37.02912707699706" lon="-3.1209806157179365"><ele>1951.0</ele><time>2026-04-22T11:43:55Z</time></trkpt><trkpt lat="37.02900613286894" lon="-3.1210255675728784"><ele>1951.0</ele><time>2026-04-22T11:43:56Z</time></trkpt><trkpt lat="37.028898122803774" lon="-3.1210642466298735"><ele>1949.5</ele><time>2026-04-22T11:43:57Z</time></trkpt><trkpt lat="37.028792102270174" lon="-3.12109242558536"><ele>1948.0</ele><time>2026-04-22T11:43:58Z</time></trkpt><trkpt lat="37.02868502380347" lon="-3.121136540200425"><ele>1946.5</ele><time>2026-04-22T11:43:59Z</time></trkpt><trkpt lat="37.02858422243015" lon="-3.12121212420206"><ele>1945.0</ele><time>2026-04-22T11:44:00Z</time></trkpt><trkpt lat="37.028477529282206" lon="-3.121284277465913"><ele>1945.0</ele><time>2026-04-22T11:44:01Z</time></trkpt><trkpt lat="37.028375429171916" lon="-3.1213681132653646"><ele>1945.0</ele><time>2026-04-22T11:44:02Z</time></trkpt><trkpt lat="37.02826147442776" lon="-3.121441163895664"><ele>1945.0</ele><time>2026-04-22T11:44:03Z</time></trkpt><trkpt lat="37.0281523841265" lon="-3.1215321761823187"><ele>1945.0</ele><time>2026-04-22T11:44:04Z</time></trkpt><trkpt lat="37.02804764435391" lon="-3.121613598224939"><ele>1946.25</ele><time>2026-04-22T11:44:05Z</time></trkpt><trkpt lat="37.02794409756775" lon="-3.121680225051159"><ele>1947.5</ele><time>2026-04-22T11:44:06Z</time></trkpt><trkpt lat="37.02783690774837" lon="-3.121739928298539"><ele>1948.75</ele><time>2026-04-22T11:44:07Z</time></trkpt><trkpt lat="37.02773877258742" lon="-3.121829495908586"><ele>1950.0</ele><time>2026-04-22T11:44:08Z</time></trkpt><trkpt lat="37.02763800776273" lon="-3.121912502859179"><ele>1950.0</ele><time>2026-04-22T11:44:09Z</time></trkpt><trkpt lat="37.027529464122644" lon="-3.1219958836549266"><ele>1950.0</ele><time>2026-04-22T11:44:10Z</time></trkpt><trkpt lat="37.027432733894095" lon="-3.122105772784227"><ele>1950.0</ele><time>2026-04-22T11:44:11Z</time></trkpt><trkpt lat="37.02734061882457" lon="-3.1222237376801982"><ele>1950.0</ele><time>2026-04-22T11:44:12Z</time></trkpt><trkpt lat="37.02724775343396" lon="-3.12234306415746"><ele>1949.75</ele><time>2026-04-22T11:44:13Z</time></trkpt><trkpt lat="37.027151575947265" lon="-3.1224619327923757"><ele>1949.5</ele><time>2026-04-22T11:44:14Z</time></trkpt><trkpt lat="37.02705558808475" lon="-3.1225783717230335"><ele>1949.25</ele><time>2026-04-22T11:44:15Z</time></trkpt><trkpt lat="37.026962631219526" lon="-3.1226962281605983"><ele>1949.0</ele><time>2026-04-22T11:44:16Z</time></trkpt><trkpt lat="37.026872970619316" lon="-3.1228169988725334"><ele>1949.0</ele><time>2026-04-22T11:44:17Z</time></trkpt><trkpt lat="37.02678686969937" lon="-3.1229421421724406"><ele>1949.0</ele><time>2026-04-22T11:44:18Z</time></trkpt><trkpt lat="37.0267067816645" lon="-3.1230799330551515"><ele>1949.0</ele><time>2026-04-22T11:44:19Z</time></trkpt><trkpt lat="37.026630893793865" lon="-3.1232261293651944"><ele>1949.0</ele><time>2026-04-22T11:44:20Z</time></trkpt><trkpt lat="37.026558061762984" lon="-3.123377471960035"><ele>1947.75</ele><time>2026-04-22T11:44:21Z</time></trkpt><trkpt lat="37.02648565309901" lon="-3.1235236491473275"><ele>1946.5</ele><time>2026-04-22T11:44:22Z</time></trkpt><trkpt lat="37.02641665292865" lon="-3.1236718978229447"><ele>1945.25</ele><time>2026-04-22T11:44:23Z</time></trkpt><trkpt lat="37.02635566275708" lon="-3.123826351763294"><ele>1944.0</ele><time>2026-04-22T11:44:24Z</time></trkpt><trkpt lat="37.02629151553689" lon="-3.123984335316648"><ele>1946.25</ele><time>2026-04-22T11:44:25Z</time></trkpt><trkpt lat="37.02622572150366" lon="-3.1241421502072355"><ele>1948.5</ele><time>2026-04-22T11:44:26Z</time></trkpt><trkpt lat="37.02616343885275" lon="-3.1242784187004484"><ele>1950.75</ele><time>2026-04-22T11:44:27Z</time></trkpt><trkpt lat="37.02611013832805" lon="-3.124404170737739"><ele>1953.0</ele><time>2026-04-22T11:44:28Z</time></trkpt><trkpt lat="37.026070234198144" lon="-3.124542638449601"><ele>1953.0</ele><time>2026-04-22T11:44:29Z</time></trkpt><trkpt lat="37.02600423386358" lon="-3.12467757144497"><ele>1953.0</ele><time>2026-04-22T11:44:30Z</time></trkpt><trkpt lat="37.025968666107" lon="-3.1248384181762647"><ele>1953.0</ele><time>2026-04-22T11:44:31Z</time></trkpt><trkpt lat="37.0259141244066" lon="-3.124991208659245"><ele>1953.0</ele><time>2026-04-22T11:44:32Z</time></trkpt><trkpt lat="37.02588160396819" lon="-3.1251600662438785"><ele>1954.5</ele><time>2026-04-22T11:44:33Z</time></trkpt><trkpt lat="37.02584852688574" lon="-3.1253288370174555"><ele>1956.0</ele><time>2026-04-22T11:44:34Z</time></trkpt><trkpt lat="37.02581758657667" lon="-3.125500067887965"><ele>1957.5</ele><time>2026-04-22T11:44:35Z</time></trkpt><trkpt lat="37.02579273420168" lon="-3.1256735239486253"><ele>1959.0</ele><time>2026-04-22T11:44:36Z</time></trkpt><trkpt lat="37.02577202909776" lon="-3.1258495300135163"><ele>1955.0</ele><time>2026-04-22T11:44:37Z</time></trkpt><trkpt lat="37.02575804729663" lon="-3.1260264779726565"><ele>1951.0</ele><time>2026-04-22T11:44:38Z</time></trkpt><trkpt lat="37.025753396507156" lon="-3.1262051676235525"><ele>1947.0</ele><time>2026-04-22T11:44:39Z</time></trkpt><trkpt lat="37.02574701524412" lon="-3.12637669424291"><ele>1943.0</ele><time>2026-04-22T11:44:40Z</time></trkpt><trkpt lat="37.02574047107435" lon="-3.1265421850856185"><ele>1943.75</ele><time>2026-04-22T11:44:41Z</time></trkpt><trkpt lat="37.0257371683319" lon="-3.126705096529257"><ele>1944.5</ele><time>2026-04-22T11:44:42Z</time></trkpt><trkpt lat="37.025747278864586" lon="-3.1268679105110824"><ele>1945.25</ele><time>2026-04-22T11:44:43Z</time></trkpt><trkpt lat="37.0257639538093" lon="-3.127029755542883"><ele>1946.0</ele><time>2026-04-22T11:44:44Z</time></trkpt><trkpt lat="37.025785556033654" lon="-3.127183935171688"><ele>1951.25</ele><time>2026-04-22T11:44:45Z</time></trkpt><trkpt lat="37.025811989165014" lon="-3.1273357777083164"><ele>1956.5</ele><time>2026-04-22T11:44:46Z</time></trkpt><trkpt lat="37.02584057530597" lon="-3.1274850049977103"><ele>1961.75</ele><time>2026-04-22T11:44:47Z</time></trkpt><trkpt lat="37.025875899784126" lon="-3.1276298141437398"><ele>1967.0</ele><time>2026-04-22T11:44:48Z</time></trkpt><trkpt lat="37.02592006949534" lon="-3.1277687918600425"><ele>1967.0</ele><time>2026-04-22T11:44:49Z</time></trkpt><trkpt lat="37.025972451969444" lon="-3.1279112947636887"><ele>1967.0</ele><time>2026-04-22T11:44:50Z</time></trkpt><trkpt lat="37.02603095719875" lon="-3.1280502081911212"><ele>1967.0</ele><time>2026-04-22T11:44:51Z</time></trkpt><trkpt lat="37.02609693830272" lon="-3.128190623765634"><ele>1967.0</ele><time>2026-04-22T11:44:52Z</time></trkpt><trkpt lat="37.02617981788573" lon="-3.1283328727682185"><ele>1966.5</ele><time>2026-04-22T11:44:53Z</time></trkpt><trkpt lat="37.02626797129878" lon="-3.128461541561691"><ele>1966.0</ele><time>2026-04-22T11:44:54Z</time></trkpt><trkpt lat="37.02635596426542" lon="-3.128586026350343"><ele>1965.5</ele><time>2026-04-22T11:44:55Z</time></trkpt><trkpt lat="37.02644323921715" lon="-3.1286847115106666"><ele>1965.0</ele><time>2026-04-22T11:44:56Z</time></trkpt><trkpt lat="37.02654294246864" lon="-3.1287717259986745"><ele>1969.0</ele><time>2026-04-22T11:44:57Z</time></trkpt><trkpt lat="37.026653230156974" lon="-3.128856474470312"><ele>1973.0</ele><time>2026-04-22T11:44:58Z</time></trkpt><trkpt lat="37.02676788716825" lon="-3.128922386451318"><ele>1977.0</ele><time>2026-04-22T11:44:59Z</time></trkpt><trkpt lat="37.026885096117354" lon="-3.128966416763584"><ele>1981.0</ele><time>2026-04-22T11:45:00Z</time></trkpt><trkpt lat="37.027006580363505" lon="-3.1289969527038273"><ele>1981.0</ele><time>2026-04-22T11:45:01Z</time></trkpt><trkpt lat="37.02713558396983" lon="-3.1290046689973567"><ele>1981.0</ele><time>2026-04-22T11:45:02Z</time></trkpt><trkpt lat="37.02727703453275" lon="-3.1290016472806963"><ele>1981.0</ele><time>2026-04-22T11:45:03Z</time></trkpt><trkpt lat="37.027410280657286" lon="-3.129000221825182"><ele>1981.0</ele><time>2026-04-22T11:45:04Z</time></trkpt><trkpt lat="37.027521691477446" lon="-3.129007070213643"><ele>1983.5</ele><time>2026-04-22T11:45:05Z</time></trkpt><trkpt lat="37.02763103796063" lon="-3.128998406401785"><ele>1986.0</ele><time>2026-04-22T11:45:06Z</time></trkpt><trkpt lat="37.02775234976147" lon="-3.128970035091599"><ele>1988.5</ele><time>2026-04-22T11:45:07Z</time></trkpt><trkpt lat="37.02787690915221" lon="-3.12891918784215"><ele>1991.0</ele><time>2026-04-22T11:45:08Z</time></trkpt><trkpt lat="37.02800491377206" lon="-3.1288492661854983"><ele>1991.0</ele><time>2026-04-22T11:45:09Z</time></trkpt><trkpt lat="37.028128456458504" lon="-3.1287765796083202"><ele>1991.0</ele><time>2026-04-22T11:45:10Z</time></trkpt><trkpt lat="37.02824635497348" lon="-3.128705912244764"><ele>1991.0</ele><time>2026-04-22T11:45:11Z</time></trkpt><trkpt lat="37.02836242488135" lon="-3.128632316158286"><ele>1991.0</ele><time>2026-04-22T11:45:12Z</time></trkpt><trkpt lat="37.02847737042924" lon="-3.128551110270655"><ele>1991.0</ele><time>2026-04-22T11:45:13Z</time></trkpt><trkpt lat="37.028583301357244" lon="-3.1284516439166135"><ele>1991.0</ele><time>2026-04-22T11:45:14Z</time></trkpt><trkpt lat="37.0286837521303" lon="-3.1283390097470742"><ele>1991.0</ele><time>2026-04-22T11:45:15Z</time></trkpt><trkpt lat="37.02877453024193" lon="-3.128222542717495"><ele>1991.0</ele><time>2026-04-22T11:45:16Z</time></trkpt><trkpt lat="37.028877477721586" lon="-3.1281204691550184"><ele>1993.75</ele><time>2026-04-22T11:45:17Z</time></trkpt><trkpt lat="37.02899227578626" lon="-3.128043624852707"><ele>1996.5</ele><time>2026-04-22T11:45:18Z</time></trkpt><trkpt lat="37.02911551687719" lon="-3.1279953323679206"><ele>1999.25</ele><time>2026-04-22T11:45:19.001Z</time></trkpt><trkpt lat="37.02924259912768" lon="-3.127965862088865"><ele>2002.0</ele><time>2026-04-22T11:45:20.001Z</time></trkpt><trkpt lat="37.029374658991365" lon="-3.1279604726226387"><ele>2002.0</ele><time>2026-04-22T11:45:21Z</time></trkpt><trkpt lat="37.02950722813553" lon="-3.127976275571469"><ele>2002.0</ele><time>2026-04-22T11:45:22Z</time></trkpt><trkpt lat="37.029638762268426" lon="-3.127986003158289"><ele>2002.0</ele><time>2026-04-22T11:45:23Z</time></trkpt><trkpt lat="37.02976882789708" lon="-3.127982920934329"><ele>2002.0</ele><time>2026-04-22T11:45:24Z</time></trkpt><trkpt lat="37.029903735616514" lon="-3.1279765767529084"><ele>2002.5</ele><time>2026-04-22T11:45:25Z</time></trkpt><trkpt lat="37.03003182136649" lon="-3.127971851930589"><ele>2003.0</ele><time>2026-04-22T11:45:26Z</time></trkpt><trkpt lat="37.03016282611142" lon="-3.1279664119552693"><ele>2003.5</ele><time>2026-04-22T11:45:27Z</time></trkpt><trkpt lat="37.030294917652604" lon="-3.1279591189034646"><ele>2004.0</ele><time>2026-04-22T11:45:28Z</time></trkpt><trkpt lat="37.03041749568083" lon="-3.1279592039044415"><ele>2004.0</ele><time>2026-04-22T11:45:29Z</time></trkpt><trkpt lat="37.03053648824734" lon="-3.1279600738499562"><ele>2004.0</ele><time>2026-04-22T11:45:30Z</time></trkpt><trkpt lat="37.03065758830821" lon="-3.1279470888944707"><ele>2004.0</ele><time>2026-04-22T11:45:31Z</time></trkpt><trkpt lat="37.030784259772496" lon="-3.127919691966575"><ele>2004.0</ele><time>2026-04-22T11:45:32Z</time></trkpt><trkpt lat="37.03090842547496" lon="-3.127858733108002"><ele>2003.25</ele><time>2026-04-22T11:45:33Z</time></trkpt><trkpt lat="37.03103028734202" lon="-3.127776458754588"><ele>2002.5</ele><time>2026-04-22T11:45:34Z</time></trkpt><trkpt lat="37.03114835748371" lon="-3.1276894873689915"><ele>2001.75</ele><time>2026-04-22T11:45:35Z</time></trkpt><trkpt lat="37.031259531054054" lon="-3.1276105569146964"><ele>2001.0</ele><time>2026-04-22T11:45:36Z</time></trkpt><trkpt lat="37.031360272006786" lon="-3.1275360341329814"><ele>2001.0</ele><time>2026-04-22T11:45:37Z</time></trkpt><trkpt lat="37.0314629231221" lon="-3.127440261249834"><ele>2001.0</ele><time>2026-04-22T11:45:38Z</time></trkpt><trkpt lat="37.0315647220664" lon="-3.1273179038073087"><ele>2001.0</ele><time>2026-04-22T11:45:39Z</time></trkpt><trkpt lat="37.031667123493634" lon="-3.1271906304269694"><ele>2001.0</ele><time>2026-04-22T11:45:40Z</time></trkpt><trkpt lat="37.03178294797752" lon="-3.1270832202662375"><ele>2003.0</ele><time>2026-04-22T11:45:41Z</time></trkpt><trkpt lat="37.03189787121636" lon="-3.1269911426240533"><ele>2005.0</ele><time>2026-04-22T11:45:42Z</time></trkpt><trkpt lat="37.03199924184" lon="-3.126906382386876"><ele>2007.0</ele><time>2026-04-22T11:45:43Z</time></trkpt><trkpt lat="37.03208517433649" lon="-3.1268333059806817"><ele>2009.0</ele><time>2026-04-22T11:45:44Z</time></trkpt><trkpt lat="37.032165651286874" lon="-3.1267761194603905"><ele>2009.0</ele><time>2026-04-22T11:45:45Z</time></trkpt><trkpt lat="37.03226961116475" lon="-3.1267421545244383"><ele>2009.0</ele><time>2026-04-22T11:45:46Z</time></trkpt><trkpt lat="37.032396064324566" lon="-3.126733708576408"><ele>2009.0</ele><time>2026-04-22T11:45:47Z</time></trkpt><trkpt lat="37.0325388032167" lon="-3.126744192770854"><ele>2009.0</ele><time>2026-04-22T11:45:48Z</time></trkpt><trkpt lat="37.03268311090957" lon="-3.126752707592757"><ele>2006.75</ele><time>2026-04-22T11:45:49Z</time></trkpt><trkpt lat="37.03281835159994" lon="-3.1267609949914865"><ele>2004.5</ele><time>2026-04-22T11:45:50Z</time></trkpt><trkpt lat="37.03294381734893" lon="-3.1267660957560928"><ele>2002.25</ele><time>2026-04-22T11:45:51Z</time></trkpt><trkpt lat="37.03308533865208" lon="-3.126782498942269"><ele>2000.0</ele><time>2026-04-22T11:45:52Z</time></trkpt><trkpt lat="37.03322945703274" lon="-3.126813101424203"><ele>1999.25</ele><time>2026-04-22T11:45:53Z</time></trkpt><trkpt lat="37.03336557643768" lon="-3.1268552254466147"><ele>1998.5</ele><time>2026-04-22T11:45:54Z</time></trkpt><trkpt lat="37.033484655086404" lon="-3.1268936396808638"><ele>1997.75</ele><time>2026-04-22T11:45:55Z</time></trkpt><trkpt lat="37.03360322049837" lon="-3.126925180917902"><ele>1997.0</ele><time>2026-04-22T11:45:56Z</time></trkpt><trkpt lat="37.03371737960136" lon="-3.1269582850998"><ele>1997.0</ele><time>2026-04-22T11:45:57Z</time></trkpt><trkpt lat="37.033825624557714" lon="-3.126989161326859"><ele>1997.0</ele><time>2026-04-22T11:45:58Z</time></trkpt><trkpt lat="37.033950920061145" lon="-3.1270173438765685"><ele>1997.0</ele><time>2026-04-22T11:45:59Z</time></trkpt><trkpt lat="37.034080360107836" lon="-3.127042267519044"><ele>1997.0</ele><time>2026-04-22T11:46:00Z</time></trkpt><trkpt lat="37.03420205837075" lon="-3.1270609669034735"><ele>1996.25</ele><time>2026-04-22T11:46:01Z</time></trkpt><trkpt lat="37.03431996116811" lon="-3.1270842208983844"><ele>1995.5</ele><time>2026-04-22T11:46:02Z</time></trkpt><trkpt lat="37.03444310146549" lon="-3.1270983081474815"><ele>1994.75</ele><time>2026-04-22T11:46:03Z</time></trkpt><trkpt lat="37.03456045091943" lon="-3.127105184026523"><ele>1994.0</ele><time>2026-04-22T11:46:04Z</time></trkpt><trkpt lat="37.034675202196404" lon="-3.1271130095019903"><ele>1994.0</ele><time>2026-04-22T11:46:05Z</time></trkpt><trkpt lat="37.03479746802521" lon="-3.127107299388691"><ele>1994.0</ele><time>2026-04-22T11:46:06Z</time></trkpt><trkpt lat="37.03492116514927" lon="-3.1270869062388282"><ele>1994.0</ele><time>2026-04-22T11:46:07Z</time></trkpt><trkpt lat="37.035042420197655" lon="-3.1270470634184275"><ele>1994.0</ele><time>2026-04-22T11:46:08Z</time></trkpt><trkpt lat="37.03515718323377" lon="-3.1269811505694616"><ele>1992.75</ele><time>2026-04-22T11:46:09Z</time></trkpt><trkpt lat="37.035271221511174" lon="-3.1268837669868046"><ele>1991.5</ele><time>2026-04-22T11:46:10Z</time></trkpt><trkpt lat="37.035388696802706" lon="-3.126781992614332"><ele>1990.25</ele><time>2026-04-22T11:46:11Z</time></trkpt><trkpt lat="37.03551245980072" lon="-3.1267097607822967"><ele>1989.0</ele><time>2026-04-22T11:46:12Z</time></trkpt><trkpt lat="37.0356445361255" lon="-3.1266586715808833"><ele>1989.0</ele><time>2026-04-22T11:46:13Z</time></trkpt><trkpt lat="37.035776992089545" lon="-3.126625555211256"><ele>1989.0</ele><time>2026-04-22T11:46:14Z</time></trkpt><trkpt lat="37.03589926505355" lon="-3.1266062828714447"><ele>1989.0</ele><time>2026-04-22T11:46:15Z</time></trkpt><trkpt lat="37.036008069913244" lon="-3.1265815676427127"><ele>1989.0</ele><time>2026-04-22T11:46:16Z</time></trkpt><trkpt lat="37.03610289328245" lon="-3.126536512729477"><ele>1991.75</ele><time>2026-04-22T11:46:17Z</time></trkpt><trkpt lat="37.03620036031474" lon="-3.1264612907983356"><ele>1994.5</ele><time>2026-04-22T11:46:18Z</time></trkpt><trkpt lat="37.03630033578474" lon="-3.126345116307737"><ele>1997.25</ele><time>2026-04-22T11:46:19Z</time></trkpt><trkpt lat="37.03639548726976" lon="-3.1261995812383945"><ele>2000.0</ele><time>2026-04-22T11:46:20Z</time></trkpt><trkpt lat="37.036481588403795" lon="-3.1260482049343676"><ele>2000.0</ele><time>2026-04-22T11:46:21Z</time></trkpt><trkpt lat="37.03657420616272" lon="-3.1258993072806796"><ele>2000.0</ele><time>2026-04-22T11:46:22Z</time></trkpt><trkpt lat="37.036663324701436" lon="-3.125762062656987"><ele>2000.0</ele><time>2026-04-22T11:46:23Z</time></trkpt><trkpt lat="37.03675467313144" lon="-3.1256227575767235"><ele>2000.0</ele><time>2026-04-22T11:46:24Z</time></trkpt><trkpt lat="37.03684803657036" lon="-3.1254854857589347"><ele>1997.75</ele><time>2026-04-22T11:46:25Z</time></trkpt><trkpt lat="37.03694395613637" lon="-3.1253532193307914"><ele>1995.5</ele><time>2026-04-22T11:46:26Z</time></trkpt><trkpt lat="37.03703927018231" lon="-3.125226976919944"><ele>1993.25</ele><time>2026-04-22T11:46:27Z</time></trkpt><trkpt lat="37.037141761817985" lon="-3.1251090367746825"><ele>1991.0</ele><time>2026-04-22T11:46:28Z</time></trkpt><trkpt lat="37.0372439997921" lon="-3.1250165913086363"><ele>1991.0</ele><time>2026-04-22T11:46:29Z</time></trkpt><trkpt lat="37.03733747998208" lon="-3.1249243283634254"><ele>1991.0</ele><time>2026-04-22T11:46:30Z</time></trkpt><trkpt lat="37.037419941182584" lon="-3.1248418690163295"><ele>1991.0</ele><time>2026-04-22T11:46:31Z</time></trkpt><trkpt lat="37.037498761814874" lon="-3.124766254269503"><ele>1991.0</ele><time>2026-04-22T11:46:32Z</time></trkpt><trkpt lat="37.03757545373456" lon="-3.1246977568662677"><ele>1991.0</ele><time>2026-04-22T11:46:33Z</time></trkpt><trkpt lat="37.0376694449976" lon="-3.124648203575735"><ele>1989.75</ele><time>2026-04-22T11:46:34Z</time></trkpt><trkpt lat="37.037780040827776" lon="-3.1246237033026913"><ele>1988.5</ele><time>2026-04-22T11:46:35Z</time></trkpt><trkpt lat="37.037900010997944" lon="-3.124630050916904"><ele>1987.25</ele><time>2026-04-22T11:46:36Z</time></trkpt><trkpt lat="37.03802840844448" lon="-3.124657296801245"><ele>1986.0</ele><time>2026-04-22T11:46:37Z</time></trkpt><trkpt lat="37.03815658918416" lon="-3.124678949371495"><ele>1986.0</ele><time>2026-04-22T11:46:38Z</time></trkpt><trkpt lat="37.03829168570338" lon="-3.1246730426706923"><ele>1986.0</ele><time>2026-04-22T11:46:39Z</time></trkpt><trkpt lat="37.03843607376764" lon="-3.124650856520638"><ele>1986.0</ele><time>2026-04-22T11:46:40Z</time></trkpt><trkpt lat="37.038578588415696" lon="-3.1246200751703403"><ele>1986.0</ele><time>2026-04-22T11:46:41Z</time></trkpt><trkpt lat="37.03871982296985" lon="-3.1245798639654563"><ele>1983.0</ele><time>2026-04-22T11:46:42Z</time></trkpt><trkpt lat="37.038860752629766" lon="-3.1245363476614"><ele>1980.0</ele><time>2026-04-22T11:46:43Z</time></trkpt><trkpt lat="37.0389891320761" lon="-3.124500196640988"><ele>1977.0</ele><time>2026-04-22T11:46:44Z</time></trkpt><trkpt lat="37.03911105171406" lon="-3.124472995385601"><ele>1974.0</ele><time>2026-04-22T11:46:45Z</time></trkpt><trkpt lat="37.039228888336915" lon="-3.124446326139563"><ele>1972.25</ele><time>2026-04-22T11:46:46Z</time></trkpt><trkpt lat="37.03933949133255" lon="-3.1244191915717794"><ele>1970.5</ele><time>2026-04-22T11:46:47Z</time></trkpt><trkpt lat="37.0394542851545" lon="-3.124409409572703"><ele>1968.75</ele><time>2026-04-22T11:46:48Z</time></trkpt><trkpt lat="37.03956849374636" lon="-3.124401690926675"><ele>1967.0</ele><time>2026-04-22T11:46:49Z</time></trkpt><trkpt lat="37.03969202506494" lon="-3.124398509884333"><ele>1967.0</ele><time>2026-04-22T11:46:50Z</time></trkpt><trkpt lat="37.039824620750494" lon="-3.124409237632155"><ele>1967.0</ele><time>2026-04-22T11:46:51Z</time></trkpt><trkpt lat="37.03995999908666" lon="-3.124417310971776"><ele>1967.0</ele><time>2026-04-22T11:46:52Z</time></trkpt><trkpt lat="37.040087329353575" lon="-3.124427385488162"><ele>1967.0</ele><time>2026-04-22T11:46:53Z</time></trkpt><trkpt lat="37.04022740278286" lon="-3.1244381405177846"><ele>1966.0</ele><time>2026-04-22T11:46:54Z</time></trkpt><trkpt lat="37.0403741284265" lon="-3.1244463120294435"><ele>1965.0</ele><time>2026-04-22T11:46:55Z</time></trkpt><trkpt lat="37.040523682469356" lon="-3.1244465539640727"><ele>1964.0</ele><time>2026-04-22T11:46:56Z</time></trkpt><trkpt lat="37.04067282231245" lon="-3.1244449378602708"><ele>1963.0</ele><time>2026-04-22T11:46:57Z</time></trkpt><trkpt lat="37.04082724743994" lon="-3.1244546395621504"><ele>1963.0</ele><time>2026-04-22T11:46:58Z</time></trkpt><trkpt lat="37.040974106624326" lon="-3.124468395647841"><ele>1963.0</ele><time>2026-04-22T11:46:59Z</time></trkpt><trkpt lat="37.04112244537215" lon="-3.124486722298328"><ele>1963.0</ele><time>2026-04-22T11:47:00Z</time></trkpt><trkpt lat="37.041271519949404" lon="-3.1245048736461496"><ele>1963.0</ele><time>2026-04-22T11:47:01Z</time></trkpt><trkpt lat="37.041413771551966" lon="-3.124516207314474"><ele>1963.0</ele><time>2026-04-22T11:47:02Z</time></trkpt><trkpt lat="37.04154915824194" lon="-3.12452710792018"><ele>1963.0</ele><time>2026-04-22T11:47:03Z</time></trkpt><trkpt lat="37.04168357034736" lon="-3.124543391228119"><ele>1963.0</ele><time>2026-04-22T11:47:04Z</time></trkpt><trkpt lat="37.04182265462874" lon="-3.124568534573268"><ele>1963.0</ele><time>2026-04-22T11:47:05Z</time></trkpt><trkpt lat="37.041965352284194" lon="-3.1246082982201684"><ele>1963.3333333333335</ele><time>2026-04-22T11:47:06Z</time></trkpt><trkpt lat="37.04210919793796" lon="-3.1246574095538597"><ele>1963.6666666666665</ele><time>2026-04-22T11:47:07Z</time></trkpt><trkpt lat="37.042257269907154" lon="-3.1247066925053093"><ele>1964.0</ele><time>2026-04-22T11:47:08Z</time></trkpt><trkpt lat="37.042404374758846" lon="-3.1247646139470437"><ele>1965.0</ele><time>2026-04-22T11:47:09Z</time></trkpt><trkpt lat="37.042548370027234" lon="-3.1248230258427987"><ele>1966.0</ele><time>2026-04-22T11:47:10Z</time></trkpt><trkpt lat="37.04269606816702" lon="-3.1248857188847774"><ele>1967.0</ele><time>2026-04-22T11:47:11Z</time></trkpt><trkpt lat="37.04285216001168" lon="-3.1249502423843856"><ele>1957.6666666666665</ele><time>2026-04-22T11:47:12Z</time></trkpt><trkpt lat="37.04300054691319" lon="-3.125003439175991"><ele>1948.3333333333335</ele><time>2026-04-22T11:47:13Z</time></trkpt><trkpt lat="37.04315304507209" lon="-3.125051647532371"><ele>1939.0</ele><time>2026-04-22T11:47:14Z</time></trkpt><trkpt lat="37.04330243875074" lon="-3.1251013569451347"><ele>1939.0</ele><time>2026-04-22T11:47:15Z</time></trkpt><trkpt lat="37.04343979338096" lon="-3.1251525441310646"><ele>1939.0</ele><time>2026-04-22T11:47:16Z</time></trkpt><trkpt lat="37.043571669901944" lon="-3.1252032246819694"><ele>1939.0</ele><time>2026-04-22T11:47:17Z</time></trkpt><trkpt lat="37.043715803114424" lon="-3.125269863593027"><ele>1939.0</ele><time>2026-04-22T11:47:18Z</time></trkpt><trkpt lat="37.04386546310655" lon="-3.125333009011318"><ele>1939.0</ele><time>2026-04-22T11:47:19Z</time></trkpt><trkpt lat="37.04401633894116" lon="-3.125393397943807"><ele>1939.0</ele><time>2026-04-22T11:47:20Z</time></trkpt><trkpt lat="37.04416624903589" lon="-3.125461533595644"><ele>1939.0</ele><time>2026-04-22T11:47:21Z</time></trkpt><trkpt lat="37.04431785822363" lon="-3.1255245792015183"><ele>1943.0</ele><time>2026-04-22T11:47:22Z</time></trkpt><trkpt lat="37.04447307615498" lon="-3.1255692607767602"><ele>1947.0</ele><time>2026-04-22T11:47:23Z</time></trkpt><trkpt lat="37.044620058448274" lon="-3.125616099897803"><ele>1951.0</ele><time>2026-04-22T11:47:24Z</time></trkpt><trkpt lat="37.044773352986795" lon="-3.125682335684368"><ele>1943.6666666666667</ele><time>2026-04-22T11:47:25Z</time></trkpt><trkpt lat="37.04491972928601" lon="-3.125754807681276"><ele>1936.3333333333335</ele><time>2026-04-22T11:47:26Z</time></trkpt><trkpt lat="37.04507605566448" lon="-3.125825803106199"><ele>1929.0</ele><time>2026-04-22T11:47:26.998Z</time></trkpt><trkpt lat="37.04522330744512" lon="-3.125882736360805"><ele>1929.0</ele><time>2026-04-22T11:47:27.998Z</time></trkpt><trkpt lat="37.04536105726491" lon="-3.125944075051822"><ele>1929.0</ele><time>2026-04-22T11:47:28.998Z</time></trkpt><trkpt lat="37.04550077163972" lon="-3.126000556789395"><ele>1929.0</ele><time>2026-04-22T11:47:29.998Z</time></trkpt><trkpt lat="37.04563381212442" lon="-3.126056768238677"><ele>1929.0</ele><time>2026-04-22T11:47:30.998Z</time></trkpt><trkpt lat="37.04576013484808" lon="-3.126117742948469"><ele>1932.5</ele><time>2026-04-22T11:47:31.998Z</time></trkpt><trkpt lat="37.045877734528865" lon="-3.126180474763432"><ele>1936.0</ele><time>2026-04-22T11:47:32.998Z</time></trkpt><trkpt lat="37.045997554673775" lon="-3.1262507229476855"><ele>1939.5</ele><time>2026-04-22T11:47:33.998Z</time></trkpt><trkpt lat="37.04612158547238" lon="-3.1263449973323265"><ele>1943.0</ele><time>2026-04-22T11:47:34.998Z</time></trkpt><trkpt lat="37.04624088619002" lon="-3.126462682659145"><ele>1934.75</ele><time>2026-04-22T11:47:35.998Z</time></trkpt><trkpt lat="37.04634402929734" lon="-3.1265760116227224"><ele>1926.5</ele><time>2026-04-22T11:47:36.998Z</time></trkpt><trkpt lat="37.04643093405187" lon="-3.126685882475294"><ele>1918.25</ele><time>2026-04-22T11:47:37.998Z</time></trkpt><trkpt lat="37.04651944755556" lon="-3.12677500038032"><ele>1910.0</ele><time>2026-04-22T11:47:38.998Z</time></trkpt><trkpt lat="37.04660733120798" lon="-3.126866448877282"><ele>1914.75</ele><time>2026-04-22T11:47:39.998Z</time></trkpt><trkpt lat="37.046713154970256" lon="-3.126953758176387"><ele>1919.5</ele><time>2026-04-22T11:47:40.998Z</time></trkpt><trkpt lat="37.04682063551619" lon="-3.127027030596854"><ele>1924.25</ele><time>2026-04-22T11:47:41.998Z</time></trkpt><trkpt lat="37.046946510483345" lon="-3.127084876235212"><ele>1929.0</ele><time>2026-04-22T11:47:42.998Z</time></trkpt><trkpt lat="37.04707472926587" lon="-3.127114611008656"><ele>1929.0</ele><time>2026-04-22T11:47:43.998Z</time></trkpt><trkpt lat="37.04720478884116" lon="-3.127136708944947"><ele>1929.0</ele><time>2026-04-22T11:47:44.999Z</time></trkpt><trkpt lat="37.04733537333156" lon="-3.1271632297071323"><ele>1929.0</ele><time>2026-04-22T11:47:45.999Z</time></trkpt><trkpt lat="37.04745839937786" lon="-3.127204744476848"><ele>1929.0</ele><time>2026-04-22T11:47:46.999Z</time></trkpt><trkpt lat="37.04757896253494" lon="-3.1272750140986902"><ele>1930.75</ele><time>2026-04-22T11:47:47.999Z</time></trkpt><trkpt lat="37.04769310598097" lon="-3.127372562382951"><ele>1932.5</ele><time>2026-04-22T11:47:48.999Z</time></trkpt><trkpt lat="37.04779720955515" lon="-3.127454299680058"><ele>1934.25</ele><time>2026-04-22T11:47:49.999Z</time></trkpt><trkpt lat="37.047905623596236" lon="-3.1275248630342656"><ele>1936.0</ele><time>2026-04-22T11:47:50.999Z</time></trkpt><trkpt lat="37.048024314133336" lon="-3.127595197859763"><ele>1929.25</ele><time>2026-04-22T11:47:51.999Z</time></trkpt><trkpt lat="37.04815393520875" lon="-3.1276548264012853"><ele>1922.5</ele><time>2026-04-22T11:47:52.999Z</time></trkpt><trkpt lat="37.048299253764995" lon="-3.127685208590158"><ele>1915.75</ele><time>2026-04-22T11:47:53.999Z</time></trkpt><trkpt lat="37.04844753766304" lon="-3.1276990737570256"><ele>1909.0</ele><time>2026-04-22T11:47:54.999Z</time></trkpt><trkpt lat="37.04859946170363" lon="-3.1277114960356456"><ele>1909.0</ele><time>2026-04-22T11:47:55.999Z</time></trkpt><trkpt lat="37.048750093199125" lon="-3.1277304631262552"><ele>1909.0</ele><time>2026-04-22T11:47:56.999Z</time></trkpt><trkpt lat="37.04889373286977" lon="-3.127760871210748"><ele>1909.0</ele><time>2026-04-22T11:47:57.999Z</time></trkpt><trkpt lat="37.04902473549063" lon="-3.1277953467959905"><ele>1909.0</ele><time>2026-04-22T11:47:58.999Z</time></trkpt><trkpt lat="37.04914838778432" lon="-3.1278464373823605"><ele>1910.5</ele><time>2026-04-22T11:47:59.999Z</time></trkpt><trkpt lat="37.04925928378869" lon="-3.1279235660696996"><ele>1912.0</ele><time>2026-04-22T11:48:00.999Z</time></trkpt><trkpt lat="37.04937603521007" lon="-3.1280339983290797"><ele>1913.5</ele><time>2026-04-22T11:48:01.999Z</time></trkpt><trkpt lat="37.04948521617101" lon="-3.1281737227181483"><ele>1915.0</ele><time>2026-04-22T11:48:02.999Z</time></trkpt><trkpt lat="37.04959862347282" lon="-3.128322668759382"><ele>1913.5</ele><time>2026-04-22T11:48:03.999Z</time></trkpt><trkpt lat="37.0497040785574" lon="-3.128462773380293"><ele>1912.0</ele><time>2026-04-22T11:48:04.999Z</time></trkpt><trkpt lat="37.0497974532376" lon="-3.1285892082248727"><ele>1910.5</ele><time>2026-04-22T11:48:05.999Z</time></trkpt><trkpt lat="37.049882767629164" lon="-3.1287115850855707"><ele>1909.0</ele><time>2026-04-22T11:48:06.999Z</time></trkpt><trkpt lat="37.049971691163975" lon="-3.1288344423209016"><ele>1909.0</ele><time>2026-04-22T11:48:07.999Z</time></trkpt><trkpt lat="37.05007959573041" lon="-3.1289526476879566"><ele>1909.0</ele><time>2026-04-22T11:48:08.999Z</time></trkpt><trkpt lat="37.05019719745589" lon="-3.129063262744814"><ele>1909.0</ele><time>2026-04-22T11:48:09.999Z</time></trkpt><trkpt lat="37.050316294024455" lon="-3.1291758187787093"><ele>1909.0</ele><time>2026-04-22T11:48:10.999Z</time></trkpt><trkpt lat="37.05043694278849" lon="-3.1292925578956923"><ele>1908.75</ele><time>2026-04-22T11:48:11.999Z</time></trkpt><trkpt lat="37.0505534624668" lon="-3.1294103747635202"><ele>1908.5</ele><time>2026-04-22T11:48:12.999Z</time></trkpt><trkpt lat="37.05066893619556" lon="-3.1295296476743792"><ele>1908.25</ele><time>2026-04-22T11:48:13.999Z</time></trkpt><trkpt lat="37.05078138911938" lon="-3.1296402056484447"><ele>1908.0</ele><time>2026-04-22T11:48:14.999Z</time></trkpt><trkpt lat="37.050895739625325" lon="-3.1297540559660137"><ele>1908.0</ele><time>2026-04-22T11:48:15.999Z</time></trkpt><trkpt lat="37.05100186671824" lon="-3.1298640502153385"><ele>1908.0</ele><time>2026-04-22T11:48:16.999Z</time></trkpt><trkpt lat="37.05110066628879" lon="-3.129965673230875"><ele>1908.0</ele><time>2026-04-22T11:48:17.999Z</time></trkpt><trkpt lat="37.05118765407413" lon="-3.130054430813039"><ele>1908.0</ele><time>2026-04-22T11:48:18.999Z</time></trkpt><trkpt lat="37.05127306657106" lon="-3.130140627632377"><ele>1903.75</ele><time>2026-04-22T11:48:20Z</time></trkpt><trkpt lat="37.05136380965121" lon="-3.1302151949324686"><ele>1899.5</ele><time>2026-04-22T11:48:21Z</time></trkpt><trkpt lat="37.05147284775018" lon="-3.130271067849126"><ele>1895.25</ele><time>2026-04-22T11:48:22Z</time></trkpt><trkpt lat="37.051589035965634" lon="-3.13030009477992"><ele>1891.0</ele><time>2026-04-22T11:48:23Z</time></trkpt><trkpt lat="37.0517043291879" lon="-3.1303059816102854"><ele>1891.0</ele><time>2026-04-22T11:48:24Z</time></trkpt><trkpt lat="37.051818538287776" lon="-3.1302802179466367"><ele>1891.0</ele><time>2026-04-22T11:48:25Z</time></trkpt><trkpt lat="37.05193667662032" lon="-3.1302261148576007"><ele>1891.0</ele><time>2026-04-22T11:48:26Z</time></trkpt><trkpt lat="37.05205810304738" lon="-3.130158687443472"><ele>1891.0</ele><time>2026-04-22T11:48:27Z</time></trkpt><trkpt lat="37.05216747887299" lon="-3.1301019595981283"><ele>1891.0</ele><time>2026-04-22T11:48:28Z</time></trkpt><trkpt lat="37.05227158897699" lon="-3.13004555712398"><ele>1891.0</ele><time>2026-04-22T11:48:29Z</time></trkpt><trkpt lat="37.05237368686657" lon="-3.1300095301311694"><ele>1891.0</ele><time>2026-04-22T11:48:30Z</time></trkpt><trkpt lat="37.0524822408206" lon="-3.1300147882710334"><ele>1891.0</ele><time>2026-04-22T11:48:31Z</time></trkpt><trkpt lat="37.052594098213866" lon="-3.1300555212479266"><ele>1891.0</ele><time>2026-04-22T11:48:32Z</time></trkpt><trkpt lat="37.05271213821618" lon="-3.130098099747761"><ele>1890.0</ele><time>2026-04-22T11:48:33Z</time></trkpt><trkpt lat="37.052826475413816" lon="-3.1301360902605655"><ele>1889.0</ele><time>2026-04-22T11:48:34Z</time></trkpt><trkpt lat="37.052924332213614" lon="-3.1301754935214148"><ele>1888.0</ele><time>2026-04-22T11:48:35Z</time></trkpt><trkpt lat="37.053017786961775" lon="-3.130241465725374"><ele>1887.0</ele><time>2026-04-22T11:48:36Z</time></trkpt><trkpt lat="37.053103000021814" lon="-3.130344188819305"><ele>1886.0</ele><time>2026-04-22T11:48:37Z</time></trkpt><trkpt lat="37.053188704366015" lon="-3.13047892657331"><ele>1886.0</ele><time>2026-04-22T11:48:38Z</time></trkpt><trkpt lat="37.0532776075181" lon="-3.130626948738783"><ele>1886.0</ele><time>2026-04-22T11:48:39Z</time></trkpt><trkpt lat="37.053357950872766" lon="-3.130739821975231"><ele>1886.0</ele><time>2026-04-22T11:48:40Z</time></trkpt><trkpt lat="37.053434427410004" lon="-3.130822785545711"><ele>1886.0</ele><time>2026-04-22T11:48:41Z</time></trkpt><trkpt lat="37.05352740254615" lon="-3.1308751374599493"><ele>1882.25</ele><time>2026-04-22T11:48:42Z</time></trkpt><trkpt lat="37.053665432706026" lon="-3.130890885712361"><ele>1878.5</ele><time>2026-04-22T11:48:43Z</time></trkpt><trkpt lat="37.05381630395313" lon="-3.130883078059239"><ele>1874.75</ele><time>2026-04-22T11:48:44Z</time></trkpt><trkpt lat="37.053971217753784" lon="-3.1308651103459066"><ele>1871.0</ele><time>2026-04-22T11:48:45Z</time></trkpt><trkpt lat="37.05411723739225" lon="-3.130856508828816"><ele>1871.75</ele><time>2026-04-22T11:48:46Z</time></trkpt><trkpt lat="37.05425377210254" lon="-3.1308576442314555"><ele>1872.5</ele><time>2026-04-22T11:48:47Z</time></trkpt><trkpt lat="37.054380819976046" lon="-3.130859638510916"><ele>1873.25</ele><time>2026-04-22T11:48:48Z</time></trkpt><trkpt lat="37.05450744830181" lon="-3.1308775760762617"><ele>1874.0</ele><time>2026-04-22T11:48:49Z</time></trkpt><trkpt lat="37.05463741260976" lon="-3.1309172217646175"><ele>1874.0</ele><time>2026-04-22T11:48:50Z</time></trkpt><trkpt lat="37.054760828436095" lon="-3.130974038813116"><ele>1874.0</ele><time>2026-04-22T11:48:51Z</time></trkpt><trkpt lat="37.05488050039923" lon="-3.1310103969624907"><ele>1874.0</ele><time>2026-04-22T11:48:52Z</time></trkpt><trkpt lat="37.05499458335229" lon="-3.13102398989704"><ele>1874.0</ele><time>2026-04-22T11:48:53Z</time></trkpt><trkpt lat="37.055114538889725" lon="-3.1310145517199333"><ele>1874.6</ele><time>2026-04-22T11:48:54Z</time></trkpt><trkpt lat="37.05523313443734" lon="-3.1309777679559025"><ele>1875.2</ele><time>2026-04-22T11:48:55Z</time></trkpt><trkpt lat="37.05533315932233" lon="-3.130937658874587"><ele>1875.7999999999997</ele><time>2026-04-22T11:48:56Z</time></trkpt><trkpt lat="37.05540407473091" lon="-3.1308978395909253"><ele>1876.3999999999999</ele><time>2026-04-22T11:48:57Z</time></trkpt><trkpt lat="37.05549272083164" lon="-3.1308994382306787"><ele>1877.0</ele><time>2026-04-22T11:48:59Z</time></trkpt><trkpt lat="37.05556007921015" lon="-3.130907702867832"><ele>1877.0</ele><time>2026-04-22T11:49:01Z</time></trkpt><trkpt lat="37.055590316293525" lon="-3.1310748387979923"><ele>1876.9999999999998</ele><time>2026-04-22T11:49:02Z</time></trkpt><trkpt lat="37.05559279869137" lon="-3.1311762243722896"><ele>1876.9999999999998</ele><time>2026-04-22T11:49:03Z</time></trkpt><trkpt lat="37.05555630706053" lon="-3.1312565358639737"><ele>1877.0</ele><time>2026-04-22T11:49:04Z</time></trkpt><trkpt lat="37.05548502191008" lon="-3.131333502735901"><ele>1877.0</ele><time>2026-04-22T11:49:05Z</time></trkpt><trkpt lat="37.05538486616484" lon="-3.1313990158548273"><ele>1877.0</ele><time>2026-04-22T11:49:06Z</time></trkpt><trkpt lat="37.055250887127805" lon="-3.131468887057608"><ele>1877.0</ele><time>2026-04-22T11:49:07Z</time></trkpt><trkpt lat="37.05511147144336" lon="-3.131530077063491"><ele>1877.0</ele><time>2026-04-22T11:49:08Z</time></trkpt><trkpt lat="37.05498767622327" lon="-3.1315806142181453"><ele>1877.0</ele><time>2026-04-22T11:49:09Z</time></trkpt><trkpt lat="37.054871366226074" lon="-3.1316360286626796"><ele>1873.3999999999999</ele><time>2026-04-22T11:49:10Z</time></trkpt><trkpt lat="37.054753275737326" lon="-3.131662068582352"><ele>1869.7999999999997</ele><time>2026-04-22T11:49:11Z</time></trkpt><trkpt lat="37.054656847147434" lon="-3.131682248733863"><ele>1866.2</ele><time>2026-04-22T11:49:12Z</time></trkpt><trkpt lat="37.054569437308494" lon="-3.13171206194509"><ele>1862.6</ele><time>2026-04-22T11:49:13Z</time></trkpt><trkpt lat="37.05448119798603" lon="-3.1317627838482425"><ele>1859.0</ele><time>2026-04-22T11:49:14Z</time></trkpt><trkpt lat="37.0543863567529" lon="-3.1318325920130725"><ele>1859.0</ele><time>2026-04-22T11:49:15Z</time></trkpt><trkpt lat="37.05428999605526" lon="-3.131917317589302"><ele>1859.0</ele><time>2026-04-22T11:49:16Z</time></trkpt><trkpt lat="37.054185619264985" lon="-3.132003725071541"><ele>1859.0</ele><time>2026-04-22T11:49:17Z</time></trkpt><trkpt lat="37.05408377038028" lon="-3.132087255324901"><ele>1859.0</ele><time>2026-04-22T11:49:18Z</time></trkpt><trkpt lat="37.05398302293835" lon="-3.132151681249895"><ele>1857.0</ele><time>2026-04-22T11:49:19Z</time></trkpt><trkpt lat="37.05389147368429" lon="-3.1322327443087383"><ele>1855.0</ele><time>2026-04-22T11:49:20Z</time></trkpt><trkpt lat="37.05377678426106" lon="-3.13228868996189"><ele>1853.0</ele><time>2026-04-22T11:49:21Z</time></trkpt><trkpt lat="37.05364823172267" lon="-3.1323115850100853"><ele>1851.0</ele><time>2026-04-22T11:49:22Z</time></trkpt><trkpt lat="37.05352450913641" lon="-3.13236175224919"><ele>1851.0</ele><time>2026-04-22T11:49:23Z</time></trkpt><trkpt lat="37.05338783365582" lon="-3.1323885878015743"><ele>1851.0</ele><time>2026-04-22T11:49:24Z</time></trkpt><trkpt lat="37.05326111992214" lon="-3.132403014590619"><ele>1851.0</ele><time>2026-04-22T11:49:25Z</time></trkpt><trkpt lat="37.0531367942186" lon="-3.132416286855562"><ele>1851.0</ele><time>2026-04-22T11:49:26Z</time></trkpt><trkpt lat="37.05301392498875" lon="-3.1324289260966176"><ele>1852.8</ele><time>2026-04-22T11:49:27Z</time></trkpt><trkpt lat="37.05290259943233" lon="-3.1324213224747712"><ele>1854.6</ele><time>2026-04-22T11:49:28Z</time></trkpt><trkpt lat="37.05280833496865" lon="-3.132431246955818"><ele>1856.4</ele><time>2026-04-22T11:49:29Z</time></trkpt><trkpt lat="37.05271922369469" lon="-3.1324283583029437"><ele>1858.2</ele><time>2026-04-22T11:49:30Z</time></trkpt><trkpt lat="37.05263273739954" lon="-3.132473155098006"><ele>1860.0</ele><time>2026-04-22T11:49:31Z</time></trkpt><trkpt lat="37.05256309383333" lon="-3.1325411731676276"><ele>1860.0</ele><time>2026-04-22T11:49:32Z</time></trkpt><trkpt lat="37.052502657585634" lon="-3.132640379484469"><ele>1860.0</ele><time>2026-04-22T11:49:32.999Z</time></trkpt><trkpt lat="37.052453822647614" lon="-3.132747620757559"><ele>1860.0</ele><time>2026-04-22T11:49:33.999Z</time></trkpt><trkpt lat="37.05241417518723" lon="-3.1328403233766307"><ele>1860.0</ele><time>2026-04-22T11:49:34.999Z</time></trkpt><trkpt lat="37.0523819365839" lon="-3.132923332285802"><ele>1860.0</ele><time>2026-04-22T11:49:35.999Z</time></trkpt><trkpt lat="37.052347770969504" lon="-3.1330015673552465"><ele>1860.0</ele><time>2026-04-22T11:49:36.999Z</time></trkpt><trkpt lat="37.052272757244594" lon="-3.133080665774997"><ele>1857.5</ele><time>2026-04-22T11:49:38.999Z</time></trkpt><trkpt lat="37.05220620102437" lon="-3.1331016098745668"><ele>1855.0</ele><time>2026-04-22T11:49:41.999Z</time></trkpt><trkpt lat="37.052114148921895" lon="-3.1330705323505783"><ele>1852.5</ele><time>2026-04-22T11:50:31Z</time></trkpt><trkpt lat="37.05204253604548" lon="-3.1329944066440816"><ele>1850.0</ele><time>2026-04-22T11:50:32Z</time></trkpt><trkpt lat="37.05195635628536" lon="-3.1329448685659544"><ele>1847.5</ele><time>2026-04-22T11:50:33Z</time></trkpt><trkpt lat="37.05187794450048" lon="-3.132896782897426"><ele>1845.0</ele><time>2026-04-22T11:50:34Z</time></trkpt><trkpt lat="37.0517936054091" lon="-3.1328806408552796"><ele>1845.0</ele><time>2026-04-22T11:50:35Z</time></trkpt><trkpt lat="37.05168960988332" lon="-3.13289610585665"><ele>1845.0</ele><time>2026-04-22T11:50:36Z</time></trkpt><trkpt lat="37.05156105973209" lon="-3.1329268610020713"><ele>1845.0</ele><time>2026-04-22T11:50:37Z</time></trkpt><trkpt lat="37.05143358188849" lon="-3.1329643941879635"><ele>1845.0</ele><time>2026-04-22T11:50:38Z</time></trkpt><trkpt lat="37.05130458054366" lon="-3.132980208796484"><ele>1846.0</ele><time>2026-04-22T11:50:39Z</time></trkpt><trkpt lat="37.05117865654981" lon="-3.1330013782381987"><ele>1847.0</ele><time>2026-04-22T11:50:40Z</time></trkpt><trkpt lat="37.05105318238287" lon="-3.1330016954481112"><ele>1848.0</ele><time>2026-04-22T11:50:41Z</time></trkpt><trkpt lat="37.0509288980703" lon="-3.13297169943789"><ele>1849.0</ele><time>2026-04-22T11:50:42Z</time></trkpt><trkpt lat="37.05079624678526" lon="-3.1329387352644567"><ele>1853.0</ele><time>2026-04-22T11:50:43Z</time></trkpt><trkpt lat="37.050669902389735" lon="-3.1328934258102246"><ele>1857.0</ele><time>2026-04-22T11:50:44Z</time></trkpt><trkpt lat="37.050545307818396" lon="-3.1328233805610917"><ele>1861.0</ele><time>2026-04-22T11:50:45Z</time></trkpt><trkpt lat="37.050411047525614" lon="-3.1327719878689684"><ele>1865.0</ele><time>2026-04-22T11:50:46Z</time></trkpt><trkpt lat="37.05028292142558" lon="-3.1327060057302587"><ele>1865.0</ele><time>2026-04-22T11:50:47Z</time></trkpt><trkpt lat="37.05015466290958" lon="-3.1326877062019527"><ele>1865.0</ele><time>2026-04-22T11:50:48Z</time></trkpt><trkpt lat="37.05003118858824" lon="-3.1326674031007937"><ele>1865.0</ele><time>2026-04-22T11:50:49Z</time></trkpt><trkpt lat="37.04990011155657" lon="-3.1326404137626813"><ele>1865.0</ele><time>2026-04-22T11:50:50Z</time></trkpt><trkpt lat="37.04977301662969" lon="-3.1326743978514684"><ele>1863.0</ele><time>2026-04-22T11:50:51Z</time></trkpt><trkpt lat="37.04963785266995" lon="-3.132710370498378"><ele>1861.0</ele><time>2026-04-22T11:50:52Z</time></trkpt><trkpt lat="37.04950577113807" lon="-3.1327643453589755"><ele>1859.0</ele><time>2026-04-22T11:50:53Z</time></trkpt><trkpt lat="37.049372967812424" lon="-3.132835523841011"><ele>1857.0</ele><time>2026-04-22T11:50:54Z</time></trkpt><trkpt lat="37.04923834558846" lon="-3.1329220849724875"><ele>1854.5</ele><time>2026-04-22T11:50:55Z</time></trkpt><trkpt lat="37.04911050716372" lon="-3.133005824075484"><ele>1852.0</ele><time>2026-04-22T11:50:56Z</time></trkpt><trkpt lat="37.04899285315463" lon="-3.1330811765414683"><ele>1849.5</ele><time>2026-04-22T11:50:57Z</time></trkpt><trkpt lat="37.0488867645822" lon="-3.133158946856415"><ele>1847.0</ele><time>2026-04-22T11:50:58Z</time></trkpt><trkpt lat="37.04878828196457" lon="-3.133248728123837"><ele>1856.3999999999999</ele><time>2026-04-22T11:50:59Z</time></trkpt><trkpt lat="37.04869232061983" lon="-3.133302768680769"><ele>1865.7999999999997</ele><time>2026-04-22T11:51:00Z</time></trkpt><trkpt lat="37.04862078645923" lon="-3.1333488713648334"><ele>1875.2</ele><time>2026-04-22T11:51:01Z</time></trkpt><trkpt lat="37.048535423590856" lon="-3.1333537896736043"><ele>1884.6</ele><time>2026-04-22T11:51:02Z</time></trkpt><trkpt lat="37.048419912405826" lon="-3.133335031026681"><ele>1894.0</ele><time>2026-04-22T11:51:03Z</time></trkpt><trkpt lat="37.04828923711353" lon="-3.133294880025869"><ele>1897.25</ele><time>2026-04-22T11:51:04.001Z</time></trkpt><trkpt lat="37.04815528883996" lon="-3.1332548775957174"><ele>1900.5</ele><time>2026-04-22T11:51:05.001Z</time></trkpt><trkpt lat="37.04801952793557" lon="-3.1332081908890226"><ele>1903.75</ele><time>2026-04-22T11:51:06.001Z</time></trkpt><trkpt lat="37.04786664054551" lon="-3.133148713819251"><ele>1907.0</ele><time>2026-04-22T11:51:07.001Z</time></trkpt><trkpt lat="37.047714791667055" lon="-3.133105820659737"><ele>1895.6666666666665</ele><time>2026-04-22T11:51:08.001Z</time></trkpt><trkpt lat="37.047567354612625" lon="-3.1330322203439462"><ele>1884.3333333333335</ele><time>2026-04-22T11:51:09.001Z</time></trkpt><trkpt lat="37.04741638352687" lon="-3.1329891519264508"><ele>1873.0</ele><time>2026-04-22T11:51:10.001Z</time></trkpt><trkpt lat="37.0472585095048" lon="-3.1329582587362195"><ele>1873.0</ele><time>2026-04-22T11:51:11.001Z</time></trkpt><trkpt lat="37.04711993235111" lon="-3.132914276212449"><ele>1873.0</ele><time>2026-04-22T11:51:12.001Z</time></trkpt><trkpt lat="37.047011637921145" lon="-3.132871327626118"><ele>1873.0</ele><time>2026-04-22T11:51:13.001Z</time></trkpt><trkpt lat="37.046896317155465" lon="-3.132856362390118"><ele>1873.0</ele><time>2026-04-22T11:51:14.001Z</time></trkpt><trkpt lat="37.04677810021194" lon="-3.132871284427204"><ele>1873.0</ele><time>2026-04-22T11:51:15.001Z</time></trkpt><trkpt lat="37.046671986560035" lon="-3.132916053397043"><ele>1873.0</ele><time>2026-04-22T11:51:16.001Z</time></trkpt><trkpt lat="37.04656068858704" lon="-3.13301218607028"><ele>1873.0</ele><time>2026-04-22T11:51:17.001Z</time></trkpt><trkpt lat="37.04643895204331" lon="-3.1331283835702175"><ele>1873.0</ele><time>2026-04-22T11:51:18.001Z</time></trkpt><trkpt lat="37.04633346034832" lon="-3.133286669251497"><ele>1877.0</ele><time>2026-04-22T11:51:19.001Z</time></trkpt><trkpt lat="37.046218018392565" lon="-3.1334838620555594"><ele>1881.0</ele><time>2026-04-22T11:51:20.001Z</time></trkpt><trkpt lat="37.046085813007224" lon="-3.1337281486026525"><ele>1885.0</ele><time>2026-04-22T11:51:21.001Z</time></trkpt><trkpt lat="37.04595239156856" lon="-3.133974682550212"><ele>1880.0</ele><time>2026-04-22T11:51:22.001Z</time></trkpt><trkpt lat="37.04583610849977" lon="-3.1341961253291997"><ele>1875.0</ele><time>2026-04-22T11:51:23.001Z</time></trkpt><trkpt lat="37.04571027534024" lon="-3.134401115951884"><ele>1870.0</ele><time>2026-04-22T11:51:24.001Z</time></trkpt><trkpt lat="37.045595119611036" lon="-3.134612914488917"><ele>1870.0</ele><time>2026-04-22T11:51:25.001Z</time></trkpt><trkpt lat="37.04549543403097" lon="-3.1348194158407474"><ele>1870.0</ele><time>2026-04-22T11:51:26.001Z</time></trkpt><trkpt lat="37.04537813907465" lon="-3.134995368052965"><ele>1870.0</ele><time>2026-04-22T11:51:27.001Z</time></trkpt><trkpt lat="37.045265221744856" lon="-3.1351875006169236"><ele>1870.6666666666667</ele><time>2026-04-22T11:51:28.001Z</time></trkpt><trkpt lat="37.04515617052889" lon="-3.135385825910579"><ele>1871.3333333333335</ele><time>2026-04-22T11:51:29.001Z</time></trkpt><trkpt lat="37.045048046515845" lon="-3.1355868503242696"><ele>1872.0</ele><time>2026-04-22T11:51:30.001Z</time></trkpt><trkpt lat="37.044950619273045" lon="-3.135812099879378"><ele>1872.0</ele><time>2026-04-22T11:51:31.001Z</time></trkpt><trkpt lat="37.0448544231379" lon="-3.136050936197245"><ele>1872.0</ele><time>2026-04-22T11:51:32.001Z</time></trkpt><trkpt lat="37.044760919709645" lon="-3.13628700210057"><ele>1872.0</ele><time>2026-04-22T11:51:33.001Z</time></trkpt><trkpt lat="37.0446598693253" lon="-3.1364990005601383"><ele>1878.6666666666665</ele><time>2026-04-22T11:51:34.001Z</time></trkpt><trkpt lat="37.04456228474146" lon="-3.1367072609335516"><ele>1885.3333333333333</ele><time>2026-04-22T11:51:35.001Z</time></trkpt><trkpt lat="37.0444569432312" lon="-3.136918813831644"><ele>1892.0</ele><time>2026-04-22T11:51:36.001Z</time></trkpt><trkpt lat="37.04435381318647" lon="-3.1371289432727023"><ele>1892.0</ele><time>2026-04-22T11:51:37.001Z</time></trkpt><trkpt lat="37.04427851563367" lon="-3.1373563164587925"><ele>1892.0</ele><time>2026-04-22T11:51:38.001Z</time></trkpt><trkpt lat="37.04418154204503" lon="-3.1375613809502583"><ele>1892.0</ele><time>2026-04-22T11:51:38.998Z</time></trkpt><trkpt lat="37.044096888833415" lon="-3.137774304894801"><ele>1891.3333333333333</ele><time>2026-04-22T11:51:39.998Z</time></trkpt><trkpt lat="37.04401658260854" lon="-3.1379550299880807"><ele>1890.6666666666665</ele><time>2026-04-22T11:51:40.998Z</time></trkpt><trkpt lat="37.043938387562186" lon="-3.1381109512768015"><ele>1890.0</ele><time>2026-04-22T11:51:41.998Z</time></trkpt><trkpt lat="37.043864817267625" lon="-3.1382660987226845"><ele>1890.0</ele><time>2026-04-22T11:51:42.998Z</time></trkpt><trkpt lat="37.043811869989504" lon="-3.1384608579922535"><ele>1890.0</ele><time>2026-04-22T11:51:43.998Z</time></trkpt><trkpt lat="37.043743272592785" lon="-3.138670790247079"><ele>1890.0</ele><time>2026-04-22T11:51:44.998Z</time></trkpt><trkpt lat="37.04369787881425" lon="-3.1388656593067417"><ele>1890.0</ele><time>2026-04-22T11:51:45.998Z</time></trkpt><trkpt lat="37.04367311146539" lon="-3.1390449922098576"><ele>1890.0</ele><time>2026-04-22T11:51:46.998Z</time></trkpt><trkpt lat="37.04358827183198" lon="-3.1391797341112944"><ele>1890.0</ele><time>2026-04-22T11:51:47.999Z</time></trkpt><trkpt lat="37.0435122926192" lon="-3.139347219165812"><ele>1890.0</ele><time>2026-04-22T11:51:48.999Z</time></trkpt><trkpt lat="37.043462631651465" lon="-3.139553919694988"><ele>1890.3333333333335</ele><time>2026-04-22T11:51:49.999Z</time></trkpt><trkpt lat="37.04336709387648" lon="-3.1397444544071025"><ele>1890.6666666666667</ele><time>2026-04-22T11:51:50.999Z</time></trkpt><trkpt lat="37.043273958058336" lon="-3.1399217949961398"><ele>1891.0</ele><time>2026-04-22T11:51:51.999Z</time></trkpt><trkpt lat="37.04316429727242" lon="-3.140095522716246"><ele>1891.0</ele><time>2026-04-22T11:51:52.999Z</time></trkpt><trkpt lat="37.043049036549924" lon="-3.1402748738195028"><ele>1891.0</ele><time>2026-04-22T11:51:53.999Z</time></trkpt><trkpt lat="37.04295252587047" lon="-3.1404270979378617"><ele>1891.0</ele><time>2026-04-22T11:51:54.999Z</time></trkpt><trkpt lat="37.04285650341612" lon="-3.140585422512814"><ele>1896.3333333333335</ele><time>2026-04-22T11:51:55.999Z</time></trkpt><trkpt lat="37.04276575846326" lon="-3.140747713259551"><ele>1901.6666666666665</ele><time>2026-04-22T11:51:56.999Z</time></trkpt><trkpt lat="37.04265968445317" lon="-3.1409229829656256"><ele>1907.0</ele><time>2026-04-22T11:51:57.999Z</time></trkpt><trkpt lat="37.042559689426845" lon="-3.1411174689782158"><ele>1909.3333333333333</ele><time>2026-04-22T11:51:58.999Z</time></trkpt><trkpt lat="37.0424190889776" lon="-3.141283418994206"><ele>1911.6666666666665</ele><time>2026-04-22T11:51:59.999Z</time></trkpt><trkpt lat="37.04228626736438" lon="-3.1414407954646557"><ele>1914.0</ele><time>2026-04-22T11:52:00.999Z</time></trkpt><trkpt lat="37.042201111118786" lon="-3.1415915214114847"><ele>1914.0</ele><time>2026-04-22T11:52:01.999Z</time></trkpt><trkpt lat="37.042104590141356" lon="-3.141677860225857"><ele>1914.0</ele><time>2026-04-22T11:52:02.999Z</time></trkpt><trkpt lat="37.042015405739335" lon="-3.1417514526524024"><ele>1914.0</ele><time>2026-04-22T11:52:03.999Z</time></trkpt><trkpt lat="37.041917053952595" lon="-3.141801693685932"><ele>1914.0</ele><time>2026-04-22T11:52:04.999Z</time></trkpt><trkpt lat="37.04179436877197" lon="-3.1418289053162956"><ele>1914.0</ele><time>2026-04-22T11:52:05.999Z</time></trkpt><trkpt lat="37.04166702512438" lon="-3.141896708089913"><ele>1914.0</ele><time>2026-04-22T11:52:06.999Z</time></trkpt><trkpt lat="37.041516119482246" lon="-3.141984401140451"><ele>1914.0</ele><time>2026-04-22T11:52:07.999Z</time></trkpt><trkpt lat="37.041348499035934" lon="-3.1420993821675554"><ele>1911.3333333333335</ele><time>2026-04-22T11:52:08.999Z</time></trkpt><trkpt lat="37.04118124063808" lon="-3.1422236615093304"><ele>1908.6666666666667</ele><time>2026-04-22T11:52:10Z</time></trkpt><trkpt lat="37.04100597310421" lon="-3.142334320188666"><ele>1906.0</ele><time>2026-04-22T11:52:11Z</time></trkpt><trkpt lat="37.040841034462225" lon="-3.1424563780764148"><ele>1906.3333333333335</ele><time>2026-04-22T11:52:12Z</time></trkpt><trkpt lat="37.04068466084192" lon="-3.1425881315300694"><ele>1906.6666666666665</ele><time>2026-04-22T11:52:13Z</time></trkpt><trkpt lat="37.040536313391755" lon="-3.1427039957050167"><ele>1907.0</ele><time>2026-04-22T11:52:14Z</time></trkpt><trkpt lat="37.04038915276554" lon="-3.1428377934517844"><ele>1907.0</ele><time>2026-04-22T11:52:15Z</time></trkpt><trkpt lat="37.04024163410378" lon="-3.142985860195267"><ele>1907.0</ele><time>2026-04-22T11:52:16Z</time></trkpt><trkpt lat="37.04009077073938" lon="-3.143119898111043"><ele>1907.0</ele><time>2026-04-22T11:52:17Z</time></trkpt><trkpt lat="37.039939467846224" lon="-3.1432710718858146"><ele>1906.75</ele><time>2026-04-22T11:52:18Z</time></trkpt><trkpt lat="37.03980925956033" lon="-3.1433954236171555"><ele>1906.5</ele><time>2026-04-22T11:52:19Z</time></trkpt><trkpt lat="37.03969196734635" lon="-3.1435068600460605"><ele>1906.25</ele><time>2026-04-22T11:52:20Z</time></trkpt><trkpt lat="37.03959980461991" lon="-3.1436256146986126"><ele>1906.0</ele><time>2026-04-22T11:52:21Z</time></trkpt><trkpt lat="37.039503447252876" lon="-3.143739394383222"><ele>1906.0</ele><time>2026-04-22T11:52:22Z</time></trkpt><trkpt lat="37.03941783973876" lon="-3.143898709301775"><ele>1906.0</ele><time>2026-04-22T11:52:23Z</time></trkpt><trkpt lat="37.03932626940434" lon="-3.144107251265103"><ele>1906.0</ele><time>2026-04-22T11:52:24Z</time></trkpt><trkpt lat="37.03924212181786" lon="-3.144305322280645"><ele>1910.6666666666667</ele><time>2026-04-22T11:52:25Z</time></trkpt><trkpt lat="37.039169498604714" lon="-3.144474530498427"><ele>1915.3333333333335</ele><time>2026-04-22T11:52:26Z</time></trkpt><trkpt lat="37.039111081386906" lon="-3.1446388186025502"><ele>1920.0</ele><time>2026-04-22T11:52:27Z</time></trkpt><trkpt lat="37.039058805800195" lon="-3.1448319462932335"><ele>1913.6666666666665</ele><time>2026-04-22T11:52:28Z</time></trkpt><trkpt lat="37.0390090274823" lon="-3.145045904676194"><ele>1907.3333333333333</ele><time>2026-04-22T11:52:29Z</time></trkpt><trkpt lat="37.03895851080563" lon="-3.1452737044228414"><ele>1901.0</ele><time>2026-04-22T11:52:30Z</time></trkpt><trkpt lat="37.03890888316622" lon="-3.1455109696851165"><ele>1905.6666666666665</ele><time>2026-04-22T11:52:31Z</time></trkpt><trkpt lat="37.03884855318216" lon="-3.1457371942156587"><ele>1910.3333333333335</ele><time>2026-04-22T11:52:32Z</time></trkpt><trkpt lat="37.03879737571014" lon="-3.145951368439912"><ele>1915.0</ele><time>2026-04-22T11:52:33Z</time></trkpt><trkpt lat="37.03873813143586" lon="-3.14614733815946"><ele>1915.0</ele><time>2026-04-22T11:52:34Z</time></trkpt><trkpt lat="37.03865845961274" lon="-3.146336796093971"><ele>1915.0</ele><time>2026-04-22T11:52:35Z</time></trkpt><trkpt lat="37.038559455627706" lon="-3.146512125853735"><ele>1915.0</ele><time>2026-04-22T11:52:36Z</time></trkpt><trkpt lat="37.0384505373664" lon="-3.1466730022950586"><ele>1915.3333333333335</ele><time>2026-04-22T11:52:37Z</time></trkpt><trkpt lat="37.0383414481467" lon="-3.1468056083425973"><ele>1915.6666666666665</ele><time>2026-04-22T11:52:38Z</time></trkpt><trkpt lat="37.038209027873535" lon="-3.14691641734808"><ele>1916.0</ele><time>2026-04-22T11:52:39Z</time></trkpt><trkpt lat="37.03804087128388" lon="-3.1470147884238053"><ele>1916.0</ele><time>2026-04-22T11:52:40Z</time></trkpt><trkpt lat="37.037851321377275" lon="-3.1471013002684343"><ele>1916.0</ele><time>2026-04-22T11:52:41Z</time></trkpt><trkpt lat="37.03765329847515" lon="-3.1471929621141617"><ele>1916.0</ele><time>2026-04-22T11:52:42Z</time></trkpt><trkpt lat="37.03746639352479" lon="-3.147289483090936"><ele>1918.3333333333333</ele><time>2026-04-22T11:52:43Z</time></trkpt><trkpt lat="37.037296178118766" lon="-3.147407920155937"><ele>1920.6666666666665</ele><time>2026-04-22T11:52:44Z</time></trkpt><trkpt lat="37.03714534858865" lon="-3.147498110902512"><ele>1923.0</ele><time>2026-04-22T11:52:45Z</time></trkpt><trkpt lat="37.037020892987336" lon="-3.147581957695529"><ele>1923.0</ele><time>2026-04-22T11:52:46Z</time></trkpt><trkpt lat="37.03690815185115" lon="-3.1476814732640306"><ele>1923.0</ele><time>2026-04-22T11:52:47Z</time></trkpt><trkpt lat="37.03680255457544" lon="-3.147814822247033"><ele>1923.0</ele><time>2026-04-22T11:52:48Z</time></trkpt><trkpt lat="37.0366871832188" lon="-3.147988220127096"><ele>1920.6666666666665</ele><time>2026-04-22T11:52:49Z</time></trkpt><trkpt lat="37.036550287648076" lon="-3.1481627853255207"><ele>1918.3333333333333</ele><time>2026-04-22T11:52:50Z</time></trkpt><trkpt lat="37.0364388181122" lon="-3.1483702410783456"><ele>1916.0</ele><time>2026-04-22T11:52:51Z</time></trkpt><trkpt lat="37.036317278773275" lon="-3.14856700997955"><ele>1916.0</ele><time>2026-04-22T11:52:52Z</time></trkpt><trkpt lat="37.03620775727206" lon="-3.148736289404368"><ele>1916.0</ele><time>2026-04-22T11:52:53Z</time></trkpt><trkpt lat="37.03610911755024" lon="-3.1488606936301986"><ele>1916.0</ele><time>2026-04-22T11:52:54Z</time></trkpt><trkpt lat="37.0360490958642" lon="-3.1489906233896043"><ele>1916.0</ele><time>2026-04-22T11:52:55.001Z</time></trkpt><trkpt lat="37.035989176386835" lon="-3.149129995339691"><ele>1919.0</ele><time>2026-04-22T11:52:56.001Z</time></trkpt><trkpt lat="37.03593344951007" lon="-3.1492946567539795"><ele>1922.0</ele><time>2026-04-22T11:52:57.001Z</time></trkpt><trkpt lat="37.03587663619443" lon="-3.1494707697396627"><ele>1925.0</ele><time>2026-04-22T11:52:58.001Z</time></trkpt><trkpt lat="37.03583404854288" lon="-3.149634312787999"><ele>1928.0</ele><time>2026-04-22T11:52:59.001Z</time></trkpt><trkpt lat="37.03582401399473" lon="-3.149773819983365"><ele>1929.5</ele><time>2026-04-22T11:53:00.001Z</time></trkpt><trkpt lat="37.03583320710224" lon="-3.149923091059014"><ele>1931.0</ele><time>2026-04-22T11:53:01.001Z</time></trkpt><trkpt lat="37.035862953442354" lon="-3.1500945076722715"><ele>1932.5</ele><time>2026-04-22T11:53:02.001Z</time></trkpt><trkpt lat="37.03589565416039" lon="-3.1502764688875207"><ele>1934.0</ele><time>2026-04-22T11:53:03.001Z</time></trkpt><trkpt lat="37.03592678126963" lon="-3.150427051339336"><ele>1934.0</ele><time>2026-04-22T11:53:04.001Z</time></trkpt><trkpt lat="37.035972803033125" lon="-3.150554997152604"><ele>1934.0</ele><time>2026-04-22T11:53:05.001Z</time></trkpt><trkpt lat="37.03605512535635" lon="-3.15069166663344"><ele>1934.0</ele><time>2026-04-22T11:53:06.001Z</time></trkpt><trkpt lat="37.03616935342098" lon="-3.1508725652949043"><ele>1934.0</ele><time>2026-04-22T11:53:07.001Z</time></trkpt><trkpt lat="37.03631232796153" lon="-3.1510610908568624"><ele>1933.0</ele><time>2026-04-22T11:53:08.001Z</time></trkpt><trkpt lat="37.03644841857413" lon="-3.15125321747218"><ele>1932.0</ele><time>2026-04-22T11:53:09.001Z</time></trkpt><trkpt lat="37.03658405667433" lon="-3.151450004713525"><ele>1931.0</ele><time>2026-04-22T11:53:10.001Z</time></trkpt><trkpt lat="37.03672269534567" lon="-3.151648279773901"><ele>1934.6666666666665</ele><time>2026-04-22T11:53:11.001Z</time></trkpt><trkpt lat="37.03685463527843" lon="-3.151846028976601"><ele>1938.3333333333335</ele><time>2026-04-22T11:53:12.001Z</time></trkpt><trkpt lat="37.03697856763454" lon="-3.1520407276775457"><ele>1942.0</ele><time>2026-04-22T11:53:13.001Z</time></trkpt><trkpt lat="37.03711092628372" lon="-3.1522174025326852"><ele>1936.6666666666667</ele><time>2026-04-22T11:53:14.001Z</time></trkpt><trkpt lat="37.03723883737824" lon="-3.1523968235237594"><ele>1931.3333333333335</ele><time>2026-04-22T11:53:15.001Z</time></trkpt><trkpt lat="37.03735274680905" lon="-3.152588953814078"><ele>1926.0</ele><time>2026-04-22T11:53:16.001Z</time></trkpt><trkpt lat="37.03746807607056" lon="-3.152757633264488"><ele>1937.3333333333335</ele><time>2026-04-22T11:53:17.001Z</time></trkpt><trkpt lat="37.03757733511526" lon="-3.1529101337661314"><ele>1948.6666666666667</ele><time>2026-04-22T11:53:18.001Z</time></trkpt><trkpt lat="37.03767934803521" lon="-3.153058272680555"><ele>1960.0</ele><time>2026-04-22T11:53:19.001Z</time></trkpt><trkpt lat="37.037767357821075" lon="-3.1531990840446222"><ele>1953.5</ele><time>2026-04-22T11:53:20.001Z</time></trkpt><trkpt lat="37.0378337311775" lon="-3.1533266099438695"><ele>1947.0</ele><time>2026-04-22T11:53:21.001Z</time></trkpt><trkpt lat="37.03791449752382" lon="-3.1534225447779485"><ele>1940.5</ele><time>2026-04-22T11:53:22.001Z</time></trkpt><trkpt lat="37.03799053187535" lon="-3.1535224267663313"><ele>1934.0</ele><time>2026-04-22T11:53:23.001Z</time></trkpt><trkpt lat="37.03810890716934" lon="-3.153608408316355"><ele>1934.0</ele><time>2026-04-22T11:53:24.001Z</time></trkpt><trkpt lat="37.03826366100876" lon="-3.1537021055470524"><ele>1934.0</ele><time>2026-04-22T11:53:25.001Z</time></trkpt><trkpt lat="37.038423793241506" lon="-3.153758107965438"><ele>1934.0</ele><time>2026-04-22T11:53:26.001Z</time></trkpt><trkpt lat="37.03854896421202" lon="-3.153823383385814"><ele>1935.5</ele><time>2026-04-22T11:53:27.001Z</time></trkpt><trkpt lat="37.03865222584115" lon="-3.153910750588317"><ele>1937.0</ele><time>2026-04-22T11:53:28.001Z</time></trkpt><trkpt lat="37.038741264619574" lon="-3.154020698137987"><ele>1938.5</ele><time>2026-04-22T11:53:29.001Z</time></trkpt><trkpt lat="37.03881946689768" lon="-3.154183153759394"><ele>1940.0</ele><time>2026-04-22T11:53:30.001Z</time></trkpt><trkpt lat="37.038903959199594" lon="-3.154389138610633"><ele>1940.0</ele><time>2026-04-22T11:53:31.001Z</time></trkpt><trkpt lat="37.03899629615164" lon="-3.1546105584143236"><ele>1940.0</ele><time>2026-04-22T11:53:32.001Z</time></trkpt><trkpt lat="37.0390924108216" lon="-3.154831645212574"><ele>1940.0</ele><time>2026-04-22T11:53:33.001Z</time></trkpt><trkpt lat="37.03917887685063" lon="-3.155031075467739"><ele>1945.3333333333333</ele><time>2026-04-22T11:53:34.001Z</time></trkpt><trkpt lat="37.03927237138276" lon="-3.1552235921687433"><ele>1950.6666666666665</ele><time>2026-04-22T11:53:35.001Z</time></trkpt><trkpt lat="37.03936642468804" lon="-3.155387968113167"><ele>1956.0</ele><time>2026-04-22T11:53:36.001Z</time></trkpt><trkpt lat="37.039433520925904" lon="-3.155539758404504"><ele>1956.0</ele><time>2026-04-22T11:53:37.001Z</time></trkpt><trkpt lat="37.03951328924379" lon="-3.1556779417478427"><ele>1956.0</ele><time>2026-04-22T11:53:38.001Z</time></trkpt><trkpt lat="37.03959557247044" lon="-3.155808171116453"><ele>1956.0</ele><time>2026-04-22T11:53:39.001Z</time></trkpt><trkpt lat="37.03961983297926" lon="-3.1559927826570764"><ele>1956.0</ele><time>2026-04-22T11:53:40.001Z</time></trkpt><trkpt lat="37.039643987224366" lon="-3.15619404113086"><ele>1950.0</ele><time>2026-04-22T11:53:41.001Z</time></trkpt><trkpt lat="37.03967616344945" lon="-3.1563951497334557"><ele>1944.0</ele><time>2026-04-22T11:53:42.001Z</time></trkpt><trkpt lat="37.03967748384394" lon="-3.1566111537408617"><ele>1938.0</ele><time>2026-04-22T11:53:43.001Z</time></trkpt><trkpt lat="37.03966102050014" lon="-3.156807974081531"><ele>1937.75</ele><time>2026-04-22T11:53:44.001Z</time></trkpt><trkpt lat="37.0396522757121" lon="-3.1569821653394015"><ele>1937.5</ele><time>2026-04-22T11:53:44.999Z</time></trkpt><trkpt lat="37.039663925441005" lon="-3.1571441644431677"><ele>1937.25</ele><time>2026-04-22T11:53:45.999Z</time></trkpt><trkpt lat="37.0396818372369" lon="-3.157291796917186"><ele>1937.0</ele><time>2026-04-22T11:53:46.999Z</time></trkpt><trkpt lat="37.03970311102503" lon="-3.15742935100493"><ele>1939.8333333333333</ele><time>2026-04-22T11:53:47.999Z</time></trkpt><trkpt lat="37.039734722175524" lon="-3.1575509627291085"><ele>1942.6666666666665</ele><time>2026-04-22T11:53:48.999Z</time></trkpt><trkpt lat="37.03976589089662" lon="-3.1576604775818025"><ele>1945.5</ele><time>2026-04-22T11:53:49.999Z</time></trkpt><trkpt lat="37.03978177588641" lon="-3.157742550893126"><ele>1948.3333333333335</ele><time>2026-04-22T11:53:50.999Z</time></trkpt><trkpt lat="37.03976898247341" lon="-3.157824471980821"><ele>1951.1666666666667</ele><time>2026-04-22T11:53:51.999Z</time></trkpt><trkpt lat="37.03971089295537" lon="-3.1578890435697047"><ele>1954.0</ele><time>2026-04-22T11:53:52.999Z</time></trkpt><trkpt lat="37.03962796968636" lon="-3.157916857384673"><ele>1954.0</ele><time>2026-04-22T11:53:53.999Z</time></trkpt><trkpt lat="37.03952163796833" lon="-3.15785583828965"><ele>1954.0</ele><time>2026-04-22T11:53:54.999Z</time></trkpt><trkpt lat="37.039413729604966" lon="-3.1577603713907934"><ele>1954.0</ele><time>2026-04-22T11:53:55.999Z</time></trkpt><trkpt lat="37.0392623131742" lon="-3.1577195870744834"><ele>1954.0</ele><time>2026-04-22T11:53:56.999Z</time></trkpt><trkpt lat="37.039102020911166" lon="-3.1576739846116535"><ele>1952.0</ele><time>2026-04-22T11:53:57.999Z</time></trkpt><trkpt lat="37.038966296970564" lon="-3.1576510010290595"><ele>1950.0</ele><time>2026-04-22T11:53:58.999Z</time></trkpt><trkpt lat="37.0388510609277" lon="-3.1576425295752575"><ele>1948.0</ele><time>2026-04-22T11:53:59.999Z</time></trkpt><trkpt lat="37.038761190684596" lon="-3.1576568538481267"><ele>1946.0</ele><time>2026-04-22T11:54:00.999Z</time></trkpt><trkpt lat="37.03868628325187" lon="-3.1577037444664424"><ele>1944.0</ele><time>2026-04-22T11:54:01.999Z</time></trkpt><trkpt lat="37.03861696622217" lon="-3.157799444172731"><ele>1944.0</ele><time>2026-04-22T11:54:02.999Z</time></trkpt><trkpt lat="37.03853741911334" lon="-3.1579402618473926"><ele>1944.0</ele><time>2026-04-22T11:54:03.999Z</time></trkpt><trkpt lat="37.038443193686085" lon="-3.158128544073205"><ele>1944.0</ele><time>2026-04-22T11:54:05Z</time></trkpt><trkpt lat="37.03835088578183" lon="-3.1582668279231627"><ele>1946.6666666666665</ele><time>2026-04-22T11:54:06Z</time></trkpt><trkpt lat="37.03824505484186" lon="-3.158393218286737"><ele>1949.3333333333333</ele><time>2026-04-22T11:54:07Z</time></trkpt><trkpt lat="37.03811226929724" lon="-3.1585113757124037"><ele>1952.0</ele><time>2026-04-22T11:54:08Z</time></trkpt><trkpt lat="37.0379629212496" lon="-3.1586268476164325"><ele>1952.0</ele><time>2026-04-22T11:54:09Z</time></trkpt><trkpt lat="37.03778369400296" lon="-3.1586709418626118"><ele>1952.0</ele><time>2026-04-22T11:54:10Z</time></trkpt><trkpt lat="37.03760074830648" lon="-3.1586934038782553"><ele>1952.0</ele><time>2026-04-22T11:54:11Z</time></trkpt><trkpt lat="37.03738478585372" lon="-3.1587144597654393"><ele>1949.6666666666665</ele><time>2026-04-22T11:54:12Z</time></trkpt><trkpt lat="37.0371983499521" lon="-3.158751984933126"><ele>1947.3333333333335</ele><time>2026-04-22T11:54:13Z</time></trkpt><trkpt lat="37.03703749101175" lon="-3.158769492532561"><ele>1945.0</ele><time>2026-04-22T11:54:14Z</time></trkpt><trkpt lat="37.03691103166232" lon="-3.1587880613334156"><ele>1945.0</ele><time>2026-04-22T11:54:15Z</time></trkpt><trkpt lat="37.03679082665412" lon="-3.158818507723639"><ele>1945.0</ele><time>2026-04-22T11:54:16Z</time></trkpt><trkpt lat="37.036635576504175" lon="-3.1588934105995916"><ele>1945.0</ele><time>2026-04-22T11:54:17Z</time></trkpt><trkpt lat="37.03645626953676" lon="-3.1590077006372206"><ele>1945.3333333333335</ele><time>2026-04-22T11:54:18Z</time></trkpt><trkpt lat="37.03627231862837" lon="-3.1591296450485684"><ele>1945.6666666666665</ele><time>2026-04-22T11:54:19Z</time></trkpt><trkpt lat="37.03608909238241" lon="-3.159253852504684"><ele>1946.0</ele><time>2026-04-22T11:54:20Z</time></trkpt><trkpt lat="37.035914296058564" lon="-3.1593490518211604"><ele>1943.3333333333333</ele><time>2026-04-22T11:54:21Z</time></trkpt><trkpt lat="37.03573355628996" lon="-3.159464206832322"><ele>1940.6666666666665</ele><time>2026-04-22T11:54:22Z</time></trkpt><trkpt lat="37.03552578421875" lon="-3.159572631886427"><ele>1938.0</ele><time>2026-04-22T11:54:23Z</time></trkpt><trkpt lat="37.035304133730826" lon="-3.1596544557888833"><ele>1938.0</ele><time>2026-04-22T11:54:24Z</time></trkpt><trkpt lat="37.03507586156652" lon="-3.159707192613139"><ele>1938.0</ele><time>2026-04-22T11:54:25Z</time></trkpt><trkpt lat="37.03484056320026" lon="-3.159755968771914"><ele>1935.0</ele><time>2026-04-22T11:54:26Z</time></trkpt><trkpt lat="37.03462445035884" lon="-3.1598040851432483"><ele>1932.0</ele><time>2026-04-22T11:54:27Z</time></trkpt><trkpt lat="37.03443018898869" lon="-3.159847411736628"><ele>1929.0</ele><time>2026-04-22T11:54:28Z</time></trkpt><trkpt lat="37.03423927580468" lon="-3.159912851407889"><ele>1934.3333333333335</ele><time>2026-04-22T11:54:29Z</time></trkpt><trkpt lat="37.0340405000022" lon="-3.1599620541994597"><ele>1939.6666666666667</ele><time>2026-04-22T11:54:30Z</time></trkpt><trkpt lat="37.033849484252414" lon="-3.1600144695672214"><ele>1945.0</ele><time>2026-04-22T11:54:31Z</time></trkpt><trkpt lat="37.0336609909146" lon="-3.1600678900062187"><ele>1945.0</ele><time>2026-04-22T11:54:32Z</time></trkpt><trkpt lat="37.033499288957266" lon="-3.1601119309558436"><ele>1945.0</ele><time>2026-04-22T11:54:33Z</time></trkpt><trkpt lat="37.033335435049" lon="-3.1601373654720386"><ele>1945.0</ele><time>2026-04-22T11:54:34Z</time></trkpt><trkpt lat="37.03316729548346" lon="-3.16011854637087"><ele>1946.6666666666667</ele><time>2026-04-22T11:54:35Z</time></trkpt><trkpt lat="37.03300416823724" lon="-3.1600921198713263"><ele>1948.3333333333335</ele><time>2026-04-22T11:54:36Z</time></trkpt><trkpt lat="37.03285267795629" lon="-3.160052661646119"><ele>1950.0</ele><time>2026-04-22T11:54:37Z</time></trkpt><trkpt lat="37.03268241390936" lon="-3.1600342524114406"><ele>1950.0</ele><time>2026-04-22T11:54:38Z</time></trkpt><trkpt lat="37.03253410552252" lon="-3.160021078845179"><ele>1950.0</ele><time>2026-04-22T11:54:39.001Z</time></trkpt><trkpt lat="37.03240434905544" lon="-3.1600038393509857"><ele>1950.0</ele><time>2026-04-22T11:54:40.001Z</time></trkpt><trkpt lat="37.03229610056358" lon="-3.1600293410899902"><ele>1950.0</ele><time>2026-04-22T11:54:41.001Z</time></trkpt><trkpt lat="37.03220043090555" lon="-3.1600251450149774"><ele>1948.5</ele><time>2026-04-22T11:54:42.001Z</time></trkpt><trkpt lat="37.03210175915129" lon="-3.160027180259386"><ele>1947.0</ele><time>2026-04-22T11:54:43.001Z</time></trkpt><trkpt lat="37.03199622352929" lon="-3.1600820560790654"><ele>1945.5</ele><time>2026-04-22T11:54:44.001Z</time></trkpt><trkpt lat="37.031878633422316" lon="-3.1601659342989024"><ele>1944.0</ele><time>2026-04-22T11:54:45.001Z</time></trkpt><trkpt lat="37.031739346159135" lon="-3.1602740477292794"><ele>1939.6666666666665</ele><time>2026-04-22T11:54:46.001Z</time></trkpt><trkpt lat="37.03158531094478" lon="-3.160398701935071"><ele>1935.3333333333333</ele><time>2026-04-22T11:54:47.001Z</time></trkpt><trkpt lat="37.03142468810831" lon="-3.160528083609819"><ele>1931.0</ele><time>2026-04-22T11:54:48.001Z</time></trkpt><trkpt lat="37.031227672131465" lon="-3.160616368778712"><ele>1935.6666666666665</ele><time>2026-04-22T11:54:49.001Z</time></trkpt><trkpt lat="37.03102145728253" lon="-3.160706720907678"><ele>1940.3333333333335</ele><time>2026-04-22T11:54:50.001Z</time></trkpt><trkpt lat="37.030813886590934" lon="-3.160802092364783"><ele>1945.0</ele><time>2026-04-22T11:54:51.001Z</time></trkpt><trkpt lat="37.03062486148578" lon="-3.1608784202779123"><ele>1945.0</ele><time>2026-04-22T11:54:52.001Z</time></trkpt><trkpt lat="37.03044613954705" lon="-3.1609505876311523"><ele>1945.0</ele><time>2026-04-22T11:54:53.001Z</time></trkpt><trkpt lat="37.03026057383066" lon="-3.161019393005112"><ele>1945.0</ele><time>2026-04-22T11:54:54.001Z</time></trkpt><trkpt lat="37.03008517861757" lon="-3.1610879217951333"><ele>1942.6666666666667</ele><time>2026-04-22T11:54:55.001Z</time></trkpt><trkpt lat="37.02992089408462" lon="-3.1611491449431997"><ele>1940.3333333333335</ele><time>2026-04-22T11:54:56.001Z</time></trkpt><trkpt lat="37.02978682232334" lon="-3.1612281321418343"><ele>1938.0</ele><time>2026-04-22T11:54:57.001Z</time></trkpt><trkpt lat="37.02965377015483" lon="-3.1612971440060185"><ele>1938.0</ele><time>2026-04-22T11:54:58.001Z</time></trkpt><trkpt lat="37.029521309220094" lon="-3.1613917830652722"><ele>1938.0</ele><time>2026-04-22T11:54:59.001Z</time></trkpt><trkpt lat="37.02938860433711" lon="-3.161500352382499"><ele>1938.0</ele><time>2026-04-22T11:55:00.001Z</time></trkpt><trkpt lat="37.02924605408707" lon="-3.161620552491752"><ele>1938.0</ele><time>2026-04-22T11:55:01.001Z</time></trkpt><trkpt lat="37.02910151220017" lon="-3.1617448653565763"><ele>1938.0</ele><time>2026-04-22T11:55:02.001Z</time></trkpt><trkpt lat="37.028941976816746" lon="-3.161898925351139"><ele>1938.0</ele><time>2026-04-22T11:55:03.001Z</time></trkpt><trkpt lat="37.028815234220566" lon="-3.1620533571931335"><ele>1938.0</ele><time>2026-04-22T11:55:04.001Z</time></trkpt><trkpt lat="37.02868294039322" lon="-3.1622177662627333"><ele>1938.0</ele><time>2026-04-22T11:55:05.001Z</time></trkpt><trkpt lat="37.028558984819504" lon="-3.1623718129732503"><ele>1938.0</ele><time>2026-04-22T11:55:06.001Z</time></trkpt><trkpt lat="37.02844445226512" lon="-3.1625120622919076"><ele>1937.75</ele><time>2026-04-22T11:55:07.001Z</time></trkpt><trkpt lat="37.02834836764673" lon="-3.1626223786834355"><ele>1937.5</ele><time>2026-04-22T11:55:08.001Z</time></trkpt><trkpt lat="37.02825552491099" lon="-3.16273159261787"><ele>1937.25</ele><time>2026-04-22T11:55:09.001Z</time></trkpt><trkpt lat="37.02815915369386" lon="-3.1628679435569773"><ele>1937.0</ele><time>2026-04-22T11:55:10.001Z</time></trkpt><trkpt lat="37.02807176780371" lon="-3.1630264750995396"><ele>1941.0</ele><time>2026-04-22T11:55:11.001Z</time></trkpt><trkpt lat="37.02797543339947" lon="-3.1631982668067637"><ele>1945.0</ele><time>2026-04-22T11:55:12.001Z</time></trkpt><trkpt lat="37.02785857702661" lon="-3.1633622083148696"><ele>1949.0</ele><time>2026-04-22T11:55:13.001Z</time></trkpt><trkpt lat="37.02777274580074" lon="-3.163567941811391"><ele>1949.0</ele><time>2026-04-22T11:55:14.001Z</time></trkpt><trkpt lat="37.02763970557625" lon="-3.1637393267941833"><ele>1949.0</ele><time>2026-04-22T11:55:15.001Z</time></trkpt><trkpt lat="37.02750914219904" lon="-3.1639145449610697"><ele>1949.0</ele><time>2026-04-22T11:55:16.001Z</time></trkpt><trkpt lat="37.02736711546561" lon="-3.1640808685411534"><ele>1949.6666666666665</ele><time>2026-04-22T11:55:17.001Z</time></trkpt><trkpt lat="37.02721851067192" lon="-3.1642455774251705"><ele>1950.3333333333335</ele><time>2026-04-22T11:55:18.001Z</time></trkpt><trkpt lat="37.02708343411131" lon="-3.1644070600453205"><ele>1951.0</ele><time>2026-04-22T11:55:19.001Z</time></trkpt><trkpt lat="37.02695683062207" lon="-3.164572131228465"><ele>1951.0</ele><time>2026-04-22T11:55:20.001Z</time></trkpt><trkpt lat="37.026831524537556" lon="-3.1647468486844526"><ele>1951.0</ele><time>2026-04-22T11:55:21.001Z</time></trkpt><trkpt lat="37.02670192630587" lon="-3.1649305066450166"><ele>1951.0</ele><time>2026-04-22T11:55:22.001Z</time></trkpt><trkpt lat="37.026577554178644" lon="-3.1651195336545634"><ele>1951.0</ele><time>2026-04-22T11:55:23.001Z</time></trkpt><trkpt lat="37.02645561116393" lon="-3.165316409253254"><ele>1951.0</ele><time>2026-04-22T11:55:24.001Z</time></trkpt><trkpt lat="37.02632047870999" lon="-3.165509390108812"><ele>1951.0</ele><time>2026-04-22T11:55:25.001Z</time></trkpt><trkpt lat="37.02621022262525" lon="-3.1657082187704315"><ele>1953.6666666666667</ele><time>2026-04-22T11:55:26.001Z</time></trkpt><trkpt lat="37.026104423303025" lon="-3.1658793349785705"><ele>1956.3333333333335</ele><time>2026-04-22T11:55:27.002Z</time></trkpt><trkpt lat="37.026020239249846" lon="-3.1660401989406615"><ele>1959.0</ele><time>2026-04-22T11:55:28.002Z</time></trkpt><trkpt lat="37.02591351174902" lon="-3.166174480504377"><ele>1956.3333333333335</ele><time>2026-04-22T11:55:29.002Z</time></trkpt><trkpt lat="37.0257665602748" lon="-3.166274549103257"><ele>1953.6666666666667</ele><time>2026-04-22T11:55:30.002Z</time></trkpt><trkpt lat="37.0256129120842" lon="-3.1663946201083966"><ele>1951.0</ele><time>2026-04-22T11:55:31.002Z</time></trkpt><trkpt lat="37.025439664653476" lon="-3.166498236023879"><ele>1952.0</ele><time>2026-04-22T11:55:32.002Z</time></trkpt><trkpt lat="37.025256209454156" lon="-3.166595648060554"><ele>1953.0</ele><time>2026-04-22T11:55:33.002Z</time></trkpt><trkpt lat="37.02507648495047" lon="-3.1667170941226566"><ele>1954.0</ele><time>2026-04-22T11:55:34.002Z</time></trkpt><trkpt lat="37.02489743984377" lon="-3.1668409558944894"><ele>1954.0</ele><time>2026-04-22T11:55:35.002Z</time></trkpt><trkpt lat="37.024704900295745" lon="-3.1669616124538615"><ele>1954.0</ele><time>2026-04-22T11:55:36.002Z</time></trkpt><trkpt lat="37.02451961404279" lon="-3.1670816433089577"><ele>1954.0</ele><time>2026-04-22T11:55:37.002Z</time></trkpt><trkpt lat="37.024333322169646" lon="-3.167186117425904"><ele>1954.0</ele><time>2026-04-22T11:55:38.002Z</time></trkpt><trkpt lat="37.02414894491663" lon="-3.167272819172977"><ele>1954.0</ele><time>2026-04-22T11:55:39.002Z</time></trkpt><trkpt lat="37.02398036944998" lon="-3.1673397406387327"><ele>1954.0</ele><time>2026-04-22T11:55:40.002Z</time></trkpt><trkpt lat="37.023829021680484" lon="-3.1674180060559673"><ele>1954.6666666666667</ele><time>2026-04-22T11:55:41.002Z</time></trkpt><trkpt lat="37.02367882843656" lon="-3.1674998829927277"><ele>1955.3333333333335</ele><time>2026-04-22T11:55:42.002Z</time></trkpt><trkpt lat="37.02352821520058" lon="-3.1676090783526263"><ele>1956.0</ele><time>2026-04-22T11:55:43.002Z</time></trkpt><trkpt lat="37.02338902762412" lon="-3.167737936681987"><ele>1957.6666666666665</ele><time>2026-04-22T11:55:44.002Z</time></trkpt><trkpt lat="37.0232411514133" lon="-3.16787738896152"><ele>1959.3333333333333</ele><time>2026-04-22T11:55:45.002Z</time></trkpt><trkpt lat="37.023104335830645" lon="-3.168044183243959"><ele>1961.0</ele><time>2026-04-22T11:55:46.002Z</time></trkpt><trkpt lat="37.022954985480155" lon="-3.1682201091602047"><ele>1961.0</ele><time>2026-04-22T11:55:47.002Z</time></trkpt><trkpt lat="37.022800051974855" lon="-3.168374453952837"><ele>1961.0</ele><time>2026-04-22T11:55:48.002Z</time></trkpt><trkpt lat="37.02265982603872" lon="-3.1684961778040166"><ele>1961.0</ele><time>2026-04-22T11:55:49.002Z</time></trkpt><trkpt lat="37.022503251367375" lon="-3.168594715129282"><ele>1956.6666666666665</ele><time>2026-04-22T11:55:50.002Z</time></trkpt><trkpt lat="37.022319860356724" lon="-3.168703224316737"><ele>1952.3333333333335</ele><time>2026-04-22T11:55:51Z</time></trkpt><trkpt lat="37.022142357400206" lon="-3.1688519836470492"><ele>1948.0</ele><time>2026-04-22T11:55:52Z</time></trkpt><trkpt lat="37.02198400860015" lon="-3.169002294823012"><ele>1949.6666666666667</ele><time>2026-04-22T11:55:53Z</time></trkpt><trkpt lat="37.021827204891125" lon="-3.1691389639934315"><ele>1951.3333333333335</ele><time>2026-04-22T11:55:54Z</time></trkpt><trkpt lat="37.02166699497914" lon="-3.1692711088132874"><ele>1953.0</ele><time>2026-04-22T11:55:55Z</time></trkpt><trkpt lat="37.02150920038932" lon="-3.1693967252726543"><ele>1953.0</ele><time>2026-04-22T11:55:56Z</time></trkpt><trkpt lat="37.02135560237395" lon="-3.169528503427477"><ele>1953.0</ele><time>2026-04-22T11:55:57Z</time></trkpt><trkpt lat="37.02120509203486" lon="-3.169651876934749"><ele>1953.0</ele><time>2026-04-22T11:55:58Z</time></trkpt><trkpt lat="37.021064933092596" lon="-3.169786538647195"><ele>1953.6666666666665</ele><time>2026-04-22T11:55:59Z</time></trkpt><trkpt lat="37.02091485824355" lon="-3.1699149534646285"><ele>1954.3333333333333</ele><time>2026-04-22T11:56:00Z</time></trkpt><trkpt lat="37.020777812382995" lon="-3.170053976166515"><ele>1955.0</ele><time>2026-04-22T11:56:01Z</time></trkpt><trkpt lat="37.020644878432506" lon="-3.170213752310027"><ele>1955.0</ele><time>2026-04-22T11:56:02Z</time></trkpt><trkpt lat="37.02050815236157" lon="-3.170389216266168"><ele>1955.0</ele><time>2026-04-22T11:56:03Z</time></trkpt><trkpt lat="37.02037422671914" lon="-3.1705557556994357"><ele>1955.0</ele><time>2026-04-22T11:56:04Z</time></trkpt><trkpt lat="37.02022548516993" lon="-3.1706920976669446"><ele>1955.6666666666665</ele><time>2026-04-22T11:56:05Z</time></trkpt><trkpt lat="37.02010002891107" lon="-3.170832076762668"><ele>1956.3333333333335</ele><time>2026-04-22T11:56:06Z</time></trkpt><trkpt lat="37.01996455152874" lon="-3.1709550072585886"><ele>1957.0</ele><time>2026-04-22T11:56:07Z</time></trkpt><trkpt lat="37.01979919890753" lon="-3.1710689110129913"><ele>1957.0</ele><time>2026-04-22T11:56:08Z</time></trkpt><trkpt lat="37.01960609223156" lon="-3.171161080218902"><ele>1957.0</ele><time>2026-04-22T11:56:09Z</time></trkpt><trkpt lat="37.019408152959656" lon="-3.1712502530816415"><ele>1957.0</ele><time>2026-04-22T11:56:10Z</time></trkpt><trkpt lat="37.019219302527915" lon="-3.171368271097691"><ele>1955.0</ele><time>2026-04-22T11:56:11Z</time></trkpt><trkpt lat="37.0190367298547" lon="-3.171472019469639"><ele>1953.0</ele><time>2026-04-22T11:56:12Z</time></trkpt><trkpt lat="37.018846831802136" lon="-3.171590682957573"><ele>1951.0</ele><time>2026-04-22T11:56:13Z</time></trkpt><trkpt lat="37.01865974175763" lon="-3.171712932933129"><ele>1954.0</ele><time>2026-04-22T11:56:14.001Z</time></trkpt><trkpt lat="37.01846652589165" lon="-3.171813057017865"><ele>1957.0</ele><time>2026-04-22T11:56:15.001Z</time></trkpt><trkpt lat="37.018283716769936" lon="-3.171913117940787"><ele>1960.0</ele><time>2026-04-22T11:56:16.001Z</time></trkpt><trkpt lat="37.01810184141396" lon="-3.172027829499231"><ele>1960.0</ele><time>2026-04-22T11:56:17.001Z</time></trkpt><trkpt lat="37.017903479448044" lon="-3.1721124889949692"><ele>1960.0</ele><time>2026-04-22T11:56:18.001Z</time></trkpt><trkpt lat="37.01771344249175" lon="-3.172186549590369"><ele>1960.0</ele><time>2026-04-22T11:56:19.001Z</time></trkpt><trkpt lat="37.01753963876896" lon="-3.17227123297046"><ele>1962.3333333333335</ele><time>2026-04-22T11:56:20.001Z</time></trkpt><trkpt lat="37.017378299734304" lon="-3.172362787874006"><ele>1964.6666666666665</ele><time>2026-04-22T11:56:21.001Z</time></trkpt><trkpt lat="37.01720757495409" lon="-3.172469568337488"><ele>1967.0</ele><time>2026-04-22T11:56:22.001Z</time></trkpt><trkpt lat="37.01703244013111" lon="-3.172588711333679"><ele>1967.0</ele><time>2026-04-22T11:56:23.001Z</time></trkpt><trkpt lat="37.01685460947192" lon="-3.172712186902372"><ele>1967.0</ele><time>2026-04-22T11:56:24.001Z</time></trkpt><trkpt lat="37.01666625023598" lon="-3.172831337960491"><ele>1967.0</ele><time>2026-04-22T11:56:25.001Z</time></trkpt><trkpt lat="37.01647546687514" lon="-3.1729463958629953"><ele>1968.6666666666665</ele><time>2026-04-22T11:56:26.001Z</time></trkpt><trkpt lat="37.01628318807529" lon="-3.1730615496425423"><ele>1970.3333333333335</ele><time>2026-04-22T11:56:27.001Z</time></trkpt><trkpt lat="37.016101533797915" lon="-3.1731697213677528"><ele>1972.0</ele><time>2026-04-22T11:56:28.001Z</time></trkpt><trkpt lat="37.01592791951034" lon="-3.173272510169179"><ele>1969.3333333333335</ele><time>2026-04-22T11:56:29.001Z</time></trkpt><trkpt lat="37.015764138709926" lon="-3.1733694771174035"><ele>1966.6666666666665</ele><time>2026-04-22T11:56:30.001Z</time></trkpt><trkpt lat="37.0156120357797" lon="-3.1734629331431816"><ele>1964.0</ele><time>2026-04-22T11:56:31.001Z</time></trkpt><trkpt lat="37.01548717161903" lon="-3.1735470642754597"><ele>1964.0</ele><time>2026-04-22T11:56:32.001Z</time></trkpt><trkpt lat="37.015364944274936" lon="-3.1736571184371285"><ele>1964.0</ele><time>2026-04-22T11:56:33.001Z</time></trkpt><trkpt lat="37.01523901618488" lon="-3.1738015315249046"><ele>1964.0</ele><time>2026-04-22T11:56:34.001Z</time></trkpt><trkpt lat="37.01511927761745" lon="-3.1739161095845327"><ele>1964.0</ele><time>2026-04-22T11:56:35.001Z</time></trkpt><trkpt lat="37.01499017667162" lon="-3.174003782064306"><ele>1964.0</ele><time>2026-04-22T11:56:36.001Z</time></trkpt><trkpt lat="37.01483479062312" lon="-3.174079000648312"><ele>1964.0</ele><time>2026-04-22T11:56:37.001Z</time></trkpt><trkpt lat="37.01465101459695" lon="-3.174097809726265"><ele>1963.3333333333333</ele><time>2026-04-22T11:56:38.001Z</time></trkpt><trkpt lat="37.01444265573227" lon="-3.1741238787249566"><ele>1962.6666666666665</ele><time>2026-04-22T11:56:39.001Z</time></trkpt><trkpt lat="37.01425695754052" lon="-3.1741734832662982"><ele>1962.0</ele><time>2026-04-22T11:56:40.001Z</time></trkpt><trkpt lat="37.01408935874757" lon="-3.1742234058268606"><ele>1962.0</ele><time>2026-04-22T11:56:41.001Z</time></trkpt><trkpt lat="37.01392576743553" lon="-3.1742837629680896"><ele>1962.0</ele><time>2026-04-22T11:56:42.001Z</time></trkpt><trkpt lat="37.01380260852781" lon="-3.174323812512219"><ele>1962.0</ele><time>2026-04-22T11:56:43.001Z</time></trkpt><trkpt lat="37.01369947301247" lon="-3.1743865890255765"><ele>1962.0</ele><time>2026-04-22T11:56:44.001Z</time></trkpt><trkpt lat="37.01360243897478" lon="-3.1744711662724976"><ele>1962.0</ele><time>2026-04-22T11:56:45.001Z</time></trkpt><trkpt lat="37.01352824186802" lon="-3.1745534573866827"><ele>1962.0</ele><time>2026-04-22T11:56:46.001Z</time></trkpt><trkpt lat="37.013486856065434" lon="-3.174639278315453"><ele>1962.0</ele><time>2026-04-22T11:56:47.001Z</time></trkpt><trkpt lat="37.013439102220055" lon="-3.1747718635057893"><ele>1962.0</ele><time>2026-04-22T11:56:48.001Z</time></trkpt><trkpt lat="37.01338351717206" lon="-3.1749589633582365"><ele>1963.5</ele><time>2026-04-22T11:56:49.001Z</time></trkpt><trkpt lat="37.013333389428695" lon="-3.1751590363848283"><ele>1965.0</ele><time>2026-04-22T11:56:50.001Z</time></trkpt><trkpt lat="37.013290679655825" lon="-3.1753262851415496"><ele>1966.5</ele><time>2026-04-22T11:56:51.001Z</time></trkpt><trkpt lat="37.013250122687104" lon="-3.175466149531324"><ele>1968.0</ele><time>2026-04-22T11:56:52.001Z</time></trkpt><trkpt lat="37.01320678740439" lon="-3.175591488675868"><ele>1971.5</ele><time>2026-04-22T11:56:53.001Z</time></trkpt><trkpt lat="37.01316891928415" lon="-3.1756972879261114"><ele>1975.0</ele><time>2026-04-22T11:56:54.001Z</time></trkpt><trkpt lat="37.01314371344352" lon="-3.1758031939743736"><ele>1978.5</ele><time>2026-04-22T11:56:55.001Z</time></trkpt><trkpt lat="37.01313085924737" lon="-3.175887380040293"><ele>1982.0</ele><time>2026-04-22T11:56:56.001Z</time></trkpt><trkpt lat="37.013144937980606" lon="-3.17599532405355"><ele>1985.5</ele><time>2026-04-22T11:56:58.001Z</time></trkpt><trkpt lat="37.01310630225975" lon="-3.1758876105954776"><ele>1989.0</ele><time>2026-04-22T12:15:38Z</time></trkpt><trkpt lat="37.01309261924584" lon="-3.1758055615800758"><ele>1989.0</ele><time>2026-04-22T12:15:39Z</time></trkpt><trkpt lat="37.01310638569549" lon="-3.175717161897464"><ele>1989.0</ele><time>2026-04-22T12:15:40Z</time></trkpt><trkpt lat="37.013138325933035" lon="-3.1756292215899085"><ele>1989.0</ele><time>2026-04-22T12:15:41Z</time></trkpt><trkpt lat="37.01317804917435" lon="-3.1755463538515643"><ele>1989.0</ele><time>2026-04-22T12:15:42Z</time></trkpt><trkpt lat="37.01320753453998" lon="-3.175443549110333"><ele>1989.0</ele><time>2026-04-22T12:15:43Z</time></trkpt><trkpt lat="37.01323721886418" lon="-3.1753420443857294"><ele>1989.0</ele><time>2026-04-22T12:15:44Z</time></trkpt><trkpt lat="37.01326370312027" lon="-3.1752311719537674"><ele>1987.8571428571431</ele><time>2026-04-22T12:15:45Z</time></trkpt><trkpt lat="37.013292265282956" lon="-3.175131563267876"><ele>1986.7142857142858</ele><time>2026-04-22T12:15:46Z</time></trkpt><trkpt lat="37.0133225808524" lon="-3.1750413310288597"><ele>1985.5714285714287</ele><time>2026-04-22T12:15:47Z</time></trkpt><trkpt lat="37.013345137771275" lon="-3.1749540495577304"><ele>1984.4285714285716</ele><time>2026-04-22T12:15:48Z</time></trkpt><trkpt lat="37.01336457022685" lon="-3.1748595894989977"><ele>1983.2857142857142</ele><time>2026-04-22T12:15:49Z</time></trkpt><trkpt lat="37.01338161613886" lon="-3.174783610857264"><ele>1982.142857142857</ele><time>2026-04-22T12:15:50Z</time></trkpt><trkpt lat="37.01340506139874" lon="-3.1747104250976204"><ele>1981.0</ele><time>2026-04-22T12:15:51Z</time></trkpt><trkpt lat="37.01346391798487" lon="-3.174587477023956"><ele>1977.1999999999998</ele><time>2026-04-22T12:15:53Z</time></trkpt><trkpt lat="37.013530763235636" lon="-3.1744993122366423"><ele>1973.3999999999999</ele><time>2026-04-22T12:15:55Z</time></trkpt><trkpt lat="37.01360205132325" lon="-3.1744284640726637"><ele>1969.6</ele><time>2026-04-22T12:15:57Z</time></trkpt><trkpt lat="37.01370147996092" lon="-3.1743323020241694"><ele>1965.8</ele><time>2026-04-22T12:15:59Z</time></trkpt><trkpt lat="37.01376682138085" lon="-3.174291745387195"><ele>1962.0</ele><time>2026-04-22T12:16:00Z</time></trkpt><trkpt lat="37.013843342743876" lon="-3.1742612921660815"><ele>1962.0</ele><time>2026-04-22T12:16:01Z</time></trkpt><trkpt lat="37.013926053387856" lon="-3.1742365712341174"><ele>1961.9999999999998</ele><time>2026-04-22T12:16:02Z</time></trkpt><trkpt lat="37.01401162318926" lon="-3.1742144734159115"><ele>1961.9999999999998</ele><time>2026-04-22T12:16:03Z</time></trkpt><trkpt lat="37.01409809922441" lon="-3.174183199321447"><ele>1962.0</ele><time>2026-04-22T12:16:04Z</time></trkpt><trkpt lat="37.01419210296528" lon="-3.174150146055375"><ele>1962.0</ele><time>2026-04-22T12:16:05Z</time></trkpt><trkpt lat="37.01428411182422" lon="-3.1741240140984797"><ele>1963.0</ele><time>2026-04-22T12:16:06Z</time></trkpt><trkpt lat="37.014369236762676" lon="-3.174102403891029"><ele>1964.0</ele><time>2026-04-22T12:16:07Z</time></trkpt><trkpt lat="37.014447621966745" lon="-3.1740895384423182"><ele>1965.0</ele><time>2026-04-22T12:16:08Z</time></trkpt><trkpt lat="37.01452055098533" lon="-3.1740855944197293"><ele>1966.0</ele><time>2026-04-22T12:16:09Z</time></trkpt><trkpt lat="37.01458496376053" lon="-3.174073770136011"><ele>1967.0</ele><time>2026-04-22T12:16:10Z</time></trkpt><trkpt lat="37.014707845263175" lon="-3.174058776028279"><ele>1968.0</ele><time>2026-04-22T12:16:12Z</time></trkpt><trkpt lat="37.01478947335222" lon="-3.174037953007838"><ele>1967.3333333333333</ele><time>2026-04-22T12:16:13Z</time></trkpt><trkpt lat="37.01487070503535" lon="-3.1740055702726058"><ele>1966.6666666666665</ele><time>2026-04-22T12:16:14Z</time></trkpt><trkpt lat="37.014950580407145" lon="-3.1739707847324223"><ele>1966.0</ele><time>2026-04-22T12:16:15Z</time></trkpt><trkpt lat="37.01502694597848" lon="-3.1739279602416834"><ele>1965.3333333333333</ele><time>2026-04-22T12:16:16Z</time></trkpt><trkpt lat="37.01510103049133" lon="-3.173873128458714"><ele>1964.6666666666665</ele><time>2026-04-22T12:16:17Z</time></trkpt><trkpt lat="37.01517057039321" lon="-3.1738165150314157"><ele>1964.0</ele><time>2026-04-22T12:16:18Z</time></trkpt><trkpt lat="37.015239091252774" lon="-3.173746572112258"><ele>1963.9999999999998</ele><time>2026-04-22T12:16:19Z</time></trkpt><trkpt lat="37.015300292513" lon="-3.1736784379410703"><ele>1964.0</ele><time>2026-04-22T12:16:20Z</time></trkpt><trkpt lat="37.01535526995407" lon="-3.173602770330648"><ele>1964.0</ele><time>2026-04-22T12:16:21Z</time></trkpt><trkpt lat="37.015416522090504" lon="-3.173537716407067"><ele>1964.0</ele><time>2026-04-22T12:16:22Z</time></trkpt><trkpt lat="37.01548298817745" lon="-3.1734844721057276"><ele>1963.9999999999998</ele><time>2026-04-22T12:16:23Z</time></trkpt><trkpt lat="37.01555150634537" lon="-3.173443998694511"><ele>1964.0</ele><time>2026-04-22T12:16:24Z</time></trkpt><trkpt lat="37.01562670823116" lon="-3.1734030795851838"><ele>1963.9999999999998</ele><time>2026-04-22T12:16:25Z</time></trkpt><trkpt lat="37.01569897868141" lon="-3.1733588229420424"><ele>1964.0</ele><time>2026-04-22T12:16:26Z</time></trkpt><trkpt lat="37.01577816536267" lon="-3.173313225531474"><ele>1964.0</ele><time>2026-04-22T12:16:27Z</time></trkpt><trkpt lat="37.0158579118119" lon="-3.173260617318522"><ele>1964.0</ele><time>2026-04-22T12:16:28Z</time></trkpt><trkpt lat="37.015938377754814" lon="-3.1732117284131465"><ele>1963.9999999999998</ele><time>2026-04-22T12:16:29Z</time></trkpt><trkpt lat="37.016024449362526" lon="-3.173164013424252"><ele>1964.0</ele><time>2026-04-22T12:16:30Z</time></trkpt><trkpt lat="37.01611601181202" lon="-3.173114388561064"><ele>1963.0</ele><time>2026-04-22T12:16:31Z</time></trkpt><trkpt lat="37.01620458308867" lon="-3.1730560494379105"><ele>1962.0</ele><time>2026-04-22T12:16:32Z</time></trkpt><trkpt lat="37.016289466804395" lon="-3.173001804365341"><ele>1961.0</ele><time>2026-04-22T12:16:33Z</time></trkpt><trkpt lat="37.01637265555553" lon="-3.172950576975444"><ele>1960.0</ele><time>2026-04-22T12:16:34Z</time></trkpt><trkpt lat="37.016450435826364" lon="-3.1729051039822878"><ele>1959.0</ele><time>2026-04-22T12:16:35Z</time></trkpt><trkpt lat="37.0165253381813" lon="-3.1728597750706107"><ele>1959.0</ele><time>2026-04-22T12:16:36Z</time></trkpt><trkpt lat="37.01659647564921" lon="-3.1728111988011385"><ele>1959.0</ele><time>2026-04-22T12:16:37Z</time></trkpt><trkpt lat="37.01667389244023" lon="-3.172768898923402"><ele>1959.0</ele><time>2026-04-22T12:16:38Z</time></trkpt><trkpt lat="37.01675276298207" lon="-3.17272299579624"><ele>1959.0</ele><time>2026-04-22T12:16:39Z</time></trkpt><trkpt lat="37.016829487038436" lon="-3.1726760921032873"><ele>1959.0</ele><time>2026-04-22T12:16:40Z</time></trkpt><trkpt lat="37.01690010567873" lon="-3.1726261181717725"><ele>1959.0</ele><time>2026-04-22T12:16:41Z</time></trkpt><trkpt lat="37.01697139219587" lon="-3.172566491078743"><ele>1957.8333333333333</ele><time>2026-04-22T12:16:42Z</time></trkpt><trkpt lat="37.017045589222796" lon="-3.1725186288748453"><ele>1956.6666666666665</ele><time>2026-04-22T12:16:43Z</time></trkpt><trkpt lat="37.01712545262546" lon="-3.172468010732173"><ele>1955.5</ele><time>2026-04-22T12:16:44Z</time></trkpt><trkpt lat="37.01719869154512" lon="-3.1724222639675257"><ele>1954.3333333333333</ele><time>2026-04-22T12:16:45Z</time></trkpt><trkpt lat="37.01726853481001" lon="-3.1723697423604773"><ele>1953.1666666666665</ele><time>2026-04-22T12:16:46Z</time></trkpt><trkpt lat="37.0173487697874" lon="-3.1723235180303275"><ele>1952.0</ele><time>2026-04-22T12:16:47Z</time></trkpt><trkpt lat="37.01742749175856" lon="-3.1722700295052184"><ele>1953.6</ele><time>2026-04-22T12:16:48Z</time></trkpt><trkpt lat="37.01750894177299" lon="-3.1722219404429337"><ele>1955.1999999999998</ele><time>2026-04-22T12:16:49Z</time></trkpt><trkpt lat="37.01759445083453" lon="-3.172183992332028"><ele>1956.8</ele><time>2026-04-22T12:16:50Z</time></trkpt><trkpt lat="37.01768590980548" lon="-3.172143624459225"><ele>1958.4</ele><time>2026-04-22T12:16:50.999Z</time></trkpt><trkpt lat="37.01778450296176" lon="-3.1721035922276055"><ele>1960.0</ele><time>2026-04-22T12:16:51.999Z</time></trkpt><trkpt lat="37.01788263754544" lon="-3.172066290692929"><ele>1960.0</ele><time>2026-04-22T12:16:52.999Z</time></trkpt><trkpt lat="37.017976913503105" lon="-3.1720289229026135"><ele>1960.0</ele><time>2026-04-22T12:16:53.999Z</time></trkpt><trkpt lat="37.01806973671627" lon="-3.1719829285599657"><ele>1960.0</ele><time>2026-04-22T12:16:54.999Z</time></trkpt><trkpt lat="37.018156642808925" lon="-3.171942891043232"><ele>1960.0</ele><time>2026-04-22T12:16:55.999Z</time></trkpt><trkpt lat="37.01824818643707" lon="-3.1719032100914806"><ele>1960.0</ele><time>2026-04-22T12:16:56.999Z</time></trkpt><trkpt lat="37.018338342793214" lon="-3.1718547419779735"><ele>1961.0</ele><time>2026-04-22T12:16:57.999Z</time></trkpt><trkpt lat="37.01842321347337" lon="-3.1718052901892198"><ele>1962.0</ele><time>2026-04-22T12:16:58.999Z</time></trkpt><trkpt lat="37.01850516824469" lon="-3.171753550779846"><ele>1963.0</ele><time>2026-04-22T12:16:59.999Z</time></trkpt><trkpt lat="37.018594355537005" lon="-3.1717038828970456"><ele>1964.0</ele><time>2026-04-22T12:17:00.999Z</time></trkpt><trkpt lat="37.01868090250837" lon="-3.171639291097903"><ele>1965.0</ele><time>2026-04-22T12:17:01.999Z</time></trkpt><trkpt lat="37.01876468065674" lon="-3.1715745098571255"><ele>1963.4</ele><time>2026-04-22T12:17:02.999Z</time></trkpt><trkpt lat="37.01885062692217" lon="-3.171512164121391"><ele>1961.8</ele><time>2026-04-22T12:17:03.999Z</time></trkpt><trkpt lat="37.01893813980372" lon="-3.1714590219392917"><ele>1960.1999999999998</ele><time>2026-04-22T12:17:04.999Z</time></trkpt><trkpt lat="37.01902805070268" lon="-3.171410433130676"><ele>1958.6</ele><time>2026-04-22T12:17:05.999Z</time></trkpt><trkpt lat="37.019119436064834" lon="-3.171360036990592"><ele>1957.0</ele><time>2026-04-22T12:17:06.999Z</time></trkpt><trkpt lat="37.01921076982239" lon="-3.1713163330044223"><ele>1957.0</ele><time>2026-04-22T12:17:07.999Z</time></trkpt><trkpt lat="37.019304264320596" lon="-3.1712740556590804"><ele>1956.9999999999998</ele><time>2026-04-22T12:17:08.999Z</time></trkpt><trkpt lat="37.019396732886946" lon="-3.1712262596236505"><ele>1956.9999999999998</ele><time>2026-04-22T12:17:09.999Z</time></trkpt><trkpt lat="37.019486185619755" lon="-3.171184324469829"><ele>1957.0</ele><time>2026-04-22T12:17:10.999Z</time></trkpt><trkpt lat="37.0195752737011" lon="-3.171144989332781"><ele>1957.0</ele><time>2026-04-22T12:17:11.999Z</time></trkpt><trkpt lat="37.0196629548248" lon="-3.1711032418300498"><ele>1957.0</ele><time>2026-04-22T12:17:12.999Z</time></trkpt><trkpt lat="37.019750674397876" lon="-3.1710635538620227"><ele>1956.9999999999998</ele><time>2026-04-22T12:17:13.999Z</time></trkpt><trkpt lat="37.01983716694718" lon="-3.1710215283454133"><ele>1956.9999999999998</ele><time>2026-04-22T12:17:14.999Z</time></trkpt><trkpt lat="37.01991842248516" lon="-3.1709716080205963"><ele>1957.0</ele><time>2026-04-22T12:17:15.999Z</time></trkpt><trkpt lat="37.019997302275634" lon="-3.1709080380174886"><ele>1957.0</ele><time>2026-04-22T12:17:16.999Z</time></trkpt><trkpt lat="37.02007006620189" lon="-3.1708410564437455"><ele>1956.6</ele><time>2026-04-22T12:17:17.999Z</time></trkpt><trkpt lat="37.02013614040855" lon="-3.170772674225826"><ele>1956.1999999999998</ele><time>2026-04-22T12:17:18.999Z</time></trkpt><trkpt lat="37.02020705759564" lon="-3.1706989691642327"><ele>1955.8</ele><time>2026-04-22T12:17:19.999Z</time></trkpt><trkpt lat="37.020277676126724" lon="-3.170612833150064"><ele>1955.4</ele><time>2026-04-22T12:17:20.999Z</time></trkpt><trkpt lat="37.02035140690683" lon="-3.1705275463159603"><ele>1955.0</ele><time>2026-04-22T12:17:21.999Z</time></trkpt><trkpt lat="37.0204237065031" lon="-3.1704435433213285"><ele>1955.0</ele><time>2026-04-22T12:17:22.999Z</time></trkpt><trkpt lat="37.02048755784464" lon="-3.1703581413319655"><ele>1955.0</ele><time>2026-04-22T12:17:23.999Z</time></trkpt><trkpt lat="37.02055346179108" lon="-3.1702690790401222"><ele>1955.0</ele><time>2026-04-22T12:17:24.999Z</time></trkpt><trkpt lat="37.0206216250765" lon="-3.170178239781955"><ele>1955.0</ele><time>2026-04-22T12:17:25.999Z</time></trkpt><trkpt lat="37.02069225461419" lon="-3.17009036517505"><ele>1955.0</ele><time>2026-04-22T12:17:26.999Z</time></trkpt><trkpt lat="37.02076642899559" lon="-3.1700074423560434"><ele>1954.6</ele><time>2026-04-22T12:17:27.999Z</time></trkpt><trkpt lat="37.02084503160343" lon="-3.1699311634636174"><ele>1954.2</ele><time>2026-04-22T12:17:28.999Z</time></trkpt><trkpt lat="37.02092570795709" lon="-3.169861799315359"><ele>1953.8000000000002</ele><time>2026-04-22T12:17:29.999Z</time></trkpt><trkpt lat="37.020998346724056" lon="-3.1697981309277905"><ele>1953.4</ele><time>2026-04-22T12:17:30.999Z</time></trkpt><trkpt lat="37.02107102201894" lon="-3.169733483092171"><ele>1953.0</ele><time>2026-04-22T12:17:31.999Z</time></trkpt><trkpt lat="37.02113981213211" lon="-3.169679615441623"><ele>1953.0</ele><time>2026-04-22T12:17:32.999Z</time></trkpt><trkpt lat="37.0212097867352" lon="-3.1696255522010857"><ele>1953.0000000000002</ele><time>2026-04-22T12:17:33.999Z</time></trkpt><trkpt lat="37.02127469286947" lon="-3.1695490829343558"><ele>1953.0000000000002</ele><time>2026-04-22T12:17:34.999Z</time></trkpt><trkpt lat="37.021361848019936" lon="-3.169495474356798"><ele>1953.0</ele><time>2026-04-22T12:17:35.999Z</time></trkpt><trkpt lat="37.02143216850396" lon="-3.1694238847279594"><ele>1953.0</ele><time>2026-04-22T12:17:36.999Z</time></trkpt><trkpt lat="37.021512360896175" lon="-3.169364238876101"><ele>1953.0</ele><time>2026-04-22T12:17:37.999Z</time></trkpt><trkpt lat="37.0215914752572" lon="-3.169299067046685"><ele>1953.0</ele><time>2026-04-22T12:17:38.999Z</time></trkpt><trkpt lat="37.02166352507262" lon="-3.1692421448184183"><ele>1953.0</ele><time>2026-04-22T12:17:39.999Z</time></trkpt><trkpt lat="37.02172843495367" lon="-3.1691897250862557"><ele>1953.0</ele><time>2026-04-22T12:17:40.999Z</time></trkpt><trkpt lat="37.02179457432866" lon="-3.169129558034533"><ele>1953.0</ele><time>2026-04-22T12:17:41.999Z</time></trkpt><trkpt lat="37.02186719943493" lon="-3.169068476326607"><ele>1953.0</ele><time>2026-04-22T12:17:42.999Z</time></trkpt><trkpt lat="37.02194345776355" lon="-3.169004624309753"><ele>1952.0</ele><time>2026-04-22T12:17:43.999Z</time></trkpt><trkpt lat="37.022024459862386" lon="-3.168937303652322"><ele>1951.0000000000002</ele><time>2026-04-22T12:17:44.999Z</time></trkpt><trkpt lat="37.022102577140956" lon="-3.168864681068427"><ele>1950.0000000000002</ele><time>2026-04-22T12:17:45.999Z</time></trkpt><trkpt lat="37.022177099779526" lon="-3.16879436731071"><ele>1949.0</ele><time>2026-04-22T12:17:46.999Z</time></trkpt><trkpt lat="37.022261098197745" lon="-3.168723819979872"><ele>1948.0</ele><time>2026-04-22T12:17:47.999Z</time></trkpt><trkpt lat="37.02234780290939" lon="-3.1686555453619567"><ele>1948.0</ele><time>2026-04-22T12:17:48.999Z</time></trkpt><trkpt lat="37.022438997399895" lon="-3.1685840129615155"><ele>1948.0000000000002</ele><time>2026-04-22T12:17:49.999Z</time></trkpt><trkpt lat="37.022532275661355" lon="-3.1685179464310145"><ele>1948.0000000000002</ele><time>2026-04-22T12:17:50.999Z</time></trkpt><trkpt lat="37.022623573235386" lon="-3.168451173815158"><ele>1948.0</ele><time>2026-04-22T12:17:51.999Z</time></trkpt><trkpt lat="37.02271261714699" lon="-3.168386979587006"><ele>1948.0</ele><time>2026-04-22T12:17:52.999Z</time></trkpt><trkpt lat="37.02279876525096" lon="-3.1683270897891282"><ele>1947.8000000000002</ele><time>2026-04-22T12:17:53.999Z</time></trkpt><trkpt lat="37.02288120816741" lon="-3.168258722504851"><ele>1947.6000000000001</ele><time>2026-04-22T12:17:54.999Z</time></trkpt><trkpt lat="37.02295298137464" lon="-3.1681827155037117"><ele>1947.3999999999999</ele><time>2026-04-22T12:17:55.999Z</time></trkpt><trkpt lat="37.02302488541982" lon="-3.1681051407491325"><ele>1947.1999999999998</ele><time>2026-04-22T12:17:56.999Z</time></trkpt><trkpt lat="37.02309242837247" lon="-3.1680170443467253"><ele>1947.0</ele><time>2026-04-22T12:17:57.999Z</time></trkpt><trkpt lat="37.02316257576371" lon="-3.167927914542934"><ele>1947.0</ele><time>2026-04-22T12:17:58.999Z</time></trkpt><trkpt lat="37.02323475521772" lon="-3.167832278755689"><ele>1946.9999999999998</ele><time>2026-04-22T12:17:59.999Z</time></trkpt><trkpt lat="37.02331248948638" lon="-3.1677477860310606"><ele>1946.9999999999998</ele><time>2026-04-22T12:18:00.999Z</time></trkpt><trkpt lat="37.023391610138326" lon="-3.1676658293828686"><ele>1947.0</ele><time>2026-04-22T12:18:01.999Z</time></trkpt><trkpt lat="37.02347367731716" lon="-3.167591274142823"><ele>1947.0</ele><time>2026-04-22T12:18:02.999Z</time></trkpt><trkpt lat="37.02356213423865" lon="-3.1675242704864264"><ele>1945.6</ele><time>2026-04-22T12:18:03.999Z</time></trkpt><trkpt lat="37.0236504528069" lon="-3.1674681505167412"><ele>1944.1999999999998</ele><time>2026-04-22T12:18:04.999Z</time></trkpt><trkpt lat="37.02374483249079" lon="-3.1674112679867283"><ele>1942.8</ele><time>2026-04-22T12:18:05.999Z</time></trkpt><trkpt lat="37.02383672750351" lon="-3.167359838565942"><ele>1941.4</ele><time>2026-04-22T12:18:06.999Z</time></trkpt><trkpt lat="37.02394070290387" lon="-3.167316779295841"><ele>1940.0</ele><time>2026-04-22T12:18:07.999Z</time></trkpt><trkpt lat="37.02404473285715" lon="-3.1672838200352578"><ele>1943.5</ele><time>2026-04-22T12:18:08.999Z</time></trkpt><trkpt lat="37.02414899221223" lon="-3.1672475636696724"><ele>1947.0</ele><time>2026-04-22T12:18:09.999Z</time></trkpt><trkpt lat="37.02425712445187" lon="-3.1672034856611617"><ele>1950.5</ele><time>2026-04-22T12:18:10.999Z</time></trkpt><trkpt lat="37.02436433134007" lon="-3.1671477561208885"><ele>1954.0</ele><time>2026-04-22T12:18:11.999Z</time></trkpt><trkpt lat="37.024467381933036" lon="-3.1670892096006185"><ele>1954.0</ele><time>2026-04-22T12:18:12.999Z</time></trkpt><trkpt lat="37.024567693628086" lon="-3.167024546971592"><ele>1954.0</ele><time>2026-04-22T12:18:13.999Z</time></trkpt><trkpt lat="37.02465600851499" lon="-3.1669639072576885"><ele>1954.0</ele><time>2026-04-22T12:18:15Z</time></trkpt><trkpt lat="37.024742905879066" lon="-3.166907472748705"><ele>1954.0</ele><time>2026-04-22T12:18:16Z</time></trkpt><trkpt lat="37.02483224478715" lon="-3.166852251360793"><ele>1954.0</ele><time>2026-04-22T12:18:17Z</time></trkpt><trkpt lat="37.02492090304746" lon="-3.166792557300492"><ele>1953.4</ele><time>2026-04-22T12:18:18Z</time></trkpt><trkpt lat="37.02500548842027" lon="-3.1667291870388197"><ele>1952.8000000000002</ele><time>2026-04-22T12:18:19Z</time></trkpt><trkpt lat="37.025100877827626" lon="-3.1666679838179372"><ele>1952.1999999999998</ele><time>2026-04-22T12:18:20Z</time></trkpt><trkpt lat="37.025194513753505" lon="-3.1666077815875098"><ele>1951.6</ele><time>2026-04-22T12:18:21Z</time></trkpt><trkpt lat="37.02528813880808" lon="-3.1665522083752053"><ele>1951.0</ele><time>2026-04-22T12:18:22Z</time></trkpt><trkpt lat="37.025382071809084" lon="-3.1664920086530572"><ele>1951.0</ele><time>2026-04-22T12:18:23Z</time></trkpt><trkpt lat="37.02547468575946" lon="-3.1664362170371665"><ele>1951.0</ele><time>2026-04-22T12:18:24Z</time></trkpt><trkpt lat="37.02556717812345" lon="-3.166380721281624"><ele>1951.0</ele><time>2026-04-22T12:18:25Z</time></trkpt><trkpt lat="37.0256633713869" lon="-3.1663225836495386"><ele>1951.0</ele><time>2026-04-22T12:18:26Z</time></trkpt><trkpt lat="37.02575423031184" lon="-3.166265006803256"><ele>1951.0</ele><time>2026-04-22T12:18:27Z</time></trkpt><trkpt lat="37.0258361369937" lon="-3.1662016409779437"><ele>1952.6</ele><time>2026-04-22T12:18:28Z</time></trkpt><trkpt lat="37.02591490605778" lon="-3.1661213380855084"><ele>1954.1999999999998</ele><time>2026-04-22T12:18:29Z</time></trkpt><trkpt lat="37.02598662133318" lon="-3.1660370947248486"><ele>1955.8000000000002</ele><time>2026-04-22T12:18:30Z</time></trkpt><trkpt lat="37.02605670665731" lon="-3.165931544931878"><ele>1957.4</ele><time>2026-04-22T12:18:31Z</time></trkpt><trkpt lat="37.026120579018475" lon="-3.1658228510836675"><ele>1959.0</ele><time>2026-04-22T12:18:32Z</time></trkpt><trkpt lat="37.02619045902372" lon="-3.165721452950065"><ele>1957.4</ele><time>2026-04-22T12:18:33Z</time></trkpt><trkpt lat="37.02625007891796" lon="-3.1656103768394863"><ele>1955.8000000000002</ele><time>2026-04-22T12:18:34Z</time></trkpt><trkpt lat="37.02631511590066" lon="-3.1655040756666755"><ele>1954.1999999999998</ele><time>2026-04-22T12:18:35Z</time></trkpt><trkpt lat="37.02636990138092" lon="-3.165395244956443"><ele>1952.6</ele><time>2026-04-22T12:18:36Z</time></trkpt><trkpt lat="37.02643427069748" lon="-3.165294838634507"><ele>1951.0</ele><time>2026-04-22T12:18:37Z</time></trkpt><trkpt lat="37.02649205954144" lon="-3.1651841194678694"><ele>1951.0</ele><time>2026-04-22T12:18:38Z</time></trkpt><trkpt lat="37.02657092367827" lon="-3.165081759059252"><ele>1951.0</ele><time>2026-04-22T12:18:39Z</time></trkpt><trkpt lat="37.02665412134003" lon="-3.1649688670983487"><ele>1951.0</ele><time>2026-04-22T12:18:40Z</time></trkpt><trkpt lat="37.0267154404853" lon="-3.164849511700326"><ele>1951.0</ele><time>2026-04-22T12:18:41Z</time></trkpt><trkpt lat="37.02679335367457" lon="-3.164734108076596"><ele>1951.0</ele><time>2026-04-22T12:18:42Z</time></trkpt><trkpt lat="37.02688136457488" lon="-3.1646315428358816"><ele>1951.0</ele><time>2026-04-22T12:18:43Z</time></trkpt><trkpt lat="37.026963410023214" lon="-3.164512020859545"><ele>1951.0</ele><time>2026-04-22T12:18:44Z</time></trkpt><trkpt lat="37.02704676181604" lon="-3.1644009406116864"><ele>1951.0</ele><time>2026-04-22T12:18:45Z</time></trkpt><trkpt lat="37.02713377035494" lon="-3.1642939444150944"><ele>1951.0</ele><time>2026-04-22T12:18:46Z</time></trkpt><trkpt lat="37.027230089933056" lon="-3.1641993376580726"><ele>1951.0</ele><time>2026-04-22T12:18:47Z</time></trkpt><trkpt lat="37.0273181693358" lon="-3.1640921122909544"><ele>1951.0</ele><time>2026-04-22T12:18:48Z</time></trkpt><trkpt lat="37.027409744416836" lon="-3.1639997142428817"><ele>1951.0</ele><time>2026-04-22T12:18:49Z</time></trkpt><trkpt lat="37.02749806662604" lon="-3.163904668595074"><ele>1950.5</ele><time>2026-04-22T12:18:50Z</time></trkpt><trkpt lat="37.0275878143645" lon="-3.163796600969774"><ele>1950.0</ele><time>2026-04-22T12:18:51Z</time></trkpt><trkpt lat="37.02766476125437" lon="-3.1636914402645195"><ele>1949.5</ele><time>2026-04-22T12:18:52Z</time></trkpt><trkpt lat="37.02774129216712" lon="-3.1635839344737806"><ele>1949.0</ele><time>2026-04-22T12:18:53Z</time></trkpt><trkpt lat="37.027804575793525" lon="-3.163465659130456"><ele>1949.0</ele><time>2026-04-22T12:18:54Z</time></trkpt><trkpt lat="37.02785028655544" lon="-3.163338650369926"><ele>1949.0</ele><time>2026-04-22T12:18:55Z</time></trkpt><trkpt lat="37.02793115432211" lon="-3.163232678044479"><ele>1949.0</ele><time>2026-04-22T12:18:56Z</time></trkpt><trkpt lat="37.02798936870051" lon="-3.1631193554126735"><ele>1949.0</ele><time>2026-04-22T12:18:56.996Z</time></trkpt><trkpt lat="37.02805235894442" lon="-3.1630098974884366"><ele>1949.0</ele><time>2026-04-22T12:18:57.996Z</time></trkpt><trkpt lat="37.02811721573677" lon="-3.1628889781006246"><ele>1949.5</ele><time>2026-04-22T12:18:58.996Z</time></trkpt><trkpt lat="37.02819220911423" lon="-3.162772896339031"><ele>1950.0</ele><time>2026-04-22T12:18:59.996Z</time></trkpt><trkpt lat="37.02827435518057" lon="-3.1626600977591477"><ele>1950.5</ele><time>2026-04-22T12:19:00.997Z</time></trkpt><trkpt lat="37.028360802383105" lon="-3.16255827919423"><ele>1951.0</ele><time>2026-04-22T12:19:01.997Z</time></trkpt><trkpt lat="37.02845036450245" lon="-3.162457634290346"><ele>1948.4</ele><time>2026-04-22T12:19:02.997Z</time></trkpt><trkpt lat="37.02853751799635" lon="-3.162360536620176"><ele>1945.8</ele><time>2026-04-22T12:19:03.997Z</time></trkpt><trkpt lat="37.028616052549935" lon="-3.1622631695897923"><ele>1943.2000000000003</ele><time>2026-04-22T12:19:04.997Z</time></trkpt><trkpt lat="37.02868879015051" lon="-3.1621602492161593"><ele>1940.6000000000001</ele><time>2026-04-22T12:19:05.997Z</time></trkpt><trkpt lat="37.028764389921776" lon="-3.162064356083096"><ele>1938.0</ele><time>2026-04-22T12:19:06.997Z</time></trkpt><trkpt lat="37.02883797951134" lon="-3.1619771927119946"><ele>1938.0</ele><time>2026-04-22T12:19:07.997Z</time></trkpt><trkpt lat="37.028923591686166" lon="-3.161884485116844"><ele>1938.0000000000002</ele><time>2026-04-22T12:19:08.997Z</time></trkpt><trkpt lat="37.028994854387186" lon="-3.1617907139713517"><ele>1938.0000000000002</ele><time>2026-04-22T12:19:09.997Z</time></trkpt><trkpt lat="37.02908227688174" lon="-3.1617290845798243"><ele>1938.0</ele><time>2026-04-22T12:19:10.997Z</time></trkpt><trkpt lat="37.029168947680304" lon="-3.161638290428648"><ele>1938.0</ele><time>2026-04-22T12:19:11.997Z</time></trkpt><trkpt lat="37.029255162285025" lon="-3.161558766693053"><ele>1938.0</ele><time>2026-04-22T12:19:12.998Z</time></trkpt><trkpt lat="37.029348457540024" lon="-3.1614841208585913"><ele>1938.0000000000002</ele><time>2026-04-22T12:19:13.998Z</time></trkpt><trkpt lat="37.02944309696185" lon="-3.1614082820130145"><ele>1938.0000000000002</ele><time>2026-04-22T12:19:14.998Z</time></trkpt><trkpt lat="37.02953942399966" lon="-3.1613353376861104"><ele>1938.0</ele><time>2026-04-22T12:19:15.998Z</time></trkpt><trkpt lat="37.02963744335223" lon="-3.161263771553334"><ele>1938.0</ele><time>2026-04-22T12:19:16.998Z</time></trkpt><trkpt lat="37.02972803281717" lon="-3.1611915070658325"><ele>1938.0</ele><time>2026-04-22T12:19:17.998Z</time></trkpt><trkpt lat="37.02983047179365" lon="-3.1611523077149113"><ele>1938.0000000000002</ele><time>2026-04-22T12:19:18.998Z</time></trkpt><trkpt lat="37.02993045041521" lon="-3.161102634022242"><ele>1938.0000000000002</ele><time>2026-04-22T12:19:19.998Z</time></trkpt><trkpt lat="37.030023146129686" lon="-3.1610710378948608"><ele>1938.0</ele><time>2026-04-22T12:19:20.998Z</time></trkpt><trkpt lat="37.030117016243594" lon="-3.1610346216870373"><ele>1938.0</ele><time>2026-04-22T12:19:21.998Z</time></trkpt><trkpt lat="37.030214819630785" lon="-3.1609929958033423"><ele>1939.4</ele><time>2026-04-22T12:19:22.998Z</time></trkpt><trkpt lat="37.03030437901797" lon="-3.1609556544521973"><ele>1940.8000000000002</ele><time>2026-04-22T12:19:23.998Z</time></trkpt><trkpt lat="37.03040071873456" lon="-3.1609190470138153"><ele>1942.2</ele><time>2026-04-22T12:19:24.998Z</time></trkpt><trkpt lat="37.03049631305529" lon="-3.1608782848105035"><ele>1943.6</ele><time>2026-04-22T12:19:25.998Z</time></trkpt><trkpt lat="37.03058657467638" lon="-3.1608362739558156"><ele>1945.0</ele><time>2026-04-22T12:19:26.998Z</time></trkpt><trkpt lat="37.03068431651866" lon="-3.1607968069649623"><ele>1945.0</ele><time>2026-04-22T12:19:27.998Z</time></trkpt><trkpt lat="37.03078018624351" lon="-3.1607634858495057"><ele>1945.0</ele><time>2026-04-22T12:19:28.998Z</time></trkpt><trkpt lat="37.030878945009015" lon="-3.160724647642286"><ele>1945.0</ele><time>2026-04-22T12:19:29.998Z</time></trkpt><trkpt lat="37.03098391709704" lon="-3.1606849939843906"><ele>1945.0</ele><time>2026-04-22T12:19:30.999Z</time></trkpt><trkpt lat="37.031091754917334" lon="-3.160645867091197"><ele>1945.0</ele><time>2026-04-22T12:19:31.999Z</time></trkpt><trkpt lat="37.03119608639323" lon="-3.160602245258467"><ele>1944.8</ele><time>2026-04-22T12:19:32.999Z</time></trkpt><trkpt lat="37.03129416790223" lon="-3.160556411646141"><ele>1944.6</ele><time>2026-04-22T12:19:33.999Z</time></trkpt><trkpt lat="37.03138910301988" lon="-3.1605042655469626"><ele>1944.4</ele><time>2026-04-22T12:19:34.999Z</time></trkpt><trkpt lat="37.03148523728426" lon="-3.160438049187333"><ele>1944.2</ele><time>2026-04-22T12:19:35.999Z</time></trkpt><trkpt lat="37.03157317439855" lon="-3.160364949563305"><ele>1944.0</ele><time>2026-04-22T12:19:36.999Z</time></trkpt><trkpt lat="37.03165780378032" lon="-3.160291669428539"><ele>1944.0</ele><time>2026-04-22T12:19:37.999Z</time></trkpt><trkpt lat="37.031736934866785" lon="-3.1602237735165297"><ele>1944.0</ele><time>2026-04-22T12:19:38.999Z</time></trkpt><trkpt lat="37.031808388491875" lon="-3.1601672239769845"><ele>1944.0</ele><time>2026-04-22T12:19:39.999Z</time></trkpt><trkpt lat="37.03187515368821" lon="-3.160120714361545"><ele>1944.0</ele><time>2026-04-22T12:19:40.999Z</time></trkpt><trkpt lat="37.031940663604125" lon="-3.1600744447349993"><ele>1944.0</ele><time>2026-04-22T12:19:41.999Z</time></trkpt><trkpt lat="37.03205034693525" lon="-3.159997495782296"><ele>1944.0</ele><time>2026-04-22T12:19:43.999Z</time></trkpt><trkpt lat="37.0321149880891" lon="-3.159982803280721"><ele>1944.0</ele><time>2026-04-22T12:19:44.999Z</time></trkpt><trkpt lat="37.03218024203002" lon="-3.1599770857419127"><ele>1944.0</ele><time>2026-04-22T12:19:45.999Z</time></trkpt><trkpt lat="37.03224902464625" lon="-3.159976110983017"><ele>1944.0</ele><time>2026-04-22T12:19:46.999Z</time></trkpt><trkpt lat="37.0323195194283" lon="-3.1599814331467546"><ele>1944.0</ele><time>2026-04-22T12:19:47.999Z</time></trkpt><trkpt lat="37.03238615656226" lon="-3.159994619542271"><ele>1944.0</ele><time>2026-04-22T12:19:48.999Z</time></trkpt><trkpt lat="37.03244835271229" lon="-3.1600089766276174"><ele>1944.0</ele><time>2026-04-22T12:19:49.999Z</time></trkpt><trkpt lat="37.03251101660528" lon="-3.1600167138348008"><ele>1945.0</ele><time>2026-04-22T12:19:50.999Z</time></trkpt><trkpt lat="37.03257720675778" lon="-3.1600193466247704"><ele>1946.0</ele><time>2026-04-22T12:19:51.999Z</time></trkpt><trkpt lat="37.03265113554608" lon="-3.1600223305015374"><ele>1947.0</ele><time>2026-04-22T12:19:52.999Z</time></trkpt><trkpt lat="37.03272675686282" lon="-3.160031113481815"><ele>1948.0</ele><time>2026-04-22T12:19:53.999Z</time></trkpt><trkpt lat="37.032792002049035" lon="-3.1600385118187218"><ele>1949.0</ele><time>2026-04-22T12:19:54.999Z</time></trkpt><trkpt lat="37.032878749861574" lon="-3.1600389847371213"><ele>1950.0</ele><time>2026-04-22T12:19:56.999Z</time></trkpt><trkpt lat="37.03296727170339" lon="-3.1600146669680633"><ele>1950.0</ele><time>2026-04-22T12:20:16.999Z</time></trkpt><trkpt lat="37.0330443988058" lon="-3.160035450782213"><ele>1950.0</ele><time>2026-04-22T12:20:18.999Z</time></trkpt><trkpt lat="37.03298479500077" lon="-3.1600777358655434"><ele>1950.0</ele><time>2026-04-22T12:20:24.999Z</time></trkpt><trkpt lat="37.03289959320017" lon="-3.1600493430400522"><ele>1950.0</ele><time>2026-04-22T12:20:26.999Z</time></trkpt><trkpt lat="37.03283135396907" lon="-3.1600510114668183"><ele>1950.0</ele><time>2026-04-22T12:20:28.999Z</time></trkpt><trkpt lat="37.03273859122474" lon="-3.160007017684519"><ele>1950.0</ele><time>2026-04-22T12:20:31.999Z</time></trkpt><trkpt lat="37.0326670319421" lon="-3.1599875482579196"><ele>1950.0</ele><time>2026-04-22T12:20:34Z</time></trkpt><trkpt lat="37.03259444193814" lon="-3.1599618394072304"><ele>1950.0</ele><time>2026-04-22T12:20:36Z</time></trkpt><trkpt lat="37.03251134016576" lon="-3.159925040389482"><ele>1950.0</ele><time>2026-04-22T12:20:38Z</time></trkpt><trkpt lat="37.03237488641852" lon="-3.159851819389365"><ele>1950.0</ele><time>2026-04-22T12:20:53Z</time></trkpt><trkpt lat="37.03231105917881" lon="-3.1597646284183902"><ele>1950.0</ele><time>2026-04-22T12:20:56Z</time></trkpt><trkpt lat="37.0320798684739" lon="-3.1595547296779882"><ele>1936.5</ele><time>2026-04-22T12:20:58Z</time></trkpt><trkpt lat="37.03197792151374" lon="-3.1595468212421567"><ele>1923.0</ele><time>2026-04-22T12:20:59Z</time></trkpt><trkpt lat="37.031547444944096" lon="-3.1598052984456704"><ele>1925.0</ele><time>2026-04-22T12:21:00Z</time></trkpt><trkpt lat="37.031448617197086" lon="-3.1598716228226005"><ele>1927.0</ele><time>2026-04-22T12:21:02.999Z</time></trkpt><trkpt lat="37.031356539472725" lon="-3.1599195301760656"><ele>1929.0</ele><time>2026-04-22T12:21:04.999Z</time></trkpt><trkpt lat="37.03126192022512" lon="-3.1599530314553794"><ele>1931.0</ele><time>2026-04-22T12:21:06.999Z</time></trkpt><trkpt lat="37.0311164310531" lon="-3.159986527672368"><ele>1930.9999999999998</ele><time>2026-04-22T12:21:08.999Z</time></trkpt><trkpt lat="37.03103210158401" lon="-3.1600107579459102"><ele>1931.0</ele><time>2026-04-22T12:21:09.999Z</time></trkpt><trkpt lat="37.03094787623175" lon="-3.1600349579789566"><ele>1931.0</ele><time>2026-04-22T12:21:10.999Z</time></trkpt><trkpt lat="37.03087673996699" lon="-3.160051396691754"><ele>1931.0</ele><time>2026-04-22T12:21:11.999Z</time></trkpt><trkpt lat="37.030804108616024" lon="-3.160066890065099"><ele>1930.9999999999998</ele><time>2026-04-22T12:21:12.999Z</time></trkpt><trkpt lat="37.03070121786634" lon="-3.16011635316191"><ele>1931.0</ele><time>2026-04-22T12:21:14.999Z</time></trkpt><trkpt lat="37.03064138591888" lon="-3.1601570968261963"><ele>1929.9999999999998</ele><time>2026-04-22T12:21:16Z</time></trkpt><trkpt lat="37.03058514497557" lon="-3.1602007081446994"><ele>1929.0</ele><time>2026-04-22T12:21:17Z</time></trkpt><trkpt lat="37.0304969500102" lon="-3.1602470242094367"><ele>1928.0</ele><time>2026-04-22T12:21:18Z</time></trkpt><trkpt lat="37.03041996263322" lon="-3.1602968488181347"><ele>1927.0</ele><time>2026-04-22T12:21:19Z</time></trkpt><trkpt lat="37.03034865430883" lon="-3.160328651667448"><ele>1925.9999999999998</ele><time>2026-04-22T12:21:20Z</time></trkpt><trkpt lat="37.03028616208326" lon="-3.1603785694108137"><ele>1925.0</ele><time>2026-04-22T12:21:21Z</time></trkpt><trkpt lat="37.03020364215997" lon="-3.1604358622970703"><ele>1945.0</ele><time>2026-04-22T12:21:22Z</time></trkpt><trkpt lat="37.03008472859952" lon="-3.1610933990005035"><ele>1945.0000000000002</ele><time>2026-04-22T12:21:23Z</time></trkpt><trkpt lat="37.03000039542428" lon="-3.1611249274391"><ele>1945.0</ele><time>2026-04-22T12:21:24Z</time></trkpt><trkpt lat="37.02991974971205" lon="-3.161161068578933"><ele>1945.0</ele><time>2026-04-22T12:21:25Z</time></trkpt><trkpt lat="37.02983881811614" lon="-3.161191043122819"><ele>1945.0</ele><time>2026-04-22T12:21:26Z</time></trkpt><trkpt lat="37.02975653812398" lon="-3.1612316019410045"><ele>1945.0000000000002</ele><time>2026-04-22T12:21:27Z</time></trkpt><trkpt lat="37.02967531424491" lon="-3.16127573596199"><ele>1945.0</ele><time>2026-04-22T12:21:28Z</time></trkpt><trkpt lat="37.0295914462463" lon="-3.161328989992702"><ele>1943.8333333333335</ele><time>2026-04-22T12:21:29Z</time></trkpt><trkpt lat="37.02951808410956" lon="-3.1613811589101033"><ele>1942.6666666666667</ele><time>2026-04-22T12:21:30Z</time></trkpt><trkpt lat="37.029441762575225" lon="-3.161442094928378"><ele>1941.5</ele><time>2026-04-22T12:21:31Z</time></trkpt><trkpt lat="37.029369801573736" lon="-3.1615022675767337"><ele>1940.3333333333335</ele><time>2026-04-22T12:21:32Z</time></trkpt><trkpt lat="37.029298691637585" lon="-3.1615614066329014"><ele>1939.1666666666667</ele><time>2026-04-22T12:21:33Z</time></trkpt><trkpt lat="37.02922700510422" lon="-3.1616270328256184"><ele>1938.0</ele><time>2026-04-22T12:21:34Z</time></trkpt><trkpt lat="37.02915245677454" lon="-3.1616857501510975"><ele>1938.0</ele><time>2026-04-22T12:21:35Z</time></trkpt><trkpt lat="37.02907953102112" lon="-3.1617488075284843"><ele>1938.0</ele><time>2026-04-22T12:21:36Z</time></trkpt><trkpt lat="37.02901399277288" lon="-3.1618130076995903"><ele>1938.0</ele><time>2026-04-22T12:21:37Z</time></trkpt><trkpt lat="37.02894607652476" lon="-3.1618846648577623"><ele>1938.0</ele><time>2026-04-22T12:21:38Z</time></trkpt><trkpt lat="37.02888109520763" lon="-3.1619674277602505"><ele>1938.0</ele><time>2026-04-22T12:21:39Z</time></trkpt><trkpt lat="37.0288124904518" lon="-3.162042274638504"><ele>1938.0</ele><time>2026-04-22T12:21:40Z</time></trkpt><trkpt lat="37.0287454875665" lon="-3.1621333364052013"><ele>1938.0</ele><time>2026-04-22T12:21:41Z</time></trkpt><trkpt lat="37.02867863338946" lon="-3.162213950276864"><ele>1938.0000000000002</ele><time>2026-04-22T12:21:42Z</time></trkpt><trkpt lat="37.02861522968067" lon="-3.162294672556582"><ele>1938.0000000000002</ele><time>2026-04-22T12:21:43Z</time></trkpt><trkpt lat="37.02854935926047" lon="-3.162386620977139"><ele>1938.0</ele><time>2026-04-22T12:21:44Z</time></trkpt><trkpt lat="37.028476275309686" lon="-3.162473536208018"><ele>1938.0</ele><time>2026-04-22T12:21:45Z</time></trkpt><trkpt lat="37.02840024812574" lon="-3.162559611875045"><ele>1937.8000000000002</ele><time>2026-04-22T12:21:46Z</time></trkpt><trkpt lat="37.02833130229972" lon="-3.1626390533092588"><ele>1937.6000000000001</ele><time>2026-04-22T12:21:47Z</time></trkpt><trkpt lat="37.02826256648387" lon="-3.16271357215711"><ele>1937.3999999999999</ele><time>2026-04-22T12:21:48Z</time></trkpt><trkpt lat="37.028202023778285" lon="-3.1627990697136803"><ele>1937.1999999999998</ele><time>2026-04-22T12:21:49Z</time></trkpt><trkpt lat="37.028142248154495" lon="-3.1628895605951675"><ele>1937.0</ele><time>2026-04-22T12:21:50Z</time></trkpt><trkpt lat="37.02808437112693" lon="-3.162980214207729"><ele>1937.0</ele><time>2026-04-22T12:21:51Z</time></trkpt><trkpt lat="37.02803325471747" lon="-3.1630674123872686"><ele>1936.9999999999998</ele><time>2026-04-22T12:21:52Z</time></trkpt><trkpt lat="37.027982185501585" lon="-3.163172599803419"><ele>1936.9999999999998</ele><time>2026-04-22T12:21:53Z</time></trkpt><trkpt lat="37.027932808119" lon="-3.1632748784510722"><ele>1937.0</ele><time>2026-04-22T12:21:54Z</time></trkpt><trkpt lat="37.027876382082425" lon="-3.1633729789216263"><ele>1937.0</ele><time>2026-04-22T12:21:55Z</time></trkpt><trkpt lat="37.02782086548083" lon="-3.163466184365249"><ele>1939.3999999999999</ele><time>2026-04-22T12:21:56Z</time></trkpt><trkpt lat="37.02776592898249" lon="-3.1635622201275018"><ele>1941.7999999999997</ele><time>2026-04-22T12:21:57Z</time></trkpt><trkpt lat="37.027704310176745" lon="-3.16365422163509"><ele>1944.2</ele><time>2026-04-22T12:21:58Z</time></trkpt><trkpt lat="37.027640555634335" lon="-3.163744489547311"><ele>1946.6</ele><time>2026-04-22T12:21:59Z</time></trkpt><trkpt lat="37.02757176387172" lon="-3.1638284531144643"><ele>1949.0</ele><time>2026-04-22T12:22:00Z</time></trkpt><trkpt lat="37.02750065727062" lon="-3.1639162348327425"><ele>1949.4</ele><time>2026-04-22T12:22:01Z</time></trkpt><trkpt lat="37.02742791895836" lon="-3.163998400455981"><ele>1949.8000000000002</ele><time>2026-04-22T12:22:02Z</time></trkpt><trkpt lat="37.02734919989757" lon="-3.164082386351005"><ele>1950.1999999999998</ele><time>2026-04-22T12:22:03Z</time></trkpt><trkpt lat="37.02727293664719" lon="-3.164170953333728"><ele>1950.6</ele><time>2026-04-22T12:22:04Z</time></trkpt><trkpt lat="37.02719538742169" lon="-3.164258180571637"><ele>1951.0</ele><time>2026-04-22T12:22:05Z</time></trkpt><trkpt lat="37.02711975836835" lon="-3.1643415095395673"><ele>1951.0</ele><time>2026-04-22T12:22:06Z</time></trkpt><trkpt lat="37.02704694234775" lon="-3.164437108313438"><ele>1951.0</ele><time>2026-04-22T12:22:07Z</time></trkpt><trkpt lat="37.02697296452666" lon="-3.164527828649499"><ele>1951.0</ele><time>2026-04-22T12:22:08Z</time></trkpt><trkpt lat="37.02690277799975" lon="-3.1646232851637217"><ele>1951.0</ele><time>2026-04-22T12:22:09Z</time></trkpt><trkpt lat="37.0268358690149" lon="-3.1647204259478476"><ele>1951.0</ele><time>2026-04-22T12:22:10Z</time></trkpt><trkpt lat="37.02676890443144" lon="-3.1648135991757322"><ele>1951.0</ele><time>2026-04-22T12:22:11Z</time></trkpt><trkpt lat="37.026700042947944" lon="-3.164914384563093"><ele>1951.0</ele><time>2026-04-22T12:22:12Z</time></trkpt><trkpt lat="37.026633730898176" lon="-3.1650096563652355"><ele>1951.0</ele><time>2026-04-22T12:22:13Z</time></trkpt><trkpt lat="37.02657083661946" lon="-3.165102922008299"><ele>1951.0</ele><time>2026-04-22T12:22:14Z</time></trkpt><trkpt lat="37.02651028534728" lon="-3.165198800541616"><ele>1951.0</ele><time>2026-04-22T12:22:15Z</time></trkpt><trkpt lat="37.02644886884947" lon="-3.1652977870929044"><ele>1951.0</ele><time>2026-04-22T12:22:16.001Z</time></trkpt><trkpt lat="37.026393618321485" lon="-3.165392449642123"><ele>1951.0</ele><time>2026-04-22T12:22:17.001Z</time></trkpt><trkpt lat="37.026338702528065" lon="-3.1654873233076337"><ele>1951.0</ele><time>2026-04-22T12:22:18.001Z</time></trkpt><trkpt lat="37.026286198310274" lon="-3.1655837488412857"><ele>1951.0</ele><time>2026-04-22T12:22:19.001Z</time></trkpt><trkpt lat="37.02623569381386" lon="-3.1656758391163202"><ele>1951.0</ele><time>2026-04-22T12:22:20.001Z</time></trkpt><trkpt lat="37.02618000173914" lon="-3.1657597570958975"><ele>1952.3333333333335</ele><time>2026-04-22T12:22:21.001Z</time></trkpt><trkpt lat="37.0261349501164" lon="-3.1658306632289266"><ele>1953.6666666666667</ele><time>2026-04-22T12:22:22.001Z</time></trkpt><trkpt lat="37.02610023391991" lon="-3.165897250091819"><ele>1955.0</ele><time>2026-04-22T12:22:23.001Z</time></trkpt><trkpt lat="37.026046156965734" lon="-3.165976661138544"><ele>1956.3333333333335</ele><time>2026-04-22T12:22:25.001Z</time></trkpt><trkpt lat="37.025984137563235" lon="-3.166074976559764"><ele>1957.6666666666667</ele><time>2026-04-22T12:22:27.001Z</time></trkpt><trkpt lat="37.025925791826964" lon="-3.1661407043533067"><ele>1959.0</ele><time>2026-04-22T12:22:28.001Z</time></trkpt><trkpt lat="37.025860922908976" lon="-3.166209365623539"><ele>1957.4</ele><time>2026-04-22T12:22:29.001Z</time></trkpt><trkpt lat="37.02578462941619" lon="-3.1662778422593094"><ele>1955.8000000000002</ele><time>2026-04-22T12:22:30.001Z</time></trkpt><trkpt lat="37.02570435127435" lon="-3.1663237425849693"><ele>1954.1999999999998</ele><time>2026-04-22T12:22:31.001Z</time></trkpt><trkpt lat="37.02561821098707" lon="-3.1663854716387645"><ele>1952.6</ele><time>2026-04-22T12:22:32.001Z</time></trkpt><trkpt lat="37.0255195990725" lon="-3.1664379208912767"><ele>1951.0</ele><time>2026-04-22T12:22:33.001Z</time></trkpt><trkpt lat="37.0254322564651" lon="-3.166502512656995"><ele>1951.6</ele><time>2026-04-22T12:22:34.001Z</time></trkpt><trkpt lat="37.025338518272" lon="-3.1665709589192725"><ele>1952.1999999999998</ele><time>2026-04-22T12:22:35.001Z</time></trkpt><trkpt lat="37.025246563682934" lon="-3.1666298997201276"><ele>1952.8000000000002</ele><time>2026-04-22T12:22:36.001Z</time></trkpt><trkpt lat="37.02515186212313" lon="-3.1666886988087986"><ele>1953.4</ele><time>2026-04-22T12:22:37.001Z</time></trkpt><trkpt lat="37.02505854629149" lon="-3.1667478104484594"><ele>1954.0</ele><time>2026-04-22T12:22:38.001Z</time></trkpt><trkpt lat="37.024965054507405" lon="-3.1668060514943988"><ele>1954.0</ele><time>2026-04-22T12:22:39.001Z</time></trkpt><trkpt lat="37.02487158810998" lon="-3.1668713159790443"><ele>1954.0</ele><time>2026-04-22T12:22:40.001Z</time></trkpt><trkpt lat="37.024778491363875" lon="-3.16694038359988"><ele>1954.0</ele><time>2026-04-22T12:22:41.001Z</time></trkpt><trkpt lat="37.02468370704644" lon="-3.1669980953464707"><ele>1954.0</ele><time>2026-04-22T12:22:42.001Z</time></trkpt><trkpt lat="37.024581427959255" lon="-3.167046650541056"><ele>1954.0</ele><time>2026-04-22T12:22:43.001Z</time></trkpt><trkpt lat="37.0244798101072" lon="-3.1670995848639354"><ele>1954.0</ele><time>2026-04-22T12:22:44.001Z</time></trkpt><trkpt lat="37.024384422055256" lon="-3.167161351675462"><ele>1954.0</ele><time>2026-04-22T12:22:45.001Z</time></trkpt><trkpt lat="37.02428725872931" lon="-3.1672161088104245"><ele>1954.0</ele><time>2026-04-22T12:22:46.001Z</time></trkpt><trkpt lat="37.02418659374528" lon="-3.167267610441221"><ele>1954.0</ele><time>2026-04-22T12:22:47.001Z</time></trkpt><trkpt lat="37.024082517402384" lon="-3.1673061161492053"><ele>1954.0</ele><time>2026-04-22T12:22:48.001Z</time></trkpt><trkpt lat="37.02397949124782" lon="-3.1673403498058232"><ele>1954.4</ele><time>2026-04-22T12:22:49.001Z</time></trkpt><trkpt lat="37.02388154688444" lon="-3.167382738634177"><ele>1954.8000000000002</ele><time>2026-04-22T12:22:50.001Z</time></trkpt><trkpt lat="37.023781144883074" lon="-3.1674283350213095"><ele>1955.1999999999998</ele><time>2026-04-22T12:22:51.001Z</time></trkpt><trkpt lat="37.02368486819045" lon="-3.167480618949995"><ele>1955.6</ele><time>2026-04-22T12:22:52.001Z</time></trkpt><trkpt lat="37.02358771374488" lon="-3.167546179654943"><ele>1956.0</ele><time>2026-04-22T12:22:53.001Z</time></trkpt><trkpt lat="37.02349674251351" lon="-3.1676247235590016"><ele>1956.0</ele><time>2026-04-22T12:22:54.001Z</time></trkpt><trkpt lat="37.02340913666018" lon="-3.167712228651891"><ele>1956.0</ele><time>2026-04-22T12:22:55.001Z</time></trkpt><trkpt lat="37.02332723112631" lon="-3.167807957839086"><ele>1956.0</ele><time>2026-04-22T12:22:56.001Z</time></trkpt><trkpt lat="37.02324282557954" lon="-3.16790318764123"><ele>1956.0</ele><time>2026-04-22T12:22:57.001Z</time></trkpt><trkpt lat="37.023165876087106" lon="-3.168000402670242"><ele>1956.0</ele><time>2026-04-22T12:22:58.001Z</time></trkpt><trkpt lat="37.02308254006058" lon="-3.168096174701883"><ele>1957.0</ele><time>2026-04-22T12:22:59.001Z</time></trkpt><trkpt lat="37.02299622001324" lon="-3.1681926307835755"><ele>1958.0</ele><time>2026-04-22T12:23:00.001Z</time></trkpt><trkpt lat="37.022910329834836" lon="-3.1682808708326893"><ele>1959.0</ele><time>2026-04-22T12:23:01.001Z</time></trkpt><trkpt lat="37.02282672678935" lon="-3.1683698898608426"><ele>1960.0</ele><time>2026-04-22T12:23:02.001Z</time></trkpt><trkpt lat="37.022734436268784" lon="-3.168435333348811"><ele>1961.0</ele><time>2026-04-22T12:23:03.001Z</time></trkpt><trkpt lat="37.022630152847356" lon="-3.1684913942680604"><ele>1961.0</ele><time>2026-04-22T12:23:04.001Z</time></trkpt><trkpt lat="37.0225422850455" lon="-3.168567062394619"><ele>1961.0</ele><time>2026-04-22T12:23:05.001Z</time></trkpt><trkpt lat="37.02244747784027" lon="-3.168630709653464"><ele>1961.0</ele><time>2026-04-22T12:23:06.001Z</time></trkpt><trkpt lat="37.022357794674875" lon="-3.168694687836044"><ele>1961.0</ele><time>2026-04-22T12:23:07.001Z</time></trkpt><trkpt lat="37.022263284317226" lon="-3.1687629117060254"><ele>1961.0</ele><time>2026-04-22T12:23:08.001Z</time></trkpt><trkpt lat="37.022175327509075" lon="-3.1688436073478177"><ele>1961.4</ele><time>2026-04-22T12:23:09.001Z</time></trkpt><trkpt lat="37.02208740007743" lon="-3.1689269887366653"><ele>1961.8</ele><time>2026-04-22T12:23:10.001Z</time></trkpt><trkpt lat="37.02199847604199" lon="-3.1690056425455646"><ele>1962.2000000000003</ele><time>2026-04-22T12:23:11.001Z</time></trkpt><trkpt lat="37.021910504648226" lon="-3.1690831882190595"><ele>1962.6000000000001</ele><time>2026-04-22T12:23:12.001Z</time></trkpt><trkpt lat="37.02182103643533" lon="-3.169152271800373"><ele>1963.0</ele><time>2026-04-22T12:23:13.001Z</time></trkpt><trkpt lat="37.02173119058701" lon="-3.1692259144243287"><ele>1961.0</ele><time>2026-04-22T12:23:14.001Z</time></trkpt><trkpt lat="37.02164055110798" lon="-3.169303519011531"><ele>1959.0000000000002</ele><time>2026-04-22T12:23:15.001Z</time></trkpt><trkpt lat="37.02155630396213" lon="-3.1693796875564506"><ele>1957.0000000000002</ele><time>2026-04-22T12:23:16.001Z</time></trkpt><trkpt lat="37.021467210841024" lon="-3.1694460336075627"><ele>1955.0</ele><time>2026-04-22T12:23:17.001Z</time></trkpt><trkpt lat="37.021376414226616" lon="-3.1695235346800725"><ele>1953.0</ele><time>2026-04-22T12:23:18.001Z</time></trkpt><trkpt lat="37.02128361294823" lon="-3.169602436693542"><ele>1953.0</ele><time>2026-04-22T12:23:19.001Z</time></trkpt><trkpt lat="37.02119303563171" lon="-3.1696744085459176"><ele>1953.0000000000002</ele><time>2026-04-22T12:23:20.001Z</time></trkpt><trkpt lat="37.02110390783586" lon="-3.169747010053561"><ele>1953.0000000000002</ele><time>2026-04-22T12:23:21.001Z</time></trkpt><trkpt lat="37.02101035378094" lon="-3.1698171169984706"><ele>1953.0</ele><time>2026-04-22T12:23:22.001Z</time></trkpt><trkpt lat="37.02092076386163" lon="-3.169891351220679"><ele>1953.0</ele><time>2026-04-22T12:23:23.001Z</time></trkpt><trkpt lat="37.02084049716529" lon="-3.1699751912327745"><ele>1953.4</ele><time>2026-04-22T12:23:24.001Z</time></trkpt><trkpt lat="37.02075808297758" lon="-3.170062411292986"><ele>1953.8000000000002</ele><time>2026-04-22T12:23:25.001Z</time></trkpt><trkpt lat="37.02067905833939" lon="-3.170154040605859"><ele>1954.2</ele><time>2026-04-22T12:23:26.001Z</time></trkpt><trkpt lat="37.02060134124019" lon="-3.1702501180617597"><ele>1954.6</ele><time>2026-04-22T12:23:27.001Z</time></trkpt><trkpt lat="37.02052768337706" lon="-3.1703453536011845"><ele>1955.0</ele><time>2026-04-22T12:23:28.001Z</time></trkpt><trkpt lat="37.02045007181731" lon="-3.17043712713384"><ele>1955.0</ele><time>2026-04-22T12:23:29.001Z</time></trkpt><trkpt lat="37.02036988768449" lon="-3.1705353066510344"><ele>1955.0</ele><time>2026-04-22T12:23:30.001Z</time></trkpt><trkpt lat="37.02028939830775" lon="-3.1706269411239414"><ele>1955.0</ele><time>2026-04-22T12:23:31.001Z</time></trkpt><trkpt lat="37.0202120781329" lon="-3.170720844725731"><ele>1955.0</ele><time>2026-04-22T12:23:32.001Z</time></trkpt><trkpt lat="37.0201353073341" lon="-3.170809911895516"><ele>1955.0</ele><time>2026-04-22T12:23:33.001Z</time></trkpt><trkpt lat="37.02007137295212" lon="-3.170877905326223"><ele>1955.4</ele><time>2026-04-22T12:23:34.001Z</time></trkpt><trkpt lat="37.01997644570486" lon="-3.170954767617134"><ele>1955.8</ele><time>2026-04-22T12:23:35.001Z</time></trkpt><trkpt lat="37.019881021400124" lon="-3.1710239244621437"><ele>1956.1999999999998</ele><time>2026-04-22T12:23:36.001Z</time></trkpt><trkpt lat="37.019786828598015" lon="-3.1710787791776407"><ele>1956.6</ele><time>2026-04-22T12:23:37.001Z</time></trkpt><trkpt lat="37.01969239892109" lon="-3.1711352097398433"><ele>1957.0</ele><time>2026-04-22T12:23:38.001Z</time></trkpt><trkpt lat="37.01959303824544" lon="-3.171175142883679"><ele>1957.0</ele><time>2026-04-22T12:23:39.001Z</time></trkpt><trkpt lat="37.019489439499395" lon="-3.171218776477792"><ele>1956.9999999999998</ele><time>2026-04-22T12:23:40.001Z</time></trkpt><trkpt lat="37.019389633730036" lon="-3.171273895689399"><ele>1956.9999999999998</ele><time>2026-04-22T12:23:41.001Z</time></trkpt><trkpt lat="37.01928752864478" lon="-3.1713274266275113"><ele>1957.0</ele><time>2026-04-22T12:23:42.001Z</time></trkpt><trkpt lat="37.019182352511955" lon="-3.1713751986339536"><ele>1957.0</ele><time>2026-04-22T12:23:43.001Z</time></trkpt><trkpt lat="37.01907642414165" lon="-3.171432938785142"><ele>1955.5</ele><time>2026-04-22T12:23:44.001Z</time></trkpt><trkpt lat="37.01897064534897" lon="-3.1714909359480643"><ele>1954.0</ele><time>2026-04-22T12:23:45.001Z</time></trkpt><trkpt lat="37.018864277868914" lon="-3.1715583957711533"><ele>1952.5</ele><time>2026-04-22T12:23:46.001Z</time></trkpt><trkpt lat="37.01875976525028" lon="-3.171633224518274"><ele>1951.0</ele><time>2026-04-22T12:23:47.001Z</time></trkpt><trkpt lat="37.01865515378204" lon="-3.1717082461123027"><ele>1953.25</ele><time>2026-04-22T12:23:48.001Z</time></trkpt><trkpt lat="37.018550102453084" lon="-3.1717788056555665"><ele>1955.5</ele><time>2026-04-22T12:23:49.001Z</time></trkpt><trkpt lat="37.018444149025036" lon="-3.17184289963796"><ele>1957.75</ele><time>2026-04-22T12:23:50.001Z</time></trkpt><trkpt lat="37.01833476044991" lon="-3.1718983285243425"><ele>1960.0</ele><time>2026-04-22T12:23:51.001Z</time></trkpt><trkpt lat="37.018224920165075" lon="-3.171953334921515"><ele>1960.0</ele><time>2026-04-22T12:23:52.001Z</time></trkpt><trkpt lat="37.018117429405976" lon="-3.17201138660606"><ele>1960.0</ele><time>2026-04-22T12:23:53.001Z</time></trkpt><trkpt lat="37.01800606394676" lon="-3.1720606444000374"><ele>1960.0</ele><time>2026-04-22T12:23:54.001Z</time></trkpt><trkpt lat="37.01789985759439" lon="-3.1721079521486883"><ele>1960.0</ele><time>2026-04-22T12:23:55.001Z</time></trkpt><trkpt lat="37.01778850770039" lon="-3.1721442161217026"><ele>1960.0</ele><time>2026-04-22T12:23:56.001Z</time></trkpt><trkpt lat="37.017683424939904" lon="-3.172185661396412"><ele>1960.0</ele><time>2026-04-22T12:23:57.001Z</time></trkpt><trkpt lat="37.01757955381136" lon="-3.1722356395957862"><ele>1960.0</ele><time>2026-04-22T12:23:58.001Z</time></trkpt><trkpt lat="37.01747653079002" lon="-3.1722932363762717"><ele>1960.0</ele><time>2026-04-22T12:23:59.001Z</time></trkpt><trkpt lat="37.017378591117144" lon="-3.1723565788432264"><ele>1960.0</ele><time>2026-04-22T12:24:00.001Z</time></trkpt><trkpt lat="37.01727550739118" lon="-3.172423277877904"><ele>1961.75</ele><time>2026-04-22T12:24:01.001Z</time></trkpt><trkpt lat="37.01717430353043" lon="-3.172486131001872"><ele>1963.5</ele><time>2026-04-22T12:24:02.001Z</time></trkpt><trkpt lat="37.01707599039051" lon="-3.1725494355995267"><ele>1965.25</ele><time>2026-04-22T12:24:03.001Z</time></trkpt><trkpt lat="37.016980607217846" lon="-3.1726246161447955"><ele>1967.0</ele><time>2026-04-22T12:24:04.001Z</time></trkpt><trkpt lat="37.016881986324584" lon="-3.1726966354230166"><ele>1967.0</ele><time>2026-04-22T12:24:05.001Z</time></trkpt><trkpt lat="37.01677313350693" lon="-3.172759591678386"><ele>1967.0</ele><time>2026-04-22T12:24:06.001Z</time></trkpt><trkpt lat="37.01666415590573" lon="-3.1728236076603986"><ele>1967.0</ele><time>2026-04-22T12:24:07.001Z</time></trkpt><trkpt lat="37.01655848185458" lon="-3.1728848290250147"><ele>1967.0</ele><time>2026-04-22T12:24:08.001Z</time></trkpt><trkpt lat="37.016458976343046" lon="-3.172946396358635"><ele>1968.25</ele><time>2026-04-22T12:24:09.001Z</time></trkpt><trkpt lat="37.01635768474019" lon="-3.173001087367265"><ele>1969.5</ele><time>2026-04-22T12:24:10.001Z</time></trkpt><trkpt lat="37.01625316537662" lon="-3.173057884348604"><ele>1970.75</ele><time>2026-04-22T12:24:11.001Z</time></trkpt><trkpt lat="37.01615224527681" lon="-3.1731286425906884"><ele>1972.0</ele><time>2026-04-22T12:24:12.001Z</time></trkpt><trkpt lat="37.01604535701335" lon="-3.1731926067097627"><ele>1972.0</ele><time>2026-04-22T12:24:13.001Z</time></trkpt><trkpt lat="37.0159406781125" lon="-3.1732555386568624"><ele>1972.0</ele><time>2026-04-22T12:24:14.001Z</time></trkpt><trkpt lat="37.01583765104977" lon="-3.1733200660682095"><ele>1972.0</ele><time>2026-04-22T12:24:15.001Z</time></trkpt><trkpt lat="37.01573460079262" lon="-3.173380303505455"><ele>1972.0</ele><time>2026-04-22T12:24:16.001Z</time></trkpt><trkpt lat="37.01563294643273" lon="-3.1734411069055146"><ele>1970.0</ele><time>2026-04-22T12:24:17.001Z</time></trkpt><trkpt lat="37.01552705567044" lon="-3.173499775006813"><ele>1968.0</ele><time>2026-04-22T12:24:18.001Z</time></trkpt><trkpt lat="37.01543976322321" lon="-3.173584194190463"><ele>1966.0</ele><time>2026-04-22T12:24:19.001Z</time></trkpt><trkpt lat="37.01535318381073" lon="-3.1736693179466218"><ele>1964.0</ele><time>2026-04-22T12:24:20.001Z</time></trkpt><trkpt lat="37.015269122237214" lon="-3.173768035869648"><ele>1964.0</ele><time>2026-04-22T12:24:21.001Z</time></trkpt><trkpt lat="37.015172795775555" lon="-3.1738573714872467"><ele>1964.0</ele><time>2026-04-22T12:24:22.001Z</time></trkpt><trkpt lat="37.01507973947655" lon="-3.1739488171565786"><ele>1964.0</ele><time>2026-04-22T12:24:23.001Z</time></trkpt><trkpt lat="37.0149771513443" lon="-3.174013639684215"><ele>1964.0</ele><time>2026-04-22T12:24:24.001Z</time></trkpt><trkpt lat="37.01486321036858" lon="-3.174058398840342"><ele>1965.0</ele><time>2026-04-22T12:24:25.001Z</time></trkpt><trkpt lat="37.01474205473568" lon="-3.1740877227048254"><ele>1966.0</ele><time>2026-04-22T12:24:26.001Z</time></trkpt><trkpt lat="37.01461731244625" lon="-3.1740995334870785"><ele>1967.0</ele><time>2026-04-22T12:24:27.001Z</time></trkpt><trkpt lat="37.01449413389985" lon="-3.174105691593663"><ele>1968.0</ele><time>2026-04-22T12:24:28.001Z</time></trkpt><trkpt lat="37.01437739888717" lon="-3.17414788592725"><ele>1968.0</ele><time>2026-04-22T12:24:29.001Z</time></trkpt><trkpt lat="37.014259325405995" lon="-3.1741556139764016"><ele>1968.0</ele><time>2026-04-22T12:24:30.001Z</time></trkpt><trkpt lat="37.014146618479046" lon="-3.1741881636658373"><ele>1968.0</ele><time>2026-04-22T12:24:31.001Z</time></trkpt><trkpt lat="37.01403634674694" lon="-3.1742290594873186"><ele>1968.0</ele><time>2026-04-22T12:24:32.001Z</time></trkpt><trkpt lat="37.013924453073294" lon="-3.174264977056093"><ele>1966.8000000000002</ele><time>2026-04-22T12:24:33.001Z</time></trkpt><trkpt lat="37.01381943080895" lon="-3.1743035626131126"><ele>1965.6000000000001</ele><time>2026-04-22T12:24:34.001Z</time></trkpt><trkpt lat="37.013727621916054" lon="-3.1743432896734527"><ele>1964.3999999999999</ele><time>2026-04-22T12:24:35.001Z</time></trkpt><trkpt lat="37.01365936498145" lon="-3.174420917335356"><ele>1963.1999999999998</ele><time>2026-04-22T12:24:36.001Z</time></trkpt><trkpt lat="37.01357684586992" lon="-3.174474867686198"><ele>1962.0</ele><time>2026-04-22T12:24:37.001Z</time></trkpt><trkpt lat="37.013514803512415" lon="-3.174553409134676"><ele>1962.0</ele><time>2026-04-22T12:24:38.001Z</time></trkpt><trkpt lat="37.01348100150453" lon="-3.1746600773680824"><ele>1961.9999999999998</ele><time>2026-04-22T12:24:39.001Z</time></trkpt><trkpt lat="37.01344114381536" lon="-3.1747663033795788"><ele>1961.9999999999998</ele><time>2026-04-22T12:24:40.001Z</time></trkpt><trkpt lat="37.013406590896516" lon="-3.174877104948051"><ele>1962.0</ele><time>2026-04-22T12:24:41.001Z</time></trkpt><trkpt lat="37.01336689175316" lon="-3.174991712602724"><ele>1962.0</ele><time>2026-04-22T12:24:42.001Z</time></trkpt><trkpt lat="37.013331431847384" lon="-3.175110024577204"><ele>1965.1666666666667</ele><time>2026-04-22T12:24:43.001Z</time></trkpt><trkpt lat="37.01331464702255" lon="-3.1752334129235185"><ele>1968.3333333333335</ele><time>2026-04-22T12:24:44.001Z</time></trkpt><trkpt lat="37.01328549678464" lon="-3.175344795523735"><ele>1971.5</ele><time>2026-04-22T12:24:45.001Z</time></trkpt><trkpt lat="37.01325812827405" lon="-3.1754391064480525"><ele>1974.6666666666667</ele><time>2026-04-22T12:24:46.001Z</time></trkpt><trkpt lat="37.013221687988015" lon="-3.1755529487403398"><ele>1977.8333333333335</ele><time>2026-04-22T12:24:47.001Z</time></trkpt><trkpt lat="37.01318839655153" lon="-3.175639056383513"><ele>1981.0</ele><time>2026-04-22T12:24:48.001Z</time></trkpt><trkpt lat="37.01316152842214" lon="-3.175724536705144"><ele>1982.6</ele><time>2026-04-22T12:24:49.001Z</time></trkpt><trkpt lat="37.01314313194877" lon="-3.175805853637856"><ele>1984.1999999999998</ele><time>2026-04-22T12:24:50.001Z</time></trkpt><trkpt lat="37.013123263595695" lon="-3.1759322533296728"><ele>1985.8000000000002</ele><time>2026-04-22T12:24:52.001Z</time></trkpt><trkpt lat="37.0131870667665" lon="-3.176023491297406"><ele>1987.4</ele><time>2026-04-22T12:24:54.001Z</time></trkpt><trkpt lat="37.0132535160375" lon="-3.175947454490829"><ele>1989.0</ele><time>2026-04-22T12:24:55.001Z</time></trkpt><trkpt lat="37.013333865683556" lon="-3.1758178325351567"><ele>1985.5</ele><time>2026-04-22T12:24:57.001Z</time></trkpt><trkpt lat="37.0133877407456" lon="-3.1757423832264804"><ele>1982.0</ele><time>2026-04-22T12:24:58.001Z</time></trkpt><trkpt lat="37.01343985635115" lon="-3.175661735277743"><ele>1978.5</ele><time>2026-04-22T12:24:59.001Z</time></trkpt><trkpt lat="37.0135047812198" lon="-3.175575568894233"><ele>1975.0</ele><time>2026-04-22T12:25:00.001Z</time></trkpt><trkpt lat="37.013574762235024" lon="-3.1754991079919916"><ele>1971.5</ele><time>2026-04-22T12:25:01.001Z</time></trkpt><trkpt lat="37.01365016502948" lon="-3.175428645800594"><ele>1968.0</ele><time>2026-04-22T12:25:02.001Z</time></trkpt><trkpt lat="37.01370647983661" lon="-3.175354668680322"><ele>1968.0</ele><time>2026-04-22T12:25:03.001Z</time></trkpt><trkpt lat="37.01378416900649" lon="-3.1752937362679448"><ele>1968.0000000000002</ele><time>2026-04-22T12:25:04.001Z</time></trkpt><trkpt lat="37.01386713275503" lon="-3.1752575756279846"><ele>1968.0000000000002</ele><time>2026-04-22T12:25:05.001Z</time></trkpt><trkpt lat="37.01396027875291" lon="-3.1752355766555054"><ele>1968.0</ele><time>2026-04-22T12:25:06.001Z</time></trkpt><trkpt lat="37.014051589908604" lon="-3.1752448444364902"><ele>1968.0</ele><time>2026-04-22T12:25:07.001Z</time></trkpt><trkpt lat="37.01414548607531" lon="-3.175258870268207"><ele>1967.6000000000001</ele><time>2026-04-22T12:25:08.001Z</time></trkpt><trkpt lat="37.014232915817765" lon="-3.175291452598541"><ele>1967.2000000000003</ele><time>2026-04-22T12:25:09.001Z</time></trkpt><trkpt lat="37.014315488807775" lon="-3.175336045982793"><ele>1966.8</ele><time>2026-04-22T12:25:10.001Z</time></trkpt><trkpt lat="37.01440417331639" lon="-3.1753683754355015"><ele>1966.4</ele><time>2026-04-22T12:25:11.001Z</time></trkpt><trkpt lat="37.01449659903753" lon="-3.175403066271505"><ele>1966.0</ele><time>2026-04-22T12:25:12.001Z</time></trkpt><trkpt lat="37.014584349897525" lon="-3.17543896512104"><ele>1966.0</ele><time>2026-04-22T12:25:13.001Z</time></trkpt><trkpt lat="37.01467318568555" lon="-3.175477211066037"><ele>1966.0</ele><time>2026-04-22T12:25:14.001Z</time></trkpt><trkpt lat="37.014756740644835" lon="-3.1755107379522216"><ele>1966.0</ele><time>2026-04-22T12:25:15.002Z</time></trkpt><trkpt lat="37.014841724586816" lon="-3.175549235846548"><ele>1966.0</ele><time>2026-04-22T12:25:16.002Z</time></trkpt><trkpt lat="37.01493098778334" lon="-3.1755793871571765"><ele>1966.0</ele><time>2026-04-22T12:25:17.002Z</time></trkpt><trkpt lat="37.01501675717353" lon="-3.1756018528786"><ele>1966.1999999999998</ele><time>2026-04-22T12:25:18.002Z</time></trkpt><trkpt lat="37.0151026498172" lon="-3.175626445423248"><ele>1966.3999999999999</ele><time>2026-04-22T12:25:19.002Z</time></trkpt><trkpt lat="37.015190535841484" lon="-3.175654495139689"><ele>1966.6</ele><time>2026-04-22T12:25:20.002Z</time></trkpt><trkpt lat="37.015274913425124" lon="-3.1756973217315245"><ele>1966.8</ele><time>2026-04-22T12:25:21.002Z</time></trkpt><trkpt lat="37.01535845887082" lon="-3.175748780850118"><ele>1967.0</ele><time>2026-04-22T12:25:22.002Z</time></trkpt><trkpt lat="37.01544394794017" lon="-3.175799497711518"><ele>1963.8</ele><time>2026-04-22T12:25:23.002Z</time></trkpt><trkpt lat="37.015533728247604" lon="-3.1758479378258535"><ele>1960.6</ele><time>2026-04-22T12:25:24.002Z</time></trkpt><trkpt lat="37.01562847456754" lon="-3.1758815084971754"><ele>1957.3999999999999</ele><time>2026-04-22T12:25:25.002Z</time></trkpt><trkpt lat="37.01572973283186" lon="-3.175884118262594"><ele>1954.1999999999998</ele><time>2026-04-22T12:25:26.001Z</time></trkpt><trkpt lat="37.01582992427353" lon="-3.1758767378711017"><ele>1951.0</ele><time>2026-04-22T12:25:27.001Z</time></trkpt><trkpt lat="37.015941745669885" lon="-3.1758854863000665"><ele>1951.0</ele><time>2026-04-22T12:25:28.001Z</time></trkpt><trkpt lat="37.01604821707157" lon="-3.1759051621630294"><ele>1951.0</ele><time>2026-04-22T12:25:29.001Z</time></trkpt><trkpt lat="37.016151375485634" lon="-3.1759277772866614"><ele>1951.0</ele><time>2026-04-22T12:25:30.001Z</time></trkpt><trkpt lat="37.016251981102045" lon="-3.175947349448257"><ele>1951.0</ele><time>2026-04-22T12:25:31.001Z</time></trkpt><trkpt lat="37.01634825909957" lon="-3.1759751114380297"><ele>1951.0</ele><time>2026-04-22T12:25:32.001Z</time></trkpt><trkpt lat="37.01644733365046" lon="-3.1759999304775075"><ele>1951.0000000000002</ele><time>2026-04-22T12:25:33.001Z</time></trkpt><trkpt lat="37.01654108137188" lon="-3.1760239428029524"><ele>1951.0</ele><time>2026-04-22T12:25:34.001Z</time></trkpt><trkpt lat="37.01662765456508" lon="-3.1760410305291527"><ele>1951.0</ele><time>2026-04-22T12:25:35.001Z</time></trkpt><trkpt lat="37.016705933904674" lon="-3.1760627927962557"><ele>1951.0</ele><time>2026-04-22T12:25:36.001Z</time></trkpt><trkpt lat="37.016789265916685" lon="-3.1760770073508606"><ele>1951.0000000000002</ele><time>2026-04-22T12:25:37.001Z</time></trkpt><trkpt lat="37.01687598088563" lon="-3.176082365304154"><ele>1951.0</ele><time>2026-04-22T12:25:38.001Z</time></trkpt><trkpt lat="37.01696315730934" lon="-3.176052887326431"><ele>1951.8</ele><time>2026-04-22T12:25:39.001Z</time></trkpt><trkpt lat="37.017040602537755" lon="-3.176000667667577"><ele>1952.6</ele><time>2026-04-22T12:25:40.001Z</time></trkpt><trkpt lat="37.017108100997696" lon="-3.1759216144301945"><ele>1953.4</ele><time>2026-04-22T12:25:41.001Z</time></trkpt><trkpt lat="37.01717073780297" lon="-3.1758356499725937"><ele>1954.2</ele><time>2026-04-22T12:25:42.001Z</time></trkpt><trkpt lat="37.017235878619346" lon="-3.1757535703759676"><ele>1955.0</ele><time>2026-04-22T12:25:43.001Z</time></trkpt><trkpt lat="37.01729836783288" lon="-3.1756704385201826"><ele>1954.4999999999998</ele><time>2026-04-22T12:25:44.001Z</time></trkpt><trkpt lat="37.017354370900954" lon="-3.1755894324626492"><ele>1954.0</ele><time>2026-04-22T12:25:45.001Z</time></trkpt><trkpt lat="37.01740939707135" lon="-3.175506788652424"><ele>1953.5</ele><time>2026-04-22T12:25:46.001Z</time></trkpt><trkpt lat="37.01746141589098" lon="-3.1754276251695464"><ele>1953.0</ele><time>2026-04-22T12:25:47.001Z</time></trkpt><trkpt lat="37.017522285265166" lon="-3.1753515277616025"><ele>1952.4999999999998</ele><time>2026-04-22T12:25:48.001Z</time></trkpt><trkpt lat="37.017582697849896" lon="-3.1752692250321752"><ele>1952.0</ele><time>2026-04-22T12:25:49.001Z</time></trkpt><trkpt lat="37.01764475850795" lon="-3.1751833440235657"><ele>1952.0</ele><time>2026-04-22T12:25:50.001Z</time></trkpt><trkpt lat="37.01770085917411" lon="-3.175105021686294"><ele>1951.9999999999998</ele><time>2026-04-22T12:25:51.001Z</time></trkpt><trkpt lat="37.017748637692804" lon="-3.1750424593596986"><ele>1951.9999999999998</ele><time>2026-04-22T12:25:52.001Z</time></trkpt><trkpt lat="37.01783427871695" lon="-3.174951683201436"><ele>1952.0</ele><time>2026-04-22T12:25:54.001Z</time></trkpt><trkpt lat="37.017892307919155" lon="-3.1748829197932595"><ele>1952.0</ele><time>2026-04-22T12:25:56.001Z</time></trkpt><trkpt lat="37.01798825140854" lon="-3.1747989697334096"><ele>1951.1666666666665</ele><time>2026-04-22T12:26:07.001Z</time></trkpt><trkpt lat="37.01804780686713" lon="-3.1747508651042797"><ele>1950.3333333333333</ele><time>2026-04-22T12:26:08.001Z</time></trkpt><trkpt lat="37.01811655255225" lon="-3.1746928958288834"><ele>1949.5</ele><time>2026-04-22T12:26:09.001Z</time></trkpt><trkpt lat="37.01819086054954" lon="-3.1746401468050522"><ele>1948.6666666666665</ele><time>2026-04-22T12:26:10.001Z</time></trkpt><trkpt lat="37.01826449478141" lon="-3.1745836375266983"><ele>1947.8333333333333</ele><time>2026-04-22T12:26:11.001Z</time></trkpt><trkpt lat="37.01833973880148" lon="-3.1745172969416333"><ele>1947.0</ele><time>2026-04-22T12:26:12.001Z</time></trkpt><trkpt lat="37.01842042856119" lon="-3.1744533208843264"><ele>1947.0</ele><time>2026-04-22T12:26:13.001Z</time></trkpt><trkpt lat="37.018499071509034" lon="-3.1743989234802807"><ele>1947.0</ele><time>2026-04-22T12:26:14.001Z</time></trkpt><trkpt lat="37.0185769023649" lon="-3.174349416960133"><ele>1947.0</ele><time>2026-04-22T12:26:15.001Z</time></trkpt><trkpt lat="37.01864542598129" lon="-3.174295260622434"><ele>1947.0</ele><time>2026-04-22T12:26:16.001Z</time></trkpt><trkpt lat="37.01870839042328" lon="-3.174245254218916"><ele>1947.0</ele><time>2026-04-22T12:26:17.001Z</time></trkpt><trkpt lat="37.01877105470425" lon="-3.1741975282508306"><ele>1947.0</ele><time>2026-04-22T12:26:18.001Z</time></trkpt><trkpt lat="37.01883610789801" lon="-3.1741567460660054"><ele>1947.0</ele><time>2026-04-22T12:26:19.001Z</time></trkpt><trkpt lat="37.018889979445255" lon="-3.174113466662759"><ele>1947.0</ele><time>2026-04-22T12:26:20.001Z</time></trkpt><trkpt lat="37.0189700245424" lon="-3.174102650772176"><ele>1947.0</ele><time>2026-04-22T12:26:21.001Z</time></trkpt><trkpt lat="37.01905479771809" lon="-3.174093563110381"><ele>1947.0</ele><time>2026-04-22T12:26:22.001Z</time></trkpt><trkpt lat="37.01914256779646" lon="-3.174105637296187"><ele>1947.0</ele><time>2026-04-22T12:26:23.001Z</time></trkpt><trkpt lat="37.019231577578495" lon="-3.174132512442092"><ele>1947.0</ele><time>2026-04-22T12:26:24.001Z</time></trkpt><trkpt lat="37.01931967895341" lon="-3.1741571565088287"><ele>1945.0</ele><time>2026-04-22T12:26:25.001Z</time></trkpt><trkpt lat="37.01941027977529" lon="-3.1741954241168457"><ele>1942.9999999999998</ele><time>2026-04-22T12:26:26.001Z</time></trkpt><trkpt lat="37.019502014595645" lon="-3.174241603762133"><ele>1940.9999999999998</ele><time>2026-04-22T12:26:27.001Z</time></trkpt><trkpt lat="37.01958322887795" lon="-3.174290967529806"><ele>1939.0</ele><time>2026-04-22T12:26:28.001Z</time></trkpt><trkpt lat="37.01966292857373" lon="-3.17435014001111"><ele>1937.0</ele><time>2026-04-22T12:26:29.001Z</time></trkpt><trkpt lat="37.01974282831165" lon="-3.1744123919286484"><ele>1937.0</ele><time>2026-04-22T12:26:30.001Z</time></trkpt><trkpt lat="37.01981964372355" lon="-3.1744810869610944"><ele>1936.9999999999998</ele><time>2026-04-22T12:26:31.001Z</time></trkpt><trkpt lat="37.01989619179608" lon="-3.174562974167748"><ele>1936.9999999999998</ele><time>2026-04-22T12:26:32.001Z</time></trkpt><trkpt lat="37.01998553926374" lon="-3.1746188015218695"><ele>1937.0</ele><time>2026-04-22T12:26:33.001Z</time></trkpt><trkpt lat="37.020064899727544" lon="-3.174686488027416"><ele>1937.0</ele><time>2026-04-22T12:26:34.001Z</time></trkpt><trkpt lat="37.0201601474483" lon="-3.1747115060109845"><ele>1938.6</ele><time>2026-04-22T12:26:35.001Z</time></trkpt><trkpt lat="37.02025877841667" lon="-3.1747252795958407"><ele>1940.1999999999998</ele><time>2026-04-22T12:26:36.001Z</time></trkpt><trkpt lat="37.02036219191869" lon="-3.174734267483828"><ele>1941.8</ele><time>2026-04-22T12:26:37.001Z</time></trkpt><trkpt lat="37.020464460934114" lon="-3.1747381444607066"><ele>1943.4</ele><time>2026-04-22T12:26:38.001Z</time></trkpt><trkpt lat="37.02056451008422" lon="-3.1747403465526216"><ele>1945.0</ele><time>2026-04-22T12:26:39.001Z</time></trkpt><trkpt lat="37.020653552982644" lon="-3.1747557417572154"><ele>1945.0000000000002</ele><time>2026-04-22T12:26:40.001Z</time></trkpt><trkpt lat="37.02073769687669" lon="-3.1747780338941407"><ele>1945.0</ele><time>2026-04-22T12:26:41.001Z</time></trkpt><trkpt lat="37.020818591807654" lon="-3.174806186233382"><ele>1945.0</ele><time>2026-04-22T12:26:42.001Z</time></trkpt><trkpt lat="37.02090060275955" lon="-3.174841908867261"><ele>1945.0</ele><time>2026-04-22T12:26:43.001Z</time></trkpt><trkpt lat="37.020977800173476" lon="-3.174878272633204"><ele>1945.0000000000002</ele><time>2026-04-22T12:26:44.001Z</time></trkpt><trkpt lat="37.02105470542267" lon="-3.174916694535041"><ele>1945.0</ele><time>2026-04-22T12:26:45.001Z</time></trkpt><trkpt lat="37.02113528956491" lon="-3.174952434381253"><ele>1940.0</ele><time>2026-04-22T12:26:46.001Z</time></trkpt><trkpt lat="37.02121543111195" lon="-3.1749891590919055"><ele>1935.0</ele><time>2026-04-22T12:26:47.001Z</time></trkpt><trkpt lat="37.02129846800274" lon="-3.175016767874211"><ele>1930.0</ele><time>2026-04-22T12:26:48.001Z</time></trkpt><trkpt lat="37.02138296182459" lon="-3.1750504520844047"><ele>1925.0</ele><time>2026-04-22T12:26:49.001Z</time></trkpt><trkpt lat="37.021479245944676" lon="-3.175075308374852"><ele>1920.0</ele><time>2026-04-22T12:26:50.001Z</time></trkpt><trkpt lat="37.02157711810537" lon="-3.1750956557015595"><ele>1923.5</ele><time>2026-04-22T12:26:51.001Z</time></trkpt><trkpt lat="37.021677009310196" lon="-3.1751054368652167"><ele>1927.0</ele><time>2026-04-22T12:26:52.001Z</time></trkpt><trkpt lat="37.021856776992756" lon="-3.1751400919911004"><ele>1930.5</ele><time>2026-04-22T12:26:54.001Z</time></trkpt><trkpt lat="37.02195225913414" lon="-3.1751559161825993"><ele>1934.0</ele><time>2026-04-22T12:26:55.001Z</time></trkpt><trkpt lat="37.02204672137941" lon="-3.175175621207138"><ele>1934.0</ele><time>2026-04-22T12:26:56.001Z</time></trkpt><trkpt lat="37.02214513939141" lon="-3.1752087511451914"><ele>1934.0</ele><time>2026-04-22T12:26:57.001Z</time></trkpt><trkpt lat="37.02223942742789" lon="-3.175263390753202"><ele>1934.0</ele><time>2026-04-22T12:26:58.001Z</time></trkpt><trkpt lat="37.0223251894209" lon="-3.1753353146186742"><ele>1934.0</ele><time>2026-04-22T12:26:59.001Z</time></trkpt><trkpt lat="37.022406575234754" lon="-3.175420029524834"><ele>1934.0</ele><time>2026-04-22T12:27:00.001Z</time></trkpt><trkpt lat="37.02248578736432" lon="-3.175508458045271"><ele>1933.8000000000002</ele><time>2026-04-22T12:27:01.001Z</time></trkpt><trkpt lat="37.02255802496589" lon="-3.175599181475608"><ele>1933.6000000000001</ele><time>2026-04-22T12:27:02.001Z</time></trkpt><trkpt lat="37.02263363789088" lon="-3.1756824961353716"><ele>1933.4</ele><time>2026-04-22T12:27:03.001Z</time></trkpt><trkpt lat="37.02270162022826" lon="-3.175757724120625"><ele>1933.2</ele><time>2026-04-22T12:27:04.001Z</time></trkpt><trkpt lat="37.02276558924222" lon="-3.1758460902815777"><ele>1933.0</ele><time>2026-04-22T12:27:05.001Z</time></trkpt><trkpt lat="37.022835982817725" lon="-3.1759130235867903"><ele>1929.5000000000002</ele><time>2026-04-22T12:27:06.001Z</time></trkpt><trkpt lat="37.0228908862415" lon="-3.1760024283276187"><ele>1926.0</ele><time>2026-04-22T12:27:07.001Z</time></trkpt><trkpt lat="37.02294703456152" lon="-3.176080728671866"><ele>1922.5</ele><time>2026-04-22T12:27:08.001Z</time></trkpt><trkpt lat="37.02300597522926" lon="-3.1761477662408346"><ele>1919.0</ele><time>2026-04-22T12:27:09.001Z</time></trkpt><trkpt lat="37.023077043900685" lon="-3.1761851769631932"><ele>1915.5000000000002</ele><time>2026-04-22T12:27:10.001Z</time></trkpt><trkpt lat="37.023165720145585" lon="-3.1762168933467074"><ele>1912.0</ele><time>2026-04-22T12:27:11.001Z</time></trkpt><trkpt lat="37.02324483082956" lon="-3.176247521597699"><ele>1915.3999999999999</ele><time>2026-04-22T12:27:12.001Z</time></trkpt><trkpt lat="37.02333858207196" lon="-3.1762480332415923"><ele>1918.7999999999997</ele><time>2026-04-22T12:27:13.001Z</time></trkpt><trkpt lat="37.02343089803425" lon="-3.17623926913458"><ele>1922.2</ele><time>2026-04-22T12:27:14.001Z</time></trkpt><trkpt lat="37.02352321293334" lon="-3.176228755782913"><ele>1925.6</ele><time>2026-04-22T12:27:15.001Z</time></trkpt><trkpt lat="37.02361164791695" lon="-3.1762161808700444"><ele>1929.0</ele><time>2026-04-22T12:27:16.001Z</time></trkpt><trkpt lat="37.023702500728824" lon="-3.1762074218526304"><ele>1929.0</ele><time>2026-04-22T12:27:17.001Z</time></trkpt><trkpt lat="37.02379339580991" lon="-3.1761999195585053"><ele>1929.0</ele><time>2026-04-22T12:27:18.001Z</time></trkpt><trkpt lat="37.02388883615398" lon="-3.1762033136278935"><ele>1929.0</ele><time>2026-04-22T12:27:19.001Z</time></trkpt><trkpt lat="37.023979654799035" lon="-3.1762179935655217"><ele>1929.0</ele><time>2026-04-22T12:27:20.001Z</time></trkpt><trkpt lat="37.02406743706121" lon="-3.1762352290168145"><ele>1929.0</ele><time>2026-04-22T12:27:21.002Z</time></trkpt><trkpt lat="37.024162250603254" lon="-3.176267712635177"><ele>1933.8000000000002</ele><time>2026-04-22T12:27:22.002Z</time></trkpt><trkpt lat="37.02424412951446" lon="-3.176321247090713"><ele>1938.6000000000001</ele><time>2026-04-22T12:27:23.002Z</time></trkpt><trkpt lat="37.02432545357657" lon="-3.176397489410912"><ele>1943.4</ele><time>2026-04-22T12:27:24.002Z</time></trkpt><trkpt lat="37.02440209921331" lon="-3.1764714653510224"><ele>1948.2</ele><time>2026-04-22T12:27:25.002Z</time></trkpt><trkpt lat="37.02447017024788" lon="-3.1765333073532487"><ele>1953.0</ele><time>2026-04-22T12:27:26.002Z</time></trkpt><trkpt lat="37.024544041736064" lon="-3.176590232198747"><ele>1948.0</ele><time>2026-04-22T12:27:27.002Z</time></trkpt><trkpt lat="37.02461449629706" lon="-3.17663921930069"><ele>1943.0</ele><time>2026-04-22T12:27:28.002Z</time></trkpt><trkpt lat="37.02468857307197" lon="-3.176694981118496"><ele>1938.0</ele><time>2026-04-22T12:27:29.002Z</time></trkpt><trkpt lat="37.02474364414497" lon="-3.176737668593592"><ele>1933.0</ele><time>2026-04-22T12:27:30.002Z</time></trkpt><trkpt lat="37.02479865527688" lon="-3.176778565863252"><ele>1928.0</ele><time>2026-04-22T12:27:31.001Z</time></trkpt><trkpt lat="37.02486631911417" lon="-3.1767919076848394"><ele>1923.0</ele><time>2026-04-22T12:27:32.001Z</time></trkpt><trkpt lat="37.02498841534827" lon="-3.1768224155788207"><ele>1923.0</ele><time>2026-04-22T12:27:34.001Z</time></trkpt><trkpt lat="37.02510820034797" lon="-3.1768593390517297"><ele>1923.0</ele><time>2026-04-22T12:27:36.001Z</time></trkpt><trkpt lat="37.025172962741046" lon="-3.176853160299427"><ele>1923.0</ele><time>2026-04-22T12:27:37.001Z</time></trkpt><trkpt lat="37.02524728085183" lon="-3.1768675458372697"><ele>1923.0</ele><time>2026-04-22T12:27:38.001Z</time></trkpt><trkpt lat="37.025319938854" lon="-3.1768877633678776"><ele>1923.0</ele><time>2026-04-22T12:27:39.001Z</time></trkpt><trkpt lat="37.02539579250223" lon="-3.176914656600319"><ele>1923.0</ele><time>2026-04-22T12:27:40.001Z</time></trkpt><trkpt lat="37.025462968691215" lon="-3.176968836518984"><ele>1923.0</ele><time>2026-04-22T12:27:41.001Z</time></trkpt><trkpt lat="37.025537063250404" lon="-3.1769676591259826"><ele>1923.0</ele><time>2026-04-22T12:27:42.001Z</time></trkpt><trkpt lat="37.025601236494914" lon="-3.1769764129897253"><ele>1923.0</ele><time>2026-04-22T12:27:43.001Z</time></trkpt><trkpt lat="37.02567230741369" lon="-3.176997870904385"><ele>1923.0</ele><time>2026-04-22T12:27:44.001Z</time></trkpt><trkpt lat="37.02573555594906" lon="-3.1769443815899403"><ele>1923.0</ele><time>2026-04-22T12:27:45.001Z</time></trkpt><trkpt lat="37.02579857508889" lon="-3.176892162306946"><ele>1923.0</ele><time>2026-04-22T12:27:46.001Z</time></trkpt><trkpt lat="37.02586551839793" lon="-3.1768354696534122"><ele>1923.0</ele><time>2026-04-22T12:27:47.001Z</time></trkpt><trkpt lat="37.0259245617086" lon="-3.17677615814981"><ele>1921.1666666666667</ele><time>2026-04-22T12:27:48.001Z</time></trkpt><trkpt lat="37.02598741867881" lon="-3.176725614337631"><ele>1919.3333333333335</ele><time>2026-04-22T12:27:49.001Z</time></trkpt><trkpt lat="37.026044729378725" lon="-3.176660008321644"><ele>1917.5</ele><time>2026-04-22T12:27:50.001Z</time></trkpt><trkpt lat="37.02610497694407" lon="-3.176588724674574"><ele>1915.6666666666667</ele><time>2026-04-22T12:27:51.001Z</time></trkpt><trkpt lat="37.026171097778274" lon="-3.176512743320034"><ele>1913.8333333333335</ele><time>2026-04-22T12:27:52.001Z</time></trkpt><trkpt lat="37.026235696728776" lon="-3.176443186077671"><ele>1912.0</ele><time>2026-04-22T12:27:53.001Z</time></trkpt><trkpt lat="37.02629644494119" lon="-3.1763715553014493"><ele>1909.6666666666667</ele><time>2026-04-22T12:27:54.001Z</time></trkpt><trkpt lat="37.026352766782765" lon="-3.17629639201714"><ele>1907.3333333333335</ele><time>2026-04-22T12:27:55.001Z</time></trkpt><trkpt lat="37.026410535746926" lon="-3.1762254648158916"><ele>1905.0</ele><time>2026-04-22T12:27:56.001Z</time></trkpt><trkpt lat="37.02648524441594" lon="-3.176163503845629"><ele>1902.6666666666665</ele><time>2026-04-22T12:27:57.001Z</time></trkpt><trkpt lat="37.02653960801008" lon="-3.1761024246572074"><ele>1900.3333333333333</ele><time>2026-04-22T12:27:58.001Z</time></trkpt><trkpt lat="37.026592915342796" lon="-3.1760364021831355"><ele>1898.0</ele><time>2026-04-22T12:27:59.001Z</time></trkpt><trkpt lat="37.02665415519954" lon="-3.1759876109900635"><ele>1897.9999999999998</ele><time>2026-04-22T12:28:00.001Z</time></trkpt><trkpt lat="37.02670767783533" lon="-3.175937678212036"><ele>1898.0</ele><time>2026-04-22T12:28:01.001Z</time></trkpt><trkpt lat="37.02675381179699" lon="-3.1758779796931376"><ele>1898.0</ele><time>2026-04-22T12:28:02.001Z</time></trkpt><trkpt lat="37.026765310297904" lon="-3.175760040156489"><ele>1898.0</ele><time>2026-04-22T12:28:03.001Z</time></trkpt><trkpt lat="37.02681514955875" lon="-3.1756907969087522"><ele>1897.9999999999998</ele><time>2026-04-22T12:28:04.001Z</time></trkpt><trkpt lat="37.02685576308336" lon="-3.1756032329663686"><ele>1898.0</ele><time>2026-04-22T12:28:05.001Z</time></trkpt><trkpt lat="37.02692172326319" lon="-3.1755466879093643"><ele>1902.8333333333333</ele><time>2026-04-22T12:28:06.001Z</time></trkpt><trkpt lat="37.027013212735405" lon="-3.175513157351248"><ele>1907.6666666666665</ele><time>2026-04-22T12:28:07.001Z</time></trkpt><trkpt lat="37.027079439292145" lon="-3.1754931489416625"><ele>1912.5</ele><time>2026-04-22T12:28:08.001Z</time></trkpt><trkpt lat="37.02717803419156" lon="-3.1754936006604044"><ele>1917.3333333333335</ele><time>2026-04-22T12:28:09.001Z</time></trkpt><trkpt lat="37.02725851489423" lon="-3.1754882053694535"><ele>1922.1666666666667</ele><time>2026-04-22T12:28:10.001Z</time></trkpt><trkpt lat="37.02733133733989" lon="-3.1754786389446585"><ele>1927.0</ele><time>2026-04-22T12:28:11.001Z</time></trkpt><trkpt lat="37.02741285075468" lon="-3.1754529800362326"><ele>1923.0000000000002</ele><time>2026-04-22T12:28:12.001Z</time></trkpt><trkpt lat="37.02748793773812" lon="-3.175414364165228"><ele>1919.0</ele><time>2026-04-22T12:28:13.001Z</time></trkpt><trkpt lat="37.02756450705322" lon="-3.175375690551269"><ele>1915.0</ele><time>2026-04-22T12:28:14.001Z</time></trkpt><trkpt lat="37.027643720549406" lon="-3.17533273504434"><ele>1911.0</ele><time>2026-04-22T12:28:15.001Z</time></trkpt><trkpt lat="37.02772007922274" lon="-3.1753112607982934"><ele>1907.0000000000002</ele><time>2026-04-22T12:28:16.001Z</time></trkpt><trkpt lat="37.027806078865865" lon="-3.1753034716450563"><ele>1903.0</ele><time>2026-04-22T12:28:17.001Z</time></trkpt><trkpt lat="37.02788624086138" lon="-3.17533830081737"><ele>1903.0000000000002</ele><time>2026-04-22T12:28:18.001Z</time></trkpt><trkpt lat="37.02796131594195" lon="-3.1753870277596334"><ele>1903.0</ele><time>2026-04-22T12:28:19.001Z</time></trkpt><trkpt lat="37.028029337175525" lon="-3.1754548704443444"><ele>1903.0</ele><time>2026-04-22T12:28:20.001Z</time></trkpt><trkpt lat="37.02810157214174" lon="-3.175510838149112"><ele>1903.0</ele><time>2026-04-22T12:28:21.001Z</time></trkpt><trkpt lat="37.028165956976295" lon="-3.17558840623892"><ele>1903.0000000000002</ele><time>2026-04-22T12:28:22.001Z</time></trkpt><trkpt lat="37.02824010810209" lon="-3.175623211394822"><ele>1903.0</ele><time>2026-04-22T12:28:23.001Z</time></trkpt><trkpt lat="37.02830931129355" lon="-3.175669943057068"><ele>1898.5000000000002</ele><time>2026-04-22T12:28:24.001Z</time></trkpt><trkpt lat="37.02838293052652" lon="-3.1757199095002853"><ele>1894.0</ele><time>2026-04-22T12:28:25.001Z</time></trkpt><trkpt lat="37.028465525407476" lon="-3.175751411154152"><ele>1889.5</ele><time>2026-04-22T12:28:26.001Z</time></trkpt><trkpt lat="37.02855827504617" lon="-3.1757640648711947"><ele>1885.0</ele><time>2026-04-22T12:28:27.001Z</time></trkpt><trkpt lat="37.028651569765344" lon="-3.1757589944902875"><ele>1880.5000000000002</ele><time>2026-04-22T12:28:28.001Z</time></trkpt><trkpt lat="37.02874214234759" lon="-3.175742727536336"><ele>1876.0</ele><time>2026-04-22T12:28:29.001Z</time></trkpt><trkpt lat="37.02882399926672" lon="-3.1757317894165826"><ele>1876.0</ele><time>2026-04-22T12:28:30.001Z</time></trkpt><trkpt lat="37.028900093853345" lon="-3.1757399221864033"><ele>1876.0</ele><time>2026-04-22T12:28:31.001Z</time></trkpt><trkpt lat="37.02898944796943" lon="-3.175722815210857"><ele>1876.0</ele><time>2026-04-22T12:28:32.001Z</time></trkpt><trkpt lat="37.029053777821865" lon="-3.1757228152084296"><ele>1876.0</ele><time>2026-04-22T12:28:33.001Z</time></trkpt><trkpt lat="37.02916185081619" lon="-3.175835156582155"><ele>1876.0</ele><time>2026-04-22T12:28:35.001Z</time></trkpt><trkpt lat="37.02926316881954" lon="-3.175870084152871"><ele>1877.6</ele><time>2026-04-22T12:28:37.001Z</time></trkpt><trkpt lat="37.029375720347" lon="-3.1758976739220084"><ele>1879.1999999999998</ele><time>2026-04-22T12:28:39.001Z</time></trkpt><trkpt lat="37.029498121773834" lon="-3.175912506396421"><ele>1880.8000000000002</ele><time>2026-04-22T12:28:41.001Z</time></trkpt><trkpt lat="37.0296165469801" lon="-3.1759400910114497"><ele>1882.4</ele><time>2026-04-22T12:28:43.001Z</time></trkpt><trkpt lat="37.029684779719254" lon="-3.1759445448147074"><ele>1884.0</ele><time>2026-04-22T12:28:44.001Z</time></trkpt><trkpt lat="37.029757849467366" lon="-3.175962294818985"><ele>1884.0</ele><time>2026-04-22T12:28:45.001Z</time></trkpt><trkpt lat="37.029834631452346" lon="-3.1759777513351404"><ele>1884.0</ele><time>2026-04-22T12:28:46.001Z</time></trkpt><trkpt lat="37.02991598628733" lon="-3.1759966610632695"><ele>1884.0</ele><time>2026-04-22T12:28:47.001Z</time></trkpt><trkpt lat="37.02999990686596" lon="-3.176018374985008"><ele>1884.0</ele><time>2026-04-22T12:28:48.001Z</time></trkpt><trkpt lat="37.03009596193981" lon="-3.1760417183109544"><ele>1884.0</ele><time>2026-04-22T12:28:49.001Z</time></trkpt><trkpt lat="37.030191159938916" lon="-3.176085028091999"><ele>1884.0</ele><time>2026-04-22T12:28:50.001Z</time></trkpt><trkpt lat="37.03028766431448" lon="-3.1761339729548688"><ele>1885.6</ele><time>2026-04-22T12:28:51.001Z</time></trkpt><trkpt lat="37.03038867985559" lon="-3.1761829809660216"><ele>1887.2</ele><time>2026-04-22T12:28:52.001Z</time></trkpt><trkpt lat="37.03049103381558" lon="-3.1762226955950488"><ele>1888.7999999999997</ele><time>2026-04-22T12:28:53.001Z</time></trkpt><trkpt lat="37.03060066384961" lon="-3.1762498675764417"><ele>1890.3999999999999</ele><time>2026-04-22T12:28:54.001Z</time></trkpt><trkpt lat="37.03070661597301" lon="-3.176279977753868"><ele>1892.0</ele><time>2026-04-22T12:28:55.001Z</time></trkpt><trkpt lat="37.030814187119894" lon="-3.176311790948029"><ele>1893.6666666666665</ele><time>2026-04-22T12:28:56.001Z</time></trkpt><trkpt lat="37.030903761325376" lon="-3.1763545161207403"><ele>1895.3333333333333</ele><time>2026-04-22T12:28:57.001Z</time></trkpt><trkpt lat="37.03098306635993" lon="-3.176381691351573"><ele>1897.0</ele><time>2026-04-22T12:28:58.001Z</time></trkpt><trkpt lat="37.03105378506739" lon="-3.1764343671277855"><ele>1898.6666666666665</ele><time>2026-04-22T12:28:59.001Z</time></trkpt><trkpt lat="37.031112188408805" lon="-3.1765149234039223"><ele>1900.3333333333333</ele><time>2026-04-22T12:29:00.001Z</time></trkpt><trkpt lat="37.03115063236851" lon="-3.1766150210269823"><ele>1902.0</ele><time>2026-04-22T12:29:01.001Z</time></trkpt><trkpt lat="37.031171365594545" lon="-3.176722749279939"><ele>1894.8</ele><time>2026-04-22T12:29:02.001Z</time></trkpt><trkpt lat="37.03120215569515" lon="-3.1768377039842877"><ele>1887.6</ele><time>2026-04-22T12:29:03.001Z</time></trkpt><trkpt lat="37.03125426360679" lon="-3.176961550168748"><ele>1880.3999999999999</ele><time>2026-04-22T12:29:04.001Z</time></trkpt><trkpt lat="37.03132237948455" lon="-3.1770717897487817"><ele>1873.1999999999998</ele><time>2026-04-22T12:29:05.001Z</time></trkpt><trkpt lat="37.031389291557126" lon="-3.1771788095908953"><ele>1866.0</ele><time>2026-04-22T12:29:06.001Z</time></trkpt><trkpt lat="37.03146237183373" lon="-3.1772668586375046"><ele>1866.0</ele><time>2026-04-22T12:29:07.001Z</time></trkpt><trkpt lat="37.03154108735557" lon="-3.1773488714988525"><ele>1866.0</ele><time>2026-04-22T12:29:08.001Z</time></trkpt><trkpt lat="37.031621777201394" lon="-3.1774421491443765"><ele>1866.0</ele><time>2026-04-22T12:29:09.001Z</time></trkpt><trkpt lat="37.031707779319504" lon="-3.1775420507645826"><ele>1866.0</ele><time>2026-04-22T12:29:10.001Z</time></trkpt><trkpt lat="37.031785470919864" lon="-3.1776347617605363"><ele>1866.0</ele><time>2026-04-22T12:29:11.001Z</time></trkpt><trkpt lat="37.031858482976574" lon="-3.1777222487285175"><ele>1866.0</ele><time>2026-04-22T12:29:12.001Z</time></trkpt><trkpt lat="37.03193683103924" lon="-3.1778130431334506"><ele>1866.0</ele><time>2026-04-22T12:29:13.001Z</time></trkpt><trkpt lat="37.03202174315616" lon="-3.177898865636608"><ele>1866.0</ele><time>2026-04-22T12:29:14.001Z</time></trkpt><trkpt lat="37.03210894237677" lon="-3.1779918432332184"><ele>1866.0</ele><time>2026-04-22T12:29:15.001Z</time></trkpt><trkpt lat="37.0321980082957" lon="-3.178089700715232"><ele>1866.0</ele><time>2026-04-22T12:29:16.001Z</time></trkpt><trkpt lat="37.032280303099" lon="-3.178193034386208"><ele>1866.0</ele><time>2026-04-22T12:29:17.001Z</time></trkpt><trkpt lat="37.03235168071244" lon="-3.178303484138364"><ele>1866.0</ele><time>2026-04-22T12:29:18.001Z</time></trkpt><trkpt lat="37.03241992387629" lon="-3.1784149206183505"><ele>1866.0</ele><time>2026-04-22T12:29:19.001Z</time></trkpt><trkpt lat="37.03249133740528" lon="-3.1785191284490213"><ele>1866.0</ele><time>2026-04-22T12:29:20.001Z</time></trkpt><trkpt lat="37.03257570107771" lon="-3.178619555786861"><ele>1866.0</ele><time>2026-04-22T12:29:21.001Z</time></trkpt><trkpt lat="37.032665179882855" lon="-3.178716252502978"><ele>1866.0</ele><time>2026-04-22T12:29:22.001Z</time></trkpt><trkpt lat="37.03275978205614" lon="-3.1788125428188843"><ele>1866.0</ele><time>2026-04-22T12:29:23.001Z</time></trkpt><trkpt lat="37.032861749853474" lon="-3.178908026287789"><ele>1866.0</ele><time>2026-04-22T12:29:24.001Z</time></trkpt><trkpt lat="37.0329585703855" lon="-3.178994530821154"><ele>1865.1999999999998</ele><time>2026-04-22T12:29:25.001Z</time></trkpt><trkpt lat="37.03305188176155" lon="-3.179074799360487"><ele>1864.3999999999999</ele><time>2026-04-22T12:29:26.001Z</time></trkpt><trkpt lat="37.033138024432944" lon="-3.1791466971603213"><ele>1863.6</ele><time>2026-04-22T12:29:27.001Z</time></trkpt><trkpt lat="37.03321960286709" lon="-3.179221199353603"><ele>1862.8</ele><time>2026-04-22T12:29:28.001Z</time></trkpt><trkpt lat="37.0333030418466" lon="-3.179295104289585"><ele>1862.0</ele><time>2026-04-22T12:29:29.001Z</time></trkpt><trkpt lat="37.03339458362782" lon="-3.1793663789499007"><ele>1862.0</ele><time>2026-04-22T12:29:30.001Z</time></trkpt><trkpt lat="37.033495816228665" lon="-3.1794241747345153"><ele>1862.0</ele><time>2026-04-22T12:29:31.001Z</time></trkpt><trkpt lat="37.033606476070155" lon="-3.1794694153928207"><ele>1862.0</ele><time>2026-04-22T12:29:32.001Z</time></trkpt><trkpt lat="37.03371183748775" lon="-3.179523873586338"><ele>1862.0</ele><time>2026-04-22T12:29:33.001Z</time></trkpt><trkpt lat="37.03381823055313" lon="-3.179580210174219"><ele>1862.0</ele><time>2026-04-22T12:29:34.001Z</time></trkpt><trkpt lat="37.03393185537284" lon="-3.1796204415476765"><ele>1862.0</ele><time>2026-04-22T12:29:35.001Z</time></trkpt><trkpt lat="37.03404529513737" lon="-3.1796420420522487"><ele>1862.0</ele><time>2026-04-22T12:29:36.001Z</time></trkpt><trkpt lat="37.03415555935713" lon="-3.1796516391502045"><ele>1862.0</ele><time>2026-04-22T12:29:37.001Z</time></trkpt><trkpt lat="37.03426567322675" lon="-3.1796601967842313"><ele>1863.6</ele><time>2026-04-22T12:29:38.001Z</time></trkpt><trkpt lat="37.034364644658034" lon="-3.1796822590762788"><ele>1865.1999999999998</ele><time>2026-04-22T12:29:39.001Z</time></trkpt><trkpt lat="37.03445935870611" lon="-3.1797048828166017"><ele>1866.8</ele><time>2026-04-22T12:29:40.001Z</time></trkpt><trkpt lat="37.03455619734043" lon="-3.1797220086311735"><ele>1868.4</ele><time>2026-04-22T12:29:41.001Z</time></trkpt><trkpt lat="37.03465560973987" lon="-3.1797427057257686"><ele>1870.0</ele><time>2026-04-22T12:29:42.001Z</time></trkpt><trkpt lat="37.034762830550925" lon="-3.179756340746746"><ele>1870.0</ele><time>2026-04-22T12:29:43.001Z</time></trkpt><trkpt lat="37.03486781996192" lon="-3.1797671479003053"><ele>1870.0</ele><time>2026-04-22T12:29:44.001Z</time></trkpt><trkpt lat="37.034955897519566" lon="-3.1797714281060445"><ele>1870.0</ele><time>2026-04-22T12:29:45.001Z</time></trkpt><trkpt lat="37.03504036091471" lon="-3.1797557950930093"><ele>1870.0</ele><time>2026-04-22T12:29:46.001Z</time></trkpt><trkpt lat="37.035129264724006" lon="-3.179718597650448"><ele>1870.0</ele><time>2026-04-22T12:29:47Z</time></trkpt><trkpt lat="37.03521413624898" lon="-3.1796598272585466"><ele>1870.0</ele><time>2026-04-22T12:29:48Z</time></trkpt><trkpt lat="37.035306008683214" lon="-3.1796141715124766"><ele>1870.0</ele><time>2026-04-22T12:29:49Z</time></trkpt><trkpt lat="37.03539980249295" lon="-3.179603633299959"><ele>1870.0</ele><time>2026-04-22T12:29:50Z</time></trkpt><trkpt lat="37.035499807562964" lon="-3.179621465401064"><ele>1870.0</ele><time>2026-04-22T12:29:51Z</time></trkpt><trkpt lat="37.035605197587344" lon="-3.179679545248895"><ele>1870.0</ele><time>2026-04-22T12:29:52Z</time></trkpt><trkpt lat="37.0356891517132" lon="-3.1796932847600505"><ele>1870.0</ele><time>2026-04-22T12:29:53Z</time></trkpt><trkpt lat="37.03577105429767" lon="-3.179695117132525"><ele>1870.0</ele><time>2026-04-22T12:29:54Z</time></trkpt><trkpt lat="37.0358417622366" lon="-3.179708046768819"><ele>1870.0</ele><time>2026-04-22T12:29:55Z</time></trkpt><trkpt lat="37.03594043845953" lon="-3.179788576511613"><ele>1870.0</ele><time>2026-04-22T12:29:57Z</time></trkpt><trkpt lat="37.03595684580695" lon="-3.1799326023659646"><ele>1870.0</ele><time>2026-04-22T12:29:59Z</time></trkpt><trkpt lat="37.035929598889915" lon="-3.180020156507833"><ele>1865.1666666666667</ele><time>2026-04-22T12:30:00Z</time></trkpt><trkpt lat="37.035894971926794" lon="-3.1801022916916777"><ele>1860.3333333333335</ele><time>2026-04-22T12:30:01Z</time></trkpt><trkpt lat="37.0358689463971" lon="-3.1801813167652435"><ele>1855.5</ele><time>2026-04-22T12:30:02Z</time></trkpt><trkpt lat="37.03585700831251" lon="-3.180271421984891"><ele>1850.6666666666665</ele><time>2026-04-22T12:30:03Z</time></trkpt><trkpt lat="37.03585425641553" lon="-3.1803696598823943"><ele>1845.8333333333333</ele><time>2026-04-22T12:30:04Z</time></trkpt><trkpt lat="37.0358482254786" lon="-3.180483346756002"><ele>1841.0</ele><time>2026-04-22T12:30:05Z</time></trkpt><trkpt lat="37.03584695968011" lon="-3.1806076072698537"><ele>1837.6</ele><time>2026-04-22T12:30:06Z</time></trkpt><trkpt lat="37.03584733264362" lon="-3.1807431111562146"><ele>1834.1999999999998</ele><time>2026-04-22T12:30:07Z</time></trkpt><trkpt lat="37.03584621298452" lon="-3.1808730426053486"><ele>1830.8000000000002</ele><time>2026-04-22T12:30:08Z</time></trkpt><trkpt lat="37.035845902242016" lon="-3.180991174411858"><ele>1827.4</ele><time>2026-04-22T12:30:09Z</time></trkpt><trkpt lat="37.035847150775474" lon="-3.181090306928861"><ele>1824.0</ele><time>2026-04-22T12:30:10Z</time></trkpt><trkpt lat="37.03586744168992" lon="-3.1811879896923516"><ele>1824.0</ele><time>2026-04-22T12:30:11Z</time></trkpt><trkpt lat="37.035906054080584" lon="-3.181280121076349"><ele>1824.0</ele><time>2026-04-22T12:30:12Z</time></trkpt><trkpt lat="37.03596491595962" lon="-3.1813669160780385"><ele>1824.0</ele><time>2026-04-22T12:30:13Z</time></trkpt><trkpt lat="37.03602890165602" lon="-3.1814414975434957"><ele>1824.0</ele><time>2026-04-22T12:30:14Z</time></trkpt><trkpt lat="37.03610963873535" lon="-3.1815021126698486"><ele>1824.0</ele><time>2026-04-22T12:30:15Z</time></trkpt><trkpt lat="37.03621141078965" lon="-3.18156176298301"><ele>1819.5</ele><time>2026-04-22T12:30:16Z</time></trkpt><trkpt lat="37.03632126326394" lon="-3.181621513953223"><ele>1815.0</ele><time>2026-04-22T12:30:17Z</time></trkpt><trkpt lat="37.03643451847573" lon="-3.1816796623916"><ele>1810.5</ele><time>2026-04-22T12:30:18Z</time></trkpt><trkpt lat="37.036536503471766" lon="-3.1817384907124726"><ele>1806.0</ele><time>2026-04-22T12:30:19Z</time></trkpt><trkpt lat="37.03663290014939" lon="-3.1817959553385786"><ele>1812.0</ele><time>2026-04-22T12:30:20Z</time></trkpt><trkpt lat="37.036721263289344" lon="-3.1818617484236253"><ele>1818.0</ele><time>2026-04-22T12:30:21Z</time></trkpt><trkpt lat="37.036810780551136" lon="-3.18192693332024"><ele>1824.0</ele><time>2026-04-22T12:30:22Z</time></trkpt><trkpt lat="37.036894345482956" lon="-3.181991702856654"><ele>1830.0</ele><time>2026-04-22T12:30:23Z</time></trkpt><trkpt lat="37.03698047051041" lon="-3.1820449901560015"><ele>1836.0</ele><time>2026-04-22T12:30:24Z</time></trkpt><trkpt lat="37.03706901613684" lon="-3.1821037092656352"><ele>1836.0</ele><time>2026-04-22T12:30:25Z</time></trkpt><trkpt lat="37.03715049247793" lon="-3.1821621904046395"><ele>1836.0</ele><time>2026-04-22T12:30:26Z</time></trkpt><trkpt lat="37.03722991530721" lon="-3.18221745033336"><ele>1836.0</ele><time>2026-04-22T12:30:27Z</time></trkpt><trkpt lat="37.03730395580232" lon="-3.1822722158749723"><ele>1836.0</ele><time>2026-04-22T12:30:28Z</time></trkpt><trkpt lat="37.03738334943277" lon="-3.18230028256772"><ele>1836.0</ele><time>2026-04-22T12:30:29Z</time></trkpt><trkpt lat="37.037468064340665" lon="-3.1822877446353095"><ele>1836.0</ele><time>2026-04-22T12:30:30Z</time></trkpt><trkpt lat="37.03754483139037" lon="-3.1822658399626964"><ele>1836.5</ele><time>2026-04-22T12:30:31Z</time></trkpt><trkpt lat="37.037614713036824" lon="-3.182225594634553"><ele>1837.0</ele><time>2026-04-22T12:30:32Z</time></trkpt><trkpt lat="37.03768696638634" lon="-3.1821548845186625"><ele>1837.5</ele><time>2026-04-22T12:30:33Z</time></trkpt><trkpt lat="37.03774929566529" lon="-3.1820770888558667"><ele>1838.0</ele><time>2026-04-22T12:30:34Z</time></trkpt><trkpt lat="37.037819003928256" lon="-3.1820024977616495"><ele>1838.5</ele><time>2026-04-22T12:30:35Z</time></trkpt><trkpt lat="37.037871735614644" lon="-3.1819347208897977"><ele>1839.0</ele><time>2026-04-22T12:30:36Z</time></trkpt><trkpt lat="37.03795690395178" lon="-3.181838056112855"><ele>1839.0</ele><time>2026-04-22T12:30:38Z</time></trkpt><trkpt lat="37.038037518854985" lon="-3.1818755102579477"><ele>1839.0</ele><time>2026-04-22T12:30:40Z</time></trkpt><trkpt lat="37.03807746344874" lon="-3.1819390562096923"><ele>1839.0</ele><time>2026-04-22T12:30:41Z</time></trkpt><trkpt lat="37.03810946019963" lon="-3.1820258606258305"><ele>1839.0</ele><time>2026-04-22T12:30:42Z</time></trkpt><trkpt lat="37.038124592762436" lon="-3.1821133919171043"><ele>1839.0</ele><time>2026-04-22T12:30:43Z</time></trkpt><trkpt lat="37.03812676023083" lon="-3.182204159567844"><ele>1839.0</ele><time>2026-04-22T12:30:44Z</time></trkpt><trkpt lat="37.038138467280554" lon="-3.182285053339649"><ele>1839.0</ele><time>2026-04-22T12:30:45Z</time></trkpt><trkpt lat="37.038165629523" lon="-3.1823745451261196"><ele>1835.1666666666667</ele><time>2026-04-22T12:30:46Z</time></trkpt><trkpt lat="37.038207622967604" lon="-3.182463158583751"><ele>1831.3333333333335</ele><time>2026-04-22T12:30:47Z</time></trkpt><trkpt lat="37.03825984223767" lon="-3.182549631205176"><ele>1827.5</ele><time>2026-04-22T12:30:48Z</time></trkpt><trkpt lat="37.03830577039429" lon="-3.1826303265101643"><ele>1823.6666666666667</ele><time>2026-04-22T12:30:49Z</time></trkpt><trkpt lat="37.03837500465738" lon="-3.1827026103155753"><ele>1819.8333333333335</ele><time>2026-04-22T12:30:50Z</time></trkpt><trkpt lat="37.038466080594716" lon="-3.182762502896869"><ele>1816.0</ele><time>2026-04-22T12:30:51Z</time></trkpt><trkpt lat="37.03855549898479" lon="-3.1828066484055366"><ele>1816.0</ele><time>2026-04-22T12:30:52Z</time></trkpt><trkpt lat="37.038653027306474" lon="-3.1828636516062763"><ele>1816.0</ele><time>2026-04-22T12:30:53Z</time></trkpt><trkpt lat="37.03874465526992" lon="-3.1829340671748856"><ele>1816.0</ele><time>2026-04-22T12:30:54Z</time></trkpt><trkpt lat="37.03883000719983" lon="-3.183005678586696"><ele>1816.0</ele><time>2026-04-22T12:30:55Z</time></trkpt><trkpt lat="37.038909955571654" lon="-3.1830749127592197"><ele>1816.0</ele><time>2026-04-22T12:30:56Z</time></trkpt><trkpt lat="37.03900239134736" lon="-3.1831296795890625"><ele>1816.0</ele><time>2026-04-22T12:30:57Z</time></trkpt><trkpt lat="37.03909418279972" lon="-3.1831727128974427"><ele>1816.0</ele><time>2026-04-22T12:30:58Z</time></trkpt><trkpt lat="37.03919213991163" lon="-3.183214636630069"><ele>1816.0</ele><time>2026-04-22T12:30:59Z</time></trkpt><trkpt lat="37.0392981214707" lon="-3.183246941328158"><ele>1816.0</ele><time>2026-04-22T12:31:00Z</time></trkpt><trkpt lat="37.03939651913891" lon="-3.1832907313203465"><ele>1816.0</ele><time>2026-04-22T12:31:01Z</time></trkpt><trkpt lat="37.03950357618618" lon="-3.1833226754799053"><ele>1816.4</ele><time>2026-04-22T12:31:02Z</time></trkpt><trkpt lat="37.039610017996225" lon="-3.1833333649157622"><ele>1816.8</ele><time>2026-04-22T12:31:03Z</time></trkpt><trkpt lat="37.039717467006554" lon="-3.1833307545093903"><ele>1817.2000000000003</ele><time>2026-04-22T12:31:04Z</time></trkpt><trkpt lat="37.039822516240534" lon="-3.183352621232554"><ele>1817.6000000000001</ele><time>2026-04-22T12:31:05Z</time></trkpt><trkpt lat="37.03991892024617" lon="-3.183401071729672"><ele>1818.0</ele><time>2026-04-22T12:31:06Z</time></trkpt><trkpt lat="37.04000100337115" lon="-3.183481295701083"><ele>1818.0</ele><time>2026-04-22T12:31:07Z</time></trkpt><trkpt lat="37.04008231504446" lon="-3.183559874709075"><ele>1818.0000000000002</ele><time>2026-04-22T12:31:08Z</time></trkpt><trkpt lat="37.04017453908374" lon="-3.1836260639239136"><ele>1818.0000000000002</ele><time>2026-04-22T12:31:09Z</time></trkpt><trkpt lat="37.040270339336885" lon="-3.1836946989243025"><ele>1818.0</ele><time>2026-04-22T12:31:10Z</time></trkpt><trkpt lat="37.04036403223664" lon="-3.1837692973431992"><ele>1818.0</ele><time>2026-04-22T12:31:11Z</time></trkpt><trkpt lat="37.04045622512103" lon="-3.183832179489398"><ele>1818.0</ele><time>2026-04-22T12:31:12Z</time></trkpt><trkpt lat="37.040550454607526" lon="-3.1838979030484214"><ele>1818.0000000000002</ele><time>2026-04-22T12:31:13Z</time></trkpt><trkpt lat="37.04065603602318" lon="-3.183947516051146"><ele>1818.0000000000002</ele><time>2026-04-22T12:31:14Z</time></trkpt><trkpt lat="37.040764657292335" lon="-3.183990442166963"><ele>1818.0</ele><time>2026-04-22T12:31:15Z</time></trkpt><trkpt lat="37.04086925935923" lon="-3.1840315373054473"><ele>1818.0</ele><time>2026-04-22T12:31:16Z</time></trkpt><trkpt lat="37.040954820525066" lon="-3.1840956237396036"><ele>1815.0</ele><time>2026-04-22T12:31:17Z</time></trkpt><trkpt lat="37.04102376900178" lon="-3.184167852749124"><ele>1812.0</ele><time>2026-04-22T12:31:18Z</time></trkpt><trkpt lat="37.04108725268562" lon="-3.184235501757852"><ele>1809.0</ele><time>2026-04-22T12:31:19Z</time></trkpt><trkpt lat="37.04116041003119" lon="-3.184302025881774"><ele>1806.0</ele><time>2026-04-22T12:31:20Z</time></trkpt><trkpt lat="37.04123097140477" lon="-3.184355419006809"><ele>1803.0</ele><time>2026-04-22T12:31:21Z</time></trkpt><trkpt lat="37.041316719975704" lon="-3.1844027475131926"><ele>1800.0</ele><time>2026-04-22T12:31:22Z</time></trkpt><trkpt lat="37.04139903664583" lon="-3.184452606208543"><ele>1800.0</ele><time>2026-04-22T12:31:23Z</time></trkpt><trkpt lat="37.04148520437894" lon="-3.1844893634487503"><ele>1800.0</ele><time>2026-04-22T12:31:24Z</time></trkpt><trkpt lat="37.041571650928795" lon="-3.1845321702035148"><ele>1800.0</ele><time>2026-04-22T12:31:25Z</time></trkpt><trkpt lat="37.04164693044122" lon="-3.184604040967848"><ele>1800.0</ele><time>2026-04-22T12:31:26Z</time></trkpt><trkpt lat="37.04172133624226" lon="-3.18469337136842"><ele>1800.0</ele><time>2026-04-22T12:31:27Z</time></trkpt><trkpt lat="37.04179958069246" lon="-3.184784299597218"><ele>1796.8</ele><time>2026-04-22T12:31:28Z</time></trkpt><trkpt lat="37.04188693805916" lon="-3.1848599007046916"><ele>1793.6</ele><time>2026-04-22T12:31:29Z</time></trkpt><trkpt lat="37.04198008787643" lon="-3.1849272564352713"><ele>1790.4</ele><time>2026-04-22T12:31:30Z</time></trkpt><trkpt lat="37.04206580698239" lon="-3.1850040201907066"><ele>1787.2</ele><time>2026-04-22T12:31:31Z</time></trkpt><trkpt lat="37.042144048920655" lon="-3.185088902297229"><ele>1784.0</ele><time>2026-04-22T12:31:32Z</time></trkpt><trkpt lat="37.0422323261935" lon="-3.185143586415381"><ele>1784.0</ele><time>2026-04-22T12:31:33.001Z</time></trkpt><trkpt lat="37.042340306390905" lon="-3.185180308520316"><ele>1784.0</ele><time>2026-04-22T12:31:34.001Z</time></trkpt><trkpt lat="37.042442731629144" lon="-3.185208602527976"><ele>1784.0</ele><time>2026-04-22T12:31:35.001Z</time></trkpt><trkpt lat="37.042526574397456" lon="-3.1852288347560753"><ele>1784.0</ele><time>2026-04-22T12:31:36.001Z</time></trkpt><trkpt lat="37.042611395233436" lon="-3.185229504248975"><ele>1784.0</ele><time>2026-04-22T12:31:37.001Z</time></trkpt><trkpt lat="37.04270325066512" lon="-3.185195992912021"><ele>1790.0</ele><time>2026-04-22T12:31:38.001Z</time></trkpt><trkpt lat="37.0427994428466" lon="-3.1851294654596916"><ele>1796.0</ele><time>2026-04-22T12:31:39.001Z</time></trkpt><trkpt lat="37.04289930868098" lon="-3.185054552898518"><ele>1802.0</ele><time>2026-04-22T12:31:40.001Z</time></trkpt><trkpt lat="37.043005828115184" lon="-3.184988344488691"><ele>1808.0</ele><time>2026-04-22T12:31:41.001Z</time></trkpt><trkpt lat="37.04311576754283" lon="-3.1849283277621034"><ele>1808.0</ele><time>2026-04-22T12:31:42Z</time></trkpt><trkpt lat="37.043217282618684" lon="-3.1848784745896723"><ele>1808.0000000000002</ele><time>2026-04-22T12:31:43Z</time></trkpt><trkpt lat="37.0433099737583" lon="-3.1848451662722526"><ele>1808.0000000000002</ele><time>2026-04-22T12:31:44Z</time></trkpt><trkpt lat="37.04340778728205" lon="-3.1847996545462323"><ele>1808.0</ele><time>2026-04-22T12:31:45Z</time></trkpt><trkpt lat="37.04348237402327" lon="-3.1847482584742743"><ele>1808.0</ele><time>2026-04-22T12:31:46Z</time></trkpt><trkpt lat="37.043585327054515" lon="-3.184734236855709"><ele>1806.4999999999998</ele><time>2026-04-22T12:31:47Z</time></trkpt><trkpt lat="37.0436872100496" lon="-3.184740728555264"><ele>1805.0</ele><time>2026-04-22T12:31:48Z</time></trkpt><trkpt lat="37.043786633670855" lon="-3.1847595005384233"><ele>1803.5</ele><time>2026-04-22T12:31:49Z</time></trkpt><trkpt lat="37.04387304606968" lon="-3.1847701046216725"><ele>1802.0</ele><time>2026-04-22T12:31:50Z</time></trkpt><trkpt lat="37.043943969835425" lon="-3.1847837397862917"><ele>1800.4999999999998</ele><time>2026-04-22T12:31:51Z</time></trkpt><trkpt lat="37.044009885941385" lon="-3.1847738838337487"><ele>1799.0</ele><time>2026-04-22T12:31:52Z</time></trkpt><trkpt lat="37.04409015420081" lon="-3.184883538342103"><ele>1798.9999999999998</ele><time>2026-04-22T12:31:54Z</time></trkpt><trkpt lat="37.04410194884725" lon="-3.1849753511232812"><ele>1799.0</ele><time>2026-04-22T12:31:55Z</time></trkpt><trkpt lat="37.04408055519822" lon="-3.18506777024966"><ele>1799.0</ele><time>2026-04-22T12:31:56Z</time></trkpt><trkpt lat="37.04403644738075" lon="-3.185135901777696"><ele>1799.0</ele><time>2026-04-22T12:31:57Z</time></trkpt><trkpt lat="37.04398471750995" lon="-3.185188093678056"><ele>1798.9999999999998</ele><time>2026-04-22T12:31:58Z</time></trkpt><trkpt lat="37.043930690522046" lon="-3.1852338412662355"><ele>1799.0</ele><time>2026-04-22T12:31:59Z</time></trkpt><trkpt lat="37.04384481669483" lon="-3.1853279602672027"><ele>1799.0</ele><time>2026-04-22T12:32:01Z</time></trkpt><trkpt lat="37.04378234731913" lon="-3.185444632379796"><ele>1799.0</ele><time>2026-04-22T12:32:03Z</time></trkpt><trkpt lat="37.04372828115854" lon="-3.1855780422565854"><ele>1799.0</ele><time>2026-04-22T12:32:05Z</time></trkpt><trkpt lat="37.04369303320812" lon="-3.1857199935451264"><ele>1799.0</ele><time>2026-04-22T12:32:07Z</time></trkpt><trkpt lat="37.04365561529702" lon="-3.1858650021829864"><ele>1797.4999999999998</ele><time>2026-04-22T12:32:09Z</time></trkpt><trkpt lat="37.04361646324527" lon="-3.186017000643075"><ele>1796.0</ele><time>2026-04-22T12:32:11Z</time></trkpt><trkpt lat="37.04359750077912" lon="-3.1860934812306314"><ele>1794.5</ele><time>2026-04-22T12:32:12Z</time></trkpt><trkpt lat="37.043575776914906" lon="-3.186170405604587"><ele>1793.0</ele><time>2026-04-22T12:32:13Z</time></trkpt><trkpt lat="37.043551219430036" lon="-3.1862503180575983"><ele>1791.4999999999998</ele><time>2026-04-22T12:32:14Z</time></trkpt><trkpt lat="37.043522070528695" lon="-3.1863301885887494"><ele>1790.0</ele><time>2026-04-22T12:32:15Z</time></trkpt><trkpt lat="37.04349760086671" lon="-3.186403304938489"><ele>1789.9999999999998</ele><time>2026-04-22T12:32:16Z</time></trkpt><trkpt lat="37.043470907910184" lon="-3.1864755179666697"><ele>1790.0</ele><time>2026-04-22T12:32:17Z</time></trkpt><trkpt lat="37.04344213539094" lon="-3.1865505705873236"><ele>1790.0</ele><time>2026-04-22T12:32:18Z</time></trkpt><trkpt lat="37.043408778048935" lon="-3.186618198524626"><ele>1790.0</ele><time>2026-04-22T12:32:19Z</time></trkpt><trkpt lat="37.04332834280888" lon="-3.1867209432226318"><ele>1789.9999999999998</ele><time>2026-04-22T12:32:21Z</time></trkpt><trkpt lat="37.04322408287421" lon="-3.186776495248508"><ele>1790.0</ele><time>2026-04-22T12:32:23Z</time></trkpt><trkpt lat="37.04310231536952" lon="-3.1868029941149083"><ele>1790.25</ele><time>2026-04-22T12:32:25Z</time></trkpt><trkpt lat="37.04299130573002" lon="-3.1868589304287283"><ele>1790.5</ele><time>2026-04-22T12:32:27Z</time></trkpt><trkpt lat="37.042895483765314" lon="-3.1869353466472723"><ele>1790.75</ele><time>2026-04-22T12:32:29Z</time></trkpt><trkpt lat="37.0428006160279" lon="-3.187004292248737"><ele>1791.0</ele><time>2026-04-22T12:32:31Z</time></trkpt><trkpt lat="37.042692234184905" lon="-3.1871031943194894"><ele>1791.0</ele><time>2026-04-22T12:32:33Z</time></trkpt><trkpt lat="37.04261305302559" lon="-3.1871505124943016"><ele>1791.0</ele><time>2026-04-22T12:32:34Z</time></trkpt><trkpt lat="37.04252393540224" lon="-3.1872038221343275"><ele>1791.0</ele><time>2026-04-22T12:32:35Z</time></trkpt><trkpt lat="37.04243883655974" lon="-3.1872709034911755"><ele>1791.0</ele><time>2026-04-22T12:32:36Z</time></trkpt><trkpt lat="37.042346962439055" lon="-3.1873449216607757"><ele>1791.0</ele><time>2026-04-22T12:32:37Z</time></trkpt><trkpt lat="37.0422549361006" lon="-3.1873899420783487"><ele>1791.4</ele><time>2026-04-22T12:32:38Z</time></trkpt><trkpt lat="37.04215738350618" lon="-3.1873830717226563"><ele>1791.8</ele><time>2026-04-22T12:32:39Z</time></trkpt><trkpt lat="37.042054121607265" lon="-3.187349596263649"><ele>1792.2000000000003</ele><time>2026-04-22T12:32:40Z</time></trkpt><trkpt lat="37.04195511824237" lon="-3.187300583012675"><ele>1792.6000000000001</ele><time>2026-04-22T12:32:41Z</time></trkpt><trkpt lat="37.04185289952685" lon="-3.1872914161246593"><ele>1793.0</ele><time>2026-04-22T12:32:42Z</time></trkpt><trkpt lat="37.04174542300062" lon="-3.1873005897438267"><ele>1793.0</ele><time>2026-04-22T12:32:43Z</time></trkpt><trkpt lat="37.041638705909314" lon="-3.1873190677232954"><ele>1793.0000000000002</ele><time>2026-04-22T12:32:44Z</time></trkpt><trkpt lat="37.04152669286894" lon="-3.1873317236914684"><ele>1793.0000000000002</ele><time>2026-04-22T12:32:45Z</time></trkpt><trkpt lat="37.041416075593936" lon="-3.1873481935959305"><ele>1793.0</ele><time>2026-04-22T12:32:46Z</time></trkpt><trkpt lat="37.041307129257824" lon="-3.1873683575737215"><ele>1793.0</ele><time>2026-04-22T12:32:47Z</time></trkpt><trkpt lat="37.04119614879176" lon="-3.187384952807401"><ele>1801.0</ele><time>2026-04-22T12:32:48Z</time></trkpt><trkpt lat="37.041083021561754" lon="-3.1874128707171088"><ele>1809.0</ele><time>2026-04-22T12:32:49Z</time></trkpt><trkpt lat="37.04097345207167" lon="-3.1874462297195074"><ele>1817.0</ele><time>2026-04-22T12:32:50Z</time></trkpt><trkpt lat="37.0408624626457" lon="-3.1874920969751814"><ele>1825.0</ele><time>2026-04-22T12:32:51Z</time></trkpt><trkpt lat="37.04075572124992" lon="-3.1875390293468553"><ele>1825.0</ele><time>2026-04-22T12:32:52Z</time></trkpt><trkpt lat="37.0406493124455" lon="-3.1875828004418514"><ele>1825.0</ele><time>2026-04-22T12:32:53Z</time></trkpt><trkpt lat="37.04054019014704" lon="-3.1876331228345225"><ele>1825.0</ele><time>2026-04-22T12:32:54Z</time></trkpt><trkpt lat="37.04043363026244" lon="-3.187678260195651"><ele>1825.0</ele><time>2026-04-22T12:32:55Z</time></trkpt><trkpt lat="37.040323229298636" lon="-3.1877251372453905"><ele>1825.0</ele><time>2026-04-22T12:32:56Z</time></trkpt><trkpt lat="37.04021726136281" lon="-3.187762007933553"><ele>1825.0</ele><time>2026-04-22T12:32:57Z</time></trkpt><trkpt lat="37.0401018076843" lon="-3.187774907714954"><ele>1825.0</ele><time>2026-04-22T12:32:58Z</time></trkpt><trkpt lat="37.039997092289994" lon="-3.187796027727533"><ele>1825.0</ele><time>2026-04-22T12:32:59Z</time></trkpt><trkpt lat="37.03991258634227" lon="-3.1878147502603333"><ele>1825.0</ele><time>2026-04-22T12:33:00Z</time></trkpt><trkpt lat="37.039850148783344" lon="-3.1878603513918526"><ele>1827.4</ele><time>2026-04-22T12:33:01Z</time></trkpt><trkpt lat="37.03979610843616" lon="-3.1879435925645394"><ele>1829.8</ele><time>2026-04-22T12:33:02Z</time></trkpt><trkpt lat="37.03973543534332" lon="-3.1880346019187225"><ele>1832.1999999999998</ele><time>2026-04-22T12:33:03Z</time></trkpt><trkpt lat="37.03969050148571" lon="-3.1881703116535003"><ele>1834.6</ele><time>2026-04-22T12:33:04Z</time></trkpt><trkpt lat="37.039635384883724" lon="-3.1882946062706843"><ele>1837.0</ele><time>2026-04-22T12:33:05Z</time></trkpt><trkpt lat="37.039562814149185" lon="-3.188404653263669"><ele>1837.0</ele><time>2026-04-22T12:33:06Z</time></trkpt><trkpt lat="37.03947641716422" lon="-3.1884964427136833"><ele>1836.9999999999998</ele><time>2026-04-22T12:33:07Z</time></trkpt><trkpt lat="37.03938327714364" lon="-3.1885562470628552"><ele>1836.9999999999998</ele><time>2026-04-22T12:33:08Z</time></trkpt><trkpt lat="37.039283398430285" lon="-3.188590399486221"><ele>1837.0</ele><time>2026-04-22T12:33:09Z</time></trkpt><trkpt lat="37.039177700065395" lon="-3.1886090870215633"><ele>1837.0</ele><time>2026-04-22T12:33:10Z</time></trkpt><trkpt lat="37.03905917029486" lon="-3.188601592214393"><ele>1835.0</ele><time>2026-04-22T12:33:11Z</time></trkpt><trkpt lat="37.03893704109833" lon="-3.188581409382997"><ele>1833.0</ele><time>2026-04-22T12:33:12Z</time></trkpt><trkpt lat="37.03881503367931" lon="-3.1886036697859392"><ele>1831.0</ele><time>2026-04-22T12:33:13Z</time></trkpt><trkpt lat="37.03869431408307" lon="-3.1886655923544365"><ele>1829.0</ele><time>2026-04-22T12:33:14Z</time></trkpt><trkpt lat="37.038568564918705" lon="-3.188731034828715"><ele>1829.0</ele><time>2026-04-22T12:33:15Z</time></trkpt><trkpt lat="37.03844397746531" lon="-3.188798515163704"><ele>1829.0</ele><time>2026-04-22T12:33:16Z</time></trkpt><trkpt lat="37.03832572261246" lon="-3.188878187242082"><ele>1829.0</ele><time>2026-04-22T12:33:17Z</time></trkpt><trkpt lat="37.03821031802226" lon="-3.1889657400117306"><ele>1829.0</ele><time>2026-04-22T12:33:18Z</time></trkpt><trkpt lat="37.03809102372798" lon="-3.189050732459399"><ele>1835.25</ele><time>2026-04-22T12:33:19Z</time></trkpt><trkpt lat="37.037965325677845" lon="-3.189122029234988"><ele>1841.5</ele><time>2026-04-22T12:33:20Z</time></trkpt><trkpt lat="37.03784014238419" lon="-3.1891796968967467"><ele>1847.75</ele><time>2026-04-22T12:33:21Z</time></trkpt><trkpt lat="37.03771596487369" lon="-3.1892347081189856"><ele>1854.0</ele><time>2026-04-22T12:33:22Z</time></trkpt><trkpt lat="37.037598077401164" lon="-3.189290810913301"><ele>1854.0</ele><time>2026-04-22T12:33:23Z</time></trkpt><trkpt lat="37.03747145832664" lon="-3.1893439289645205"><ele>1854.0</ele><time>2026-04-22T12:33:24Z</time></trkpt><trkpt lat="37.037338739529744" lon="-3.1893851876573747"><ele>1854.0</ele><time>2026-04-22T12:33:25Z</time></trkpt><trkpt lat="37.03720734989359" lon="-3.1894378765514158"><ele>1854.0</ele><time>2026-04-22T12:33:26Z</time></trkpt><trkpt lat="37.037079110715524" lon="-3.1895115689970974"><ele>1852.75</ele><time>2026-04-22T12:33:27Z</time></trkpt><trkpt lat="37.03694942235739" lon="-3.189585420687774"><ele>1851.5</ele><time>2026-04-22T12:33:28Z</time></trkpt><trkpt lat="37.0368061440207" lon="-3.1896504733897197"><ele>1850.25</ele><time>2026-04-22T12:33:29Z</time></trkpt><trkpt lat="37.036663841305625" lon="-3.189690265827903"><ele>1849.0</ele><time>2026-04-22T12:33:30Z</time></trkpt><trkpt lat="37.036525994451885" lon="-3.189726433838124"><ele>1848.0</ele><time>2026-04-22T12:33:31Z</time></trkpt><trkpt lat="37.03639614032968" lon="-3.189774143557516"><ele>1847.0</ele><time>2026-04-22T12:33:32Z</time></trkpt><trkpt lat="37.03625931605424" lon="-3.189820938231314"><ele>1846.0</ele><time>2026-04-22T12:33:33Z</time></trkpt><trkpt lat="37.036124673126096" lon="-3.189870372452018"><ele>1845.0</ele><time>2026-04-22T12:33:34Z</time></trkpt><trkpt lat="37.035992829342604" lon="-3.1899246269547668"><ele>1848.5</ele><time>2026-04-22T12:33:35Z</time></trkpt><trkpt lat="37.03587425926812" lon="-3.1899791200812535"><ele>1852.0</ele><time>2026-04-22T12:33:36Z</time></trkpt><trkpt lat="37.035783998076845" lon="-3.1900308258128476"><ele>1855.5</ele><time>2026-04-22T12:33:37Z</time></trkpt><trkpt lat="37.035714951626595" lon="-3.190083958340446"><ele>1859.0</ele><time>2026-04-22T12:33:38Z</time></trkpt><trkpt lat="37.035645836404804" lon="-3.190122407858086"><ele>1862.5</ele><time>2026-04-22T12:33:39Z</time></trkpt><trkpt lat="37.035589533164845" lon="-3.1901632244790163"><ele>1866.0</ele><time>2026-04-22T12:33:40Z</time></trkpt><trkpt lat="37.035532917936386" lon="-3.1902098412571673"><ele>1866.0</ele><time>2026-04-22T12:33:41Z</time></trkpt><trkpt lat="37.035450171546636" lon="-3.1902748553627682"><ele>1866.0</ele><time>2026-04-22T12:33:43Z</time></trkpt><trkpt lat="37.03537925194582" lon="-3.1903221805561435"><ele>1866.0</ele><time>2026-04-22T12:33:45Z</time></trkpt><trkpt lat="37.035317087784705" lon="-3.190366971665703"><ele>1866.0</ele><time>2026-04-22T12:33:48Z</time></trkpt><trkpt lat="37.03524571929408" lon="-3.190413693832149"><ele>1866.0</ele><time>2026-04-22T12:33:50Z</time></trkpt><trkpt lat="37.035151050577646" lon="-3.1904466927383335"><ele>1866.0</ele><time>2026-04-22T12:33:52Z</time></trkpt><trkpt lat="37.035057339998815" lon="-3.1904791223006685"><ele>1866.0</ele><time>2026-04-22T12:33:54Z</time></trkpt><trkpt lat="37.034975183713364" lon="-3.1905172609520416"><ele>1865.9999999999998</ele><time>2026-04-22T12:33:56Z</time></trkpt><trkpt lat="37.03490292375758" lon="-3.1905502045099134"><ele>1866.0</ele><time>2026-04-22T12:33:58Z</time></trkpt><trkpt lat="37.03483352482201" lon="-3.190572785714238"><ele>1866.0</ele><time>2026-04-22T12:34:00Z</time></trkpt><trkpt lat="37.03476275214432" lon="-3.1906059354627767"><ele>1865.9999999999998</ele><time>2026-04-22T12:34:02Z</time></trkpt><trkpt lat="37.034695606539906" lon="-3.1906396362516465"><ele>1866.0</ele><time>2026-04-22T12:34:04Z</time></trkpt><trkpt lat="37.0346363631816" lon="-3.19066762984737"><ele>1866.0</ele><time>2026-04-22T12:34:06Z</time></trkpt><trkpt lat="37.03457965272746" lon="-3.1907200266720404"><ele>1867.8333333333333</ele><time>2026-04-22T12:34:28Z</time></trkpt><trkpt lat="37.03452423849233" lon="-3.1907660139696805"><ele>1869.6666666666665</ele><time>2026-04-22T12:34:29Z</time></trkpt><trkpt lat="37.03447099972472" lon="-3.1908158635194965"><ele>1871.5</ele><time>2026-04-22T12:34:30Z</time></trkpt><trkpt lat="37.03441120218547" lon="-3.1908758405642463"><ele>1873.3333333333333</ele><time>2026-04-22T12:34:31Z</time></trkpt><trkpt lat="37.03435452927225" lon="-3.1909410250783408"><ele>1875.1666666666665</ele><time>2026-04-22T12:34:32Z</time></trkpt><trkpt lat="37.034294882988945" lon="-3.1910181763236123"><ele>1877.0</ele><time>2026-04-22T12:34:33Z</time></trkpt><trkpt lat="37.03423899531659" lon="-3.191094021367371"><ele>1877.0</ele><time>2026-04-22T12:34:34Z</time></trkpt><trkpt lat="37.034193314744684" lon="-3.1911892272157534"><ele>1876.9999999999998</ele><time>2026-04-22T12:34:35Z</time></trkpt><trkpt lat="37.03416311286719" lon="-3.1913052012752856"><ele>1876.9999999999998</ele><time>2026-04-22T12:34:36Z</time></trkpt><trkpt lat="37.03415124451731" lon="-3.1914276012455307"><ele>1877.0</ele><time>2026-04-22T12:34:37Z</time></trkpt><trkpt lat="37.03414680493642" lon="-3.1915523243512465"><ele>1877.0</ele><time>2026-04-22T12:34:38Z</time></trkpt><trkpt lat="37.03414203121733" lon="-3.191675255378649"><ele>1877.8</ele><time>2026-04-22T12:34:39Z</time></trkpt><trkpt lat="37.03411687064797" lon="-3.191792527500247"><ele>1878.6</ele><time>2026-04-22T12:34:40Z</time></trkpt><trkpt lat="37.03406122499981" lon="-3.1918889451360584"><ele>1879.3999999999999</ele><time>2026-04-22T12:34:41Z</time></trkpt><trkpt lat="37.033982400056146" lon="-3.1919688166317095"><ele>1880.1999999999998</ele><time>2026-04-22T12:34:42Z</time></trkpt><trkpt lat="37.033896975231336" lon="-3.192011715269366"><ele>1881.0</ele><time>2026-04-22T12:34:43Z</time></trkpt><trkpt lat="37.033789970915265" lon="-3.192040198807147"><ele>1881.0</ele><time>2026-04-22T12:34:44Z</time></trkpt><trkpt lat="37.03367646339393" lon="-3.1920762664318447"><ele>1881.0</ele><time>2026-04-22T12:34:45Z</time></trkpt><trkpt lat="37.03356695454582" lon="-3.1921156234612367"><ele>1881.0</ele><time>2026-04-22T12:34:46Z</time></trkpt><trkpt lat="37.033467078780305" lon="-3.1921535496362186"><ele>1881.0</ele><time>2026-04-22T12:34:47Z</time></trkpt><trkpt lat="37.033375420516364" lon="-3.192190220735128"><ele>1881.0</ele><time>2026-04-22T12:34:48Z</time></trkpt><trkpt lat="37.03329381867354" lon="-3.192225436933186"><ele>1880.4</ele><time>2026-04-22T12:34:49Z</time></trkpt><trkpt lat="37.03320852331446" lon="-3.1922553957912556"><ele>1879.8</ele><time>2026-04-22T12:34:50Z</time></trkpt><trkpt lat="37.033118247137416" lon="-3.1922922877877227"><ele>1879.2000000000003</ele><time>2026-04-22T12:34:51Z</time></trkpt><trkpt lat="37.03302953438611" lon="-3.192351802680224"><ele>1878.6000000000001</ele><time>2026-04-22T12:34:52Z</time></trkpt><trkpt lat="37.032939052953935" lon="-3.1924014514363823"><ele>1878.0</ele><time>2026-04-22T12:34:53Z</time></trkpt><trkpt lat="37.03284462692761" lon="-3.1924435687503046"><ele>1881.0</ele><time>2026-04-22T12:34:54Z</time></trkpt><trkpt lat="37.03274740339478" lon="-3.192489321816479"><ele>1884.0000000000002</ele><time>2026-04-22T12:34:55Z</time></trkpt><trkpt lat="37.032646328612735" lon="-3.19253907599285"><ele>1887.0000000000002</ele><time>2026-04-22T12:34:56Z</time></trkpt><trkpt lat="37.03254645767992" lon="-3.192594894406755"><ele>1890.0</ele><time>2026-04-22T12:34:57Z</time></trkpt><trkpt lat="37.03244529457446" lon="-3.192666082113785"><ele>1893.0</ele><time>2026-04-22T12:34:58Z</time></trkpt><trkpt lat="37.03235096052375" lon="-3.1927414991893532"><ele>1893.0</ele><time>2026-04-22T12:34:59Z</time></trkpt><trkpt lat="37.03225885662508" lon="-3.1928270447970752"><ele>1893.0</ele><time>2026-04-22T12:35:00Z</time></trkpt><trkpt lat="37.03216722912559" lon="-3.192931535281238"><ele>1893.0</ele><time>2026-04-22T12:35:01Z</time></trkpt><trkpt lat="37.03207033721523" lon="-3.1930370660349334"><ele>1893.0</ele><time>2026-04-22T12:35:02Z</time></trkpt><trkpt lat="37.03197637818515" lon="-3.193145895814885"><ele>1893.5</ele><time>2026-04-22T12:35:03Z</time></trkpt><trkpt lat="37.03188736426537" lon="-3.1932563127842895"><ele>1894.0</ele><time>2026-04-22T12:35:04Z</time></trkpt><trkpt lat="37.03179846956976" lon="-3.193365566026223"><ele>1894.5</ele><time>2026-04-22T12:35:05Z</time></trkpt><trkpt lat="37.03171716206719" lon="-3.1934820288948016"><ele>1895.0</ele><time>2026-04-22T12:35:06Z</time></trkpt><trkpt lat="37.03163932165256" lon="-3.193602399186066"><ele>1895.0</ele><time>2026-04-22T12:35:07Z</time></trkpt><trkpt lat="37.031562484822025" lon="-3.1937217099619173"><ele>1895.0</ele><time>2026-04-22T12:35:08Z</time></trkpt><trkpt lat="37.03149026517866" lon="-3.193846092384615"><ele>1895.0</ele><time>2026-04-22T12:35:09Z</time></trkpt><trkpt lat="37.0314184757745" lon="-3.1939655644008362"><ele>1895.0</ele><time>2026-04-22T12:35:10Z</time></trkpt><trkpt lat="37.031346312504944" lon="-3.1940851077158485"><ele>1901.0</ele><time>2026-04-22T12:35:11Z</time></trkpt><trkpt lat="37.03127281274942" lon="-3.194203486472162"><ele>1907.0</ele><time>2026-04-22T12:35:12Z</time></trkpt><trkpt lat="37.03120142734546" lon="-3.194320620741961"><ele>1913.0</ele><time>2026-04-22T12:35:13Z</time></trkpt><trkpt lat="37.03113142188295" lon="-3.19443971493564"><ele>1919.0</ele><time>2026-04-22T12:35:14Z</time></trkpt><trkpt lat="37.03106211230095" lon="-3.1945575630588"><ele>1919.0</ele><time>2026-04-22T12:35:15Z</time></trkpt><trkpt lat="37.03099888942535" lon="-3.194681242600424"><ele>1919.0</ele><time>2026-04-22T12:35:16Z</time></trkpt><trkpt lat="37.030935093549914" lon="-3.1947999903797375"><ele>1919.0</ele><time>2026-04-22T12:35:17Z</time></trkpt><trkpt lat="37.030872060370704" lon="-3.1948960551294037"><ele>1919.0</ele><time>2026-04-22T12:35:18Z</time></trkpt><trkpt lat="37.030808142256795" lon="-3.1949871130383944"><ele>1919.0</ele><time>2026-04-22T12:35:19Z</time></trkpt><trkpt lat="37.03073042418246" lon="-3.1950637407155296"><ele>1920.0</ele><time>2026-04-22T12:35:20Z</time></trkpt><trkpt lat="37.03064734639095" lon="-3.195135773712256"><ele>1921.0</ele><time>2026-04-22T12:35:21Z</time></trkpt><trkpt lat="37.03056584508254" lon="-3.195219375636011"><ele>1922.0</ele><time>2026-04-22T12:35:22Z</time></trkpt><trkpt lat="37.03048257272052" lon="-3.195314637461483"><ele>1923.0</ele><time>2026-04-22T12:35:23Z</time></trkpt><trkpt lat="37.03040305457961" lon="-3.195413207781387"><ele>1924.0</ele><time>2026-04-22T12:35:24Z</time></trkpt><trkpt lat="37.03031622041194" lon="-3.1955030037611944"><ele>1924.0</ele><time>2026-04-22T12:35:25Z</time></trkpt><trkpt lat="37.03022539654384" lon="-3.1955903923365496"><ele>1924.0</ele><time>2026-04-22T12:35:26Z</time></trkpt><trkpt lat="37.03014814652084" lon="-3.195694788124597"><ele>1924.0</ele><time>2026-04-22T12:35:27Z</time></trkpt><trkpt lat="37.0300674226602" lon="-3.1958032532031817"><ele>1924.0</ele><time>2026-04-22T12:35:28Z</time></trkpt><trkpt lat="37.02998780061672" lon="-3.195924849457348"><ele>1925.0</ele><time>2026-04-22T12:35:29Z</time></trkpt><trkpt lat="37.029912663326314" lon="-3.1960499165710927"><ele>1926.0</ele><time>2026-04-22T12:35:30Z</time></trkpt><trkpt lat="37.029842433269295" lon="-3.1961849041208876"><ele>1927.0</ele><time>2026-04-22T12:35:31Z</time></trkpt><trkpt lat="37.02977720587586" lon="-3.1963243205510516"><ele>1928.0</ele><time>2026-04-22T12:35:32Z</time></trkpt><trkpt lat="37.02970301509191" lon="-3.1964701000745617"><ele>1932.75</ele><time>2026-04-22T12:35:33Z</time></trkpt><trkpt lat="37.02961787104273" lon="-3.196614418878735"><ele>1937.5</ele><time>2026-04-22T12:35:34Z</time></trkpt><trkpt lat="37.029511830313666" lon="-3.19673699601108"><ele>1942.25</ele><time>2026-04-22T12:35:35Z</time></trkpt><trkpt lat="37.02941021199612" lon="-3.1968514069616645"><ele>1947.0</ele><time>2026-04-22T12:35:36Z</time></trkpt><trkpt lat="37.02927680117907" lon="-3.1969329027227356"><ele>1944.3333333333335</ele><time>2026-04-22T12:35:37Z</time></trkpt><trkpt lat="37.029136174080556" lon="-3.1969966056389794"><ele>1941.6666666666667</ele><time>2026-04-22T12:35:38Z</time></trkpt><trkpt lat="37.02899342536973" lon="-3.1970917458486423"><ele>1939.0</ele><time>2026-04-22T12:35:39Z</time></trkpt><trkpt lat="37.02887010368857" lon="-3.197220617433197"><ele>1946.3333333333335</ele><time>2026-04-22T12:35:40Z</time></trkpt><trkpt lat="37.02874261023423" lon="-3.1973484081391508"><ele>1953.6666666666665</ele><time>2026-04-22T12:35:41Z</time></trkpt><trkpt lat="37.02861019948256" lon="-3.1974582848535253"><ele>1961.0</ele><time>2026-04-22T12:35:42Z</time></trkpt><trkpt lat="37.02846530962296" lon="-3.1975246084381514"><ele>1960.25</ele><time>2026-04-22T12:35:43Z</time></trkpt><trkpt lat="37.0283082136578" lon="-3.1975484831073158"><ele>1959.5</ele><time>2026-04-22T12:35:44Z</time></trkpt><trkpt lat="37.02816381447103" lon="-3.1975487201285824"><ele>1958.75</ele><time>2026-04-22T12:35:45Z</time></trkpt><trkpt lat="37.02801767155582" lon="-3.19755849422251"><ele>1958.0</ele><time>2026-04-22T12:35:46Z</time></trkpt><trkpt lat="37.02789020812306" lon="-3.1976135995414254"><ele>1958.0</ele><time>2026-04-22T12:35:47Z</time></trkpt><trkpt lat="37.02776152335318" lon="-3.1977242920955553"><ele>1958.0</ele><time>2026-04-22T12:35:48Z</time></trkpt><trkpt lat="37.02761760097593" lon="-3.1978600424676915"><ele>1958.0</ele><time>2026-04-22T12:35:49Z</time></trkpt><trkpt lat="37.02746547941297" lon="-3.198011638511963"><ele>1961.3333333333333</ele><time>2026-04-22T12:35:50Z</time></trkpt><trkpt lat="37.027316053563595" lon="-3.1981484802489546"><ele>1964.6666666666665</ele><time>2026-04-22T12:35:51Z</time></trkpt><trkpt lat="37.027170669000824" lon="-3.1982643124348864"><ele>1968.0</ele><time>2026-04-22T12:35:52Z</time></trkpt><trkpt lat="37.0270360574761" lon="-3.1983576148532182"><ele>1968.0</ele><time>2026-04-22T12:35:53Z</time></trkpt><trkpt lat="37.02691914630962" lon="-3.1984296077524967"><ele>1968.0000000000002</ele><time>2026-04-22T12:35:54Z</time></trkpt><trkpt lat="37.02682450143632" lon="-3.19849859939673"><ele>1968.0000000000002</ele><time>2026-04-22T12:35:55Z</time></trkpt><trkpt lat="37.026758453287236" lon="-3.198577924684833"><ele>1968.0</ele><time>2026-04-22T12:35:56Z</time></trkpt><trkpt lat="37.0267178158626" lon="-3.1986863513191595"><ele>1968.0</ele><time>2026-04-22T12:35:57Z</time></trkpt><trkpt lat="37.02671236611606" lon="-3.1988355043345953"><ele>1965.6666666666665</ele><time>2026-04-22T12:35:58Z</time></trkpt><trkpt lat="37.02670482823078" lon="-3.1990197131337603"><ele>1963.3333333333333</ele><time>2026-04-22T12:35:59Z</time></trkpt><trkpt lat="37.026674708197625" lon="-3.1992140913999996"><ele>1961.0</ele><time>2026-04-22T12:36:00Z</time></trkpt><trkpt lat="37.02662223899763" lon="-3.1993840328653693"><ele>1961.0</ele><time>2026-04-22T12:36:01Z</time></trkpt><trkpt lat="37.02657418370538" lon="-3.1995104082237797"><ele>1961.0</ele><time>2026-04-22T12:36:02Z</time></trkpt><trkpt lat="37.02655682341423" lon="-3.199626555035263"><ele>1961.0</ele><time>2026-04-22T12:36:03Z</time></trkpt><trkpt lat="37.026569776577865" lon="-3.199737997578437"><ele>1961.0</ele><time>2026-04-22T12:36:04Z</time></trkpt><trkpt lat="37.02660523166971" lon="-3.199845115235588"><ele>1961.0</ele><time>2026-04-22T12:36:05Z</time></trkpt><trkpt lat="37.02668089395027" lon="-3.199925197795528"><ele>1966.0</ele><time>2026-04-22T12:36:06Z</time></trkpt><trkpt lat="37.02677723547176" lon="-3.199982304052083"><ele>1971.0</ele><time>2026-04-22T12:36:07Z</time></trkpt><trkpt lat="37.02689562465249" lon="-3.200028900380501"><ele>1976.0</ele><time>2026-04-22T12:36:08Z</time></trkpt><trkpt lat="37.02702304713559" lon="-3.200091054438634"><ele>1981.0</ele><time>2026-04-22T12:36:09Z</time></trkpt><trkpt lat="37.02715593606229" lon="-3.200176086162421"><ele>1981.0</ele><time>2026-04-22T12:36:10Z</time></trkpt><trkpt lat="37.027288046854444" lon="-3.200254154961705"><ele>1981.0</ele><time>2026-04-22T12:36:11Z</time></trkpt><trkpt lat="37.02742439312723" lon="-3.2003419845643313"><ele>1981.0</ele><time>2026-04-22T12:36:12Z</time></trkpt><trkpt lat="37.027556864918026" lon="-3.200445580715892"><ele>1981.3333333333335</ele><time>2026-04-22T12:36:13Z</time></trkpt><trkpt lat="37.02769065772367" lon="-3.200554242472408"><ele>1981.6666666666665</ele><time>2026-04-22T12:36:14Z</time></trkpt><trkpt lat="37.02782322466186" lon="-3.2006701680192227"><ele>1982.0</ele><time>2026-04-22T12:36:15Z</time></trkpt><trkpt lat="37.027948155667794" lon="-3.2007886482434054"><ele>1982.0</ele><time>2026-04-22T12:36:16Z</time></trkpt><trkpt lat="37.028070972330795" lon="-3.2009222175273684"><ele>1982.0</ele><time>2026-04-22T12:36:17Z</time></trkpt><trkpt lat="37.02819380254712" lon="-3.2010451123451236"><ele>1982.0</ele><time>2026-04-22T12:36:18Z</time></trkpt><trkpt lat="37.02831111415001" lon="-3.2011604840103844"><ele>1981.25</ele><time>2026-04-22T12:36:19Z</time></trkpt><trkpt lat="37.0284137685883" lon="-3.2012766800525356"><ele>1980.5</ele><time>2026-04-22T12:36:20Z</time></trkpt><trkpt lat="37.028518003488536" lon="-3.201391571886751"><ele>1979.75</ele><time>2026-04-22T12:36:21Z</time></trkpt><trkpt lat="37.02860731139613" lon="-3.2014883163613486"><ele>1979.0</ele><time>2026-04-22T12:36:22Z</time></trkpt><trkpt lat="37.02868344604494" lon="-3.2015774936283408"><ele>1979.0</ele><time>2026-04-22T12:36:23Z</time></trkpt><trkpt lat="37.02874305933525" lon="-3.2016517171069143"><ele>1979.0</ele><time>2026-04-22T12:36:24Z</time></trkpt><trkpt lat="37.02879381392951" lon="-3.201717381622418"><ele>1979.0</ele><time>2026-04-22T12:36:25Z</time></trkpt><trkpt lat="37.02884740750657" lon="-3.201766254132556"><ele>1979.0</ele><time>2026-04-22T12:36:26Z</time></trkpt><trkpt lat="37.02894794677517" lon="-3.2018319567706732"><ele>1979.0</ele><time>2026-04-22T12:36:28Z</time></trkpt><trkpt lat="37.02906278434847" lon="-3.201847951276237"><ele>1978.9999999999998</ele><time>2026-04-22T12:36:30Z</time></trkpt><trkpt lat="37.029130365866166" lon="-3.201860053602364"><ele>1979.0</ele><time>2026-04-22T12:36:32Z</time></trkpt><trkpt lat="37.02919753720524" lon="-3.2018324746640756"><ele>1979.0</ele><time>2026-04-22T12:38:24Z</time></trkpt><trkpt lat="37.02928766453577" lon="-3.201794548642732"><ele>1979.0</ele><time>2026-04-22T12:38:26Z</time></trkpt><trkpt lat="37.02935300397757" lon="-3.2017901301404117"><ele>1978.9999999999998</ele><time>2026-04-22T12:38:27Z</time></trkpt><trkpt lat="37.02942444846681" lon="-3.201781920339391"><ele>1979.0</ele><time>2026-04-22T12:38:28Z</time></trkpt><trkpt lat="37.02950309219241" lon="-3.201763337596715"><ele>1983.9999999999998</ele><time>2026-04-22T12:38:29Z</time></trkpt><trkpt lat="37.029579921758774" lon="-3.2017421168816442"><ele>1989.0</ele><time>2026-04-22T12:38:30Z</time></trkpt><trkpt lat="37.02966290676083" lon="-3.2017113173079084"><ele>1994.0</ele><time>2026-04-22T12:38:31Z</time></trkpt><trkpt lat="37.02974246974453" lon="-3.201683982117824"><ele>1999.0</ele><time>2026-04-22T12:38:32Z</time></trkpt><trkpt lat="37.029832363499004" lon="-3.2016480167475043"><ele>2003.9999999999998</ele><time>2026-04-22T12:38:33Z</time></trkpt><trkpt lat="37.02992671482269" lon="-3.2016260132666217"><ele>2009.0</ele><time>2026-04-22T12:38:34Z</time></trkpt><trkpt lat="37.030021049758645" lon="-3.2016363464570397"><ele>2011.0</ele><time>2026-04-22T12:38:35Z</time></trkpt><trkpt lat="37.03011474907635" lon="-3.201669708802207"><ele>2013.0</ele><time>2026-04-22T12:38:36Z</time></trkpt><trkpt lat="37.030202304778726" lon="-3.201732798864285"><ele>2015.0</ele><time>2026-04-22T12:38:37Z</time></trkpt><trkpt lat="37.030296888428516" lon="-3.2018507517085264"><ele>2017.0</ele><time>2026-04-22T12:38:38Z</time></trkpt><trkpt lat="37.03040461415673" lon="-3.2019862091254545"><ele>2017.0</ele><time>2026-04-22T12:38:39Z</time></trkpt><trkpt lat="37.03046392738369" lon="-3.202035016132495"><ele>2016.9999999999998</ele><time>2026-04-22T12:38:40Z</time></trkpt><trkpt lat="37.03055397386718" lon="-3.2021049228889527"><ele>2016.9999999999998</ele><time>2026-04-22T12:38:41Z</time></trkpt><trkpt lat="37.030651280946515" lon="-3.20215656891193"><ele>2017.0</ele><time>2026-04-22T12:38:42Z</time></trkpt><trkpt lat="37.03074736558672" lon="-3.202189385704022"><ele>2017.0</ele><time>2026-04-22T12:38:43Z</time></trkpt><trkpt lat="37.03084827638875" lon="-3.20219904017278"><ele>2020.0</ele><time>2026-04-22T12:38:44Z</time></trkpt><trkpt lat="37.03096071410779" lon="-3.202186694429868"><ele>2023.0</ele><time>2026-04-22T12:38:45Z</time></trkpt><trkpt lat="37.031066563365684" lon="-3.202155316839469"><ele>2026.0</ele><time>2026-04-22T12:38:46Z</time></trkpt><trkpt lat="37.03117530763059" lon="-3.202106337603386"><ele>2029.0</ele><time>2026-04-22T12:38:47Z</time></trkpt><trkpt lat="37.031282498922444" lon="-3.202064075933275"><ele>2029.0</ele><time>2026-04-22T12:38:48Z</time></trkpt><trkpt lat="37.031399872170304" lon="-3.2020347503323348"><ele>2029.0</ele><time>2026-04-22T12:38:49Z</time></trkpt><trkpt lat="37.03151024289346" lon="-3.2020297056848066"><ele>2029.0</ele><time>2026-04-22T12:38:50Z</time></trkpt><trkpt lat="37.03161807626929" lon="-3.2020413558754615"><ele>2029.0</ele><time>2026-04-22T12:38:51Z</time></trkpt><trkpt lat="37.03172992089925" lon="-3.2020784816696075"><ele>2029.0</ele><time>2026-04-22T12:38:52Z</time></trkpt><trkpt lat="37.031841976493475" lon="-3.202144106173147"><ele>2029.0</ele><time>2026-04-22T12:38:53Z</time></trkpt><trkpt lat="37.031946149080966" lon="-3.2022413139825274"><ele>2029.0</ele><time>2026-04-22T12:38:54Z</time></trkpt><trkpt lat="37.03204581914899" lon="-3.2023391274548527"><ele>2029.0</ele><time>2026-04-22T12:38:55Z</time></trkpt><trkpt lat="37.032176630140974" lon="-3.202434692121135"><ele>2024.0</ele><time>2026-04-22T12:38:56Z</time></trkpt><trkpt lat="37.03228166972069" lon="-3.202471979784537"><ele>2019.0</ele><time>2026-04-22T12:38:57Z</time></trkpt><trkpt lat="37.03240172129503" lon="-3.2024852091326292"><ele>2014.0</ele><time>2026-04-22T12:38:58Z</time></trkpt><trkpt lat="37.03252708952838" lon="-3.2024711966506074"><ele>2009.0</ele><time>2026-04-22T12:38:59Z</time></trkpt><trkpt lat="37.03265041346938" lon="-3.2024544293072417"><ele>2009.0</ele><time>2026-04-22T12:39:00Z</time></trkpt><trkpt lat="37.03278219888399" lon="-3.2024548905899737"><ele>2009.0</ele><time>2026-04-22T12:39:01Z</time></trkpt><trkpt lat="37.032907052893776" lon="-3.202466239103695"><ele>2009.0</ele><time>2026-04-22T12:39:02Z</time></trkpt><trkpt lat="37.03303495494889" lon="-3.2024675296042755"><ele>2009.0</ele><time>2026-04-22T12:39:03Z</time></trkpt><trkpt lat="37.033157377752985" lon="-3.2024746037842515"><ele>2009.0</ele><time>2026-04-22T12:39:04Z</time></trkpt><trkpt lat="37.03328331177326" lon="-3.202483602151803"><ele>2009.0</ele><time>2026-04-22T12:39:05Z</time></trkpt><trkpt lat="37.03341187022529" lon="-3.2025034200700904"><ele>2009.0</ele><time>2026-04-22T12:39:06Z</time></trkpt><trkpt lat="37.033535567693555" lon="-3.2025679606989006"><ele>2009.0</ele><time>2026-04-22T12:39:07Z</time></trkpt><trkpt lat="37.033654173232044" lon="-3.2026376363135887"><ele>2007.5</ele><time>2026-04-22T12:39:08Z</time></trkpt><trkpt lat="37.03376967968748" lon="-3.202707400829333"><ele>2006.0</ele><time>2026-04-22T12:39:09Z</time></trkpt><trkpt lat="37.03388796576472" lon="-3.2027662852789187"><ele>2004.5</ele><time>2026-04-22T12:39:10Z</time></trkpt><trkpt lat="37.03399844122859" lon="-3.2028096551378056"><ele>2003.0</ele><time>2026-04-22T12:39:11Z</time></trkpt><trkpt lat="37.03411505802025" lon="-3.2028353011595874"><ele>2005.25</ele><time>2026-04-22T12:39:12Z</time></trkpt><trkpt lat="37.034240232088905" lon="-3.2028455620467198"><ele>2007.5</ele><time>2026-04-22T12:39:13Z</time></trkpt><trkpt lat="37.03436865381767" lon="-3.2028277965978815"><ele>2009.75</ele><time>2026-04-22T12:39:14Z</time></trkpt><trkpt lat="37.03450194765295" lon="-3.202783301604137"><ele>2012.0</ele><time>2026-04-22T12:39:15Z</time></trkpt><trkpt lat="37.03463259012212" lon="-3.202728218656109"><ele>2012.0</ele><time>2026-04-22T12:39:16Z</time></trkpt><trkpt lat="37.03476529308168" lon="-3.2026843111553913"><ele>2012.0</ele><time>2026-04-22T12:39:17Z</time></trkpt><trkpt lat="37.03489678663178" lon="-3.202672097843028"><ele>2012.0</ele><time>2026-04-22T12:39:18Z</time></trkpt><trkpt lat="37.03502573251629" lon="-3.2026962090915405"><ele>2012.0</ele><time>2026-04-22T12:39:19Z</time></trkpt><trkpt lat="37.03516395602746" lon="-3.202726806945001"><ele>2014.0</ele><time>2026-04-22T12:39:20Z</time></trkpt><trkpt lat="37.03531162723984" lon="-3.2027455792657498"><ele>2016.0</ele><time>2026-04-22T12:39:21Z</time></trkpt><trkpt lat="37.03545770812359" lon="-3.2027744285228157"><ele>2018.0</ele><time>2026-04-22T12:39:22Z</time></trkpt><trkpt lat="37.035604016046655" lon="-3.2028161736432637"><ele>2020.0</ele><time>2026-04-22T12:39:23Z</time></trkpt><trkpt lat="37.03573842983565" lon="-3.202851051979302"><ele>2020.0</ele><time>2026-04-22T12:39:24Z</time></trkpt><trkpt lat="37.03586697659127" lon="-3.202888833803355"><ele>2020.0</ele><time>2026-04-22T12:39:25Z</time></trkpt><trkpt lat="37.03599089127797" lon="-3.2029401836536877"><ele>2020.0</ele><time>2026-04-22T12:39:26Z</time></trkpt><trkpt lat="37.03611109281517" lon="-3.2029987816300136"><ele>2020.0</ele><time>2026-04-22T12:39:27Z</time></trkpt><trkpt lat="37.03623578467422" lon="-3.2030549062871865"><ele>2020.0</ele><time>2026-04-22T12:39:28Z</time></trkpt><trkpt lat="37.03635807664876" lon="-3.203112848470055"><ele>2020.0</ele><time>2026-04-22T12:39:29Z</time></trkpt><trkpt lat="37.0364741384329" lon="-3.2031453729856287"><ele>2020.0</ele><time>2026-04-22T12:39:30Z</time></trkpt><trkpt lat="37.036574815438065" lon="-3.203157657532839"><ele>2020.0</ele><time>2026-04-22T12:39:31Z</time></trkpt><trkpt lat="37.03667650117845" lon="-3.203143498098826"><ele>2020.75</ele><time>2026-04-22T12:39:32Z</time></trkpt><trkpt lat="37.036785131484685" lon="-3.203091416745485"><ele>2021.5</ele><time>2026-04-22T12:39:33Z</time></trkpt><trkpt lat="37.036903852519046" lon="-3.2030109707783794"><ele>2022.25</ele><time>2026-04-22T12:39:34Z</time></trkpt><trkpt lat="37.037020198041574" lon="-3.2029270295788224"><ele>2023.0</ele><time>2026-04-22T12:39:35Z</time></trkpt><trkpt lat="37.03714856583223" lon="-3.2028474753461147"><ele>2023.0</ele><time>2026-04-22T12:39:36Z</time></trkpt><trkpt lat="37.03726076000209" lon="-3.2027691462189796"><ele>2023.0</ele><time>2026-04-22T12:39:37Z</time></trkpt><trkpt lat="37.03736971148649" lon="-3.2026964329528345"><ele>2023.0</ele><time>2026-04-22T12:39:38Z</time></trkpt><trkpt lat="37.037492064310456" lon="-3.202636433929953"><ele>2023.0</ele><time>2026-04-22T12:39:39Z</time></trkpt><trkpt lat="37.037619554055986" lon="-3.202583109950311"><ele>2019.8000000000002</ele><time>2026-04-22T12:39:40Z</time></trkpt><trkpt lat="37.0377302151606" lon="-3.202534330280374"><ele>2016.6000000000001</ele><time>2026-04-22T12:39:41Z</time></trkpt><trkpt lat="37.0378313689626" lon="-3.202510588588084"><ele>2013.3999999999999</ele><time>2026-04-22T12:39:42Z</time></trkpt><trkpt lat="37.037921327742225" lon="-3.2024479350846926"><ele>2010.1999999999998</ele><time>2026-04-22T12:39:43Z</time></trkpt><trkpt lat="37.03802592572764" lon="-3.202408611000573"><ele>2007.0</ele><time>2026-04-22T12:39:44Z</time></trkpt><trkpt lat="37.03811818513007" lon="-3.202382851408531"><ele>2007.0</ele><time>2026-04-22T12:39:45Z</time></trkpt><trkpt lat="37.03819924383113" lon="-3.2023709678081"><ele>2007.0</ele><time>2026-04-22T12:39:46Z</time></trkpt><trkpt lat="37.038266743877315" lon="-3.2023871704730307"><ele>2007.0</ele><time>2026-04-22T12:39:47Z</time></trkpt><trkpt lat="37.03832414504982" lon="-3.2024265370962413"><ele>2007.0</ele><time>2026-04-22T12:39:48Z</time></trkpt><trkpt lat="37.038372646293325" lon="-3.2024806427995194"><ele>2007.0</ele><time>2026-04-22T12:39:49Z</time></trkpt><trkpt lat="37.03840877433352" lon="-3.2026225368820422"><ele>2007.0</ele><time>2026-04-22T12:39:51Z</time></trkpt><trkpt lat="37.03839137418584" lon="-3.2027031585582346"><ele>2007.0</ele><time>2026-04-22T12:39:52Z</time></trkpt><trkpt lat="37.038347893709485" lon="-3.2027903528122725"><ele>2006.9999999999998</ele><time>2026-04-22T12:39:53Z</time></trkpt><trkpt lat="37.03828085051227" lon="-3.2028776377422883"><ele>2006.9999999999998</ele><time>2026-04-22T12:39:54Z</time></trkpt><trkpt lat="37.038206169182345" lon="-3.2029761015109823"><ele>2007.0</ele><time>2026-04-22T12:39:55Z</time></trkpt><trkpt lat="37.038135038669786" lon="-3.203080064442449"><ele>2007.0</ele><time>2026-04-22T12:39:56Z</time></trkpt><trkpt lat="37.038081827598894" lon="-3.2031743873988368"><ele>2003.25</ele><time>2026-04-22T12:39:57.001Z</time></trkpt><trkpt lat="37.0380293238727" lon="-3.2032715660750104"><ele>1999.5</ele><time>2026-04-22T12:39:58.001Z</time></trkpt><trkpt lat="37.03796530142348" lon="-3.203396028088689"><ele>1995.75</ele><time>2026-04-22T12:39:59Z</time></trkpt><trkpt lat="37.037908595557795" lon="-3.2035286119368367"><ele>1992.0</ele><time>2026-04-22T12:40:00Z</time></trkpt><trkpt lat="37.03785457903458" lon="-3.203669490452829"><ele>1992.0</ele><time>2026-04-22T12:40:01Z</time></trkpt><trkpt lat="37.03781301947444" lon="-3.203818529395762"><ele>1992.0</ele><time>2026-04-22T12:40:02Z</time></trkpt><trkpt lat="37.03777762758819" lon="-3.203973188776095"><ele>1992.0</ele><time>2026-04-22T12:40:03Z</time></trkpt><trkpt lat="37.03773589953859" lon="-3.2041115631085635"><ele>1992.0</ele><time>2026-04-22T12:40:04Z</time></trkpt><trkpt lat="37.037687663152134" lon="-3.2042387664656333"><ele>1994.0</ele><time>2026-04-22T12:40:05Z</time></trkpt><trkpt lat="37.03763433086932" lon="-3.2043410796438216"><ele>1995.9999999999998</ele><time>2026-04-22T12:40:06Z</time></trkpt><trkpt lat="37.03756376585389" lon="-3.2044104601298926"><ele>1997.9999999999998</ele><time>2026-04-22T12:40:07Z</time></trkpt><trkpt lat="37.03747554150881" lon="-3.204464981785471"><ele>2000.0</ele><time>2026-04-22T12:40:08Z</time></trkpt><trkpt lat="37.03737649344281" lon="-3.204508229433224"><ele>2002.0</ele><time>2026-04-22T12:40:09Z</time></trkpt><trkpt lat="37.037277038733585" lon="-3.2045342421006717"><ele>2002.75</ele><time>2026-04-22T12:40:10Z</time></trkpt><trkpt lat="37.03717700105167" lon="-3.2045968804013274"><ele>2003.5</ele><time>2026-04-22T12:40:11Z</time></trkpt><trkpt lat="37.03708467844538" lon="-3.204691406879928"><ele>2004.25</ele><time>2026-04-22T12:40:12Z</time></trkpt><trkpt lat="37.0369955537273" lon="-3.2047990013190497"><ele>2005.0</ele><time>2026-04-22T12:40:13Z</time></trkpt><trkpt lat="37.0369155149476" lon="-3.2049237933904515"><ele>2005.0</ele><time>2026-04-22T12:40:14Z</time></trkpt><trkpt lat="37.03683986492353" lon="-3.2050549819364083"><ele>2005.0</ele><time>2026-04-22T12:40:15Z</time></trkpt><trkpt lat="37.03675854507724" lon="-3.2051910869190894"><ele>2005.0</ele><time>2026-04-22T12:40:16Z</time></trkpt><trkpt lat="37.03666160794066" lon="-3.205309568539562"><ele>2005.0</ele><time>2026-04-22T12:40:17Z</time></trkpt><trkpt lat="37.03655500740694" lon="-3.205418131105739"><ele>2006.5</ele><time>2026-04-22T12:40:18Z</time></trkpt><trkpt lat="37.03644390162724" lon="-3.2055198707962775"><ele>2008.0</ele><time>2026-04-22T12:40:19Z</time></trkpt><trkpt lat="37.036335514974986" lon="-3.205624389724556"><ele>2009.5</ele><time>2026-04-22T12:40:20Z</time></trkpt><trkpt lat="37.03623114684686" lon="-3.2057236644780973"><ele>2011.0</ele><time>2026-04-22T12:40:21Z</time></trkpt><trkpt lat="37.036125920331294" lon="-3.205825098688578"><ele>2011.0</ele><time>2026-04-22T12:40:22Z</time></trkpt><trkpt lat="37.03602059343723" lon="-3.205923763700839"><ele>2011.0</ele><time>2026-04-22T12:40:23Z</time></trkpt><trkpt lat="37.03592266476105" lon="-3.206013534963935"><ele>2011.0</ele><time>2026-04-22T12:40:24Z</time></trkpt><trkpt lat="37.035837568395955" lon="-3.206089655464708"><ele>2011.0</ele><time>2026-04-22T12:40:25Z</time></trkpt><trkpt lat="37.03575122277147" lon="-3.2061614081816434"><ele>2008.4</ele><time>2026-04-22T12:40:26Z</time></trkpt><trkpt lat="37.035664380792284" lon="-3.2062399201732275"><ele>2005.8</ele><time>2026-04-22T12:40:27Z</time></trkpt><trkpt lat="37.03558297205633" lon="-3.206322831177912"><ele>2003.2000000000003</ele><time>2026-04-22T12:40:28Z</time></trkpt><trkpt lat="37.03551226972942" lon="-3.206405188190941"><ele>2000.6000000000001</ele><time>2026-04-22T12:40:29Z</time></trkpt><trkpt lat="37.035459441246374" lon="-3.2064916730507895"><ele>1998.0</ele><time>2026-04-22T12:40:30Z</time></trkpt><trkpt lat="37.03543228237923" lon="-3.2065994755750316"><ele>1998.0</ele><time>2026-04-22T12:40:31Z</time></trkpt><trkpt lat="37.0354321622209" lon="-3.206716934326587"><ele>1998.0000000000002</ele><time>2026-04-22T12:40:32Z</time></trkpt><trkpt lat="37.0354443375311" lon="-3.206837407884184"><ele>1998.0000000000002</ele><time>2026-04-22T12:40:33Z</time></trkpt><trkpt lat="37.0354776297365" lon="-3.2069669371231417"><ele>1998.0</ele><time>2026-04-22T12:40:34Z</time></trkpt><trkpt lat="37.035515689080206" lon="-3.20711130956304"><ele>1998.0</ele><time>2026-04-22T12:40:35Z</time></trkpt><trkpt lat="37.03556492686356" lon="-3.2072634578829633"><ele>2001.75</ele><time>2026-04-22T12:40:36Z</time></trkpt><trkpt lat="37.035617894446744" lon="-3.207421748634454"><ele>2005.5</ele><time>2026-04-22T12:40:37Z</time></trkpt><trkpt lat="37.03568068047581" lon="-3.20755645502589"><ele>2009.25</ele><time>2026-04-22T12:40:38Z</time></trkpt><trkpt lat="37.03574966295132" lon="-3.2076674601031345"><ele>2013.0</ele><time>2026-04-22T12:40:39Z</time></trkpt><trkpt lat="37.03580851065595" lon="-3.207760195712478"><ele>2013.0</ele><time>2026-04-22T12:40:40Z</time></trkpt><trkpt lat="37.035856327331246" lon="-3.2078409519092177"><ele>2013.0000000000002</ele><time>2026-04-22T12:40:41Z</time></trkpt><trkpt lat="37.03589847888441" lon="-3.207913577012307"><ele>2013.0000000000002</ele><time>2026-04-22T12:40:42Z</time></trkpt><trkpt lat="37.03589844530864" lon="-3.208054078898517"><ele>2013.0</ele><time>2026-04-22T12:40:44Z</time></trkpt><trkpt lat="37.03578862385201" lon="-3.208127128232296"><ele>2013.0</ele><time>2026-04-22T12:40:46Z</time></trkpt><trkpt lat="37.03570749408804" lon="-3.20811107899733"><ele>2013.0</ele><time>2026-04-22T12:40:47Z</time></trkpt><trkpt lat="37.035618666597244" lon="-3.2080600116388758"><ele>2013.0</ele><time>2026-04-22T12:40:48Z</time></trkpt><trkpt lat="37.035525922837735" lon="-3.2079859552462344"><ele>2013.0</ele><time>2026-04-22T12:40:49Z</time></trkpt><trkpt lat="37.03542196176162" lon="-3.2079083401136934"><ele>2013.0</ele><time>2026-04-22T12:40:50Z</time></trkpt><trkpt lat="37.03530709657283" lon="-3.207824195441614"><ele>2013.0</ele><time>2026-04-22T12:40:51Z</time></trkpt><trkpt lat="37.03519413113175" lon="-3.207743285136089"><ele>2013.0</ele><time>2026-04-22T12:40:52Z</time></trkpt><trkpt lat="37.03507924781672" lon="-3.2076503020391693"><ele>2013.0</ele><time>2026-04-22T12:40:53Z</time></trkpt><trkpt lat="37.03495464513987" lon="-3.207552606769991"><ele>2013.0</ele><time>2026-04-22T12:40:54Z</time></trkpt><trkpt lat="37.03482644254413" lon="-3.207461233268488"><ele>2011.3333333333335</ele><time>2026-04-22T12:40:55Z</time></trkpt><trkpt lat="37.03469527993642" lon="-3.207362784173843"><ele>2009.6666666666667</ele><time>2026-04-22T12:40:56Z</time></trkpt><trkpt lat="37.03456324597549" lon="-3.207244574228642"><ele>2008.0</ele><time>2026-04-22T12:40:57Z</time></trkpt><trkpt lat="37.03443599005053" lon="-3.207116185685503"><ele>2008.0</ele><time>2026-04-22T12:40:58Z</time></trkpt><trkpt lat="37.03431010034334" lon="-3.206978713001953"><ele>2008.0</ele><time>2026-04-22T12:40:59Z</time></trkpt><trkpt lat="37.0341848696922" lon="-3.2068407995750814"><ele>2008.0</ele><time>2026-04-22T12:41:00Z</time></trkpt><trkpt lat="37.034049399396096" lon="-3.206716432723422"><ele>2006.25</ele><time>2026-04-22T12:41:01Z</time></trkpt><trkpt lat="37.03392343548717" lon="-3.2066018260576072"><ele>2004.5</ele><time>2026-04-22T12:41:02Z</time></trkpt><trkpt lat="37.03380004381068" lon="-3.206485367228689"><ele>2002.75</ele><time>2026-04-22T12:41:03Z</time></trkpt><trkpt lat="37.03369259281051" lon="-3.2063767752121"><ele>2001.0</ele><time>2026-04-22T12:41:04Z</time></trkpt><trkpt lat="37.03359295171956" lon="-3.2062800279999473"><ele>2001.0</ele><time>2026-04-22T12:41:05Z</time></trkpt><trkpt lat="37.033498249289146" lon="-3.206212911600408"><ele>2001.0</ele><time>2026-04-22T12:41:06Z</time></trkpt><trkpt lat="37.033388872669356" lon="-3.206185919535513"><ele>2001.0</ele><time>2026-04-22T12:41:07Z</time></trkpt><trkpt lat="37.03325929050361" lon="-3.2061988226078637"><ele>2001.0</ele><time>2026-04-22T12:41:08Z</time></trkpt><trkpt lat="37.033115833486924" lon="-3.2062372603510285"><ele>1998.3333333333335</ele><time>2026-04-22T12:41:09Z</time></trkpt><trkpt lat="37.03295822886947" lon="-3.2062858036213866"><ele>1995.6666666666667</ele><time>2026-04-22T12:41:10Z</time></trkpt><trkpt lat="37.03278439755424" lon="-3.2063050334309224"><ele>1993.0</ele><time>2026-04-22T12:41:11Z</time></trkpt><trkpt lat="37.03260586117026" lon="-3.206325330554734"><ele>1991.0</ele><time>2026-04-22T12:41:12Z</time></trkpt><trkpt lat="37.03242018967867" lon="-3.206341466631793"><ele>1989.0</ele><time>2026-04-22T12:41:13Z</time></trkpt><trkpt lat="37.03223546085111" lon="-3.2063519719796933"><ele>1987.0</ele><time>2026-04-22T12:41:14Z</time></trkpt><trkpt lat="37.0320572251784" lon="-3.20635955160678"><ele>1987.0</ele><time>2026-04-22T12:41:15Z</time></trkpt><trkpt lat="37.03190227286288" lon="-3.2063815728847365"><ele>1987.0</ele><time>2026-04-22T12:41:16Z</time></trkpt><trkpt lat="37.0317522488801" lon="-3.2064045550892746"><ele>1987.0</ele><time>2026-04-22T12:41:17Z</time></trkpt><trkpt lat="37.03162203330927" lon="-3.2064138758313563"><ele>1987.0</ele><time>2026-04-22T12:41:18Z</time></trkpt><trkpt lat="37.03149527428956" lon="-3.206404864344631"><ele>1986.5</ele><time>2026-04-22T12:41:19Z</time></trkpt><trkpt lat="37.031372464099185" lon="-3.2063725785256154"><ele>1986.0</ele><time>2026-04-22T12:41:20Z</time></trkpt><trkpt lat="37.03125082707426" lon="-3.2063302402227296"><ele>1985.5</ele><time>2026-04-22T12:41:21Z</time></trkpt><trkpt lat="37.03112303830526" lon="-3.206294429901537"><ele>1985.0</ele><time>2026-04-22T12:41:22Z</time></trkpt><trkpt lat="37.03097915327532" lon="-3.2062698732552803"><ele>1985.0</ele><time>2026-04-22T12:41:23Z</time></trkpt><trkpt lat="37.03082743521891" lon="-3.2062468344943635"><ele>1985.0</ele><time>2026-04-22T12:41:24Z</time></trkpt><trkpt lat="37.0306750153034" lon="-3.2062232277638856"><ele>1985.0</ele><time>2026-04-22T12:41:25Z</time></trkpt><trkpt lat="37.03052072513117" lon="-3.2061898237141286"><ele>1985.25</ele><time>2026-04-22T12:41:26Z</time></trkpt><trkpt lat="37.03037500355533" lon="-3.206162627896148"><ele>1985.5</ele><time>2026-04-22T12:41:27Z</time></trkpt><trkpt lat="37.0302516359052" lon="-3.206138657662889"><ele>1985.75</ele><time>2026-04-22T12:41:28Z</time></trkpt><trkpt lat="37.030155452521186" lon="-3.206122004226391"><ele>1986.0</ele><time>2026-04-22T12:41:29Z</time></trkpt><trkpt lat="37.03005910238236" lon="-3.2061045714475096"><ele>1984.6</ele><time>2026-04-22T12:41:30Z</time></trkpt><trkpt lat="37.02996403725713" lon="-3.2060940752324085"><ele>1983.1999999999998</ele><time>2026-04-22T12:41:31Z</time></trkpt><trkpt lat="37.02987849447289" lon="-3.2060860274019807"><ele>1981.8000000000002</ele><time>2026-04-22T12:41:32Z</time></trkpt><trkpt lat="37.02978750666074" lon="-3.2060627266058472"><ele>1980.4</ele><time>2026-04-22T12:41:33Z</time></trkpt><trkpt lat="37.02969096092546" lon="-3.2060667586786105"><ele>1979.0</ele><time>2026-04-22T12:41:34Z</time></trkpt><trkpt lat="37.0296074110513" lon="-3.206067801797935"><ele>1979.0</ele><time>2026-04-22T12:41:35Z</time></trkpt><trkpt lat="37.0295087459447" lon="-3.2060884741486735"><ele>1979.0</ele><time>2026-04-22T12:41:36Z</time></trkpt><trkpt lat="37.0294188260091" lon="-3.2061600109850534"><ele>1979.0</ele><time>2026-04-22T12:41:37Z</time></trkpt><trkpt lat="37.02930053205752" lon="-3.206218221993006"><ele>1979.0</ele><time>2026-04-22T12:41:38Z</time></trkpt><trkpt lat="37.02916346600455" lon="-3.206245390511274"><ele>1978.5</ele><time>2026-04-22T12:41:39Z</time></trkpt><trkpt lat="37.029021797791266" lon="-3.2062384945497486"><ele>1978.0</ele><time>2026-04-22T12:41:40Z</time></trkpt><trkpt lat="37.02887129227205" lon="-3.2062235248878763"><ele>1977.5</ele><time>2026-04-22T12:41:41Z</time></trkpt><trkpt lat="37.028721014330245" lon="-3.2062061676192752"><ele>1977.0</ele><time>2026-04-22T12:41:42Z</time></trkpt><trkpt lat="37.02857170645691" lon="-3.2061762526300637"><ele>1977.0</ele><time>2026-04-22T12:41:43Z</time></trkpt><trkpt lat="37.02844554162012" lon="-3.2061211747651925"><ele>1977.0</ele><time>2026-04-22T12:41:44Z</time></trkpt><trkpt lat="37.028322353282036" lon="-3.206089883594514"><ele>1977.0</ele><time>2026-04-22T12:41:45Z</time></trkpt><trkpt lat="37.02818021985558" lon="-3.2060862257340434"><ele>1977.0</ele><time>2026-04-22T12:41:46Z</time></trkpt><trkpt lat="37.02803858905209" lon="-3.2060700289159696"><ele>1977.25</ele><time>2026-04-22T12:41:47Z</time></trkpt><trkpt lat="37.02789209624995" lon="-3.206067685453034"><ele>1977.5</ele><time>2026-04-22T12:41:48Z</time></trkpt><trkpt lat="37.02774381284651" lon="-3.2060823131782907"><ele>1977.75</ele><time>2026-04-22T12:41:49Z</time></trkpt><trkpt lat="37.027598764014854" lon="-3.206098382232079"><ele>1978.0</ele><time>2026-04-22T12:41:50Z</time></trkpt><trkpt lat="37.02744729225314" lon="-3.2061155471287326"><ele>1973.75</ele><time>2026-04-22T12:41:51Z</time></trkpt><trkpt lat="37.027310341330015" lon="-3.2061336717548072"><ele>1969.5</ele><time>2026-04-22T12:41:52Z</time></trkpt><trkpt lat="37.02718158739105" lon="-3.2061567328119613"><ele>1965.25</ele><time>2026-04-22T12:41:53Z</time></trkpt><trkpt lat="37.027049138702765" lon="-3.2061825975573295"><ele>1961.0</ele><time>2026-04-22T12:41:54Z</time></trkpt><trkpt lat="37.02691773464731" lon="-3.2062259971585"><ele>1961.0</ele><time>2026-04-22T12:41:55Z</time></trkpt><trkpt lat="37.02679119270535" lon="-3.2063040495657673"><ele>1961.0</ele><time>2026-04-22T12:41:56Z</time></trkpt><trkpt lat="37.02667459956297" lon="-3.20639133143722"><ele>1961.0</ele><time>2026-04-22T12:41:56.999Z</time></trkpt><trkpt lat="37.026581308936784" lon="-3.206477776410361"><ele>1961.0</ele><time>2026-04-22T12:41:57.999Z</time></trkpt><trkpt lat="37.02649155360277" lon="-3.206554761590831"><ele>1966.25</ele><time>2026-04-22T12:41:58.999Z</time></trkpt><trkpt lat="37.02639476181081" lon="-3.2065930883468265"><ele>1971.5</ele><time>2026-04-22T12:41:59.999Z</time></trkpt><trkpt lat="37.026276505321825" lon="-3.2065654096718323"><ele>1976.75</ele><time>2026-04-22T12:42:00.999Z</time></trkpt><trkpt lat="37.02615021070376" lon="-3.2065645133226592"><ele>1982.0</ele><time>2026-04-22T12:42:01.999Z</time></trkpt><trkpt lat="37.026017140931444" lon="-3.206589710229548"><ele>1982.0</ele><time>2026-04-22T12:42:03Z</time></trkpt><trkpt lat="37.02588231983841" lon="-3.2066059182472304"><ele>1982.0</ele><time>2026-04-22T12:42:04Z</time></trkpt><trkpt lat="37.025740290300554" lon="-3.2066255369835464"><ele>1982.0</ele><time>2026-04-22T12:42:05Z</time></trkpt><trkpt lat="37.02559542753378" lon="-3.20663789270753"><ele>1982.0</ele><time>2026-04-22T12:42:06Z</time></trkpt><trkpt lat="37.0254473932303" lon="-3.206646231104585"><ele>1980.25</ele><time>2026-04-22T12:42:07Z</time></trkpt><trkpt lat="37.02530689945421" lon="-3.2066553199613015"><ele>1978.5</ele><time>2026-04-22T12:42:08Z</time></trkpt><trkpt lat="37.02517228736084" lon="-3.206657129915208"><ele>1976.75</ele><time>2026-04-22T12:42:09Z</time></trkpt><trkpt lat="37.025036508830134" lon="-3.206656317038989"><ele>1975.0</ele><time>2026-04-22T12:42:10Z</time></trkpt><trkpt lat="37.02491729370523" lon="-3.2066812157603017"><ele>1972.0</ele><time>2026-04-22T12:42:11Z</time></trkpt><trkpt lat="37.02481589289945" lon="-3.2066875632287353"><ele>1969.0</ele><time>2026-04-22T12:42:12Z</time></trkpt><trkpt lat="37.02472098220644" lon="-3.2066963750688298"><ele>1966.0</ele><time>2026-04-22T12:42:13Z</time></trkpt><trkpt lat="37.024627533141334" lon="-3.2067177488718737"><ele>1963.0</ele><time>2026-04-22T12:42:14Z</time></trkpt><trkpt lat="37.02452437216022" lon="-3.206765400281099"><ele>1960.0</ele><time>2026-04-22T12:42:15Z</time></trkpt><trkpt lat="37.024405988778994" lon="-3.206834087506884"><ele>1960.0</ele><time>2026-04-22T12:42:16Z</time></trkpt><trkpt lat="37.024271968815526" lon="-3.2069148493390416"><ele>1960.0</ele><time>2026-04-22T12:42:17Z</time></trkpt><trkpt lat="37.02412641681182" lon="-3.207006392949021"><ele>1960.0</ele><time>2026-04-22T12:42:18Z</time></trkpt><trkpt lat="37.02397864384561" lon="-3.2070980302186154"><ele>1961.0</ele><time>2026-04-22T12:42:19Z</time></trkpt><trkpt lat="37.02383825648213" lon="-3.2071581221360046"><ele>1962.0</ele><time>2026-04-22T12:42:20Z</time></trkpt><trkpt lat="37.023712574405245" lon="-3.2072358585721426"><ele>1963.0</ele><time>2026-04-22T12:42:21Z</time></trkpt><trkpt lat="37.0235895247221" lon="-3.2072954659721664"><ele>1964.0</ele><time>2026-04-22T12:42:22Z</time></trkpt><trkpt lat="37.0234710138022" lon="-3.20734974787626"><ele>1964.0</ele><time>2026-04-22T12:42:23Z</time></trkpt><trkpt lat="37.023363733403315" lon="-3.2074060057519236"><ele>1964.0</ele><time>2026-04-22T12:42:24Z</time></trkpt><trkpt lat="37.023259976390335" lon="-3.2074627736034436"><ele>1964.0</ele><time>2026-04-22T12:42:25Z</time></trkpt><trkpt lat="37.02315882858191" lon="-3.207523725275413"><ele>1964.0</ele><time>2026-04-22T12:42:26Z</time></trkpt><trkpt lat="37.02306903075851" lon="-3.207600125130792"><ele>1960.6</ele><time>2026-04-22T12:42:27Z</time></trkpt><trkpt lat="37.02299610816463" lon="-3.207691431271521"><ele>1957.2</ele><time>2026-04-22T12:42:28Z</time></trkpt><trkpt lat="37.0229477141623" lon="-3.2077933857293677"><ele>1953.7999999999997</ele><time>2026-04-22T12:42:29Z</time></trkpt><trkpt lat="37.022897598668756" lon="-3.207897715629385"><ele>1950.3999999999999</ele><time>2026-04-22T12:42:30Z</time></trkpt><trkpt lat="37.02286114953076" lon="-3.2080380389328713"><ele>1947.0</ele><time>2026-04-22T12:42:31Z</time></trkpt><trkpt lat="37.022931772569486" lon="-3.208203509735625"><ele>1947.0</ele><time>2026-04-22T12:42:32Z</time></trkpt><trkpt lat="37.02294914618741" lon="-3.2083567237337838"><ele>1947.0</ele><time>2026-04-22T12:42:33Z</time></trkpt><trkpt lat="37.02296554378933" lon="-3.2085184608823787"><ele>1947.0</ele><time>2026-04-22T12:42:34Z</time></trkpt><trkpt lat="37.0230046461016" lon="-3.2086803767252214"><ele>1947.0</ele><time>2026-04-22T12:42:35Z</time></trkpt><trkpt lat="37.0230817363309" lon="-3.208813575686838"><ele>1947.0</ele><time>2026-04-22T12:42:36Z</time></trkpt><trkpt lat="37.02311220088152" lon="-3.2089413984133395"><ele>1946.9999999999998</ele><time>2026-04-22T12:42:37Z</time></trkpt><trkpt lat="37.02313647896189" lon="-3.20905983717616"><ele>1946.9999999999998</ele><time>2026-04-22T12:42:38Z</time></trkpt><trkpt lat="37.02312885178171" lon="-3.2091933752547948"><ele>1947.0</ele><time>2026-04-22T12:42:39Z</time></trkpt><trkpt lat="37.02309947875755" lon="-3.209330846450827"><ele>1947.0</ele><time>2026-04-22T12:42:40Z</time></trkpt><trkpt lat="37.02305905823733" lon="-3.2094757200770125"><ele>1948.25</ele><time>2026-04-22T12:42:41Z</time></trkpt><trkpt lat="37.023016355051695" lon="-3.209625636894186"><ele>1949.5</ele><time>2026-04-22T12:42:42Z</time></trkpt><trkpt lat="37.02296171636853" lon="-3.2097681614566027"><ele>1950.75</ele><time>2026-04-22T12:42:43Z</time></trkpt><trkpt lat="37.02290320535474" lon="-3.2099055987567486"><ele>1952.0</ele><time>2026-04-22T12:42:44Z</time></trkpt><trkpt lat="37.022843478342295" lon="-3.21005609940476"><ele>1952.8</ele><time>2026-04-22T12:42:45Z</time></trkpt><trkpt lat="37.02276015305625" lon="-3.2101679449842524"><ele>1953.6</ele><time>2026-04-22T12:42:46Z</time></trkpt><trkpt lat="37.02269642815711" lon="-3.210259524366134"><ele>1954.3999999999999</ele><time>2026-04-22T12:42:47Z</time></trkpt><trkpt lat="37.022635433532635" lon="-3.2103453641538557"><ele>1955.1999999999998</ele><time>2026-04-22T12:42:48Z</time></trkpt><trkpt lat="37.02251689398009" lon="-3.2103507656566515"><ele>1956.0</ele><time>2026-04-22T12:42:49Z</time></trkpt><trkpt lat="37.02237801286228" lon="-3.2103633575631187"><ele>1956.0</ele><time>2026-04-22T12:42:50Z</time></trkpt><trkpt lat="37.022211419025695" lon="-3.2103829834200597"><ele>1956.0</ele><time>2026-04-22T12:42:51Z</time></trkpt><trkpt lat="37.02202552593436" lon="-3.2104025518456405"><ele>1956.0</ele><time>2026-04-22T12:42:52Z</time></trkpt><trkpt lat="37.02183911153381" lon="-3.210429311912876"><ele>1956.0</ele><time>2026-04-22T12:42:53Z</time></trkpt><trkpt lat="37.02164430814092" lon="-3.2104616487573105"><ele>1956.0</ele><time>2026-04-22T12:42:54Z</time></trkpt><trkpt lat="37.02144869621031" lon="-3.2104927373486185"><ele>1956.0</ele><time>2026-04-22T12:42:55Z</time></trkpt><trkpt lat="37.0212399751485" lon="-3.2105182316686807"><ele>1956.0</ele><time>2026-04-22T12:42:56Z</time></trkpt><trkpt lat="37.021055734887526" lon="-3.2105214820596992"><ele>1956.0</ele><time>2026-04-22T12:42:57Z</time></trkpt><trkpt lat="37.02089219752885" lon="-3.21052075745333"><ele>1956.0</ele><time>2026-04-22T12:42:58Z</time></trkpt><trkpt lat="37.020749662223096" lon="-3.2105260755878415"><ele>1954.5</ele><time>2026-04-22T12:42:59Z</time></trkpt><trkpt lat="37.02060927567947" lon="-3.2105364022223117"><ele>1953.0</ele><time>2026-04-22T12:43:00Z</time></trkpt><trkpt lat="37.020463362706536" lon="-3.210571727147884"><ele>1951.5</ele><time>2026-04-22T12:43:01Z</time></trkpt><trkpt lat="37.0203167596815" lon="-3.2106288935761014"><ele>1950.0</ele><time>2026-04-22T12:43:02Z</time></trkpt><trkpt lat="37.020167068383714" lon="-3.210695470909851"><ele>1954.0</ele><time>2026-04-22T12:43:03Z</time></trkpt><trkpt lat="37.02000541150259" lon="-3.2107683389630974"><ele>1958.0</ele><time>2026-04-22T12:43:04Z</time></trkpt><trkpt lat="37.019839975193484" lon="-3.2108439437599614"><ele>1962.0</ele><time>2026-04-22T12:43:05Z</time></trkpt><trkpt lat="37.01967112837621" lon="-3.210917207533085"><ele>1962.0</ele><time>2026-04-22T12:43:06Z</time></trkpt><trkpt lat="37.01951313781019" lon="-3.2109506722495835"><ele>1962.0</ele><time>2026-04-22T12:43:07Z</time></trkpt><trkpt lat="37.01938013394993" lon="-3.2109853738496636"><ele>1962.0</ele><time>2026-04-22T12:43:08Z</time></trkpt><trkpt lat="37.01925213230407" lon="-3.211005931592101"><ele>1962.0</ele><time>2026-04-22T12:43:09Z</time></trkpt><trkpt lat="37.01914587882405" lon="-3.2110564669637864"><ele>1958.5</ele><time>2026-04-22T12:43:10Z</time></trkpt><trkpt lat="37.01903665505892" lon="-3.2111184626686917"><ele>1955.0</ele><time>2026-04-22T12:43:11Z</time></trkpt><trkpt lat="37.01893008289907" lon="-3.211235409217297"><ele>1951.5</ele><time>2026-04-22T12:43:12Z</time></trkpt><trkpt lat="37.01880499025928" lon="-3.2113738966707492"><ele>1948.0</ele><time>2026-04-22T12:43:12.999Z</time></trkpt><trkpt lat="37.0186643181895" lon="-3.2114899132872914"><ele>1951.8000000000002</ele><time>2026-04-22T12:43:13.999Z</time></trkpt><trkpt lat="37.01854076650294" lon="-3.2115851446473243"><ele>1955.6000000000001</ele><time>2026-04-22T12:43:14.999Z</time></trkpt><trkpt lat="37.01843833271504" lon="-3.2116622973863427"><ele>1959.3999999999999</ele><time>2026-04-22T12:43:15.999Z</time></trkpt><trkpt lat="37.01836179063028" lon="-3.211735142166992"><ele>1963.1999999999998</ele><time>2026-04-22T12:43:16.999Z</time></trkpt><trkpt lat="37.018304942782436" lon="-3.211818734743675"><ele>1967.0</ele><time>2026-04-22T12:43:17.999Z</time></trkpt><trkpt lat="37.018271430458576" lon="-3.21192730747876"><ele>1967.3999999999999</ele><time>2026-04-22T12:43:18.999Z</time></trkpt><trkpt lat="37.01824397006794" lon="-3.2120489498979845"><ele>1967.7999999999997</ele><time>2026-04-22T12:43:19.999Z</time></trkpt><trkpt lat="37.01822086957236" lon="-3.212186194011652"><ele>1968.2</ele><time>2026-04-22T12:43:20.999Z</time></trkpt><trkpt lat="37.01818595349127" lon="-3.2123010854528165"><ele>1968.6</ele><time>2026-04-22T12:43:21.999Z</time></trkpt><trkpt lat="37.0181542813629" lon="-3.2123765483753406"><ele>1969.0</ele><time>2026-04-22T12:43:22.999Z</time></trkpt><trkpt lat="37.01803933601547" lon="-3.212452501248188"><ele>1969.0</ele><time>2026-04-22T12:43:24.999Z</time></trkpt><trkpt lat="37.01794241095807" lon="-3.2124058183777686"><ele>1969.0</ele><time>2026-04-22T12:43:25.999Z</time></trkpt><trkpt lat="37.01788313983614" lon="-3.2122585384043743"><ele>1969.0</ele><time>2026-04-22T12:43:26.999Z</time></trkpt><trkpt lat="37.01781454314313" lon="-3.2121249533181677"><ele>1969.0</ele><time>2026-04-22T12:43:27.999Z</time></trkpt><trkpt lat="37.01771227028607" lon="-3.2119974018386053"><ele>1969.0</ele><time>2026-04-22T12:43:28.999Z</time></trkpt><trkpt lat="37.01759330202446" lon="-3.211910755253134"><ele>1969.0</ele><time>2026-04-22T12:43:29.999Z</time></trkpt><trkpt lat="37.01747424293469" lon="-3.2118194846764476"><ele>1969.0</ele><time>2026-04-22T12:43:30.999Z</time></trkpt><trkpt lat="37.017348585776084" lon="-3.211704897914001"><ele>1969.0</ele><time>2026-04-22T12:43:31.999Z</time></trkpt><trkpt lat="37.01719421954503" lon="-3.211611545971806"><ele>1966.25</ele><time>2026-04-22T12:43:32.999Z</time></trkpt><trkpt lat="37.01705110931555" lon="-3.2115108896952393"><ele>1963.5</ele><time>2026-04-22T12:43:33.999Z</time></trkpt><trkpt lat="37.01692718131909" lon="-3.2114163315138287"><ele>1960.75</ele><time>2026-04-22T12:43:34.999Z</time></trkpt><trkpt lat="37.01681280330678" lon="-3.211320334252762"><ele>1958.0</ele><time>2026-04-22T12:43:35.999Z</time></trkpt><trkpt lat="37.016714058164006" lon="-3.2112327193457775"><ele>1958.0</ele><time>2026-04-22T12:43:36.999Z</time></trkpt><trkpt lat="37.01661199757684" lon="-3.211183575136095"><ele>1958.0</ele><time>2026-04-22T12:43:37.999Z</time></trkpt><trkpt lat="37.01649862516994" lon="-3.211135837572202"><ele>1958.0</ele><time>2026-04-22T12:43:38.999Z</time></trkpt><trkpt lat="37.01634741106206" lon="-3.2111154728395603"><ele>1958.0</ele><time>2026-04-22T12:43:39.999Z</time></trkpt><trkpt lat="37.01616410213886" lon="-3.2111001337314526"><ele>1958.0</ele><time>2026-04-22T12:43:40.999Z</time></trkpt><trkpt lat="37.01597606947146" lon="-3.21104858386102"><ele>1958.0</ele><time>2026-04-22T12:43:41.999Z</time></trkpt><trkpt lat="37.015785968719264" lon="-3.2110148697840692"><ele>1958.0</ele><time>2026-04-22T12:43:42.999Z</time></trkpt><trkpt lat="37.01559636048366" lon="-3.21096170792636"><ele>1958.3333333333333</ele><time>2026-04-22T12:43:43.999Z</time></trkpt><trkpt lat="37.015423701652516" lon="-3.2109175276166604"><ele>1958.6666666666665</ele><time>2026-04-22T12:43:44.999Z</time></trkpt><trkpt lat="37.015265160035995" lon="-3.210884200070661"><ele>1959.0</ele><time>2026-04-22T12:43:45.999Z</time></trkpt><trkpt lat="37.01512090922187" lon="-3.2108624513454447"><ele>1959.0</ele><time>2026-04-22T12:43:46.999Z</time></trkpt><trkpt lat="37.015002508814376" lon="-3.210823142024987"><ele>1959.0</ele><time>2026-04-22T12:43:47.999Z</time></trkpt><trkpt lat="37.01488373148361" lon="-3.2108010031569036"><ele>1959.0</ele><time>2026-04-22T12:43:48.999Z</time></trkpt><trkpt lat="37.01474772954359" lon="-3.210765781568434"><ele>1959.0</ele><time>2026-04-22T12:43:49.999Z</time></trkpt><trkpt lat="37.01460251152837" lon="-3.210794454527321"><ele>1960.0</ele><time>2026-04-22T12:43:50.999Z</time></trkpt><trkpt lat="37.01445854410028" lon="-3.2108191661237195"><ele>1961.0</ele><time>2026-04-22T12:43:51.999Z</time></trkpt><trkpt lat="37.01430857149499" lon="-3.210841143485065"><ele>1962.0</ele><time>2026-04-22T12:43:52.999Z</time></trkpt><trkpt lat="37.014155215702075" lon="-3.2108811146312455"><ele>1959.25</ele><time>2026-04-22T12:43:53.999Z</time></trkpt><trkpt lat="37.01399864820095" lon="-3.2108956209340502"><ele>1956.5</ele><time>2026-04-22T12:43:54.999Z</time></trkpt><trkpt lat="37.01385644304693" lon="-3.2109107852870236"><ele>1953.75</ele><time>2026-04-22T12:43:55.999Z</time></trkpt><trkpt lat="37.013720147767756" lon="-3.2109346657780495"><ele>1951.0</ele><time>2026-04-22T12:43:56.999Z</time></trkpt><trkpt lat="37.01359335055442" lon="-3.2109709747249306"><ele>1951.0</ele><time>2026-04-22T12:43:57.999Z</time></trkpt><trkpt lat="37.01349711631827" lon="-3.2110095618111028"><ele>1951.0</ele><time>2026-04-22T12:43:58.999Z</time></trkpt><trkpt lat="37.01342239075549" lon="-3.2110503315463874"><ele>1951.0</ele><time>2026-04-22T12:43:59.999Z</time></trkpt><trkpt lat="37.01336088807804" lon="-3.2110973981687483"><ele>1951.0</ele><time>2026-04-22T12:44:00.999Z</time></trkpt><trkpt lat="37.01335098481074" lon="-3.211202483736023"><ele>1951.0</ele><time>2026-04-22T12:44:01.999Z</time></trkpt><trkpt lat="37.013354277977164" lon="-3.2113429697078137"><ele>1953.0</ele><time>2026-04-22T12:44:02.999Z</time></trkpt><trkpt lat="37.01335826482972" lon="-3.211491928884841"><ele>1955.0</ele><time>2026-04-22T12:44:03.999Z</time></trkpt><trkpt lat="37.013354256573464" lon="-3.2115964393174283"><ele>1957.0</ele><time>2026-04-22T12:44:04.999Z</time></trkpt><trkpt lat="37.013309708094276" lon="-3.2116927191452556"><ele>1959.0</ele><time>2026-04-22T12:44:05.999Z</time></trkpt><trkpt lat="37.013206033193235" lon="-3.2117545553837665"><ele>1961.0</ele><time>2026-04-22T12:44:06.999Z</time></trkpt><trkpt lat="37.01307333411534" lon="-3.2117200274308377"><ele>1961.0</ele><time>2026-04-22T12:44:07.999Z</time></trkpt><trkpt lat="37.01293887840965" lon="-3.2116972533784383"><ele>1961.0</ele><time>2026-04-22T12:44:08.999Z</time></trkpt><trkpt lat="37.012783463248056" lon="-3.211680481423485"><ele>1961.0</ele><time>2026-04-22T12:44:09.999Z</time></trkpt><trkpt lat="37.01267563481854" lon="-3.2117047537655536"><ele>1961.0</ele><time>2026-04-22T12:44:10.999Z</time></trkpt><trkpt lat="37.012574741372084" lon="-3.2117164878597184"><ele>1962.1999999999998</ele><time>2026-04-22T12:44:11.999Z</time></trkpt><trkpt lat="37.01248336402541" lon="-3.2116868527363063"><ele>1963.3999999999999</ele><time>2026-04-22T12:44:12.999Z</time></trkpt><trkpt lat="37.0123951930148" lon="-3.211611443567526"><ele>1964.6</ele><time>2026-04-22T12:44:13.999Z</time></trkpt><trkpt lat="37.01234017685064" lon="-3.2114716616420913"><ele>1965.8</ele><time>2026-04-22T12:44:14.999Z</time></trkpt><trkpt lat="37.012270547799126" lon="-3.211347536399518"><ele>1967.0</ele><time>2026-04-22T12:44:15.999Z</time></trkpt><trkpt lat="37.01219318465819" lon="-3.211256532203756"><ele>1962.0</ele><time>2026-04-22T12:44:16.999Z</time></trkpt><trkpt lat="37.01209748511978" lon="-3.2112289335985977"><ele>1957.0</ele><time>2026-04-22T12:44:17.999Z</time></trkpt><trkpt lat="37.01199759066478" lon="-3.2112347062542397"><ele>1952.0</ele><time>2026-04-22T12:44:18.999Z</time></trkpt><trkpt lat="37.01186561698941" lon="-3.2112613588904355"><ele>1947.0</ele><time>2026-04-22T12:44:19.999Z</time></trkpt><trkpt lat="37.01171058786033" lon="-3.2112971841110114"><ele>1944.0</ele><time>2026-04-22T12:44:20.999Z</time></trkpt><trkpt lat="37.01154261298113" lon="-3.2113373505594467"><ele>1941.0</ele><time>2026-04-22T12:44:21.999Z</time></trkpt><trkpt lat="37.01134682611292" lon="-3.2113459976077645"><ele>1938.0</ele><time>2026-04-22T12:44:22.999Z</time></trkpt><trkpt lat="37.011143768395705" lon="-3.211402830234754"><ele>1938.0</ele><time>2026-04-22T12:44:23.999Z</time></trkpt><trkpt lat="37.01093923648629" lon="-3.2114556528057254"><ele>1938.0</ele><time>2026-04-22T12:44:24.999Z</time></trkpt><trkpt lat="37.010752195935616" lon="-3.211501208076337"><ele>1938.0</ele><time>2026-04-22T12:44:25.999Z</time></trkpt><trkpt lat="37.01057047206984" lon="-3.211537078671033"><ele>1943.0</ele><time>2026-04-22T12:44:26.999Z</time></trkpt><trkpt lat="37.010397342128876" lon="-3.2115674086459145"><ele>1948.0</ele><time>2026-04-22T12:44:27.999Z</time></trkpt><trkpt lat="37.01022354092496" lon="-3.2115935146261547"><ele>1953.0</ele><time>2026-04-22T12:44:28.999Z</time></trkpt><trkpt lat="37.0100479807426" lon="-3.211626595234761"><ele>1952.3333333333335</ele><time>2026-04-22T12:44:29.999Z</time></trkpt><trkpt lat="37.00988051646741" lon="-3.2116772661754216"><ele>1951.6666666666667</ele><time>2026-04-22T12:44:30.999Z</time></trkpt><trkpt lat="37.00972391614463" lon="-3.2117337396225656"><ele>1951.0</ele><time>2026-04-22T12:44:31.999Z</time></trkpt><trkpt lat="37.009585570821436" lon="-3.211775732074482"><ele>1951.0</ele><time>2026-04-22T12:44:32.999Z</time></trkpt><trkpt lat="37.00945390017397" lon="-3.2117881801673183"><ele>1951.0</ele><time>2026-04-22T12:44:33.999Z</time></trkpt><trkpt lat="37.00931884453033" lon="-3.211738802746773"><ele>1951.0</ele><time>2026-04-22T12:44:34.999Z</time></trkpt><trkpt lat="37.009166736482996" lon="-3.2116832538786797"><ele>1951.0</ele><time>2026-04-22T12:44:35.999Z</time></trkpt><trkpt lat="37.00900351087929" lon="-3.211602645275882"><ele>1951.0</ele><time>2026-04-22T12:44:36.999Z</time></trkpt><trkpt lat="37.008852349583385" lon="-3.2115629843606075"><ele>1951.0</ele><time>2026-04-22T12:44:37.999Z</time></trkpt><trkpt lat="37.008715779452714" lon="-3.211511690867638"><ele>1951.0</ele><time>2026-04-22T12:44:38.999Z</time></trkpt><trkpt lat="37.00857738493753" lon="-3.211497400389457"><ele>1951.0</ele><time>2026-04-22T12:44:39.999Z</time></trkpt><trkpt lat="37.00842290157298" lon="-3.2115161378124606"><ele>1952.3333333333335</ele><time>2026-04-22T12:44:40.999Z</time></trkpt><trkpt lat="37.00826356875033" lon="-3.211555870911128"><ele>1953.6666666666665</ele><time>2026-04-22T12:44:41.999Z</time></trkpt><trkpt lat="37.008081462166366" lon="-3.211574825609111"><ele>1955.0</ele><time>2026-04-22T12:44:42.999Z</time></trkpt><trkpt lat="37.00789227700681" lon="-3.2115749732916004"><ele>1955.0</ele><time>2026-04-22T12:44:43.999Z</time></trkpt><trkpt lat="37.007697831150566" lon="-3.2115626820128136"><ele>1955.0</ele><time>2026-04-22T12:44:44.999Z</time></trkpt><trkpt lat="37.007517889842276" lon="-3.211544405336667"><ele>1955.0</ele><time>2026-04-22T12:44:45.999Z</time></trkpt><trkpt lat="37.00736111281385" lon="-3.2115242069802084"><ele>1952.25</ele><time>2026-04-22T12:44:46.999Z</time></trkpt><trkpt lat="37.00722300876066" lon="-3.2115077507063337"><ele>1949.5</ele><time>2026-04-22T12:44:47.999Z</time></trkpt><trkpt lat="37.00709139386535" lon="-3.2114998938613764"><ele>1946.75</ele><time>2026-04-22T12:44:48.999Z</time></trkpt><trkpt lat="37.006972784412255" lon="-3.2115010177609107"><ele>1944.0</ele><time>2026-04-22T12:44:49.999Z</time></trkpt><trkpt lat="37.00685963123384" lon="-3.2115212065283947"><ele>1944.0</ele><time>2026-04-22T12:44:50.999Z</time></trkpt><trkpt lat="37.006737729640385" lon="-3.2115828664841826"><ele>1944.0</ele><time>2026-04-22T12:44:51.999Z</time></trkpt><trkpt lat="37.00658969240201" lon="-3.211680309396451"><ele>1944.0</ele><time>2026-04-22T12:44:52.999Z</time></trkpt><trkpt lat="37.00642450899255" lon="-3.2117923604220517"><ele>1939.6666666666665</ele><time>2026-04-22T12:44:53.999Z</time></trkpt><trkpt lat="37.00626351195116" lon="-3.2119035665608786"><ele>1935.3333333333333</ele><time>2026-04-22T12:44:54.999Z</time></trkpt><trkpt lat="37.00612911399386" lon="-3.2120168892396905"><ele>1931.0</ele><time>2026-04-22T12:44:55.999Z</time></trkpt><trkpt lat="37.00598831001409" lon="-3.2121430481059465"><ele>1931.0</ele><time>2026-04-22T12:44:56.999Z</time></trkpt><trkpt lat="37.005836610673015" lon="-3.212276533388874"><ele>1931.0</ele><time>2026-04-22T12:44:57.999Z</time></trkpt><trkpt lat="37.00567575082084" lon="-3.2124003110303256"><ele>1931.0</ele><time>2026-04-22T12:44:58.999Z</time></trkpt><trkpt lat="37.0055083232929" lon="-3.2124886700423017"><ele>1932.25</ele><time>2026-04-22T12:44:59.999Z</time></trkpt><trkpt lat="37.00538369305289" lon="-3.2125837042419554"><ele>1933.5</ele><time>2026-04-22T12:45:00.999Z</time></trkpt><trkpt lat="37.0052584603724" lon="-3.2126619621891876"><ele>1934.75</ele><time>2026-04-22T12:45:01.999Z</time></trkpt><trkpt lat="37.00509632174031" lon="-3.2126446899223517"><ele>1936.0</ele><time>2026-04-22T12:45:02.999Z</time></trkpt><trkpt lat="37.004922558504546" lon="-3.2126583819360515"><ele>1936.0</ele><time>2026-04-22T12:45:03.999Z</time></trkpt><trkpt lat="37.00474630391522" lon="-3.2126559788768727"><ele>1936.0</ele><time>2026-04-22T12:45:04.999Z</time></trkpt><trkpt lat="37.004570384735736" lon="-3.212659962593663"><ele>1936.0</ele><time>2026-04-22T12:45:05.999Z</time></trkpt><trkpt lat="37.00439804491922" lon="-3.2126816950465065"><ele>1936.0</ele><time>2026-04-22T12:45:06.999Z</time></trkpt><trkpt lat="37.00421907941712" lon="-3.2127250522086186"><ele>1936.0</ele><time>2026-04-22T12:45:07.999Z</time></trkpt><trkpt lat="37.004042324230554" lon="-3.212756639777562"><ele>1936.0</ele><time>2026-04-22T12:45:08.999Z</time></trkpt><trkpt lat="37.003856526041496" lon="-3.212764578878493"><ele>1936.6666666666667</ele><time>2026-04-22T12:45:09.999Z</time></trkpt><trkpt lat="37.00366352809278" lon="-3.2127280203490045"><ele>1937.3333333333335</ele><time>2026-04-22T12:45:10.999Z</time></trkpt><trkpt lat="37.003466811651144" lon="-3.2126948404868876"><ele>1938.0</ele><time>2026-04-22T12:45:11.999Z</time></trkpt><trkpt lat="37.00327588511844" lon="-3.2126521245247788"><ele>1939.0</ele><time>2026-04-22T12:45:12.999Z</time></trkpt><trkpt lat="37.00309032995458" lon="-3.212571615099767"><ele>1940.0</ele><time>2026-04-22T12:45:13.999Z</time></trkpt><trkpt lat="37.002899225087525" lon="-3.212509980123634"><ele>1941.0</ele><time>2026-04-22T12:45:14.999Z</time></trkpt><trkpt lat="37.00269926962379" lon="-3.2124949785988197"><ele>1941.0</ele><time>2026-04-22T12:45:15.999Z</time></trkpt><trkpt lat="37.00250215838856" lon="-3.2124639551689866"><ele>1941.0</ele><time>2026-04-22T12:45:16.999Z</time></trkpt><trkpt lat="37.00229685011563" lon="-3.2124353028416532"><ele>1941.0</ele><time>2026-04-22T12:45:17.999Z</time></trkpt><trkpt lat="37.00212581203645" lon="-3.21241034667292"><ele>1941.0</ele><time>2026-04-22T12:45:18.999Z</time></trkpt><trkpt lat="37.00198451739144" lon="-3.212358302713578"><ele>1941.0</ele><time>2026-04-22T12:45:19.999Z</time></trkpt><trkpt lat="37.00185512360953" lon="-3.212325584919909"><ele>1941.0</ele><time>2026-04-22T12:45:20.999Z</time></trkpt><trkpt lat="37.00174140896333" lon="-3.212322817037476"><ele>1941.0</ele><time>2026-04-22T12:45:21.999Z</time></trkpt><trkpt lat="37.00161982289793" lon="-3.212323323634495"><ele>1938.3333333333335</ele><time>2026-04-22T12:45:22.999Z</time></trkpt><trkpt lat="37.001472340295486" lon="-3.212372234972745"><ele>1935.6666666666667</ele><time>2026-04-22T12:45:23.999Z</time></trkpt><trkpt lat="37.00129670114862" lon="-3.2124282761412672"><ele>1933.0</ele><time>2026-04-22T12:45:24.999Z</time></trkpt><trkpt lat="37.00113157068998" lon="-3.212499616492788"><ele>1933.0</ele><time>2026-04-22T12:45:25.999Z</time></trkpt><trkpt lat="37.00100127139359" lon="-3.2125920619124786"><ele>1933.0</ele><time>2026-04-22T12:45:26.999Z</time></trkpt><trkpt lat="37.000839722056654" lon="-3.212645242679584"><ele>1933.0</ele><time>2026-04-22T12:45:27.999Z</time></trkpt><trkpt lat="37.0006635595586" lon="-3.2126215613078184"><ele>1931.6666666666667</ele><time>2026-04-22T12:45:28.999Z</time></trkpt><trkpt lat="37.00046660448149" lon="-3.2125963507495636"><ele>1930.3333333333335</ele><time>2026-04-22T12:45:29.999Z</time></trkpt><trkpt lat="37.00025727054226" lon="-3.2125779525867553"><ele>1929.0</ele><time>2026-04-22T12:45:30.999Z</time></trkpt><trkpt lat="37.0000451153126" lon="-3.2125311387301014"><ele>1929.0</ele><time>2026-04-22T12:45:31.999Z</time></trkpt><trkpt lat="36.9998316774011" lon="-3.212474688922203"><ele>1929.0</ele><time>2026-04-22T12:45:32.999Z</time></trkpt><trkpt lat="36.99962920302472" lon="-3.2124577111177364"><ele>1929.0</ele><time>2026-04-22T12:45:33.999Z</time></trkpt><trkpt lat="36.999429582879834" lon="-3.212443526287866"><ele>1929.0</ele><time>2026-04-22T12:45:34.999Z</time></trkpt><trkpt lat="36.999225362100084" lon="-3.21243016697139"><ele>1929.0</ele><time>2026-04-22T12:45:35.999Z</time></trkpt><trkpt lat="36.99902743420678" lon="-3.212418360493036"><ele>1929.0</ele><time>2026-04-22T12:45:36.999Z</time></trkpt><trkpt lat="36.99884891493247" lon="-3.2124053324553357"><ele>1927.6666666666665</ele><time>2026-04-22T12:45:37.999Z</time></trkpt><trkpt lat="36.998667978193176" lon="-3.2124116048983913"><ele>1926.3333333333333</ele><time>2026-04-22T12:45:38.999Z</time></trkpt><trkpt lat="36.99847175737743" lon="-3.212399664038836"><ele>1925.0</ele><time>2026-04-22T12:45:39.999Z</time></trkpt><trkpt lat="36.99829169817176" lon="-3.2123853385285654"><ele>1925.0</ele><time>2026-04-22T12:45:40.999Z</time></trkpt><trkpt lat="36.99812723228767" lon="-3.212355239886119"><ele>1925.0</ele><time>2026-04-22T12:45:41.999Z</time></trkpt><trkpt lat="36.99796973518643" lon="-3.212332626519123"><ele>1925.0</ele><time>2026-04-22T12:45:42.999Z</time></trkpt><trkpt lat="36.99780359793071" lon="-3.2123098724556147"><ele>1922.3333333333333</ele><time>2026-04-22T12:45:43.999Z</time></trkpt><trkpt lat="36.99763516267" lon="-3.212305102088494"><ele>1919.6666666666665</ele><time>2026-04-22T12:45:44.999Z</time></trkpt><trkpt lat="36.99748044851442" lon="-3.212329767313625"><ele>1917.0</ele><time>2026-04-22T12:45:45.999Z</time></trkpt><trkpt lat="36.99732948865937" lon="-3.212307464368999"><ele>1909.0</ele><time>2026-04-22T12:45:46.999Z</time></trkpt><trkpt lat="36.997177055806624" lon="-3.212240266060028"><ele>1901.0</ele><time>2026-04-22T12:45:47.999Z</time></trkpt><trkpt lat="36.99701738279592" lon="-3.2122210629297827"><ele>1893.0</ele><time>2026-04-22T12:45:48.999Z</time></trkpt><trkpt lat="36.996874919897586" lon="-3.212194154962981"><ele>1893.0</ele><time>2026-04-22T12:45:49.999Z</time></trkpt><trkpt lat="36.99674730751415" lon="-3.2121752991671486"><ele>1893.0</ele><time>2026-04-22T12:45:50.999Z</time></trkpt><trkpt lat="36.99662755557051" lon="-3.21216216532249"><ele>1893.0</ele><time>2026-04-22T12:45:51.999Z</time></trkpt><trkpt lat="36.996520270569015" lon="-3.212156977697063"><ele>1893.0</ele><time>2026-04-22T12:45:52.999Z</time></trkpt><trkpt lat="36.99639988415537" lon="-3.212165722476484"><ele>1892.6666666666665</ele><time>2026-04-22T12:45:53.999Z</time></trkpt><trkpt lat="36.996260078119754" lon="-3.212196559237107"><ele>1892.3333333333333</ele><time>2026-04-22T12:45:54.999Z</time></trkpt><trkpt lat="36.99610158756189" lon="-3.212237529863283"><ele>1892.0</ele><time>2026-04-22T12:45:55.999Z</time></trkpt><trkpt lat="36.99593957432425" lon="-3.21227735482053"><ele>1890.5</ele><time>2026-04-22T12:45:56.999Z</time></trkpt><trkpt lat="36.995792483362465" lon="-3.2123165101470517"><ele>1889.0</ele><time>2026-04-22T12:45:57.999Z</time></trkpt><trkpt lat="36.99566524668662" lon="-3.2123534932608697"><ele>1887.5</ele><time>2026-04-22T12:45:58.999Z</time></trkpt><trkpt lat="36.99556295828125" lon="-3.21238659923088"><ele>1886.0</ele><time>2026-04-22T12:45:59.999Z</time></trkpt><trkpt lat="36.99547096915698" lon="-3.212428074456397"><ele>1890.5</ele><time>2026-04-22T12:46:00.999Z</time></trkpt><trkpt lat="36.99538330338979" lon="-3.2124904481941905"><ele>1895.0</ele><time>2026-04-22T12:46:01.999Z</time></trkpt><trkpt lat="36.99527642374871" lon="-3.2125860469908796"><ele>1899.5</ele><time>2026-04-22T12:46:02.999Z</time></trkpt><trkpt lat="36.99516876812517" lon="-3.2126868535742035"><ele>1904.0</ele><time>2026-04-22T12:46:03.999Z</time></trkpt><trkpt lat="36.99508383533674" lon="-3.2127733834940386"><ele>1903.9999999999998</ele><time>2026-04-22T12:46:04.999Z</time></trkpt><trkpt lat="36.9950131844128" lon="-3.2128463805393315"><ele>1904.0</ele><time>2026-04-22T12:46:05.999Z</time></trkpt><trkpt lat="36.99495866506993" lon="-3.2129080699387615"><ele>1904.0</ele><time>2026-04-22T12:46:06.999Z</time></trkpt><trkpt lat="36.994898953633424" lon="-3.2129672258759685"><ele>1904.0</ele><time>2026-04-22T12:46:07.999Z</time></trkpt><trkpt lat="36.994881052520576" lon="-3.213055929744181"><ele>1903.9999999999998</ele><time>2026-04-22T12:46:08.999Z</time></trkpt><trkpt lat="36.994915364781725" lon="-3.21314200675875"><ele>1904.0</ele><time>2026-04-22T12:46:09.999Z</time></trkpt><trkpt lat="36.994928979474196" lon="-3.2132532011053767"><ele>1902.6</ele><time>2026-04-22T12:46:10.999Z</time></trkpt><trkpt lat="36.99492850713898" lon="-3.2133507032280995"><ele>1901.2</ele><time>2026-04-22T12:46:11.999Z</time></trkpt><trkpt lat="36.99489041551017" lon="-3.213473868569511"><ele>1899.7999999999997</ele><time>2026-04-22T12:46:13.999Z</time></trkpt><trkpt lat="36.99482100474382" lon="-3.213497313836357"><ele>1898.3999999999999</ele><time>2026-04-22T12:46:15Z</time></trkpt><trkpt lat="36.9947370628652" lon="-3.2134198508009355"><ele>1897.0</ele><time>2026-04-22T12:46:16Z</time></trkpt><trkpt lat="36.994640840592815" lon="-3.2133789251569493"><ele>1897.0</ele><time>2026-04-22T12:46:17Z</time></trkpt><trkpt lat="36.99451137253835" lon="-3.213333723080693"><ele>1897.0</ele><time>2026-04-22T12:46:18Z</time></trkpt><trkpt lat="36.99439065827095" lon="-3.213290430982448"><ele>1897.0</ele><time>2026-04-22T12:46:19Z</time></trkpt><trkpt lat="36.994292676999954" lon="-3.21321320885642"><ele>1897.0</ele><time>2026-04-22T12:46:20Z</time></trkpt><trkpt lat="36.99420643665849" lon="-3.2131937731046842"><ele>1896.1666666666667</ele><time>2026-04-22T12:46:21Z</time></trkpt><trkpt lat="36.994116656785984" lon="-3.2131903238266433"><ele>1895.3333333333335</ele><time>2026-04-22T12:46:23Z</time></trkpt><trkpt lat="36.99405399177413" lon="-3.213199718436547"><ele>1894.5</ele><time>2026-04-22T12:46:27Z</time></trkpt><trkpt lat="36.99397860997474" lon="-3.213186500645273"><ele>1893.6666666666665</ele><time>2026-04-22T13:25:57Z</time></trkpt><trkpt lat="36.993860962350965" lon="-3.213229238449857"><ele>1892.8333333333333</ele><time>2026-04-22T13:25:59Z</time></trkpt><trkpt lat="36.99379710484368" lon="-3.213248276341354"><ele>1892.0</ele><time>2026-04-22T13:26:00Z</time></trkpt><trkpt lat="36.99367313132676" lon="-3.2132666327363406"><ele>1892.0</ele><time>2026-04-22T13:26:02Z</time></trkpt><trkpt lat="36.99360427030207" lon="-3.2133002160891673"><ele>1891.9999999999998</ele><time>2026-04-22T13:26:03Z</time></trkpt><trkpt lat="36.993515119470885" lon="-3.2133093858623836"><ele>1891.9999999999998</ele><time>2026-04-22T13:26:04Z</time></trkpt><trkpt lat="36.99341981022821" lon="-3.2132906787824034"><ele>1892.0</ele><time>2026-04-22T13:26:05Z</time></trkpt><trkpt lat="36.9933126867181" lon="-3.2133013003975672"><ele>1892.0</ele><time>2026-04-22T13:26:06Z</time></trkpt><trkpt lat="36.99322414710891" lon="-3.213271567789112"><ele>1891.0</ele><time>2026-04-22T13:26:07Z</time></trkpt><trkpt lat="36.993145913755285" lon="-3.2132886026918954"><ele>1889.9999999999998</ele><time>2026-04-22T13:26:08Z</time></trkpt><trkpt lat="36.993064193289555" lon="-3.2133046957142737"><ele>1888.9999999999998</ele><time>2026-04-22T13:26:09.001Z</time></trkpt><trkpt lat="36.99296560007508" lon="-3.213341255044052"><ele>1888.0</ele><time>2026-04-22T13:26:10.001Z</time></trkpt><trkpt lat="36.9928613117727" lon="-3.2133761073169205"><ele>1887.0</ele><time>2026-04-22T13:26:11.001Z</time></trkpt><trkpt lat="36.99276396207685" lon="-3.213392196534012"><ele>1887.0</ele><time>2026-04-22T13:26:12.001Z</time></trkpt><trkpt lat="36.99266826197905" lon="-3.2133959319927063"><ele>1886.9999999999998</ele><time>2026-04-22T13:26:13.001Z</time></trkpt><trkpt lat="36.99256623673234" lon="-3.213367791368504"><ele>1886.9999999999998</ele><time>2026-04-22T13:26:14.001Z</time></trkpt><trkpt lat="36.992474411666585" lon="-3.213354951255649"><ele>1887.0</ele><time>2026-04-22T13:26:15.001Z</time></trkpt><trkpt lat="36.99238858288802" lon="-3.213338336582945"><ele>1887.0</ele><time>2026-04-22T13:26:16.001Z</time></trkpt><trkpt lat="36.99229532900038" lon="-3.213314913058396"><ele>1886.1666666666667</ele><time>2026-04-22T13:26:17.001Z</time></trkpt><trkpt lat="36.9921907526362" lon="-3.2132924903814835"><ele>1885.3333333333335</ele><time>2026-04-22T13:26:18.001Z</time></trkpt><trkpt lat="36.992113918122186" lon="-3.2132885731112713"><ele>1884.5</ele><time>2026-04-22T13:26:19.001Z</time></trkpt><trkpt lat="36.99202977795475" lon="-3.2133404519191395"><ele>1883.6666666666667</ele><time>2026-04-22T13:26:20.001Z</time></trkpt><trkpt lat="36.99195648959857" lon="-3.2133473063791076"><ele>1882.8333333333335</ele><time>2026-04-22T13:26:21.001Z</time></trkpt><trkpt lat="36.99187532943521" lon="-3.21332597486512"><ele>1882.0</ele><time>2026-04-22T13:26:22.001Z</time></trkpt><trkpt lat="36.99179581120775" lon="-3.2132616356537524"><ele>1882.0</ele><time>2026-04-22T13:26:23.001Z</time></trkpt><trkpt lat="36.991722779423135" lon="-3.213214610541"><ele>1881.9999999999998</ele><time>2026-04-22T13:26:24.001Z</time></trkpt><trkpt lat="36.99163298008769" lon="-3.213184037172317"><ele>1881.9999999999998</ele><time>2026-04-22T13:26:25.001Z</time></trkpt><trkpt lat="36.991522535411846" lon="-3.21316213313931"><ele>1882.0</ele><time>2026-04-22T13:26:26.001Z</time></trkpt><trkpt lat="36.99141273708439" lon="-3.213141805884091"><ele>1882.0</ele><time>2026-04-22T13:26:27.001Z</time></trkpt><trkpt lat="36.991314479888395" lon="-3.213128917067518"><ele>1877.3999999999999</ele><time>2026-04-22T13:26:28.001Z</time></trkpt><trkpt lat="36.99121944693081" lon="-3.2131091539094117"><ele>1872.7999999999997</ele><time>2026-04-22T13:26:29.001Z</time></trkpt><trkpt lat="36.99112824296588" lon="-3.2130895175991485"><ele>1868.2</ele><time>2026-04-22T13:26:30.001Z</time></trkpt><trkpt lat="36.99103539846747" lon="-3.213065206948563"><ele>1863.6</ele><time>2026-04-22T13:26:31.001Z</time></trkpt><trkpt lat="36.99094400187685" lon="-3.21304347906361"><ele>1859.0</ele><time>2026-04-22T13:26:32.001Z</time></trkpt><trkpt lat="36.990850825435864" lon="-3.213025362225453"><ele>1858.8000000000002</ele><time>2026-04-22T13:26:33.001Z</time></trkpt><trkpt lat="36.99074529653951" lon="-3.212995587173844"><ele>1858.6000000000001</ele><time>2026-04-22T13:26:34.001Z</time></trkpt><trkpt lat="36.990646405707444" lon="-3.21298558491997"><ele>1858.4</ele><time>2026-04-22T13:26:35.001Z</time></trkpt><trkpt lat="36.99055219292533" lon="-3.2129651927864122"><ele>1858.2</ele><time>2026-04-22T13:26:36.001Z</time></trkpt><trkpt lat="36.990465310462014" lon="-3.2129466047758766"><ele>1858.0</ele><time>2026-04-22T13:26:37.001Z</time></trkpt><trkpt lat="36.99037732927298" lon="-3.212933093126251"><ele>1858.0000000000002</ele><time>2026-04-22T13:26:38.001Z</time></trkpt><trkpt lat="36.9902857646023" lon="-3.212924275600651"><ele>1858.0</ele><time>2026-04-22T13:26:39.001Z</time></trkpt><trkpt lat="36.990205143054666" lon="-3.2129259773621786"><ele>1858.0</ele><time>2026-04-22T13:26:40.001Z</time></trkpt><trkpt lat="36.99012875853308" lon="-3.2129279013477303"><ele>1858.0</ele><time>2026-04-22T13:26:41.001Z</time></trkpt><trkpt lat="36.99006010857104" lon="-3.2129467049201614"><ele>1858.0000000000002</ele><time>2026-04-22T13:26:42Z</time></trkpt><trkpt lat="36.99000711146828" lon="-3.213020670157391"><ele>1858.0</ele><time>2026-04-22T13:26:43Z</time></trkpt><trkpt lat="36.989889356126135" lon="-3.213036324692078"><ele>1857.4</ele><time>2026-04-22T13:26:45Z</time></trkpt><trkpt lat="36.9898005296091" lon="-3.212987677778502"><ele>1856.8000000000002</ele><time>2026-04-22T13:26:47Z</time></trkpt><trkpt lat="36.98973512489158" lon="-3.2128346587231906"><ele>1856.2</ele><time>2026-04-22T13:26:49Z</time></trkpt><trkpt lat="36.98968436245228" lon="-3.2127572914110765"><ele>1855.6</ele><time>2026-04-22T13:26:50Z</time></trkpt><trkpt lat="36.989623738676094" lon="-3.2127197187165852"><ele>1855.0</ele><time>2026-04-22T13:26:51Z</time></trkpt><trkpt lat="36.989539640386184" lon="-3.212714069086355"><ele>1855.0</ele><time>2026-04-22T13:26:52Z</time></trkpt><trkpt lat="36.989450923256946" lon="-3.2127628764710034"><ele>1855.0</ele><time>2026-04-22T13:26:53Z</time></trkpt><trkpt lat="36.98937463986536" lon="-3.2128162019961812"><ele>1855.0</ele><time>2026-04-22T13:26:54Z</time></trkpt><trkpt lat="36.9892864161208" lon="-3.2128680202344873"><ele>1855.0</ele><time>2026-04-22T13:26:55Z</time></trkpt><trkpt lat="36.98919977389381" lon="-3.21289963684284"><ele>1855.0</ele><time>2026-04-22T13:26:56Z</time></trkpt><trkpt lat="36.989105699448544" lon="-3.212942837860461"><ele>1854.8</ele><time>2026-04-22T13:26:57Z</time></trkpt><trkpt lat="36.989002376970426" lon="-3.2129407657192615"><ele>1854.6</ele><time>2026-04-22T13:26:58Z</time></trkpt><trkpt lat="36.98889674974469" lon="-3.212894391060791"><ele>1854.4</ele><time>2026-04-22T13:26:59Z</time></trkpt><trkpt lat="36.98880809681055" lon="-3.2128468282259144"><ele>1854.2</ele><time>2026-04-22T13:27:00Z</time></trkpt><trkpt lat="36.988733143775754" lon="-3.2128078948221455"><ele>1854.0</ele><time>2026-04-22T13:27:01Z</time></trkpt><trkpt lat="36.9886656935731" lon="-3.2127617401201363"><ele>1854.0</ele><time>2026-04-22T13:27:02Z</time></trkpt><trkpt lat="36.988592359823244" lon="-3.21272060855578"><ele>1854.0</ele><time>2026-04-22T13:27:03Z</time></trkpt><trkpt lat="36.98851673128897" lon="-3.212726827044128"><ele>1854.0</ele><time>2026-04-22T13:27:04Z</time></trkpt><trkpt lat="36.98843444232111" lon="-3.2127071895466304"><ele>1854.0</ele><time>2026-04-22T13:27:05Z</time></trkpt><trkpt lat="36.98834120952517" lon="-3.2127328881867845"><ele>1854.0</ele><time>2026-04-22T13:27:06Z</time></trkpt><trkpt lat="36.98826079648615" lon="-3.2127003689850273"><ele>1854.0</ele><time>2026-04-22T13:27:07Z</time></trkpt><trkpt lat="36.98816932839251" lon="-3.212668496697028"><ele>1853.8333333333333</ele><time>2026-04-22T13:27:08Z</time></trkpt><trkpt lat="36.988091504403286" lon="-3.2126144364179146"><ele>1853.6666666666665</ele><time>2026-04-22T13:27:09Z</time></trkpt><trkpt lat="36.98801909191701" lon="-3.2125697702680256"><ele>1853.5</ele><time>2026-04-22T13:27:10Z</time></trkpt><trkpt lat="36.98793764603245" lon="-3.2125403792923772"><ele>1853.3333333333333</ele><time>2026-04-22T13:27:11Z</time></trkpt><trkpt lat="36.98784159542074" lon="-3.212549954000723"><ele>1853.1666666666665</ele><time>2026-04-22T13:27:12Z</time></trkpt><trkpt lat="36.9877548023947" lon="-3.2125501192155617"><ele>1853.0</ele><time>2026-04-22T13:27:13Z</time></trkpt><trkpt lat="36.98766684466979" lon="-3.2125486487925126"><ele>1852.9999999999998</ele><time>2026-04-22T13:27:14Z</time></trkpt><trkpt lat="36.98758017984697" lon="-3.2125713328390173"><ele>1853.0</ele><time>2026-04-22T13:27:15Z</time></trkpt><trkpt lat="36.987495452472054" lon="-3.212595575581321"><ele>1853.0</ele><time>2026-04-22T13:27:16Z</time></trkpt><trkpt lat="36.98743506844845" lon="-3.212654331291445"><ele>1853.0</ele><time>2026-04-22T13:27:17Z</time></trkpt><trkpt lat="36.98737176455302" lon="-3.212705340107416"><ele>1852.9999999999998</ele><time>2026-04-22T13:27:18Z</time></trkpt><trkpt lat="36.98729311503733" lon="-3.2127514157103554"><ele>1853.0</ele><time>2026-04-22T13:27:19Z</time></trkpt><trkpt lat="36.98722683891755" lon="-3.2128238990230877"><ele>1853.0</ele><time>2026-04-22T13:27:20Z</time></trkpt><trkpt lat="36.98715250055694" lon="-3.2129062222944627"><ele>1853.0000000000002</ele><time>2026-04-22T13:27:21Z</time></trkpt><trkpt lat="36.98708583612709" lon="-3.212995917721106"><ele>1853.0000000000002</ele><time>2026-04-22T13:27:22Z</time></trkpt><trkpt lat="36.98700359004661" lon="-3.213064678682637"><ele>1853.0</ele><time>2026-04-22T13:27:23Z</time></trkpt><trkpt lat="36.98692805113628" lon="-3.2131333366454515"><ele>1853.0</ele><time>2026-04-22T13:27:24Z</time></trkpt><trkpt lat="36.98684771844716" lon="-3.2131897725540988"><ele>1853.0</ele><time>2026-04-22T13:27:25Z</time></trkpt><trkpt lat="36.986760947150174" lon="-3.2132408730504567"><ele>1853.0000000000002</ele><time>2026-04-22T13:27:26Z</time></trkpt><trkpt lat="36.98666672229011" lon="-3.213296034560177"><ele>1853.0000000000002</ele><time>2026-04-22T13:27:27Z</time></trkpt><trkpt lat="36.98657091162821" lon="-3.2133642111163705"><ele>1853.0</ele><time>2026-04-22T13:27:28Z</time></trkpt><trkpt lat="36.98647214873079" lon="-3.213445818839757"><ele>1853.0</ele><time>2026-04-22T13:27:29Z</time></trkpt><trkpt lat="36.986384639828664" lon="-3.2135256339751375"><ele>1853.0</ele><time>2026-04-22T13:27:30Z</time></trkpt><trkpt lat="36.98628131193424" lon="-3.2135853166668387"><ele>1853.0000000000002</ele><time>2026-04-22T13:27:31Z</time></trkpt><trkpt lat="36.9861948218198" lon="-3.213655972117826"><ele>1853.0000000000002</ele><time>2026-04-22T13:27:32Z</time></trkpt><trkpt lat="36.986115697994464" lon="-3.213720216442769"><ele>1853.0</ele><time>2026-04-22T13:27:33Z</time></trkpt><trkpt lat="36.98604641644654" lon="-3.2137783846789385"><ele>1853.0</ele><time>2026-04-22T13:27:34Z</time></trkpt><trkpt lat="36.985966920467106" lon="-3.2138430463689884"><ele>1853.0</ele><time>2026-04-22T13:27:35Z</time></trkpt><trkpt lat="36.985883770324996" lon="-3.2139062021560316"><ele>1853.0000000000002</ele><time>2026-04-22T13:27:36Z</time></trkpt><trkpt lat="36.98578931146581" lon="-3.2139852934146025"><ele>1853.0000000000002</ele><time>2026-04-22T13:27:37Z</time></trkpt><trkpt lat="36.98569397765176" lon="-3.2140622153712495"><ele>1853.0</ele><time>2026-04-22T13:27:38Z</time></trkpt><trkpt lat="36.98560360770597" lon="-3.214134558863619"><ele>1853.0</ele><time>2026-04-22T13:27:39Z</time></trkpt><trkpt lat="36.98550962896302" lon="-3.21420535077815"><ele>1853.6000000000001</ele><time>2026-04-22T13:27:40Z</time></trkpt><trkpt lat="36.98542565482154" lon="-3.214265936916011"><ele>1854.2000000000003</ele><time>2026-04-22T13:27:41Z</time></trkpt><trkpt lat="36.98536452504592" lon="-3.214313915818885"><ele>1854.8</ele><time>2026-04-22T13:27:42Z</time></trkpt><trkpt lat="36.98528101949307" lon="-3.2144197607415768"><ele>1855.4</ele><time>2026-04-22T13:27:44Z</time></trkpt><trkpt lat="36.98526034086601" lon="-3.2144962465288343"><ele>1856.0</ele><time>2026-04-22T13:27:45Z</time></trkpt><trkpt lat="36.98525851922763" lon="-3.214629071714636"><ele>1855.9999999999998</ele><time>2026-04-22T13:27:47Z</time></trkpt><trkpt lat="36.985284606710096" lon="-3.214707761997159"><ele>1856.0</ele><time>2026-04-22T13:27:48Z</time></trkpt><trkpt lat="36.985325883194406" lon="-3.2148069108565194"><ele>1856.0</ele><time>2026-04-22T13:27:49Z</time></trkpt><trkpt lat="36.98537394020399" lon="-3.214899843652212"><ele>1856.0</ele><time>2026-04-22T13:27:50Z</time></trkpt><trkpt lat="36.985407917836135" lon="-3.2149769929407377"><ele>1855.9999999999998</ele><time>2026-04-22T13:27:51Z</time></trkpt><trkpt lat="36.9854324500195" lon="-3.2150635258498608"><ele>1856.0</ele><time>2026-04-22T13:27:52Z</time></trkpt><trkpt lat="36.98546875198145" lon="-3.215168641335386"><ele>1855.8571428571431</ele><time>2026-04-22T13:27:53Z</time></trkpt><trkpt lat="36.98550684130542" lon="-3.215266197775482"><ele>1855.7142857142858</ele><time>2026-04-22T13:27:54Z</time></trkpt><trkpt lat="36.98553685488809" lon="-3.2153412488626745"><ele>1855.5714285714287</ele><time>2026-04-22T13:27:55Z</time></trkpt><trkpt lat="36.98557802376977" lon="-3.215412003089299"><ele>1855.4285714285716</ele><time>2026-04-22T13:27:56Z</time></trkpt><trkpt lat="36.985624799644185" lon="-3.215476419453518"><ele>1855.2857142857142</ele><time>2026-04-22T13:27:57Z</time></trkpt><trkpt lat="36.985670251181055" lon="-3.215540670112518"><ele>1855.142857142857</ele><time>2026-04-22T13:27:58Z</time></trkpt><trkpt lat="36.98571539633587" lon="-3.2156202016861024"><ele>1855.0</ele><time>2026-04-22T13:27:59Z</time></trkpt><trkpt lat="36.985746216930735" lon="-3.2157088735788215"><ele>1855.0000000000002</ele><time>2026-04-22T13:28:00Z</time></trkpt><trkpt lat="36.985772767149236" lon="-3.215799051188689"><ele>1855.0</ele><time>2026-04-22T13:28:01Z</time></trkpt><trkpt lat="36.98578757114763" lon="-3.2158995926747433"><ele>1855.0</ele><time>2026-04-22T13:28:02Z</time></trkpt><trkpt lat="36.98579188095187" lon="-3.215990854745895"><ele>1855.0</ele><time>2026-04-22T13:28:03Z</time></trkpt><trkpt lat="36.98580224465539" lon="-3.216069687917644"><ele>1855.0000000000002</ele><time>2026-04-22T13:28:04Z</time></trkpt><trkpt lat="36.98581737625177" lon="-3.2161493660726412"><ele>1855.0</ele><time>2026-04-22T13:28:05Z</time></trkpt><trkpt lat="36.98578538078426" lon="-3.216271761659006"><ele>1855.0</ele><time>2026-04-22T13:28:07Z</time></trkpt><trkpt lat="36.98572043518367" lon="-3.216311844491514"><ele>1855.0</ele><time>2026-04-22T13:28:08Z</time></trkpt><trkpt lat="36.98565518151089" lon="-3.216309914518017"><ele>1855.0</ele><time>2026-04-22T13:28:09Z</time></trkpt><trkpt lat="36.985590486199946" lon="-3.2162591078871383"><ele>1855.0</ele><time>2026-04-22T13:28:10Z</time></trkpt><trkpt lat="36.9855402484915" lon="-3.2162005917267895"><ele>1855.0</ele><time>2026-04-22T13:28:11Z</time></trkpt><trkpt lat="36.98548590305677" lon="-3.216148839103349"><ele>1855.0</ele><time>2026-04-22T13:28:12Z</time></trkpt><trkpt lat="36.98542216171805" lon="-3.2161428441543682"><ele>1855.0</ele><time>2026-04-22T13:28:13Z</time></trkpt><trkpt lat="36.985273409768254" lon="-3.2161262759634246"><ele>1855.0</ele><time>2026-04-22T13:28:14.999Z</time></trkpt><trkpt lat="36.9851551983257" lon="-3.2161059910933347"><ele>1855.0</ele><time>2026-04-22T13:28:15.999Z</time></trkpt><trkpt lat="36.985076379320105" lon="-3.21605552103156"><ele>1855.0</ele><time>2026-04-22T13:28:16.999Z</time></trkpt><trkpt lat="36.98500481651287" lon="-3.2160515201051476"><ele>1855.0</ele><time>2026-04-22T13:28:17.999Z</time></trkpt><trkpt lat="36.98490312413943" lon="-3.2160359111244397"><ele>1855.0</ele><time>2026-04-22T13:28:19.999Z</time></trkpt><trkpt lat="36.984820288575975" lon="-3.2160819588839455"><ele>1855.0</ele><time>2026-04-22T13:28:21.999Z</time></trkpt><trkpt lat="36.984753404809794" lon="-3.2162045934545582"><ele>1855.0</ele><time>2026-04-22T13:28:23.999Z</time></trkpt><trkpt lat="36.98470248462163" lon="-3.216297152292377"><ele>1855.0</ele><time>2026-04-22T13:28:24.999Z</time></trkpt><trkpt lat="36.98464829831231" lon="-3.2164090704518697"><ele>1855.0</ele><time>2026-04-22T13:28:25.999Z</time></trkpt><trkpt lat="36.984591448935866" lon="-3.216500408318646"><ele>1855.0</ele><time>2026-04-22T13:28:26.999Z</time></trkpt><trkpt lat="36.98452932720627" lon="-3.216595982027567"><ele>1855.0000000000002</ele><time>2026-04-22T13:28:27.999Z</time></trkpt><trkpt lat="36.984472718381184" lon="-3.2166806208093917"><ele>1855.0</ele><time>2026-04-22T13:28:28.999Z</time></trkpt><trkpt lat="36.98443000537656" lon="-3.216763567077056"><ele>1855.0</ele><time>2026-04-22T13:28:29.999Z</time></trkpt><trkpt lat="36.984398419740955" lon="-3.2168520570148464"><ele>1855.0</ele><time>2026-04-22T13:28:30.999Z</time></trkpt><trkpt lat="36.9843795859319" lon="-3.216947597570733"><ele>1855.0000000000002</ele><time>2026-04-22T13:28:31.999Z</time></trkpt><trkpt lat="36.98436442235913" lon="-3.217046038924468"><ele>1855.0</ele><time>2026-04-22T13:28:32.999Z</time></trkpt><trkpt lat="36.98434085958247" lon="-3.217145646777272"><ele>1855.0000000000002</ele><time>2026-04-22T13:28:33.999Z</time></trkpt><trkpt lat="36.98430055750766" lon="-3.217238745786855"><ele>1855.0</ele><time>2026-04-22T13:28:34.999Z</time></trkpt><trkpt lat="36.984243417701606" lon="-3.2173101773263535"><ele>1855.0</ele><time>2026-04-22T13:28:35.999Z</time></trkpt><trkpt lat="36.9841682422753" lon="-3.2173717638330666"><ele>1855.0</ele><time>2026-04-22T13:28:36.999Z</time></trkpt><trkpt lat="36.984083008799914" lon="-3.217413974468422"><ele>1855.0000000000002</ele><time>2026-04-22T13:28:37.999Z</time></trkpt><trkpt lat="36.98401762898444" lon="-3.2174746486477543"><ele>1855.0</ele><time>2026-04-22T13:28:38.999Z</time></trkpt><trkpt lat="36.98394661146867" lon="-3.217530279132792"><ele>1853.5000000000002</ele><time>2026-04-22T13:28:39.999Z</time></trkpt><trkpt lat="36.983901815815706" lon="-3.217588383420969"><ele>1852.0</ele><time>2026-04-22T13:28:40.999Z</time></trkpt><trkpt lat="36.98385454706769" lon="-3.2176610741610165"><ele>1850.5</ele><time>2026-04-22T13:28:41.999Z</time></trkpt><trkpt lat="36.9837925576824" lon="-3.217753215585501"><ele>1849.0</ele><time>2026-04-22T13:28:43Z</time></trkpt><trkpt lat="36.98372467076596" lon="-3.217843220083407"><ele>1847.5000000000002</ele><time>2026-04-22T13:28:44Z</time></trkpt><trkpt lat="36.98364506532813" lon="-3.217916312981303"><ele>1846.0</ele><time>2026-04-22T13:28:45Z</time></trkpt><trkpt lat="36.983566171506006" lon="-3.2179824270212234"><ele>1846.0</ele><time>2026-04-22T13:28:46Z</time></trkpt><trkpt lat="36.98349069027396" lon="-3.218023680168272"><ele>1846.0</ele><time>2026-04-22T13:28:47Z</time></trkpt><trkpt lat="36.98340168187048" lon="-3.218052853297398"><ele>1846.0</ele><time>2026-04-22T13:28:48Z</time></trkpt><trkpt lat="36.983313879825374" lon="-3.2180836794276155"><ele>1846.0</ele><time>2026-04-22T13:28:49Z</time></trkpt><trkpt lat="36.98323208985193" lon="-3.2181324173680403"><ele>1846.0</ele><time>2026-04-22T13:28:50Z</time></trkpt><trkpt lat="36.98314622484067" lon="-3.218188483451307"><ele>1846.6666666666667</ele><time>2026-04-22T13:28:51Z</time></trkpt><trkpt lat="36.98306477060088" lon="-3.218232907521533"><ele>1847.3333333333335</ele><time>2026-04-22T13:28:52Z</time></trkpt><trkpt lat="36.98298493981003" lon="-3.218278476650827"><ele>1848.0</ele><time>2026-04-22T13:28:53Z</time></trkpt><trkpt lat="36.982908348627625" lon="-3.2183270505605126"><ele>1848.6666666666665</ele><time>2026-04-22T13:28:54Z</time></trkpt><trkpt lat="36.98283675393846" lon="-3.218350194497376"><ele>1849.3333333333333</ele><time>2026-04-22T13:28:55Z</time></trkpt><trkpt lat="36.98275803797888" lon="-3.218376361436783"><ele>1850.0</ele><time>2026-04-22T13:28:56Z</time></trkpt><trkpt lat="36.98267145173924" lon="-3.2183472042252643"><ele>1849.9999999999998</ele><time>2026-04-22T13:28:57Z</time></trkpt><trkpt lat="36.982599220106174" lon="-3.218268501536675"><ele>1850.0</ele><time>2026-04-22T13:28:58Z</time></trkpt><trkpt lat="36.982536913985065" lon="-3.218214231071299"><ele>1850.0</ele><time>2026-04-22T13:28:59Z</time></trkpt><trkpt lat="36.98245295805197" lon="-3.218207468992921"><ele>1850.0</ele><time>2026-04-22T13:29:00Z</time></trkpt><trkpt lat="36.98237813408805" lon="-3.218173180152828"><ele>1849.9999999999998</ele><time>2026-04-22T13:29:01Z</time></trkpt><trkpt lat="36.982289670939416" lon="-3.218167478411705"><ele>1850.0</ele><time>2026-04-22T13:29:02Z</time></trkpt><trkpt lat="36.98219951864969" lon="-3.2181678233132733"><ele>1848.6666666666665</ele><time>2026-04-22T13:29:03Z</time></trkpt><trkpt lat="36.982115208780506" lon="-3.2181677740946615"><ele>1847.3333333333333</ele><time>2026-04-22T13:29:04Z</time></trkpt><trkpt lat="36.9820395506254" lon="-3.21818185110558"><ele>1846.0</ele><time>2026-04-22T13:29:05Z</time></trkpt><trkpt lat="36.981962496936774" lon="-3.218144156223019"><ele>1844.6666666666665</ele><time>2026-04-22T13:29:06Z</time></trkpt><trkpt lat="36.98191002069902" lon="-3.2180504649345063"><ele>1843.3333333333333</ele><time>2026-04-22T13:29:07Z</time></trkpt><trkpt lat="36.98185828767555" lon="-3.2179765814742685"><ele>1842.0</ele><time>2026-04-22T13:29:08Z</time></trkpt><trkpt lat="36.981797386203176" lon="-3.2179426073649373"><ele>1838.1999999999998</ele><time>2026-04-22T13:29:09Z</time></trkpt><trkpt lat="36.98171066383537" lon="-3.2179316600349357"><ele>1834.3999999999999</ele><time>2026-04-22T13:29:10Z</time></trkpt><trkpt lat="36.98160941972977" lon="-3.2179531375029393"><ele>1830.6000000000001</ele><time>2026-04-22T13:29:11Z</time></trkpt><trkpt lat="36.98150475588796" lon="-3.2179977645182407"><ele>1826.8000000000002</ele><time>2026-04-22T13:29:12Z</time></trkpt><trkpt lat="36.9814082191577" lon="-3.218049787437376"><ele>1823.0</ele><time>2026-04-22T13:29:13Z</time></trkpt><trkpt lat="36.98131220582376" lon="-3.2180973889631286"><ele>1825.3333333333333</ele><time>2026-04-22T13:29:14Z</time></trkpt><trkpt lat="36.98121169758401" lon="-3.218155408815831"><ele>1827.6666666666665</ele><time>2026-04-22T13:29:15Z</time></trkpt><trkpt lat="36.981132728475664" lon="-3.2182018508918935"><ele>1830.0</ele><time>2026-04-22T13:29:16Z</time></trkpt><trkpt lat="36.98105748921262" lon="-3.2182357648636315"><ele>1832.3333333333335</ele><time>2026-04-22T13:29:17Z</time></trkpt><trkpt lat="36.980983804242975" lon="-3.218262649590799"><ele>1834.6666666666667</ele><time>2026-04-22T13:29:18Z</time></trkpt><trkpt lat="36.980907278124256" lon="-3.2182765479887325"><ele>1837.0</ele><time>2026-04-22T13:29:19Z</time></trkpt><trkpt lat="36.980831592747236" lon="-3.218275772881186"><ele>1837.0</ele><time>2026-04-22T13:29:20Z</time></trkpt><trkpt lat="36.98075824363885" lon="-3.218254601495828"><ele>1836.9999999999998</ele><time>2026-04-22T13:29:21Z</time></trkpt><trkpt lat="36.980671125929284" lon="-3.2182243261912147"><ele>1836.9999999999998</ele><time>2026-04-22T13:29:22Z</time></trkpt><trkpt lat="36.980581035612026" lon="-3.2181756304691915"><ele>1837.0</ele><time>2026-04-22T13:29:23Z</time></trkpt><trkpt lat="36.980501084567585" lon="-3.2181148657506125"><ele>1837.0</ele><time>2026-04-22T13:29:24Z</time></trkpt><trkpt lat="36.98041587646828" lon="-3.2180423760478742"><ele>1832.6</ele><time>2026-04-22T13:29:25Z</time></trkpt><trkpt lat="36.980332870472374" lon="-3.2179620466896175"><ele>1828.1999999999998</ele><time>2026-04-22T13:29:26Z</time></trkpt><trkpt lat="36.9802539343118" lon="-3.217886536941268"><ele>1823.8</ele><time>2026-04-22T13:29:27Z</time></trkpt><trkpt lat="36.98017723569924" lon="-3.217812295874269"><ele>1819.4</ele><time>2026-04-22T13:29:28Z</time></trkpt><trkpt lat="36.98009199587673" lon="-3.217750678302947"><ele>1815.0</ele><time>2026-04-22T13:29:29Z</time></trkpt><trkpt lat="36.98000352489138" lon="-3.2177104898941686"><ele>1815.0</ele><time>2026-04-22T13:29:30Z</time></trkpt><trkpt lat="36.9799035839353" lon="-3.2176734443398165"><ele>1815.0</ele><time>2026-04-22T13:29:31Z</time></trkpt><trkpt lat="36.97980612294358" lon="-3.2176474903000933"><ele>1815.0</ele><time>2026-04-22T13:29:32Z</time></trkpt><trkpt lat="36.97970691199933" lon="-3.2176151713852192"><ele>1815.0</ele><time>2026-04-22T13:29:33Z</time></trkpt><trkpt lat="36.97961184010107" lon="-3.217585778875428"><ele>1815.0</ele><time>2026-04-22T13:29:34Z</time></trkpt><trkpt lat="36.97952184608904" lon="-3.2175573290549297"><ele>1815.0</ele><time>2026-04-22T13:29:35Z</time></trkpt><trkpt lat="36.979440142238154" lon="-3.2175097825850125"><ele>1815.0</ele><time>2026-04-22T13:29:36Z</time></trkpt><trkpt lat="36.97936679255248" lon="-3.2174507380758106"><ele>1815.0</ele><time>2026-04-22T13:29:37Z</time></trkpt><trkpt lat="36.979302265411725" lon="-3.2173730219954595"><ele>1815.0</ele><time>2026-04-22T13:29:38Z</time></trkpt><trkpt lat="36.97924281045603" lon="-3.2172961990001667"><ele>1815.0</ele><time>2026-04-22T13:29:39Z</time></trkpt><trkpt lat="36.97916419638619" lon="-3.21725493216929"><ele>1815.0</ele><time>2026-04-22T13:29:40Z</time></trkpt><trkpt lat="36.97908164768451" lon="-3.217294666094186"><ele>1814.4</ele><time>2026-04-22T13:29:41Z</time></trkpt><trkpt lat="36.97899963362786" lon="-3.217317654876962"><ele>1813.8</ele><time>2026-04-22T13:29:42Z</time></trkpt><trkpt lat="36.97891298344971" lon="-3.2173496101856793"><ele>1813.1999999999998</ele><time>2026-04-22T13:29:43Z</time></trkpt><trkpt lat="36.97881728646136" lon="-3.217368563441968"><ele>1812.6</ele><time>2026-04-22T13:29:44Z</time></trkpt><trkpt lat="36.97871723895286" lon="-3.2174049071137336"><ele>1812.0</ele><time>2026-04-22T13:29:45Z</time></trkpt><trkpt lat="36.97862001806045" lon="-3.2174266527902615"><ele>1812.0</ele><time>2026-04-22T13:29:46Z</time></trkpt><trkpt lat="36.978526893318936" lon="-3.217441933117698"><ele>1811.9999999999998</ele><time>2026-04-22T13:29:47Z</time></trkpt><trkpt lat="36.978436376344085" lon="-3.217448994575359"><ele>1811.9999999999998</ele><time>2026-04-22T13:29:48Z</time></trkpt><trkpt lat="36.97834552313122" lon="-3.217475969323401"><ele>1812.0</ele><time>2026-04-22T13:29:49Z</time></trkpt><trkpt lat="36.97826510123077" lon="-3.2175223676499796"><ele>1812.0</ele><time>2026-04-22T13:29:50Z</time></trkpt><trkpt lat="36.978185627787276" lon="-3.217558542200724"><ele>1811.0</ele><time>2026-04-22T13:29:51Z</time></trkpt><trkpt lat="36.97811818775889" lon="-3.217606860342533"><ele>1810.0</ele><time>2026-04-22T13:29:52Z</time></trkpt><trkpt lat="36.978062913147184" lon="-3.217685111750149"><ele>1809.0</ele><time>2026-04-22T13:29:53Z</time></trkpt><trkpt lat="36.97801524717169" lon="-3.2177751232025944"><ele>1808.0</ele><time>2026-04-22T13:29:54Z</time></trkpt><trkpt lat="36.977971952500326" lon="-3.217865521894991"><ele>1807.0</ele><time>2026-04-22T13:29:55Z</time></trkpt><trkpt lat="36.977937802477236" lon="-3.2179458143500574"><ele>1806.0</ele><time>2026-04-22T13:29:56Z</time></trkpt><trkpt lat="36.97789942121813" lon="-3.218014544012954"><ele>1806.0</ele><time>2026-04-22T13:29:57Z</time></trkpt><trkpt lat="36.97785928024789" lon="-3.2180802426034094"><ele>1806.0</ele><time>2026-04-22T13:29:58Z</time></trkpt><trkpt lat="36.97780757973165" lon="-3.218165567336313"><ele>1806.0</ele><time>2026-04-22T13:29:59Z</time></trkpt><trkpt lat="36.97775895117893" lon="-3.218250791728638"><ele>1806.0</ele><time>2026-04-22T13:30:00Z</time></trkpt><trkpt lat="36.977714059918206" lon="-3.21832005805869"><ele>1806.0</ele><time>2026-04-22T13:30:01Z</time></trkpt><trkpt lat="36.977657272137414" lon="-3.2183863761232607"><ele>1806.0</ele><time>2026-04-22T13:30:02Z</time></trkpt><trkpt lat="36.97760185540204" lon="-3.218441212447773"><ele>1807.4</ele><time>2026-04-22T13:30:03Z</time></trkpt><trkpt lat="36.97753438689577" lon="-3.2184851685679505"><ele>1808.8</ele><time>2026-04-22T13:30:04Z</time></trkpt><trkpt lat="36.977465666340095" lon="-3.218495771693455"><ele>1810.2000000000003</ele><time>2026-04-22T13:30:05Z</time></trkpt><trkpt lat="36.97740452498871" lon="-3.2185200101562113"><ele>1811.6000000000001</ele><time>2026-04-22T13:30:06Z</time></trkpt><trkpt lat="36.977320793162306" lon="-3.2183870886637505"><ele>1813.0</ele><time>2026-04-22T13:30:07Z</time></trkpt><trkpt lat="36.97730185853336" lon="-3.21822401736018"><ele>1808.4</ele><time>2026-04-22T13:30:08Z</time></trkpt><trkpt lat="36.97728832971931" lon="-3.218070527144385"><ele>1803.8000000000002</ele><time>2026-04-22T13:30:09Z</time></trkpt><trkpt lat="36.97728916916731" lon="-3.2179287705649346"><ele>1799.2</ele><time>2026-04-22T13:30:10Z</time></trkpt><trkpt lat="36.97730048243896" lon="-3.2177977283528745"><ele>1794.6</ele><time>2026-04-22T13:30:11Z</time></trkpt><trkpt lat="36.977324660870316" lon="-3.217682171313241"><ele>1790.0</ele><time>2026-04-22T13:30:12Z</time></trkpt><trkpt lat="36.97733761028621" lon="-3.2175482182696"><ele>1790.0</ele><time>2026-04-22T13:30:13Z</time></trkpt><trkpt lat="36.9773518101022" lon="-3.2174221800817193"><ele>1790.0</ele><time>2026-04-22T13:30:14Z</time></trkpt><trkpt lat="36.97737207654096" lon="-3.217307673437725"><ele>1790.0</ele><time>2026-04-22T13:30:15Z</time></trkpt><trkpt lat="36.977414413576" lon="-3.2172002508195034"><ele>1790.0</ele><time>2026-04-22T13:30:16Z</time></trkpt><trkpt lat="36.97745326746006" lon="-3.217078356378394"><ele>1790.0</ele><time>2026-04-22T13:30:17Z</time></trkpt><trkpt lat="36.97747802794976" lon="-3.2169459557004845"><ele>1791.0</ele><time>2026-04-22T13:30:18Z</time></trkpt><trkpt lat="36.97751022373176" lon="-3.2168370470468544"><ele>1792.0</ele><time>2026-04-22T13:30:19Z</time></trkpt><trkpt lat="36.97754017713562" lon="-3.2167293689442196"><ele>1793.0</ele><time>2026-04-22T13:30:20Z</time></trkpt><trkpt lat="36.977567347270316" lon="-3.216607251229494"><ele>1794.0</ele><time>2026-04-22T13:30:20.999Z</time></trkpt><trkpt lat="36.97758454536671" lon="-3.2164698188560443"><ele>1795.0</ele><time>2026-04-22T13:30:21.999Z</time></trkpt><trkpt lat="36.977597610388955" lon="-3.2163365351580198"><ele>1792.5000000000002</ele><time>2026-04-22T13:30:22.999Z</time></trkpt><trkpt lat="36.977607189058006" lon="-3.216224464757031"><ele>1790.0</ele><time>2026-04-22T13:30:23.999Z</time></trkpt><trkpt lat="36.97761431035942" lon="-3.216120719119709"><ele>1787.5</ele><time>2026-04-22T13:30:24.999Z</time></trkpt><trkpt lat="36.9776224501669" lon="-3.216008201320791"><ele>1785.0</ele><time>2026-04-22T13:30:25.999Z</time></trkpt><trkpt lat="36.9776317810723" lon="-3.2158987070124643"><ele>1782.5000000000002</ele><time>2026-04-22T13:30:26.999Z</time></trkpt><trkpt lat="36.97765139058577" lon="-3.2157864826931264"><ele>1780.0</ele><time>2026-04-22T13:30:27.999Z</time></trkpt><trkpt lat="36.977667410099926" lon="-3.2156827299645108"><ele>1776.8</ele><time>2026-04-22T13:30:28.999Z</time></trkpt><trkpt lat="36.97768021044648" lon="-3.215575273662918"><ele>1773.6</ele><time>2026-04-22T13:30:29.999Z</time></trkpt><trkpt lat="36.977689354606504" lon="-3.21547477579414"><ele>1770.4</ele><time>2026-04-22T13:30:30.999Z</time></trkpt><trkpt lat="36.97769010043866" lon="-3.2153649195142555"><ele>1767.2</ele><time>2026-04-22T13:30:31.999Z</time></trkpt><trkpt lat="36.97768361428589" lon="-3.2152438872820133"><ele>1764.0</ele><time>2026-04-22T13:30:32.999Z</time></trkpt><trkpt lat="36.977672099489816" lon="-3.215118334861086"><ele>1764.0</ele><time>2026-04-22T13:30:33.999Z</time></trkpt><trkpt lat="36.977653981177866" lon="-3.2149981654319038"><ele>1764.0</ele><time>2026-04-22T13:30:34.999Z</time></trkpt><trkpt lat="36.977641645869795" lon="-3.214875585204174"><ele>1764.0</ele><time>2026-04-22T13:30:35.999Z</time></trkpt><trkpt lat="36.977607341065315" lon="-3.214769383258371"><ele>1764.0</ele><time>2026-04-22T13:30:36.999Z</time></trkpt><trkpt lat="36.977550823797955" lon="-3.214675391545221"><ele>1764.0</ele><time>2026-04-22T13:30:37.999Z</time></trkpt><trkpt lat="36.977501482883355" lon="-3.2145786446042286"><ele>1761.8000000000002</ele><time>2026-04-22T13:30:38.999Z</time></trkpt><trkpt lat="36.97744644941284" lon="-3.214482839183632"><ele>1759.6000000000001</ele><time>2026-04-22T13:30:39.999Z</time></trkpt><trkpt lat="36.97738777272682" lon="-3.2143839390463445"><ele>1757.4</ele><time>2026-04-22T13:30:40.999Z</time></trkpt><trkpt lat="36.97731965287499" lon="-3.2142718264008447"><ele>1755.2</ele><time>2026-04-22T13:30:41.999Z</time></trkpt><trkpt lat="36.977250650286905" lon="-3.214166451397791"><ele>1753.0</ele><time>2026-04-22T13:30:42.999Z</time></trkpt><trkpt lat="36.97718871542394" lon="-3.214064428548588"><ele>1748.8333333333335</ele><time>2026-04-22T13:30:43.999Z</time></trkpt><trkpt lat="36.97713611786583" lon="-3.2139703222866314"><ele>1744.6666666666667</ele><time>2026-04-22T13:30:44.999Z</time></trkpt><trkpt lat="36.9770948211888" lon="-3.2138771806205333"><ele>1740.5</ele><time>2026-04-22T13:30:45.999Z</time></trkpt><trkpt lat="36.977074939951066" lon="-3.2137720099638076"><ele>1736.3333333333335</ele><time>2026-04-22T13:30:46.999Z</time></trkpt><trkpt lat="36.97703015384406" lon="-3.213694627966724"><ele>1732.1666666666667</ele><time>2026-04-22T13:30:47.999Z</time></trkpt><trkpt lat="36.97699743063991" lon="-3.2136108511519157"><ele>1728.0</ele><time>2026-04-22T13:30:48.999Z</time></trkpt><trkpt lat="36.97696485864996" lon="-3.2135419697304637"><ele>1728.0</ele><time>2026-04-22T13:30:49.999Z</time></trkpt><trkpt lat="36.976866795529354" lon="-3.213446651498315"><ele>1728.0000000000002</ele><time>2026-04-22T13:30:51.999Z</time></trkpt><trkpt lat="36.9767914774687" lon="-3.2133977132764597"><ele>1728.0000000000002</ele><time>2026-04-22T13:30:52.999Z</time></trkpt><trkpt lat="36.97670602425084" lon="-3.2133317217057753"><ele>1728.0</ele><time>2026-04-22T13:30:53.999Z</time></trkpt><trkpt lat="36.97661441528744" lon="-3.213274577377588"><ele>1728.0</ele><time>2026-04-22T13:30:54.999Z</time></trkpt><trkpt lat="36.97652456043171" lon="-3.213222779796208"><ele>1725.8333333333333</ele><time>2026-04-22T13:30:55.999Z</time></trkpt><trkpt lat="36.97643945940092" lon="-3.213180245707516"><ele>1723.6666666666665</ele><time>2026-04-22T13:30:56.999Z</time></trkpt><trkpt lat="36.97635370754768" lon="-3.2131320707828364"><ele>1721.5</ele><time>2026-04-22T13:30:57.999Z</time></trkpt><trkpt lat="36.97627052704011" lon="-3.2130863504132394"><ele>1719.3333333333333</ele><time>2026-04-22T13:30:58.999Z</time></trkpt><trkpt lat="36.976198198822246" lon="-3.2130538616220097"><ele>1717.1666666666665</ele><time>2026-04-22T13:31:00Z</time></trkpt><trkpt lat="36.976135797915575" lon="-3.2130283909860866"><ele>1715.0</ele><time>2026-04-22T13:31:01Z</time></trkpt><trkpt lat="36.97602501104238" lon="-3.213013412706234"><ele>1714.9999999999998</ele><time>2026-04-22T13:31:03Z</time></trkpt><trkpt lat="36.97591906099217" lon="-3.2131026000800964"><ele>1715.0</ele><time>2026-04-22T13:31:05Z</time></trkpt><trkpt lat="36.97586161495821" lon="-3.2131432094712054"><ele>1715.0</ele><time>2026-04-22T13:31:06Z</time></trkpt><trkpt lat="36.97578984933604" lon="-3.213170816060659"><ele>1715.0</ele><time>2026-04-22T13:31:07Z</time></trkpt><trkpt lat="36.97572182081717" lon="-3.2132377736225903"><ele>1714.9999999999998</ele><time>2026-04-22T13:31:08Z</time></trkpt><trkpt lat="36.97564168875602" lon="-3.2132808870616345"><ele>1715.0</ele><time>2026-04-22T13:31:09Z</time></trkpt><trkpt lat="36.97555923585216" lon="-3.2133360300911056"><ele>1719.1666666666665</ele><time>2026-04-22T13:31:10Z</time></trkpt><trkpt lat="36.975513774902176" lon="-3.2134370909167744"><ele>1723.3333333333333</ele><time>2026-04-22T13:31:11Z</time></trkpt><trkpt lat="36.975468117564475" lon="-3.2135220038822583"><ele>1727.5</ele><time>2026-04-22T13:31:12Z</time></trkpt><trkpt lat="36.97541423514463" lon="-3.2135813136575515"><ele>1731.6666666666665</ele><time>2026-04-22T13:31:13Z</time></trkpt><trkpt lat="36.975342251243575" lon="-3.2136271105695746"><ele>1735.8333333333333</ele><time>2026-04-22T13:31:14Z</time></trkpt><trkpt lat="36.97525593275747" lon="-3.2136386343098717"><ele>1740.0</ele><time>2026-04-22T13:31:15Z</time></trkpt><trkpt lat="36.97518112201541" lon="-3.21366186287445"><ele>1740.0</ele><time>2026-04-22T13:31:16Z</time></trkpt><trkpt lat="36.97510620390572" lon="-3.213692605450419"><ele>1740.0</ele><time>2026-04-22T13:31:17Z</time></trkpt><trkpt lat="36.975033125209045" lon="-3.2137595840137894"><ele>1740.0</ele><time>2026-04-22T13:31:18Z</time></trkpt><trkpt lat="36.97496043215728" lon="-3.2138348179259015"><ele>1740.0</ele><time>2026-04-22T13:31:19Z</time></trkpt><trkpt lat="36.974892003205106" lon="-3.213912900503231"><ele>1740.0</ele><time>2026-04-22T13:31:20Z</time></trkpt><trkpt lat="36.974830194027064" lon="-3.21399073302123"><ele>1740.0</ele><time>2026-04-22T13:31:21Z</time></trkpt><trkpt lat="36.974774537293726" lon="-3.2140734149764136"><ele>1738.6666666666667</ele><time>2026-04-22T13:31:22Z</time></trkpt><trkpt lat="36.9747164022943" lon="-3.214149980825228"><ele>1737.3333333333335</ele><time>2026-04-22T13:31:23Z</time></trkpt><trkpt lat="36.974679623563304" lon="-3.214227194061994"><ele>1736.0</ele><time>2026-04-22T13:31:24Z</time></trkpt><trkpt lat="36.97464507614212" lon="-3.2142953455257053"><ele>1734.6666666666667</ele><time>2026-04-22T13:31:25Z</time></trkpt><trkpt lat="36.974598390931206" lon="-3.2143607753049546"><ele>1733.3333333333335</ele><time>2026-04-22T13:31:26Z</time></trkpt><trkpt lat="36.974522782585" lon="-3.214415500004538"><ele>1732.0</ele><time>2026-04-22T13:31:27Z</time></trkpt><trkpt lat="36.97443104761032" lon="-3.2144646077159624"><ele>1732.0000000000002</ele><time>2026-04-22T13:31:28Z</time></trkpt><trkpt lat="36.97437011386509" lon="-3.214524398846589"><ele>1732.0</ele><time>2026-04-22T13:31:29Z</time></trkpt><trkpt lat="36.97431235466492" lon="-3.2145733675214365"><ele>1732.0</ele><time>2026-04-22T13:31:30Z</time></trkpt><trkpt lat="36.97425907672561" lon="-3.2146263541473052"><ele>1732.0</ele><time>2026-04-22T13:31:31Z</time></trkpt><trkpt lat="36.974200423823206" lon="-3.2146931665590324"><ele>1732.0000000000002</ele><time>2026-04-22T13:31:32Z</time></trkpt><trkpt lat="36.97414155607594" lon="-3.2147769059415388"><ele>1732.0</ele><time>2026-04-22T13:31:33Z</time></trkpt><trkpt lat="36.97408577567812" lon="-3.214878201278995"><ele>1730.1666666666667</ele><time>2026-04-22T13:31:34Z</time></trkpt><trkpt lat="36.97401644573691" lon="-3.2149657777019685"><ele>1728.3333333333335</ele><time>2026-04-22T13:31:35Z</time></trkpt><trkpt lat="36.97396839685458" lon="-3.215038273712553"><ele>1726.5</ele><time>2026-04-22T13:31:36Z</time></trkpt><trkpt lat="36.97392971840397" lon="-3.215105892273748"><ele>1724.6666666666665</ele><time>2026-04-22T13:31:37Z</time></trkpt><trkpt lat="36.97395267927472" lon="-3.2152549425515944"><ele>1722.8333333333333</ele><time>2026-04-22T13:31:39Z</time></trkpt><trkpt lat="36.973999896686266" lon="-3.215341491238617"><ele>1721.0</ele><time>2026-04-22T13:31:40Z</time></trkpt><trkpt lat="36.97402582011312" lon="-3.2154294126783163"><ele>1721.0</ele><time>2026-04-22T13:31:41Z</time></trkpt><trkpt lat="36.97403642502708" lon="-3.215523253422674"><ele>1721.0</ele><time>2026-04-22T13:31:42Z</time></trkpt><trkpt lat="36.97396982888599" lon="-3.2156129796645865"><ele>1721.0</ele><time>2026-04-22T13:31:43Z</time></trkpt><trkpt lat="36.97390268658048" lon="-3.2156847424492145"><ele>1721.0</ele><time>2026-04-22T13:31:44Z</time></trkpt><trkpt lat="36.973811735204634" lon="-3.2157426131271745"><ele>1721.0</ele><time>2026-04-22T13:31:45Z</time></trkpt><trkpt lat="36.97373847309815" lon="-3.215832331223581"><ele>1721.6</ele><time>2026-04-22T13:31:46Z</time></trkpt><trkpt lat="36.97366573063739" lon="-3.215909238885708"><ele>1722.1999999999998</ele><time>2026-04-22T13:31:47Z</time></trkpt><trkpt lat="36.97358335477513" lon="-3.2159830374686162"><ele>1722.8000000000002</ele><time>2026-04-22T13:31:48Z</time></trkpt><trkpt lat="36.97353153534671" lon="-3.2161176634003956"><ele>1723.4</ele><time>2026-04-22T13:31:49Z</time></trkpt><trkpt lat="36.97348590188705" lon="-3.2162492004855343"><ele>1724.0</ele><time>2026-04-22T13:31:50Z</time></trkpt><trkpt lat="36.97345254720682" lon="-3.2163798159633683"><ele>1725.2</ele><time>2026-04-22T13:31:51Z</time></trkpt><trkpt lat="36.97344333092491" lon="-3.2165055290176396"><ele>1726.4</ele><time>2026-04-22T13:31:52Z</time></trkpt><trkpt lat="36.973437326117654" lon="-3.216618128363808"><ele>1727.6</ele><time>2026-04-22T13:31:53Z</time></trkpt><trkpt lat="36.97343855162989" lon="-3.2167331327581583"><ele>1728.8</ele><time>2026-04-22T13:31:54Z</time></trkpt><trkpt lat="36.973456148641446" lon="-3.216851868997965"><ele>1730.0</ele><time>2026-04-22T13:31:55Z</time></trkpt><trkpt lat="36.973483644907766" lon="-3.216971532798194"><ele>1729.9999999999998</ele><time>2026-04-22T13:31:56Z</time></trkpt><trkpt lat="36.97351395093996" lon="-3.2170896910591837"><ele>1730.0</ele><time>2026-04-22T13:31:57Z</time></trkpt><trkpt lat="36.97352785255115" lon="-3.2172032797921974"><ele>1730.0</ele><time>2026-04-22T13:31:58Z</time></trkpt><trkpt lat="36.97358438540739" lon="-3.2172926017167223"><ele>1730.0</ele><time>2026-04-22T13:31:59Z</time></trkpt><trkpt lat="36.9736367638756" lon="-3.217371539663464"><ele>1729.9999999999998</ele><time>2026-04-22T13:32:00Z</time></trkpt><trkpt lat="36.973698125596925" lon="-3.217420103083902"><ele>1730.0</ele><time>2026-04-22T13:32:01Z</time></trkpt><trkpt lat="36.97375331568794" lon="-3.217477039826351"><ele>1727.6</ele><time>2026-04-22T13:32:02Z</time></trkpt><trkpt lat="36.97380537122656" lon="-3.2175455761692975"><ele>1725.2</ele><time>2026-04-22T13:32:03Z</time></trkpt><trkpt lat="36.973865668466225" lon="-3.2175926448305243"><ele>1722.8000000000002</ele><time>2026-04-22T13:32:04Z</time></trkpt><trkpt lat="36.973887589382336" lon="-3.2177341542642988"><ele>1720.4</ele><time>2026-04-22T13:32:06Z</time></trkpt><trkpt lat="36.973790985473904" lon="-3.2178298368705804"><ele>1718.0</ele><time>2026-04-22T13:32:08Z</time></trkpt><trkpt lat="36.973717247116625" lon="-3.2178410054608086"><ele>1718.0</ele><time>2026-04-22T13:32:09Z</time></trkpt><trkpt lat="36.97361568477166" lon="-3.2178314271317423"><ele>1718.0</ele><time>2026-04-22T13:32:10Z</time></trkpt><trkpt lat="36.973481904249276" lon="-3.2177981172670753"><ele>1718.0</ele><time>2026-04-22T13:32:11Z</time></trkpt><trkpt lat="36.973360692279" lon="-3.2177390586120835"><ele>1718.0</ele><time>2026-04-22T13:32:12Z</time></trkpt><trkpt lat="36.97327309726274" lon="-3.217673623453264"><ele>1715.0</ele><time>2026-04-22T13:32:13Z</time></trkpt><trkpt lat="36.97321078171209" lon="-3.2176501840878107"><ele>1712.0000000000002</ele><time>2026-04-22T13:32:14Z</time></trkpt><trkpt lat="36.973067152777396" lon="-3.217641516933467"><ele>1709.0</ele><time>2026-04-22T13:32:16Z</time></trkpt><trkpt lat="36.97297829631718" lon="-3.2176507966369425"><ele>1706.0</ele><time>2026-04-22T13:32:17Z</time></trkpt><trkpt lat="36.972867482591255" lon="-3.217653111286748"><ele>1703.0</ele><time>2026-04-22T13:32:18Z</time></trkpt><trkpt lat="36.9727442507915" lon="-3.217621178407135"><ele>1703.0</ele><time>2026-04-22T13:32:19Z</time></trkpt><trkpt lat="36.97262919845803" lon="-3.2176303376288375"><ele>1703.0</ele><time>2026-04-22T13:32:20Z</time></trkpt><trkpt lat="36.97252282655366" lon="-3.217633309471337"><ele>1703.0</ele><time>2026-04-22T13:32:21Z</time></trkpt><trkpt lat="36.97242521800006" lon="-3.217657106155916"><ele>1703.0</ele><time>2026-04-22T13:32:22Z</time></trkpt><trkpt lat="36.97233307758157" lon="-3.217688277116811"><ele>1703.0</ele><time>2026-04-22T13:32:23Z</time></trkpt><trkpt lat="36.97224321268782" lon="-3.2177202839926013"><ele>1700.8000000000002</ele><time>2026-04-22T13:32:24Z</time></trkpt><trkpt lat="36.97216282857893" lon="-3.217764351678736"><ele>1698.6</ele><time>2026-04-22T13:32:25Z</time></trkpt><trkpt lat="36.972089216300375" lon="-3.217823482699495"><ele>1696.4</ele><time>2026-04-22T13:32:26Z</time></trkpt><trkpt lat="36.972005600350485" lon="-3.2178937006364747"><ele>1694.1999999999998</ele><time>2026-04-22T13:32:26.999Z</time></trkpt><trkpt lat="36.97192074906435" lon="-3.2179603892441486"><ele>1692.0</ele><time>2026-04-22T13:32:27.999Z</time></trkpt><trkpt lat="36.97185059827931" lon="-3.2180157867348793"><ele>1692.0</ele><time>2026-04-22T13:32:28.999Z</time></trkpt><trkpt lat="36.97178395749927" lon="-3.2180838085362233"><ele>1692.0</ele><time>2026-04-22T13:32:29.999Z</time></trkpt><trkpt lat="36.971726857025686" lon="-3.2181519084510746"><ele>1692.0</ele><time>2026-04-22T13:32:30.999Z</time></trkpt><trkpt lat="36.971676627318935" lon="-3.2182310955785143"><ele>1692.0</ele><time>2026-04-22T13:32:31.999Z</time></trkpt><trkpt lat="36.971627101574505" lon="-3.2183086722277428"><ele>1692.0</ele><time>2026-04-22T13:32:32.999Z</time></trkpt><trkpt lat="36.971586188213195" lon="-3.2183819027671667"><ele>1692.0</ele><time>2026-04-22T13:32:33.999Z</time></trkpt><trkpt lat="36.971530614993526" lon="-3.2184930754174736"><ele>1691.0</ele><time>2026-04-22T13:32:35.999Z</time></trkpt><trkpt lat="36.97148252902179" lon="-3.218565562793149"><ele>1690.0</ele><time>2026-04-22T13:32:37.999Z</time></trkpt><trkpt lat="36.971352988919726" lon="-3.2184888909098968"><ele>1689.0</ele><time>2026-04-22T13:32:40.999Z</time></trkpt><trkpt lat="36.97127926757374" lon="-3.218358801632595"><ele>1688.0</ele><time>2026-04-22T13:32:42.999Z</time></trkpt><trkpt lat="36.971213823212395" lon="-3.218275328810863"><ele>1687.0</ele><time>2026-04-22T13:32:43.999Z</time></trkpt><trkpt lat="36.97115319826422" lon="-3.2182114382032636"><ele>1685.1999999999998</ele><time>2026-04-22T13:32:45Z</time></trkpt><trkpt lat="36.97106706324089" lon="-3.2181032791522526"><ele>1683.4</ele><time>2026-04-22T13:32:47Z</time></trkpt><trkpt lat="36.97101787538421" lon="-3.2180356353788073"><ele>1681.6</ele><time>2026-04-22T13:32:48Z</time></trkpt><trkpt lat="36.97096967463701" lon="-3.2179838748063756"><ele>1679.8000000000002</ele><time>2026-04-22T13:32:49Z</time></trkpt><trkpt lat="36.97087129784209" lon="-3.2178683219101134"><ele>1678.0</ele><time>2026-04-22T13:32:51Z</time></trkpt><trkpt lat="36.97081902824975" lon="-3.217799216514119"><ele>1676.0000000000002</ele><time>2026-04-22T13:32:52Z</time></trkpt><trkpt lat="36.97075676933273" lon="-3.2177258001506073"><ele>1674.0</ele><time>2026-04-22T13:32:53Z</time></trkpt><trkpt lat="36.97070405755527" lon="-3.2176684915801053"><ele>1672.0</ele><time>2026-04-22T13:32:54Z</time></trkpt><trkpt lat="36.97064904119408" lon="-3.2176171482884635"><ele>1670.0</ele><time>2026-04-22T13:32:55Z</time></trkpt><trkpt lat="36.970598120974614" lon="-3.2175604034363197"><ele>1668.0000000000002</ele><time>2026-04-22T13:32:56Z</time></trkpt><trkpt lat="36.97051907044929" lon="-3.2174679770930106"><ele>1666.0</ele><time>2026-04-22T13:32:58Z</time></trkpt><trkpt lat="36.97044509633988" lon="-3.2173348322697177"><ele>1665.3333333333335</ele><time>2026-04-22T13:33:00Z</time></trkpt><trkpt lat="36.97038086391874" lon="-3.217241324177163"><ele>1664.6666666666667</ele><time>2026-04-22T13:33:01Z</time></trkpt><trkpt lat="36.97030797927598" lon="-3.217144381227483"><ele>1664.0</ele><time>2026-04-22T13:33:02Z</time></trkpt><trkpt lat="36.970246839895594" lon="-3.2170709433965783"><ele>1663.3333333333335</ele><time>2026-04-22T13:33:03Z</time></trkpt><trkpt lat="36.97019631659293" lon="-3.2170032373725403"><ele>1662.6666666666667</ele><time>2026-04-22T13:33:04Z</time></trkpt><trkpt lat="36.97015810847654" lon="-3.2169380015890616"><ele>1662.0</ele><time>2026-04-22T13:33:05Z</time></trkpt><trkpt lat="36.9700824026823" lon="-3.21685648263879"><ele>1660.0</ele><time>2026-04-22T13:33:07Z</time></trkpt><trkpt lat="36.969998379167265" lon="-3.2168622015860397"><ele>1658.0</ele><time>2026-04-22T13:33:09Z</time></trkpt><trkpt lat="36.96994316553588" lon="-3.2168094260007942"><ele>1656.0</ele><time>2026-04-22T13:33:11Z</time></trkpt><trkpt lat="36.96993680536963" lon="-3.2166338181401364"><ele>1654.0</ele><time>2026-04-22T13:33:13Z</time></trkpt><trkpt lat="36.96994013728062" lon="-3.2165000466439735"><ele>1652.0</ele><time>2026-04-22T13:33:14Z</time></trkpt><trkpt lat="36.96994988605721" lon="-3.216364602568869"><ele>1652.3999999999999</ele><time>2026-04-22T13:33:15Z</time></trkpt><trkpt lat="36.969965704086455" lon="-3.216227592606347"><ele>1652.8</ele><time>2026-04-22T13:33:16Z</time></trkpt><trkpt lat="36.96999304369907" lon="-3.2160982470221287"><ele>1653.2</ele><time>2026-04-22T13:33:17Z</time></trkpt><trkpt lat="36.970033619782726" lon="-3.2159735850625766"><ele>1653.6</ele><time>2026-04-22T13:33:18Z</time></trkpt><trkpt lat="36.970098370352844" lon="-3.2158432668335015"><ele>1654.0</ele><time>2026-04-22T13:33:19Z</time></trkpt><trkpt lat="36.97017497232986" lon="-3.215719736086251"><ele>1651.4</ele><time>2026-04-22T13:33:20Z</time></trkpt><trkpt lat="36.97022146432287" lon="-3.2155970361682233"><ele>1648.8000000000002</ele><time>2026-04-22T13:33:21Z</time></trkpt><trkpt lat="36.9702836548448" lon="-3.2154974015938094"><ele>1646.1999999999998</ele><time>2026-04-22T13:33:22Z</time></trkpt><trkpt lat="36.97030410805877" lon="-3.215365242950991"><ele>1643.6</ele><time>2026-04-22T13:33:23Z</time></trkpt><trkpt lat="36.970275753413276" lon="-3.2152118642616383"><ele>1641.0</ele><time>2026-04-22T13:33:24Z</time></trkpt><trkpt lat="36.97030979550275" lon="-3.2150723383083415"><ele>1641.0</ele><time>2026-04-22T13:33:25Z</time></trkpt><trkpt lat="36.97034926506253" lon="-3.214935735565264"><ele>1641.0</ele><time>2026-04-22T13:33:26Z</time></trkpt><trkpt lat="36.970414145909515" lon="-3.214822428510573"><ele>1641.0</ele><time>2026-04-22T13:33:27Z</time></trkpt><trkpt lat="36.9704549705372" lon="-3.214714662875"><ele>1641.0</ele><time>2026-04-22T13:33:28Z</time></trkpt><trkpt lat="36.97048506675096" lon="-3.2146113476826335"><ele>1641.0</ele><time>2026-04-22T13:33:29Z</time></trkpt><trkpt lat="36.970485139412204" lon="-3.214512170552859"><ele>1639.1999999999998</ele><time>2026-04-22T13:33:30Z</time></trkpt><trkpt lat="36.970482716579795" lon="-3.2143901163493593"><ele>1637.3999999999999</ele><time>2026-04-22T13:33:31Z</time></trkpt><trkpt lat="36.970487804877585" lon="-3.2142633558906994"><ele>1635.6</ele><time>2026-04-22T13:33:32Z</time></trkpt><trkpt lat="36.970446106231634" lon="-3.2141648749602454"><ele>1633.8</ele><time>2026-04-22T13:33:33Z</time></trkpt><trkpt lat="36.9704272731006" lon="-3.2140744429735775"><ele>1632.0</ele><time>2026-04-22T13:33:34Z</time></trkpt><trkpt lat="36.97036065053173" lon="-3.213997420318192"><ele>1631.3999999999999</ele><time>2026-04-22T13:33:35Z</time></trkpt><trkpt lat="36.97025326281416" lon="-3.213968267757932"><ele>1630.8</ele><time>2026-04-22T13:33:36Z</time></trkpt><trkpt lat="36.97017202397463" lon="-3.2139182051171047"><ele>1630.2</ele><time>2026-04-22T13:33:37Z</time></trkpt><trkpt lat="36.97010441870271" lon="-3.213863098407872"><ele>1629.6</ele><time>2026-04-22T13:33:38Z</time></trkpt><trkpt lat="36.96999408640913" lon="-3.2137803854516567"><ele>1629.0</ele><time>2026-04-22T13:33:40Z</time></trkpt><trkpt lat="36.96987318195529" lon="-3.213793357723013"><ele>1628.2</ele><time>2026-04-22T13:33:42Z</time></trkpt><trkpt lat="36.96982600399142" lon="-3.21389585218947"><ele>1627.4</ele><time>2026-04-22T13:33:43Z</time></trkpt><trkpt lat="36.96982729818207" lon="-3.214054785089674"><ele>1626.6</ele><time>2026-04-22T13:33:44Z</time></trkpt><trkpt lat="36.96977519377196" lon="-3.214184623213454"><ele>1625.8</ele><time>2026-04-22T13:33:45Z</time></trkpt><trkpt lat="36.96972048675399" lon="-3.2142963648391745"><ele>1625.0</ele><time>2026-04-22T13:33:46Z</time></trkpt><trkpt lat="36.96964946249498" lon="-3.2143791846567713"><ele>1625.0</ele><time>2026-04-22T13:33:47Z</time></trkpt><trkpt lat="36.96957745418756" lon="-3.2144274821860623"><ele>1625.0</ele><time>2026-04-22T13:33:48Z</time></trkpt><trkpt lat="36.96949238457439" lon="-3.2144350841312535"><ele>1625.0</ele><time>2026-04-22T13:33:49Z</time></trkpt><trkpt lat="36.969386197631415" lon="-3.2144040335963107"><ele>1625.0</ele><time>2026-04-22T13:33:50Z</time></trkpt><trkpt lat="36.96929088322031" lon="-3.2142708046199604"><ele>1625.0</ele><time>2026-04-22T13:33:51Z</time></trkpt><trkpt lat="36.96919421831552" lon="-3.214227498385433"><ele>1622.4</ele><time>2026-04-22T13:33:52Z</time></trkpt><trkpt lat="36.96908571445036" lon="-3.2142018804132366"><ele>1619.8</ele><time>2026-04-22T13:33:53Z</time></trkpt><trkpt lat="36.96898470090978" lon="-3.2142010708616624"><ele>1617.1999999999998</ele><time>2026-04-22T13:33:54Z</time></trkpt><trkpt lat="36.96888371905722" lon="-3.214216321406416"><ele>1614.6</ele><time>2026-04-22T13:33:55Z</time></trkpt><trkpt lat="36.9687636848561" lon="-3.2142582409956946"><ele>1612.0</ele><time>2026-04-22T13:33:56Z</time></trkpt><trkpt lat="36.96865083101235" lon="-3.2143126085165474"><ele>1612.0</ele><time>2026-04-22T13:33:57Z</time></trkpt><trkpt lat="36.96853292070334" lon="-3.214349768679764"><ele>1612.0</ele><time>2026-04-22T13:33:58Z</time></trkpt><trkpt lat="36.96839164556933" lon="-3.2143634067809694"><ele>1612.0</ele><time>2026-04-22T13:33:59Z</time></trkpt><trkpt lat="36.968256747239465" lon="-3.214366896477736"><ele>1612.0</ele><time>2026-04-22T13:34:00Z</time></trkpt><trkpt lat="36.96813215640104" lon="-3.2143746276475533"><ele>1608.75</ele><time>2026-04-22T13:34:01Z</time></trkpt><trkpt lat="36.96801836842834" lon="-3.214376601454803"><ele>1605.5</ele><time>2026-04-22T13:34:02Z</time></trkpt><trkpt lat="36.9679018173225" lon="-3.2143889125848433"><ele>1602.25</ele><time>2026-04-22T13:34:03Z</time></trkpt><trkpt lat="36.96777126436692" lon="-3.2144161900588504"><ele>1599.0</ele><time>2026-04-22T13:34:04Z</time></trkpt><trkpt lat="36.967643099860375" lon="-3.214449637799213"><ele>1599.0</ele><time>2026-04-22T13:34:05Z</time></trkpt><trkpt lat="36.96753179187428" lon="-3.214487082954602"><ele>1599.0</ele><time>2026-04-22T13:34:06Z</time></trkpt><trkpt lat="36.967411124500494" lon="-3.214543108040497"><ele>1599.0</ele><time>2026-04-22T13:34:07Z</time></trkpt><trkpt lat="36.96730261712148" lon="-3.214625344883682"><ele>1599.0</ele><time>2026-04-22T13:34:08Z</time></trkpt><trkpt lat="36.96720826898247" lon="-3.21468551262222"><ele>1599.0</ele><time>2026-04-22T13:34:09Z</time></trkpt><trkpt lat="36.967107472255094" lon="-3.2147589283984885"><ele>1599.0</ele><time>2026-04-22T13:34:10Z</time></trkpt><trkpt lat="36.96700704406653" lon="-3.214821303188357"><ele>1599.0</ele><time>2026-04-22T13:34:11Z</time></trkpt><trkpt lat="36.96694265207209" lon="-3.214911471675761"><ele>1599.0</ele><time>2026-04-22T13:34:12Z</time></trkpt><trkpt lat="36.96687146062035" lon="-3.214981362570301"><ele>1599.0</ele><time>2026-04-22T13:34:13Z</time></trkpt><trkpt lat="36.96683484020899" lon="-3.2150525393295575"><ele>1599.0</ele><time>2026-04-22T13:34:14Z</time></trkpt><trkpt lat="36.96678493633541" lon="-3.215105721015128"><ele>1599.0</ele><time>2026-04-22T13:34:15Z</time></trkpt><trkpt lat="36.96671901676914" lon="-3.215125058865958"><ele>1599.0</ele><time>2026-04-22T13:34:16Z</time></trkpt><trkpt lat="36.96664737779108" lon="-3.2151034839724772"><ele>1599.0</ele><time>2026-04-22T13:34:17Z</time></trkpt><trkpt lat="36.96656129953492" lon="-3.2150509598066352"><ele>1599.0</ele><time>2026-04-22T13:34:18Z</time></trkpt><trkpt lat="36.96650088583621" lon="-3.2149261960151994"><ele>1599.0</ele><time>2026-04-22T13:34:19Z</time></trkpt><trkpt lat="36.96643303771754" lon="-3.2147988216019225"><ele>1591.0</ele><time>2026-04-22T13:34:20Z</time></trkpt><trkpt lat="36.96639428247303" lon="-3.214652205940128"><ele>1583.0</ele><time>2026-04-22T13:34:21Z</time></trkpt><trkpt lat="36.96635762803459" lon="-3.214515510754704"><ele>1575.0</ele><time>2026-04-22T13:34:22Z</time></trkpt><trkpt lat="36.96630592428249" lon="-3.21439326889206"><ele>1567.0</ele><time>2026-04-22T13:34:23Z</time></trkpt><trkpt lat="36.9662259781486" lon="-3.2142770412374686"><ele>1567.0</ele><time>2026-04-22T13:34:24Z</time></trkpt><trkpt lat="36.966131795166405" lon="-3.2141357782109417"><ele>1567.0</ele><time>2026-04-22T13:34:25Z</time></trkpt><trkpt lat="36.966062080889095" lon="-3.2139948225199775"><ele>1567.0</ele><time>2026-04-22T13:34:26Z</time></trkpt><trkpt lat="36.96597737633295" lon="-3.213905032378612"><ele>1567.0</ele><time>2026-04-22T13:34:27Z</time></trkpt><trkpt lat="36.96590692903055" lon="-3.213823249994646"><ele>1564.3999999999999</ele><time>2026-04-22T13:34:28Z</time></trkpt><trkpt lat="36.96583735113368" lon="-3.213769701006749"><ele>1561.8</ele><time>2026-04-22T13:34:29Z</time></trkpt><trkpt lat="36.96575046177715" lon="-3.2137173839015563"><ele>1559.2</ele><time>2026-04-22T13:34:30Z</time></trkpt><trkpt lat="36.96565732746678" lon="-3.213706794362658"><ele>1556.6</ele><time>2026-04-22T13:34:31Z</time></trkpt><trkpt lat="36.9655712764191" lon="-3.2137199278810225"><ele>1554.0</ele><time>2026-04-22T13:34:32Z</time></trkpt><trkpt lat="36.965467340502805" lon="-3.2137488930511706"><ele>1554.0</ele><time>2026-04-22T13:34:32.999Z</time></trkpt><trkpt lat="36.965370492197756" lon="-3.213792288479168"><ele>1554.0</ele><time>2026-04-22T13:34:33.999Z</time></trkpt><trkpt lat="36.96530115746823" lon="-3.2138637356289115"><ele>1554.0</ele><time>2026-04-22T13:34:34.999Z</time></trkpt><trkpt lat="36.96523596230036" lon="-3.213916776587382"><ele>1554.0</ele><time>2026-04-22T13:34:35.999Z</time></trkpt><trkpt lat="36.965167396282716" lon="-3.213924514337703"><ele>1554.0</ele><time>2026-04-22T13:34:36.999Z</time></trkpt><trkpt lat="36.96509531991143" lon="-3.2139185814848426"><ele>1554.0</ele><time>2026-04-22T13:34:37.999Z</time></trkpt><trkpt lat="36.96502023132914" lon="-3.213809327251124"><ele>1554.0</ele><time>2026-04-22T13:34:38.999Z</time></trkpt><trkpt lat="36.96500987103357" lon="-3.213665756563616"><ele>1554.0</ele><time>2026-04-22T13:34:39.999Z</time></trkpt><trkpt lat="36.96502217306558" lon="-3.213526762990867"><ele>1554.0</ele><time>2026-04-22T13:34:40.999Z</time></trkpt><trkpt lat="36.965033814222735" lon="-3.2133761270717884"><ele>1554.0</ele><time>2026-04-22T13:34:41.999Z</time></trkpt><trkpt lat="36.96506686921664" lon="-3.2132313640175014"><ele>1552.6</ele><time>2026-04-22T13:34:42.999Z</time></trkpt><trkpt lat="36.96509971946668" lon="-3.2131190233161497"><ele>1551.2</ele><time>2026-04-22T13:34:43.999Z</time></trkpt><trkpt lat="36.96513747399536" lon="-3.213028975377282"><ele>1549.8</ele><time>2026-04-22T13:34:44.999Z</time></trkpt><trkpt lat="36.96519604707068" lon="-3.2129481579912604"><ele>1548.3999999999999</ele><time>2026-04-22T13:34:45.999Z</time></trkpt><trkpt lat="36.965284179137576" lon="-3.2129113942450114"><ele>1547.0</ele><time>2026-04-22T13:34:46.999Z</time></trkpt><trkpt lat="36.96538679292479" lon="-3.2128740693508404"><ele>1547.0</ele><time>2026-04-22T13:34:47.999Z</time></trkpt><trkpt lat="36.965467210531116" lon="-3.2128324023955184"><ele>1547.0</ele><time>2026-04-22T13:34:48.999Z</time></trkpt><trkpt lat="36.965521851303734" lon="-3.212779196115998"><ele>1547.0</ele><time>2026-04-22T13:34:49.999Z</time></trkpt><trkpt lat="36.965458354833686" lon="-3.212613080795683"><ele>1547.0</ele><time>2026-04-22T13:34:51.999Z</time></trkpt><trkpt lat="36.96536038809961" lon="-3.212568651228115"><ele>1547.0</ele><time>2026-04-22T13:34:52.999Z</time></trkpt><trkpt lat="36.96523057666494" lon="-3.2125194896677147"><ele>1547.0</ele><time>2026-04-22T13:34:53.999Z</time></trkpt><trkpt lat="36.9650814992078" lon="-3.2124682342932322"><ele>1547.0</ele><time>2026-04-22T13:34:54.999Z</time></trkpt><trkpt lat="36.96494590547228" lon="-3.212471340836721"><ele>1547.0</ele><time>2026-04-22T13:34:55.999Z</time></trkpt><trkpt lat="36.96483466217658" lon="-3.2124711927088834"><ele>1547.0</ele><time>2026-04-22T13:34:57Z</time></trkpt><trkpt lat="36.96473677104802" lon="-3.2124676427261174"><ele>1544.8</ele><time>2026-04-22T13:34:58Z</time></trkpt><trkpt lat="36.964640242921504" lon="-3.212459335582967"><ele>1542.6</ele><time>2026-04-22T13:34:59Z</time></trkpt><trkpt lat="36.964529391926334" lon="-3.212418052812301"><ele>1540.3999999999999</ele><time>2026-04-22T13:35:00Z</time></trkpt><trkpt lat="36.96443018649199" lon="-3.2123375681377753"><ele>1538.1999999999998</ele><time>2026-04-22T13:35:01Z</time></trkpt><trkpt lat="36.96436819556684" lon="-3.212225547945824"><ele>1536.0</ele><time>2026-04-22T13:35:02Z</time></trkpt><trkpt lat="36.96430819709237" lon="-3.2120952633942945"><ele>1534.25</ele><time>2026-04-22T13:35:03Z</time></trkpt><trkpt lat="36.964270337960336" lon="-3.211943186007192"><ele>1532.5</ele><time>2026-04-22T13:35:04Z</time></trkpt><trkpt lat="36.9642555435433" lon="-3.2117998319192327"><ele>1530.75</ele><time>2026-04-22T13:35:05Z</time></trkpt><trkpt lat="36.964258039502354" lon="-3.211661607021389"><ele>1529.0</ele><time>2026-04-22T13:35:06Z</time></trkpt><trkpt lat="36.96428333671838" lon="-3.211524888691974"><ele>1527.6666666666667</ele><time>2026-04-22T13:35:07Z</time></trkpt><trkpt lat="36.964266679382845" lon="-3.211413743359919"><ele>1526.3333333333335</ele><time>2026-04-22T13:35:08Z</time></trkpt><trkpt lat="36.96424587202245" lon="-3.2113051384021136"><ele>1525.0</ele><time>2026-04-22T13:35:09Z</time></trkpt><trkpt lat="36.96421787533139" lon="-3.21119295222066"><ele>1523.6666666666667</ele><time>2026-04-22T13:35:10Z</time></trkpt><trkpt lat="36.96418306887905" lon="-3.2111020193211197"><ele>1522.3333333333333</ele><time>2026-04-22T13:35:11Z</time></trkpt><trkpt lat="36.96413630703492" lon="-3.2110015679904675"><ele>1521.0</ele><time>2026-04-22T13:35:12Z</time></trkpt><trkpt lat="36.964026741481824" lon="-3.210929558430976"><ele>1519.0</ele><time>2026-04-22T13:35:13Z</time></trkpt><trkpt lat="36.9639520700934" lon="-3.210765822475357"><ele>1517.0</ele><time>2026-04-22T13:35:14Z</time></trkpt><trkpt lat="36.96388396616653" lon="-3.2105855806671073"><ele>1515.0</ele><time>2026-04-22T13:35:15Z</time></trkpt><trkpt lat="36.9638375550121" lon="-3.2104123520995267"><ele>1513.0</ele><time>2026-04-22T13:35:16Z</time></trkpt><trkpt lat="36.96378500253652" lon="-3.2102938563029624"><ele>1511.0</ele><time>2026-04-22T13:35:17Z</time></trkpt><trkpt lat="36.96373949852822" lon="-3.210182519048553"><ele>1509.0</ele><time>2026-04-22T13:35:18Z</time></trkpt><trkpt lat="36.963686221235804" lon="-3.2100803678243395"><ele>1507.0</ele><time>2026-04-22T13:35:19Z</time></trkpt><trkpt lat="36.96362319140662" lon="-3.2099957731952964"><ele>1505.0</ele><time>2026-04-22T13:35:20Z</time></trkpt><trkpt lat="36.96354474790357" lon="-3.2099427926842767"><ele>1505.0</ele><time>2026-04-22T13:35:21Z</time></trkpt><trkpt lat="36.96345139596894" lon="-3.2099024713864788"><ele>1505.0</ele><time>2026-04-22T13:35:22Z</time></trkpt><trkpt lat="36.96335932161275" lon="-3.2098819444524898"><ele>1505.0</ele><time>2026-04-22T13:35:23Z</time></trkpt><trkpt lat="36.96327127120334" lon="-3.2098938303090656"><ele>1505.0</ele><time>2026-04-22T13:35:24Z</time></trkpt><trkpt lat="36.963170941534" lon="-3.209924659563828"><ele>1505.0</ele><time>2026-04-22T13:35:25Z</time></trkpt><trkpt lat="36.96305692896476" lon="-3.2099946131470096"><ele>1505.25</ele><time>2026-04-22T13:35:26Z</time></trkpt><trkpt lat="36.96295118798613" lon="-3.2100927219236977"><ele>1505.5</ele><time>2026-04-22T13:35:27Z</time></trkpt><trkpt lat="36.962845749840916" lon="-3.210198831383211"><ele>1505.75</ele><time>2026-04-22T13:35:28Z</time></trkpt><trkpt lat="36.9627443117737" lon="-3.210294365283673"><ele>1506.0</ele><time>2026-04-22T13:35:29Z</time></trkpt><trkpt lat="36.962673108161816" lon="-3.2103913249672837"><ele>1506.0</ele><time>2026-04-22T13:35:30Z</time></trkpt><trkpt lat="36.962602508862695" lon="-3.2104869069064073"><ele>1506.0</ele><time>2026-04-22T13:35:31Z</time></trkpt><trkpt lat="36.96253549012237" lon="-3.210572424432476"><ele>1506.0</ele><time>2026-04-22T13:35:32Z</time></trkpt><trkpt lat="36.96247061800201" lon="-3.210676390987768"><ele>1506.0</ele><time>2026-04-22T13:35:33Z</time></trkpt><trkpt lat="36.962406138878684" lon="-3.2107913232582526"><ele>1506.0</ele><time>2026-04-22T13:35:34Z</time></trkpt><trkpt lat="36.96234731744883" lon="-3.2108737899062394"><ele>1504.5</ele><time>2026-04-22T13:35:35Z</time></trkpt><trkpt lat="36.962299964206345" lon="-3.2109506470851716"><ele>1503.0</ele><time>2026-04-22T13:35:36Z</time></trkpt><trkpt lat="36.96224439924148" lon="-3.2109973782005885"><ele>1501.5</ele><time>2026-04-22T13:35:37Z</time></trkpt><trkpt lat="36.96217655142593" lon="-3.2110284343596542"><ele>1500.0</ele><time>2026-04-22T13:35:38Z</time></trkpt><trkpt lat="36.96207174432697" lon="-3.2110115674174438"><ele>1498.5</ele><time>2026-04-22T13:35:39Z</time></trkpt><trkpt lat="36.961985427479306" lon="-3.2109253792202166"><ele>1497.0</ele><time>2026-04-22T13:35:40Z</time></trkpt><trkpt lat="36.96192085198275" lon="-3.210828406068187"><ele>1497.0</ele><time>2026-04-22T13:35:41Z</time></trkpt><trkpt lat="36.96188438325811" lon="-3.2107254722357568"><ele>1497.0</ele><time>2026-04-22T13:35:42Z</time></trkpt><trkpt lat="36.96188669557487" lon="-3.210612173806265"><ele>1497.0</ele><time>2026-04-22T13:35:43Z</time></trkpt><trkpt lat="36.96194603106192" lon="-3.210496123132346"><ele>1497.0</ele><time>2026-04-22T13:35:44Z</time></trkpt><trkpt lat="36.96201426420109" lon="-3.2103745571404945"><ele>1497.0</ele><time>2026-04-22T13:35:45Z</time></trkpt><trkpt lat="36.96205586512965" lon="-3.210250995528545"><ele>1496.0</ele><time>2026-04-22T13:35:46Z</time></trkpt><trkpt lat="36.96208740488876" lon="-3.2101658039466554"><ele>1495.0</ele><time>2026-04-22T13:35:47Z</time></trkpt><trkpt lat="36.96210292242142" lon="-3.210040404370634"><ele>1494.0</ele><time>2026-04-22T13:35:49Z</time></trkpt><trkpt lat="36.96205744998733" lon="-3.2099773626418493"><ele>1493.0</ele><time>2026-04-22T13:35:50Z</time></trkpt><trkpt lat="36.96197440055753" lon="-3.209937494307577"><ele>1492.0</ele><time>2026-04-22T13:35:51Z</time></trkpt><trkpt lat="36.96186468400781" lon="-3.2099256917585275"><ele>1491.0</ele><time>2026-04-22T13:35:52Z</time></trkpt><trkpt lat="36.961759407090526" lon="-3.2098799052896463"><ele>1487.4</ele><time>2026-04-22T13:35:53Z</time></trkpt><trkpt lat="36.96167962981569" lon="-3.209852101472203"><ele>1483.8</ele><time>2026-04-22T13:35:54Z</time></trkpt><trkpt lat="36.96161108418126" lon="-3.209813827317399"><ele>1480.2</ele><time>2026-04-22T13:35:55Z</time></trkpt><trkpt lat="36.961605102606846" lon="-3.2096646770727943"><ele>1476.6000000000001</ele><time>2026-04-22T13:35:56Z</time></trkpt><trkpt lat="36.961566478149116" lon="-3.209550840796524"><ele>1473.0</ele><time>2026-04-22T13:35:57Z</time></trkpt><trkpt lat="36.96150210348852" lon="-3.2094770291917754"><ele>1472.4</ele><time>2026-04-22T13:35:58Z</time></trkpt><trkpt lat="36.96141659456853" lon="-3.2093954448134534"><ele>1471.8000000000002</ele><time>2026-04-22T13:35:59Z</time></trkpt><trkpt lat="36.96133951627326" lon="-3.2092968824776196"><ele>1471.2</ele><time>2026-04-22T13:36:00Z</time></trkpt><trkpt lat="36.961278337312706" lon="-3.2092105774542676"><ele>1470.6</ele><time>2026-04-22T13:36:01Z</time></trkpt><trkpt lat="36.96124457122085" lon="-3.2090754844467293"><ele>1470.0</ele><time>2026-04-22T13:36:02Z</time></trkpt><trkpt lat="36.96120498852643" lon="-3.208940777234001"><ele>1469.0</ele><time>2026-04-22T13:36:03Z</time></trkpt><trkpt lat="36.96116302411615" lon="-3.208817262033838"><ele>1468.0</ele><time>2026-04-22T13:36:04Z</time></trkpt><trkpt lat="36.96113072273706" lon="-3.208676682377127"><ele>1467.0</ele><time>2026-04-22T13:36:05Z</time></trkpt><trkpt lat="36.96110663883451" lon="-3.208564713165747"><ele>1466.0</ele><time>2026-04-22T13:36:06Z</time></trkpt><trkpt lat="36.96108535012686" lon="-3.2084834609538273"><ele>1465.0</ele><time>2026-04-22T13:36:07Z</time></trkpt><trkpt lat="36.96103769392261" lon="-3.208399458813751"><ele>1465.0</ele><time>2026-04-22T13:36:08Z</time></trkpt><trkpt lat="36.9609024741306" lon="-3.2083495551642427"><ele>1465.0</ele><time>2026-04-22T13:36:09Z</time></trkpt><trkpt lat="36.96079490522983" lon="-3.208210502030784"><ele>1465.0</ele><time>2026-04-22T13:36:10Z</time></trkpt><trkpt lat="36.96067101941127" lon="-3.2081082816088236"><ele>1465.0</ele><time>2026-04-22T13:36:11Z</time></trkpt><trkpt lat="36.96056401163222" lon="-3.2079984969412307"><ele>1459.75</ele><time>2026-04-22T13:36:12Z</time></trkpt><trkpt lat="36.96045440749416" lon="-3.207915033220424"><ele>1454.5</ele><time>2026-04-22T13:36:13Z</time></trkpt><trkpt lat="36.96034596041326" lon="-3.207836274703808"><ele>1449.25</ele><time>2026-04-22T13:36:14Z</time></trkpt><trkpt lat="36.960245570789205" lon="-3.2077348814745203"><ele>1444.0</ele><time>2026-04-22T13:36:15Z</time></trkpt><trkpt lat="36.96015140775208" lon="-3.207655005868897"><ele>1444.0</ele><time>2026-04-22T13:36:16Z</time></trkpt><trkpt lat="36.960078899875626" lon="-3.2075780394346842"><ele>1444.0</ele><time>2026-04-22T13:36:17Z</time></trkpt><trkpt lat="36.959999804997395" lon="-3.207541482555255"><ele>1444.0</ele><time>2026-04-22T13:36:18Z</time></trkpt><trkpt lat="36.95991939774354" lon="-3.2075071250453497"><ele>1444.0</ele><time>2026-04-22T13:36:19Z</time></trkpt><trkpt lat="36.95984305365002" lon="-3.2074967667970586"><ele>1444.0</ele><time>2026-04-22T13:36:20Z</time></trkpt><trkpt lat="36.95976670706151" lon="-3.2074938067906476"><ele>1444.0</ele><time>2026-04-22T13:36:21Z</time></trkpt><trkpt lat="36.95970487160909" lon="-3.207560496296596"><ele>1441.6</ele><time>2026-04-22T13:36:22Z</time></trkpt><trkpt lat="36.95966103722315" lon="-3.2076960550127604"><ele>1439.2</ele><time>2026-04-22T13:36:23Z</time></trkpt><trkpt lat="36.959596506389545" lon="-3.2077840879461332"><ele>1436.8</ele><time>2026-04-22T13:36:24Z</time></trkpt><trkpt lat="36.959493098400245" lon="-3.2078200915248978"><ele>1434.3999999999999</ele><time>2026-04-22T13:36:26Z</time></trkpt><trkpt lat="36.95944081418686" lon="-3.207679255855922"><ele>1432.0</ele><time>2026-04-22T13:36:27Z</time></trkpt><trkpt lat="36.95947372912454" lon="-3.207528117307339"><ele>1432.0</ele><time>2026-04-22T13:36:28Z</time></trkpt><trkpt lat="36.959566436520056" lon="-3.207408148067389"><ele>1432.0</ele><time>2026-04-22T13:36:29Z</time></trkpt><trkpt lat="36.95960118219883" lon="-3.2073201868765913"><ele>1432.0</ele><time>2026-04-22T13:36:30Z</time></trkpt><trkpt lat="36.95955808395283" lon="-3.2072288233266586"><ele>1432.0</ele><time>2026-04-22T13:36:32Z</time></trkpt><trkpt lat="36.95945478598844" lon="-3.2072315287236988"><ele>1432.0</ele><time>2026-04-22T13:36:33Z</time></trkpt><trkpt lat="36.959330051326454" lon="-3.2072986921812645"><ele>1428.75</ele><time>2026-04-22T13:36:34Z</time></trkpt><trkpt lat="36.959185858260334" lon="-3.207322165108157"><ele>1425.5</ele><time>2026-04-22T13:36:35Z</time></trkpt><trkpt lat="36.95906920112623" lon="-3.2074277165062637"><ele>1422.25</ele><time>2026-04-22T13:36:36Z</time></trkpt><trkpt lat="36.95894211456702" lon="-3.207498798870849"><ele>1419.0</ele><time>2026-04-22T13:36:37Z</time></trkpt><trkpt lat="36.958854594038606" lon="-3.207572179990067"><ele>1419.0</ele><time>2026-04-22T13:36:38Z</time></trkpt><trkpt lat="36.958784940899875" lon="-3.207629757365079"><ele>1419.0</ele><time>2026-04-22T13:36:38.999Z</time></trkpt><trkpt lat="36.95874322606906" lon="-3.2077000747805506"><ele>1419.0</ele><time>2026-04-22T13:36:39.999Z</time></trkpt><trkpt lat="36.95875221645006" lon="-3.2078076126796193"><ele>1419.0</ele><time>2026-04-22T13:36:40.999Z</time></trkpt><trkpt lat="36.95871697862272" lon="-3.2078903101956207"><ele>1419.0</ele><time>2026-04-22T13:36:41.999Z</time></trkpt><trkpt lat="36.958606391310276" lon="-3.2079541539198657"><ele>1419.0</ele><time>2026-04-22T13:36:43.999Z</time></trkpt><trkpt lat="36.95851280984455" lon="-3.207882855399332"><ele>1419.0</ele><time>2026-04-22T13:36:44.999Z</time></trkpt><trkpt lat="36.95856422395364" lon="-3.207681810278157"><ele>1419.0</ele><time>2026-04-22T13:36:45.999Z</time></trkpt><trkpt lat="36.95853988523266" lon="-3.2075769662228413"><ele>1419.0</ele><time>2026-04-22T13:36:46.999Z</time></trkpt><trkpt lat="36.958497677277045" lon="-3.2074757343790363"><ele>1419.0</ele><time>2026-04-22T13:36:48.999Z</time></trkpt><trkpt lat="36.958435819834655" lon="-3.207492987926891"><ele>1419.0</ele><time>2026-04-22T13:36:49.999Z</time></trkpt><trkpt lat="36.958371044476536" lon="-3.2075817109789244"><ele>1416.0</ele><time>2026-04-22T13:36:50.999Z</time></trkpt><trkpt lat="36.958328080923124" lon="-3.2076918267051338"><ele>1413.0</ele><time>2026-04-22T13:36:52Z</time></trkpt><trkpt lat="36.95829729250124" lon="-3.2078328170109143"><ele>1410.0</ele><time>2026-04-22T13:36:53Z</time></trkpt><trkpt lat="36.958294566178395" lon="-3.2079473435776444"><ele>1407.0</ele><time>2026-04-22T13:36:54Z</time></trkpt><trkpt lat="36.95829131810632" lon="-3.2080324078685787"><ele>1404.0</ele><time>2026-04-22T13:36:55Z</time></trkpt><trkpt lat="36.9582222925204" lon="-3.2081541879808646"><ele>1404.0</ele><time>2026-04-22T13:36:57Z</time></trkpt><trkpt lat="36.958133202968284" lon="-3.2081516473315745"><ele>1404.0</ele><time>2026-04-22T13:36:58Z</time></trkpt><trkpt lat="36.95803904347956" lon="-3.20811273160515"><ele>1404.0</ele><time>2026-04-22T13:36:59Z</time></trkpt><trkpt lat="36.95794063759586" lon="-3.208070150170193"><ele>1404.0</ele><time>2026-04-22T13:37:00Z</time></trkpt><trkpt lat="36.957880030581585" lon="-3.2079511174198263"><ele>1404.0</ele><time>2026-04-22T13:37:01Z</time></trkpt><trkpt lat="36.95782658626361" lon="-3.2078106026627555"><ele>1404.0</ele><time>2026-04-22T13:37:02Z</time></trkpt><trkpt lat="36.95776001876372" lon="-3.2076715163302305"><ele>1404.0</ele><time>2026-04-22T13:37:03Z</time></trkpt><trkpt lat="36.95771019350513" lon="-3.2075586619208583"><ele>1404.0</ele><time>2026-04-22T13:37:04Z</time></trkpt><trkpt lat="36.95768052654289" lon="-3.207472180228382"><ele>1404.0</ele><time>2026-04-22T13:37:05Z</time></trkpt><trkpt lat="36.957661792963286" lon="-3.207380161459444"><ele>1404.0</ele><time>2026-04-22T13:37:06Z</time></trkpt><trkpt lat="36.95765828754157" lon="-3.207266762062163"><ele>1401.2</ele><time>2026-04-22T13:37:07Z</time></trkpt><trkpt lat="36.95765607662777" lon="-3.2071542209498025"><ele>1398.4</ele><time>2026-04-22T13:37:08Z</time></trkpt><trkpt lat="36.95776025587685" lon="-3.2070643993648034"><ele>1395.6</ele><time>2026-04-22T13:37:09Z</time></trkpt><trkpt lat="36.957811872984166" lon="-3.206983895507902"><ele>1392.8</ele><time>2026-04-22T13:37:10Z</time></trkpt><trkpt lat="36.95786351458831" lon="-3.2069116336589745"><ele>1390.0</ele><time>2026-04-22T13:37:12Z</time></trkpt><trkpt lat="36.95779321422274" lon="-3.206959567202731"><ele>1390.0</ele><time>2026-04-22T13:37:17Z</time></trkpt><trkpt lat="36.957743177351006" lon="-3.2070163826842286"><ele>1390.0</ele><time>2026-04-22T13:37:18Z</time></trkpt><trkpt lat="36.95769246125507" lon="-3.2070784650832618"><ele>1390.0</ele><time>2026-04-22T13:37:19Z</time></trkpt><trkpt lat="36.95764557543938" lon="-3.2071371805668747"><ele>1390.0</ele><time>2026-04-22T13:37:20Z</time></trkpt><trkpt lat="36.957575407592365" lon="-3.2072340189983928"><ele>1390.0</ele><time>2026-04-22T13:37:22Z</time></trkpt><trkpt lat="36.95752591209625" lon="-3.2073185874921073"><ele>1390.0</ele><time>2026-04-22T13:37:25Z</time></trkpt><trkpt lat="36.95741681270738" lon="-3.2072798317156423"><ele>1389.6</ele><time>2026-04-22T13:40:15.001Z</time></trkpt><trkpt lat="36.95740920428671" lon="-3.2074051456281065"><ele>1389.2</ele><time>2026-04-22T14:03:40.999Z</time></trkpt><trkpt lat="36.957433476932174" lon="-3.207557162270902"><ele>1388.8000000000002</ele><time>2026-04-22T14:03:42.999Z</time></trkpt><trkpt lat="36.957446380104216" lon="-3.2076573772664294"><ele>1388.4</ele><time>2026-04-22T14:03:43.999Z</time></trkpt><trkpt lat="36.957460593066386" lon="-3.207770687480018"><ele>1388.0</ele><time>2026-04-22T14:03:44.999Z</time></trkpt><trkpt lat="36.95748230406654" lon="-3.2078814128096638"><ele>1388.0</ele><time>2026-04-22T14:03:45.999Z</time></trkpt><trkpt lat="36.95750764537881" lon="-3.207999221566644"><ele>1388.0</ele><time>2026-04-22T14:03:46.999Z</time></trkpt><trkpt lat="36.9575258662351" lon="-3.208109792598954"><ele>1388.0</ele><time>2026-04-22T14:03:47.999Z</time></trkpt><trkpt lat="36.95752074979277" lon="-3.208231269571818"><ele>1388.0</ele><time>2026-04-22T14:03:48.999Z</time></trkpt><trkpt lat="36.9574718074024" lon="-3.2083550144277027"><ele>1388.0</ele><time>2026-04-22T14:03:49.999Z</time></trkpt><trkpt lat="36.95740220179105" lon="-3.208464958945044"><ele>1387.8000000000002</ele><time>2026-04-22T14:03:50.999Z</time></trkpt><trkpt lat="36.9573272531629" lon="-3.2085672530316613"><ele>1387.6</ele><time>2026-04-22T14:03:51.999Z</time></trkpt><trkpt lat="36.95726323474188" lon="-3.2086552002297"><ele>1387.4</ele><time>2026-04-22T14:03:52.999Z</time></trkpt><trkpt lat="36.95719703330584" lon="-3.208742749485028"><ele>1387.1999999999998</ele><time>2026-04-22T14:03:53.999Z</time></trkpt><trkpt lat="36.95713717222584" lon="-3.208830660559969"><ele>1387.0</ele><time>2026-04-22T14:03:54.998Z</time></trkpt><trkpt lat="36.9570796136603" lon="-3.208923125757675"><ele>1387.0</ele><time>2026-04-22T14:03:55.998Z</time></trkpt><trkpt lat="36.95702616529507" lon="-3.2089973007275026"><ele>1387.0</ele><time>2026-04-22T14:03:56.998Z</time></trkpt><trkpt lat="36.95698307372253" lon="-3.2090754602929357"><ele>1387.0</ele><time>2026-04-22T14:03:57.998Z</time></trkpt><trkpt lat="36.95695680937861" lon="-3.209190430694701"><ele>1387.0</ele><time>2026-04-22T14:03:58.998Z</time></trkpt><trkpt lat="36.95692999316998" lon="-3.2093378471635394"><ele>1387.0</ele><time>2026-04-22T14:03:59.998Z</time></trkpt><trkpt lat="36.95693000612186" lon="-3.209499019961137"><ele>1387.0</ele><time>2026-04-22T14:04:00.998Z</time></trkpt><trkpt lat="36.956958451177755" lon="-3.2096367833763004"><ele>1387.0</ele><time>2026-04-22T14:04:01.998Z</time></trkpt><trkpt lat="36.95700918003689" lon="-3.2097407666821853"><ele>1387.0</ele><time>2026-04-22T14:04:02.998Z</time></trkpt><trkpt lat="36.957018574486156" lon="-3.2098544075083257"><ele>1387.0</ele><time>2026-04-22T14:04:03.998Z</time></trkpt><trkpt lat="36.95698999011744" lon="-3.2099628493619203"><ele>1387.0</ele><time>2026-04-22T14:04:04.999Z</time></trkpt><trkpt lat="36.95692518357591" lon="-3.2100751364249054"><ele>1387.0</ele><time>2026-04-22T14:04:05.999Z</time></trkpt><trkpt lat="36.956859266625116" lon="-3.2101832166112487"><ele>1387.0</ele><time>2026-04-22T14:04:06.999Z</time></trkpt><trkpt lat="36.95677490700382" lon="-3.2103081168824907"><ele>1387.0</ele><time>2026-04-22T14:04:07.999Z</time></trkpt><trkpt lat="36.9567117249886" lon="-3.2104334209794074"><ele>1387.0</ele><time>2026-04-22T14:04:08.999Z</time></trkpt><trkpt lat="36.956672926022165" lon="-3.210581230109866"><ele>1382.0</ele><time>2026-04-22T14:04:09.999Z</time></trkpt><trkpt lat="36.95666072542347" lon="-3.2107578491765905"><ele>1377.0</ele><time>2026-04-22T14:04:10.999Z</time></trkpt><trkpt lat="36.95666225101566" lon="-3.210920150957477"><ele>1372.0</ele><time>2026-04-22T14:04:11.999Z</time></trkpt><trkpt lat="36.9566465363772" lon="-3.2110852692180054"><ele>1367.0</ele><time>2026-04-22T14:04:12.999Z</time></trkpt><trkpt lat="36.95659250891419" lon="-3.21124743221903"><ele>1367.0</ele><time>2026-04-22T14:04:13.999Z</time></trkpt><trkpt lat="36.95654036425971" lon="-3.211403407297706"><ele>1367.0</ele><time>2026-04-22T14:04:14.999Z</time></trkpt><trkpt lat="36.95652019590332" lon="-3.2115617796081017"><ele>1367.0</ele><time>2026-04-22T14:04:15.999Z</time></trkpt><trkpt lat="36.95649755679" lon="-3.2117033117495"><ele>1367.0</ele><time>2026-04-22T14:04:16.999Z</time></trkpt><trkpt lat="36.95642779464709" lon="-3.2118220966910833"><ele>1368.0</ele><time>2026-04-22T14:04:17.999Z</time></trkpt><trkpt lat="36.95631743076441" lon="-3.211913787849505"><ele>1369.0</ele><time>2026-04-22T14:04:18.999Z</time></trkpt><trkpt lat="36.95622079130687" lon="-3.2120242033064477"><ele>1370.0</ele><time>2026-04-22T14:04:19.999Z</time></trkpt><trkpt lat="36.956159804060185" lon="-3.2121593338939416"><ele>1371.0</ele><time>2026-04-22T14:04:20.999Z</time></trkpt><trkpt lat="36.956139295974076" lon="-3.212327121463558"><ele>1371.0</ele><time>2026-04-22T14:04:21.999Z</time></trkpt><trkpt lat="36.956095518205956" lon="-3.212503459200675"><ele>1371.0</ele><time>2026-04-22T14:04:22.999Z</time></trkpt><trkpt lat="36.95608825503874" lon="-3.21268459677652"><ele>1371.0</ele><time>2026-04-22T14:04:23.999Z</time></trkpt><trkpt lat="36.95608885168039" lon="-3.2128593989909526"><ele>1371.0</ele><time>2026-04-22T14:04:24.999Z</time></trkpt><trkpt lat="36.9561033230014" lon="-3.21304326428442"><ele>1368.6666666666667</ele><time>2026-04-22T14:04:25.999Z</time></trkpt><trkpt lat="36.95612398565039" lon="-3.2132261091202436"><ele>1366.3333333333335</ele><time>2026-04-22T14:04:26.999Z</time></trkpt><trkpt lat="36.95614232977192" lon="-3.213419215412919"><ele>1364.0</ele><time>2026-04-22T14:04:27.999Z</time></trkpt><trkpt lat="36.95614762844758" lon="-3.21360596393663"><ele>1364.0</ele><time>2026-04-22T14:04:28.999Z</time></trkpt><trkpt lat="36.95617257534608" lon="-3.2137831779110995"><ele>1364.0</ele><time>2026-04-22T14:04:29.999Z</time></trkpt><trkpt lat="36.95622758524855" lon="-3.2139435945897517"><ele>1364.0</ele><time>2026-04-22T14:04:30.999Z</time></trkpt><trkpt lat="36.95629965185106" lon="-3.2140909318554582"><ele>1364.0</ele><time>2026-04-22T14:04:31.999Z</time></trkpt><trkpt lat="36.95638286944025" lon="-3.2142383444134364"><ele>1365.25</ele><time>2026-04-22T14:04:32.999Z</time></trkpt><trkpt lat="36.956480728750506" lon="-3.214380688724415"><ele>1366.5</ele><time>2026-04-22T14:04:33.999Z</time></trkpt><trkpt lat="36.95659415548909" lon="-3.214494943621075"><ele>1367.75</ele><time>2026-04-22T14:04:34.999Z</time></trkpt><trkpt lat="36.95671842518203" lon="-3.2145905058535633"><ele>1369.0</ele><time>2026-04-22T14:04:35.999Z</time></trkpt><trkpt lat="36.95684162339569" lon="-3.214670026163218"><ele>1369.0</ele><time>2026-04-22T14:04:36.999Z</time></trkpt><trkpt lat="36.95695648551304" lon="-3.2147678857091044"><ele>1369.0</ele><time>2026-04-22T14:04:37.999Z</time></trkpt><trkpt lat="36.957068710797124" lon="-3.214854262833884"><ele>1369.0</ele><time>2026-04-22T14:04:38.999Z</time></trkpt><trkpt lat="36.95715850145802" lon="-3.2149705143485736"><ele>1369.0</ele><time>2026-04-22T14:04:39.999Z</time></trkpt><trkpt lat="36.95720788533051" lon="-3.215119705807618"><ele>1364.25</ele><time>2026-04-22T14:04:41Z</time></trkpt><trkpt lat="36.95722072371057" lon="-3.2152986716545096"><ele>1359.5</ele><time>2026-04-22T14:04:42Z</time></trkpt><trkpt lat="36.95727348054636" lon="-3.2154416874821865"><ele>1354.75</ele><time>2026-04-22T14:04:43Z</time></trkpt><trkpt lat="36.95736937187996" lon="-3.2155714388841754"><ele>1350.0</ele><time>2026-04-22T14:04:44Z</time></trkpt><trkpt lat="36.9574781204538" lon="-3.2156794270499547"><ele>1349.6</ele><time>2026-04-22T14:04:45Z</time></trkpt><trkpt lat="36.95759683736835" lon="-3.2157216246110343"><ele>1349.2</ele><time>2026-04-22T14:04:46Z</time></trkpt><trkpt lat="36.95770277696279" lon="-3.2157837980008175"><ele>1348.8000000000002</ele><time>2026-04-22T14:04:47Z</time></trkpt><trkpt lat="36.95778517854369" lon="-3.2158561464363227"><ele>1348.4</ele><time>2026-04-22T14:04:48Z</time></trkpt><trkpt lat="36.95784198550162" lon="-3.2159472966739386"><ele>1348.0</ele><time>2026-04-22T14:04:49Z</time></trkpt><trkpt lat="36.95785244906946" lon="-3.216081189816891"><ele>1348.0</ele><time>2026-04-22T14:04:50Z</time></trkpt><trkpt lat="36.957812527763124" lon="-3.2162356017701645"><ele>1348.0</ele><time>2026-04-22T14:04:51Z</time></trkpt><trkpt lat="36.957744033832675" lon="-3.2163823604433284"><ele>1348.0</ele><time>2026-04-22T14:04:52Z</time></trkpt><trkpt lat="36.95766497256299" lon="-3.2164935363432914"><ele>1348.0</ele><time>2026-04-22T14:04:53Z</time></trkpt><trkpt lat="36.95756989109231" lon="-3.2165472554144703"><ele>1346.0</ele><time>2026-04-22T14:04:54Z</time></trkpt><trkpt lat="36.957450060209354" lon="-3.2165544159523205"><ele>1344.0</ele><time>2026-04-22T14:04:55Z</time></trkpt><trkpt lat="36.95731209339435" lon="-3.2165543911504537"><ele>1342.0</ele><time>2026-04-22T14:04:56Z</time></trkpt><trkpt lat="36.95717748126282" lon="-3.2165832654011366"><ele>1340.0</ele><time>2026-04-22T14:04:57Z</time></trkpt><trkpt lat="36.95704600084217" lon="-3.216590899216113"><ele>1340.0</ele><time>2026-04-22T14:04:58Z</time></trkpt><trkpt lat="36.95690926834795" lon="-3.216530059270616"><ele>1340.0</ele><time>2026-04-22T14:04:59Z</time></trkpt><trkpt lat="36.95676728147975" lon="-3.2164297816837024"><ele>1340.0</ele><time>2026-04-22T14:05:00Z</time></trkpt><trkpt lat="36.956641939140425" lon="-3.2163423298861913"><ele>1334.0</ele><time>2026-04-22T14:05:01Z</time></trkpt><trkpt lat="36.95652368392342" lon="-3.2162756794501584"><ele>1328.0</ele><time>2026-04-22T14:05:02Z</time></trkpt><trkpt lat="36.956398689177576" lon="-3.216206313182626"><ele>1322.0</ele><time>2026-04-22T14:05:03Z</time></trkpt><trkpt lat="36.95628133274607" lon="-3.216179367678072"><ele>1316.0</ele><time>2026-04-22T14:05:04Z</time></trkpt><trkpt lat="36.95616429793006" lon="-3.216198603194061"><ele>1316.0</ele><time>2026-04-22T14:05:05Z</time></trkpt><trkpt lat="36.95603913588481" lon="-3.2162593157270347"><ele>1316.0</ele><time>2026-04-22T14:05:06Z</time></trkpt><trkpt lat="36.95590557410244" lon="-3.216330892643092"><ele>1316.0</ele><time>2026-04-22T14:05:07Z</time></trkpt><trkpt lat="36.95580861467736" lon="-3.2164665964373453"><ele>1316.0</ele><time>2026-04-22T14:05:08Z</time></trkpt><trkpt lat="36.95570326480495" lon="-3.216558125874214"><ele>1320.25</ele><time>2026-04-22T14:05:09Z</time></trkpt><trkpt lat="36.95559509726212" lon="-3.216631652675822"><ele>1324.5</ele><time>2026-04-22T14:05:10Z</time></trkpt><trkpt lat="36.95544789568745" lon="-3.216658148395008"><ele>1328.75</ele><time>2026-04-22T14:05:11Z</time></trkpt><trkpt lat="36.955282161720795" lon="-3.216651670968292"><ele>1333.0</ele><time>2026-04-22T14:05:12Z</time></trkpt><trkpt lat="36.95512068369441" lon="-3.216654524136931"><ele>1329.0</ele><time>2026-04-22T14:05:13Z</time></trkpt><trkpt lat="36.95496831825241" lon="-3.216645961313506"><ele>1325.0</ele><time>2026-04-22T14:05:14Z</time></trkpt><trkpt lat="36.9548158353388" lon="-3.2166137631433958"><ele>1321.0</ele><time>2026-04-22T14:05:15Z</time></trkpt><trkpt lat="36.954662469413265" lon="-3.2165615497977345"><ele>1321.0</ele><time>2026-04-22T14:05:16Z</time></trkpt><trkpt lat="36.954521046904425" lon="-3.2165050607718704"><ele>1321.0</ele><time>2026-04-22T14:05:17Z</time></trkpt><trkpt lat="36.95438914085137" lon="-3.2164313196619387"><ele>1321.0</ele><time>2026-04-22T14:05:18Z</time></trkpt><trkpt lat="36.95426522826898" lon="-3.2163505991882317"><ele>1321.0</ele><time>2026-04-22T14:05:19Z</time></trkpt><trkpt lat="36.95414565825145" lon="-3.216281117848242"><ele>1314.8</ele><time>2026-04-22T14:05:20Z</time></trkpt><trkpt lat="36.95403450083798" lon="-3.216234663446048"><ele>1308.6</ele><time>2026-04-22T14:05:21Z</time></trkpt><trkpt lat="36.953936681779574" lon="-3.2162155340226484"><ele>1302.4</ele><time>2026-04-22T14:05:22Z</time></trkpt><trkpt lat="36.95383974929317" lon="-3.21625294258334"><ele>1296.2</ele><time>2026-04-22T14:05:23Z</time></trkpt><trkpt lat="36.953748313912655" lon="-3.2162906551119503"><ele>1290.0</ele><time>2026-04-22T14:05:24Z</time></trkpt><trkpt lat="36.95366776950884" lon="-3.2163381204589268"><ele>1290.0</ele><time>2026-04-22T14:05:25Z</time></trkpt><trkpt lat="36.95359955186393" lon="-3.2163949551547235"><ele>1290.0</ele><time>2026-04-22T14:05:26Z</time></trkpt><trkpt lat="36.95352937595324" lon="-3.2164426662702224"><ele>1290.0</ele><time>2026-04-22T14:05:27Z</time></trkpt><trkpt lat="36.953469254766205" lon="-3.216531915766449"><ele>1290.0</ele><time>2026-04-22T14:05:28Z</time></trkpt><trkpt lat="36.95339891214564" lon="-3.2166304167660713"><ele>1290.0</ele><time>2026-04-22T14:05:29Z</time></trkpt><trkpt lat="36.953328722784974" lon="-3.216743218359445"><ele>1294.25</ele><time>2026-04-22T14:05:30Z</time></trkpt><trkpt lat="36.953264646198086" lon="-3.216877537358091"><ele>1298.5</ele><time>2026-04-22T14:05:31Z</time></trkpt><trkpt lat="36.95319961829422" lon="-3.2170265591181204"><ele>1302.75</ele><time>2026-04-22T14:05:32Z</time></trkpt><trkpt lat="36.95312578932477" lon="-3.2171898217969743"><ele>1307.0</ele><time>2026-04-22T14:05:33Z</time></trkpt><trkpt lat="36.95305115376905" lon="-3.2173650402853684"><ele>1311.3333333333335</ele><time>2026-04-22T14:05:34Z</time></trkpt><trkpt lat="36.952982729056814" lon="-3.2175551223084775"><ele>1315.6666666666667</ele><time>2026-04-22T14:05:35Z</time></trkpt><trkpt lat="36.95293710673983" lon="-3.217756301018309"><ele>1320.0</ele><time>2026-04-22T14:05:36Z</time></trkpt><trkpt lat="36.952902582069356" lon="-3.217951281450434"><ele>1320.0</ele><time>2026-04-22T14:05:37Z</time></trkpt><trkpt lat="36.952886078578324" lon="-3.2181088847337187"><ele>1320.0</ele><time>2026-04-22T14:05:38Z</time></trkpt><trkpt lat="36.95289740009188" lon="-3.218234687153075"><ele>1320.0</ele><time>2026-04-22T14:05:39Z</time></trkpt><trkpt lat="36.95296084820639" lon="-3.2183462657752173"><ele>1320.0</ele><time>2026-04-22T14:05:40Z</time></trkpt><trkpt lat="36.953077731018816" lon="-3.21844714806708"><ele>1318.3333333333333</ele><time>2026-04-22T14:05:41Z</time></trkpt><trkpt lat="36.95320427043378" lon="-3.2185277886188497"><ele>1316.6666666666665</ele><time>2026-04-22T14:05:42Z</time></trkpt><trkpt lat="36.953343123883904" lon="-3.218618021000554"><ele>1315.0</ele><time>2026-04-22T14:05:43Z</time></trkpt><trkpt lat="36.95347106851324" lon="-3.218748493859231"><ele>1320.3333333333333</ele><time>2026-04-22T14:05:44Z</time></trkpt><trkpt lat="36.953560968420135" lon="-3.2189067237671054"><ele>1325.6666666666667</ele><time>2026-04-22T14:05:45Z</time></trkpt><trkpt lat="36.95360728401742" lon="-3.219086093095324"><ele>1331.0</ele><time>2026-04-22T14:05:46Z</time></trkpt><trkpt lat="36.9536128343946" lon="-3.2192791642070455"><ele>1331.0</ele><time>2026-04-22T14:05:47Z</time></trkpt><trkpt lat="36.953593870346374" lon="-3.219485924948358"><ele>1331.0</ele><time>2026-04-22T14:05:48Z</time></trkpt><trkpt lat="36.95355506062599" lon="-3.2196820846433503"><ele>1331.0</ele><time>2026-04-22T14:05:49Z</time></trkpt><trkpt lat="36.953490140308396" lon="-3.2198392611845432"><ele>1329.6666666666667</ele><time>2026-04-22T14:05:50Z</time></trkpt><trkpt lat="36.953383652966394" lon="-3.2199748247523394"><ele>1328.3333333333333</ele><time>2026-04-22T14:05:51Z</time></trkpt><trkpt lat="36.953247944229744" lon="-3.2201050874705954"><ele>1327.0</ele><time>2026-04-22T14:05:52Z</time></trkpt><trkpt lat="36.95315998066823" lon="-3.2202786950051925"><ele>1319.6666666666665</ele><time>2026-04-22T14:05:53Z</time></trkpt><trkpt lat="36.953077806948876" lon="-3.2204675383498"><ele>1312.3333333333333</ele><time>2026-04-22T14:05:54Z</time></trkpt><trkpt lat="36.95301319057489" lon="-3.2206466905204194"><ele>1305.0</ele><time>2026-04-22T14:05:55Z</time></trkpt><trkpt lat="36.95292158428831" lon="-3.2207994144420313"><ele>1305.0</ele><time>2026-04-22T14:05:56Z</time></trkpt><trkpt lat="36.9528084511522" lon="-3.22092078199599"><ele>1305.0</ele><time>2026-04-22T14:05:57Z</time></trkpt><trkpt lat="36.95270033406043" lon="-3.221037743611336"><ele>1305.0</ele><time>2026-04-22T14:05:58Z</time></trkpt><trkpt lat="36.95262801655444" lon="-3.221175985447057"><ele>1305.0</ele><time>2026-04-22T14:05:59Z</time></trkpt><trkpt lat="36.95261803486244" lon="-3.221338334805932"><ele>1305.6666666666667</ele><time>2026-04-22T14:06:00Z</time></trkpt><trkpt lat="36.95264226373629" lon="-3.221516314090843"><ele>1306.3333333333335</ele><time>2026-04-22T14:06:00.999Z</time></trkpt><trkpt lat="36.952694948928865" lon="-3.221711843998767"><ele>1307.0</ele><time>2026-04-22T14:06:01.999Z</time></trkpt><trkpt lat="36.95278011495423" lon="-3.2218869030273316"><ele>1307.0</ele><time>2026-04-22T14:06:02.999Z</time></trkpt><trkpt lat="36.952858051961066" lon="-3.2220365622988414"><ele>1307.0</ele><time>2026-04-22T14:06:03.999Z</time></trkpt><trkpt lat="36.952915979988276" lon="-3.2221775131402124"><ele>1307.0</ele><time>2026-04-22T14:06:04.999Z</time></trkpt><trkpt lat="36.95291503133274" lon="-3.222364229318376"><ele>1307.0</ele><time>2026-04-22T14:06:05.999Z</time></trkpt><trkpt lat="36.95289158446779" lon="-3.2225824058910644"><ele>1305.3333333333335</ele><time>2026-04-22T14:06:06.999Z</time></trkpt><trkpt lat="36.95291714075557" lon="-3.2227907566622433"><ele>1303.6666666666667</ele><time>2026-04-22T14:06:07.999Z</time></trkpt><trkpt lat="36.95291808907178" lon="-3.222974501027937"><ele>1302.0</ele><time>2026-04-22T14:06:08.999Z</time></trkpt><trkpt lat="36.952891937191886" lon="-3.223143601155552"><ele>1299.75</ele><time>2026-04-22T14:06:09.999Z</time></trkpt><trkpt lat="36.95282665237133" lon="-3.223300009146356"><ele>1297.5</ele><time>2026-04-22T14:06:10.999Z</time></trkpt><trkpt lat="36.95276975535009" lon="-3.2234224812604007"><ele>1295.25</ele><time>2026-04-22T14:06:11.999Z</time></trkpt><trkpt lat="36.95278821948655" lon="-3.2235426195918753"><ele>1293.0</ele><time>2026-04-22T14:06:12.999Z</time></trkpt><trkpt lat="36.952848172198955" lon="-3.2236788729429096"><ele>1293.0</ele><time>2026-04-22T14:06:13.999Z</time></trkpt><trkpt lat="36.952920535905434" lon="-3.22385266588962"><ele>1293.0</ele><time>2026-04-22T14:06:14.999Z</time></trkpt><trkpt lat="36.95301422995917" lon="-3.2239877721628547"><ele>1293.0</ele><time>2026-04-22T14:06:15.999Z</time></trkpt><trkpt lat="36.95309437901154" lon="-3.2240918281826234"><ele>1293.0</ele><time>2026-04-22T14:06:17Z</time></trkpt><trkpt lat="36.953143324874034" lon="-3.2241816529758434"><ele>1290.4</ele><time>2026-04-22T14:06:18Z</time></trkpt><trkpt lat="36.95313590974872" lon="-3.224282151853105"><ele>1287.8000000000002</ele><time>2026-04-22T14:06:19Z</time></trkpt><trkpt lat="36.95308178077189" lon="-3.2243956306122383"><ele>1285.2</ele><time>2026-04-22T14:06:20Z</time></trkpt><trkpt lat="36.95299281084212" lon="-3.224464051943321"><ele>1282.6</ele><time>2026-04-22T14:06:21Z</time></trkpt><trkpt lat="36.952883668516876" lon="-3.224472132573462"><ele>1280.0</ele><time>2026-04-22T14:06:22Z</time></trkpt><trkpt lat="36.95276604062019" lon="-3.224421926084489"><ele>1280.0</ele><time>2026-04-22T14:06:23Z</time></trkpt><trkpt lat="36.95263557404866" lon="-3.2242717586720846"><ele>1280.0</ele><time>2026-04-22T14:06:24Z</time></trkpt><trkpt lat="36.95246094627869" lon="-3.224204802319387"><ele>1280.0</ele><time>2026-04-22T14:06:25Z</time></trkpt><trkpt lat="36.95226832438235" lon="-3.2241393030934185"><ele>1279.5</ele><time>2026-04-22T14:06:26Z</time></trkpt><trkpt lat="36.95211942579523" lon="-3.224040781080678"><ele>1279.0</ele><time>2026-04-22T14:06:27Z</time></trkpt><trkpt lat="36.95200146028722" lon="-3.223983696075786"><ele>1278.5</ele><time>2026-04-22T14:06:28Z</time></trkpt><trkpt lat="36.95189965385757" lon="-3.2239964196626114"><ele>1278.0</ele><time>2026-04-22T14:06:29Z</time></trkpt><trkpt lat="36.95179268695162" lon="-3.224040973489992"><ele>1277.5</ele><time>2026-04-22T14:06:30Z</time></trkpt><trkpt lat="36.95167442846827" lon="-3.224129531096009"><ele>1277.0</ele><time>2026-04-22T14:06:31Z</time></trkpt><trkpt lat="36.95154619381197" lon="-3.2241727825319946"><ele>1276.5</ele><time>2026-04-22T14:06:32Z</time></trkpt><trkpt lat="36.95141677570414" lon="-3.2241624313473918"><ele>1276.0</ele><time>2026-04-22T14:06:33Z</time></trkpt><trkpt lat="36.95128583624494" lon="-3.224069361919912"><ele>1276.0</ele><time>2026-04-22T14:06:34Z</time></trkpt><trkpt lat="36.951155722210295" lon="-3.2240033404091597"><ele>1276.0</ele><time>2026-04-22T14:06:35Z</time></trkpt><trkpt lat="36.951020351864926" lon="-3.2240308014191017"><ele>1276.0</ele><time>2026-04-22T14:06:36Z</time></trkpt><trkpt lat="36.95087381254154" lon="-3.2240684055052005"><ele>1276.0</ele><time>2026-04-22T14:06:37Z</time></trkpt><trkpt lat="36.95073176269736" lon="-3.2240940278533694"><ele>1275.0</ele><time>2026-04-22T14:06:38Z</time></trkpt><trkpt lat="36.950604133992876" lon="-3.2241386789049318"><ele>1274.0</ele><time>2026-04-22T14:06:39Z</time></trkpt><trkpt lat="36.95048415305562" lon="-3.2241607757746635"><ele>1273.0</ele><time>2026-04-22T14:06:40Z</time></trkpt><trkpt lat="36.9503669417927" lon="-3.2241638882633143"><ele>1272.0</ele><time>2026-04-22T14:06:41Z</time></trkpt><trkpt lat="36.95025438998791" lon="-3.2241446091880555"><ele>1272.0</ele><time>2026-04-22T14:06:42Z</time></trkpt><trkpt lat="36.950146369912524" lon="-3.2241123091237407"><ele>1272.0</ele><time>2026-04-22T14:06:43Z</time></trkpt><trkpt lat="36.950041661189694" lon="-3.2240690447029055"><ele>1272.0</ele><time>2026-04-22T14:06:44Z</time></trkpt><trkpt lat="36.94993302363536" lon="-3.2240302764364523"><ele>1272.0</ele><time>2026-04-22T14:06:45Z</time></trkpt><trkpt lat="36.94981952502469" lon="-3.2240039148280797"><ele>1271.4</ele><time>2026-04-22T14:06:46Z</time></trkpt><trkpt lat="36.9497143691954" lon="-3.223985415682274"><ele>1270.8000000000002</ele><time>2026-04-22T14:06:47Z</time></trkpt><trkpt lat="36.9496136120732" lon="-3.2239773238643985"><ele>1270.2</ele><time>2026-04-22T14:06:48Z</time></trkpt><trkpt lat="36.94951732606085" lon="-3.2239805581959105"><ele>1269.6000000000001</ele><time>2026-04-22T14:06:49Z</time></trkpt><trkpt lat="36.94942101168111" lon="-3.224009070546591"><ele>1269.0</ele><time>2026-04-22T14:06:50Z</time></trkpt><trkpt lat="36.949335905376714" lon="-3.2240781504474376"><ele>1269.0</ele><time>2026-04-22T14:06:51Z</time></trkpt><trkpt lat="36.949244656026444" lon="-3.2241686682451314"><ele>1269.0</ele><time>2026-04-22T14:06:52Z</time></trkpt><trkpt lat="36.94918906079444" lon="-3.2242942750035626"><ele>1269.0</ele><time>2026-04-22T14:06:53Z</time></trkpt><trkpt lat="36.949127790170785" lon="-3.224420193089714"><ele>1269.0</ele><time>2026-04-22T14:06:54Z</time></trkpt><trkpt lat="36.94905684855157" lon="-3.224534303769058"><ele>1268.75</ele><time>2026-04-22T14:06:55Z</time></trkpt><trkpt lat="36.94899919741172" lon="-3.22465184750105"><ele>1268.5</ele><time>2026-04-22T14:06:56Z</time></trkpt><trkpt lat="36.94893247166803" lon="-3.224771322938466"><ele>1268.25</ele><time>2026-04-22T14:06:57Z</time></trkpt><trkpt lat="36.9488622705698" lon="-3.224891953587206"><ele>1268.0</ele><time>2026-04-22T14:06:58Z</time></trkpt><trkpt lat="36.948789873696825" lon="-3.2250099429709618"><ele>1268.0</ele><time>2026-04-22T14:06:59Z</time></trkpt><trkpt lat="36.94871698492914" lon="-3.2251284562729654"><ele>1268.0</ele><time>2026-04-22T14:07:00Z</time></trkpt><trkpt lat="36.948659891098565" lon="-3.2252529963500254"><ele>1268.0</ele><time>2026-04-22T14:07:01Z</time></trkpt><trkpt lat="36.948601342385246" lon="-3.2253682932235113"><ele>1268.0</ele><time>2026-04-22T14:07:02Z</time></trkpt><trkpt lat="36.948541961568495" lon="-3.2254794272770355"><ele>1268.0</ele><time>2026-04-22T14:07:03Z</time></trkpt><trkpt lat="36.94846904086235" lon="-3.22558133487151"><ele>1268.0</ele><time>2026-04-22T14:07:04Z</time></trkpt><trkpt lat="36.94841355693649" lon="-3.2257029949445735"><ele>1268.0</ele><time>2026-04-22T14:07:05Z</time></trkpt><trkpt lat="36.94834959648316" lon="-3.22581623282628"><ele>1268.0</ele><time>2026-04-22T14:07:06Z</time></trkpt><trkpt lat="36.948283460682276" lon="-3.225908567542001"><ele>1268.0</ele><time>2026-04-22T14:07:07Z</time></trkpt><trkpt lat="36.948220672484716" lon="-3.226027675414155"><ele>1268.25</ele><time>2026-04-22T14:07:08Z</time></trkpt><trkpt lat="36.948155843765264" lon="-3.2261366282375605"><ele>1268.5</ele><time>2026-04-22T14:07:09Z</time></trkpt><trkpt lat="36.948092146236995" lon="-3.2262523935323695"><ele>1268.75</ele><time>2026-04-22T14:07:10Z</time></trkpt><trkpt lat="36.94802629632647" lon="-3.226377084879846"><ele>1269.0</ele><time>2026-04-22T14:07:11Z</time></trkpt><trkpt lat="36.947958798219865" lon="-3.226501790569283"><ele>1269.0</ele><time>2026-04-22T14:07:12Z</time></trkpt><trkpt lat="36.947890201591136" lon="-3.226628590128709"><ele>1269.0</ele><time>2026-04-22T14:07:13Z</time></trkpt><trkpt lat="36.94782626435172" lon="-3.2267474785049566"><ele>1269.0</ele><time>2026-04-22T14:07:14Z</time></trkpt><trkpt lat="36.94776809538612" lon="-3.226854016039625"><ele>1269.0</ele><time>2026-04-22T14:07:15Z</time></trkpt><trkpt lat="36.947714059071515" lon="-3.2269615122197166"><ele>1269.0</ele><time>2026-04-22T14:07:16Z</time></trkpt><trkpt lat="36.947661055656894" lon="-3.2270578159014827"><ele>1269.0</ele><time>2026-04-22T14:07:17Z</time></trkpt><trkpt lat="36.947597094524106" lon="-3.227134481861862"><ele>1269.0</ele><time>2026-04-22T14:07:18Z</time></trkpt><trkpt lat="36.947512681942875" lon="-3.2272061094072617"><ele>1269.0</ele><time>2026-04-22T14:07:19Z</time></trkpt><trkpt lat="36.947403522907244" lon="-3.227245792191498"><ele>1269.0</ele><time>2026-04-22T14:07:20Z</time></trkpt><trkpt lat="36.94728571555775" lon="-3.227268431357372"><ele>1269.0</ele><time>2026-04-22T14:07:21Z</time></trkpt><trkpt lat="36.947164283395544" lon="-3.2272856176215967"><ele>1266.2</ele><time>2026-04-22T14:07:22Z</time></trkpt><trkpt lat="36.94704918734551" lon="-3.227298739559323"><ele>1263.4</ele><time>2026-04-22T14:07:23Z</time></trkpt><trkpt lat="36.946936280699994" lon="-3.227296472464549"><ele>1260.6</ele><time>2026-04-22T14:07:24Z</time></trkpt><trkpt lat="36.94682765273252" lon="-3.227296141906589"><ele>1257.8</ele><time>2026-04-22T14:07:25Z</time></trkpt><trkpt lat="36.94671776497956" lon="-3.2272909501268257"><ele>1255.0</ele><time>2026-04-22T14:07:26Z</time></trkpt><trkpt lat="36.94660620353731" lon="-3.2272905490236896"><ele>1258.75</ele><time>2026-04-22T14:07:27Z</time></trkpt><trkpt lat="36.94649037950073" lon="-3.227315384222479"><ele>1262.5</ele><time>2026-04-22T14:07:28Z</time></trkpt><trkpt lat="36.94637129829502" lon="-3.2273398565981872"><ele>1266.25</ele><time>2026-04-22T14:07:29Z</time></trkpt><trkpt lat="36.94625575765512" lon="-3.2273718543725907"><ele>1270.0</ele><time>2026-04-22T14:07:30.001Z</time></trkpt><trkpt lat="36.9461322206199" lon="-3.227410475959993"><ele>1270.0</ele><time>2026-04-22T14:07:31.001Z</time></trkpt><trkpt lat="36.94600960328051" lon="-3.2274646621164003"><ele>1270.0</ele><time>2026-04-22T14:07:32.001Z</time></trkpt><trkpt lat="36.945889029000014" lon="-3.227522965609791"><ele>1270.0</ele><time>2026-04-22T14:07:33.001Z</time></trkpt><trkpt lat="36.94577837627072" lon="-3.227543298775465"><ele>1270.0</ele><time>2026-04-22T14:07:34.001Z</time></trkpt><trkpt lat="36.94567088069856" lon="-3.227520009336297"><ele>1269.75</ele><time>2026-04-22T14:07:35.001Z</time></trkpt><trkpt lat="36.94556077101661" lon="-3.227459708975402"><ele>1269.5</ele><time>2026-04-22T14:07:36.001Z</time></trkpt><trkpt lat="36.945448322358295" lon="-3.227404122428742"><ele>1269.25</ele><time>2026-04-22T14:07:37.001Z</time></trkpt><trkpt lat="36.945338732046665" lon="-3.2273493814789167"><ele>1269.0</ele><time>2026-04-22T14:07:38.001Z</time></trkpt><trkpt lat="36.94523671633926" lon="-3.2273297140424275"><ele>1269.0</ele><time>2026-04-22T14:07:39.001Z</time></trkpt><trkpt lat="36.9451360851316" lon="-3.227335762601303"><ele>1269.0</ele><time>2026-04-22T14:07:40.001Z</time></trkpt><trkpt lat="36.9450352601508" lon="-3.227384773867384"><ele>1269.0</ele><time>2026-04-22T14:07:41.001Z</time></trkpt><trkpt lat="36.94495548349947" lon="-3.227506016944139"><ele>1269.0</ele><time>2026-04-22T14:07:42.001Z</time></trkpt><trkpt lat="36.94491272955232" lon="-3.2276521891365246"><ele>1269.0</ele><time>2026-04-22T14:07:43.001Z</time></trkpt><trkpt lat="36.94495161015951" lon="-3.2278101518452234"><ele>1269.0</ele><time>2026-04-22T14:07:44.001Z</time></trkpt><trkpt lat="36.94499016285202" lon="-3.2279516183235364"><ele>1269.0</ele><time>2026-04-22T14:07:45.001Z</time></trkpt><trkpt lat="36.945071191523716" lon="-3.2280462959227476"><ele>1269.0</ele><time>2026-04-22T14:07:46.001Z</time></trkpt><trkpt lat="36.945169484508895" lon="-3.2281408917599452"><ele>1273.0</ele><time>2026-04-22T14:07:47.001Z</time></trkpt><trkpt lat="36.945264746230364" lon="-3.228253058343643"><ele>1277.0</ele><time>2026-04-22T14:07:48.001Z</time></trkpt><trkpt lat="36.94536312692857" lon="-3.228356027280884"><ele>1281.0</ele><time>2026-04-22T14:07:49.001Z</time></trkpt><trkpt lat="36.94545684325744" lon="-3.228451357248862"><ele>1285.0</ele><time>2026-04-22T14:07:50.001Z</time></trkpt><trkpt lat="36.94554786792699" lon="-3.228544826549775"><ele>1285.0</ele><time>2026-04-22T14:07:51.001Z</time></trkpt><trkpt lat="36.945634480236" lon="-3.2286450703984104"><ele>1285.0</ele><time>2026-04-22T14:07:52.001Z</time></trkpt><trkpt lat="36.945702008660106" lon="-3.228771040933032"><ele>1285.0</ele><time>2026-04-22T14:07:53.001Z</time></trkpt><trkpt lat="36.94573787800516" lon="-3.2289211933172677"><ele>1285.0</ele><time>2026-04-22T14:07:54.001Z</time></trkpt><trkpt lat="36.94575044325982" lon="-3.2290877495375816"><ele>1285.75</ele><time>2026-04-22T14:07:55.001Z</time></trkpt><trkpt lat="36.9457570302184" lon="-3.2292521130161416"><ele>1286.5</ele><time>2026-04-22T14:07:56.001Z</time></trkpt><trkpt lat="36.94576542639652" lon="-3.2293999228558663"><ele>1287.25</ele><time>2026-04-22T14:07:57.001Z</time></trkpt><trkpt lat="36.9457724726785" lon="-3.22955573368187"><ele>1288.0</ele><time>2026-04-22T14:07:58.001Z</time></trkpt><trkpt lat="36.94576473643663" lon="-3.2297097469464746"><ele>1289.25</ele><time>2026-04-22T14:07:59.001Z</time></trkpt><trkpt lat="36.94573903651498" lon="-3.2298561994052077"><ele>1290.5</ele><time>2026-04-22T14:08:00.001Z</time></trkpt><trkpt lat="36.945719306230686" lon="-3.230001168925326"><ele>1291.75</ele><time>2026-04-22T14:08:01.001Z</time></trkpt><trkpt lat="36.94573595936098" lon="-3.2301450916547054"><ele>1293.0</ele><time>2026-04-22T14:08:02.001Z</time></trkpt><trkpt lat="36.9458254085361" lon="-3.230229436922734"><ele>1298.5</ele><time>2026-04-22T14:08:03.001Z</time></trkpt><trkpt lat="36.945894389403485" lon="-3.2303499607011705"><ele>1304.0</ele><time>2026-04-22T14:08:04.001Z</time></trkpt><trkpt lat="36.945973416553464" lon="-3.2304731034781438"><ele>1309.5</ele><time>2026-04-22T14:08:05.001Z</time></trkpt><trkpt lat="36.94602256705923" lon="-3.230630747675762"><ele>1315.0</ele><time>2026-04-22T14:08:06.001Z</time></trkpt><trkpt lat="36.946034978714536" lon="-3.230811358045608"><ele>1315.5</ele><time>2026-04-22T14:08:06.999Z</time></trkpt><trkpt lat="36.946030628394126" lon="-3.2309943111463157"><ele>1316.0</ele><time>2026-04-22T14:08:07.999Z</time></trkpt><trkpt lat="36.94603281969306" lon="-3.231157329520123"><ele>1316.5</ele><time>2026-04-22T14:08:08.999Z</time></trkpt><trkpt lat="36.94604749942175" lon="-3.231313713513865"><ele>1317.0</ele><time>2026-04-22T14:08:09.999Z</time></trkpt><trkpt lat="36.94606171080263" lon="-3.231468027732726"><ele>1317.0</ele><time>2026-04-22T14:08:10.999Z</time></trkpt><trkpt lat="36.94607405835515" lon="-3.23161853233456"><ele>1317.0</ele><time>2026-04-22T14:08:11.999Z</time></trkpt><trkpt lat="36.94608742904176" lon="-3.2317683999757287"><ele>1317.0</ele><time>2026-04-22T14:08:12.999Z</time></trkpt><trkpt lat="36.94610519875323" lon="-3.231916916496863"><ele>1317.0</ele><time>2026-04-22T14:08:13.999Z</time></trkpt><trkpt lat="36.94614121364976" lon="-3.232070079233049"><ele>1317.0</ele><time>2026-04-22T14:08:14.999Z</time></trkpt><trkpt lat="36.94622358991779" lon="-3.232213070208862"><ele>1317.0</ele><time>2026-04-22T14:08:15.999Z</time></trkpt><trkpt lat="36.94625810368772" lon="-3.232384730279729"><ele>1317.0</ele><time>2026-04-22T14:08:16.999Z</time></trkpt><trkpt lat="36.94626860386372" lon="-3.232570453946722"><ele>1317.0</ele><time>2026-04-22T14:08:17.999Z</time></trkpt><trkpt lat="36.946278701137565" lon="-3.232757989174019"><ele>1317.25</ele><time>2026-04-22T14:08:18.999Z</time></trkpt><trkpt lat="36.946308950432524" lon="-3.2329224171777424"><ele>1317.5</ele><time>2026-04-22T14:08:19.999Z</time></trkpt><trkpt lat="36.94634409981897" lon="-3.233073883908781"><ele>1317.75</ele><time>2026-04-22T14:08:20.999Z</time></trkpt><trkpt lat="36.94637728251296" lon="-3.233221622382819"><ele>1318.0</ele><time>2026-04-22T14:08:21.999Z</time></trkpt><trkpt lat="36.94641412471729" lon="-3.2333634251374805"><ele>1318.0</ele><time>2026-04-22T14:08:22.999Z</time></trkpt><trkpt lat="36.94646099944945" lon="-3.2334896899335073"><ele>1318.0</ele><time>2026-04-22T14:08:23.999Z</time></trkpt><trkpt lat="36.94656057209907" lon="-3.2335637704927875"><ele>1318.0</ele><time>2026-04-22T14:08:24.999Z</time></trkpt><trkpt lat="36.94666640393615" lon="-3.2336464575438586"><ele>1318.0</ele><time>2026-04-22T14:08:25.999Z</time></trkpt><trkpt lat="36.946791282348045" lon="-3.2337132629389003"><ele>1321.5</ele><time>2026-04-22T14:08:26.999Z</time></trkpt><trkpt lat="36.9469018736061" lon="-3.233825508688262"><ele>1325.0</ele><time>2026-04-22T14:08:27.999Z</time></trkpt><trkpt lat="36.9469808862578" lon="-3.233975697972354"><ele>1328.5</ele><time>2026-04-22T14:08:28.999Z</time></trkpt><trkpt lat="36.947053879368355" lon="-3.2341144153850157"><ele>1332.0</ele><time>2026-04-22T14:08:29.999Z</time></trkpt><trkpt lat="36.94711407713294" lon="-3.2342378969022785"><ele>1332.0</ele><time>2026-04-22T14:08:30.999Z</time></trkpt><trkpt lat="36.94713459533843" lon="-3.2343769975832313"><ele>1332.0</ele><time>2026-04-22T14:08:32Z</time></trkpt><trkpt lat="36.94710167542879" lon="-3.2345353605821443"><ele>1332.0</ele><time>2026-04-22T14:08:33Z</time></trkpt><trkpt lat="36.94702070453635" lon="-3.2346827070610473"><ele>1332.0</ele><time>2026-04-22T14:08:34Z</time></trkpt><trkpt lat="36.946919025630976" lon="-3.2348135513652494"><ele>1335.3333333333333</ele><time>2026-04-22T14:08:35Z</time></trkpt><trkpt lat="36.946834319199496" lon="-3.234961167404754"><ele>1338.6666666666665</ele><time>2026-04-22T14:08:36Z</time></trkpt><trkpt lat="36.94681996069955" lon="-3.2351538542230536"><ele>1342.0</ele><time>2026-04-22T14:08:37Z</time></trkpt><trkpt lat="36.94676916666732" lon="-3.2353329694703614"><ele>1342.0</ele><time>2026-04-22T14:08:38Z</time></trkpt><trkpt lat="36.946715131561916" lon="-3.2354954051248184"><ele>1342.0</ele><time>2026-04-22T14:08:39Z</time></trkpt><trkpt lat="36.94665086025711" lon="-3.235645708745864"><ele>1342.0</ele><time>2026-04-22T14:08:40Z</time></trkpt><trkpt lat="36.946592119633145" lon="-3.235795004796297"><ele>1342.0</ele><time>2026-04-22T14:08:41Z</time></trkpt><trkpt lat="36.94653853272188" lon="-3.2359529036744648"><ele>1343.0</ele><time>2026-04-22T14:08:42Z</time></trkpt><trkpt lat="36.94647881501143" lon="-3.2361104848301374"><ele>1344.0</ele><time>2026-04-22T14:08:43Z</time></trkpt><trkpt lat="36.94641168674438" lon="-3.23626731826772"><ele>1345.0</ele><time>2026-04-22T14:08:44Z</time></trkpt><trkpt lat="36.946327995281315" lon="-3.2364104755108243"><ele>1346.0</ele><time>2026-04-22T14:08:45Z</time></trkpt><trkpt lat="36.94622076916253" lon="-3.2365013900501003"><ele>1346.0</ele><time>2026-04-22T14:08:46Z</time></trkpt><trkpt lat="36.94613617552398" lon="-3.2365872116886223"><ele>1346.0</ele><time>2026-04-22T14:08:47Z</time></trkpt><trkpt lat="36.94610452510164" lon="-3.2367138124038553"><ele>1346.0</ele><time>2026-04-22T14:08:48Z</time></trkpt><trkpt lat="36.946136010740645" lon="-3.236862301247831"><ele>1346.0</ele><time>2026-04-22T14:08:49Z</time></trkpt><trkpt lat="36.94617392417957" lon="-3.237009866500655"><ele>1346.0</ele><time>2026-04-22T14:08:50Z</time></trkpt><trkpt lat="36.946285249759505" lon="-3.2371089904351362"><ele>1346.0</ele><time>2026-04-22T14:08:51Z</time></trkpt><trkpt lat="36.94639467726128" lon="-3.237236142559684"><ele>1346.0</ele><time>2026-04-22T14:08:52Z</time></trkpt><trkpt lat="36.946485329832264" lon="-3.237372975286351"><ele>1346.0</ele><time>2026-04-22T14:08:53Z</time></trkpt><trkpt lat="36.94651469261009" lon="-3.237550933159614"><ele>1346.25</ele><time>2026-04-22T14:08:54Z</time></trkpt><trkpt lat="36.94651867894605" lon="-3.2377298458871997"><ele>1346.5</ele><time>2026-04-22T14:08:55Z</time></trkpt><trkpt lat="36.94652537748314" lon="-3.237904017446185"><ele>1346.75</ele><time>2026-04-22T14:08:56Z</time></trkpt><trkpt lat="36.946527928632854" lon="-3.2380725132095565"><ele>1347.0</ele><time>2026-04-22T14:08:57Z</time></trkpt><trkpt lat="36.94650169871229" lon="-3.238245735206188"><ele>1347.5</ele><time>2026-04-22T14:08:58Z</time></trkpt><trkpt lat="36.94643739733407" lon="-3.238407192063938"><ele>1348.0</ele><time>2026-04-22T14:08:59Z</time></trkpt><trkpt lat="36.9463564498883" lon="-3.238553945141427"><ele>1348.5</ele><time>2026-04-22T14:09:00Z</time></trkpt><trkpt lat="36.94629504325596" lon="-3.238689044201702"><ele>1349.0</ele><time>2026-04-22T14:09:01Z</time></trkpt><trkpt lat="36.946311568897336" lon="-3.238844227868467"><ele>1351.25</ele><time>2026-04-22T14:09:02Z</time></trkpt><trkpt lat="36.94633091521596" lon="-3.239021579860757"><ele>1353.5</ele><time>2026-04-22T14:09:03Z</time></trkpt><trkpt lat="36.946342669723805" lon="-3.2391938934683098"><ele>1355.75</ele><time>2026-04-22T14:09:04Z</time></trkpt><trkpt lat="36.94634810690395" lon="-3.239346808240498"><ele>1358.0</ele><time>2026-04-22T14:09:05Z</time></trkpt><trkpt lat="36.94631960884113" lon="-3.239480461109667"><ele>1358.0</ele><time>2026-04-22T14:09:06Z</time></trkpt><trkpt lat="36.946285120906595" lon="-3.2396022347103335"><ele>1358.0</ele><time>2026-04-22T14:09:07Z</time></trkpt><trkpt lat="36.94627983163515" lon="-3.23971680723963"><ele>1358.0</ele><time>2026-04-22T14:09:08Z</time></trkpt><trkpt lat="36.9462502884937" lon="-3.2398152240039786"><ele>1358.0</ele><time>2026-04-22T14:09:09Z</time></trkpt><trkpt lat="36.946247866504386" lon="-3.239943950205005"><ele>1358.0</ele><time>2026-04-22T14:09:10Z</time></trkpt><trkpt lat="36.9462350018047" lon="-3.2401030185114155"><ele>1358.75</ele><time>2026-04-22T14:09:11Z</time></trkpt><trkpt lat="36.946219878256585" lon="-3.240282780679519"><ele>1359.5</ele><time>2026-04-22T14:09:12Z</time></trkpt><trkpt lat="36.94620796223212" lon="-3.2404668231716927"><ele>1360.25</ele><time>2026-04-22T14:09:13Z</time></trkpt><trkpt lat="36.94619323192868" lon="-3.2406436212925467"><ele>1361.0</ele><time>2026-04-22T14:09:14Z</time></trkpt><trkpt lat="36.94618440233544" lon="-3.240793048898554"><ele>1361.1999999999998</ele><time>2026-04-22T14:09:15Z</time></trkpt><trkpt lat="36.94619167009446" lon="-3.2409238758338805"><ele>1361.3999999999999</ele><time>2026-04-22T14:09:16Z</time></trkpt><trkpt lat="36.946219283757934" lon="-3.241049463191429"><ele>1361.6</ele><time>2026-04-22T14:09:17Z</time></trkpt><trkpt lat="36.94629078342068" lon="-3.241159864242717"><ele>1361.8</ele><time>2026-04-22T14:09:18Z</time></trkpt><trkpt lat="36.94634663168886" lon="-3.241288732194282"><ele>1362.0</ele><time>2026-04-22T14:09:19Z</time></trkpt><trkpt lat="36.94638788447798" lon="-3.2414171063307493"><ele>1360.75</ele><time>2026-04-22T14:09:20Z</time></trkpt><trkpt lat="36.94642431781083" lon="-3.24156174226423"><ele>1359.5</ele><time>2026-04-22T14:09:21Z</time></trkpt><trkpt lat="36.94646841302945" lon="-3.241712108784846"><ele>1358.25</ele><time>2026-04-22T14:09:22Z</time></trkpt><trkpt lat="36.946491180125605" lon="-3.241856503156249"><ele>1357.0</ele><time>2026-04-22T14:09:23Z</time></trkpt><trkpt lat="36.946515935757795" lon="-3.2420002913324493"><ele>1357.0</ele><time>2026-04-22T14:09:24Z</time></trkpt><trkpt lat="36.94654531629829" lon="-3.2421475937194653"><ele>1357.0</ele><time>2026-04-22T14:09:25Z</time></trkpt><trkpt lat="36.94657255794683" lon="-3.242298984521605"><ele>1357.0</ele><time>2026-04-22T14:09:26Z</time></trkpt><trkpt lat="36.946605990172706" lon="-3.242446903124539"><ele>1357.0</ele><time>2026-04-22T14:09:27Z</time></trkpt><trkpt lat="36.94663274803596" lon="-3.2425915568627235"><ele>1354.0</ele><time>2026-04-22T14:09:28Z</time></trkpt><trkpt lat="36.94667499270965" lon="-3.242731555370121"><ele>1351.0</ele><time>2026-04-22T14:09:29Z</time></trkpt><trkpt lat="36.94674336590339" lon="-3.2428603670257954"><ele>1348.0</ele><time>2026-04-22T14:09:30Z</time></trkpt><trkpt lat="36.94686395854181" lon="-3.2429351305367256"><ele>1345.0</ele><time>2026-04-22T14:09:31Z</time></trkpt><trkpt lat="36.94698650557063" lon="-3.242992757211404"><ele>1347.6666666666665</ele><time>2026-04-22T14:09:32.001Z</time></trkpt><trkpt lat="36.94711244415293" lon="-3.24307108641011"><ele>1350.3333333333333</ele><time>2026-04-22T14:09:33.001Z</time></trkpt><trkpt lat="36.947238506685935" lon="-3.243167468117299"><ele>1353.0</ele><time>2026-04-22T14:09:34.001Z</time></trkpt><trkpt lat="36.94735615251313" lon="-3.2433071658615686"><ele>1353.0</ele><time>2026-04-22T14:09:35.001Z</time></trkpt><trkpt lat="36.947465696372795" lon="-3.2434661184447426"><ele>1353.0</ele><time>2026-04-22T14:09:36.001Z</time></trkpt><trkpt lat="36.94755256927018" lon="-3.2436222406905473"><ele>1353.0</ele><time>2026-04-22T14:09:37.001Z</time></trkpt><trkpt lat="36.94761806588035" lon="-3.2437678164012937"><ele>1354.5</ele><time>2026-04-22T14:09:38.001Z</time></trkpt><trkpt lat="36.94769641619571" lon="-3.2439127283222886"><ele>1356.0</ele><time>2026-04-22T14:09:39.001Z</time></trkpt><trkpt lat="36.947796063689516" lon="-3.2440539319882924"><ele>1357.5</ele><time>2026-04-22T14:09:40.001Z</time></trkpt><trkpt lat="36.947904987990064" lon="-3.24419701239532"><ele>1359.0</ele><time>2026-04-22T14:09:41.001Z</time></trkpt><trkpt lat="36.948016840653075" lon="-3.2443301721860296"><ele>1359.0</ele><time>2026-04-22T14:09:42.001Z</time></trkpt><trkpt lat="36.94814253275239" lon="-3.244452751290033"><ele>1359.0</ele><time>2026-04-22T14:09:43.001Z</time></trkpt><trkpt lat="36.9482768789072" lon="-3.2445584261548497"><ele>1359.0</ele><time>2026-04-22T14:09:44.001Z</time></trkpt><trkpt lat="36.94840529894646" lon="-3.244646049477612"><ele>1358.5</ele><time>2026-04-22T14:09:45.001Z</time></trkpt><trkpt lat="36.94852759650072" lon="-3.2447213119268485"><ele>1358.0</ele><time>2026-04-22T14:09:46.001Z</time></trkpt><trkpt lat="36.948643744481814" lon="-3.2447919612781115"><ele>1357.5</ele><time>2026-04-22T14:09:47.001Z</time></trkpt><trkpt lat="36.94875177821909" lon="-3.244849418286805"><ele>1357.0</ele><time>2026-04-22T14:09:48.001Z</time></trkpt><trkpt lat="36.948857383705615" lon="-3.244928369645571"><ele>1357.0</ele><time>2026-04-22T14:09:49.001Z</time></trkpt><trkpt lat="36.94894322192948" lon="-3.2450484668613337"><ele>1357.0</ele><time>2026-04-22T14:09:50.001Z</time></trkpt><trkpt lat="36.948994943814" lon="-3.2451860946321966"><ele>1357.0</ele><time>2026-04-22T14:09:51.001Z</time></trkpt><trkpt lat="36.94896130720638" lon="-3.2453581053860927"><ele>1357.0</ele><time>2026-04-22T14:09:52.001Z</time></trkpt><trkpt lat="36.948934308199874" lon="-3.2454981113520893"><ele>1358.25</ele><time>2026-04-22T14:09:53.001Z</time></trkpt><trkpt lat="36.94889963057131" lon="-3.2456421781411655"><ele>1359.5</ele><time>2026-04-22T14:09:54.001Z</time></trkpt><trkpt lat="36.94886411152599" lon="-3.245805274512612"><ele>1360.75</ele><time>2026-04-22T14:09:55.001Z</time></trkpt><trkpt lat="36.94883567271446" lon="-3.2459763378535835"><ele>1362.0</ele><time>2026-04-22T14:09:56.001Z</time></trkpt><trkpt lat="36.94881208771152" lon="-3.2461421970770545"><ele>1362.0</ele><time>2026-04-22T14:09:57.001Z</time></trkpt><trkpt lat="36.94875485198185" lon="-3.246268676591932"><ele>1362.0</ele><time>2026-04-22T14:09:58.001Z</time></trkpt><trkpt lat="36.94869033432654" lon="-3.2464072551024716"><ele>1362.0</ele><time>2026-04-22T14:09:59.001Z</time></trkpt><trkpt lat="36.94857848456398" lon="-3.246511640446938"><ele>1362.0</ele><time>2026-04-22T14:10:00.001Z</time></trkpt><trkpt lat="36.948442613247295" lon="-3.2465819656573562"><ele>1361.3333333333333</ele><time>2026-04-22T14:10:01.001Z</time></trkpt><trkpt lat="36.948310731148716" lon="-3.2466696669367767"><ele>1360.6666666666665</ele><time>2026-04-22T14:10:02.001Z</time></trkpt><trkpt lat="36.94817976017348" lon="-3.2467675446619895"><ele>1360.0</ele><time>2026-04-22T14:10:03.001Z</time></trkpt><trkpt lat="36.9480487858916" lon="-3.246866574578312"><ele>1360.0</ele><time>2026-04-22T14:10:04.001Z</time></trkpt><trkpt lat="36.94790286536621" lon="-3.2469326407796277"><ele>1360.0</ele><time>2026-04-22T14:10:05.001Z</time></trkpt><trkpt lat="36.94775037369102" lon="-3.246946156238908"><ele>1360.0</ele><time>2026-04-22T14:10:06.001Z</time></trkpt><trkpt lat="36.947596697087796" lon="-3.24698407029867"><ele>1360.0</ele><time>2026-04-22T14:10:07.001Z</time></trkpt><trkpt lat="36.947454064563544" lon="-3.2470352889971954"><ele>1360.0</ele><time>2026-04-22T14:10:08.001Z</time></trkpt><trkpt lat="36.94733873918678" lon="-3.2471160837416573"><ele>1360.0</ele><time>2026-04-22T14:10:09.001Z</time></trkpt><trkpt lat="36.94722261690209" lon="-3.247168385081863"><ele>1360.0</ele><time>2026-04-22T14:10:10.001Z</time></trkpt><trkpt lat="36.94712631798134" lon="-3.247219408695388"><ele>1362.2</ele><time>2026-04-22T14:10:11.001Z</time></trkpt><trkpt lat="36.94708057942091" lon="-3.247320228098026"><ele>1364.4</ele><time>2026-04-22T14:10:12.001Z</time></trkpt><trkpt lat="36.94713090600026" lon="-3.2474259744023626"><ele>1366.6</ele><time>2026-04-22T14:10:13Z</time></trkpt><trkpt lat="36.94718029221588" lon="-3.247533065977231"><ele>1368.8</ele><time>2026-04-22T14:10:14Z</time></trkpt><trkpt lat="36.94728640664054" lon="-3.247546974698189"><ele>1371.0</ele><time>2026-04-22T14:10:15Z</time></trkpt><trkpt lat="36.94739791323855" lon="-3.2474821284849082"><ele>1371.0</ele><time>2026-04-22T14:10:16Z</time></trkpt><trkpt lat="36.94753664980612" lon="-3.247438360744894"><ele>1371.0</ele><time>2026-04-22T14:10:17Z</time></trkpt><trkpt lat="36.94763855375006" lon="-3.2473963770463725"><ele>1371.0</ele><time>2026-04-22T14:10:18Z</time></trkpt><trkpt lat="36.94775228047095" lon="-3.2473829035390804"><ele>1371.0</ele><time>2026-04-22T14:10:19Z</time></trkpt><trkpt lat="36.94787518953945" lon="-3.24743905779685"><ele>1372.5</ele><time>2026-04-22T14:10:20Z</time></trkpt><trkpt lat="36.947960175115064" lon="-3.247547595681378"><ele>1374.0</ele><time>2026-04-22T14:10:21Z</time></trkpt><trkpt lat="36.94800215079396" lon="-3.247700999529099"><ele>1375.5</ele><time>2026-04-22T14:10:22Z</time></trkpt><trkpt lat="36.9479864109295" lon="-3.247874910369565"><ele>1377.0</ele><time>2026-04-22T14:10:23Z</time></trkpt><trkpt lat="36.94794575014505" lon="-3.2480652431734263"><ele>1379.5</ele><time>2026-04-22T14:10:24Z</time></trkpt><trkpt lat="36.94795495418673" lon="-3.248232306158468"><ele>1382.0</ele><time>2026-04-22T14:10:25Z</time></trkpt><trkpt lat="36.947990166110785" lon="-3.2483655188149574"><ele>1384.5</ele><time>2026-04-22T14:10:26Z</time></trkpt><trkpt lat="36.94800223355199" lon="-3.248510375272536"><ele>1387.0</ele><time>2026-04-22T14:10:27Z</time></trkpt><trkpt lat="36.9479736341251" lon="-3.248647714865833"><ele>1387.0</ele><time>2026-04-22T14:10:28Z</time></trkpt><trkpt lat="36.94787309079705" lon="-3.2487743969781637"><ele>1387.0</ele><time>2026-04-22T14:10:29Z</time></trkpt><trkpt lat="36.9477337715825" lon="-3.2488894276188214"><ele>1387.0</ele><time>2026-04-22T14:10:30Z</time></trkpt><trkpt lat="36.9476212202357" lon="-3.2490136058670096"><ele>1386.6</ele><time>2026-04-22T14:10:31Z</time></trkpt><trkpt lat="36.94755219060702" lon="-3.249135201788239"><ele>1386.1999999999998</ele><time>2026-04-22T14:10:32Z</time></trkpt><trkpt lat="36.947497524992926" lon="-3.249256501337413"><ele>1385.8</ele><time>2026-04-22T14:10:33Z</time></trkpt><trkpt lat="36.947449854734614" lon="-3.2493665124478346"><ele>1385.4</ele><time>2026-04-22T14:10:34Z</time></trkpt><trkpt lat="36.94740599989469" lon="-3.2494812997547893"><ele>1385.0</ele><time>2026-04-22T14:10:35Z</time></trkpt><trkpt lat="36.947383143172296" lon="-3.2496149895332502"><ele>1385.0</ele><time>2026-04-22T14:10:36Z</time></trkpt><trkpt lat="36.94738413102185" lon="-3.2497532830208162"><ele>1385.0</ele><time>2026-04-22T14:10:37Z</time></trkpt><trkpt lat="36.947449738150326" lon="-3.249875369813642"><ele>1385.0</ele><time>2026-04-22T14:10:38Z</time></trkpt><trkpt lat="36.9475173347495" lon="-3.249998946097081"><ele>1385.0</ele><time>2026-04-22T14:10:39Z</time></trkpt><trkpt lat="36.947646651200614" lon="-3.250049560850082"><ele>1389.75</ele><time>2026-04-22T14:10:40Z</time></trkpt><trkpt lat="36.947785723843374" lon="-3.2500885500685386"><ele>1394.5</ele><time>2026-04-22T14:10:41Z</time></trkpt><trkpt lat="36.947928764652566" lon="-3.2501302208141705"><ele>1399.25</ele><time>2026-04-22T14:10:42Z</time></trkpt><trkpt lat="36.9480484503045" lon="-3.250119146089852"><ele>1404.0</ele><time>2026-04-22T14:10:43Z</time></trkpt><trkpt lat="36.948141832510125" lon="-3.2501474948635276"><ele>1404.0</ele><time>2026-04-22T14:10:44Z</time></trkpt><trkpt lat="36.94822727389792" lon="-3.250240725844956"><ele>1404.0</ele><time>2026-04-22T14:10:45Z</time></trkpt><trkpt lat="36.948275412509304" lon="-3.2503981733218192"><ele>1404.0</ele><time>2026-04-22T14:10:46Z</time></trkpt><trkpt lat="36.94834153790505" lon="-3.250571652049723"><ele>1404.0</ele><time>2026-04-22T14:10:47Z</time></trkpt><trkpt lat="36.948359149101215" lon="-3.250765320521497"><ele>1407.25</ele><time>2026-04-22T14:10:48Z</time></trkpt><trkpt lat="36.948389662201386" lon="-3.250936234582036"><ele>1410.5</ele><time>2026-04-22T14:10:49Z</time></trkpt><trkpt lat="36.948424645622204" lon="-3.251094372088022"><ele>1413.75</ele><time>2026-04-22T14:10:50Z</time></trkpt><trkpt lat="36.94845579613691" lon="-3.2512594351783246"><ele>1417.0</ele><time>2026-04-22T14:10:51Z</time></trkpt><trkpt lat="36.948476565958956" lon="-3.2514272377205926"><ele>1418.0</ele><time>2026-04-22T14:10:52Z</time></trkpt><trkpt lat="36.94845514547715" lon="-3.2515945404582127"><ele>1419.0</ele><time>2026-04-22T14:10:53Z</time></trkpt><trkpt lat="36.948391915422214" lon="-3.2517720763303957"><ele>1420.0</ele><time>2026-04-22T14:10:54Z</time></trkpt><trkpt lat="36.948295387614586" lon="-3.251919094634105"><ele>1421.0</ele><time>2026-04-22T14:10:55Z</time></trkpt><trkpt lat="36.948234836549055" lon="-3.2520672300869724"><ele>1419.0</ele><time>2026-04-22T14:10:56Z</time></trkpt><trkpt lat="36.948189697753605" lon="-3.252239322910313"><ele>1417.0</ele><time>2026-04-22T14:10:57Z</time></trkpt><trkpt lat="36.94813470140952" lon="-3.2524111073111834"><ele>1415.0</ele><time>2026-04-22T14:10:58Z</time></trkpt><trkpt lat="36.94812994876153" lon="-3.252569177302732"><ele>1413.0</ele><time>2026-04-22T14:10:59Z</time></trkpt><trkpt lat="36.948174335666245" lon="-3.252700766517587"><ele>1413.0</ele><time>2026-04-22T14:11:00Z</time></trkpt><trkpt lat="36.94824000928376" lon="-3.25285346966642"><ele>1413.0</ele><time>2026-04-22T14:11:01Z</time></trkpt><trkpt lat="36.94829002075292" lon="-3.253004978961652"><ele>1413.0</ele><time>2026-04-22T14:11:02Z</time></trkpt><trkpt lat="36.94832675603853" lon="-3.2531620035621915"><ele>1413.0</ele><time>2026-04-22T14:11:03Z</time></trkpt><trkpt lat="36.94832876074404" lon="-3.2533463970080105"><ele>1412.5</ele><time>2026-04-22T14:11:04.001Z</time></trkpt><trkpt lat="36.9482968611068" lon="-3.2535361510341607"><ele>1412.0</ele><time>2026-04-22T14:11:05.001Z</time></trkpt><trkpt lat="36.948231528724605" lon="-3.253708173115089"><ele>1411.5</ele><time>2026-04-22T14:11:06.001Z</time></trkpt><trkpt lat="36.948148092753435" lon="-3.2538467643156617"><ele>1411.0</ele><time>2026-04-22T14:11:07.001Z</time></trkpt><trkpt lat="36.94803057666283" lon="-3.2539501715451036"><ele>1411.75</ele><time>2026-04-22T14:11:08.001Z</time></trkpt><trkpt lat="36.947923232062365" lon="-3.2540365039764527"><ele>1412.5</ele><time>2026-04-22T14:11:09.001Z</time></trkpt><trkpt lat="36.94783382771179" lon="-3.254162430707158"><ele>1413.25</ele><time>2026-04-22T14:11:10.001Z</time></trkpt><trkpt lat="36.94778013820988" lon="-3.2543124477532417"><ele>1414.0</ele><time>2026-04-22T14:11:11.001Z</time></trkpt><trkpt lat="36.94773128988205" lon="-3.254492206514902"><ele>1414.0</ele><time>2026-04-22T14:11:12.001Z</time></trkpt><trkpt lat="36.947696529532934" lon="-3.2546852602543352"><ele>1414.0</ele><time>2026-04-22T14:11:13.001Z</time></trkpt><trkpt lat="36.9476479667838" lon="-3.254883854905515"><ele>1414.0</ele><time>2026-04-22T14:11:14.001Z</time></trkpt><trkpt lat="36.94762196677948" lon="-3.255063056565751"><ele>1416.75</ele><time>2026-04-22T14:11:15.001Z</time></trkpt><trkpt lat="36.94759498563452" lon="-3.255231744092304"><ele>1419.5</ele><time>2026-04-22T14:11:16.001Z</time></trkpt><trkpt lat="36.947614510197376" lon="-3.2554065851151064"><ele>1422.25</ele><time>2026-04-22T14:11:17.001Z</time></trkpt><trkpt lat="36.94764888080825" lon="-3.255589536415177"><ele>1425.0</ele><time>2026-04-22T14:11:18.001Z</time></trkpt><trkpt lat="36.94767536563151" lon="-3.255793672305773"><ele>1425.3333333333333</ele><time>2026-04-22T14:11:19.001Z</time></trkpt><trkpt lat="36.947702157701976" lon="-3.2560049985944297"><ele>1425.6666666666665</ele><time>2026-04-22T14:11:20.001Z</time></trkpt><trkpt lat="36.94767960303741" lon="-3.256228384604807"><ele>1426.0</ele><time>2026-04-22T14:11:21.001Z</time></trkpt><trkpt lat="36.947640645269146" lon="-3.2564354259302943"><ele>1424.75</ele><time>2026-04-22T14:11:22.001Z</time></trkpt><trkpt lat="36.9476026167738" lon="-3.2566199191384317"><ele>1423.5</ele><time>2026-04-22T14:11:23.001Z</time></trkpt><trkpt lat="36.947564814979486" lon="-3.2567908896083293"><ele>1422.25</ele><time>2026-04-22T14:11:24.001Z</time></trkpt><trkpt lat="36.947521033456866" lon="-3.25692956575422"><ele>1421.0</ele><time>2026-04-22T14:11:25.001Z</time></trkpt><trkpt lat="36.94750090294696" lon="-3.2570545249785186"><ele>1421.0</ele><time>2026-04-22T14:11:26.001Z</time></trkpt><trkpt lat="36.94753496925154" lon="-3.2571708487208624"><ele>1421.0</ele><time>2026-04-22T14:11:27.001Z</time></trkpt><trkpt lat="36.94764136751033" lon="-3.257240732667096"><ele>1421.0</ele><time>2026-04-22T14:11:28.001Z</time></trkpt><trkpt lat="36.94776012194034" lon="-3.257295423933857"><ele>1421.0</ele><time>2026-04-22T14:11:29.001Z</time></trkpt><trkpt lat="36.94789359594531" lon="-3.2573196974171994"><ele>1421.8</ele><time>2026-04-22T14:11:30.001Z</time></trkpt><trkpt lat="36.94798994038856" lon="-3.2573583561513093"><ele>1422.6</ele><time>2026-04-22T14:11:31.001Z</time></trkpt><trkpt lat="36.94806241414354" lon="-3.2574489804273927"><ele>1423.4</ele><time>2026-04-22T14:11:32.001Z</time></trkpt><trkpt lat="36.94810543157841" lon="-3.2575899572324327"><ele>1424.2</ele><time>2026-04-22T14:11:33.001Z</time></trkpt><trkpt lat="36.94809559009722" lon="-3.257741020827167"><ele>1425.0</ele><time>2026-04-22T14:11:34.001Z</time></trkpt><trkpt lat="36.94803709801745" lon="-3.2578697093135927"><ele>1425.0</ele><time>2026-04-22T14:11:35.001Z</time></trkpt><trkpt lat="36.94799122819922" lon="-3.258044300795754"><ele>1425.0</ele><time>2026-04-22T14:11:36.001Z</time></trkpt><trkpt lat="36.94793564934307" lon="-3.258245267494419"><ele>1425.0</ele><time>2026-04-22T14:11:37.001Z</time></trkpt><trkpt lat="36.94790318764309" lon="-3.2584388722267166"><ele>1426.5</ele><time>2026-04-22T14:11:38.001Z</time></trkpt><trkpt lat="36.947891973982415" lon="-3.2586125647997113"><ele>1428.0</ele><time>2026-04-22T14:11:39.001Z</time></trkpt><trkpt lat="36.94786140884404" lon="-3.2587678472666424"><ele>1429.5</ele><time>2026-04-22T14:11:40.001Z</time></trkpt><trkpt lat="36.947758186174454" lon="-3.2588853186301066"><ele>1431.0</ele><time>2026-04-22T14:11:41.001Z</time></trkpt><trkpt lat="36.94763108326419" lon="-3.2589559457218917"><ele>1426.0</ele><time>2026-04-22T14:11:42.001Z</time></trkpt><trkpt lat="36.94748727750271" lon="-3.2589827223153036"><ele>1421.0</ele><time>2026-04-22T14:11:43.001Z</time></trkpt><trkpt lat="36.9473670552707" lon="-3.259057894159997"><ele>1416.0</ele><time>2026-04-22T14:11:44.001Z</time></trkpt><trkpt lat="36.94727107021046" lon="-3.2591397577211407"><ele>1411.0</ele><time>2026-04-22T14:11:45.001Z</time></trkpt><trkpt lat="36.94719798683915" lon="-3.2592612733563247"><ele>1411.0</ele><time>2026-04-22T14:11:46.001Z</time></trkpt><trkpt lat="36.947141310576775" lon="-3.259409255417675"><ele>1411.0</ele><time>2026-04-22T14:11:47.001Z</time></trkpt><trkpt lat="36.94707755176579" lon="-3.2595770375071313"><ele>1411.0</ele><time>2026-04-22T14:11:48.001Z</time></trkpt><trkpt lat="36.94701319381039" lon="-3.259749763658998"><ele>1411.0</ele><time>2026-04-22T14:11:49.001Z</time></trkpt><trkpt lat="36.94693069936053" lon="-3.2599251013655786"><ele>1414.3333333333333</ele><time>2026-04-22T14:11:50.001Z</time></trkpt><trkpt lat="36.946862431290256" lon="-3.2601195978931035"><ele>1417.6666666666667</ele><time>2026-04-22T14:11:51.001Z</time></trkpt><trkpt lat="36.94680009402149" lon="-3.2603216885811857"><ele>1421.0</ele><time>2026-04-22T14:11:52.001Z</time></trkpt><trkpt lat="36.9467293281828" lon="-3.2605116123648314"><ele>1416.25</ele><time>2026-04-22T14:11:53.001Z</time></trkpt><trkpt lat="36.94665225762338" lon="-3.2606716942267813"><ele>1411.5</ele><time>2026-04-22T14:11:54.001Z</time></trkpt><trkpt lat="36.946597968457034" lon="-3.260823210590741"><ele>1406.75</ele><time>2026-04-22T14:11:55.001Z</time></trkpt><trkpt lat="36.946548186784575" lon="-3.2609576350887304"><ele>1402.0</ele><time>2026-04-22T14:11:56.001Z</time></trkpt><trkpt lat="36.9465040524591" lon="-3.261093421999803"><ele>1402.0</ele><time>2026-04-22T14:11:57.001Z</time></trkpt><trkpt lat="36.94650121096622" lon="-3.2612364859485825"><ele>1402.0</ele><time>2026-04-22T14:11:58.001Z</time></trkpt><trkpt lat="36.94652232265849" lon="-3.2613736950844285"><ele>1402.0</ele><time>2026-04-22T14:11:59.001Z</time></trkpt><trkpt lat="36.94656340150864" lon="-3.261516461549348"><ele>1402.0</ele><time>2026-04-22T14:12:00.001Z</time></trkpt><trkpt lat="36.94658582934722" lon="-3.2616626170349345"><ele>1402.0</ele><time>2026-04-22T14:12:01.001Z</time></trkpt><trkpt lat="36.94657009493092" lon="-3.261811231595118"><ele>1402.0</ele><time>2026-04-22T14:12:02.001Z</time></trkpt><trkpt lat="36.946498992374906" lon="-3.2619706568559117"><ele>1402.0</ele><time>2026-04-22T14:12:03.001Z</time></trkpt><trkpt lat="36.9463879901318" lon="-3.2621216127577295"><ele>1402.0</ele><time>2026-04-22T14:12:04.001Z</time></trkpt><trkpt lat="36.946323428624396" lon="-3.2623104502000047"><ele>1403.6666666666665</ele><time>2026-04-22T14:12:05.001Z</time></trkpt><trkpt lat="36.946268603564654" lon="-3.262497906825905"><ele>1405.3333333333333</ele><time>2026-04-22T14:12:06.001Z</time></trkpt><trkpt lat="36.946205302649396" lon="-3.2626911072610456"><ele>1407.0</ele><time>2026-04-22T14:12:07.001Z</time></trkpt><trkpt lat="36.946152248996036" lon="-3.262889856280572"><ele>1407.0</ele><time>2026-04-22T14:12:08.001Z</time></trkpt><trkpt lat="36.94609590095915" lon="-3.263096052494009"><ele>1407.0</ele><time>2026-04-22T14:12:09.001Z</time></trkpt><trkpt lat="36.94604818847712" lon="-3.263310112048241"><ele>1407.0</ele><time>2026-04-22T14:12:10.001Z</time></trkpt><trkpt lat="36.94601593433383" lon="-3.263528118848832"><ele>1410.0</ele><time>2026-04-22T14:12:11.001Z</time></trkpt><trkpt lat="36.945988108097055" lon="-3.2637476421053018"><ele>1413.0</ele><time>2026-04-22T14:12:12.001Z</time></trkpt><trkpt lat="36.94595567009524" lon="-3.263973774241143"><ele>1416.0</ele><time>2026-04-22T14:12:13.001Z</time></trkpt><trkpt lat="36.94592145128358" lon="-3.2642113200057814"><ele>1420.0</ele><time>2026-04-22T14:12:14.001Z</time></trkpt><trkpt lat="36.945887678576746" lon="-3.26444460473715"><ele>1424.0</ele><time>2026-04-22T14:12:15.002Z</time></trkpt><trkpt lat="36.94588375451673" lon="-3.2646682315860973"><ele>1428.0</ele><time>2026-04-22T14:12:16.002Z</time></trkpt><trkpt lat="36.94588377598847" lon="-3.264877644512868"><ele>1420.3333333333333</ele><time>2026-04-22T14:12:17.002Z</time></trkpt><trkpt lat="36.94585525035029" lon="-3.265088786439271"><ele>1412.6666666666665</ele><time>2026-04-22T14:12:18.002Z</time></trkpt><trkpt lat="36.94574320807871" lon="-3.265275029816478"><ele>1405.0</ele><time>2026-04-22T14:12:19Z</time></trkpt><trkpt lat="36.94561004877057" lon="-3.2654235509013936"><ele>1408.6666666666665</ele><time>2026-04-22T14:12:20Z</time></trkpt><trkpt lat="36.945488950856834" lon="-3.2656488010263387"><ele>1412.3333333333333</ele><time>2026-04-22T14:12:21Z</time></trkpt><trkpt lat="36.94539146034307" lon="-3.2658729981422785"><ele>1416.0</ele><time>2026-04-22T14:12:22Z</time></trkpt><trkpt lat="36.94529446065019" lon="-3.2661087677534963"><ele>1416.0</ele><time>2026-04-22T14:12:23Z</time></trkpt><trkpt lat="36.9452134936526" lon="-3.266319299192645"><ele>1416.0</ele><time>2026-04-22T14:12:24Z</time></trkpt><trkpt lat="36.94515633671899" lon="-3.2665392241335893"><ele>1416.0</ele><time>2026-04-22T14:12:25Z</time></trkpt><trkpt lat="36.945139216025694" lon="-3.2667831829977785"><ele>1421.0</ele><time>2026-04-22T14:12:26Z</time></trkpt><trkpt lat="36.94514786283424" lon="-3.267069854598062"><ele>1426.0</ele><time>2026-04-22T14:12:27Z</time></trkpt><trkpt lat="36.945094474710785" lon="-3.2673988294927203"><ele>1427.5</ele><time>2026-04-22T14:12:28Z</time></trkpt><trkpt lat="36.94506051536525" lon="-3.267752309491501"><ele>1429.0</ele><time>2026-04-22T14:12:29Z</time></trkpt><trkpt lat="36.94505239130523" lon="-3.268077664038805"><ele>1413.5</ele><time>2026-04-22T14:12:30Z</time></trkpt><trkpt lat="36.94501204254366" lon="-3.2683806098796806"><ele>1398.0</ele><time>2026-04-22T14:12:31Z</time></trkpt><trkpt lat="36.94495256662934" lon="-3.268649605520101"><ele>1398.0</ele><time>2026-04-22T14:12:32Z</time></trkpt><trkpt lat="36.944892746409565" lon="-3.2688552920194582"><ele>1398.0</ele><time>2026-04-22T14:12:33Z</time></trkpt><trkpt lat="36.94485788409018" lon="-3.2690109569592423"><ele>1398.0</ele><time>2026-04-22T14:12:34Z</time></trkpt><trkpt lat="36.94485214777163" lon="-3.269148034126234"><ele>1398.0</ele><time>2026-04-22T14:12:35Z</time></trkpt><trkpt lat="36.94488417001515" lon="-3.269241694690326"><ele>1398.4</ele><time>2026-04-22T14:12:36Z</time></trkpt><trkpt lat="36.944929088566965" lon="-3.269355444704118"><ele>1398.8000000000002</ele><time>2026-04-22T14:12:38Z</time></trkpt><trkpt lat="36.944813029620825" lon="-3.2694995032691083"><ele>1399.2</ele><time>2026-04-22T14:12:40Z</time></trkpt><trkpt lat="36.944746817280546" lon="-3.2695547642789915"><ele>1399.6</ele><time>2026-04-22T14:12:41Z</time></trkpt><trkpt lat="36.94467971699471" lon="-3.2696053366634716"><ele>1400.0</ele><time>2026-04-22T14:12:42Z</time></trkpt><trkpt lat="36.94463137146537" lon="-3.2696724521671845"><ele>1400.0</ele><time>2026-04-22T14:12:43Z</time></trkpt><trkpt lat="36.944573133035135" lon="-3.2697110941193688"><ele>1400.0</ele><time>2026-04-22T14:12:44Z</time></trkpt><trkpt lat="36.94449922813502" lon="-3.269787819770096"><ele>1400.0</ele><time>2026-04-22T14:12:46Z</time></trkpt><trkpt lat="36.944443663981254" lon="-3.269834731861422"><ele>1400.0</ele><time>2026-04-22T14:12:48Z</time></trkpt><trkpt lat="36.94438371674908" lon="-3.269898798687093"><ele>1400.0</ele><time>2026-04-22T14:13:02Z</time></trkpt><trkpt lat="36.94430772480122" lon="-3.269955059162722"><ele>1400.0</ele><time>2026-04-22T14:14:57Z</time></trkpt><trkpt lat="36.94425387215759" lon="-3.2700036330425823"><ele>1398.8333333333335</ele><time>2026-04-22T14:14:59Z</time></trkpt><trkpt lat="36.944185591095106" lon="-3.2700662072337416"><ele>1397.6666666666667</ele><time>2026-04-22T14:15:02Z</time></trkpt><trkpt lat="36.944123455350336" lon="-3.27011524056705"><ele>1396.5</ele><time>2026-04-22T14:15:05Z</time></trkpt><trkpt lat="36.944066728741056" lon="-3.2701579788999124"><ele>1395.3333333333333</ele><time>2026-04-22T14:16:37.002Z</time></trkpt><trkpt lat="36.9439970355717" lon="-3.2702201901584687"><ele>1394.1666666666665</ele><time>2026-04-22T14:16:53.001Z</time></trkpt><trkpt lat="36.94392897069486" lon="-3.270283793668448"><ele>1393.0</ele><time>2026-04-22T14:16:55.001Z</time></trkpt><trkpt lat="36.94383627781699" lon="-3.270407448063704"><ele>1393.0</ele><time>2026-04-22T14:16:57.001Z</time></trkpt><trkpt lat="36.943774714741075" lon="-3.2704894775043507"><ele>1393.0</ele><time>2026-04-22T14:16:58.001Z</time></trkpt><trkpt lat="36.943709651576775" lon="-3.270621930517063"><ele>1393.0</ele><time>2026-04-22T14:16:59.001Z</time></trkpt><trkpt lat="36.943630397684004" lon="-3.2707663013707062"><ele>1393.0</ele><time>2026-04-22T14:17:00.001Z</time></trkpt><trkpt lat="36.94354204872673" lon="-3.2709224906561256"><ele>1391.0</ele><time>2026-04-22T14:17:01.001Z</time></trkpt><trkpt lat="36.94344318807755" lon="-3.2710878222045285"><ele>1389.0</ele><time>2026-04-22T14:17:02.001Z</time></trkpt><trkpt lat="36.94334267774662" lon="-3.2712442513421784"><ele>1387.0</ele><time>2026-04-22T14:17:03.001Z</time></trkpt><trkpt lat="36.94323913096476" lon="-3.2713827526866264"><ele>1386.0</ele><time>2026-04-22T14:17:04.001Z</time></trkpt><trkpt lat="36.94314322726776" lon="-3.2715221104578007"><ele>1385.0</ele><time>2026-04-22T14:17:05.001Z</time></trkpt><trkpt lat="36.94304841912125" lon="-3.271672383824902"><ele>1384.0</ele><time>2026-04-22T14:17:06.001Z</time></trkpt><trkpt lat="36.94295515747842" lon="-3.2718204291347748"><ele>1384.0</ele><time>2026-04-22T14:17:07.001Z</time></trkpt><trkpt lat="36.94286092680828" lon="-3.2719621528614113"><ele>1384.0</ele><time>2026-04-22T14:17:08.001Z</time></trkpt><trkpt lat="36.942761600146035" lon="-3.272094016763114"><ele>1384.0</ele><time>2026-04-22T14:17:09.001Z</time></trkpt><trkpt lat="36.94265696869165" lon="-3.272223153383878"><ele>1384.0</ele><time>2026-04-22T14:17:10.001Z</time></trkpt><trkpt lat="36.942519166354415" lon="-3.2722802343231425"><ele>1387.75</ele><time>2026-04-22T14:17:11.001Z</time></trkpt><trkpt lat="36.942414322293715" lon="-3.2723444275613054"><ele>1391.5</ele><time>2026-04-22T14:17:12.001Z</time></trkpt><trkpt lat="36.94233571520901" lon="-3.2724636207785065"><ele>1395.25</ele><time>2026-04-22T14:17:13.001Z</time></trkpt><trkpt lat="36.94225262150174" lon="-3.2725993559130457"><ele>1399.0</ele><time>2026-04-22T14:17:14.001Z</time></trkpt><trkpt lat="36.94215817574573" lon="-3.2727528981706"><ele>1399.0</ele><time>2026-04-22T14:17:15.001Z</time></trkpt><trkpt lat="36.94206593327984" lon="-3.2728927374052144"><ele>1399.0</ele><time>2026-04-22T14:17:16.001Z</time></trkpt><trkpt lat="36.94200220171885" lon="-3.273065832221872"><ele>1399.0</ele><time>2026-04-22T14:17:17.001Z</time></trkpt><trkpt lat="36.94186975090613" lon="-3.2732073174058365"><ele>1400.6666666666665</ele><time>2026-04-22T14:17:18.001Z</time></trkpt><trkpt lat="36.94170253089195" lon="-3.273319184046514"><ele>1402.3333333333333</ele><time>2026-04-22T14:17:19.001Z</time></trkpt><trkpt lat="36.94154248356798" lon="-3.273445508724553"><ele>1404.0</ele><time>2026-04-22T14:17:20.001Z</time></trkpt><trkpt lat="36.94139968732333" lon="-3.2735514700976696"><ele>1404.0</ele><time>2026-04-22T14:17:21.001Z</time></trkpt><trkpt lat="36.94127076319809" lon="-3.2736476967447032"><ele>1404.0</ele><time>2026-04-22T14:17:22.001Z</time></trkpt><trkpt lat="36.94116158405361" lon="-3.2737493229909584"><ele>1404.0</ele><time>2026-04-22T14:17:23.001Z</time></trkpt><trkpt lat="36.941074552782005" lon="-3.2738623469649886"><ele>1404.0</ele><time>2026-04-22T14:17:24.001Z</time></trkpt><trkpt lat="36.94100063811332" lon="-3.2739759320294683"><ele>1403.0</ele><time>2026-04-22T14:17:25.001Z</time></trkpt><trkpt lat="36.9409005392632" lon="-3.274065163146159"><ele>1402.0</ele><time>2026-04-22T14:17:26.001Z</time></trkpt><trkpt lat="36.940767549624795" lon="-3.274117832765228"><ele>1401.0</ele><time>2026-04-22T14:17:27.001Z</time></trkpt><trkpt lat="36.94060696247828" lon="-3.2741197949967824"><ele>1400.0</ele><time>2026-04-22T14:17:28.001Z</time></trkpt><trkpt lat="36.94043563690496" lon="-3.2740843470168075"><ele>1400.0</ele><time>2026-04-22T14:17:29.001Z</time></trkpt><trkpt lat="36.940254971541876" lon="-3.2740939225882073"><ele>1400.0</ele><time>2026-04-22T14:17:30.001Z</time></trkpt><trkpt lat="36.940079517402026" lon="-3.2740858130689814"><ele>1400.0</ele><time>2026-04-22T14:17:31.001Z</time></trkpt><trkpt lat="36.939918759854876" lon="-3.274197004162861"><ele>1396.0</ele><time>2026-04-22T14:17:32.001Z</time></trkpt><trkpt lat="36.93977496149729" lon="-3.2743496503513394"><ele>1392.0</ele><time>2026-04-22T14:17:33.001Z</time></trkpt><trkpt lat="36.939636229848546" lon="-3.274522613480424"><ele>1388.0</ele><time>2026-04-22T14:17:34.001Z</time></trkpt><trkpt lat="36.939511609301526" lon="-3.274707666494743"><ele>1386.6666666666667</ele><time>2026-04-22T14:17:35.001Z</time></trkpt><trkpt lat="36.93939378012983" lon="-3.2748916746809202"><ele>1385.3333333333333</ele><time>2026-04-22T14:17:36.001Z</time></trkpt><trkpt lat="36.93930652093819" lon="-3.275074301523055"><ele>1384.0</ele><time>2026-04-22T14:17:37.001Z</time></trkpt><trkpt lat="36.93921522752996" lon="-3.2752492144052745"><ele>1383.3333333333333</ele><time>2026-04-22T14:17:38.001Z</time></trkpt><trkpt lat="36.93909836728966" lon="-3.275413898230002"><ele>1382.6666666666667</ele><time>2026-04-22T14:17:39.001Z</time></trkpt><trkpt lat="36.93896588206301" lon="-3.275558479540366"><ele>1382.0</ele><time>2026-04-22T14:17:40.001Z</time></trkpt><trkpt lat="36.93882257886011" lon="-3.2756846265292485"><ele>1380.3333333333335</ele><time>2026-04-22T14:17:41.001Z</time></trkpt><trkpt lat="36.93867345210945" lon="-3.275791112748944"><ele>1378.6666666666667</ele><time>2026-04-22T14:17:42.001Z</time></trkpt><trkpt lat="36.93853103593531" lon="-3.2759175157406406"><ele>1377.0</ele><time>2026-04-22T14:17:43.001Z</time></trkpt><trkpt lat="36.9383820759798" lon="-3.276026004859529"><ele>1375.6666666666667</ele><time>2026-04-22T14:17:44.001Z</time></trkpt><trkpt lat="36.938271152021045" lon="-3.2761958283722197"><ele>1374.3333333333335</ele><time>2026-04-22T14:17:45.001Z</time></trkpt><trkpt lat="36.938151161557855" lon="-3.276358889005702"><ele>1373.0</ele><time>2026-04-22T14:17:46.001Z</time></trkpt><trkpt lat="36.93804514035985" lon="-3.276537301541933"><ele>1371.3333333333335</ele><time>2026-04-22T14:17:47.001Z</time></trkpt><trkpt lat="36.93793426829043" lon="-3.276707566146817"><ele>1369.6666666666667</ele><time>2026-04-22T14:17:48.001Z</time></trkpt><trkpt lat="36.93781992961363" lon="-3.276875623027128"><ele>1368.0</ele><time>2026-04-22T14:17:49.001Z</time></trkpt><trkpt lat="36.937696199733026" lon="-3.277035764250537"><ele>1368.0</ele><time>2026-04-22T14:17:50.001Z</time></trkpt><trkpt lat="36.937563540448444" lon="-3.27718302653048"><ele>1368.0</ele><time>2026-04-22T14:17:51.001Z</time></trkpt><trkpt lat="36.937412574169514" lon="-3.2773210461243485"><ele>1368.0</ele><time>2026-04-22T14:17:52.001Z</time></trkpt><trkpt lat="36.937250873397176" lon="-3.2774456368558216"><ele>1367.3333333333333</ele><time>2026-04-22T14:17:53.001Z</time></trkpt><trkpt lat="36.93707870155001" lon="-3.277555453651898"><ele>1366.6666666666665</ele><time>2026-04-22T14:17:54.001Z</time></trkpt><trkpt lat="36.936902089729635" lon="-3.277655696436152"><ele>1366.0</ele><time>2026-04-22T14:17:55.001Z</time></trkpt><trkpt lat="36.93673549168228" lon="-3.2777668007692475"><ele>1365.0</ele><time>2026-04-22T14:17:56.001Z</time></trkpt><trkpt lat="36.93658232967893" lon="-3.277875885046405"><ele>1364.0</ele><time>2026-04-22T14:17:57.001Z</time></trkpt><trkpt lat="36.93641840402198" lon="-3.2779678843198186"><ele>1363.0</ele><time>2026-04-22T14:17:58.001Z</time></trkpt><trkpt lat="36.936239865611405" lon="-3.278022326332278"><ele>1363.0</ele><time>2026-04-22T14:17:59.001Z</time></trkpt><trkpt lat="36.9360526894787" lon="-3.278044104782409"><ele>1363.0</ele><time>2026-04-22T14:18:00.001Z</time></trkpt><trkpt lat="36.93587070209789" lon="-3.2780868219599713"><ele>1363.0</ele><time>2026-04-22T14:18:01.002Z</time></trkpt><trkpt lat="36.9357122072665" lon="-3.2781149718891713"><ele>1358.0</ele><time>2026-04-22T14:18:02.002Z</time></trkpt><trkpt lat="36.93556102825948" lon="-3.2781556105437084"><ele>1353.0</ele><time>2026-04-22T14:18:03.002Z</time></trkpt><trkpt lat="36.9354395279686" lon="-3.278282742993778"><ele>1348.0</ele><time>2026-04-22T14:18:04.002Z</time></trkpt><trkpt lat="36.93531478484012" lon="-3.2784009707652864"><ele>1348.0</ele><time>2026-04-22T14:18:05.002Z</time></trkpt><trkpt lat="36.935229128655365" lon="-3.2785439142510344"><ele>1348.0</ele><time>2026-04-22T14:18:06.002Z</time></trkpt><trkpt lat="36.935175766612524" lon="-3.2787128711706437"><ele>1348.0</ele><time>2026-04-22T14:18:07.002Z</time></trkpt><trkpt lat="36.93516958804497" lon="-3.2789013532209466"><ele>1348.0</ele><time>2026-04-22T14:18:08.002Z</time></trkpt><trkpt lat="36.935219866144784" lon="-3.2790735464020093"><ele>1344.5</ele><time>2026-04-22T14:18:09.002Z</time></trkpt><trkpt lat="36.935260428672265" lon="-3.2792333352253467"><ele>1341.0</ele><time>2026-04-22T14:18:10.002Z</time></trkpt><trkpt lat="36.93529450501654" lon="-3.2793829215614743"><ele>1337.5</ele><time>2026-04-22T14:18:11.002Z</time></trkpt><trkpt lat="36.93527884703997" lon="-3.27955983913694"><ele>1334.0</ele><time>2026-04-22T14:18:12.002Z</time></trkpt><trkpt lat="36.935258794999065" lon="-3.2797307386795174"><ele>1325.6666666666667</ele><time>2026-04-22T14:18:13.002Z</time></trkpt><trkpt lat="36.935249544363344" lon="-3.279913327818003"><ele>1317.3333333333333</ele><time>2026-04-22T14:18:14.002Z</time></trkpt><trkpt lat="36.93519286477776" lon="-3.2801951353036154"><ele>1309.0</ele><time>2026-04-22T14:18:15.002Z</time></trkpt><trkpt lat="36.93518258063155" lon="-3.2804305739323714"><ele>1303.0</ele><time>2026-04-22T14:18:16.002Z</time></trkpt><trkpt lat="36.93514726741676" lon="-3.280655662515578"><ele>1297.0</ele><time>2026-04-22T14:18:17.002Z</time></trkpt><trkpt lat="36.93511473121977" lon="-3.2808668797356555"><ele>1291.0</ele><time>2026-04-22T14:18:18.002Z</time></trkpt><trkpt lat="36.93506932043947" lon="-3.2810655713108074"><ele>1291.0</ele><time>2026-04-22T14:18:19.002Z</time></trkpt><trkpt lat="36.93507891820562" lon="-3.28126122319488"><ele>1291.0</ele><time>2026-04-22T14:18:20.002Z</time></trkpt><trkpt lat="36.935104165379975" lon="-3.2814472159596435"><ele>1291.0</ele><time>2026-04-22T14:18:21.002Z</time></trkpt><trkpt lat="36.935147343208314" lon="-3.2816300405262298"><ele>1287.25</ele><time>2026-04-22T14:18:22.002Z</time></trkpt><trkpt lat="36.93518306983586" lon="-3.2818036797338097"><ele>1283.5</ele><time>2026-04-22T14:18:23.002Z</time></trkpt><trkpt lat="36.935232906304364" lon="-3.2819693124936404"><ele>1279.75</ele><time>2026-04-22T14:18:24.002Z</time></trkpt><trkpt lat="36.935248934732954" lon="-3.2821563262931415"><ele>1276.0</ele><time>2026-04-22T14:18:25.002Z</time></trkpt><trkpt lat="36.935235222141614" lon="-3.282360583786684"><ele>1272.3333333333333</ele><time>2026-04-22T14:18:26.002Z</time></trkpt><trkpt lat="36.935197920714515" lon="-3.282573861221702"><ele>1268.6666666666667</ele><time>2026-04-22T14:18:27.002Z</time></trkpt><trkpt lat="36.935155330702386" lon="-3.2827801912799046"><ele>1265.0</ele><time>2026-04-22T14:18:28.002Z</time></trkpt><trkpt lat="36.93510247069092" lon="-3.2829756941261725"><ele>1274.0</ele><time>2026-04-22T14:18:29.002Z</time></trkpt><trkpt lat="36.93501821695418" lon="-3.283153018859081"><ele>1283.0</ele><time>2026-04-22T14:18:30.002Z</time></trkpt><trkpt lat="36.93489528580643" lon="-3.2833102915550625"><ele>1292.0</ele><time>2026-04-22T14:18:31.002Z</time></trkpt><trkpt lat="36.934740064501696" lon="-3.2834349171624435"><ele>1292.0</ele><time>2026-04-22T14:18:32.002Z</time></trkpt><trkpt lat="36.93456061444238" lon="-3.2835290578454943"><ele>1292.0</ele><time>2026-04-22T14:18:33.002Z</time></trkpt><trkpt lat="36.934389021967895" lon="-3.2836224309227156"><ele>1292.0</ele><time>2026-04-22T14:18:34.002Z</time></trkpt><trkpt lat="36.93422826064379" lon="-3.283694008027025"><ele>1289.3333333333335</ele><time>2026-04-22T14:18:35.002Z</time></trkpt><trkpt lat="36.93407236872079" lon="-3.2837303231399058"><ele>1286.6666666666667</ele><time>2026-04-22T14:18:36.002Z</time></trkpt><trkpt lat="36.93391358808912" lon="-3.283733631003973"><ele>1284.0</ele><time>2026-04-22T14:18:37.002Z</time></trkpt><trkpt lat="36.93375080048647" lon="-3.283694747557178"><ele>1284.0</ele><time>2026-04-22T14:18:38.002Z</time></trkpt><trkpt lat="36.93362182462452" lon="-3.283617656013244"><ele>1284.0</ele><time>2026-04-22T14:18:39.002Z</time></trkpt><trkpt lat="36.933531706725745" lon="-3.2835534961809008"><ele>1284.0</ele><time>2026-04-22T14:18:40.002Z</time></trkpt><trkpt lat="36.93345584286457" lon="-3.283559553615183"><ele>1284.0</ele><time>2026-04-22T14:18:41.002Z</time></trkpt><trkpt lat="36.933419055396236" lon="-3.2836608357368138"><ele>1284.0</ele><time>2026-04-22T14:18:42.002Z</time></trkpt><trkpt lat="36.93342576190909" lon="-3.2837611376220455"><ele>1284.0</ele><time>2026-04-22T14:18:43.002Z</time></trkpt><trkpt lat="36.933459071560044" lon="-3.2838622253581673"><ele>1284.0</ele><time>2026-04-22T14:18:44.001Z</time></trkpt><trkpt lat="36.93360866932698" lon="-3.2839058044030343"><ele>1284.0</ele><time>2026-04-22T14:18:45.001Z</time></trkpt><trkpt lat="36.93374221792561" lon="-3.284012259190021"><ele>1284.0</ele><time>2026-04-22T14:18:46.001Z</time></trkpt><trkpt lat="36.93388892351846" lon="-3.2841236696811698"><ele>1282.25</ele><time>2026-04-22T14:18:47.001Z</time></trkpt><trkpt lat="36.934011768782746" lon="-3.284274715657281"><ele>1280.5</ele><time>2026-04-22T14:18:48.001Z</time></trkpt><trkpt lat="36.93412142381999" lon="-3.2844125742865855"><ele>1278.75</ele><time>2026-04-22T14:18:49.001Z</time></trkpt><trkpt lat="36.93419128840733" lon="-3.284514258728359"><ele>1277.0</ele><time>2026-04-22T14:18:50.001Z</time></trkpt><trkpt lat="36.934227371265095" lon="-3.2846098540180897"><ele>1277.0</ele><time>2026-04-22T14:18:51.001Z</time></trkpt><trkpt lat="36.934213809350624" lon="-3.284702883158983"><ele>1277.0</ele><time>2026-04-22T14:18:52.001Z</time></trkpt><trkpt lat="36.934142469421325" lon="-3.284780621985653"><ele>1277.0</ele><time>2026-04-22T14:18:53.001Z</time></trkpt><trkpt lat="36.93402892361779" lon="-3.2847915325032004"><ele>1277.0</ele><time>2026-04-22T14:18:54.001Z</time></trkpt><trkpt lat="36.93391480000812" lon="-3.28472082614019"><ele>1277.0</ele><time>2026-04-22T14:18:55.001Z</time></trkpt><trkpt lat="36.93380145999585" lon="-3.2845840307320917"><ele>1277.0</ele><time>2026-04-22T14:18:56.001Z</time></trkpt><trkpt lat="36.93368587579053" lon="-3.2844277812986755"><ele>1277.0</ele><time>2026-04-22T14:18:57.001Z</time></trkpt><trkpt lat="36.93352757974081" lon="-3.284303410035913"><ele>1277.0</ele><time>2026-04-22T14:18:58.001Z</time></trkpt><trkpt lat="36.933315643296204" lon="-3.284265989646708"><ele>1273.0</ele><time>2026-04-22T14:18:59.001Z</time></trkpt><trkpt lat="36.93310208337512" lon="-3.2842011434992107"><ele>1269.0</ele><time>2026-04-22T14:19:00.001Z</time></trkpt><trkpt lat="36.93290789229747" lon="-3.284131957834552"><ele>1265.0</ele><time>2026-04-22T14:19:01.001Z</time></trkpt><trkpt lat="36.932729299656955" lon="-3.284080803676769"><ele>1265.0</ele><time>2026-04-22T14:19:02.001Z</time></trkpt><trkpt lat="36.93256224384065" lon="-3.284055884607649"><ele>1265.0</ele><time>2026-04-22T14:19:03.001Z</time></trkpt><trkpt lat="36.932405623451906" lon="-3.284063820087578"><ele>1265.0</ele><time>2026-04-22T14:19:04.001Z</time></trkpt><trkpt lat="36.93226622634537" lon="-3.2841272921977054"><ele>1262.0</ele><time>2026-04-22T14:19:05.001Z</time></trkpt><trkpt lat="36.93214935663378" lon="-3.284242266252019"><ele>1259.0</ele><time>2026-04-22T14:19:06.001Z</time></trkpt><trkpt lat="36.932068533580676" lon="-3.284395798771212"><ele>1256.0</ele><time>2026-04-22T14:19:07.001Z</time></trkpt><trkpt lat="36.931978737843004" lon="-3.2845658026980544"><ele>1256.0</ele><time>2026-04-22T14:19:08.001Z</time></trkpt><trkpt lat="36.931885118901036" lon="-3.284720101457199"><ele>1256.0</ele><time>2026-04-22T14:19:09.001Z</time></trkpt><trkpt lat="36.93180297259552" lon="-3.284861736526986"><ele>1256.0</ele><time>2026-04-22T14:19:10.001Z</time></trkpt><trkpt lat="36.93171658790941" lon="-3.2849827769082456"><ele>1256.0</ele><time>2026-04-22T14:19:11.001Z</time></trkpt><trkpt lat="36.93158216757381" lon="-3.285076008981166"><ele>1250.3333333333335</ele><time>2026-04-22T14:19:12.001Z</time></trkpt><trkpt lat="36.93141644130764" lon="-3.285138230784093"><ele>1244.6666666666667</ele><time>2026-04-22T14:19:13.001Z</time></trkpt><trkpt lat="36.93123824918514" lon="-3.285209783937742"><ele>1239.0</ele><time>2026-04-22T14:19:14.001Z</time></trkpt><trkpt lat="36.93106064718901" lon="-3.285303899744395"><ele>1239.0</ele><time>2026-04-22T14:19:15.001Z</time></trkpt><trkpt lat="36.93089438811845" lon="-3.285379592437581"><ele>1239.0</ele><time>2026-04-22T14:19:16.001Z</time></trkpt><trkpt lat="36.93072419545563" lon="-3.2854215370345763"><ele>1239.0</ele><time>2026-04-22T14:19:17.001Z</time></trkpt><trkpt lat="36.93055022809722" lon="-3.285419475929982"><ele>1241.6666666666667</ele><time>2026-04-22T14:19:18.001Z</time></trkpt><trkpt lat="36.930387822993076" lon="-3.28541510207464"><ele>1244.3333333333335</ele><time>2026-04-22T14:19:19.001Z</time></trkpt><trkpt lat="36.93024263661957" lon="-3.2854093779291813"><ele>1247.0</ele><time>2026-04-22T14:19:20.001Z</time></trkpt><trkpt lat="36.930098049542224" lon="-3.285376767754548"><ele>1243.6666666666667</ele><time>2026-04-22T14:19:21.001Z</time></trkpt><trkpt lat="36.92995926140261" lon="-3.285293657465985"><ele>1240.3333333333333</ele><time>2026-04-22T14:19:22.001Z</time></trkpt><trkpt lat="36.92982448861065" lon="-3.285192078644582"><ele>1237.0</ele><time>2026-04-22T14:19:23.001Z</time></trkpt><trkpt lat="36.929688453813064" lon="-3.2851165441954304"><ele>1237.0</ele><time>2026-04-22T14:19:24.001Z</time></trkpt><trkpt lat="36.92953325158534" lon="-3.285102924684959"><ele>1237.0</ele><time>2026-04-22T14:19:25.001Z</time></trkpt><trkpt lat="36.929377597531165" lon="-3.2851273820471225"><ele>1237.0</ele><time>2026-04-22T14:19:26.001Z</time></trkpt><trkpt lat="36.92923120879137" lon="-3.2851295544932384"><ele>1232.3333333333333</ele><time>2026-04-22T14:19:27.001Z</time></trkpt><trkpt lat="36.92907302295723" lon="-3.2850550404417733"><ele>1227.6666666666667</ele><time>2026-04-22T14:19:28.001Z</time></trkpt><trkpt lat="36.928908804482994" lon="-3.2849235411877857"><ele>1223.0</ele><time>2026-04-22T14:19:29.001Z</time></trkpt><trkpt lat="36.928751157206754" lon="-3.284775792217637"><ele>1224.0</ele><time>2026-04-22T14:19:30.001Z</time></trkpt><trkpt lat="36.928564962316315" lon="-3.2847072367454277"><ele>1225.0</ele><time>2026-04-22T14:19:31.001Z</time></trkpt><trkpt lat="36.92838880964409" lon="-3.2846347024254237"><ele>1226.0</ele><time>2026-04-22T14:19:32.001Z</time></trkpt><trkpt lat="36.928213345685826" lon="-3.284600691437852"><ele>1226.0</ele><time>2026-04-22T14:19:33.001Z</time></trkpt><trkpt lat="36.928046881054186" lon="-3.2845581296565936"><ele>1226.0</ele><time>2026-04-22T14:19:34.001Z</time></trkpt><trkpt lat="36.927896295484935" lon="-3.284508224798266"><ele>1226.0</ele><time>2026-04-22T14:19:35.001Z</time></trkpt><trkpt lat="36.927760993142066" lon="-3.284454830079894"><ele>1226.0</ele><time>2026-04-22T14:19:36.001Z</time></trkpt><trkpt lat="36.92764595662516" lon="-3.2844090915759847"><ele>1226.0</ele><time>2026-04-22T14:19:37.001Z</time></trkpt><trkpt lat="36.927536528753926" lon="-3.284438798224631"><ele>1226.0</ele><time>2026-04-22T14:19:38.001Z</time></trkpt><trkpt lat="36.92744862659231" lon="-3.2845404986460833"><ele>1226.0</ele><time>2026-04-22T14:19:39.001Z</time></trkpt><trkpt lat="36.927361213897875" lon="-3.2846793999771418"><ele>1220.5</ele><time>2026-04-22T14:19:40.001Z</time></trkpt><trkpt lat="36.927249644170104" lon="-3.2847735405526106"><ele>1215.0</ele><time>2026-04-22T14:19:41.001Z</time></trkpt><trkpt lat="36.92711914705727" lon="-3.2848331406766316"><ele>1209.5</ele><time>2026-04-22T14:19:42.001Z</time></trkpt><trkpt lat="36.92696455108893" lon="-3.284837999985865"><ele>1204.0</ele><time>2026-04-22T14:19:43.001Z</time></trkpt><trkpt lat="36.926830401752184" lon="-3.284810139600609"><ele>1204.0</ele><time>2026-04-22T14:19:44.001Z</time></trkpt><trkpt lat="36.926728853642786" lon="-3.2848165383074734"><ele>1204.0</ele><time>2026-04-22T14:19:45.001Z</time></trkpt><trkpt lat="36.926623017878235" lon="-3.2848328862239446"><ele>1204.0</ele><time>2026-04-22T14:19:47.001Z</time></trkpt><trkpt lat="36.92657893018385" lon="-3.284946363935757"><ele>1204.0</ele><time>2026-04-22T14:19:49.001Z</time></trkpt><trkpt lat="36.92658426695773" lon="-3.285053342186926"><ele>1204.0</ele><time>2026-04-22T14:19:51.001Z</time></trkpt><trkpt lat="36.92660160741666" lon="-3.285142024770911"><ele>1204.0</ele><time>2026-04-22T14:19:52.001Z</time></trkpt><trkpt lat="36.926638133709965" lon="-3.2852444893747306"><ele>1204.0</ele><time>2026-04-22T14:19:53.001Z</time></trkpt><trkpt lat="36.92667314820453" lon="-3.2853508455916294"><ele>1204.0</ele><time>2026-04-22T14:19:54.001Z</time></trkpt><trkpt lat="36.926712789424336" lon="-3.285466308623012"><ele>1204.0</ele><time>2026-04-22T14:19:55.001Z</time></trkpt><trkpt lat="36.92675473069485" lon="-3.285590431556797"><ele>1204.0</ele><time>2026-04-22T14:19:56.001Z</time></trkpt><trkpt lat="36.92678716620404" lon="-3.285726450352028"><ele>1203.5</ele><time>2026-04-22T14:19:57.001Z</time></trkpt><trkpt lat="36.92680115007521" lon="-3.285876788657868"><ele>1203.0</ele><time>2026-04-22T14:19:58.001Z</time></trkpt><trkpt lat="36.92679525959835" lon="-3.2860276013780294"><ele>1202.5</ele><time>2026-04-22T14:19:59.001Z</time></trkpt><trkpt lat="36.92678137843087" lon="-3.286170476910452"><ele>1202.0</ele><time>2026-04-22T14:20:00.001Z</time></trkpt><trkpt lat="36.92677758262005" lon="-3.2863004530999884"><ele>1202.0</ele><time>2026-04-22T14:20:01.001Z</time></trkpt><trkpt lat="36.92677493876739" lon="-3.2864130288769253"><ele>1202.0</ele><time>2026-04-22T14:20:02.001Z</time></trkpt><trkpt lat="36.926745230665475" lon="-3.286511259583197"><ele>1202.0</ele><time>2026-04-22T14:20:03.001Z</time></trkpt><trkpt lat="36.9266917948028" lon="-3.2865769118857537"><ele>1202.0</ele><time>2026-04-22T14:20:04.001Z</time></trkpt><trkpt lat="36.92660559001724" lon="-3.2866003402659336"><ele>1202.0</ele><time>2026-04-22T14:20:05.001Z</time></trkpt><trkpt lat="36.92650004912397" lon="-3.2866030060334173"><ele>1202.0</ele><time>2026-04-22T14:20:06.001Z</time></trkpt><trkpt lat="36.92640139721492" lon="-3.286620694340021"><ele>1204.0</ele><time>2026-04-22T14:20:07.001Z</time></trkpt><trkpt lat="36.92634513300466" lon="-3.286716027006782"><ele>1206.0</ele><time>2026-04-22T14:20:08.001Z</time></trkpt><trkpt lat="36.92633606842126" lon="-3.2868324536967983"><ele>1208.0</ele><time>2026-04-22T14:20:09.001Z</time></trkpt><trkpt lat="36.92640270471584" lon="-3.28693841010208"><ele>1210.0</ele><time>2026-04-22T14:20:10.001Z</time></trkpt><trkpt lat="36.92649667212912" lon="-3.287053177575939"><ele>1212.0</ele><time>2026-04-22T14:20:11.001Z</time></trkpt><trkpt lat="36.926571857599434" lon="-3.28721580802426"><ele>1212.25</ele><time>2026-04-22T14:20:12.001Z</time></trkpt><trkpt lat="36.92666153241771" lon="-3.2873844231441995"><ele>1212.5</ele><time>2026-04-22T14:20:13.001Z</time></trkpt><trkpt lat="36.9267739780012" lon="-3.2874974875921947"><ele>1212.75</ele><time>2026-04-22T14:20:14.001Z</time></trkpt><trkpt lat="36.92687715275636" lon="-3.287584242885588"><ele>1213.0</ele><time>2026-04-22T14:20:15.001Z</time></trkpt><trkpt lat="36.926945961736564" lon="-3.2876726999493777"><ele>1213.0</ele><time>2026-04-22T14:20:16.001Z</time></trkpt><trkpt lat="36.92697922216367" lon="-3.287751501878161"><ele>1213.0</ele><time>2026-04-22T14:20:17.001Z</time></trkpt><trkpt lat="36.926955086622314" lon="-3.287884699417727"><ele>1213.0</ele><time>2026-04-22T14:20:19.001Z</time></trkpt><trkpt lat="36.926910828384926" lon="-3.2879466591016993"><ele>1213.0</ele><time>2026-04-22T14:20:21.001Z</time></trkpt><trkpt lat="36.92687419820271" lon="-3.2880402885774065"><ele>1213.0</ele><time>2026-04-22T14:20:23.001Z</time></trkpt><trkpt lat="36.92684999563629" lon="-3.2881229326849986"><ele>1213.0</ele><time>2026-04-22T14:20:24.001Z</time></trkpt><trkpt lat="36.92683004443294" lon="-3.2882223998450373"><ele>1210.6</ele><time>2026-04-22T14:20:25.001Z</time></trkpt><trkpt lat="36.926815120812755" lon="-3.288327184208184"><ele>1208.1999999999998</ele><time>2026-04-22T14:20:26.001Z</time></trkpt><trkpt lat="36.926802471373186" lon="-3.2884457381527854"><ele>1205.8</ele><time>2026-04-22T14:20:27.001Z</time></trkpt><trkpt lat="36.92677267547205" lon="-3.288564752027982"><ele>1203.3999999999999</ele><time>2026-04-22T14:20:28.001Z</time></trkpt><trkpt lat="36.92672320564503" lon="-3.288689213547053"><ele>1201.0</ele><time>2026-04-22T14:20:29.001Z</time></trkpt><trkpt lat="36.92663193304672" lon="-3.2887948488294776"><ele>1201.0</ele><time>2026-04-22T14:20:30.001Z</time></trkpt><trkpt lat="36.926508994269405" lon="-3.288865741947458"><ele>1201.0</ele><time>2026-04-22T14:20:31.001Z</time></trkpt><trkpt lat="36.92636860361966" lon="-3.2889206081432585"><ele>1201.0</ele><time>2026-04-22T14:20:32.001Z</time></trkpt><trkpt lat="36.926236567359204" lon="-3.288978601327004"><ele>1201.0</ele><time>2026-04-22T14:20:33.001Z</time></trkpt><trkpt lat="36.92613273059749" lon="-3.2891019713642033"><ele>1203.0</ele><time>2026-04-22T14:20:34.001Z</time></trkpt><trkpt lat="36.92602347953996" lon="-3.289232919397948"><ele>1205.0</ele><time>2026-04-22T14:20:35.001Z</time></trkpt><trkpt lat="36.92591185108387" lon="-3.289347405422836"><ele>1207.0</ele><time>2026-04-22T14:20:36.001Z</time></trkpt><trkpt lat="36.92581957594507" lon="-3.289473219891404"><ele>1209.0</ele><time>2026-04-22T14:20:37.001Z</time></trkpt><trkpt lat="36.92572602686365" lon="-3.28959382930486"><ele>1209.0</ele><time>2026-04-22T14:20:38.001Z</time></trkpt><trkpt lat="36.925634631250325" lon="-3.2897176123038117"><ele>1209.0</ele><time>2026-04-22T14:20:39.001Z</time></trkpt><trkpt lat="36.92553702562337" lon="-3.289840713649676"><ele>1209.0</ele><time>2026-04-22T14:20:40.001Z</time></trkpt><trkpt lat="36.925438650372506" lon="-3.2899643962259866"><ele>1209.0</ele><time>2026-04-22T14:20:41.001Z</time></trkpt><trkpt lat="36.925336889289966" lon="-3.2900985819448154"><ele>1211.0</ele><time>2026-04-22T14:20:42.001Z</time></trkpt><trkpt lat="36.92523874946755" lon="-3.290238127779387"><ele>1213.0</ele><time>2026-04-22T14:20:43Z</time></trkpt><trkpt lat="36.92514354023785" lon="-3.2903874774165174"><ele>1215.0</ele><time>2026-04-22T14:20:44Z</time></trkpt><trkpt lat="36.925056355644735" lon="-3.29054431266886"><ele>1216.3333333333333</ele><time>2026-04-22T14:20:45Z</time></trkpt><trkpt lat="36.92496697034419" lon="-3.290709535053524"><ele>1217.6666666666665</ele><time>2026-04-22T14:20:46Z</time></trkpt><trkpt lat="36.92488170752405" lon="-3.290868425922577"><ele>1219.0</ele><time>2026-04-22T14:20:47Z</time></trkpt><trkpt lat="36.92480007345968" lon="-3.291032659864035"><ele>1219.0</ele><time>2026-04-22T14:20:48Z</time></trkpt><trkpt lat="36.924710854211334" lon="-3.2912031296602655"><ele>1219.0</ele><time>2026-04-22T14:20:49Z</time></trkpt><trkpt lat="36.92461558813504" lon="-3.291376623160243"><ele>1219.0</ele><time>2026-04-22T14:20:50Z</time></trkpt><trkpt lat="36.92451658888561" lon="-3.2915344800468898"><ele>1221.3333333333333</ele><time>2026-04-22T14:20:51Z</time></trkpt><trkpt lat="36.92441703851407" lon="-3.291693355019958"><ele>1223.6666666666667</ele><time>2026-04-22T14:20:52Z</time></trkpt><trkpt lat="36.924341802438214" lon="-3.291867087059471"><ele>1226.0</ele><time>2026-04-22T14:20:53Z</time></trkpt><trkpt lat="36.92424891429893" lon="-3.2920305543495685"><ele>1220.5</ele><time>2026-04-22T14:20:54Z</time></trkpt><trkpt lat="36.92417694173189" lon="-3.2921996614486932"><ele>1215.0</ele><time>2026-04-22T14:20:55Z</time></trkpt><trkpt lat="36.92411665306537" lon="-3.292338399792082"><ele>1209.5</ele><time>2026-04-22T14:20:56Z</time></trkpt><trkpt lat="36.924088871305024" lon="-3.2924798262192843"><ele>1204.0</ele><time>2026-04-22T14:20:57Z</time></trkpt><trkpt lat="36.924085034952434" lon="-3.2926375807115216"><ele>1204.0</ele><time>2026-04-22T14:20:58Z</time></trkpt><trkpt lat="36.92413506558599" lon="-3.292809268444748"><ele>1204.0</ele><time>2026-04-22T14:20:59Z</time></trkpt><trkpt lat="36.92421208959499" lon="-3.2929735777614226"><ele>1204.0</ele><time>2026-04-22T14:21:00Z</time></trkpt><trkpt lat="36.924278919197484" lon="-3.2931316635771744"><ele>1204.0</ele><time>2026-04-22T14:21:01Z</time></trkpt><trkpt lat="36.924322555599346" lon="-3.2932722896574664"><ele>1201.5</ele><time>2026-04-22T14:21:02Z</time></trkpt><trkpt lat="36.924355815906765" lon="-3.293415758187147"><ele>1199.0</ele><time>2026-04-22T14:21:03Z</time></trkpt><trkpt lat="36.92431555617572" lon="-3.2935766306740675"><ele>1196.5</ele><time>2026-04-22T14:21:04Z</time></trkpt><trkpt lat="36.924212243652974" lon="-3.2937000833245245"><ele>1194.0</ele><time>2026-04-22T14:21:05Z</time></trkpt><trkpt lat="36.924088472880506" lon="-3.29379553232381"><ele>1194.0</ele><time>2026-04-22T14:21:06Z</time></trkpt><trkpt lat="36.92394637722508" lon="-3.293876452388289"><ele>1194.0</ele><time>2026-04-22T14:21:07Z</time></trkpt><trkpt lat="36.92381294086323" lon="-3.2939842196561617"><ele>1194.0</ele><time>2026-04-22T14:21:08Z</time></trkpt><trkpt lat="36.92368411381249" lon="-3.294136831368999"><ele>1196.0</ele><time>2026-04-22T14:21:09Z</time></trkpt><trkpt lat="36.92358853613388" lon="-3.2943024069065596"><ele>1198.0</ele><time>2026-04-22T14:21:10Z</time></trkpt><trkpt lat="36.92347404239979" lon="-3.2944887769151725"><ele>1200.0</ele><time>2026-04-22T14:21:11Z</time></trkpt><trkpt lat="36.923362905238704" lon="-3.294671623147787"><ele>1197.5</ele><time>2026-04-22T14:21:12Z</time></trkpt><trkpt lat="36.923274490728325" lon="-3.2948194566788085"><ele>1195.0</ele><time>2026-04-22T14:21:13Z</time></trkpt><trkpt lat="36.9232052293309" lon="-3.294950206630762"><ele>1192.5</ele><time>2026-04-22T14:21:14Z</time></trkpt><trkpt lat="36.92318617527505" lon="-3.2950970373319812"><ele>1190.0</ele><time>2026-04-22T14:21:15Z</time></trkpt><trkpt lat="36.923185781609185" lon="-3.29527758414506"><ele>1190.0</ele><time>2026-04-22T14:21:16Z</time></trkpt><trkpt lat="36.92318796713735" lon="-3.295501805943672"><ele>1190.0</ele><time>2026-04-22T14:21:17Z</time></trkpt><trkpt lat="36.92315535413689" lon="-3.295731996085517"><ele>1190.0</ele><time>2026-04-22T14:21:18Z</time></trkpt><trkpt lat="36.92311807259841" lon="-3.295932109654411"><ele>1189.3333333333335</ele><time>2026-04-22T14:21:19Z</time></trkpt><trkpt lat="36.92310447906055" lon="-3.2961285528586606"><ele>1188.6666666666667</ele><time>2026-04-22T14:21:20Z</time></trkpt><trkpt lat="36.923124731558836" lon="-3.2963131666907586"><ele>1188.0</ele><time>2026-04-22T14:21:21Z</time></trkpt><trkpt lat="36.92316412579223" lon="-3.2964945721912993"><ele>1186.0</ele><time>2026-04-22T14:21:22Z</time></trkpt><trkpt lat="36.92320864164178" lon="-3.2966734128166753"><ele>1184.0</ele><time>2026-04-22T14:21:23Z</time></trkpt><trkpt lat="36.9232510814435" lon="-3.296844096855751"><ele>1182.0</ele><time>2026-04-22T14:21:24Z</time></trkpt><trkpt lat="36.923266231362575" lon="-3.2970076292051496"><ele>1180.0</ele><time>2026-04-22T14:21:25Z</time></trkpt><trkpt lat="36.923285529198864" lon="-3.2971519064056785"><ele>1179.0</ele><time>2026-04-22T14:21:26Z</time></trkpt><trkpt lat="36.923264206720546" lon="-3.297288569166997"><ele>1178.0</ele><time>2026-04-22T14:21:27Z</time></trkpt><trkpt lat="36.923190425522165" lon="-3.2974026660732956"><ele>1177.0</ele><time>2026-04-22T14:21:28Z</time></trkpt><trkpt lat="36.92306940434817" lon="-3.297462833702755"><ele>1176.0</ele><time>2026-04-22T14:21:29Z</time></trkpt><trkpt lat="36.92292266843637" lon="-3.2974735372000277"><ele>1176.0</ele><time>2026-04-22T14:21:30Z</time></trkpt><trkpt lat="36.92277013853881" lon="-3.297414622343592"><ele>1176.0</ele><time>2026-04-22T14:21:31Z</time></trkpt><trkpt lat="36.92262604106099" lon="-3.297372587879077"><ele>1176.0</ele><time>2026-04-22T14:21:32Z</time></trkpt><trkpt lat="36.92248713465605" lon="-3.297408866560752"><ele>1176.0</ele><time>2026-04-22T14:21:33Z</time></trkpt><trkpt lat="36.92237273518534" lon="-3.2975626468924757"><ele>1172.0</ele><time>2026-04-22T14:21:34Z</time></trkpt><trkpt lat="36.9222385067419" lon="-3.297671570603796"><ele>1168.0</ele><time>2026-04-22T14:21:35Z</time></trkpt><trkpt lat="36.922137914918906" lon="-3.2978402975275456"><ele>1164.0</ele><time>2026-04-22T14:21:36Z</time></trkpt><trkpt lat="36.92193041632526" lon="-3.2977732389145498"><ele>1164.0</ele><time>2026-04-22T14:21:37Z</time></trkpt><trkpt lat="36.921761070706786" lon="-3.297751067053335"><ele>1164.0</ele><time>2026-04-22T14:21:38Z</time></trkpt><trkpt lat="36.92161073361758" lon="-3.2977084067283986"><ele>1164.0</ele><time>2026-04-22T14:21:39Z</time></trkpt><trkpt lat="36.92146595089983" lon="-3.2976442424733947"><ele>1161.25</ele><time>2026-04-22T14:21:40Z</time></trkpt><trkpt lat="36.92135226657641" lon="-3.297502801317513"><ele>1158.5</ele><time>2026-04-22T14:21:41Z</time></trkpt><trkpt lat="36.921254478432616" lon="-3.2973753005315998"><ele>1155.75</ele><time>2026-04-22T14:21:42Z</time></trkpt><trkpt lat="36.92115656062656" lon="-3.297280796086018"><ele>1153.0</ele><time>2026-04-22T14:21:43Z</time></trkpt><trkpt lat="36.921054006708054" lon="-3.2972165256112405"><ele>1153.5</ele><time>2026-04-22T14:21:44Z</time></trkpt><trkpt lat="36.92094072691315" lon="-3.297210043714014"><ele>1154.0</ele><time>2026-04-22T14:21:45Z</time></trkpt><trkpt lat="36.92082759997098" lon="-3.297284497150664"><ele>1154.5</ele><time>2026-04-22T14:21:46Z</time></trkpt><trkpt lat="36.920690737577075" lon="-3.2973485407023255"><ele>1155.0</ele><time>2026-04-22T14:21:47Z</time></trkpt><trkpt lat="36.920565274724346" lon="-3.297391004662379"><ele>1155.0</ele><time>2026-04-22T14:21:48Z</time></trkpt><trkpt lat="36.9204241742837" lon="-3.2973530769989496"><ele>1155.0</ele><time>2026-04-22T14:21:49Z</time></trkpt><trkpt lat="36.92026810121928" lon="-3.297267693991459"><ele>1155.0</ele><time>2026-04-22T14:21:50Z</time></trkpt><trkpt lat="36.920098105282" lon="-3.29719265004842"><ele>1147.0</ele><time>2026-04-22T14:21:51Z</time></trkpt><trkpt lat="36.91991932628989" lon="-3.2971598089668728"><ele>1139.0</ele><time>2026-04-22T14:21:52Z</time></trkpt><trkpt lat="36.919752131704456" lon="-3.2971305593106344"><ele>1131.0</ele><time>2026-04-22T14:21:53Z</time></trkpt><trkpt lat="36.9195911080905" lon="-3.297104068789092"><ele>1131.0</ele><time>2026-04-22T14:21:54Z</time></trkpt><trkpt lat="36.91941716037305" lon="-3.297079710919913"><ele>1131.0</ele><time>2026-04-22T14:21:55Z</time></trkpt><trkpt lat="36.919242126786585" lon="-3.29704939077804"><ele>1131.0</ele><time>2026-04-22T14:21:56Z</time></trkpt><trkpt lat="36.919075386314525" lon="-3.2970212112385955"><ele>1129.0</ele><time>2026-04-22T14:21:57Z</time></trkpt><trkpt lat="36.918917972641765" lon="-3.296993838657193"><ele>1127.0</ele><time>2026-04-22T14:21:58Z</time></trkpt><trkpt lat="36.91875543174831" lon="-3.296974115021367"><ele>1125.0</ele><time>2026-04-22T14:21:59Z</time></trkpt><trkpt lat="36.91860289793266" lon="-3.296965903103982"><ele>1125.0</ele><time>2026-04-22T14:22:00Z</time></trkpt><trkpt lat="36.918456480682806" lon="-3.2969568340702975"><ele>1125.0</ele><time>2026-04-22T14:22:01Z</time></trkpt><trkpt lat="36.91830892510799" lon="-3.296942757411174"><ele>1125.0</ele><time>2026-04-22T14:22:02.001Z</time></trkpt><trkpt lat="36.918164287888885" lon="-3.2969133077979422"><ele>1125.0</ele><time>2026-04-22T14:22:03.001Z</time></trkpt><trkpt lat="36.91801750020542" lon="-3.29686666845173"><ele>1123.5</ele><time>2026-04-22T14:22:04.001Z</time></trkpt><trkpt lat="36.91786923212609" lon="-3.296812272669925"><ele>1122.0</ele><time>2026-04-22T14:22:05.001Z</time></trkpt><trkpt lat="36.917730323443195" lon="-3.296756419357204"><ele>1120.5</ele><time>2026-04-22T14:22:06.001Z</time></trkpt><trkpt lat="36.917596817470944" lon="-3.296685502866364"><ele>1119.0</ele><time>2026-04-22T14:22:07.001Z</time></trkpt><trkpt lat="36.91746946200733" lon="-3.296566516093232"><ele>1112.6666666666667</ele><time>2026-04-22T14:22:08.001Z</time></trkpt><trkpt lat="36.91736620704386" lon="-3.2963920118103713"><ele>1106.3333333333335</ele><time>2026-04-22T14:22:09.001Z</time></trkpt><trkpt lat="36.917268464956855" lon="-3.2961962193610623"><ele>1100.0</ele><time>2026-04-22T14:22:10.001Z</time></trkpt><trkpt lat="36.917123402642325" lon="-3.2960666247438253"><ele>1100.0</ele><time>2026-04-22T14:22:11.001Z</time></trkpt><trkpt lat="36.91698563943465" lon="-3.2959507335747658"><ele>1100.0</ele><time>2026-04-22T14:22:12.001Z</time></trkpt><trkpt lat="36.91686349112902" lon="-3.2958723060304527"><ele>1100.0</ele><time>2026-04-22T14:22:13.001Z</time></trkpt><trkpt lat="36.916728622985794" lon="-3.2958346273756147"><ele>1100.0</ele><time>2026-04-22T14:22:14.001Z</time></trkpt><trkpt lat="36.91656751173739" lon="-3.2958359345331485"><ele>1101.6666666666667</ele><time>2026-04-22T14:22:15.001Z</time></trkpt><trkpt lat="36.91639894772286" lon="-3.295880980360736"><ele>1103.3333333333333</ele><time>2026-04-22T14:22:16.001Z</time></trkpt><trkpt lat="36.916225135682126" lon="-3.29595930286042"><ele>1105.0</ele><time>2026-04-22T14:22:17.001Z</time></trkpt><trkpt lat="36.91606190615469" lon="-3.296063852863517"><ele>1105.0</ele><time>2026-04-22T14:22:18.001Z</time></trkpt><trkpt lat="36.91592920470488" lon="-3.296170005075903"><ele>1105.0</ele><time>2026-04-22T14:22:19.001Z</time></trkpt><trkpt lat="36.91581946421745" lon="-3.2962836270953"><ele>1105.0</ele><time>2026-04-22T14:22:20.001Z</time></trkpt><trkpt lat="36.915724915301205" lon="-3.296407977458929"><ele>1105.0</ele><time>2026-04-22T14:22:21.001Z</time></trkpt><trkpt lat="36.915677909396166" lon="-3.296561068645479"><ele>1104.5</ele><time>2026-04-22T14:22:22.001Z</time></trkpt><trkpt lat="36.91566094376709" lon="-3.2967309629252495"><ele>1104.0</ele><time>2026-04-22T14:22:23.001Z</time></trkpt><trkpt lat="36.915677479397004" lon="-3.2969221821501122"><ele>1103.5</ele><time>2026-04-22T14:22:24.001Z</time></trkpt><trkpt lat="36.91573192523022" lon="-3.2971074422729454"><ele>1103.0</ele><time>2026-04-22T14:22:25.001Z</time></trkpt><trkpt lat="36.91581432537925" lon="-3.2972707891595343"><ele>1103.3333333333335</ele><time>2026-04-22T14:22:26.001Z</time></trkpt><trkpt lat="36.915917330039356" lon="-3.29740293335927"><ele>1103.6666666666667</ele><time>2026-04-22T14:22:27.001Z</time></trkpt><trkpt lat="36.91604770238609" lon="-3.297463806879735"><ele>1104.0</ele><time>2026-04-22T14:22:28.001Z</time></trkpt><trkpt lat="36.91620445255991" lon="-3.2975298690592068"><ele>1104.0</ele><time>2026-04-22T14:22:29.001Z</time></trkpt><trkpt lat="36.91636501573051" lon="-3.297621830063051"><ele>1104.0</ele><time>2026-04-22T14:22:30.001Z</time></trkpt><trkpt lat="36.916508040031154" lon="-3.2977132598225305"><ele>1104.0</ele><time>2026-04-22T14:22:31.001Z</time></trkpt><trkpt lat="36.91661553150287" lon="-3.297821993388807"><ele>1104.0</ele><time>2026-04-22T14:22:32.001Z</time></trkpt><trkpt lat="36.91667939167519" lon="-3.297964975177579"><ele>1104.0</ele><time>2026-04-22T14:22:33.001Z</time></trkpt><trkpt lat="36.916707722356456" lon="-3.2981503802800307"><ele>1104.0</ele><time>2026-04-22T14:22:34.001Z</time></trkpt><trkpt lat="36.91671188032897" lon="-3.2983585196673526"><ele>1104.0</ele><time>2026-04-22T14:22:35.001Z</time></trkpt><trkpt lat="36.91668641284226" lon="-3.29854884181252"><ele>1102.3333333333333</ele><time>2026-04-22T14:22:36.001Z</time></trkpt><trkpt lat="36.91662172794881" lon="-3.2987089270121555"><ele>1100.6666666666665</ele><time>2026-04-22T14:22:37.001Z</time></trkpt><trkpt lat="36.916507601057404" lon="-3.2988264043718583"><ele>1099.0</ele><time>2026-04-22T14:22:38.001Z</time></trkpt><trkpt lat="36.91636723873247" lon="-3.2989184014002824"><ele>1099.0</ele><time>2026-04-22T14:22:39.001Z</time></trkpt><trkpt lat="36.916214475312614" lon="-3.29899863507106"><ele>1099.0</ele><time>2026-04-22T14:22:40.001Z</time></trkpt><trkpt lat="36.91605133874428" lon="-3.2990360841241326"><ele>1099.0</ele><time>2026-04-22T14:22:41.001Z</time></trkpt><trkpt lat="36.91587401669748" lon="-3.2990274544839857"><ele>1093.6666666666665</ele><time>2026-04-22T14:22:42.001Z</time></trkpt><trkpt lat="36.91570682756588" lon="-3.299077519192684"><ele>1088.3333333333333</ele><time>2026-04-22T14:22:43.001Z</time></trkpt><trkpt lat="36.91555557685578" lon="-3.299141474854844"><ele>1083.0</ele><time>2026-04-22T14:22:44.001Z</time></trkpt><trkpt lat="36.915406767518384" lon="-3.299235176357874"><ele>1083.0</ele><time>2026-04-22T14:22:45.001Z</time></trkpt><trkpt lat="36.915266805934785" lon="-3.299339862814346"><ele>1083.0</ele><time>2026-04-22T14:22:46.001Z</time></trkpt><trkpt lat="36.915146568685024" lon="-3.299439077389167"><ele>1083.0</ele><time>2026-04-22T14:22:47.001Z</time></trkpt><trkpt lat="36.915047380426095" lon="-3.299535403235906"><ele>1083.0</ele><time>2026-04-22T14:22:48.001Z</time></trkpt><trkpt lat="36.9149763171904" lon="-3.29965853127365"><ele>1081.25</ele><time>2026-04-22T14:22:48.999Z</time></trkpt><trkpt lat="36.91494019166828" lon="-3.2998227115110534"><ele>1079.5</ele><time>2026-04-22T14:22:49.999Z</time></trkpt><trkpt lat="36.914879415182924" lon="-3.2999935676859713"><ele>1077.75</ele><time>2026-04-22T14:22:50.999Z</time></trkpt><trkpt lat="36.91477931876868" lon="-3.300145489063308"><ele>1076.0</ele><time>2026-04-22T14:22:51.999Z</time></trkpt><trkpt lat="36.91462850868616" lon="-3.3002471948505154"><ele>1076.0</ele><time>2026-04-22T14:22:52.999Z</time></trkpt><trkpt lat="36.91445359294765" lon="-3.300288075194617"><ele>1076.0</ele><time>2026-04-22T14:22:53.999Z</time></trkpt><trkpt lat="36.91426369175295" lon="-3.300278131541494"><ele>1076.0</ele><time>2026-04-22T14:22:54.999Z</time></trkpt><trkpt lat="36.914082463746695" lon="-3.3002978177394158"><ele>1069.0</ele><time>2026-04-22T14:22:55.999Z</time></trkpt><trkpt lat="36.91391177762939" lon="-3.3003323205552526"><ele>1062.0</ele><time>2026-04-22T14:22:56.999Z</time></trkpt><trkpt lat="36.91375038212728" lon="-3.300357714405268"><ele>1055.0</ele><time>2026-04-22T14:22:57.999Z</time></trkpt><trkpt lat="36.91359173777095" lon="-3.300395688985723"><ele>1055.0</ele><time>2026-04-22T14:22:58.999Z</time></trkpt><trkpt lat="36.913445331061126" lon="-3.3004538554964338"><ele>1055.0</ele><time>2026-04-22T14:22:59.999Z</time></trkpt><trkpt lat="36.91331079432837" lon="-3.3005340825236016"><ele>1055.0</ele><time>2026-04-22T14:23:00.999Z</time></trkpt><trkpt lat="36.91318176233014" lon="-3.300652291909523"><ele>1057.75</ele><time>2026-04-22T14:23:01.999Z</time></trkpt><trkpt lat="36.913075853552655" lon="-3.300783101620628"><ele>1060.5</ele><time>2026-04-22T14:23:02.999Z</time></trkpt><trkpt lat="36.91301135524294" lon="-3.3009249976583566"><ele>1063.25</ele><time>2026-04-22T14:23:03.999Z</time></trkpt><trkpt lat="36.91295796264294" lon="-3.3010956880684352"><ele>1066.0</ele><time>2026-04-22T14:23:04.999Z</time></trkpt><trkpt lat="36.912890754518884" lon="-3.301279521812349"><ele>1072.6666666666665</ele><time>2026-04-22T14:23:06Z</time></trkpt><trkpt lat="36.91281759613246" lon="-3.301442324295521"><ele>1079.3333333333333</ele><time>2026-04-22T14:23:07Z</time></trkpt><trkpt lat="36.912695723796034" lon="-3.301566657661801"><ele>1086.0</ele><time>2026-04-22T14:23:08Z</time></trkpt><trkpt lat="36.91254165023075" lon="-3.301640631253331"><ele>1076.0</ele><time>2026-04-22T14:23:09Z</time></trkpt><trkpt lat="36.912410012626836" lon="-3.3017149096178673"><ele>1066.0</ele><time>2026-04-22T14:23:10Z</time></trkpt><trkpt lat="36.912322086708684" lon="-3.301829985048091"><ele>1056.0</ele><time>2026-04-22T14:23:11Z</time></trkpt><trkpt lat="36.912260737305246" lon="-3.301995882318175"><ele>1046.0</ele><time>2026-04-22T14:23:12Z</time></trkpt><trkpt lat="36.91225931561808" lon="-3.3021851118335483"><ele>1047.0</ele><time>2026-04-22T14:23:13Z</time></trkpt><trkpt lat="36.91228750498286" lon="-3.3023778453950037"><ele>1048.0</ele><time>2026-04-22T14:23:14Z</time></trkpt><trkpt lat="36.9123388363156" lon="-3.3025719593584695"><ele>1049.0</ele><time>2026-04-22T14:23:15Z</time></trkpt><trkpt lat="36.91239210546906" lon="-3.3027642414176324"><ele>1049.0</ele><time>2026-04-22T14:23:16Z</time></trkpt><trkpt lat="36.91244432640674" lon="-3.302930261249772"><ele>1049.0</ele><time>2026-04-22T14:23:17Z</time></trkpt><trkpt lat="36.91246618404499" lon="-3.3030999229172435"><ele>1049.0</ele><time>2026-04-22T14:23:18Z</time></trkpt><trkpt lat="36.912463936367644" lon="-3.303268311194713"><ele>1049.0</ele><time>2026-04-22T14:23:19Z</time></trkpt><trkpt lat="36.912448854727344" lon="-3.3034383859262846"><ele>1048.25</ele><time>2026-04-22T14:23:20Z</time></trkpt><trkpt lat="36.912418914009955" lon="-3.3036011478866762"><ele>1047.5</ele><time>2026-04-22T14:23:21Z</time></trkpt><trkpt lat="36.9123817371837" lon="-3.3037616840858526"><ele>1046.75</ele><time>2026-04-22T14:23:22Z</time></trkpt><trkpt lat="36.91231857548914" lon="-3.303909842263393"><ele>1046.0</ele><time>2026-04-22T14:23:23Z</time></trkpt><trkpt lat="36.91224751380047" lon="-3.304043059661188"><ele>1046.0</ele><time>2026-04-22T14:23:24Z</time></trkpt><trkpt lat="36.91215241816696" lon="-3.304163721362267"><ele>1046.0</ele><time>2026-04-22T14:23:25Z</time></trkpt><trkpt lat="36.91201500147868" lon="-3.3042627893278946"><ele>1046.0</ele><time>2026-04-22T14:23:26Z</time></trkpt><trkpt lat="36.91185984509439" lon="-3.3043389861913983"><ele>1041.3333333333335</ele><time>2026-04-22T14:23:27Z</time></trkpt><trkpt lat="36.91168688813255" lon="-3.3043825294467313"><ele>1036.6666666666667</ele><time>2026-04-22T14:23:28Z</time></trkpt><trkpt lat="36.9115234849209" lon="-3.3043645156274826"><ele>1032.0</ele><time>2026-04-22T14:23:29Z</time></trkpt><trkpt lat="36.91138866774896" lon="-3.304337324045314"><ele>1032.0</ele><time>2026-04-22T14:23:30Z</time></trkpt><trkpt lat="36.91125656540887" lon="-3.3043952460573007"><ele>1032.0</ele><time>2026-04-22T14:23:31Z</time></trkpt><trkpt lat="36.911121325776946" lon="-3.3044935918887073"><ele>1032.0</ele><time>2026-04-22T14:23:32Z</time></trkpt><trkpt lat="36.910961872083355" lon="-3.3045864557378746"><ele>1036.0</ele><time>2026-04-22T14:23:33Z</time></trkpt><trkpt lat="36.91081214464615" lon="-3.304698957537064"><ele>1040.0</ele><time>2026-04-22T14:23:34Z</time></trkpt><trkpt lat="36.910673575740866" lon="-3.304792063843189"><ele>1044.0</ele><time>2026-04-22T14:23:35Z</time></trkpt><trkpt lat="36.91054573578463" lon="-3.3048970108286855"><ele>1044.0</ele><time>2026-04-22T14:23:36Z</time></trkpt><trkpt lat="36.91042146203455" lon="-3.305018292356222"><ele>1044.0</ele><time>2026-04-22T14:23:37Z</time></trkpt><trkpt lat="36.91026904074646" lon="-3.3051297120892182"><ele>1044.0</ele><time>2026-04-22T14:23:38Z</time></trkpt><trkpt lat="36.910102140288274" lon="-3.3052405716362845"><ele>1034.3333333333333</ele><time>2026-04-22T14:23:39Z</time></trkpt><trkpt lat="36.90993914948159" lon="-3.3053339900748098"><ele>1024.6666666666665</ele><time>2026-04-22T14:23:40Z</time></trkpt><trkpt lat="36.90978509608835" lon="-3.305423003199666"><ele>1015.0</ele><time>2026-04-22T14:23:41Z</time></trkpt><trkpt lat="36.90964974117115" lon="-3.3054947851093326"><ele>1015.0</ele><time>2026-04-22T14:23:42Z</time></trkpt><trkpt lat="36.9095355076099" lon="-3.30555967716015"><ele>1015.0</ele><time>2026-04-22T14:23:43Z</time></trkpt><trkpt lat="36.90943901298134" lon="-3.3056328266628343"><ele>1015.0</ele><time>2026-04-22T14:23:44Z</time></trkpt><trkpt lat="36.9093648918987" lon="-3.3057196993503033"><ele>1015.0</ele><time>2026-04-22T14:23:45Z</time></trkpt><trkpt lat="36.90931400810513" lon="-3.3058309941648774"><ele>1015.0</ele><time>2026-04-22T14:23:46Z</time></trkpt><trkpt lat="36.90931182728673" lon="-3.30595000455923"><ele>1013.6</ele><time>2026-04-22T14:23:47Z</time></trkpt><trkpt lat="36.909277013039336" lon="-3.3060220029317775"><ele>1012.2</ele><time>2026-04-22T14:23:48Z</time></trkpt><trkpt lat="36.90924502755874" lon="-3.3061683855165733"><ele>1010.8</ele><time>2026-04-22T14:23:50Z</time></trkpt><trkpt lat="36.90915017553447" lon="-3.3062671696732115"><ele>1009.4</ele><time>2026-04-22T14:23:52Z</time></trkpt><trkpt lat="36.90908526980514" lon="-3.306270944841783"><ele>1008.0</ele><time>2026-04-22T14:23:53Z</time></trkpt><trkpt lat="36.90901139732423" lon="-3.3062464649451027"><ele>1008.0</ele><time>2026-04-22T14:23:54Z</time></trkpt><trkpt lat="36.9089438722595" lon="-3.3061939109268197"><ele>1008.0</ele><time>2026-04-22T14:23:55Z</time></trkpt><trkpt lat="36.90889852479588" lon="-3.3061171163765795"><ele>1008.0</ele><time>2026-04-22T14:23:56Z</time></trkpt><trkpt lat="36.908864382841806" lon="-3.306025038516481"><ele>1008.0</ele><time>2026-04-22T14:23:57Z</time></trkpt><trkpt lat="36.9088794154758" lon="-3.3059044158821047"><ele>1008.0</ele><time>2026-04-22T14:23:58Z</time></trkpt><trkpt lat="36.90894332842407" lon="-3.305801969370931"><ele>1008.0</ele><time>2026-04-22T14:23:59Z</time></trkpt><trkpt lat="36.908999157254854" lon="-3.3057061109657835"><ele>1008.0</ele><time>2026-04-22T14:24:00Z</time></trkpt><trkpt lat="36.90906966412906" lon="-3.30561579992851"><ele>1008.0</ele><time>2026-04-22T14:24:01Z</time></trkpt><trkpt lat="36.90913588124204" lon="-3.3055369373533687"><ele>1008.0</ele><time>2026-04-22T14:24:02Z</time></trkpt><trkpt lat="36.9091982561202" lon="-3.305465108025795"><ele>1008.0</ele><time>2026-04-22T14:24:03Z</time></trkpt><trkpt lat="36.90926151642725" lon="-3.305378973521725"><ele>1008.0</ele><time>2026-04-22T14:24:04Z</time></trkpt><trkpt lat="36.90932666644233" lon="-3.305299359071284"><ele>1009.1666666666666</ele><time>2026-04-22T14:24:05Z</time></trkpt><trkpt lat="36.90938971320628" lon="-3.305220970227489"><ele>1010.3333333333333</ele><time>2026-04-22T14:24:06Z</time></trkpt><trkpt lat="36.90944888529225" lon="-3.305140689510682"><ele>1011.5</ele><time>2026-04-22T14:24:07Z</time></trkpt><trkpt lat="36.90950496767385" lon="-3.3050627631478613"><ele>1012.6666666666666</ele><time>2026-04-22T14:24:08Z</time></trkpt><trkpt lat="36.90955604482829" lon="-3.3049825466187035"><ele>1013.8333333333333</ele><time>2026-04-22T14:24:09Z</time></trkpt><trkpt lat="36.909594054446636" lon="-3.304883152765809"><ele>1015.0</ele><time>2026-04-22T14:24:10Z</time></trkpt><trkpt lat="36.909639107381835" lon="-3.3048054351820384"><ele>1010.4</ele><time>2026-04-22T14:24:11Z</time></trkpt><trkpt lat="36.90966279839696" lon="-3.304712668819207"><ele>1005.8</ele><time>2026-04-22T14:24:12Z</time></trkpt><trkpt lat="36.909694576748755" lon="-3.30461522165629"><ele>1001.2</ele><time>2026-04-22T14:24:13Z</time></trkpt><trkpt lat="36.909744418425504" lon="-3.3045175181708295"><ele>996.6</ele><time>2026-04-22T14:24:14Z</time></trkpt><trkpt lat="36.909829194934765" lon="-3.304414109499949"><ele>992.0</ele><time>2026-04-22T14:24:15Z</time></trkpt><trkpt lat="36.9099490871082" lon="-3.3043132303158926"><ele>992.0</ele><time>2026-04-22T14:24:16Z</time></trkpt><trkpt lat="36.91006527939612" lon="-3.304260071230941"><ele>992.0</ele><time>2026-04-22T14:24:17Z</time></trkpt><trkpt lat="36.91016652573141" lon="-3.304209377263938"><ele>992.0</ele><time>2026-04-22T14:24:18Z</time></trkpt><trkpt lat="36.910249326690824" lon="-3.3041594210815446"><ele>992.0</ele><time>2026-04-22T14:24:19Z</time></trkpt><trkpt lat="36.91031748193137" lon="-3.304098380346476"><ele>992.0</ele><time>2026-04-22T14:24:20Z</time></trkpt><trkpt lat="36.910358203828245" lon="-3.3040177463351434"><ele>992.0</ele><time>2026-04-22T14:24:21Z</time></trkpt><trkpt lat="36.9103191539412" lon="-3.303906615627918"><ele>992.0</ele><time>2026-04-22T14:24:22Z</time></trkpt><trkpt lat="36.910264876185785" lon="-3.303821418431347"><ele>992.0</ele><time>2026-04-22T14:24:23Z</time></trkpt><trkpt lat="36.910147927919" lon="-3.303836398161954"><ele>992.0</ele><time>2026-04-22T14:24:24Z</time></trkpt><trkpt lat="36.91005163397147" lon="-3.303906272003357"><ele>992.0</ele><time>2026-04-22T14:24:25Z</time></trkpt><trkpt lat="36.90995075122268" lon="-3.304045236912552"><ele>992.0</ele><time>2026-04-22T14:24:26Z</time></trkpt><trkpt lat="36.90976294704341" lon="-3.304204547574361"><ele>992.0</ele><time>2026-04-22T14:24:27Z</time></trkpt><trkpt lat="36.90953307570611" lon="-3.3043808733776725"><ele>992.0</ele><time>2026-04-22T14:24:28Z</time></trkpt><trkpt lat="36.90929912515316" lon="-3.3045776691943947"><ele>992.0</ele><time>2026-04-22T14:24:29Z</time></trkpt><trkpt lat="36.909083548079025" lon="-3.3046938021720047"><ele>992.3333333333334</ele><time>2026-04-22T14:24:30Z</time></trkpt><trkpt lat="36.90890654869177" lon="-3.304798978239269"><ele>992.6666666666667</ele><time>2026-04-22T14:24:31Z</time></trkpt><trkpt lat="36.908761033999944" lon="-3.3048757920046494"><ele>993.0</ele><time>2026-04-22T14:24:32Z</time></trkpt><trkpt lat="36.90860513423246" lon="-3.304906910400053"><ele>993.0</ele><time>2026-04-22T14:24:33Z</time></trkpt><trkpt lat="36.90844964423802" lon="-3.304874668316318"><ele>993.0</ele><time>2026-04-22T14:24:34Z</time></trkpt><trkpt lat="36.9083337558335" lon="-3.304841709366943"><ele>993.0</ele><time>2026-04-22T14:24:35Z</time></trkpt><trkpt lat="36.90824622556819" lon="-3.3048943682416403"><ele>993.0</ele><time>2026-04-22T14:24:36Z</time></trkpt><trkpt lat="36.90821811256469" lon="-3.3050284119287223"><ele>987.0</ele><time>2026-04-22T14:24:37Z</time></trkpt><trkpt lat="36.90819052773895" lon="-3.305204666830179"><ele>981.0</ele><time>2026-04-22T14:24:38Z</time></trkpt><trkpt lat="36.90816436290111" lon="-3.3054453306290132"><ele>975.0</ele><time>2026-04-22T14:24:39Z</time></trkpt><trkpt lat="36.90817886055462" lon="-3.305690606116901"><ele>975.0</ele><time>2026-04-22T14:24:40Z</time></trkpt><trkpt lat="36.90821849695916" lon="-3.305935458751421"><ele>975.0</ele><time>2026-04-22T14:24:41Z</time></trkpt><trkpt lat="36.908239087923185" lon="-3.30612786323366"><ele>975.0</ele><time>2026-04-22T14:24:42Z</time></trkpt><trkpt lat="36.908227217653256" lon="-3.30629976807528"><ele>974.75</ele><time>2026-04-22T14:24:43Z</time></trkpt><trkpt lat="36.908205138222634" lon="-3.3064576790114737"><ele>974.5</ele><time>2026-04-22T14:24:44Z</time></trkpt><trkpt lat="36.908134209372044" lon="-3.3065831073823193"><ele>974.25</ele><time>2026-04-22T14:24:45Z</time></trkpt><trkpt lat="36.90800197390101" lon="-3.306663709561244"><ele>974.0</ele><time>2026-04-22T14:24:46Z</time></trkpt><trkpt lat="36.90780607443751" lon="-3.3066613779080445"><ele>974.0</ele><time>2026-04-22T14:24:47Z</time></trkpt><trkpt lat="36.90764476315853" lon="-3.3066981654575573"><ele>974.0</ele><time>2026-04-22T14:24:48Z</time></trkpt><trkpt lat="36.90752060469536" lon="-3.3067595075908742"><ele>974.0</ele><time>2026-04-22T14:24:49Z</time></trkpt><trkpt lat="36.90744640178585" lon="-3.3068131201355286"><ele>974.0</ele><time>2026-04-22T14:24:50Z</time></trkpt><trkpt lat="36.90737676977527" lon="-3.306894778475669"><ele>971.5000000000001</ele><time>2026-04-22T14:24:52Z</time></trkpt><trkpt lat="36.90731075175773" lon="-3.307009748203334"><ele>969.0</ele><time>2026-04-22T14:33:56Z</time></trkpt><trkpt lat="36.90732397559727" lon="-3.3069326630417546"><ele>966.5</ele><time>2026-04-22T14:37:23.999Z</time></trkpt><trkpt lat="36.90739978997979" lon="-3.306896650396345"><ele>964.0</ele><time>2026-04-22T14:41:16.999Z</time></trkpt><trkpt lat="36.90733235114905" lon="-3.3069359858240386"><ele>961.5000000000001</ele><time>2026-04-22T14:45:22.999Z</time></trkpt><trkpt lat="36.907256158576374" lon="-3.307036244997247"><ele>959.0</ele><time>2026-04-22T14:45:25.999Z</time></trkpt><trkpt lat="36.90720889076405" lon="-3.3071882147712253"><ele>958.4000000000001</ele><time>2026-04-22T14:45:27.999Z</time></trkpt><trkpt lat="36.90717976394759" lon="-3.3072822138070825"><ele>957.8000000000001</ele><time>2026-04-22T14:45:28.999Z</time></trkpt><trkpt lat="36.90713447568151" lon="-3.307362925384392"><ele>957.1999999999999</ele><time>2026-04-22T14:45:29.999Z</time></trkpt><trkpt lat="36.907060797289795" lon="-3.307429833025555"><ele>956.5999999999999</ele><time>2026-04-22T14:45:30.999Z</time></trkpt><trkpt lat="36.90698147126543" lon="-3.3075098394446076"><ele>956.0</ele><time>2026-04-22T14:45:31.999Z</time></trkpt><trkpt lat="36.90687548998968" lon="-3.307529733845587"><ele>956.0</ele><time>2026-04-22T14:45:32.999Z</time></trkpt><trkpt lat="36.90678390395652" lon="-3.307580207344693"><ele>955.9999999999999</ele><time>2026-04-22T14:45:33.999Z</time></trkpt><trkpt lat="36.90667750742036" lon="-3.307615508415393"><ele>955.9999999999999</ele><time>2026-04-22T14:45:34.999Z</time></trkpt><trkpt lat="36.906587737575144" lon="-3.3076432970698617"><ele>956.0</ele><time>2026-04-22T14:45:35.999Z</time></trkpt><trkpt lat="36.90649751901915" lon="-3.3076459207248505"><ele>956.0</ele><time>2026-04-22T14:45:36.998Z</time></trkpt><trkpt lat="36.90641398041827" lon="-3.307662186987798"><ele>956.4285714285716</ele><time>2026-04-22T14:45:37.998Z</time></trkpt><trkpt lat="36.906335408449905" lon="-3.307659393616956"><ele>956.8571428571429</ele><time>2026-04-22T14:45:38.998Z</time></trkpt><trkpt lat="36.90626785016554" lon="-3.3076311662276736"><ele>957.2857142857143</ele><time>2026-04-22T14:45:39.998Z</time></trkpt><trkpt lat="36.90621074685178" lon="-3.307578355998907"><ele>957.7142857142858</ele><time>2026-04-22T14:45:40.998Z</time></trkpt><trkpt lat="36.90616628109353" lon="-3.30751713576898"><ele>958.1428571428571</ele><time>2026-04-22T14:45:41.998Z</time></trkpt><trkpt lat="36.90613236796992" lon="-3.307445900194004"><ele>958.5714285714286</ele><time>2026-04-22T14:45:42.998Z</time></trkpt><trkpt lat="36.906095698231226" lon="-3.307355830964821"><ele>959.0</ele><time>2026-04-22T14:45:43.998Z</time></trkpt><trkpt lat="36.906070343748354" lon="-3.3072411339896624"><ele>959.0</ele><time>2026-04-22T14:45:44.998Z</time></trkpt><trkpt lat="36.906031535720686" lon="-3.307138874483716"><ele>959.0000000000001</ele><time>2026-04-22T14:45:45.998Z</time></trkpt><trkpt lat="36.90600506162261" lon="-3.3070349677366986"><ele>959.0000000000001</ele><time>2026-04-22T14:45:46.998Z</time></trkpt><trkpt lat="36.90597894069619" lon="-3.306926316979657"><ele>959.0</ele><time>2026-04-22T14:45:47.998Z</time></trkpt><trkpt lat="36.90595250975446" lon="-3.3068146100005267"><ele>959.0</ele><time>2026-04-22T14:45:48.998Z</time></trkpt><trkpt lat="36.905954911429895" lon="-3.306696912361658"><ele>959.0000000000001</ele><time>2026-04-22T14:45:49.998Z</time></trkpt><trkpt lat="36.9059641582847" lon="-3.3065881106831725"><ele>959.0</ele><time>2026-04-22T14:45:50.998Z</time></trkpt><trkpt lat="36.90597866167399" lon="-3.3064717801594132"><ele>959.0</ele><time>2026-04-22T14:45:51.998Z</time></trkpt><trkpt lat="36.905993005783564" lon="-3.3063675483191566"><ele>959.0</ele><time>2026-04-22T14:45:52.998Z</time></trkpt><trkpt lat="36.90601600794514" lon="-3.3062613405392285"><ele>959.0000000000001</ele><time>2026-04-22T14:45:53.999Z</time></trkpt><trkpt lat="36.90605420643795" lon="-3.3061640239570265"><ele>959.0</ele><time>2026-04-22T14:45:54.999Z</time></trkpt><trkpt lat="36.90610753006404" lon="-3.3060639841850463"><ele>955.0</ele><time>2026-04-22T14:45:55.999Z</time></trkpt><trkpt lat="36.90617782006669" lon="-3.3059764390861996"><ele>951.0</ele><time>2026-04-22T14:45:56.999Z</time></trkpt><trkpt lat="36.90625636353649" lon="-3.3058852226375715"><ele>947.0</ele><time>2026-04-22T14:45:57.999Z</time></trkpt><trkpt lat="36.90635139588841" lon="-3.305776190541706"><ele>943.0</ele><time>2026-04-22T14:45:58.999Z</time></trkpt><trkpt lat="36.90644556048864" lon="-3.3056631742732896"><ele>942.9999999999999</ele><time>2026-04-22T14:45:59.999Z</time></trkpt><trkpt lat="36.906527196920365" lon="-3.3055881223376664"><ele>943.0</ele><time>2026-04-22T14:46:00.999Z</time></trkpt><trkpt lat="36.90660081042141" lon="-3.305530691649214"><ele>943.0</ele><time>2026-04-22T14:46:01.999Z</time></trkpt><trkpt lat="36.90666016650099" lon="-3.3054742960028034"><ele>943.0</ele><time>2026-04-22T14:46:02.999Z</time></trkpt><trkpt lat="36.9066938261117" lon="-3.30540595338688"><ele>942.9999999999999</ele><time>2026-04-22T14:46:03.999Z</time></trkpt><trkpt lat="36.906641233854124" lon="-3.3053158449598343"><ele>943.0</ele><time>2026-04-22T14:46:04.999Z</time></trkpt><trkpt lat="36.906527625489396" lon="-3.3052385949234386"><ele>943.0</ele><time>2026-04-22T14:46:06.999Z</time></trkpt><trkpt lat="36.90644302113693" lon="-3.3052517565301054"><ele>943.0</ele><time>2026-04-22T14:46:07.999Z</time></trkpt><trkpt lat="36.90636481057949" lon="-3.3053278937960706"><ele>943.0</ele><time>2026-04-22T14:46:08.999Z</time></trkpt><trkpt lat="36.90631239797635" lon="-3.3054553011073047"><ele>943.0</ele><time>2026-04-22T14:46:09.999Z</time></trkpt><trkpt lat="36.90622575284051" lon="-3.305607224434677"><ele>943.0</ele><time>2026-04-22T14:46:10.999Z</time></trkpt><trkpt lat="36.90612249090111" lon="-3.305741526332544"><ele>943.0</ele><time>2026-04-22T14:46:11.999Z</time></trkpt><trkpt lat="36.90599058136605" lon="-3.305837668829726"><ele>943.0</ele><time>2026-04-22T14:46:12.999Z</time></trkpt><trkpt lat="36.90585975670036" lon="-3.30590753379555"><ele>943.0</ele><time>2026-04-22T14:46:13.999Z</time></trkpt><trkpt lat="36.90574789647404" lon="-3.305975115776322"><ele>943.0</ele><time>2026-04-22T14:46:14.999Z</time></trkpt><trkpt lat="36.905668188503384" lon="-3.3060882838883456"><ele>940.75</ele><time>2026-04-22T14:46:15.999Z</time></trkpt><trkpt lat="36.90561329709394" lon="-3.306210233287572"><ele>938.5</ele><time>2026-04-22T14:46:16.999Z</time></trkpt><trkpt lat="36.90555914060804" lon="-3.30635779465601"><ele>936.25</ele><time>2026-04-22T14:46:17.999Z</time></trkpt><trkpt lat="36.9054962188291" lon="-3.3065109694419457"><ele>934.0</ele><time>2026-04-22T14:46:18.999Z</time></trkpt><trkpt lat="36.90545877638589" lon="-3.3066805969526856"><ele>934.0</ele><time>2026-04-22T14:46:19.999Z</time></trkpt><trkpt lat="36.905440690831576" lon="-3.306861115429372"><ele>934.0</ele><time>2026-04-22T14:46:20.999Z</time></trkpt><trkpt lat="36.905469864144166" lon="-3.307047019900185"><ele>934.0</ele><time>2026-04-22T14:46:21.999Z</time></trkpt><trkpt lat="36.905477968896896" lon="-3.3072305661150154"><ele>934.0</ele><time>2026-04-22T14:46:22.999Z</time></trkpt><trkpt lat="36.905527505694124" lon="-3.3073726136924164"><ele>933.3333333333333</ele><time>2026-04-22T14:46:23.999Z</time></trkpt><trkpt lat="36.90554006569636" lon="-3.307478532752762"><ele>932.6666666666666</ele><time>2026-04-22T14:46:24.999Z</time></trkpt><trkpt lat="36.90552235781833" lon="-3.3075677721400596"><ele>932.0</ele><time>2026-04-22T14:46:25.999Z</time></trkpt><trkpt lat="36.90546466016201" lon="-3.3076376101743983"><ele>931.3333333333333</ele><time>2026-04-22T14:46:26.999Z</time></trkpt><trkpt lat="36.9053940468925" lon="-3.3076967111998443"><ele>930.6666666666666</ele><time>2026-04-22T14:46:27.999Z</time></trkpt><trkpt lat="36.90529258754513" lon="-3.307673927508087"><ele>930.0</ele><time>2026-04-22T14:46:28.999Z</time></trkpt><trkpt lat="36.905194095581834" lon="-3.30756557127309"><ele>930.0</ele><time>2026-04-22T14:46:29.999Z</time></trkpt><trkpt lat="36.90515610946366" lon="-3.3074196572129777"><ele>930.0</ele><time>2026-04-22T14:46:30.999Z</time></trkpt><trkpt lat="36.90515239099089" lon="-3.3072686324916662"><ele>930.0</ele><time>2026-04-22T14:46:31.999Z</time></trkpt><trkpt lat="36.9051919956633" lon="-3.3071056563436065"><ele>930.0</ele><time>2026-04-22T14:46:32.999Z</time></trkpt><trkpt lat="36.905197103205076" lon="-3.306922866312155"><ele>931.0</ele><time>2026-04-22T14:46:33.999Z</time></trkpt><trkpt lat="36.90518492112317" lon="-3.3067461016252993"><ele>932.0</ele><time>2026-04-22T14:46:34.999Z</time></trkpt><trkpt lat="36.90516369362842" lon="-3.3065777915342744"><ele>933.0</ele><time>2026-04-22T14:46:35.999Z</time></trkpt><trkpt lat="36.90512953784339" lon="-3.3064341550249394"><ele>934.0</ele><time>2026-04-22T14:46:36.999Z</time></trkpt><trkpt lat="36.90507924420027" lon="-3.3062937800678323"><ele>925.25</ele><time>2026-04-22T14:46:37.999Z</time></trkpt><trkpt lat="36.9050138102885" lon="-3.306167764772464"><ele>916.5</ele><time>2026-04-22T14:46:38.999Z</time></trkpt><trkpt lat="36.90495175141148" lon="-3.3060401897580642"><ele>907.75</ele><time>2026-04-22T14:46:39.999Z</time></trkpt><trkpt lat="36.9049071465854" lon="-3.3059084851505367"><ele>899.0</ele><time>2026-04-22T14:46:40.999Z</time></trkpt><trkpt lat="36.90488557173391" lon="-3.305781465921757"><ele>899.0</ele><time>2026-04-22T14:46:41.999Z</time></trkpt><trkpt lat="36.90489694264046" lon="-3.3056509164766603"><ele>899.0</ele><time>2026-04-22T14:46:42.999Z</time></trkpt><trkpt lat="36.90493963556292" lon="-3.3055287396629707"><ele>899.0</ele><time>2026-04-22T14:46:43.999Z</time></trkpt><trkpt lat="36.90505962430777" lon="-3.305457336183459"><ele>899.0</ele><time>2026-04-22T14:46:44.999Z</time></trkpt><trkpt lat="36.90517258748024" lon="-3.3053769085995093"><ele>900.75</ele><time>2026-04-22T14:46:45.999Z</time></trkpt><trkpt lat="36.9052806883994" lon="-3.3052821789880054"><ele>902.5</ele><time>2026-04-22T14:46:46.999Z</time></trkpt><trkpt lat="36.90536445836664" lon="-3.3051711052913584"><ele>904.25</ele><time>2026-04-22T14:46:47.999Z</time></trkpt><trkpt lat="36.9054379547456" lon="-3.30506567096929"><ele>906.0</ele><time>2026-04-22T14:46:48.999Z</time></trkpt><trkpt lat="36.90549644115334" lon="-3.3049474843180415"><ele>906.0</ele><time>2026-04-22T14:46:49.999Z</time></trkpt><trkpt lat="36.905526333290254" lon="-3.304819969977916"><ele>905.9999999999999</ele><time>2026-04-22T14:46:50.999Z</time></trkpt><trkpt lat="36.905525632057206" lon="-3.304689642942223"><ele>905.9999999999999</ele><time>2026-04-22T14:46:51.999Z</time></trkpt><trkpt lat="36.90547277762842" lon="-3.30457494368996"><ele>906.0</ele><time>2026-04-22T14:46:52.999Z</time></trkpt><trkpt lat="36.90537097194267" lon="-3.3045151379592146"><ele>906.0</ele><time>2026-04-22T14:46:53.999Z</time></trkpt><trkpt lat="36.90526077396007" lon="-3.304402173446218"><ele>904.75</ele><time>2026-04-22T14:46:54.999Z</time></trkpt><trkpt lat="36.90516577968053" lon="-3.304287569235575"><ele>903.5</ele><time>2026-04-22T14:46:55.999Z</time></trkpt><trkpt lat="36.905091931740166" lon="-3.304151912147529"><ele>902.25</ele><time>2026-04-22T14:46:56.999Z</time></trkpt><trkpt lat="36.905039164346476" lon="-3.30400745166676"><ele>901.0</ele><time>2026-04-22T14:46:57.999Z</time></trkpt><trkpt lat="36.9050070389562" lon="-3.3038487890749706"><ele>895.5</ele><time>2026-04-22T14:46:58.999Z</time></trkpt><trkpt lat="36.90499919519856" lon="-3.3036792845674885"><ele>890.0</ele><time>2026-04-22T14:46:59.999Z</time></trkpt><trkpt lat="36.90500704644629" lon="-3.303496071126562"><ele>884.5</ele><time>2026-04-22T14:47:00.999Z</time></trkpt><trkpt lat="36.90501878213133" lon="-3.303310117601201"><ele>879.0</ele><time>2026-04-22T14:47:01.999Z</time></trkpt><trkpt lat="36.905028102489204" lon="-3.303135763043155"><ele>877.0</ele><time>2026-04-22T14:47:02.999Z</time></trkpt><trkpt lat="36.90503823682803" lon="-3.3029748458246604"><ele>875.0</ele><time>2026-04-22T14:47:03.999Z</time></trkpt><trkpt lat="36.90508192255206" lon="-3.302839936792342"><ele>873.0</ele><time>2026-04-22T14:47:04.999Z</time></trkpt><trkpt lat="36.90513769398825" lon="-3.3027204232931147"><ele>871.0</ele><time>2026-04-22T14:47:05.999Z</time></trkpt><trkpt lat="36.90521788407314" lon="-3.302609961112684"><ele>873.8</ele><time>2026-04-22T14:47:06.999Z</time></trkpt><trkpt lat="36.90528512637649" lon="-3.302499696233472"><ele>876.5999999999999</ele><time>2026-04-22T14:47:07.999Z</time></trkpt><trkpt lat="36.90531794588428" lon="-3.3023796706986"><ele>879.4</ele><time>2026-04-22T14:47:08.999Z</time></trkpt><trkpt lat="36.90528216236991" lon="-3.3022617621573915"><ele>882.2</ele><time>2026-04-22T14:47:09.999Z</time></trkpt><trkpt lat="36.905210305615554" lon="-3.3021706842979484"><ele>885.0</ele><time>2026-04-22T14:47:10.999Z</time></trkpt><trkpt lat="36.905107586471225" lon="-3.302110496524241"><ele>880.75</ele><time>2026-04-22T14:47:11.999Z</time></trkpt><trkpt lat="36.90499208159262" lon="-3.302027961285633"><ele>876.5</ele><time>2026-04-22T14:47:12.999Z</time></trkpt><trkpt lat="36.904894448366655" lon="-3.301953172660799"><ele>872.25</ele><time>2026-04-22T14:47:13.999Z</time></trkpt><trkpt lat="36.904820436921455" lon="-3.301839361303055"><ele>868.0</ele><time>2026-04-22T14:47:14.999Z</time></trkpt><trkpt lat="36.90476516677016" lon="-3.3017133503548246"><ele>868.0</ele><time>2026-04-22T14:47:15.999Z</time></trkpt><trkpt lat="36.904753491019164" lon="-3.3015491669671864"><ele>868.0</ele><time>2026-04-22T14:47:16.999Z</time></trkpt><trkpt lat="36.90477590588564" lon="-3.3013680015720612"><ele>868.0</ele><time>2026-04-22T14:47:17.999Z</time></trkpt><trkpt lat="36.90478104844162" lon="-3.301182478292975"><ele>868.0</ele><time>2026-04-22T14:47:18.999Z</time></trkpt><trkpt lat="36.904797440509654" lon="-3.3010019161833135"><ele>867.25</ele><time>2026-04-22T14:47:19.999Z</time></trkpt><trkpt lat="36.904812364170525" lon="-3.3008302356263997"><ele>866.5</ele><time>2026-04-22T14:47:20.999Z</time></trkpt><trkpt lat="36.90482406962604" lon="-3.300673264588423"><ele>865.75</ele><time>2026-04-22T14:47:21.999Z</time></trkpt><trkpt lat="36.90482131218078" lon="-3.300545878718516"><ele>865.0</ele><time>2026-04-22T14:47:22.999Z</time></trkpt><trkpt lat="36.90479059214674" lon="-3.3004336184308527"><ele>863.6</ele><time>2026-04-22T14:47:23.999Z</time></trkpt><trkpt lat="36.90471709832087" lon="-3.300373440959238"><ele>862.2</ele><time>2026-04-22T14:47:24.999Z</time></trkpt><trkpt lat="36.90462607836416" lon="-3.3003389363620466"><ele>860.8</ele><time>2026-04-22T14:47:25.999Z</time></trkpt><trkpt lat="36.90452751131463" lon="-3.300355032807892"><ele>859.4</ele><time>2026-04-22T14:47:26.999Z</time></trkpt><trkpt lat="36.90444852420848" lon="-3.3004282965448817"><ele>858.0</ele><time>2026-04-22T14:47:27.999Z</time></trkpt><trkpt lat="36.90439543828837" lon="-3.300538921030319"><ele>859.75</ele><time>2026-04-22T14:47:28.999Z</time></trkpt><trkpt lat="36.904389163531526" lon="-3.3006979727357053"><ele>861.5</ele><time>2026-04-22T14:47:29.999Z</time></trkpt><trkpt lat="36.904394060761206" lon="-3.3008615401672645"><ele>863.25</ele><time>2026-04-22T14:47:30.999Z</time></trkpt><trkpt lat="36.904379050348616" lon="-3.3010250072472904"><ele>865.0</ele><time>2026-04-22T14:47:31.999Z</time></trkpt><trkpt lat="36.90433923573407" lon="-3.301182183155991"><ele>865.0</ele><time>2026-04-22T14:47:32.999Z</time></trkpt><trkpt lat="36.904289606201644" lon="-3.301331737545927"><ele>865.0</ele><time>2026-04-22T14:47:33.999Z</time></trkpt><trkpt lat="36.90425149435926" lon="-3.301477579610974"><ele>865.0</ele><time>2026-04-22T14:47:34.999Z</time></trkpt><trkpt lat="36.90423803911695" lon="-3.3016232432871"><ele>865.0</ele><time>2026-04-22T14:47:35.999Z</time></trkpt><trkpt lat="36.90425546978341" lon="-3.3017719848418148"><ele>865.75</ele><time>2026-04-22T14:47:36.999Z</time></trkpt><trkpt lat="36.90428894064814" lon="-3.3019154937689965"><ele>866.5</ele><time>2026-04-22T14:47:37.999Z</time></trkpt><trkpt lat="36.904313169244894" lon="-3.3020565448562107"><ele>867.25</ele><time>2026-04-22T14:47:38.999Z</time></trkpt><trkpt lat="36.904304022642194" lon="-3.3021895701287276"><ele>868.0</ele><time>2026-04-22T14:47:39.999Z</time></trkpt><trkpt lat="36.90423834205556" lon="-3.3023077023989638"><ele>864.25</ele><time>2026-04-22T14:47:40.999Z</time></trkpt><trkpt lat="36.90414137164681" lon="-3.3023998612914234"><ele>860.5</ele><time>2026-04-22T14:47:41.999Z</time></trkpt><trkpt lat="36.904018488203135" lon="-3.3024638478127746"><ele>856.75</ele><time>2026-04-22T14:47:42.999Z</time></trkpt><trkpt lat="36.903884774399906" lon="-3.302494221418002"><ele>853.0</ele><time>2026-04-22T14:47:43.999Z</time></trkpt><trkpt lat="36.90374923158172" lon="-3.302486866801693"><ele>853.0</ele><time>2026-04-22T14:47:44.999Z</time></trkpt><trkpt lat="36.90362489027275" lon="-3.30244371422451"><ele>853.0</ele><time>2026-04-22T14:47:45.999Z</time></trkpt><trkpt lat="36.903495092914156" lon="-3.3024302490602757"><ele>853.0</ele><time>2026-04-22T14:47:46.999Z</time></trkpt><trkpt lat="36.90337126194357" lon="-3.302418480005432"><ele>853.0</ele><time>2026-04-22T14:47:47.999Z</time></trkpt><trkpt lat="36.90325032856244" lon="-3.3024101599775064"><ele>850.0</ele><time>2026-04-22T14:47:48.999Z</time></trkpt><trkpt lat="36.90313110636821" lon="-3.3023970785011563"><ele>847.0</ele><time>2026-04-22T14:47:49.999Z</time></trkpt><trkpt lat="36.90301633416512" lon="-3.3023722817531445"><ele>844.0</ele><time>2026-04-22T14:47:50.999Z</time></trkpt><trkpt lat="36.90290421760802" lon="-3.3023321482548855"><ele>841.0</ele><time>2026-04-22T14:47:51.999Z</time></trkpt><trkpt lat="36.902800829931664" lon="-3.302273243202878"><ele>839.1999999999999</ele><time>2026-04-22T14:47:52.999Z</time></trkpt><trkpt lat="36.90269783620492" lon="-3.3022239820558945"><ele>837.4</ele><time>2026-04-22T14:47:53.999Z</time></trkpt><trkpt lat="36.90259487552949" lon="-3.3021828227223478"><ele>835.6</ele><time>2026-04-22T14:47:54.999Z</time></trkpt><trkpt lat="36.90247181062123" lon="-3.302225664059744"><ele>833.8</ele><time>2026-04-22T14:47:55.999Z</time></trkpt><trkpt lat="36.90241229168498" lon="-3.3023106544929655"><ele>832.0</ele><time>2026-04-22T14:47:56.999Z</time></trkpt><trkpt lat="36.902348484782" lon="-3.3024299748088377"><ele>832.0</ele><time>2026-04-22T14:47:57.999Z</time></trkpt><trkpt lat="36.90231182484965" lon="-3.30259353876107"><ele>832.0</ele><time>2026-04-22T14:47:58.998Z</time></trkpt><trkpt lat="36.902276830715245" lon="-3.3027575354615366"><ele>832.0</ele><time>2026-04-22T14:47:59.998Z</time></trkpt><trkpt lat="36.902232967794625" lon="-3.3029102337784173"><ele>832.0</ele><time>2026-04-22T14:48:00.998Z</time></trkpt><trkpt lat="36.902185640570664" lon="-3.303062060841887"><ele>833.0</ele><time>2026-04-22T14:48:01.998Z</time></trkpt><trkpt lat="36.902139727654976" lon="-3.3032081456526066"><ele>834.0</ele><time>2026-04-22T14:48:02.998Z</time></trkpt><trkpt lat="36.90209272652774" lon="-3.303355571476572"><ele>835.0</ele><time>2026-04-22T14:48:03.998Z</time></trkpt><trkpt lat="36.90204921861033" lon="-3.303502528141133"><ele>836.0</ele><time>2026-04-22T14:48:04.998Z</time></trkpt><trkpt lat="36.902001765881245" lon="-3.303651413760066"><ele>836.0</ele><time>2026-04-22T14:48:05.998Z</time></trkpt><trkpt lat="36.901953604823056" lon="-3.3038060975685637"><ele>836.0</ele><time>2026-04-22T14:48:06.998Z</time></trkpt><trkpt lat="36.90191195661853" lon="-3.303959883928785"><ele>836.0</ele><time>2026-04-22T14:48:07.998Z</time></trkpt><trkpt lat="36.90186707158641" lon="-3.304108718503148"><ele>836.0</ele><time>2026-04-22T14:48:08.999Z</time></trkpt><trkpt lat="36.90179648781181" lon="-3.304248111160556"><ele>831.75</ele><time>2026-04-22T14:48:09.999Z</time></trkpt><trkpt lat="36.901690571087194" lon="-3.3043746888365226"><ele>827.5</ele><time>2026-04-22T14:48:10.999Z</time></trkpt><trkpt lat="36.9015494139642" lon="-3.304454584312078"><ele>823.25</ele><time>2026-04-22T14:48:11.999Z</time></trkpt><trkpt lat="36.901416816802225" lon="-3.304504581614376"><ele>819.0</ele><time>2026-04-22T14:48:12.999Z</time></trkpt><trkpt lat="36.901295983288016" lon="-3.3045710694453456"><ele>819.0</ele><time>2026-04-22T14:48:13.999Z</time></trkpt><trkpt lat="36.90120368220397" lon="-3.30467811519967"><ele>819.0</ele><time>2026-04-22T14:48:14.999Z</time></trkpt><trkpt lat="36.9011336872006" lon="-3.3048148770234627"><ele>819.0</ele><time>2026-04-22T14:48:15.999Z</time></trkpt><trkpt lat="36.901070738871105" lon="-3.30494504974038"><ele>819.0</ele><time>2026-04-22T14:48:16.999Z</time></trkpt><trkpt lat="36.90098089407908" lon="-3.305047123512084"><ele>816.25</ele><time>2026-04-22T14:48:17.999Z</time></trkpt><trkpt lat="36.900869975808405" lon="-3.3051291489450154"><ele>813.5</ele><time>2026-04-22T14:48:18.999Z</time></trkpt><trkpt lat="36.90074298114" lon="-3.305199910005585"><ele>810.75</ele><time>2026-04-22T14:48:19.999Z</time></trkpt><trkpt lat="36.90062984443728" lon="-3.305304319669954"><ele>808.0</ele><time>2026-04-22T14:48:20.999Z</time></trkpt><trkpt lat="36.90057575685241" lon="-3.3054678307323404"><ele>806.75</ele><time>2026-04-22T14:48:21.999Z</time></trkpt><trkpt lat="36.900572812263064" lon="-3.305671557719823"><ele>805.5</ele><time>2026-04-22T14:48:22.999Z</time></trkpt><trkpt lat="36.900580299028604" lon="-3.3058694467844907"><ele>804.25</ele><time>2026-04-22T14:48:23.999Z</time></trkpt><trkpt lat="36.90056921977793" lon="-3.306027644592998"><ele>803.0</ele><time>2026-04-22T14:48:24.999Z</time></trkpt><trkpt lat="36.90053190725463" lon="-3.3061767536224402"><ele>803.0</ele><time>2026-04-22T14:48:25.999Z</time></trkpt><trkpt lat="36.90047034983565" lon="-3.306327599790861"><ele>803.0</ele><time>2026-04-22T14:48:26.999Z</time></trkpt><trkpt lat="36.90039910304948" lon="-3.3064819153305502"><ele>803.0</ele><time>2026-04-22T14:48:27.999Z</time></trkpt><trkpt lat="36.900324469561156" lon="-3.306650190505677"><ele>803.0</ele><time>2026-04-22T14:48:28.999Z</time></trkpt><trkpt lat="36.900257627693726" lon="-3.306813860983875"><ele>802.75</ele><time>2026-04-22T14:48:29.999Z</time></trkpt><trkpt lat="36.90019423660631" lon="-3.306966352258724"><ele>802.5</ele><time>2026-04-22T14:48:30.999Z</time></trkpt><trkpt lat="36.900128472534355" lon="-3.3070964538397285"><ele>802.25</ele><time>2026-04-22T14:48:31.999Z</time></trkpt><trkpt lat="36.90004371342855" lon="-3.3071924162374526"><ele>802.0</ele><time>2026-04-22T14:48:32.999Z</time></trkpt><trkpt lat="36.899924909828606" lon="-3.307241843239817"><ele>802.0</ele><time>2026-04-22T14:48:33.999Z</time></trkpt><trkpt lat="36.899802541280785" lon="-3.3072324671836673"><ele>802.0</ele><time>2026-04-22T14:48:34.999Z</time></trkpt><trkpt lat="36.89967964449003" lon="-3.307191349435245"><ele>802.0</ele><time>2026-04-22T14:48:35.999Z</time></trkpt><trkpt lat="36.89956372419267" lon="-3.3071110067882943"><ele>802.0</ele><time>2026-04-22T14:48:36.999Z</time></trkpt><trkpt lat="36.8994604133453" lon="-3.3070200811432158"><ele>802.0</ele><time>2026-04-22T14:48:37.999Z</time></trkpt><trkpt lat="36.8993678106601" lon="-3.306893019740856"><ele>802.0</ele><time>2026-04-22T14:48:38.999Z</time></trkpt><trkpt lat="36.89929288148908" lon="-3.306736976716263"><ele>802.0</ele><time>2026-04-22T14:48:39.999Z</time></trkpt><trkpt lat="36.899217743308895" lon="-3.3065754261349505"><ele>802.0</ele><time>2026-04-22T14:48:40.999Z</time></trkpt><trkpt lat="36.89914325284178" lon="-3.3064080040381922"><ele>800.0</ele><time>2026-04-22T14:48:41.999Z</time></trkpt><trkpt lat="36.8990618316119" lon="-3.3062181688391554"><ele>798.0</ele><time>2026-04-22T14:48:42.999Z</time></trkpt><trkpt lat="36.89897348915179" lon="-3.306001434913359"><ele>796.0</ele><time>2026-04-22T14:48:43.999Z</time></trkpt><trkpt lat="36.8988859315687" lon="-3.3057792936351498"><ele>796.0</ele><time>2026-04-22T14:48:44.999Z</time></trkpt><trkpt lat="36.89881429754251" lon="-3.3055962010821776"><ele>796.0</ele><time>2026-04-22T14:48:45.999Z</time></trkpt><trkpt lat="36.89874210359732" lon="-3.3054174613308502"><ele>796.0</ele><time>2026-04-22T14:48:46.999Z</time></trkpt><trkpt lat="36.89867209934605" lon="-3.305248657667474"><ele>798.3333333333333</ele><time>2026-04-22T14:48:47.999Z</time></trkpt><trkpt lat="36.89860528742166" lon="-3.305082585755873"><ele>800.6666666666667</ele><time>2026-04-22T14:48:48.999Z</time></trkpt><trkpt lat="36.89855109841086" lon="-3.304895915659015"><ele>803.0</ele><time>2026-04-22T14:48:49.999Z</time></trkpt><trkpt lat="36.898511645693546" lon="-3.304694658523689"><ele>803.0</ele><time>2026-04-22T14:48:50.999Z</time></trkpt><trkpt lat="36.8984774786635" lon="-3.304491924872312"><ele>803.0</ele><time>2026-04-22T14:48:51.999Z</time></trkpt><trkpt lat="36.8984500154362" lon="-3.3042974441686415"><ele>803.0</ele><time>2026-04-22T14:48:52.999Z</time></trkpt><trkpt lat="36.898427172437145" lon="-3.3040989700784156"><ele>802.75</ele><time>2026-04-22T14:48:53.999Z</time></trkpt><trkpt lat="36.8984197253048" lon="-3.3039080354838606"><ele>802.5</ele><time>2026-04-22T14:48:54.999Z</time></trkpt><trkpt lat="36.89843445961657" lon="-3.303733191294088"><ele>802.25</ele><time>2026-04-22T14:48:55.999Z</time></trkpt><trkpt lat="36.898460019527626" lon="-3.303585248871316"><ele>802.0</ele><time>2026-04-22T14:48:56.999Z</time></trkpt><trkpt lat="36.89847858341991" lon="-3.30346348510928"><ele>802.0</ele><time>2026-04-22T14:48:57.999Z</time></trkpt><trkpt lat="36.89848240207696" lon="-3.303351377534602"><ele>802.0</ele><time>2026-04-22T14:48:58.999Z</time></trkpt><trkpt lat="36.898423453953356" lon="-3.303262221586921"><ele>802.0</ele><time>2026-04-22T14:48:59.999Z</time></trkpt><trkpt lat="36.89833218694665" lon="-3.303229427231469"><ele>802.0</ele><time>2026-04-22T14:49:00.999Z</time></trkpt><trkpt lat="36.898229657093225" lon="-3.3032774611030375"><ele>802.0</ele><time>2026-04-22T14:49:01.999Z</time></trkpt><trkpt lat="36.89817953024233" lon="-3.3033940597920655"><ele>793.75</ele><time>2026-04-22T14:49:02.999Z</time></trkpt><trkpt lat="36.898204424794216" lon="-3.303529105514954"><ele>785.5</ele><time>2026-04-22T14:49:03.999Z</time></trkpt><trkpt lat="36.898266382382495" lon="-3.3037138393727625"><ele>777.25</ele><time>2026-04-22T14:49:04.999Z</time></trkpt><trkpt lat="36.89827278601671" lon="-3.3038773920075344"><ele>769.0</ele><time>2026-04-22T14:49:05.999Z</time></trkpt><trkpt lat="36.89825021914927" lon="-3.3040396906675493"><ele>768.5</ele><time>2026-04-22T14:49:06.999Z</time></trkpt><trkpt lat="36.898237918856196" lon="-3.304211708771058"><ele>768.0</ele><time>2026-04-22T14:49:07.999Z</time></trkpt><trkpt lat="36.89821922767306" lon="-3.3043910277838897"><ele>767.5</ele><time>2026-04-22T14:49:08.999Z</time></trkpt><trkpt lat="36.89818910597131" lon="-3.3045588123847507"><ele>767.0</ele><time>2026-04-22T14:49:09.999Z</time></trkpt><trkpt lat="36.89814450615844" lon="-3.3047162964006356"><ele>766.5</ele><time>2026-04-22T14:49:10.999Z</time></trkpt><trkpt lat="36.89809365476472" lon="-3.3048646177849053"><ele>766.0</ele><time>2026-04-22T14:49:11.999Z</time></trkpt><trkpt lat="36.898047096124586" lon="-3.3050119039975985"><ele>765.5</ele><time>2026-04-22T14:49:12.999Z</time></trkpt><trkpt lat="36.89800967679173" lon="-3.305160373390355"><ele>765.0</ele><time>2026-04-22T14:49:13.999Z</time></trkpt><trkpt lat="36.89799589223316" lon="-3.305314056735698"><ele>765.0</ele><time>2026-04-22T14:49:14.999Z</time></trkpt><trkpt lat="36.89804220403758" lon="-3.3054592326976415"><ele>765.0</ele><time>2026-04-22T14:49:15.999Z</time></trkpt><trkpt lat="36.89814130776007" lon="-3.3056173950134333"><ele>765.0</ele><time>2026-04-22T14:49:16.999Z</time></trkpt><trkpt lat="36.89824424963294" lon="-3.3057978487630315"><ele>762.25</ele><time>2026-04-22T14:49:17.999Z</time></trkpt><trkpt lat="36.89830943589324" lon="-3.305971784609907"><ele>759.5</ele><time>2026-04-22T14:49:18.999Z</time></trkpt><trkpt lat="36.89833164186093" lon="-3.3061501494770225"><ele>756.75</ele><time>2026-04-22T14:49:19.999Z</time></trkpt><trkpt lat="36.89832701516844" lon="-3.3063302791528093"><ele>754.0</ele><time>2026-04-22T14:49:20.999Z</time></trkpt><trkpt lat="36.89829721868823" lon="-3.3064960743468186"><ele>752.2</ele><time>2026-04-22T14:49:21.999Z</time></trkpt><trkpt lat="36.89824466832153" lon="-3.3066358943481573"><ele>750.4000000000001</ele><time>2026-04-22T14:49:22.999Z</time></trkpt><trkpt lat="36.89821259056069" lon="-3.3067430169363083"><ele>748.6</ele><time>2026-04-22T14:49:23.999Z</time></trkpt><trkpt lat="36.89823047138712" lon="-3.306855819946074"><ele>746.8</ele><time>2026-04-22T14:49:24.999Z</time></trkpt><trkpt lat="36.89830986488351" lon="-3.3069478834934545"><ele>745.0</ele><time>2026-04-22T14:49:25.999Z</time></trkpt><trkpt lat="36.89846274172563" lon="-3.3069781849659496"><ele>747.75</ele><time>2026-04-22T14:49:26.999Z</time></trkpt><trkpt lat="36.89856709679549" lon="-3.3070413955877"><ele>750.5</ele><time>2026-04-22T14:49:27.999Z</time></trkpt><trkpt lat="36.89866902314405" lon="-3.3071170070758193"><ele>753.25</ele><time>2026-04-22T14:49:28.999Z</time></trkpt><trkpt lat="36.89877583720821" lon="-3.30720571802127"><ele>756.0</ele><time>2026-04-22T14:49:29.999Z</time></trkpt><trkpt lat="36.89886679500977" lon="-3.3072947305934206"><ele>756.0</ele><time>2026-04-22T14:49:30.999Z</time></trkpt><trkpt lat="36.89893244633973" lon="-3.3073922679418315"><ele>756.0</ele><time>2026-04-22T14:49:31.999Z</time></trkpt><trkpt lat="36.89894899403993" lon="-3.307522711937445"><ele>756.0</ele><time>2026-04-22T14:49:32.999Z</time></trkpt><trkpt lat="36.89892146692631" lon="-3.3076444801914238"><ele>756.0</ele><time>2026-04-22T14:49:33.999Z</time></trkpt><trkpt lat="36.8988416725977" lon="-3.3077393890217586"><ele>756.0</ele><time>2026-04-22T14:49:34.999Z</time></trkpt><trkpt lat="36.89872765064116" lon="-3.3077835588208853"><ele>756.0</ele><time>2026-04-22T14:49:35.999Z</time></trkpt><trkpt lat="36.898596672349356" lon="-3.307793085571335"><ele>756.0</ele><time>2026-04-22T14:49:36.999Z</time></trkpt><trkpt lat="36.89848158825382" lon="-3.3078915028597695"><ele>756.0</ele><time>2026-04-22T14:49:37.999Z</time></trkpt><trkpt lat="36.898403622736225" lon="-3.308038748347926"><ele>756.0</ele><time>2026-04-22T14:49:38.999Z</time></trkpt><trkpt lat="36.898320962794145" lon="-3.3081601498964996"><ele>750.0</ele><time>2026-04-22T14:49:39.999Z</time></trkpt><trkpt lat="36.89819052843187" lon="-3.3081928098585336"><ele>744.0</ele><time>2026-04-22T14:49:40.999Z</time></trkpt><trkpt lat="36.89806366937975" lon="-3.308180198564826"><ele>738.0</ele><time>2026-04-22T14:49:41.999Z</time></trkpt><trkpt lat="36.897964126126695" lon="-3.3081976379915385"><ele>732.0</ele><time>2026-04-22T14:49:42.999Z</time></trkpt><trkpt lat="36.897877534675004" lon="-3.308277602227719"><ele>732.0</ele><time>2026-04-22T14:49:43.999Z</time></trkpt><trkpt lat="36.89781402103169" lon="-3.308404297771593"><ele>732.0</ele><time>2026-04-22T14:49:44.999Z</time></trkpt><trkpt lat="36.89777500751869" lon="-3.3085595982490124"><ele>732.0</ele><time>2026-04-22T14:49:45.999Z</time></trkpt><trkpt lat="36.8977298078226" lon="-3.3087002140701984"><ele>732.0</ele><time>2026-04-22T14:49:46.999Z</time></trkpt><trkpt lat="36.89770409335505" lon="-3.3088495945036587"><ele>733.5</ele><time>2026-04-22T14:49:47.999Z</time></trkpt><trkpt lat="36.89768919641845" lon="-3.3089868684065005"><ele>735.0</ele><time>2026-04-22T14:49:48.999Z</time></trkpt><trkpt lat="36.89769621751321" lon="-3.3091258231185376"><ele>736.5</ele><time>2026-04-22T14:49:49.999Z</time></trkpt><trkpt lat="36.89773323078081" lon="-3.3092807395176305"><ele>738.0</ele><time>2026-04-22T14:49:50.999Z</time></trkpt><trkpt lat="36.897782107944906" lon="-3.309435869424363"><ele>738.0</ele><time>2026-04-22T14:49:51.999Z</time></trkpt><trkpt lat="36.897786083954195" lon="-3.3096032266607853"><ele>738.0</ele><time>2026-04-22T14:49:52.999Z</time></trkpt><trkpt lat="36.89776928025413" lon="-3.309755806105902"><ele>738.0</ele><time>2026-04-22T14:49:53.999Z</time></trkpt><trkpt lat="36.897764967820066" lon="-3.309895058926619"><ele>738.0</ele><time>2026-04-22T14:49:54.999Z</time></trkpt><trkpt lat="36.89778310278106" lon="-3.3100292558944684"><ele>737.0</ele><time>2026-04-22T14:49:55.999Z</time></trkpt><trkpt lat="36.89784477010606" lon="-3.3101491560856484"><ele>736.0</ele><time>2026-04-22T14:49:56.999Z</time></trkpt><trkpt lat="36.89793323577169" lon="-3.3102332712537548"><ele>735.0</ele><time>2026-04-22T14:49:57.999Z</time></trkpt><trkpt lat="36.897994099319334" lon="-3.3103224920162115"><ele>734.0</ele><time>2026-04-22T14:49:58.999Z</time></trkpt><trkpt lat="36.89800987189987" lon="-3.3104428582345724"><ele>733.0</ele><time>2026-04-22T14:49:59.999Z</time></trkpt><trkpt lat="36.89797184577674" lon="-3.3105650519279677"><ele>732.5</ele><time>2026-04-22T14:50:00.999Z</time></trkpt><trkpt lat="36.897906197441316" lon="-3.3106615867261096"><ele>732.0</ele><time>2026-04-22T14:50:01.999Z</time></trkpt><trkpt lat="36.897783542873036" lon="-3.3107122748253315"><ele>731.5</ele><time>2026-04-22T14:50:02.999Z</time></trkpt><trkpt lat="36.89767087518396" lon="-3.310783383784406"><ele>731.0</ele><time>2026-04-22T14:50:03.999Z</time></trkpt><trkpt lat="36.89759062393922" lon="-3.31089614326946"><ele>725.75</ele><time>2026-04-22T14:50:04.999Z</time></trkpt><trkpt lat="36.897537555527606" lon="-3.311044214316004"><ele>720.5</ele><time>2026-04-22T14:50:05.999Z</time></trkpt><trkpt lat="36.89748209583421" lon="-3.3111805421362157"><ele>715.25</ele><time>2026-04-22T14:50:06.999Z</time></trkpt><trkpt lat="36.897429179653855" lon="-3.311299643619206"><ele>710.0</ele><time>2026-04-22T14:50:07.999Z</time></trkpt><trkpt lat="36.89739729374611" lon="-3.311425135264499"><ele>710.0</ele><time>2026-04-22T14:50:08.999Z</time></trkpt><trkpt lat="36.89742581117614" lon="-3.3115569006074175"><ele>710.0</ele><time>2026-04-22T14:50:09.999Z</time></trkpt><trkpt lat="36.89741443567053" lon="-3.3116908268769105"><ele>710.0</ele><time>2026-04-22T14:50:10.999Z</time></trkpt><trkpt lat="36.8973170729143" lon="-3.311866790447835"><ele>710.0</ele><time>2026-04-22T14:50:11.999Z</time></trkpt><trkpt lat="36.89707088794886" lon="-3.3118980003085308"><ele>710.0</ele><time>2026-04-22T14:50:12.999Z</time></trkpt><trkpt lat="36.89720192946724" lon="-3.3119455875154222"><ele>710.0</ele><time>2026-04-22T14:50:13.999Z</time></trkpt><trkpt lat="36.89705115026701" lon="-3.3119281187317355"><ele>710.0</ele><time>2026-04-22T14:50:14.999Z</time></trkpt><trkpt lat="36.89690613466428" lon="-3.3118931920588395"><ele>710.0</ele><time>2026-04-22T14:50:15.999Z</time></trkpt><trkpt lat="36.89678562676345" lon="-3.311883443914758"><ele>707.0</ele><time>2026-04-22T14:50:16.999Z</time></trkpt><trkpt lat="36.896704906541245" lon="-3.3119660285375767"><ele>704.0</ele><time>2026-04-22T14:50:17.999Z</time></trkpt><trkpt lat="36.896641783089905" lon="-3.312055284714179"><ele>701.0</ele><time>2026-04-22T14:50:18.999Z</time></trkpt><trkpt lat="36.89655205875074" lon="-3.3121856732994615"><ele>698.0</ele><time>2026-04-22T14:50:19.999Z</time></trkpt><trkpt lat="36.896478447826944" lon="-3.3123450975274356"><ele>698.0</ele><time>2026-04-22T14:50:20.999Z</time></trkpt><trkpt lat="36.89640322951532" lon="-3.3125076844310715"><ele>698.0</ele><time>2026-04-22T14:50:21.999Z</time></trkpt><trkpt lat="36.896330498499566" lon="-3.312657108950837"><ele>698.0</ele><time>2026-04-22T14:50:22.999Z</time></trkpt><trkpt lat="36.89627154157146" lon="-3.312813393896672"><ele>698.0</ele><time>2026-04-22T14:50:23.999Z</time></trkpt><trkpt lat="36.89624397282643" lon="-3.3129935449078713"><ele>699.5</ele><time>2026-04-22T14:50:24.999Z</time></trkpt><trkpt lat="36.89627511876412" lon="-3.3131791558249"><ele>701.0</ele><time>2026-04-22T14:50:25.999Z</time></trkpt><trkpt lat="36.89630689089002" lon="-3.3133554482048777"><ele>702.5</ele><time>2026-04-22T14:50:26.999Z</time></trkpt><trkpt lat="36.89632611385098" lon="-3.3134978613039237"><ele>704.0</ele><time>2026-04-22T14:50:27.999Z</time></trkpt><trkpt lat="36.896332813303" lon="-3.313628271781278"><ele>704.0</ele><time>2026-04-22T14:50:28.999Z</time></trkpt><trkpt lat="36.89628140811481" lon="-3.3137467927413664"><ele>704.0</ele><time>2026-04-22T14:50:29.999Z</time></trkpt><trkpt lat="36.89618452311287" lon="-3.3138435350416375"><ele>704.0</ele><time>2026-04-22T14:50:30.999Z</time></trkpt><trkpt lat="36.89605388236949" lon="-3.3138649033484335"><ele>704.0</ele><time>2026-04-22T14:50:31.999Z</time></trkpt><trkpt lat="36.89592125801613" lon="-3.3137888792126775"><ele>697.5</ele><time>2026-04-22T14:50:32.999Z</time></trkpt><trkpt lat="36.895800577155775" lon="-3.3136568962118464"><ele>691.0</ele><time>2026-04-22T14:50:33.999Z</time></trkpt><trkpt lat="36.89567649686703" lon="-3.313579485972343"><ele>684.5</ele><time>2026-04-22T14:50:34.999Z</time></trkpt><trkpt lat="36.895555480837444" lon="-3.313619185663048"><ele>678.0</ele><time>2026-04-22T14:50:35.999Z</time></trkpt><trkpt lat="36.89543462099527" lon="-3.3137184445527343"><ele>678.0</ele><time>2026-04-22T14:50:36.999Z</time></trkpt><trkpt lat="36.895276572099796" lon="-3.313807509379368"><ele>678.0</ele><time>2026-04-22T14:50:37.999Z</time></trkpt><trkpt lat="36.89514773480295" lon="-3.31388195074991"><ele>678.0</ele><time>2026-04-22T14:50:38.999Z</time></trkpt><trkpt lat="36.89502778225535" lon="-3.3139404973298743"><ele>678.0</ele><time>2026-04-22T14:50:39.999Z</time></trkpt><trkpt lat="36.894907340669796" lon="-3.313971908470371"><ele>677.75</ele><time>2026-04-22T14:50:40.999Z</time></trkpt><trkpt lat="36.89479443420728" lon="-3.313991836325255"><ele>677.5</ele><time>2026-04-22T14:50:41.999Z</time></trkpt><trkpt lat="36.89468659067772" lon="-3.314019752530039"><ele>677.25</ele><time>2026-04-22T14:50:42.999Z</time></trkpt><trkpt lat="36.89460202004635" lon="-3.314125087631425"><ele>677.0</ele><time>2026-04-22T14:50:43.999Z</time></trkpt><trkpt lat="36.89452885971453" lon="-3.3142779844055203"><ele>677.0</ele><time>2026-04-22T14:50:44.999Z</time></trkpt><trkpt lat="36.89445969835027" lon="-3.3144392540549386"><ele>677.0</ele><time>2026-04-22T14:50:45.999Z</time></trkpt><trkpt lat="36.89443694893417" lon="-3.3145882566775486"><ele>677.0</ele><time>2026-04-22T14:50:46.999Z</time></trkpt><trkpt lat="36.8944084054586" lon="-3.314707856114225"><ele>677.0</ele><time>2026-04-22T14:50:47.999Z</time></trkpt><trkpt lat="36.89432528434833" lon="-3.3147758043054165"><ele>673.75</ele><time>2026-04-22T14:50:48.999Z</time></trkpt><trkpt lat="36.89420445703997" lon="-3.314765191982238"><ele>670.5</ele><time>2026-04-22T14:50:49.999Z</time></trkpt><trkpt lat="36.89410531442732" lon="-3.3146718389874317"><ele>667.25</ele><time>2026-04-22T14:50:50.999Z</time></trkpt><trkpt lat="36.894046698559585" lon="-3.314539835112721"><ele>664.0</ele><time>2026-04-22T14:50:51.999Z</time></trkpt><trkpt lat="36.89409281460958" lon="-3.3143459290146877"><ele>664.3333333333334</ele><time>2026-04-22T14:50:52.999Z</time></trkpt><trkpt lat="36.89417652939393" lon="-3.314134199830535"><ele>664.6666666666666</ele><time>2026-04-22T14:50:53.999Z</time></trkpt><trkpt lat="36.894228886454734" lon="-3.313870197575693"><ele>665.0</ele><time>2026-04-22T14:50:54.999Z</time></trkpt><trkpt lat="36.89432074866187" lon="-3.31361088095151"><ele>665.0</ele><time>2026-04-22T14:50:55.999Z</time></trkpt><trkpt lat="36.89438988466506" lon="-3.313399350966136"><ele>665.0</ele><time>2026-04-22T14:50:56.999Z</time></trkpt><trkpt lat="36.894459030244775" lon="-3.3132201663084073"><ele>665.0</ele><time>2026-04-22T14:50:57.999Z</time></trkpt><trkpt lat="36.89453439367761" lon="-3.3130661901509217"><ele>659.0</ele><time>2026-04-22T14:50:58.999Z</time></trkpt><trkpt lat="36.89464329787677" lon="-3.3129309398686764"><ele>653.0</ele><time>2026-04-22T14:50:59.999Z</time></trkpt><trkpt lat="36.894802863539915" lon="-3.3128178387202762"><ele>647.0</ele><time>2026-04-22T14:51:00.999Z</time></trkpt><trkpt lat="36.894912284429346" lon="-3.312624075682611"><ele>647.0</ele><time>2026-04-22T14:51:01.999Z</time></trkpt><trkpt lat="36.89498671927012" lon="-3.312421633630037"><ele>647.0</ele><time>2026-04-22T14:51:02.999Z</time></trkpt><trkpt lat="36.8950677515206" lon="-3.3122479854662132"><ele>647.0</ele><time>2026-04-22T14:51:03.999Z</time></trkpt><trkpt lat="36.89517109894356" lon="-3.3121158043372043"><ele>651.0</ele><time>2026-04-22T14:51:04.999Z</time></trkpt><trkpt lat="36.89532715266174" lon="-3.3119936317737695"><ele>655.0</ele><time>2026-04-22T14:51:05.999Z</time></trkpt><trkpt lat="36.895404137780844" lon="-3.311793875992309"><ele>659.0</ele><time>2026-04-22T14:51:06.999Z</time></trkpt><trkpt lat="36.89550121981231" lon="-3.3115976087453043"><ele>659.0</ele><time>2026-04-22T14:51:07.999Z</time></trkpt><trkpt lat="36.89559685679031" lon="-3.3114674274898657"><ele>659.0</ele><time>2026-04-22T14:51:08.999Z</time></trkpt><trkpt lat="36.895634077088246" lon="-3.311338191144437"><ele>659.0</ele><time>2026-04-22T14:51:09.999Z</time></trkpt><trkpt lat="36.89562789766457" lon="-3.311222147339268"><ele>659.0</ele><time>2026-04-22T14:51:10.999Z</time></trkpt><trkpt lat="36.895534069854335" lon="-3.311140365053251"><ele>657.75</ele><time>2026-04-22T14:51:11.999Z</time></trkpt><trkpt lat="36.89544238741429" lon="-3.3110110519478004"><ele>656.5</ele><time>2026-04-22T14:51:12.999Z</time></trkpt><trkpt lat="36.89534157406374" lon="-3.3109936579680856"><ele>655.25</ele><time>2026-04-22T14:51:13.999Z</time></trkpt><trkpt lat="36.89522778704092" lon="-3.3110560643533673"><ele>654.0</ele><time>2026-04-22T14:51:14.999Z</time></trkpt><trkpt lat="36.89507282021955" lon="-3.3110551042176137"><ele>649.6</ele><time>2026-04-22T14:51:15.999Z</time></trkpt><trkpt lat="36.894983920738795" lon="-3.31105189241214"><ele>645.2</ele><time>2026-04-22T14:51:16.999Z</time></trkpt><trkpt lat="36.89489591161754" lon="-3.3109888150430598"><ele>640.8000000000001</ele><time>2026-04-22T14:51:17.999Z</time></trkpt><trkpt lat="36.894823709006786" lon="-3.3108871945373557"><ele>636.4000000000001</ele><time>2026-04-22T14:51:18.999Z</time></trkpt><trkpt lat="36.89478960178303" lon="-3.310749750686147"><ele>632.0</ele><time>2026-04-22T14:51:19.999Z</time></trkpt><trkpt lat="36.894794040202164" lon="-3.310586742037336"><ele>634.0</ele><time>2026-04-22T14:51:20.999Z</time></trkpt><trkpt lat="36.89482100331826" lon="-3.31044418052685"><ele>636.0</ele><time>2026-04-22T14:51:21.999Z</time></trkpt><trkpt lat="36.89486668661989" lon="-3.3103112764645575"><ele>638.0</ele><time>2026-04-22T14:51:22.999Z</time></trkpt><trkpt lat="36.894878634092656" lon="-3.3101833424386435"><ele>640.0</ele><time>2026-04-22T14:51:23.999Z</time></trkpt><trkpt lat="36.89483785417677" lon="-3.3100654079395797"><ele>642.0</ele><time>2026-04-22T14:51:24.999Z</time></trkpt><trkpt lat="36.89475848985856" lon="-3.3099854753844475"><ele>642.0</ele><time>2026-04-22T14:51:25.999Z</time></trkpt><trkpt lat="36.89466631745137" lon="-3.309931738568689"><ele>642.0</ele><time>2026-04-22T14:51:26.999Z</time></trkpt><trkpt lat="36.89456067179286" lon="-3.3099055200632335"><ele>642.0</ele><time>2026-04-22T14:51:27.999Z</time></trkpt><trkpt lat="36.89445447886459" lon="-3.3098832308335884"><ele>642.0</ele><time>2026-04-22T14:51:28.999Z</time></trkpt><trkpt lat="36.89435259315127" lon="-3.3098734123998153"><ele>642.0</ele><time>2026-04-22T14:51:29.999Z</time></trkpt><trkpt lat="36.89426508853234" lon="-3.309810681084211"><ele>637.8000000000001</ele><time>2026-04-22T14:51:30.999Z</time></trkpt><trkpt lat="36.89420973023324" lon="-3.3096807890441857"><ele>633.6</ele><time>2026-04-22T14:51:31.999Z</time></trkpt><trkpt lat="36.89417101143407" lon="-3.309551044663265"><ele>629.4000000000001</ele><time>2026-04-22T14:51:32.999Z</time></trkpt><trkpt lat="36.894115818653304" lon="-3.3094369465635314"><ele>625.2</ele><time>2026-04-22T14:51:33.999Z</time></trkpt><trkpt lat="36.89409961661626" lon="-3.309311516689776"><ele>621.0</ele><time>2026-04-22T14:51:34.999Z</time></trkpt><trkpt lat="36.89410439664797" lon="-3.309177578726365"><ele>621.0</ele><time>2026-04-22T14:51:35.999Z</time></trkpt><trkpt lat="36.89415017263539" lon="-3.3090377407749947"><ele>621.0</ele><time>2026-04-22T14:51:36.999Z</time></trkpt><trkpt lat="36.89416924238754" lon="-3.30889828109136"><ele>621.0</ele><time>2026-04-22T14:51:37.999Z</time></trkpt><trkpt lat="36.894187618729866" lon="-3.308769525971334"><ele>621.0</ele><time>2026-04-22T14:51:38.999Z</time></trkpt><trkpt lat="36.89422646278223" lon="-3.3086624716263238"><ele>621.0</ele><time>2026-04-22T14:51:39.999Z</time></trkpt><trkpt lat="36.894278310118004" lon="-3.30857278203542"><ele>624.25</ele><time>2026-04-22T14:51:40.999Z</time></trkpt><trkpt lat="36.89437164349749" lon="-3.3085223575009266"><ele>627.5</ele><time>2026-04-22T14:51:41.999Z</time></trkpt><trkpt lat="36.89450534110702" lon="-3.3085061147256742"><ele>630.75</ele><time>2026-04-22T14:51:42.999Z</time></trkpt><trkpt lat="36.89462777106157" lon="-3.308463500222125"><ele>634.0</ele><time>2026-04-22T14:51:43.999Z</time></trkpt><trkpt lat="36.894709720693484" lon="-3.3083989704340784"><ele>634.0</ele><time>2026-04-22T14:51:44.999Z</time></trkpt><trkpt lat="36.89473320554057" lon="-3.3082820760269933"><ele>634.0</ele><time>2026-04-22T14:51:45.999Z</time></trkpt><trkpt lat="36.89470954006504" lon="-3.3081305781787838"><ele>634.0</ele><time>2026-04-22T14:51:46.999Z</time></trkpt><trkpt lat="36.894740043353586" lon="-3.3079807621432917"><ele>634.0</ele><time>2026-04-22T14:51:47.999Z</time></trkpt><trkpt lat="36.89474189472969" lon="-3.307851095520304"><ele>634.0</ele><time>2026-04-22T14:51:48.999Z</time></trkpt><trkpt lat="36.894741325980036" lon="-3.307729384069224"><ele>635.2</ele><time>2026-04-22T14:51:49.999Z</time></trkpt><trkpt lat="36.89468942667384" lon="-3.3076321440350607"><ele>636.4</ele><time>2026-04-22T14:51:50.999Z</time></trkpt><trkpt lat="36.89459878347194" lon="-3.3075975994053324"><ele>637.6</ele><time>2026-04-22T14:51:51.999Z</time></trkpt><trkpt lat="36.894479160612995" lon="-3.3075538343005753"><ele>638.8</ele><time>2026-04-22T14:51:52.999Z</time></trkpt><trkpt lat="36.8943556893305" lon="-3.3075008119119205"><ele>640.0</ele><time>2026-04-22T14:51:53.999Z</time></trkpt><trkpt lat="36.894245793012374" lon="-3.3074573863304924"><ele>633.25</ele><time>2026-04-22T14:51:54.999Z</time></trkpt><trkpt lat="36.89414410407422" lon="-3.3074341841101593"><ele>626.5</ele><time>2026-04-22T14:51:55.999Z</time></trkpt><trkpt lat="36.89403789451625" lon="-3.30746951839027"><ele>619.75</ele><time>2026-04-22T14:51:56.999Z</time></trkpt><trkpt lat="36.89395747482169" lon="-3.307572964124444"><ele>613.0</ele><time>2026-04-22T14:51:57.999Z</time></trkpt><trkpt lat="36.8938730535372" lon="-3.307688945251418"><ele>613.0</ele><time>2026-04-22T14:51:58.999Z</time></trkpt><trkpt lat="36.89379447560776" lon="-3.3077721627363212"><ele>613.0</ele><time>2026-04-22T14:51:59.999Z</time></trkpt><trkpt lat="36.89369621776975" lon="-3.3077944133097548"><ele>613.0</ele><time>2026-04-22T14:52:00.999Z</time></trkpt><trkpt lat="36.893598245533035" lon="-3.3077671521758103"><ele>613.0</ele><time>2026-04-22T14:52:01.999Z</time></trkpt><trkpt lat="36.89351128826926" lon="-3.3077114679505133"><ele>613.0</ele><time>2026-04-22T14:52:02.999Z</time></trkpt><trkpt lat="36.89348272630369" lon="-3.307559847149396"><ele>613.0</ele><time>2026-04-22T14:52:03.999Z</time></trkpt><trkpt lat="36.89351664363518" lon="-3.3073898555167887"><ele>613.0</ele><time>2026-04-22T14:52:04.999Z</time></trkpt><trkpt lat="36.89353249547419" lon="-3.30720936054299"><ele>613.0</ele><time>2026-04-22T14:52:05.999Z</time></trkpt><trkpt lat="36.89355586763227" lon="-3.3070272524283095"><ele>613.0</ele><time>2026-04-22T14:52:06.999Z</time></trkpt><trkpt lat="36.893586097814214" lon="-3.306880564816231"><ele>613.0</ele><time>2026-04-22T14:52:07.999Z</time></trkpt><trkpt lat="36.893655845890436" lon="-3.3067718478598533"><ele>613.0</ele><time>2026-04-22T14:52:08.999Z</time></trkpt><trkpt lat="36.89377994474339" lon="-3.3066817624363805"><ele>613.0</ele><time>2026-04-22T14:52:09.999Z</time></trkpt><trkpt lat="36.8939191631089" lon="-3.3065766880465737"><ele>613.0</ele><time>2026-04-22T14:52:10.999Z</time></trkpt><trkpt lat="36.894016879520834" lon="-3.306416863434297"><ele>608.0</ele><time>2026-04-22T14:52:11.999Z</time></trkpt><trkpt lat="36.8941062289375" lon="-3.3062530281206834"><ele>603.0</ele><time>2026-04-22T14:52:12.999Z</time></trkpt><trkpt lat="36.89417049762007" lon="-3.3061161617768113"><ele>598.0</ele><time>2026-04-22T14:52:13.999Z</time></trkpt><trkpt lat="36.89417532058809" lon="-3.305971644442044"><ele>593.0</ele><time>2026-04-22T14:52:14.999Z</time></trkpt><trkpt lat="36.89412987482825" lon="-3.305817645370338"><ele>593.0</ele><time>2026-04-22T14:52:15.999Z</time></trkpt><trkpt lat="36.894092376976" lon="-3.3056281646991486"><ele>593.0</ele><time>2026-04-22T14:52:16.999Z</time></trkpt><trkpt lat="36.89411024671902" lon="-3.3054370677281493"><ele>593.0</ele><time>2026-04-22T14:52:17.999Z</time></trkpt><trkpt lat="36.89416837025261" lon="-3.30526419908145"><ele>591.25</ele><time>2026-04-22T14:52:18.999Z</time></trkpt><trkpt lat="36.89417076929463" lon="-3.3050815777632407"><ele>589.5</ele><time>2026-04-22T14:52:19.999Z</time></trkpt><trkpt lat="36.89411899007302" lon="-3.304918191654891"><ele>587.75</ele><time>2026-04-22T14:52:20.999Z</time></trkpt><trkpt lat="36.894117531246195" lon="-3.3047581303635214"><ele>586.0</ele><time>2026-04-22T14:52:21.999Z</time></trkpt><trkpt lat="36.89416512779412" lon="-3.3045839344293912"><ele>583.5</ele><time>2026-04-22T14:52:22.999Z</time></trkpt><trkpt lat="36.89420347096081" lon="-3.3044130590489487"><ele>581.0</ele><time>2026-04-22T14:52:24Z</time></trkpt><trkpt lat="36.89424545713803" lon="-3.3042518221070596"><ele>578.5</ele><time>2026-04-22T14:52:25Z</time></trkpt><trkpt lat="36.89429774184663" lon="-3.304098442761758"><ele>576.0</ele><time>2026-04-22T14:52:26Z</time></trkpt><trkpt lat="36.89439625263758" lon="-3.3039795809394876"><ele>581.0</ele><time>2026-04-22T14:52:27Z</time></trkpt><trkpt lat="36.89450045672582" lon="-3.3038611272617957"><ele>586.0</ele><time>2026-04-22T14:52:28Z</time></trkpt><trkpt lat="36.894582471545505" lon="-3.303718550905981"><ele>591.0</ele><time>2026-04-22T14:52:29Z</time></trkpt><trkpt lat="36.89464951094716" lon="-3.3035632860738358"><ele>596.0</ele><time>2026-04-22T14:52:30Z</time></trkpt><trkpt lat="36.89469544668981" lon="-3.303389603711115"><ele>596.0</ele><time>2026-04-22T14:52:31Z</time></trkpt><trkpt lat="36.89472100097294" lon="-3.3032148880412078"><ele>596.0</ele><time>2026-04-22T14:52:32Z</time></trkpt><trkpt lat="36.89472731237257" lon="-3.3030461299128193"><ele>596.0</ele><time>2026-04-22T14:52:33Z</time></trkpt><trkpt lat="36.89469191662302" lon="-3.3029051245725047"><ele>596.0</ele><time>2026-04-22T14:52:34Z</time></trkpt><trkpt lat="36.89462697507115" lon="-3.302787563124015"><ele>595.0</ele><time>2026-04-22T14:52:35Z</time></trkpt><trkpt lat="36.89457279675573" lon="-3.302665921918032"><ele>594.0</ele><time>2026-04-22T14:52:36Z</time></trkpt><trkpt lat="36.8945396138358" lon="-3.302546238181557"><ele>593.0</ele><time>2026-04-22T14:52:37Z</time></trkpt><trkpt lat="36.89456602194364" lon="-3.302389406592495"><ele>592.0</ele><time>2026-04-22T14:52:38Z</time></trkpt><trkpt lat="36.894605503649984" lon="-3.3022296044137858"><ele>589.0</ele><time>2026-04-22T14:52:39Z</time></trkpt><trkpt lat="36.89465247094254" lon="-3.3020588666023403"><ele>586.0</ele><time>2026-04-22T14:52:40Z</time></trkpt><trkpt lat="36.894737881146106" lon="-3.3019119677738415"><ele>583.0</ele><time>2026-04-22T14:52:41Z</time></trkpt><trkpt lat="36.89478444602605" lon="-3.301743330066493"><ele>580.0</ele><time>2026-04-22T14:52:42Z</time></trkpt><trkpt lat="36.89482864052394" lon="-3.3015788879217562"><ele>580.0</ele><time>2026-04-22T14:52:43Z</time></trkpt><trkpt lat="36.89487003479241" lon="-3.3014343526098786"><ele>580.0</ele><time>2026-04-22T14:52:44Z</time></trkpt><trkpt lat="36.894910750832" lon="-3.301324170937303"><ele>580.0</ele><time>2026-04-22T14:52:45Z</time></trkpt><trkpt lat="36.89494635831432" lon="-3.3012193186634615"><ele>580.0</ele><time>2026-04-22T14:52:46Z</time></trkpt><trkpt lat="36.8949383132126" lon="-3.3011045178914333"><ele>580.0</ele><time>2026-04-22T14:52:47Z</time></trkpt><trkpt lat="36.89491521497522" lon="-3.3009884764165296"><ele>576.25</ele><time>2026-04-22T14:52:48Z</time></trkpt><trkpt lat="36.89482668994134" lon="-3.3009178794165552"><ele>572.5</ele><time>2026-04-22T14:52:49Z</time></trkpt><trkpt lat="36.8947188797303" lon="-3.300830504303974"><ele>568.75</ele><time>2026-04-22T14:52:50Z</time></trkpt><trkpt lat="36.894599674764294" lon="-3.300722654125986"><ele>565.0</ele><time>2026-04-22T14:52:51Z</time></trkpt><trkpt lat="36.89447967764345" lon="-3.300612835776718"><ele>563.3333333333334</ele><time>2026-04-22T14:52:52Z</time></trkpt><trkpt lat="36.8943631026489" lon="-3.300499336491613"><ele>561.6666666666666</ele><time>2026-04-22T14:52:53Z</time></trkpt><trkpt lat="36.89425308248928" lon="-3.300367257696867"><ele>560.0</ele><time>2026-04-22T14:52:54Z</time></trkpt><trkpt lat="36.89412588185353" lon="-3.300249717966493"><ele>560.0</ele><time>2026-04-22T14:52:55Z</time></trkpt><trkpt lat="36.89399861473353" lon="-3.30013502911224"><ele>560.0</ele><time>2026-04-22T14:52:56Z</time></trkpt><trkpt lat="36.89388830916022" lon="-3.3000454709364666"><ele>560.0</ele><time>2026-04-22T14:52:57Z</time></trkpt><trkpt lat="36.89378396724524" lon="-3.299990929748041"><ele>560.0</ele><time>2026-04-22T14:52:58Z</time></trkpt><trkpt lat="36.893695981276174" lon="-3.299976831708166"><ele>560.0</ele><time>2026-04-22T14:52:59Z</time></trkpt><trkpt lat="36.89363584232264" lon="-3.3000047992923824"><ele>560.0</ele><time>2026-04-22T14:53:00Z</time></trkpt><trkpt lat="36.893562580549485" lon="-3.300082674119217"><ele>560.0</ele><time>2026-04-22T14:53:02Z</time></trkpt><trkpt lat="36.89347402694967" lon="-3.300164843443858"><ele>560.0</ele><time>2026-04-22T14:53:04Z</time></trkpt><trkpt lat="36.89340627369093" lon="-3.300236061071806"><ele>560.0</ele><time>2026-04-22T14:53:05Z</time></trkpt><trkpt lat="36.89333362875282" lon="-3.3003382054770336"><ele>561.25</ele><time>2026-04-22T14:53:06Z</time></trkpt><trkpt lat="36.89324775977484" lon="-3.300434157137638"><ele>562.5</ele><time>2026-04-22T14:53:07Z</time></trkpt><trkpt lat="36.893148182483934" lon="-3.300543912066941"><ele>563.75</ele><time>2026-04-22T14:53:08Z</time></trkpt><trkpt lat="36.89310076263612" lon="-3.300704035755148"><ele>565.0</ele><time>2026-04-22T14:53:09Z</time></trkpt><trkpt lat="36.893121717016875" lon="-3.300849867805682"><ele>565.0</ele><time>2026-04-22T14:53:10Z</time></trkpt><trkpt lat="36.89315298419659" lon="-3.3009975342113838"><ele>565.0</ele><time>2026-04-22T14:53:11Z</time></trkpt><trkpt lat="36.89315764876458" lon="-3.301151703178189"><ele>565.0</ele><time>2026-04-22T14:53:12Z</time></trkpt><trkpt lat="36.89305591104932" lon="-3.30127337574121"><ele>565.0</ele><time>2026-04-22T14:53:13Z</time></trkpt><trkpt lat="36.89296726251899" lon="-3.301399562441665"><ele>562.0</ele><time>2026-04-22T14:53:14Z</time></trkpt><trkpt lat="36.89287924296445" lon="-3.301537327433985"><ele>559.0</ele><time>2026-04-22T14:53:15Z</time></trkpt><trkpt lat="36.892760588037774" lon="-3.301661049902211"><ele>556.0</ele><time>2026-04-22T14:53:16Z</time></trkpt><trkpt lat="36.89261981053733" lon="-3.3018588560240665"><ele>561.0</ele><time>2026-04-22T14:53:17Z</time></trkpt><trkpt lat="36.89244892814863" lon="-3.302027065459054"><ele>566.0</ele><time>2026-04-22T14:53:18Z</time></trkpt><trkpt lat="36.89233498950574" lon="-3.3021712996117754"><ele>571.0</ele><time>2026-04-22T14:53:19Z</time></trkpt><trkpt lat="36.89226703437403" lon="-3.3023404015386544"><ele>571.0</ele><time>2026-04-22T14:53:20Z</time></trkpt><trkpt lat="36.89225769292117" lon="-3.3025381155165174"><ele>571.0</ele><time>2026-04-22T14:53:21Z</time></trkpt><trkpt lat="36.89223422312638" lon="-3.3026654547816245"><ele>571.0</ele><time>2026-04-22T14:53:22Z</time></trkpt><trkpt lat="36.892172676702685" lon="-3.3027546931092697"><ele>571.0</ele><time>2026-04-22T14:53:23Z</time></trkpt><trkpt lat="36.89205749661832" lon="-3.3027901414666943"><ele>571.0</ele><time>2026-04-22T14:53:24Z</time></trkpt><trkpt lat="36.89189620476025" lon="-3.302780613504643"><ele>571.0</ele><time>2026-04-22T14:53:25Z</time></trkpt><trkpt lat="36.89175616364338" lon="-3.3028354568132476"><ele>571.0</ele><time>2026-04-22T14:53:26Z</time></trkpt><trkpt lat="36.89168075075234" lon="-3.3029796308799493"><ele>571.0</ele><time>2026-04-22T14:53:27Z</time></trkpt><trkpt lat="36.89162625677029" lon="-3.3031593249262645"><ele>574.75</ele><time>2026-04-22T14:53:28Z</time></trkpt><trkpt lat="36.891558076317125" lon="-3.303344269710946"><ele>578.5</ele><time>2026-04-22T14:53:29Z</time></trkpt><trkpt lat="36.8914973767682" lon="-3.303447874802898"><ele>582.25</ele><time>2026-04-22T14:53:30Z</time></trkpt><trkpt lat="36.891398838897736" lon="-3.30351491732589"><ele>586.0</ele><time>2026-04-22T14:53:31Z</time></trkpt><trkpt lat="36.89125005781925" lon="-3.303539599097937"><ele>586.0</ele><time>2026-04-22T14:53:32Z</time></trkpt><trkpt lat="36.891091115134586" lon="-3.3035494800375096"><ele>586.0</ele><time>2026-04-22T14:53:33Z</time></trkpt><trkpt lat="36.8909690720549" lon="-3.3035859422955207"><ele>586.0</ele><time>2026-04-22T14:53:34Z</time></trkpt><trkpt lat="36.890870661673695" lon="-3.30361990788456"><ele>586.0</ele><time>2026-04-22T14:53:35Z</time></trkpt><trkpt lat="36.89078866531046" lon="-3.303591113829802"><ele>586.0</ele><time>2026-04-22T14:53:36Z</time></trkpt><trkpt lat="36.89073676164646" lon="-3.303513793647867"><ele>586.0</ele><time>2026-04-22T14:53:37Z</time></trkpt><trkpt lat="36.890721714285185" lon="-3.3034036330171355"><ele>586.0</ele><time>2026-04-22T14:53:38Z</time></trkpt><trkpt lat="36.89075649663019" lon="-3.303288917134565"><ele>586.0</ele><time>2026-04-22T14:53:39Z</time></trkpt><trkpt lat="36.890829846762905" lon="-3.303193248501846"><ele>586.0</ele><time>2026-04-22T14:53:40Z</time></trkpt><trkpt lat="36.89093936500561" lon="-3.3031553214693683"><ele>586.0</ele><time>2026-04-22T14:53:41Z</time></trkpt><trkpt lat="36.89105364469353" lon="-3.303180110140872"><ele>586.0</ele><time>2026-04-22T14:53:42Z</time></trkpt><trkpt lat="36.891157702978354" lon="-3.3032320111058064"><ele>586.0</ele><time>2026-04-22T14:53:43Z</time></trkpt><trkpt lat="36.89125879400728" lon="-3.3032532759773843"><ele>586.0</ele><time>2026-04-22T14:53:44Z</time></trkpt><trkpt lat="36.891344913717184" lon="-3.3031877232382625"><ele>586.0</ele><time>2026-04-22T14:53:45Z</time></trkpt><trkpt lat="36.89139004032827" lon="-3.303049247399599"><ele>591.25</ele><time>2026-04-22T14:53:46Z</time></trkpt><trkpt lat="36.89137729074335" lon="-3.30288029360773"><ele>596.5</ele><time>2026-04-22T14:53:47Z</time></trkpt><trkpt lat="36.89140644241839" lon="-3.302714213255177"><ele>601.75</ele><time>2026-04-22T14:53:48Z</time></trkpt><trkpt lat="36.891436836180695" lon="-3.3025999536719453"><ele>607.0</ele><time>2026-04-22T14:53:49Z</time></trkpt><trkpt lat="36.89149791745746" lon="-3.3024918365318734"><ele>607.0</ele><time>2026-04-22T14:53:50Z</time></trkpt><trkpt lat="36.89159471678889" lon="-3.3023956892233177"><ele>607.0</ele><time>2026-04-22T14:53:51Z</time></trkpt><trkpt lat="36.891707855659575" lon="-3.3023125111545912"><ele>607.0</ele><time>2026-04-22T14:53:52Z</time></trkpt><trkpt lat="36.891772694568516" lon="-3.302183326874133"><ele>607.0</ele><time>2026-04-22T14:53:53Z</time></trkpt><trkpt lat="36.89180300150719" lon="-3.3020671615576522"><ele>607.0</ele><time>2026-04-22T14:53:54Z</time></trkpt><trkpt lat="36.8917291619328" lon="-3.301982202067757"><ele>607.0</ele><time>2026-04-22T14:53:55Z</time></trkpt><trkpt lat="36.89164587334141" lon="-3.301953778772994"><ele>607.0</ele><time>2026-04-22T14:53:56Z</time></trkpt><trkpt lat="36.89154629705232" lon="-3.3020546582453156"><ele>607.0</ele><time>2026-04-22T14:53:57Z</time></trkpt><trkpt lat="36.89148531590635" lon="-3.302197197155286"><ele>607.0</ele><time>2026-04-22T14:53:58Z</time></trkpt><trkpt lat="36.89141523207813" lon="-3.3023656779152732"><ele>607.0</ele><time>2026-04-22T14:53:59Z</time></trkpt><trkpt lat="36.89133205639932" lon="-3.3024771781910913"><ele>607.0</ele><time>2026-04-22T14:54:00Z</time></trkpt><trkpt lat="36.891230783386014" lon="-3.302591341912792"><ele>607.0</ele><time>2026-04-22T14:54:01Z</time></trkpt><trkpt lat="36.89113316518793" lon="-3.302692780855988"><ele>607.0</ele><time>2026-04-22T14:54:02Z</time></trkpt><trkpt lat="36.891016459754745" lon="-3.3027694772055534"><ele>612.25</ele><time>2026-04-22T14:54:03Z</time></trkpt><trkpt lat="36.89088492552138" lon="-3.3028064134071076"><ele>617.5</ele><time>2026-04-22T14:54:04Z</time></trkpt><trkpt lat="36.89075140218062" lon="-3.3028285368630796"><ele>622.75</ele><time>2026-04-22T14:54:05Z</time></trkpt><trkpt lat="36.89064715218037" lon="-3.3028311012138305"><ele>628.0</ele><time>2026-04-22T14:54:06Z</time></trkpt><trkpt lat="36.89056008835737" lon="-3.302800799665546"><ele>628.0</ele><time>2026-04-22T14:54:07Z</time></trkpt><trkpt lat="36.890489800565355" lon="-3.3027330050102894"><ele>628.0</ele><time>2026-04-22T14:54:08Z</time></trkpt><trkpt lat="36.89047263006914" lon="-3.3025899546405135"><ele>628.0</ele><time>2026-04-22T14:54:09Z</time></trkpt><trkpt lat="36.89054939717235" lon="-3.302464521960264"><ele>628.0</ele><time>2026-04-22T14:54:10Z</time></trkpt><trkpt lat="36.89067345865607" lon="-3.302428921241452"><ele>628.0</ele><time>2026-04-22T14:54:11Z</time></trkpt><trkpt lat="36.890807465119465" lon="-3.3024519506664975"><ele>628.0</ele><time>2026-04-22T14:54:12Z</time></trkpt><trkpt lat="36.89093819233507" lon="-3.302429817089896"><ele>628.0</ele><time>2026-04-22T14:54:13Z</time></trkpt><trkpt lat="36.89103431319104" lon="-3.3023333797605914"><ele>628.0</ele><time>2026-04-22T14:54:14Z</time></trkpt><trkpt lat="36.89112954281497" lon="-3.3022074138198763"><ele>626.75</ele><time>2026-04-22T14:54:15Z</time></trkpt><trkpt lat="36.89120260117519" lon="-3.302087477116912"><ele>625.5</ele><time>2026-04-22T14:54:16Z</time></trkpt><trkpt lat="36.89124101192031" lon="-3.3019538670049977"><ele>624.25</ele><time>2026-04-22T14:54:17Z</time></trkpt><trkpt lat="36.89124847563466" lon="-3.3018101374150657"><ele>623.0</ele><time>2026-04-22T14:54:18Z</time></trkpt><trkpt lat="36.89126003206318" lon="-3.301646429855483"><ele>623.0</ele><time>2026-04-22T14:54:19Z</time></trkpt><trkpt lat="36.891272847298225" lon="-3.301470426182826"><ele>623.0</ele><time>2026-04-22T14:54:20Z</time></trkpt><trkpt lat="36.891267874880725" lon="-3.301296393100937"><ele>623.0</ele><time>2026-04-22T14:54:21Z</time></trkpt><trkpt lat="36.891261448597845" lon="-3.3011150809750287"><ele>623.0</ele><time>2026-04-22T14:54:22Z</time></trkpt><trkpt lat="36.891245921527776" lon="-3.300929044099185"><ele>626.6666666666666</ele><time>2026-04-22T14:54:23Z</time></trkpt><trkpt lat="36.89126180948756" lon="-3.300751119571591"><ele>630.3333333333334</ele><time>2026-04-22T14:54:24Z</time></trkpt><trkpt lat="36.891366539782304" lon="-3.300576933550956"><ele>634.0</ele><time>2026-04-22T14:54:25Z</time></trkpt><trkpt lat="36.89146983628205" lon="-3.3004331631430044"><ele>637.0</ele><time>2026-04-22T14:54:26Z</time></trkpt><trkpt lat="36.8914979724028" lon="-3.3002468132375786"><ele>640.0</ele><time>2026-04-22T14:54:27Z</time></trkpt><trkpt lat="36.89155734346125" lon="-3.300045346261101"><ele>643.0</ele><time>2026-04-22T14:54:28Z</time></trkpt><trkpt lat="36.89161397965308" lon="-3.299906009626077"><ele>646.0</ele><time>2026-04-22T14:54:29Z</time></trkpt><trkpt lat="36.891663790170256" lon="-3.299811660359869"><ele>646.0</ele><time>2026-04-22T14:54:30Z</time></trkpt><trkpt lat="36.89167189287177" lon="-3.2997026078066067"><ele>646.0</ele><time>2026-04-22T14:54:31Z</time></trkpt><trkpt lat="36.89164665571645" lon="-3.299608840824633"><ele>646.0</ele><time>2026-04-22T14:54:32Z</time></trkpt><trkpt lat="36.89156605761497" lon="-3.299557578639094"><ele>646.0</ele><time>2026-04-22T14:54:33Z</time></trkpt><trkpt lat="36.89145281404394" lon="-3.2996264498874615"><ele>646.0</ele><time>2026-04-22T14:54:34Z</time></trkpt><trkpt lat="36.89137352026529" lon="-3.299754104052769"><ele>646.0</ele><time>2026-04-22T14:54:35Z</time></trkpt><trkpt lat="36.891359022768455" lon="-3.299935831461589"><ele>646.0</ele><time>2026-04-22T14:54:36Z</time></trkpt><trkpt lat="36.89127598377585" lon="-3.3001209332273276"><ele>646.0</ele><time>2026-04-22T14:54:37Z</time></trkpt><trkpt lat="36.891141158575536" lon="-3.3002737623186937"><ele>646.0</ele><time>2026-04-22T14:54:38Z</time></trkpt><trkpt lat="36.8910512625988" lon="-3.3003341694293398"><ele>646.0</ele><time>2026-04-22T14:54:40Z</time></trkpt><trkpt lat="36.89090946173029" lon="-3.3004009367397957"><ele>646.0</ele><time>2026-04-22T14:54:41Z</time></trkpt><trkpt lat="36.8908316686226" lon="-3.3005382661530285"><ele>646.0</ele><time>2026-04-22T14:54:42Z</time></trkpt><trkpt lat="36.89078984982992" lon="-3.30069229740292"><ele>649.5</ele><time>2026-04-22T14:54:43Z</time></trkpt><trkpt lat="36.89070747732666" lon="-3.3008475025478403"><ele>653.0</ele><time>2026-04-22T14:54:44Z</time></trkpt><trkpt lat="36.89062640688273" lon="-3.3009771858475556"><ele>656.5</ele><time>2026-04-22T14:54:45Z</time></trkpt><trkpt lat="36.8905668554835" lon="-3.3011060640187626"><ele>660.0</ele><time>2026-04-22T14:54:46Z</time></trkpt><trkpt lat="36.890523897214315" lon="-3.301216275959976"><ele>660.0</ele><time>2026-04-22T14:54:47Z</time></trkpt><trkpt lat="36.89046413721437" lon="-3.3013008254083194"><ele>660.0</ele><time>2026-04-22T14:54:48Z</time></trkpt><trkpt lat="36.89037534991428" lon="-3.3013338969128188"><ele>660.0</ele><time>2026-04-22T14:54:49Z</time></trkpt><trkpt lat="36.89029422042529" lon="-3.301313455508695"><ele>660.0</ele><time>2026-04-22T14:54:50Z</time></trkpt><trkpt lat="36.890227388471516" lon="-3.301289926586041"><ele>660.0</ele><time>2026-04-22T14:54:51Z</time></trkpt><trkpt lat="36.89012682434209" lon="-3.301266545209488"><ele>660.0</ele><time>2026-04-22T14:54:53Z</time></trkpt><trkpt lat="36.89004760394577" lon="-3.301271850075287"><ele>658.8</ele><time>2026-04-22T14:54:56Z</time></trkpt><trkpt lat="36.889963330953464" lon="-3.301288862212203"><ele>657.6</ele><time>2026-04-22T15:06:38.999Z</time></trkpt><trkpt lat="36.889862368530835" lon="-3.3013286791885936"><ele>656.4000000000001</ele><time>2026-04-22T15:06:40.999Z</time></trkpt><trkpt lat="36.88978580523485" lon="-3.3013659180692656"><ele>655.2</ele><time>2026-04-22T15:06:41.999Z</time></trkpt><trkpt lat="36.88970815960193" lon="-3.301404838640028"><ele>654.0</ele><time>2026-04-22T15:06:42.999Z</time></trkpt><trkpt lat="36.889618258359384" lon="-3.3014613140522093"><ele>654.0</ele><time>2026-04-22T15:06:43.999Z</time></trkpt><trkpt lat="36.889514333203266" lon="-3.301508218368957"><ele>654.0</ele><time>2026-04-22T15:06:44.999Z</time></trkpt><trkpt lat="36.88941413015777" lon="-3.301547956733147"><ele>654.0</ele><time>2026-04-22T15:06:45.999Z</time></trkpt><trkpt lat="36.88930195815827" lon="-3.3016002542012783"><ele>654.0</ele><time>2026-04-22T15:06:46.999Z</time></trkpt><trkpt lat="36.889182261177716" lon="-3.3016583564058792"><ele>655.25</ele><time>2026-04-22T15:06:47.999Z</time></trkpt><trkpt lat="36.88905991364776" lon="-3.30172360615862"><ele>656.5</ele><time>2026-04-22T15:06:48.999Z</time></trkpt><trkpt lat="36.8889357273658" lon="-3.30178408823165"><ele>657.75</ele><time>2026-04-22T15:06:49.999Z</time></trkpt><trkpt lat="36.888812434699496" lon="-3.301839690919222"><ele>659.0</ele><time>2026-04-22T15:06:50.999Z</time></trkpt><trkpt lat="36.888690871423606" lon="-3.301897040060391"><ele>659.0</ele><time>2026-04-22T15:06:51.999Z</time></trkpt><trkpt lat="36.888559238802195" lon="-3.3019529953792963"><ele>659.0</ele><time>2026-04-22T15:06:52.999Z</time></trkpt><trkpt lat="36.888420167390365" lon="-3.3019928929355915"><ele>659.0</ele><time>2026-04-22T15:06:54Z</time></trkpt><trkpt lat="36.88827435162865" lon="-3.301988090533937"><ele>659.0</ele><time>2026-04-22T15:06:55Z</time></trkpt><trkpt lat="36.88812222525973" lon="-3.3019302249354947"><ele>660.6666666666666</ele><time>2026-04-22T15:06:56Z</time></trkpt><trkpt lat="36.887979748795594" lon="-3.3018473943767046"><ele>662.3333333333334</ele><time>2026-04-22T15:06:57Z</time></trkpt><trkpt lat="36.887850164644675" lon="-3.301757339110286"><ele>664.0</ele><time>2026-04-22T15:06:58Z</time></trkpt><trkpt lat="36.88771815144831" lon="-3.3016813600927617"><ele>660.3333333333334</ele><time>2026-04-22T15:06:59Z</time></trkpt><trkpt lat="36.88757214069629" lon="-3.301637220610513"><ele>656.6666666666666</ele><time>2026-04-22T15:07:00Z</time></trkpt><trkpt lat="36.88741523123682" lon="-3.301631256758194"><ele>653.0</ele><time>2026-04-22T15:07:01Z</time></trkpt><trkpt lat="36.88725660251138" lon="-3.301670789508969"><ele>653.0</ele><time>2026-04-22T15:07:02Z</time></trkpt><trkpt lat="36.88711244941155" lon="-3.3017526751167527"><ele>653.0</ele><time>2026-04-22T15:07:03Z</time></trkpt><trkpt lat="36.886989365695314" lon="-3.301860286808421"><ele>653.0</ele><time>2026-04-22T15:07:04Z</time></trkpt><trkpt lat="36.8868857378044" lon="-3.3019792263238976"><ele>653.0</ele><time>2026-04-22T15:07:05Z</time></trkpt><trkpt lat="36.886788206470236" lon="-3.3021062284273714"><ele>654.25</ele><time>2026-04-22T15:07:06Z</time></trkpt><trkpt lat="36.88669054531857" lon="-3.3022306970957502"><ele>655.5</ele><time>2026-04-22T15:07:07Z</time></trkpt><trkpt lat="36.886571221029925" lon="-3.302330965600323"><ele>656.75</ele><time>2026-04-22T15:07:08Z</time></trkpt><trkpt lat="36.88643984402462" lon="-3.302381610593681"><ele>658.0</ele><time>2026-04-22T15:07:09Z</time></trkpt><trkpt lat="36.88629282541368" lon="-3.302379134372234"><ele>658.0</ele><time>2026-04-22T15:07:10Z</time></trkpt><trkpt lat="36.886143359572074" lon="-3.3023141954753714"><ele>658.0</ele><time>2026-04-22T15:07:11Z</time></trkpt><trkpt lat="36.88598971264632" lon="-3.302225089110992"><ele>658.0</ele><time>2026-04-22T15:07:12Z</time></trkpt><trkpt lat="36.88583427623781" lon="-3.3021242571857123"><ele>655.3333333333334</ele><time>2026-04-22T15:07:13Z</time></trkpt><trkpt lat="36.88567007404062" lon="-3.3020574288321027"><ele>652.6666666666666</ele><time>2026-04-22T15:07:14Z</time></trkpt><trkpt lat="36.88549535717617" lon="-3.302008352729599"><ele>650.0</ele><time>2026-04-22T15:07:15Z</time></trkpt><trkpt lat="36.88530532922083" lon="-3.3020326852947526"><ele>650.0</ele><time>2026-04-22T15:07:16Z</time></trkpt><trkpt lat="36.8851120256068" lon="-3.302102276728076"><ele>650.0</ele><time>2026-04-22T15:07:17Z</time></trkpt><trkpt lat="36.88492921821323" lon="-3.302200454417897"><ele>650.0</ele><time>2026-04-22T15:07:18Z</time></trkpt><trkpt lat="36.88475260533839" lon="-3.30229951786461"><ele>644.3333333333333</ele><time>2026-04-22T15:07:19Z</time></trkpt><trkpt lat="36.884588837836624" lon="-3.302379781583218"><ele>638.6666666666666</ele><time>2026-04-22T15:07:20Z</time></trkpt><trkpt lat="36.88443209750795" lon="-3.3024482639624595"><ele>633.0</ele><time>2026-04-22T15:07:21Z</time></trkpt><trkpt lat="36.88426336192699" lon="-3.3025004425702416"><ele>635.3333333333334</ele><time>2026-04-22T15:07:22Z</time></trkpt><trkpt lat="36.88409240445869" lon="-3.302518811583713"><ele>637.6666666666667</ele><time>2026-04-22T15:07:23Z</time></trkpt><trkpt lat="36.88392532757296" lon="-3.302507923471296"><ele>640.0</ele><time>2026-04-22T15:07:24Z</time></trkpt><trkpt lat="36.883759629414" lon="-3.302461332815742"><ele>640.0</ele><time>2026-04-22T15:07:25Z</time></trkpt><trkpt lat="36.88359587549162" lon="-3.3023784176110373"><ele>640.0</ele><time>2026-04-22T15:07:26Z</time></trkpt><trkpt lat="36.883439824312205" lon="-3.302267622494491"><ele>640.0</ele><time>2026-04-22T15:07:27Z</time></trkpt><trkpt lat="36.88329389270183" lon="-3.3021275346175196"><ele>645.6666666666667</ele><time>2026-04-22T15:07:28Z</time></trkpt><trkpt lat="36.88316522471414" lon="-3.3019562879287983"><ele>651.3333333333334</ele><time>2026-04-22T15:07:29Z</time></trkpt><trkpt lat="36.88304095672513" lon="-3.301769702345223"><ele>657.0</ele><time>2026-04-22T15:07:30Z</time></trkpt><trkpt lat="36.88292213651123" lon="-3.3016134256690517"><ele>657.0</ele><time>2026-04-22T15:07:31Z</time></trkpt><trkpt lat="36.88278036455139" lon="-3.301483079084487"><ele>657.0</ele><time>2026-04-22T15:07:32Z</time></trkpt><trkpt lat="36.88261854275277" lon="-3.301380562211335"><ele>657.0</ele><time>2026-04-22T15:07:33Z</time></trkpt><trkpt lat="36.88244266534191" lon="-3.301313317137702"><ele>660.6666666666666</ele><time>2026-04-22T15:07:34Z</time></trkpt><trkpt lat="36.88225737987386" lon="-3.30129354924099"><ele>664.3333333333333</ele><time>2026-04-22T15:07:35Z</time></trkpt><trkpt lat="36.88207045489768" lon="-3.301317567714917"><ele>668.0</ele><time>2026-04-22T15:07:36Z</time></trkpt><trkpt lat="36.8819188629425" lon="-3.3012849840310357"><ele>665.3333333333333</ele><time>2026-04-22T15:07:37Z</time></trkpt><trkpt lat="36.88175378572653" lon="-3.301252798331013"><ele>662.6666666666666</ele><time>2026-04-22T15:07:38Z</time></trkpt><trkpt lat="36.88158943547841" lon="-3.3011720055156792"><ele>660.0</ele><time>2026-04-22T15:07:39Z</time></trkpt><trkpt lat="36.88142860931423" lon="-3.301081523640092"><ele>660.0</ele><time>2026-04-22T15:07:40Z</time></trkpt><trkpt lat="36.88128673739692" lon="-3.3009887339655988"><ele>660.0</ele><time>2026-04-22T15:07:41Z</time></trkpt><trkpt lat="36.881160878232784" lon="-3.3008807468559485"><ele>660.0</ele><time>2026-04-22T15:07:42Z</time></trkpt><trkpt lat="36.8810616813079" lon="-3.3007441631684293"><ele>660.0</ele><time>2026-04-22T15:07:43Z</time></trkpt><trkpt lat="36.88098331791033" lon="-3.30061753198734"><ele>660.0</ele><time>2026-04-22T15:07:44Z</time></trkpt><trkpt lat="36.88091699937726" lon="-3.30051672570331"><ele>660.0</ele><time>2026-04-22T15:07:45Z</time></trkpt><trkpt lat="36.88084143332205" lon="-3.300423255412485"><ele>660.0</ele><time>2026-04-22T15:07:46Z</time></trkpt><trkpt lat="36.880755167394284" lon="-3.300333650597654"><ele>660.0</ele><time>2026-04-22T15:07:47Z</time></trkpt><trkpt lat="36.880658546928885" lon="-3.300243028806397"><ele>660.0</ele><time>2026-04-22T15:07:48Z</time></trkpt><trkpt lat="36.88056392828426" lon="-3.300146469415789"><ele>660.0</ele><time>2026-04-22T15:07:49Z</time></trkpt><trkpt lat="36.88046266788572" lon="-3.300087004790466"><ele>660.0</ele><time>2026-04-22T15:07:50Z</time></trkpt><trkpt lat="36.880354306368105" lon="-3.3000548964160683"><ele>660.0</ele><time>2026-04-22T15:07:51Z</time></trkpt><trkpt lat="36.88022512764944" lon="-3.300080954060671"><ele>660.0</ele><time>2026-04-22T15:07:52Z</time></trkpt><trkpt lat="36.88008484863587" lon="-3.3001520228424486"><ele>660.0</ele><time>2026-04-22T15:07:53Z</time></trkpt><trkpt lat="36.87995968392835" lon="-3.300181780601633"><ele>660.0</ele><time>2026-04-22T15:07:54Z</time></trkpt><trkpt lat="36.87983835040886" lon="-3.30018471293923"><ele>660.0</ele><time>2026-04-22T15:07:55Z</time></trkpt><trkpt lat="36.87971956010308" lon="-3.3001766904068783"><ele>660.0</ele><time>2026-04-22T15:07:56Z</time></trkpt><trkpt lat="36.87959576037635" lon="-3.3001739851403022"><ele>660.0</ele><time>2026-04-22T15:07:57Z</time></trkpt><trkpt lat="36.87947685886084" lon="-3.300170237032302"><ele>660.0</ele><time>2026-04-22T15:07:58Z</time></trkpt><trkpt lat="36.87937349638783" lon="-3.300164853012245"><ele>660.0</ele><time>2026-04-22T15:07:59Z</time></trkpt><trkpt lat="36.87927041510262" lon="-3.300182526997524"><ele>660.0</ele><time>2026-04-22T15:08:00Z</time></trkpt><trkpt lat="36.87917945129518" lon="-3.300225640364497"><ele>660.0</ele><time>2026-04-22T15:08:01Z</time></trkpt><trkpt lat="36.87910161347545" lon="-3.3003264136109753"><ele>660.0</ele><time>2026-04-22T15:08:02Z</time></trkpt><trkpt lat="36.879037663659695" lon="-3.300431213977338"><ele>660.0</ele><time>2026-04-22T15:08:03Z</time></trkpt><trkpt lat="36.87896654706287" lon="-3.300526336621125"><ele>656.5</ele><time>2026-04-22T15:08:04Z</time></trkpt><trkpt lat="36.87888541127072" lon="-3.30062470689964"><ele>653.0</ele><time>2026-04-22T15:08:05Z</time></trkpt><trkpt lat="36.87880553503727" lon="-3.300732751871256"><ele>649.5</ele><time>2026-04-22T15:08:06Z</time></trkpt><trkpt lat="36.87873053278382" lon="-3.300840929454065"><ele>646.0</ele><time>2026-04-22T15:08:07Z</time></trkpt><trkpt lat="36.8786493909416" lon="-3.300943719165908"><ele>646.0</ele><time>2026-04-22T15:08:08Z</time></trkpt><trkpt lat="36.87856474880888" lon="-3.3010524849924705"><ele>646.0</ele><time>2026-04-22T15:08:09Z</time></trkpt><trkpt lat="36.878482080241234" lon="-3.301164787622414"><ele>646.0</ele><time>2026-04-22T15:08:10Z</time></trkpt><trkpt lat="36.87840886799206" lon="-3.301293786314714"><ele>646.0</ele><time>2026-04-22T15:08:11Z</time></trkpt><trkpt lat="36.87835791449846" lon="-3.301445294215796"><ele>644.75</ele><time>2026-04-22T15:08:12Z</time></trkpt><trkpt lat="36.87835293365466" lon="-3.3016194130742966"><ele>643.5</ele><time>2026-04-22T15:08:13Z</time></trkpt><trkpt lat="36.87839691350047" lon="-3.3017926023614357"><ele>642.25</ele><time>2026-04-22T15:08:14Z</time></trkpt><trkpt lat="36.87849210883452" lon="-3.3019416986637338"><ele>641.0</ele><time>2026-04-22T15:08:15Z</time></trkpt><trkpt lat="36.87862606273635" lon="-3.302045418057119"><ele>641.0</ele><time>2026-04-22T15:08:16Z</time></trkpt><trkpt lat="36.878781861624084" lon="-3.30212384715142"><ele>641.0</ele><time>2026-04-22T15:08:17Z</time></trkpt><trkpt lat="36.87893750483909" lon="-3.3021926283690295"><ele>641.0</ele><time>2026-04-22T15:08:18Z</time></trkpt><trkpt lat="36.87908948791571" lon="-3.3022756607497517"><ele>639.6666666666666</ele><time>2026-04-22T15:08:19Z</time></trkpt><trkpt lat="36.879233943091606" lon="-3.3023970104388454"><ele>638.3333333333334</ele><time>2026-04-22T15:08:20Z</time></trkpt><trkpt lat="36.87937975610814" lon="-3.3025487242018836"><ele>637.0</ele><time>2026-04-22T15:08:21Z</time></trkpt><trkpt lat="36.87952660697279" lon="-3.30270726447504"><ele>637.0</ele><time>2026-04-22T15:08:22Z</time></trkpt><trkpt lat="36.87966894974829" lon="-3.3028611440386193"><ele>637.0</ele><time>2026-04-22T15:08:23Z</time></trkpt><trkpt lat="36.87981246837879" lon="-3.3030104985382116"><ele>637.0</ele><time>2026-04-22T15:08:24Z</time></trkpt><trkpt lat="36.87995542679087" lon="-3.3031597701024067"><ele>634.3333333333334</ele><time>2026-04-22T15:08:25Z</time></trkpt><trkpt lat="36.88008904725852" lon="-3.303309259814531"><ele>631.6666666666666</ele><time>2026-04-22T15:08:26Z</time></trkpt><trkpt lat="36.88021275490303" lon="-3.3034850875096797"><ele>629.0</ele><time>2026-04-22T15:08:27Z</time></trkpt><trkpt lat="36.8802975125676" lon="-3.303687814644416"><ele>629.0</ele><time>2026-04-22T15:08:28Z</time></trkpt><trkpt lat="36.88034008507521" lon="-3.303906214401962"><ele>629.0</ele><time>2026-04-22T15:08:28.999Z</time></trkpt><trkpt lat="36.88036973473652" lon="-3.3041058699916004"><ele>629.0</ele><time>2026-04-22T15:08:29.999Z</time></trkpt><trkpt lat="36.88045515017785" lon="-3.3042709283122313"><ele>630.0</ele><time>2026-04-22T15:08:30.999Z</time></trkpt><trkpt lat="36.88057420508085" lon="-3.3044395318263455"><ele>631.0</ele><time>2026-04-22T15:08:31.999Z</time></trkpt><trkpt lat="36.880754262249816" lon="-3.304514013523469"><ele>632.0</ele><time>2026-04-22T15:08:32.999Z</time></trkpt><trkpt lat="36.88094543656601" lon="-3.3045813631420624"><ele>632.0</ele><time>2026-04-22T15:08:33.999Z</time></trkpt><trkpt lat="36.881134493303996" lon="-3.3046173763173186"><ele>632.0</ele><time>2026-04-22T15:08:34.999Z</time></trkpt><trkpt lat="36.88129212449857" lon="-3.3046686480903724"><ele>632.0</ele><time>2026-04-22T15:08:35.999Z</time></trkpt><trkpt lat="36.88143739718933" lon="-3.304774295018987"><ele>642.3333333333333</ele><time>2026-04-22T15:08:36.999Z</time></trkpt><trkpt lat="36.88156040012313" lon="-3.3049407630117145"><ele>652.6666666666666</ele><time>2026-04-22T15:08:37.999Z</time></trkpt><trkpt lat="36.88166595611544" lon="-3.305134705516689"><ele>663.0</ele><time>2026-04-22T15:08:38.999Z</time></trkpt><trkpt lat="36.88175519069213" lon="-3.3053379687473003"><ele>667.3333333333334</ele><time>2026-04-22T15:08:39.999Z</time></trkpt><trkpt lat="36.88185196646995" lon="-3.3055323485917567"><ele>671.6666666666667</ele><time>2026-04-22T15:08:40.999Z</time></trkpt><trkpt lat="36.881994429746314" lon="-3.3056666922684355"><ele>676.0</ele><time>2026-04-22T15:08:41.999Z</time></trkpt><trkpt lat="36.88216511926588" lon="-3.305737853219377"><ele>676.0</ele><time>2026-04-22T15:08:42.999Z</time></trkpt><trkpt lat="36.88236560060758" lon="-3.305767222228216"><ele>676.0</ele><time>2026-04-22T15:08:43.999Z</time></trkpt><trkpt lat="36.882574499167305" lon="-3.3058065822021265"><ele>676.0</ele><time>2026-04-22T15:08:44.999Z</time></trkpt><trkpt lat="36.882765346377504" lon="-3.305847697898101"><ele>671.3333333333334</ele><time>2026-04-22T15:08:45.999Z</time></trkpt><trkpt lat="36.88293778022089" lon="-3.305963423572109"><ele>666.6666666666666</ele><time>2026-04-22T15:08:46.999Z</time></trkpt><trkpt lat="36.88310900299535" lon="-3.3060861933588126"><ele>662.0</ele><time>2026-04-22T15:08:47.999Z</time></trkpt><trkpt lat="36.88328915757448" lon="-3.3061572644984305"><ele>658.0</ele><time>2026-04-22T15:08:48.999Z</time></trkpt><trkpt lat="36.88348808281716" lon="-3.306176330818629"><ele>654.0</ele><time>2026-04-22T15:08:49.999Z</time></trkpt><trkpt lat="36.88366927047706" lon="-3.3061789443537912"><ele>650.0</ele><time>2026-04-22T15:08:50.999Z</time></trkpt><trkpt lat="36.88383408725183" lon="-3.30622793094937"><ele>650.0</ele><time>2026-04-22T15:08:51.999Z</time></trkpt><trkpt lat="36.883993777753865" lon="-3.30633423039262"><ele>650.0</ele><time>2026-04-22T15:08:52.999Z</time></trkpt><trkpt lat="36.884146704316976" lon="-3.3065007238733477"><ele>650.0</ele><time>2026-04-22T15:08:53.999Z</time></trkpt><trkpt lat="36.884276636612775" lon="-3.306704432992165"><ele>653.3333333333333</ele><time>2026-04-22T15:08:54.999Z</time></trkpt><trkpt lat="36.884412068163215" lon="-3.3068955294986306"><ele>656.6666666666666</ele><time>2026-04-22T15:08:55.999Z</time></trkpt><trkpt lat="36.884553966626584" lon="-3.307043732024954"><ele>660.0</ele><time>2026-04-22T15:08:56.999Z</time></trkpt><trkpt lat="36.884723567707695" lon="-3.3071485721430514"><ele>660.0</ele><time>2026-04-22T15:08:57.999Z</time></trkpt><trkpt lat="36.88490565152459" lon="-3.307221808318481"><ele>660.0</ele><time>2026-04-22T15:08:58.999Z</time></trkpt><trkpt lat="36.88509341889153" lon="-3.3072980814778274"><ele>660.0</ele><time>2026-04-22T15:09:00Z</time></trkpt><trkpt lat="36.885264057093295" lon="-3.3073771875210993"><ele>666.0</ele><time>2026-04-22T15:09:01Z</time></trkpt><trkpt lat="36.885412870392805" lon="-3.307459733241769"><ele>672.0</ele><time>2026-04-22T15:09:02Z</time></trkpt><trkpt lat="36.88555449119423" lon="-3.3075303311736586"><ele>678.0</ele><time>2026-04-22T15:09:03Z</time></trkpt><trkpt lat="36.88569900386222" lon="-3.3076200402790414"><ele>678.0</ele><time>2026-04-22T15:09:04Z</time></trkpt><trkpt lat="36.885829650015374" lon="-3.3077502393085845"><ele>678.0</ele><time>2026-04-22T15:09:05Z</time></trkpt><trkpt lat="36.885944900442254" lon="-3.307916180196478"><ele>678.0</ele><time>2026-04-22T15:09:06Z</time></trkpt><trkpt lat="36.88601851946231" lon="-3.3081129939539275"><ele>677.3333333333334</ele><time>2026-04-22T15:09:07Z</time></trkpt><trkpt lat="36.886040858657346" lon="-3.3083322186154875"><ele>676.6666666666667</ele><time>2026-04-22T15:09:08Z</time></trkpt><trkpt lat="36.88602629878811" lon="-3.3085519479850025"><ele>676.0</ele><time>2026-04-22T15:09:09Z</time></trkpt><trkpt lat="36.88596883884001" lon="-3.3087793698073167"><ele>677.3333333333334</ele><time>2026-04-22T15:09:10Z</time></trkpt><trkpt lat="36.88586057622761" lon="-3.309018849646852"><ele>678.6666666666666</ele><time>2026-04-22T15:09:11Z</time></trkpt><trkpt lat="36.88573492243925" lon="-3.3092557912356213"><ele>680.0</ele><time>2026-04-22T15:09:12Z</time></trkpt><trkpt lat="36.88561383142568" lon="-3.309487493891993"><ele>680.0</ele><time>2026-04-22T15:09:13Z</time></trkpt><trkpt lat="36.885502699159375" lon="-3.3097223542302268"><ele>680.0</ele><time>2026-04-22T15:09:14Z</time></trkpt><trkpt lat="36.88539329239141" lon="-3.309963050045477"><ele>680.0</ele><time>2026-04-22T15:09:15Z</time></trkpt><trkpt lat="36.88527638461264" lon="-3.3102063109194586"><ele>683.5</ele><time>2026-04-22T15:09:16Z</time></trkpt><trkpt lat="36.88515387046228" lon="-3.3104631828654485"><ele>687.0</ele><time>2026-04-22T15:09:17Z</time></trkpt><trkpt lat="36.88503437331357" lon="-3.3107212810303905"><ele>687.0</ele><time>2026-04-22T15:09:18Z</time></trkpt><trkpt lat="36.88491276646567" lon="-3.310980915493712"><ele>687.0</ele><time>2026-04-22T15:09:19Z</time></trkpt><trkpt lat="36.884787305064975" lon="-3.3112387967402777"><ele>682.5</ele><time>2026-04-22T15:09:20Z</time></trkpt><trkpt lat="36.88466271818368" lon="-3.311511601150512"><ele>678.0</ele><time>2026-04-22T15:09:21Z</time></trkpt><trkpt lat="36.884552663657004" lon="-3.311800572171569"><ele>678.0</ele><time>2026-04-22T15:09:22Z</time></trkpt><trkpt lat="36.88447497308308" lon="-3.312087970221232"><ele>678.0</ele><time>2026-04-22T15:09:23Z</time></trkpt><trkpt lat="36.884422231687495" lon="-3.3123720173111106"><ele>671.5</ele><time>2026-04-22T15:09:24Z</time></trkpt><trkpt lat="36.88439719865456" lon="-3.312667413730807"><ele>665.0</ele><time>2026-04-22T15:09:25Z</time></trkpt><trkpt lat="36.8843692219081" lon="-3.312959101506219"><ele>664.3333333333333</ele><time>2026-04-22T15:09:26Z</time></trkpt><trkpt lat="36.884306337427255" lon="-3.31321259928602"><ele>663.6666666666666</ele><time>2026-04-22T15:09:27Z</time></trkpt><trkpt lat="36.884191632556465" lon="-3.3134528774467733"><ele>663.0</ele><time>2026-04-22T15:09:28Z</time></trkpt><trkpt lat="36.884038598961794" lon="-3.31369366877916"><ele>669.5</ele><time>2026-04-22T15:09:29Z</time></trkpt><trkpt lat="36.88388500184447" lon="-3.3139444476810946"><ele>676.0</ele><time>2026-04-22T15:09:30Z</time></trkpt><trkpt lat="36.88375601595351" lon="-3.3142114768241653"><ele>676.0</ele><time>2026-04-22T15:09:31Z</time></trkpt><trkpt lat="36.883656058833296" lon="-3.3144970539255456"><ele>676.0</ele><time>2026-04-22T15:09:32Z</time></trkpt><trkpt lat="36.88359129411221" lon="-3.314796361765678"><ele>668.5</ele><time>2026-04-22T15:09:33Z</time></trkpt><trkpt lat="36.88354717326358" lon="-3.315104816896413"><ele>661.0</ele><time>2026-04-22T15:09:34Z</time></trkpt><trkpt lat="36.88353592817782" lon="-3.3154216494772486"><ele>657.5</ele><time>2026-04-22T15:09:35Z</time></trkpt><trkpt lat="36.883551765604494" lon="-3.3157418913261014"><ele>654.0</ele><time>2026-04-22T15:09:36Z</time></trkpt><trkpt lat="36.88359781646185" lon="-3.3160576225254763"><ele>654.0</ele><time>2026-04-22T15:09:37Z</time></trkpt><trkpt lat="36.88366919034319" lon="-3.316352425003689"><ele>654.0</ele><time>2026-04-22T15:09:38Z</time></trkpt><trkpt lat="36.88375289269619" lon="-3.316638794956464"><ele>655.3333333333334</ele><time>2026-04-22T15:09:39Z</time></trkpt><trkpt lat="36.88382583830175" lon="-3.316909727704989"><ele>656.6666666666667</ele><time>2026-04-22T15:09:40Z</time></trkpt><trkpt lat="36.883862065317985" lon="-3.317170144028016"><ele>658.0</ele><time>2026-04-22T15:09:41Z</time></trkpt><trkpt lat="36.88385614174942" lon="-3.317452021985164"><ele>660.5</ele><time>2026-04-22T15:09:42Z</time></trkpt><trkpt lat="36.88380042581687" lon="-3.317751391150562"><ele>663.0</ele><time>2026-04-22T15:09:43Z</time></trkpt><trkpt lat="36.883710446089864" lon="-3.3180549963841988"><ele>661.5</ele><time>2026-04-22T15:09:44Z</time></trkpt><trkpt lat="36.88361157469566" lon="-3.3183533121809905"><ele>660.0</ele><time>2026-04-22T15:09:45Z</time></trkpt><trkpt lat="36.88352024746434" lon="-3.318661148103601"><ele>656.5</ele><time>2026-04-22T15:09:46Z</time></trkpt><trkpt lat="36.883442663468486" lon="-3.3189755978132642"><ele>653.0</ele><time>2026-04-22T15:09:47Z</time></trkpt><trkpt lat="36.883385009355294" lon="-3.3193041942173274"><ele>663.0</ele><time>2026-04-22T15:09:48Z</time></trkpt><trkpt lat="36.8833536852925" lon="-3.319641485823373"><ele>673.0</ele><time>2026-04-22T15:09:49Z</time></trkpt><trkpt lat="36.88334033206251" lon="-3.3199836364344986"><ele>673.0</ele><time>2026-04-22T15:09:50Z</time></trkpt><trkpt lat="36.883341270812906" lon="-3.320317642656656"><ele>673.0</ele><time>2026-04-22T15:09:51Z</time></trkpt><trkpt lat="36.88335848542207" lon="-3.320632290526107"><ele>671.0</ele><time>2026-04-22T15:09:52Z</time></trkpt><trkpt lat="36.883379171778586" lon="-3.320928246611615"><ele>669.0</ele><time>2026-04-22T15:09:53Z</time></trkpt><trkpt lat="36.88339399296655" lon="-3.3212003798039906"><ele>667.6666666666666</ele><time>2026-04-22T15:09:54Z</time></trkpt><trkpt lat="36.88339259149836" lon="-3.321448071360037"><ele>666.3333333333333</ele><time>2026-04-22T15:09:55Z</time></trkpt><trkpt lat="36.883359036515024" lon="-3.32168926292396"><ele>665.0</ele><time>2026-04-22T15:09:56Z</time></trkpt><trkpt lat="36.88323951968016" lon="-3.3219501299907326"><ele>665.0</ele><time>2026-04-22T15:09:57Z</time></trkpt><trkpt lat="36.88308582119075" lon="-3.3221905583810774"><ele>665.0</ele><time>2026-04-22T15:09:58Z</time></trkpt><trkpt lat="36.88289410263028" lon="-3.322406569193108"><ele>668.0</ele><time>2026-04-22T15:09:59Z</time></trkpt><trkpt lat="36.88270914540484" lon="-3.322628916402595"><ele>671.0</ele><time>2026-04-22T15:10:00Z</time></trkpt><trkpt lat="36.88255183500938" lon="-3.322874172790264"><ele>663.0</ele><time>2026-04-22T15:10:01Z</time></trkpt><trkpt lat="36.882428672172814" lon="-3.323139148887992"><ele>655.0</ele><time>2026-04-22T15:10:02Z</time></trkpt><trkpt lat="36.882347179246864" lon="-3.3234076307297507"><ele>655.0</ele><time>2026-04-22T15:10:03Z</time></trkpt><trkpt lat="36.882294110231086" lon="-3.3236706225646775"><ele>655.0</ele><time>2026-04-22T15:10:04Z</time></trkpt><trkpt lat="36.882237623895016" lon="-3.3239161708788236"><ele>655.0</ele><time>2026-04-22T15:10:05Z</time></trkpt><trkpt lat="36.88216358975695" lon="-3.3241374008727114"><ele>653.0</ele><time>2026-04-22T15:10:06Z</time></trkpt><trkpt lat="36.882060336132284" lon="-3.3243415611303266"><ele>651.0</ele><time>2026-04-22T15:10:07Z</time></trkpt><trkpt lat="36.88191723689746" lon="-3.324515214929138"><ele>649.0</ele><time>2026-04-22T15:10:08Z</time></trkpt><trkpt lat="36.88175358419083" lon="-3.3246444675573428"><ele>646.6666666666667</ele><time>2026-04-22T15:10:09Z</time></trkpt><trkpt lat="36.88155993830102" lon="-3.324745075018574"><ele>644.3333333333334</ele><time>2026-04-22T15:10:10Z</time></trkpt><trkpt lat="36.88133921135505" lon="-3.3247909780482057"><ele>642.0</ele><time>2026-04-22T15:10:11Z</time></trkpt><trkpt lat="36.881121468239336" lon="-3.324767814392017"><ele>641.3333333333334</ele><time>2026-04-22T15:10:12Z</time></trkpt><trkpt lat="36.88090710334941" lon="-3.324737710817317"><ele>640.6666666666667</ele><time>2026-04-22T15:10:13Z</time></trkpt><trkpt lat="36.88070955875289" lon="-3.324636309616621"><ele>640.0</ele><time>2026-04-22T15:10:14Z</time></trkpt><trkpt lat="36.88049158685697" lon="-3.324497161660317"><ele>646.3333333333334</ele><time>2026-04-22T15:10:15Z</time></trkpt><trkpt lat="36.88029262756289" lon="-3.3243970016396003"><ele>652.6666666666666</ele><time>2026-04-22T15:10:16Z</time></trkpt><trkpt lat="36.88010660305069" lon="-3.3243541613600245"><ele>659.0</ele><time>2026-04-22T15:10:17Z</time></trkpt><trkpt lat="36.87991379419362" lon="-3.3243964372526698"><ele>659.0</ele><time>2026-04-22T15:10:18Z</time></trkpt><trkpt lat="36.879726523233785" lon="-3.324502907865828"><ele>659.0</ele><time>2026-04-22T15:10:19Z</time></trkpt><trkpt lat="36.87957344206382" lon="-3.3246665616157043"><ele>659.0</ele><time>2026-04-22T15:10:20Z</time></trkpt><trkpt lat="36.87945446189219" lon="-3.324877271041166"><ele>653.0</ele><time>2026-04-22T15:10:21Z</time></trkpt><trkpt lat="36.87937236097818" lon="-3.3251222589928737"><ele>647.0</ele><time>2026-04-22T15:10:22Z</time></trkpt><trkpt lat="36.87934217981918" lon="-3.3253959194513962"><ele>641.0</ele><time>2026-04-22T15:10:23Z</time></trkpt><trkpt lat="36.879371018471026" lon="-3.3256976509973097"><ele>641.0</ele><time>2026-04-22T15:10:24Z</time></trkpt><trkpt lat="36.87946710468793" lon="-3.325999486450635"><ele>641.0</ele><time>2026-04-22T15:10:25Z</time></trkpt><trkpt lat="36.87959679601126" lon="-3.3262839605898233"><ele>643.0</ele><time>2026-04-22T15:10:26Z</time></trkpt><trkpt lat="36.87969175654088" lon="-3.32655000172759"><ele>645.0</ele><time>2026-04-22T15:10:27Z</time></trkpt><trkpt lat="36.87975279008308" lon="-3.326808551232094"><ele>647.0</ele><time>2026-04-22T15:10:28Z</time></trkpt><trkpt lat="36.8797696011996" lon="-3.3270877501980944"><ele>644.0</ele><time>2026-04-22T15:10:29Z</time></trkpt><trkpt lat="36.87972705988673" lon="-3.3273615464862436"><ele>641.0</ele><time>2026-04-22T15:10:30Z</time></trkpt><trkpt lat="36.8796366982896" lon="-3.327613496682882"><ele>638.0</ele><time>2026-04-22T15:10:31Z</time></trkpt><trkpt lat="36.87949898744764" lon="-3.327844146059683"><ele>638.0</ele><time>2026-04-22T15:10:32Z</time></trkpt><trkpt lat="36.879339108810804" lon="-3.3280362489900854"><ele>638.0</ele><time>2026-04-22T15:10:33Z</time></trkpt><trkpt lat="36.87917063364274" lon="-3.328182145759851"><ele>638.0</ele><time>2026-04-22T15:10:34Z</time></trkpt><trkpt lat="36.87900919066386" lon="-3.3283078179187537"><ele>639.6666666666666</ele><time>2026-04-22T15:10:35Z</time></trkpt><trkpt lat="36.87887561481343" lon="-3.328430002171924"><ele>641.3333333333334</ele><time>2026-04-22T15:10:36Z</time></trkpt><trkpt lat="36.8787648951279" lon="-3.3285695762835337"><ele>643.0</ele><time>2026-04-22T15:10:37Z</time></trkpt><trkpt lat="36.878695183045245" lon="-3.328727896572218"><ele>640.3333333333334</ele><time>2026-04-22T15:10:38Z</time></trkpt><trkpt lat="36.878667455758006" lon="-3.328916069678589"><ele>637.6666666666666</ele><time>2026-04-22T15:10:39Z</time></trkpt><trkpt lat="36.8786872313701" lon="-3.329117057561573"><ele>635.0</ele><time>2026-04-22T15:10:40Z</time></trkpt><trkpt lat="36.87875913746841" lon="-3.329300028716211"><ele>635.0</ele><time>2026-04-22T15:10:40.999Z</time></trkpt><trkpt lat="36.87886965790511" lon="-3.3294556904101245"><ele>635.0</ele><time>2026-04-22T15:10:41.999Z</time></trkpt><trkpt lat="36.879000563108086" lon="-3.3295859538954"><ele>635.0</ele><time>2026-04-22T15:10:42.999Z</time></trkpt><trkpt lat="36.8791253586961" lon="-3.3297026240004537"><ele>633.6666666666666</ele><time>2026-04-22T15:10:43.999Z</time></trkpt><trkpt lat="36.87927253680762" lon="-3.3298120012853394"><ele>632.3333333333334</ele><time>2026-04-22T15:10:44.999Z</time></trkpt><trkpt lat="36.87941581639422" lon="-3.3299263145941578"><ele>631.0</ele><time>2026-04-22T15:10:45.999Z</time></trkpt><trkpt lat="36.879550147998785" lon="-3.330038372395395"><ele>631.0</ele><time>2026-04-22T15:10:46.999Z</time></trkpt><trkpt lat="36.879681947568336" lon="-3.3301502438799164"><ele>631.0</ele><time>2026-04-22T15:10:47.999Z</time></trkpt><trkpt lat="36.87980728963064" lon="-3.330282967794451"><ele>631.0</ele><time>2026-04-22T15:10:48.999Z</time></trkpt><trkpt lat="36.87991719370638" lon="-3.330435334598035"><ele>634.0</ele><time>2026-04-22T15:10:49.999Z</time></trkpt><trkpt lat="36.880006413392756" lon="-3.330598015116337"><ele>637.0</ele><time>2026-04-22T15:10:50.999Z</time></trkpt><trkpt lat="36.88005425089047" lon="-3.330786399522088"><ele>640.0</ele><time>2026-04-22T15:10:51.999Z</time></trkpt><trkpt lat="36.88008946788192" lon="-3.3309720335513635"><ele>640.0</ele><time>2026-04-22T15:10:52.999Z</time></trkpt><trkpt lat="36.880098969659926" lon="-3.3311634779043198"><ele>640.0</ele><time>2026-04-22T15:10:53.999Z</time></trkpt><trkpt lat="36.88007509690751" lon="-3.3313981752550874"><ele>640.0</ele><time>2026-04-22T15:10:54.999Z</time></trkpt><trkpt lat="36.88002081024301" lon="-3.3316880307734835"><ele>639.5</ele><time>2026-04-22T15:10:55.999Z</time></trkpt><trkpt lat="36.879963722956646" lon="-3.3319886004756096"><ele>639.0</ele><time>2026-04-22T15:10:56.999Z</time></trkpt><trkpt lat="36.879909934485894" lon="-3.332249288448293"><ele>637.0</ele><time>2026-04-22T15:10:57.999Z</time></trkpt><trkpt lat="36.879901944042665" lon="-3.332505383752943"><ele>635.0</ele><time>2026-04-22T15:10:58.999Z</time></trkpt><trkpt lat="36.879931461414344" lon="-3.3327722935494535"><ele>633.0</ele><time>2026-04-22T15:10:59.999Z</time></trkpt><trkpt lat="36.880019320784285" lon="-3.3330296151628915"><ele>618.5</ele><time>2026-04-22T15:11:00.999Z</time></trkpt><trkpt lat="36.880149991498364" lon="-3.3332862733819515"><ele>604.0</ele><time>2026-04-22T15:11:01.999Z</time></trkpt><trkpt lat="36.88028576031697" lon="-3.333536423510344"><ele>604.0</ele><time>2026-04-22T15:11:02.999Z</time></trkpt><trkpt lat="36.88042627998288" lon="-3.3337768008872395"><ele>604.0</ele><time>2026-04-22T15:11:03.999Z</time></trkpt><trkpt lat="36.8805304447787" lon="-3.3340238958015798"><ele>609.6666666666667</ele><time>2026-04-22T15:11:04.999Z</time></trkpt><trkpt lat="36.88058438505168" lon="-3.33428142875299"><ele>615.3333333333334</ele><time>2026-04-22T15:11:06Z</time></trkpt><trkpt lat="36.88058575813512" lon="-3.3345557321212858"><ele>621.0</ele><time>2026-04-22T15:11:07Z</time></trkpt><trkpt lat="36.880562044352715" lon="-3.3348358690100524"><ele>622.5</ele><time>2026-04-22T15:11:08Z</time></trkpt><trkpt lat="36.88048597671643" lon="-3.3351149882709907"><ele>624.0</ele><time>2026-04-22T15:11:09Z</time></trkpt><trkpt lat="36.88038480493311" lon="-3.3353893569177697"><ele>615.0</ele><time>2026-04-22T15:11:10Z</time></trkpt><trkpt lat="36.88028532594084" lon="-3.335672282458969"><ele>606.0</ele><time>2026-04-22T15:11:11Z</time></trkpt><trkpt lat="36.880259906135656" lon="-3.3359735900187766"><ele>606.0</ele><time>2026-04-22T15:11:12Z</time></trkpt><trkpt lat="36.88027264205648" lon="-3.3362935657829564"><ele>606.0</ele><time>2026-04-22T15:11:13Z</time></trkpt><trkpt lat="36.88029333646851" lon="-3.336617576728653"><ele>598.5</ele><time>2026-04-22T15:11:14Z</time></trkpt><trkpt lat="36.8803272182661" lon="-3.336915569411026"><ele>591.0</ele><time>2026-04-22T15:11:15Z</time></trkpt><trkpt lat="36.8803454267247" lon="-3.337195606462335"><ele>587.3333333333334</ele><time>2026-04-22T15:11:16Z</time></trkpt><trkpt lat="36.88034711805883" lon="-3.3374621265696387"><ele>583.6666666666667</ele><time>2026-04-22T15:11:17Z</time></trkpt><trkpt lat="36.88032866878355" lon="-3.337724421910192"><ele>580.0</ele><time>2026-04-22T15:11:18Z</time></trkpt><trkpt lat="36.88028852523087" lon="-3.3379953881647713"><ele>573.0</ele><time>2026-04-22T15:11:19Z</time></trkpt><trkpt lat="36.88021336592951" lon="-3.338258154175977"><ele>566.0</ele><time>2026-04-22T15:11:20Z</time></trkpt><trkpt lat="36.880114988152364" lon="-3.338516701780613"><ele>576.5</ele><time>2026-04-22T15:11:21Z</time></trkpt><trkpt lat="36.87999584104715" lon="-3.3387521188013825"><ele>587.0</ele><time>2026-04-22T15:11:22Z</time></trkpt><trkpt lat="36.8798427784692" lon="-3.338971462844724"><ele>587.0</ele><time>2026-04-22T15:11:23Z</time></trkpt><trkpt lat="36.87966950316593" lon="-3.3391740988926997"><ele>587.0</ele><time>2026-04-22T15:11:24Z</time></trkpt><trkpt lat="36.879481085731484" lon="-3.339358649935997"><ele>587.0</ele><time>2026-04-22T15:11:25Z</time></trkpt><trkpt lat="36.879299952894605" lon="-3.3395257803883216"><ele>587.0</ele><time>2026-04-22T15:11:26Z</time></trkpt><trkpt lat="36.879120055147204" lon="-3.3396652313996964"><ele>587.0</ele><time>2026-04-22T15:11:27Z</time></trkpt><trkpt lat="36.87894658405351" lon="-3.339786330205613"><ele>588.0</ele><time>2026-04-22T15:11:28Z</time></trkpt><trkpt lat="36.87879627981049" lon="-3.3399272108646687"><ele>589.0</ele><time>2026-04-22T15:11:29Z</time></trkpt><trkpt lat="36.87868856021034" lon="-3.340119424956214"><ele>590.0</ele><time>2026-04-22T15:11:30Z</time></trkpt><trkpt lat="36.87857306904152" lon="-3.340311472804335"><ele>590.0</ele><time>2026-04-22T15:11:31Z</time></trkpt><trkpt lat="36.87845671154909" lon="-3.340500594476989"><ele>590.0</ele><time>2026-04-22T15:11:32Z</time></trkpt><trkpt lat="36.87829700130102" lon="-3.340652691327821"><ele>590.0</ele><time>2026-04-22T15:11:33Z</time></trkpt><trkpt lat="36.878108113538545" lon="-3.3407505106894533"><ele>585.0</ele><time>2026-04-22T15:11:34Z</time></trkpt><trkpt lat="36.87788170220144" lon="-3.3407791209008413"><ele>580.0</ele><time>2026-04-22T15:11:35Z</time></trkpt><trkpt lat="36.87761805630137" lon="-3.3407632892160852"><ele>581.5</ele><time>2026-04-22T15:11:36Z</time></trkpt><trkpt lat="36.87733392229397" lon="-3.34075934361837"><ele>583.0</ele><time>2026-04-22T15:11:37Z</time></trkpt><trkpt lat="36.877048161664966" lon="-3.34076842813489"><ele>583.0</ele><time>2026-04-22T15:11:38Z</time></trkpt><trkpt lat="36.87679599315968" lon="-3.340773693216401"><ele>583.0</ele><time>2026-04-22T15:11:39Z</time></trkpt><trkpt lat="36.87657583409929" lon="-3.340799206627326"><ele>583.6666666666667</ele><time>2026-04-22T15:11:40Z</time></trkpt><trkpt lat="36.876367187369624" lon="-3.3408089591687316"><ele>584.3333333333334</ele><time>2026-04-22T15:11:41Z</time></trkpt><trkpt lat="36.87616904477358" lon="-3.340808156480267"><ele>585.0</ele><time>2026-04-22T15:11:42Z</time></trkpt><trkpt lat="36.875978805459184" lon="-3.3408654578207853"><ele>585.3333333333334</ele><time>2026-04-22T15:11:43Z</time></trkpt><trkpt lat="36.875797250938625" lon="-3.34096195665846"><ele>585.6666666666667</ele><time>2026-04-22T15:11:44Z</time></trkpt><trkpt lat="36.87564351926215" lon="-3.3411033247338815"><ele>586.0</ele><time>2026-04-22T15:11:45Z</time></trkpt><trkpt lat="36.87553379051704" lon="-3.3413155008204596"><ele>576.3333333333334</ele><time>2026-04-22T15:11:46Z</time></trkpt><trkpt lat="36.87542616836936" lon="-3.3415339213366453"><ele>566.6666666666666</ele><time>2026-04-22T15:11:47Z</time></trkpt><trkpt lat="36.875389748774346" lon="-3.3417857781691906"><ele>557.0</ele><time>2026-04-22T15:11:48Z</time></trkpt><trkpt lat="36.875388135583385" lon="-3.342043848399903"><ele>558.3333333333333</ele><time>2026-04-22T15:11:49Z</time></trkpt><trkpt lat="36.875415807380975" lon="-3.3422949449423056"><ele>559.6666666666666</ele><time>2026-04-22T15:11:50Z</time></trkpt><trkpt lat="36.87551462705096" lon="-3.3425394359098046"><ele>561.0</ele><time>2026-04-22T15:11:51Z</time></trkpt><trkpt lat="36.875664506777326" lon="-3.3427473249260053"><ele>561.0</ele><time>2026-04-22T15:11:52Z</time></trkpt><trkpt lat="36.875840050456354" lon="-3.3429178302490348"><ele>561.0</ele><time>2026-04-22T15:11:53Z</time></trkpt><trkpt lat="36.87604124826569" lon="-3.3430578714259416"><ele>572.5</ele><time>2026-04-22T15:11:54Z</time></trkpt><trkpt lat="36.87624708082227" lon="-3.343180429803484"><ele>584.0</ele><time>2026-04-22T15:11:55Z</time></trkpt><trkpt lat="36.87645497812268" lon="-3.3432838482885328"><ele>584.0</ele><time>2026-04-22T15:11:56Z</time></trkpt><trkpt lat="36.87664569558211" lon="-3.3433646904281953"><ele>584.0</ele><time>2026-04-22T15:11:57Z</time></trkpt><trkpt lat="36.87681565714501" lon="-3.3434343014888714"><ele>584.0</ele><time>2026-04-22T15:11:58Z</time></trkpt><trkpt lat="36.87699294366785" lon="-3.343425307807804"><ele>582.0</ele><time>2026-04-22T15:11:59Z</time></trkpt><trkpt lat="36.8771779696458" lon="-3.3433550253097177"><ele>580.0</ele><time>2026-04-22T15:12:00Z</time></trkpt><trkpt lat="36.877356191868785" lon="-3.3433080070221233"><ele>578.0</ele><time>2026-04-22T15:12:01Z</time></trkpt><trkpt lat="36.87753694919953" lon="-3.3432891989156532"><ele>577.6666666666666</ele><time>2026-04-22T15:12:02Z</time></trkpt><trkpt lat="36.87772366135143" lon="-3.343349489321104"><ele>577.3333333333334</ele><time>2026-04-22T15:12:03Z</time></trkpt><trkpt lat="36.87788415673203" lon="-3.3434688056264954"><ele>577.0</ele><time>2026-04-22T15:12:04Z</time></trkpt><trkpt lat="36.87806774689313" lon="-3.3434933690541846"><ele>577.0</ele><time>2026-04-22T15:12:05Z</time></trkpt><trkpt lat="36.878254537486704" lon="-3.3434060990117005"><ele>577.0</ele><time>2026-04-22T15:12:06Z</time></trkpt><trkpt lat="36.878468108096165" lon="-3.3433679110271632"><ele>577.0</ele><time>2026-04-22T15:12:07Z</time></trkpt><trkpt lat="36.878683176455546" lon="-3.343353530745089"><ele>577.6666666666667</ele><time>2026-04-22T15:12:08Z</time></trkpt><trkpt lat="36.87890462362284" lon="-3.3433874712863947"><ele>578.3333333333334</ele><time>2026-04-22T15:12:09Z</time></trkpt><trkpt lat="36.87910900692117" lon="-3.343387746946991"><ele>579.0</ele><time>2026-04-22T15:12:10Z</time></trkpt><trkpt lat="36.87928697112448" lon="-3.343330781530054"><ele>572.0</ele><time>2026-04-22T15:12:11Z</time></trkpt><trkpt lat="36.87944604663214" lon="-3.343197498025906"><ele>565.0</ele><time>2026-04-22T15:12:12Z</time></trkpt><trkpt lat="36.879603876236" lon="-3.3430279204662234"><ele>558.0</ele><time>2026-04-22T15:12:13Z</time></trkpt><trkpt lat="36.87976769234146" lon="-3.3429144756030698"><ele>558.0</ele><time>2026-04-22T15:12:14Z</time></trkpt><trkpt lat="36.87997320422543" lon="-3.3428483723411944"><ele>558.0</ele><time>2026-04-22T15:12:15Z</time></trkpt><trkpt lat="36.880206816511304" lon="-3.342823138192808"><ele>558.0</ele><time>2026-04-22T15:12:16Z</time></trkpt><trkpt lat="36.88042810070926" lon="-3.3427331283866"><ele>565.0</ele><time>2026-04-22T15:12:17Z</time></trkpt><trkpt lat="36.8806161848284" lon="-3.342605690835825"><ele>572.0</ele><time>2026-04-22T15:12:18Z</time></trkpt><trkpt lat="36.88080143364687" lon="-3.342483978763192"><ele>579.0</ele><time>2026-04-22T15:12:19Z</time></trkpt><trkpt lat="36.88100263283633" lon="-3.3423747247010036"><ele>585.0</ele><time>2026-04-22T15:12:20Z</time></trkpt><trkpt lat="36.8812190301793" lon="-3.3423420097653627"><ele>591.0</ele><time>2026-04-22T15:12:21Z</time></trkpt><trkpt lat="36.88143112046779" lon="-3.342300280023169"><ele>597.0</ele><time>2026-04-22T15:12:22Z</time></trkpt><trkpt lat="36.88161758992186" lon="-3.3421645986149118"><ele>583.5</ele><time>2026-04-22T15:12:23Z</time></trkpt><trkpt lat="36.88182282466326" lon="-3.3420409908805238"><ele>570.0</ele><time>2026-04-22T15:12:24Z</time></trkpt><trkpt lat="36.882030445058426" lon="-3.341937779845031"><ele>570.0</ele><time>2026-04-22T15:12:25Z</time></trkpt><trkpt lat="36.88225555051673" lon="-3.341884645923544"><ele>570.0</ele><time>2026-04-22T15:12:26Z</time></trkpt><trkpt lat="36.882453604274076" lon="-3.34179911468483"><ele>570.0</ele><time>2026-04-22T15:12:27Z</time></trkpt><trkpt lat="36.88264675883" lon="-3.3416982207327917"><ele>572.0</ele><time>2026-04-22T15:12:28Z</time></trkpt><trkpt lat="36.882855643851016" lon="-3.3416231181111367"><ele>574.0</ele><time>2026-04-22T15:12:29Z</time></trkpt><trkpt lat="36.883065238720285" lon="-3.3415835361676423"><ele>576.0</ele><time>2026-04-22T15:12:30Z</time></trkpt><trkpt lat="36.883265920010366" lon="-3.341588628966843"><ele>572.0</ele><time>2026-04-22T15:12:31Z</time></trkpt><trkpt lat="36.8834529660845" lon="-3.3416148653852056"><ele>568.0</ele><time>2026-04-22T15:12:32Z</time></trkpt><trkpt lat="36.88362657633556" lon="-3.3416628406281066"><ele>564.0</ele><time>2026-04-22T15:12:33Z</time></trkpt><trkpt lat="36.88379694917811" lon="-3.341730898867547"><ele>564.0</ele><time>2026-04-22T15:12:34Z</time></trkpt><trkpt lat="36.883971080615154" lon="-3.3418175305187003"><ele>564.0</ele><time>2026-04-22T15:12:35Z</time></trkpt><trkpt lat="36.88431933035571" lon="-3.3420786157774276"><ele>563.0</ele><time>2026-04-22T15:12:37Z</time></trkpt><trkpt lat="36.88446118284185" lon="-3.342255786134117"><ele>562.0</ele><time>2026-04-22T15:12:38Z</time></trkpt><trkpt lat="36.88456636062239" lon="-3.342480397851912"><ele>561.0</ele><time>2026-04-22T15:12:39Z</time></trkpt><trkpt lat="36.884648430514666" lon="-3.3427358894810784"><ele>561.0</ele><time>2026-04-22T15:12:40Z</time></trkpt><trkpt lat="36.88469465654962" lon="-3.3430229015266155"><ele>561.0</ele><time>2026-04-22T15:12:41Z</time></trkpt><trkpt lat="36.884715871734016" lon="-3.343318385077106"><ele>559.0</ele><time>2026-04-22T15:12:42Z</time></trkpt><trkpt lat="36.88474799656554" lon="-3.343620598252587"><ele>557.0</ele><time>2026-04-22T15:12:43Z</time></trkpt><trkpt lat="36.88484033806245" lon="-3.3439086651510648"><ele>562.5</ele><time>2026-04-22T15:12:44Z</time></trkpt><trkpt lat="36.88497154437115" lon="-3.3441668331274466"><ele>568.0</ele><time>2026-04-22T15:12:45Z</time></trkpt><trkpt lat="36.88512800076918" lon="-3.344445820536254"><ele>560.0</ele><time>2026-04-22T15:12:46Z</time></trkpt><trkpt lat="36.885308604203075" lon="-3.3447004797705535"><ele>552.0</ele><time>2026-04-22T15:12:47Z</time></trkpt><trkpt lat="36.88545394341079" lon="-3.3449511539778043"><ele>552.0</ele><time>2026-04-22T15:12:48Z</time></trkpt><trkpt lat="36.88555935304629" lon="-3.345189964362336"><ele>552.0</ele><time>2026-04-22T15:12:49Z</time></trkpt><trkpt lat="36.88564826593303" lon="-3.3454256293543647"><ele>552.0</ele><time>2026-04-22T15:12:50Z</time></trkpt><trkpt lat="36.88574093952049" lon="-3.345651960709906"><ele>546.6666666666666</ele><time>2026-04-22T15:12:51Z</time></trkpt><trkpt lat="36.88583886180681" lon="-3.3458727578131744"><ele>541.3333333333333</ele><time>2026-04-22T15:12:52Z</time></trkpt><trkpt lat="36.885926924199744" lon="-3.3460881755114027"><ele>536.0</ele><time>2026-04-22T15:12:53Z</time></trkpt><trkpt lat="36.886033719442366" lon="-3.3462878096569155"><ele>551.6666666666666</ele><time>2026-04-22T15:12:54Z</time></trkpt><trkpt lat="36.88616701155957" lon="-3.3464307341545387"><ele>567.3333333333334</ele><time>2026-04-22T15:12:55Z</time></trkpt><trkpt lat="36.88634238126333" lon="-3.346485643612976"><ele>583.0</ele><time>2026-04-22T15:12:56Z</time></trkpt><trkpt lat="36.88653232315092" lon="-3.346488804449684"><ele>583.0</ele><time>2026-04-22T15:12:57Z</time></trkpt><trkpt lat="36.88674859068404" lon="-3.346508355842808"><ele>583.0</ele><time>2026-04-22T15:12:58Z</time></trkpt><trkpt lat="36.886975753452546" lon="-3.346503271837432"><ele>583.0</ele><time>2026-04-22T15:12:59Z</time></trkpt><trkpt lat="36.88719643888222" lon="-3.346534555213646"><ele>577.6666666666667</ele><time>2026-04-22T15:13:00Z</time></trkpt><trkpt lat="36.88740585860234" lon="-3.3465869806100805"><ele>572.3333333333334</ele><time>2026-04-22T15:13:01Z</time></trkpt><trkpt lat="36.88759748393441" lon="-3.346649829913425"><ele>567.0</ele><time>2026-04-22T15:13:02Z</time></trkpt><trkpt lat="36.887793001937034" lon="-3.3467682245907633"><ele>567.6666666666666</ele><time>2026-04-22T15:13:03Z</time></trkpt><trkpt lat="36.8879717692962" lon="-3.346915558011323"><ele>568.3333333333333</ele><time>2026-04-22T15:13:04Z</time></trkpt><trkpt lat="36.88813682624519" lon="-3.347096289357301"><ele>569.0</ele><time>2026-04-22T15:13:05Z</time></trkpt><trkpt lat="36.88828093623719" lon="-3.3473008112033664"><ele>569.0</ele><time>2026-04-22T15:13:06Z</time></trkpt><trkpt lat="36.888386617203906" lon="-3.3475330878964074"><ele>569.0</ele><time>2026-04-22T15:13:07Z</time></trkpt><trkpt lat="36.88846180891171" lon="-3.347784794560449"><ele>569.0</ele><time>2026-04-22T15:13:08Z</time></trkpt><trkpt lat="36.888546479132756" lon="-3.348028444996178"><ele>576.5</ele><time>2026-04-22T15:13:09Z</time></trkpt><trkpt lat="36.88862786563591" lon="-3.3482565129754085"><ele>584.0</ele><time>2026-04-22T15:13:10Z</time></trkpt><trkpt lat="36.88848889965827" lon="-3.3485740089669087"><ele>583.0</ele><time>2026-04-22T15:13:11Z</time></trkpt><trkpt lat="36.88842258979747" lon="-3.348830371746286"><ele>582.0</ele><time>2026-04-22T15:13:12Z</time></trkpt><trkpt lat="36.88831668882202" lon="-3.3490812971020962"><ele>581.0</ele><time>2026-04-22T15:13:13Z</time></trkpt><trkpt lat="36.888188329009154" lon="-3.349324263640304"><ele>580.0</ele><time>2026-04-22T15:13:14Z</time></trkpt><trkpt lat="36.88806176946146" lon="-3.3495759133446326"><ele>579.0</ele><time>2026-04-22T15:13:15Z</time></trkpt><trkpt lat="36.887941924996845" lon="-3.3498236652254714"><ele>578.5</ele><time>2026-04-22T15:13:16Z</time></trkpt><trkpt lat="36.8878311689084" lon="-3.35007418560802"><ele>578.0</ele><time>2026-04-22T15:13:17Z</time></trkpt><trkpt lat="36.88773361775399" lon="-3.3503226322001773"><ele>579.0</ele><time>2026-04-22T15:13:18Z</time></trkpt><trkpt lat="36.887637323099796" lon="-3.3505677077040894"><ele>580.0</ele><time>2026-04-22T15:13:19Z</time></trkpt><trkpt lat="36.8875468462949" lon="-3.350824943589399"><ele>581.0</ele><time>2026-04-22T15:13:20Z</time></trkpt><trkpt lat="36.88745828175723" lon="-3.351081069917282"><ele>578.0</ele><time>2026-04-22T15:13:21Z</time></trkpt><trkpt lat="36.88737790555861" lon="-3.351347463641407"><ele>575.0</ele><time>2026-04-22T15:13:22Z</time></trkpt><trkpt lat="36.887308447126955" lon="-3.3516243127977203"><ele>572.0</ele><time>2026-04-22T15:13:23Z</time></trkpt><trkpt lat="36.88724332032156" lon="-3.3519010495497996"><ele>569.0</ele><time>2026-04-22T15:13:24Z</time></trkpt><trkpt lat="36.88718760385987" lon="-3.352187267165407"><ele>567.0</ele><time>2026-04-22T15:13:25Z</time></trkpt><trkpt lat="36.88713429199792" lon="-3.3524702859106323"><ele>565.0</ele><time>2026-04-22T15:13:26Z</time></trkpt><trkpt lat="36.887089127212356" lon="-3.352751289904234"><ele>565.0</ele><time>2026-04-22T15:13:27Z</time></trkpt><trkpt lat="36.88704260055001" lon="-3.3530284633119556"><ele>565.0</ele><time>2026-04-22T15:13:28Z</time></trkpt><trkpt lat="36.88699652941691" lon="-3.3532973484714836"><ele>565.0</ele><time>2026-04-22T15:13:29Z</time></trkpt><trkpt lat="36.88694219950216" lon="-3.353565409528259"><ele>564.6666666666667</ele><time>2026-04-22T15:13:30Z</time></trkpt><trkpt lat="36.88687225347195" lon="-3.353823081166306"><ele>564.3333333333334</ele><time>2026-04-22T15:13:31Z</time></trkpt><trkpt lat="36.886798008354425" lon="-3.3540736279754215"><ele>564.0</ele><time>2026-04-22T15:13:32Z</time></trkpt><trkpt lat="36.88670716202101" lon="-3.354311811090496"><ele>563.0</ele><time>2026-04-22T15:13:33Z</time></trkpt><trkpt lat="36.88660758862702" lon="-3.3545470823881565"><ele>562.0</ele><time>2026-04-22T15:13:34Z</time></trkpt><trkpt lat="36.886495137948074" lon="-3.3547702229494725"><ele>561.0</ele><time>2026-04-22T15:13:35Z</time></trkpt><trkpt lat="36.8863828848505" lon="-3.3549970386263257"><ele>561.0</ele><time>2026-04-22T15:13:36Z</time></trkpt><trkpt lat="36.88626924981803" lon="-3.3552262824942933"><ele>561.0</ele><time>2026-04-22T15:13:37Z</time></trkpt><trkpt lat="36.88616040417028" lon="-3.35545473362145"><ele>561.0</ele><time>2026-04-22T15:13:38Z</time></trkpt><trkpt lat="36.88605267141374" lon="-3.3556828617151773"><ele>556.0</ele><time>2026-04-22T15:13:39Z</time></trkpt><trkpt lat="36.88594756828256" lon="-3.3559098651439148"><ele>551.0</ele><time>2026-04-22T15:13:40Z</time></trkpt><trkpt lat="36.88584224288328" lon="-3.356133222682199"><ele>546.0</ele><time>2026-04-22T15:13:41Z</time></trkpt><trkpt lat="36.885738045517634" lon="-3.3563583310677476"><ele>549.6666666666666</ele><time>2026-04-22T15:13:42Z</time></trkpt><trkpt lat="36.88563707567257" lon="-3.3565784458029273"><ele>553.3333333333333</ele><time>2026-04-22T15:13:43Z</time></trkpt><trkpt lat="36.885528090559234" lon="-3.356793149175347"><ele>557.0</ele><time>2026-04-22T15:13:44Z</time></trkpt><trkpt lat="36.885415006348204" lon="-3.3570141021614908"><ele>553.0</ele><time>2026-04-22T15:13:45Z</time></trkpt><trkpt lat="36.885315800781996" lon="-3.3572505055967685"><ele>549.0</ele><time>2026-04-22T15:13:46Z</time></trkpt><trkpt lat="36.88521478776542" lon="-3.3575013947565404"><ele>545.0</ele><time>2026-04-22T15:13:47Z</time></trkpt><trkpt lat="36.88511578253869" lon="-3.35776186310496"><ele>555.0</ele><time>2026-04-22T15:13:48Z</time></trkpt><trkpt lat="36.8850190199257" lon="-3.3580287925875587"><ele>565.0</ele><time>2026-04-22T15:13:49Z</time></trkpt><trkpt lat="36.88491914926072" lon="-3.358293511628872"><ele>565.0</ele><time>2026-04-22T15:13:50Z</time></trkpt><trkpt lat="36.8848148597959" lon="-3.3585570272409524"><ele>565.0</ele><time>2026-04-22T15:13:51Z</time></trkpt><trkpt lat="36.88471881653287" lon="-3.3588301633280704"><ele>558.0</ele><time>2026-04-22T15:13:52Z</time></trkpt><trkpt lat="36.88462494970126" lon="-3.35911276717163"><ele>551.0</ele><time>2026-04-22T15:13:53Z</time></trkpt><trkpt lat="36.884533133897" lon="-3.359396408250171"><ele>551.0</ele><time>2026-04-22T15:13:54Z</time></trkpt><trkpt lat="36.88444652581278" lon="-3.3596777541013814"><ele>551.0</ele><time>2026-04-22T15:13:55Z</time></trkpt><trkpt lat="36.88435698857751" lon="-3.359955663293647"><ele>544.5</ele><time>2026-04-22T15:13:56Z</time></trkpt><trkpt lat="36.88427163814926" lon="-3.3602254136843874"><ele>538.0</ele><time>2026-04-22T15:13:57Z</time></trkpt><trkpt lat="36.88417982319426" lon="-3.360487627169108"><ele>550.5</ele><time>2026-04-22T15:13:58Z</time></trkpt><trkpt lat="36.884082173182996" lon="-3.360746425433632"><ele>563.0</ele><time>2026-04-22T15:13:59Z</time></trkpt><trkpt lat="36.883983767828134" lon="-3.361017065299678"><ele>563.0</ele><time>2026-04-22T15:14:00Z</time></trkpt><trkpt lat="36.88388425151727" lon="-3.3612861705475097"><ele>563.0</ele><time>2026-04-22T15:14:01Z</time></trkpt><trkpt lat="36.883767974153734" lon="-3.361551415827484"><ele>552.0</ele><time>2026-04-22T15:14:02Z</time></trkpt><trkpt lat="36.8835387608352" lon="-3.3620841292129993"><ele>568.0</ele><time>2026-04-22T15:14:04Z</time></trkpt><trkpt lat="36.883300461965675" lon="-3.3626123284747447"><ele>568.0</ele><time>2026-04-22T15:14:06Z</time></trkpt><trkpt lat="36.88317390132068" lon="-3.3628749635331707"><ele>568.0</ele><time>2026-04-22T15:14:07Z</time></trkpt><trkpt lat="36.88304675821081" lon="-3.363136879117337"><ele>560.0</ele><time>2026-04-22T15:14:08Z</time></trkpt><trkpt lat="36.88291319452782" lon="-3.3634042056067144"><ele>552.0</ele><time>2026-04-22T15:14:09Z</time></trkpt><trkpt lat="36.88278157470713" lon="-3.363665523107546"><ele>548.0</ele><time>2026-04-22T15:14:10Z</time></trkpt><trkpt lat="36.88265795957378" lon="-3.363924939731211"><ele>544.0</ele><time>2026-04-22T15:14:11Z</time></trkpt><trkpt lat="36.88253704550922" lon="-3.3641733721502747"><ele>558.0</ele><time>2026-04-22T15:14:12Z</time></trkpt><trkpt lat="36.88241815228844" lon="-3.3644223859994624"><ele>572.0</ele><time>2026-04-22T15:14:13Z</time></trkpt><trkpt lat="36.88229408551372" lon="-3.364662185070196"><ele>570.0</ele><time>2026-04-22T15:14:14Z</time></trkpt><trkpt lat="36.882179400957334" lon="-3.364895206380844"><ele>568.0</ele><time>2026-04-22T15:14:15Z</time></trkpt><trkpt lat="36.882065794493606" lon="-3.365123037566547"><ele>566.0</ele><time>2026-04-22T15:14:16Z</time></trkpt><trkpt lat="36.88195963821245" lon="-3.36534039699971"><ele>565.3333333333333</ele><time>2026-04-22T15:14:17Z</time></trkpt><trkpt lat="36.88185556417038" lon="-3.3655569468575313"><ele>564.6666666666666</ele><time>2026-04-22T15:14:18Z</time></trkpt><trkpt lat="36.88175377312611" lon="-3.3657713069190005"><ele>564.0</ele><time>2026-04-22T15:14:19Z</time></trkpt><trkpt lat="36.88164500902185" lon="-3.3659848439854545"><ele>564.0</ele><time>2026-04-22T15:14:20Z</time></trkpt><trkpt lat="36.881536566137" lon="-3.3662010912311633"><ele>564.0</ele><time>2026-04-22T15:14:21Z</time></trkpt><trkpt lat="36.88142345496921" lon="-3.366423908308311"><ele>564.0</ele><time>2026-04-22T15:14:22Z</time></trkpt><trkpt lat="36.88130690641391" lon="-3.3666531633274066"><ele>564.0</ele><time>2026-04-22T15:14:23Z</time></trkpt><trkpt lat="36.881193693824315" lon="-3.3668826864199017"><ele>564.0</ele><time>2026-04-22T15:14:24Z</time></trkpt><trkpt lat="36.88108420446473" lon="-3.367107958487179"><ele>564.0</ele><time>2026-04-22T15:14:25Z</time></trkpt><trkpt lat="36.8809701988724" lon="-3.367320670509536"><ele>565.0</ele><time>2026-04-22T15:14:26Z</time></trkpt><trkpt lat="36.88085265804443" lon="-3.3675323888369726"><ele>566.0</ele><time>2026-04-22T15:14:27Z</time></trkpt><trkpt lat="36.880720751663645" lon="-3.3677372019197893"><ele>567.0</ele><time>2026-04-22T15:14:28Z</time></trkpt><trkpt lat="36.88056870955119" lon="-3.3679298885024345"><ele>557.5</ele><time>2026-04-22T15:14:29Z</time></trkpt><trkpt lat="36.8804020874009" lon="-3.368115695556322"><ele>548.0</ele><time>2026-04-22T15:14:30Z</time></trkpt><trkpt lat="36.88022119884482" lon="-3.368291062387993"><ele>560.5</ele><time>2026-04-22T15:14:31Z</time></trkpt><trkpt lat="36.88002517680866" lon="-3.368443510902133"><ele>573.0</ele><time>2026-04-22T15:14:32Z</time></trkpt><trkpt lat="36.879837650733194" lon="-3.368607984544395"><ele>573.0</ele><time>2026-04-22T15:14:33Z</time></trkpt><trkpt lat="36.87964554246835" lon="-3.3687303770694554"><ele>573.0</ele><time>2026-04-22T15:14:34Z</time></trkpt><trkpt lat="36.879491063756625" lon="-3.368855805877312"><ele>573.0</ele><time>2026-04-22T15:14:35Z</time></trkpt><trkpt lat="36.87936603560566" lon="-3.368965629794955"><ele>571.0</ele><time>2026-04-22T15:14:36Z</time></trkpt><trkpt lat="36.87927517330741" lon="-3.369090208049198"><ele>569.0</ele><time>2026-04-22T15:14:37Z</time></trkpt><trkpt lat="36.87923985041713" lon="-3.3692367189297077"><ele>567.0</ele><time>2026-04-22T15:14:38Z</time></trkpt><trkpt lat="36.87925696474208" lon="-3.3693997521047514"><ele>565.0</ele><time>2026-04-22T15:14:39Z</time></trkpt><trkpt lat="36.879334243847424" lon="-3.369545093968018"><ele>562.0</ele><time>2026-04-22T15:14:40Z</time></trkpt><trkpt lat="36.87945247750736" lon="-3.369646220462614"><ele>559.0</ele><time>2026-04-22T15:14:41Z</time></trkpt><trkpt lat="36.879618392674644" lon="-3.3696931380296054"><ele>556.0</ele><time>2026-04-22T15:14:42Z</time></trkpt><trkpt lat="36.87981945096632" lon="-3.369690621354279"><ele>556.0</ele><time>2026-04-22T15:14:43Z</time></trkpt><trkpt lat="36.88005275581632" lon="-3.369684864820385"><ele>556.0</ele><time>2026-04-22T15:14:44Z</time></trkpt><trkpt lat="36.88029614435854" lon="-3.3696980893244923"><ele>567.6666666666667</ele><time>2026-04-22T15:14:45Z</time></trkpt><trkpt lat="36.88050706169589" lon="-3.369704476098272"><ele>579.3333333333334</ele><time>2026-04-22T15:14:46Z</time></trkpt><trkpt lat="36.8806964090624" lon="-3.369708359825262"><ele>591.0</ele><time>2026-04-22T15:14:47Z</time></trkpt><trkpt lat="36.88089374034155" lon="-3.369725035716958"><ele>586.6666666666666</ele><time>2026-04-22T15:14:48Z</time></trkpt><trkpt lat="36.88107291747358" lon="-3.3697592054462087"><ele>582.3333333333333</ele><time>2026-04-22T15:14:49Z</time></trkpt><trkpt lat="36.881245627226434" lon="-3.3698285094544813"><ele>578.0</ele><time>2026-04-22T15:14:50Z</time></trkpt><trkpt lat="36.88140400434691" lon="-3.369949483975578"><ele>578.0</ele><time>2026-04-22T15:14:51Z</time></trkpt><trkpt lat="36.88154601276343" lon="-3.370118780974617"><ele>578.0</ele><time>2026-04-22T15:14:52Z</time></trkpt><trkpt lat="36.88167226344283" lon="-3.370326915183739"><ele>578.0</ele><time>2026-04-22T15:14:53Z</time></trkpt><trkpt lat="36.8817555061675" lon="-3.370583611792917"><ele>585.3333333333333</ele><time>2026-04-22T15:14:54Z</time></trkpt><trkpt lat="36.881797489446704" lon="-3.3708262552315857"><ele>592.6666666666666</ele><time>2026-04-22T15:14:55Z</time></trkpt><trkpt lat="36.88180518193298" lon="-3.3710616163340474"><ele>600.0</ele><time>2026-04-22T15:14:56Z</time></trkpt><trkpt lat="36.88176710589728" lon="-3.3713046734948704"><ele>597.3333333333334</ele><time>2026-04-22T15:14:57Z</time></trkpt><trkpt lat="36.88168761627953" lon="-3.371556142929649"><ele>594.6666666666667</ele><time>2026-04-22T15:14:58Z</time></trkpt><trkpt lat="36.8815751125342" lon="-3.3717930583251547"><ele>592.0</ele><time>2026-04-22T15:14:59Z</time></trkpt><trkpt lat="36.8814128033942" lon="-3.372006068064812"><ele>588.6666666666667</ele><time>2026-04-22T15:15:00Z</time></trkpt><trkpt lat="36.881244895405366" lon="-3.372222897190084"><ele>585.3333333333334</ele><time>2026-04-22T15:15:01Z</time></trkpt><trkpt lat="36.88115593152523" lon="-3.3724350210500145"><ele>582.0</ele><time>2026-04-22T15:15:02Z</time></trkpt><trkpt lat="36.88109949319327" lon="-3.3726293167665564"><ele>582.0</ele><time>2026-04-22T15:15:03Z</time></trkpt><trkpt lat="36.881098402808746" lon="-3.3728536672654585"><ele>582.0</ele><time>2026-04-22T15:15:04Z</time></trkpt><trkpt lat="36.881149481740835" lon="-3.3730966705592285"><ele>582.0</ele><time>2026-04-22T15:15:05Z</time></trkpt><trkpt lat="36.88121930161532" lon="-3.373351930167634"><ele>585.6666666666666</ele><time>2026-04-22T15:15:06Z</time></trkpt><trkpt lat="36.881320644733876" lon="-3.3735955312107526"><ele>589.3333333333333</ele><time>2026-04-22T15:15:07Z</time></trkpt><trkpt lat="36.88139411183274" lon="-3.3738224652398943"><ele>593.0</ele><time>2026-04-22T15:15:08Z</time></trkpt><trkpt lat="36.8814283694126" lon="-3.374038715428995"><ele>596.6666666666666</ele><time>2026-04-22T15:15:09Z</time></trkpt><trkpt lat="36.881418541421226" lon="-3.3742504241083138"><ele>600.3333333333334</ele><time>2026-04-22T15:15:10Z</time></trkpt><trkpt lat="36.8813623941149" lon="-3.3744708597221913"><ele>604.0</ele><time>2026-04-22T15:15:11Z</time></trkpt><trkpt lat="36.88126367565629" lon="-3.374678444804245"><ele>602.6666666666667</ele><time>2026-04-22T15:15:12Z</time></trkpt><trkpt lat="36.88111750247359" lon="-3.374872546032024"><ele>601.3333333333334</ele><time>2026-04-22T15:15:13Z</time></trkpt><trkpt lat="36.880938002226024" lon="-3.3750503418880617"><ele>600.0</ele><time>2026-04-22T15:15:14Z</time></trkpt><trkpt lat="36.88072597687547" lon="-3.3752197714795615"><ele>600.0</ele><time>2026-04-22T15:15:15Z</time></trkpt><trkpt lat="36.88051489492121" lon="-3.375407490368425"><ele>600.0</ele><time>2026-04-22T15:15:16Z</time></trkpt><trkpt lat="36.880332624582685" lon="-3.3756010510933367"><ele>600.0</ele><time>2026-04-22T15:15:17Z</time></trkpt><trkpt lat="36.880176687418164" lon="-3.3758101457544587"><ele>600.0</ele><time>2026-04-22T15:15:17.995Z</time></trkpt><trkpt lat="36.88004956011522" lon="-3.376042634428627"><ele>603.0</ele><time>2026-04-22T15:15:18.995Z</time></trkpt><trkpt lat="36.87993587963214" lon="-3.3762909252939015"><ele>606.0</ele><time>2026-04-22T15:15:19.996Z</time></trkpt><trkpt lat="36.87983050287512" lon="-3.3765470230171055"><ele>606.0</ele><time>2026-04-22T15:15:20.996Z</time></trkpt><trkpt lat="36.87975469719392" lon="-3.3768059268716915"><ele>606.0</ele><time>2026-04-22T15:15:21.996Z</time></trkpt><trkpt lat="36.879678784877264" lon="-3.377037694018142"><ele>606.0</ele><time>2026-04-22T15:15:22.996Z</time></trkpt><trkpt lat="36.87957720422689" lon="-3.3772671202873066"><ele>600.5</ele><time>2026-04-22T15:15:23.996Z</time></trkpt><trkpt lat="36.87944690614909" lon="-3.3774928199176824"><ele>595.0</ele><time>2026-04-22T15:15:24.996Z</time></trkpt><trkpt lat="36.87928351149538" lon="-3.3777087330957096"><ele>601.0</ele><time>2026-04-22T15:15:25.996Z</time></trkpt><trkpt lat="36.87910467185443" lon="-3.377906302230323"><ele>607.0</ele><time>2026-04-22T15:15:26.996Z</time></trkpt><trkpt lat="36.87892066085099" lon="-3.378101660145858"><ele>607.0</ele><time>2026-04-22T15:15:27.996Z</time></trkpt><trkpt lat="36.87873909391179" lon="-3.3782990415505623"><ele>607.0</ele><time>2026-04-22T15:15:28.996Z</time></trkpt><trkpt lat="36.87857472919157" lon="-3.3785126439327464"><ele>610.3333333333334</ele><time>2026-04-22T15:15:29.996Z</time></trkpt><trkpt lat="36.8784233332063" lon="-3.378729736939285"><ele>613.6666666666666</ele><time>2026-04-22T15:15:30.996Z</time></trkpt><trkpt lat="36.87829258736873" lon="-3.3789276143356344"><ele>617.0</ele><time>2026-04-22T15:15:31.997Z</time></trkpt><trkpt lat="36.878178602146626" lon="-3.379099631350889"><ele>617.0</ele><time>2026-04-22T15:15:32.997Z</time></trkpt><trkpt lat="36.87807702303672" lon="-3.379258888259181"><ele>617.0</ele><time>2026-04-22T15:15:33.997Z</time></trkpt><trkpt lat="36.87799117865682" lon="-3.379411579389985"><ele>617.0</ele><time>2026-04-22T15:15:34.997Z</time></trkpt><trkpt lat="36.8779137429012" lon="-3.379548086601092"><ele>617.0</ele><time>2026-04-22T15:15:35.997Z</time></trkpt><trkpt lat="36.87782959353512" lon="-3.379659430302737"><ele>618.0</ele><time>2026-04-22T15:15:36.997Z</time></trkpt><trkpt lat="36.87772863396208" lon="-3.3797458738491595"><ele>619.0</ele><time>2026-04-22T15:15:37.997Z</time></trkpt><trkpt lat="36.87760791369225" lon="-3.3798123135309024"><ele>620.0</ele><time>2026-04-22T15:15:38.997Z</time></trkpt><trkpt lat="36.87748706956995" lon="-3.3798724082125933"><ele>621.0</ele><time>2026-04-22T15:15:39.997Z</time></trkpt><trkpt lat="36.87736318001051" lon="-3.379969910836018"><ele>621.0</ele><time>2026-04-22T15:15:40.997Z</time></trkpt><trkpt lat="36.87724797142601" lon="-3.3801114286997214"><ele>621.0</ele><time>2026-04-22T15:15:41.998Z</time></trkpt><trkpt lat="36.87714710697745" lon="-3.3803017809497637"><ele>621.0</ele><time>2026-04-22T15:15:42.998Z</time></trkpt><trkpt lat="36.87708528692882" lon="-3.3805329243480955"><ele>616.0</ele><time>2026-04-22T15:15:43.998Z</time></trkpt><trkpt lat="36.87696265081931" lon="-3.380703809522926"><ele>611.0</ele><time>2026-04-22T15:15:44.998Z</time></trkpt><trkpt lat="36.87684695546226" lon="-3.3809011921364704"><ele>606.0</ele><time>2026-04-22T15:15:45.998Z</time></trkpt><trkpt lat="36.87702246996156" lon="-3.381418025560836"><ele>603.5</ele><time>2026-04-22T15:15:46.998Z</time></trkpt><trkpt lat="36.8769913040113" lon="-3.3817305288078003"><ele>601.0</ele><time>2026-04-22T15:15:47.998Z</time></trkpt><trkpt lat="36.87695261155775" lon="-3.382037975108038"><ele>598.3333333333334</ele><time>2026-04-22T15:15:48.998Z</time></trkpt><trkpt lat="36.87691792695796" lon="-3.3823187971942397"><ele>595.6666666666666</ele><time>2026-04-22T15:15:49.998Z</time></trkpt><trkpt lat="36.87687756581519" lon="-3.3825853828220804"><ele>593.0</ele><time>2026-04-22T15:15:50.998Z</time></trkpt><trkpt lat="36.876840112932555" lon="-3.38285298178003"><ele>589.3333333333333</ele><time>2026-04-22T15:15:51.998Z</time></trkpt><trkpt lat="36.876810445105285" lon="-3.3831165663185625"><ele>585.6666666666666</ele><time>2026-04-22T15:15:52.998Z</time></trkpt><trkpt lat="36.876789043816345" lon="-3.383385774039367"><ele>582.0</ele><time>2026-04-22T15:15:53.998Z</time></trkpt><trkpt lat="36.87677248961507" lon="-3.3836578394758794"><ele>588.5</ele><time>2026-04-22T15:15:54.998Z</time></trkpt><trkpt lat="36.87676258805948" lon="-3.383938292170072"><ele>595.0</ele><time>2026-04-22T15:15:55.998Z</time></trkpt><trkpt lat="36.87676611582265" lon="-3.384234412916608"><ele>583.5</ele><time>2026-04-22T15:15:56.998Z</time></trkpt><trkpt lat="36.87676941417158" lon="-3.384535935984137"><ele>572.0</ele><time>2026-04-22T15:15:57.998Z</time></trkpt><trkpt lat="36.876780380623224" lon="-3.384841508598551"><ele>569.5</ele><time>2026-04-22T15:15:58.998Z</time></trkpt><trkpt lat="36.87679462215579" lon="-3.385152148020222"><ele>567.0</ele><time>2026-04-22T15:15:59.998Z</time></trkpt><trkpt lat="36.87681377813359" lon="-3.385463859122939"><ele>565.0</ele><time>2026-04-22T15:16:00.998Z</time></trkpt><trkpt lat="36.87682004711229" lon="-3.3857548968208935"><ele>563.0</ele><time>2026-04-22T15:16:01.998Z</time></trkpt><trkpt lat="36.876805538590105" lon="-3.3860426826670036"><ele>563.0</ele><time>2026-04-22T15:16:02.998Z</time></trkpt><trkpt lat="36.87677504489626" lon="-3.3863445204640246"><ele>563.0</ele><time>2026-04-22T15:16:03.998Z</time></trkpt><trkpt lat="36.87671402286737" lon="-3.386644474408856"><ele>566.0</ele><time>2026-04-22T15:16:04.998Z</time></trkpt><trkpt lat="36.876649779413555" lon="-3.3869498863015335"><ele>569.0</ele><time>2026-04-22T15:16:05.998Z</time></trkpt><trkpt lat="36.87658936848019" lon="-3.3872521312261363"><ele>569.0</ele><time>2026-04-22T15:16:06.998Z</time></trkpt><trkpt lat="36.87653855469009" lon="-3.3875532430652306"><ele>569.0</ele><time>2026-04-22T15:16:07.998Z</time></trkpt><trkpt lat="36.87650615827055" lon="-3.3878673702079145"><ele>567.5</ele><time>2026-04-22T15:16:08.998Z</time></trkpt><trkpt lat="36.87649516952695" lon="-3.388185392588728"><ele>566.0</ele><time>2026-04-22T15:16:09.999Z</time></trkpt><trkpt lat="36.8764982602816" lon="-3.3884981111775945"><ele>566.0</ele><time>2026-04-22T15:16:10.999Z</time></trkpt><trkpt lat="36.87651161928669" lon="-3.3887945434974642"><ele>566.0</ele><time>2026-04-22T15:16:11.999Z</time></trkpt><trkpt lat="36.87653067984693" lon="-3.3890792487809205"><ele>563.6666666666666</ele><time>2026-04-22T15:16:12.999Z</time></trkpt><trkpt lat="36.87654995999171" lon="-3.3893500845910367"><ele>561.3333333333334</ele><time>2026-04-22T15:16:13.999Z</time></trkpt><trkpt lat="36.876562673827415" lon="-3.389622870612983"><ele>559.0</ele><time>2026-04-22T15:16:14.999Z</time></trkpt><trkpt lat="36.8765455235104" lon="-3.3899005637514583"><ele>557.0</ele><time>2026-04-22T15:16:15.999Z</time></trkpt><trkpt lat="36.87649381510094" lon="-3.3901804128422017"><ele>555.0</ele><time>2026-04-22T15:16:16.999Z</time></trkpt><trkpt lat="36.87641327760279" lon="-3.390432272123109"><ele>553.0</ele><time>2026-04-22T15:16:17.999Z</time></trkpt><trkpt lat="36.876336068222884" lon="-3.3906505574808925"><ele>549.6666666666667</ele><time>2026-04-22T15:16:18.999Z</time></trkpt><trkpt lat="36.87629666441108" lon="-3.390868100138029"><ele>546.3333333333334</ele><time>2026-04-22T15:16:19.999Z</time></trkpt><trkpt lat="36.876307921362525" lon="-3.391108826806017"><ele>543.0</ele><time>2026-04-22T15:16:20.999Z</time></trkpt><trkpt lat="36.87638810176823" lon="-3.391353459762767"><ele>540.3333333333334</ele><time>2026-04-22T15:16:21.999Z</time></trkpt><trkpt lat="36.876486581681114" lon="-3.391555222702942"><ele>537.6666666666667</ele><time>2026-04-22T15:16:22.999Z</time></trkpt><trkpt lat="36.87654785739108" lon="-3.3917467045133236"><ele>535.0</ele><time>2026-04-22T15:16:23.999Z</time></trkpt><trkpt lat="36.8765451867427" lon="-3.3919477858685005"><ele>535.0</ele><time>2026-04-22T15:16:24.999Z</time></trkpt><trkpt lat="36.876481000922745" lon="-3.3921314565751053"><ele>535.0</ele><time>2026-04-22T15:16:25.999Z</time></trkpt><trkpt lat="36.87634673082203" lon="-3.392287957747093"><ele>535.0</ele><time>2026-04-22T15:16:26.999Z</time></trkpt><trkpt lat="36.876185221802665" lon="-3.392433430593556"><ele>538.0</ele><time>2026-04-22T15:16:27.999Z</time></trkpt><trkpt lat="36.876060362874775" lon="-3.3925756178943813"><ele>541.0</ele><time>2026-04-22T15:16:28.999Z</time></trkpt><trkpt lat="36.875969856461566" lon="-3.39272251809062"><ele>544.0</ele><time>2026-04-22T15:16:29.999Z</time></trkpt><trkpt lat="36.87592783861414" lon="-3.392902287949819"><ele>537.3333333333334</ele><time>2026-04-22T15:16:30.999Z</time></trkpt><trkpt lat="36.875966223915846" lon="-3.393101852020255"><ele>530.6666666666666</ele><time>2026-04-22T15:16:31.999Z</time></trkpt><trkpt lat="36.876045981215064" lon="-3.3932930784911672"><ele>524.0</ele><time>2026-04-22T15:16:32.999Z</time></trkpt><trkpt lat="36.876183392106924" lon="-3.3934398860144364"><ele>524.0</ele><time>2026-04-22T15:16:33.999Z</time></trkpt><trkpt lat="36.87636666989776" lon="-3.3935262793662084"><ele>524.0</ele><time>2026-04-22T15:16:34.999Z</time></trkpt><trkpt lat="36.87656860990808" lon="-3.3935585524047225"><ele>524.0</ele><time>2026-04-22T15:16:35.999Z</time></trkpt><trkpt lat="36.87675511685881" lon="-3.3935905317422224"><ele>516.3333333333333</ele><time>2026-04-22T15:16:36.999Z</time></trkpt><trkpt lat="36.876921274820795" lon="-3.3936424902465614"><ele>508.66666666666663</ele><time>2026-04-22T15:16:37.999Z</time></trkpt><trkpt lat="36.8770680771721" lon="-3.393748645258194"><ele>501.0</ele><time>2026-04-22T15:16:38.999Z</time></trkpt><trkpt lat="36.87718672619438" lon="-3.3938962292556987"><ele>501.0</ele><time>2026-04-22T15:16:39.999Z</time></trkpt><trkpt lat="36.877263455364044" lon="-3.3940672165283123"><ele>501.0</ele><time>2026-04-22T15:16:40.999Z</time></trkpt><trkpt lat="36.87730420240193" lon="-3.3942639401730825"><ele>501.0</ele><time>2026-04-22T15:16:41.999Z</time></trkpt><trkpt lat="36.877299180420685" lon="-3.3944745026187757"><ele>496.33333333333337</ele><time>2026-04-22T15:16:42.999Z</time></trkpt><trkpt lat="36.877240720627356" lon="-3.3946882135601713"><ele>491.6666666666667</ele><time>2026-04-22T15:16:43.999Z</time></trkpt><trkpt lat="36.87713314251317" lon="-3.394878475134073"><ele>487.0</ele><time>2026-04-22T15:16:44.999Z</time></trkpt><trkpt lat="36.87697157647268" lon="-3.3950354056865955"><ele>504.5</ele><time>2026-04-22T15:16:45.999Z</time></trkpt><trkpt lat="36.87676157906287" lon="-3.3951714788478813"><ele>522.0</ele><time>2026-04-22T15:16:46.999Z</time></trkpt><trkpt lat="36.87652792047507" lon="-3.395307849009543"><ele>522.0</ele><time>2026-04-22T15:16:47.999Z</time></trkpt><trkpt lat="36.87634986727395" lon="-3.3954391628939438"><ele>522.0</ele><time>2026-04-22T15:16:48.999Z</time></trkpt><trkpt lat="36.876213199271604" lon="-3.395559509256005"><ele>522.0</ele><time>2026-04-22T15:16:49.999Z</time></trkpt><trkpt lat="36.87609031061501" lon="-3.3956892129251552"><ele>511.0</ele><time>2026-04-22T15:16:50.999Z</time></trkpt><trkpt lat="36.87601693424898" lon="-3.3958724841853964"><ele>500.0</ele><time>2026-04-22T15:16:51.999Z</time></trkpt><trkpt lat="36.87596765509629" lon="-3.396076156916275"><ele>489.0</ele><time>2026-04-22T15:16:52.999Z</time></trkpt><trkpt lat="36.8759796273023" lon="-3.3962904565194023"><ele>489.33333333333337</ele><time>2026-04-22T15:16:53.999Z</time></trkpt><trkpt lat="36.87604321709908" lon="-3.396486559039164"><ele>489.6666666666667</ele><time>2026-04-22T15:16:54.999Z</time></trkpt><trkpt lat="36.87616319839825" lon="-3.396655363226929"><ele>490.0</ele><time>2026-04-22T15:16:55.999Z</time></trkpt><trkpt lat="36.87632997884032" lon="-3.3967574677430052"><ele>490.0</ele><time>2026-04-22T15:16:56.999Z</time></trkpt><trkpt lat="36.87651834123987" lon="-3.396794595262032"><ele>490.0</ele><time>2026-04-22T15:16:57.999Z</time></trkpt><trkpt lat="36.87672224617993" lon="-3.3967959942590076"><ele>490.0</ele><time>2026-04-22T15:16:58.999Z</time></trkpt><trkpt lat="36.87692888683739" lon="-3.3967981976400434"><ele>484.33333333333337</ele><time>2026-04-22T15:16:59.999Z</time></trkpt><trkpt lat="36.87712795274107" lon="-3.3968125315003745"><ele>478.66666666666663</ele><time>2026-04-22T15:17:00.999Z</time></trkpt><trkpt lat="36.877319849153004" lon="-3.3968792496186473"><ele>473.0</ele><time>2026-04-22T15:17:01.999Z</time></trkpt><trkpt lat="36.8775047541113" lon="-3.3969877812314695"><ele>469.66666666666663</ele><time>2026-04-22T15:17:02.999Z</time></trkpt><trkpt lat="36.8776755323348" lon="-3.3971074698637955"><ele>466.33333333333337</ele><time>2026-04-22T15:17:03.999Z</time></trkpt><trkpt lat="36.87787265145323" lon="-3.397173787693953"><ele>463.0</ele><time>2026-04-22T15:17:04.999Z</time></trkpt><trkpt lat="36.878075892159934" lon="-3.3971818936780283"><ele>463.0</ele><time>2026-04-22T15:17:05.999Z</time></trkpt><trkpt lat="36.87829755625608" lon="-3.397152088828428"><ele>463.0</ele><time>2026-04-22T15:17:06.999Z</time></trkpt><trkpt lat="36.87852808684458" lon="-3.397118130427594"><ele>460.0</ele><time>2026-04-22T15:17:07.999Z</time></trkpt><trkpt lat="36.878743194509646" lon="-3.397073680954384"><ele>457.0</ele><time>2026-04-22T15:17:08.999Z</time></trkpt><trkpt lat="36.87894242833864" lon="-3.3970500804306076"><ele>454.0</ele><time>2026-04-22T15:17:09.999Z</time></trkpt><trkpt lat="36.87913270508094" lon="-3.3970394893909464"><ele>457.33333333333337</ele><time>2026-04-22T15:17:10.999Z</time></trkpt><trkpt lat="36.87932388014917" lon="-3.397053813512553"><ele>460.66666666666663</ele><time>2026-04-22T15:17:11.999Z</time></trkpt><trkpt lat="36.87951823130561" lon="-3.397104067722379"><ele>464.0</ele><time>2026-04-22T15:17:12.999Z</time></trkpt><trkpt lat="36.87969658646403" lon="-3.3971837528927487"><ele>464.0</ele><time>2026-04-22T15:17:13.999Z</time></trkpt><trkpt lat="36.87984711737777" lon="-3.397316817931902"><ele>464.0</ele><time>2026-04-22T15:17:14.999Z</time></trkpt><trkpt lat="36.87997591408636" lon="-3.3974767781946595"><ele>464.0</ele><time>2026-04-22T15:17:15.999Z</time></trkpt><trkpt lat="36.88005738158842" lon="-3.3976685635899826"><ele>462.3333333333333</ele><time>2026-04-22T15:17:16.999Z</time></trkpt><trkpt lat="36.880104673538206" lon="-3.397885712918865"><ele>460.66666666666663</ele><time>2026-04-22T15:17:17.999Z</time></trkpt><trkpt lat="36.880106546399986" lon="-3.3981070715240738"><ele>459.0</ele><time>2026-04-22T15:17:18.999Z</time></trkpt><trkpt lat="36.88005467862211" lon="-3.3983301290977286"><ele>459.0</ele><time>2026-04-22T15:17:19.999Z</time></trkpt><trkpt lat="36.879947131530244" lon="-3.3985487176159315"><ele>459.0</ele><time>2026-04-22T15:17:20.999Z</time></trkpt><trkpt lat="36.87981461928381" lon="-3.3987802074794384"><ele>459.0</ele><time>2026-04-22T15:17:21.999Z</time></trkpt><trkpt lat="36.879691785062334" lon="-3.3989995620347773"><ele>453.66666666666663</ele><time>2026-04-22T15:17:22.999Z</time></trkpt><trkpt lat="36.87957166381787" lon="-3.3991806064592796"><ele>448.3333333333333</ele><time>2026-04-22T15:17:23.998Z</time></trkpt><trkpt lat="36.879434314968435" lon="-3.399319984694448"><ele>443.0</ele><time>2026-04-22T15:17:24.998Z</time></trkpt><trkpt lat="36.87927147836752" lon="-3.399397817076395"><ele>447.66666666666663</ele><time>2026-04-22T15:17:25.998Z</time></trkpt><trkpt lat="36.879076025521016" lon="-3.399417950330163"><ele>452.33333333333337</ele><time>2026-04-22T15:17:26.998Z</time></trkpt><trkpt lat="36.87886529589902" lon="-3.3993911905298373"><ele>457.0</ele><time>2026-04-22T15:17:27.998Z</time></trkpt><trkpt lat="36.878664356429816" lon="-3.3993913483506573"><ele>457.0</ele><time>2026-04-22T15:17:28.998Z</time></trkpt><trkpt lat="36.87848204853434" lon="-3.399496821338682"><ele>457.0</ele><time>2026-04-22T15:17:29.998Z</time></trkpt><trkpt lat="36.87831970111229" lon="-3.3996548386390106"><ele>457.0</ele><time>2026-04-22T15:17:30.998Z</time></trkpt><trkpt lat="36.87815811584175" lon="-3.39983639409016"><ele>451.6666666666667</ele><time>2026-04-22T15:17:31.998Z</time></trkpt><trkpt lat="36.878010456347546" lon="-3.4000055893503376"><ele>446.33333333333337</ele><time>2026-04-22T15:17:32.998Z</time></trkpt><trkpt lat="36.877872860603446" lon="-3.400160163398694"><ele>441.0</ele><time>2026-04-22T15:17:33.998Z</time></trkpt><trkpt lat="36.8777526909403" lon="-3.4003049345899847"><ele>441.0</ele><time>2026-04-22T15:17:34.998Z</time></trkpt><trkpt lat="36.877694110093046" lon="-3.4004766004320146"><ele>441.0</ele><time>2026-04-22T15:17:35.998Z</time></trkpt><trkpt lat="36.87766590383687" lon="-3.4006446043295404"><ele>441.0</ele><time>2026-04-22T15:17:36.998Z</time></trkpt><trkpt lat="36.87769177240025" lon="-3.40081761577129"><ele>441.0</ele><time>2026-04-22T15:17:37.998Z</time></trkpt><trkpt lat="36.877775208373514" lon="-3.4009597098900146"><ele>439.66666666666663</ele><time>2026-04-22T15:17:38.999Z</time></trkpt><trkpt lat="36.877929146662154" lon="-3.4010036676722897"><ele>438.3333333333333</ele><time>2026-04-22T15:17:39.999Z</time></trkpt><trkpt lat="36.87811252514517" lon="-3.401028107335685"><ele>437.0</ele><time>2026-04-22T15:17:40.999Z</time></trkpt><trkpt lat="36.878372485511" lon="-3.401066606807598"><ele>430.0</ele><time>2026-04-22T15:17:41.999Z</time></trkpt><trkpt lat="36.87861021579953" lon="-3.4011210816205866"><ele>423.0</ele><time>2026-04-22T15:17:42.999Z</time></trkpt><trkpt lat="36.878825841982376" lon="-3.4012110331355454"><ele>420.0</ele><time>2026-04-22T15:17:43.999Z</time></trkpt><trkpt lat="36.87905524322721" lon="-3.401335158844456"><ele>417.0</ele><time>2026-04-22T15:17:44.999Z</time></trkpt><trkpt lat="36.87927090195183" lon="-3.4014833740773156"><ele>417.0</ele><time>2026-04-22T15:17:45.999Z</time></trkpt><trkpt lat="36.87945427131093" lon="-3.401644106198273"><ele>417.0</ele><time>2026-04-22T15:17:46.999Z</time></trkpt><trkpt lat="36.87962834879381" lon="-3.4018265123522156"><ele>417.0</ele><time>2026-04-22T15:17:47.999Z</time></trkpt><trkpt lat="36.87979536283037" lon="-3.4020329647968497"><ele>417.0</ele><time>2026-04-22T15:17:48.999Z</time></trkpt><trkpt lat="36.879936857760036" lon="-3.402270301802098"><ele>422.5</ele><time>2026-04-22T15:17:49.999Z</time></trkpt><trkpt lat="36.88006641007886" lon="-3.4025214771364163"><ele>428.0</ele><time>2026-04-22T15:17:50.999Z</time></trkpt><trkpt lat="36.880198150926596" lon="-3.4027595972105606"><ele>420.0</ele><time>2026-04-22T15:17:51.999Z</time></trkpt><trkpt lat="36.88033061457053" lon="-3.4029909697674943"><ele>412.0</ele><time>2026-04-22T15:17:52.999Z</time></trkpt><trkpt lat="36.880462956583614" lon="-3.4032185366927665"><ele>412.0</ele><time>2026-04-22T15:17:53.999Z</time></trkpt><trkpt lat="36.88059054228751" lon="-3.4034346202849766"><ele>412.0</ele><time>2026-04-22T15:17:54.999Z</time></trkpt><trkpt lat="36.880725757551836" lon="-3.403652175454702"><ele>412.0</ele><time>2026-04-22T15:17:55.999Z</time></trkpt><trkpt lat="36.88087284939965" lon="-3.403855472182972"><ele>408.33333333333337</ele><time>2026-04-22T15:17:56.999Z</time></trkpt><trkpt lat="36.88102784903541" lon="-3.404033256428827"><ele>404.66666666666663</ele><time>2026-04-22T15:17:57.999Z</time></trkpt><trkpt lat="36.88119456340459" lon="-3.4041940291325705"><ele>401.0</ele><time>2026-04-22T15:17:58.999Z</time></trkpt><trkpt lat="36.8813678657877" lon="-3.40434019100188"><ele>401.0</ele><time>2026-04-22T15:17:59.999Z</time></trkpt><trkpt lat="36.881552780769006" lon="-3.404474529801806"><ele>401.0</ele><time>2026-04-22T15:18:00.999Z</time></trkpt><trkpt lat="36.88175117747091" lon="-3.404604810111487"><ele>401.0</ele><time>2026-04-22T15:18:01.999Z</time></trkpt><trkpt lat="36.88197326683357" lon="-3.404708056833864"><ele>400.5</ele><time>2026-04-22T15:18:02.999Z</time></trkpt><trkpt lat="36.882195551789046" lon="-3.404832501253357"><ele>400.0</ele><time>2026-04-22T15:18:04Z</time></trkpt><trkpt lat="36.882425662738655" lon="-3.404961509734564"><ele>391.0</ele><time>2026-04-22T15:18:05Z</time></trkpt><trkpt lat="36.88265765474707" lon="-3.405090920754131"><ele>382.0</ele><time>2026-04-22T15:18:06Z</time></trkpt><trkpt lat="36.88288373445877" lon="-3.405216754978801"><ele>382.0</ele><time>2026-04-22T15:18:07Z</time></trkpt><trkpt lat="36.883100122472065" lon="-3.40535964111193"><ele>382.0</ele><time>2026-04-22T15:18:08Z</time></trkpt><trkpt lat="36.883317222192765" lon="-3.4054721534504875"><ele>381.0</ele><time>2026-04-22T15:18:09Z</time></trkpt><trkpt lat="36.88352926686953" lon="-3.4055878033622426"><ele>380.0</ele><time>2026-04-22T15:18:10Z</time></trkpt><trkpt lat="36.88373793125576" lon="-3.4057022969651096"><ele>380.0</ele><time>2026-04-22T15:18:11Z</time></trkpt><trkpt lat="36.88392603455027" lon="-3.405823979361231"><ele>380.0</ele><time>2026-04-22T15:18:12Z</time></trkpt><trkpt lat="36.88410645872181" lon="-3.4059712868856074"><ele>380.0</ele><time>2026-04-22T15:18:13Z</time></trkpt><trkpt lat="36.88428119218752" lon="-3.4061560958937633"><ele>371.5</ele><time>2026-04-22T15:18:14Z</time></trkpt><trkpt lat="36.884437247540376" lon="-3.40637484176405"><ele>363.0</ele><time>2026-04-22T15:18:15Z</time></trkpt><trkpt lat="36.884579876080146" lon="-3.406617072498874"><ele>363.0</ele><time>2026-04-22T15:18:16Z</time></trkpt><trkpt lat="36.884693182795644" lon="-3.406881685096537"><ele>363.0</ele><time>2026-04-22T15:18:17Z</time></trkpt><trkpt lat="36.884783093568096" lon="-3.4071606667558725"><ele>364.5</ele><time>2026-04-22T15:18:18Z</time></trkpt><trkpt lat="36.88484353695341" lon="-3.407457605080825"><ele>366.0</ele><time>2026-04-22T15:18:19Z</time></trkpt><trkpt lat="36.8848717507013" lon="-3.40777697705505"><ele>361.0</ele><time>2026-04-22T15:18:20Z</time></trkpt><trkpt lat="36.88486365580015" lon="-3.408105327674301"><ele>356.0</ele><time>2026-04-22T15:18:21Z</time></trkpt><trkpt lat="36.88482947667158" lon="-3.408445589388195"><ele>356.0</ele><time>2026-04-22T15:18:22Z</time></trkpt><trkpt lat="36.88477538407448" lon="-3.4087929851745358"><ele>356.0</ele><time>2026-04-22T15:18:23Z</time></trkpt><trkpt lat="36.88473188074109" lon="-3.4091102666787116"><ele>350.6666666666667</ele><time>2026-04-22T15:18:24Z</time></trkpt><trkpt lat="36.88470321007634" lon="-3.4093802981491206"><ele>345.3333333333333</ele><time>2026-04-22T15:18:25Z</time></trkpt><trkpt lat="36.884698778101736" lon="-3.4096367414025437"><ele>340.0</ele><time>2026-04-22T15:18:26Z</time></trkpt><trkpt lat="36.88470944008342" lon="-3.409880143258592"><ele>339.3333333333333</ele><time>2026-04-22T15:18:27Z</time></trkpt><trkpt lat="36.884736157583355" lon="-3.4101176203953654"><ele>338.6666666666667</ele><time>2026-04-22T15:18:28Z</time></trkpt><trkpt lat="36.884766136560216" lon="-3.4103505814184207"><ele>338.0</ele><time>2026-04-22T15:18:29Z</time></trkpt><trkpt lat="36.88479494571298" lon="-3.4105821803803478"><ele>338.0</ele><time>2026-04-22T15:18:30Z</time></trkpt><trkpt lat="36.884825975816696" lon="-3.410812304507378"><ele>338.0</ele><time>2026-04-22T15:18:31Z</time></trkpt><trkpt lat="36.88484937378273" lon="-3.4110383357670058"><ele>338.0</ele><time>2026-04-22T15:18:32Z</time></trkpt><trkpt lat="36.884869686623276" lon="-3.411279477925859"><ele>336.6666666666667</ele><time>2026-04-22T15:18:33Z</time></trkpt><trkpt lat="36.88488698473382" lon="-3.4115323519603926"><ele>335.3333333333333</ele><time>2026-04-22T15:18:34Z</time></trkpt><trkpt lat="36.88491626749819" lon="-3.4117671993668317"><ele>334.0</ele><time>2026-04-22T15:18:35Z</time></trkpt><trkpt lat="36.88493471340788" lon="-3.411979291162453"><ele>330.3333333333333</ele><time>2026-04-22T15:18:36Z</time></trkpt><trkpt lat="36.88479118639999" lon="-3.412190761073142"><ele>326.6666666666667</ele><time>2026-04-22T15:18:37Z</time></trkpt><trkpt lat="36.884683011538556" lon="-3.412371084469911"><ele>323.0</ele><time>2026-04-22T15:18:38Z</time></trkpt><trkpt lat="36.88452361297491" lon="-3.41250957865237"><ele>323.0</ele><time>2026-04-22T15:18:39Z</time></trkpt><trkpt lat="36.884343343233766" lon="-3.4126302239754334"><ele>323.0</ele><time>2026-04-22T15:18:40Z</time></trkpt><trkpt lat="36.884169263463654" lon="-3.412728056905579"><ele>323.0</ele><time>2026-04-22T15:18:41Z</time></trkpt><trkpt lat="36.88400588664734" lon="-3.412827702040549"><ele>320.33333333333337</ele><time>2026-04-22T15:18:42Z</time></trkpt><trkpt lat="36.88386659514395" lon="-3.4129737416996706"><ele>317.6666666666667</ele><time>2026-04-22T15:18:43Z</time></trkpt><trkpt lat="36.88377630408633" lon="-3.413189113835202"><ele>315.0</ele><time>2026-04-22T15:18:44Z</time></trkpt><trkpt lat="36.883712148557144" lon="-3.41342685327191"><ele>315.0</ele><time>2026-04-22T15:18:45Z</time></trkpt><trkpt lat="36.88365437456975" lon="-3.4136591647452765"><ele>315.0</ele><time>2026-04-22T15:18:46Z</time></trkpt><trkpt lat="36.883617033638565" lon="-3.413892746014325"><ele>315.0</ele><time>2026-04-22T15:18:47Z</time></trkpt><trkpt lat="36.88357152453497" lon="-3.414116206762007"><ele>313.3333333333333</ele><time>2026-04-22T15:18:48Z</time></trkpt><trkpt lat="36.88352566232199" lon="-3.4143328972227325"><ele>311.66666666666663</ele><time>2026-04-22T15:18:49Z</time></trkpt><trkpt lat="36.88348797968263" lon="-3.414527296008246"><ele>310.0</ele><time>2026-04-22T15:18:50Z</time></trkpt><trkpt lat="36.88344915304725" lon="-3.4147121115331025"><ele>314.75</ele><time>2026-04-22T15:18:51Z</time></trkpt><trkpt lat="36.8834146218514" lon="-3.4148760787895514"><ele>319.5</ele><time>2026-04-22T15:18:52Z</time></trkpt><trkpt lat="36.88338622303917" lon="-3.4150292159834144"><ele>324.25</ele><time>2026-04-22T15:18:53Z</time></trkpt><trkpt lat="36.88335604907907" lon="-3.4151818585460934"><ele>329.0</ele><time>2026-04-22T15:18:54Z</time></trkpt><trkpt lat="36.883331039070015" lon="-3.4153315372129347"><ele>330.0</ele><time>2026-04-22T15:18:55Z</time></trkpt><trkpt lat="36.883322652406264" lon="-3.415497236662876"><ele>331.0</ele><time>2026-04-22T15:18:56Z</time></trkpt><trkpt lat="36.88331178321592" lon="-3.415638385024449"><ele>332.0</ele><time>2026-04-22T15:18:57Z</time></trkpt><trkpt lat="36.883298810186695" lon="-3.4157901473828973"><ele>333.0</ele><time>2026-04-22T15:18:58Z</time></trkpt><trkpt lat="36.883303643893115" lon="-3.415932731183289"><ele>333.0</ele><time>2026-04-22T15:18:59Z</time></trkpt><trkpt lat="36.883350401207224" lon="-3.4161267506565998"><ele>333.0</ele><time>2026-04-22T15:19:00Z</time></trkpt><trkpt lat="36.88339432999819" lon="-3.4162881350993235"><ele>333.0</ele><time>2026-04-22T15:19:01Z</time></trkpt><trkpt lat="36.88342169552757" lon="-3.41646720643128"><ele>333.0</ele><time>2026-04-22T15:19:02Z</time></trkpt><trkpt lat="36.88344099142115" lon="-3.416639947105551"><ele>326.75</ele><time>2026-04-22T15:19:03Z</time></trkpt><trkpt lat="36.883459192486626" lon="-3.416813488898368"><ele>320.5</ele><time>2026-04-22T15:19:04Z</time></trkpt><trkpt lat="36.883475839223074" lon="-3.4169840416463306"><ele>314.25</ele><time>2026-04-22T15:19:05Z</time></trkpt><trkpt lat="36.88349415373481" lon="-3.417155455861951"><ele>308.0</ele><time>2026-04-22T15:19:06.001Z</time></trkpt><trkpt lat="36.883519208022264" lon="-3.4173255972795653"><ele>308.0</ele><time>2026-04-22T15:19:07.001Z</time></trkpt><trkpt lat="36.88354386790588" lon="-3.4174916914462665"><ele>308.0</ele><time>2026-04-22T15:19:08.001Z</time></trkpt><trkpt lat="36.88356149512346" lon="-3.4176576321265326"><ele>308.0</ele><time>2026-04-22T15:19:09.001Z</time></trkpt><trkpt lat="36.88356174000551" lon="-3.417822928498843"><ele>308.0</ele><time>2026-04-22T15:19:10.001Z</time></trkpt><trkpt lat="36.88351571315376" lon="-3.417975522983441"><ele>309.0</ele><time>2026-04-22T15:19:11.001Z</time></trkpt><trkpt lat="36.88342782649443" lon="-3.4180999571238"><ele>310.0</ele><time>2026-04-22T15:19:12.001Z</time></trkpt><trkpt lat="36.88330157112076" lon="-3.4181886446523135"><ele>311.0</ele><time>2026-04-22T15:19:13.001Z</time></trkpt><trkpt lat="36.88314670263421" lon="-3.4182324892227123"><ele>312.0</ele><time>2026-04-22T15:19:14.001Z</time></trkpt><trkpt lat="36.88299581340895" lon="-3.418228849893567"><ele>312.0</ele><time>2026-04-22T15:19:15.001Z</time></trkpt><trkpt lat="36.88283955220042" lon="-3.4181613550762355"><ele>312.0</ele><time>2026-04-22T15:19:16.001Z</time></trkpt><trkpt lat="36.88268766527748" lon="-3.418033054616694"><ele>312.0</ele><time>2026-04-22T15:19:17.001Z</time></trkpt><trkpt lat="36.88253660267218" lon="-3.4179070054226868"><ele>316.0</ele><time>2026-04-22T15:19:18.001Z</time></trkpt><trkpt lat="36.88238537410696" lon="-3.4177704980600034"><ele>320.0</ele><time>2026-04-22T15:19:19.001Z</time></trkpt><trkpt lat="36.88226430015071" lon="-3.417601299286817"><ele>324.0</ele><time>2026-04-22T15:19:20.001Z</time></trkpt><trkpt lat="36.882155574951895" lon="-3.417410249579297"><ele>324.0</ele><time>2026-04-22T15:19:21.001Z</time></trkpt><trkpt lat="36.88206365721274" lon="-3.417218452058362"><ele>324.0</ele><time>2026-04-22T15:19:22.001Z</time></trkpt><trkpt lat="36.88197687745648" lon="-3.417050844983663"><ele>324.0</ele><time>2026-04-22T15:19:23.001Z</time></trkpt><trkpt lat="36.881898258148446" lon="-3.4168977579237025"><ele>323.3333333333333</ele><time>2026-04-22T15:19:24.001Z</time></trkpt><trkpt lat="36.881793767437166" lon="-3.4167588567166556"><ele>322.66666666666663</ele><time>2026-04-22T15:19:25.001Z</time></trkpt><trkpt lat="36.88166195791607" lon="-3.4166602565248096"><ele>322.0</ele><time>2026-04-22T15:19:26.001Z</time></trkpt><trkpt lat="36.88149379345175" lon="-3.416633410971151"><ele>322.0</ele><time>2026-04-22T15:19:27.001Z</time></trkpt><trkpt lat="36.88131975784745" lon="-3.4166693868191205"><ele>322.0</ele><time>2026-04-22T15:19:28.001Z</time></trkpt><trkpt lat="36.881154263451656" lon="-3.416695255047449"><ele>322.0</ele><time>2026-04-22T15:19:29.001Z</time></trkpt><trkpt lat="36.88098874120554" lon="-3.416636708289299"><ele>324.3333333333333</ele><time>2026-04-22T15:19:30Z</time></trkpt><trkpt lat="36.88081895110209" lon="-3.416505630381774"><ele>326.6666666666667</ele><time>2026-04-22T15:19:31Z</time></trkpt><trkpt lat="36.880645695965015" lon="-3.416360167878031"><ele>329.0</ele><time>2026-04-22T15:19:32Z</time></trkpt><trkpt lat="36.88047684509474" lon="-3.416279467951919"><ele>340.0</ele><time>2026-04-22T15:19:33Z</time></trkpt><trkpt lat="36.88032256939808" lon="-3.416246547714958"><ele>351.0</ele><time>2026-04-22T15:19:34Z</time></trkpt><trkpt lat="36.88016974590558" lon="-3.416228597818928"><ele>362.0</ele><time>2026-04-22T15:19:35Z</time></trkpt><trkpt lat="36.88001934270463" lon="-3.4162321607363877"><ele>362.6666666666667</ele><time>2026-04-22T15:19:36Z</time></trkpt><trkpt lat="36.87987023374503" lon="-3.4163051977573544"><ele>363.3333333333333</ele><time>2026-04-22T15:19:37Z</time></trkpt><trkpt lat="36.87973329696931" lon="-3.416430298941023"><ele>364.0</ele><time>2026-04-22T15:19:38Z</time></trkpt><trkpt lat="36.879612093895204" lon="-3.4165555215169374"><ele>363.0</ele><time>2026-04-22T15:19:39Z</time></trkpt><trkpt lat="36.87951963431111" lon="-3.416686894493276"><ele>362.0</ele><time>2026-04-22T15:19:40Z</time></trkpt><trkpt lat="36.879466275317576" lon="-3.4168486253119394"><ele>361.0</ele><time>2026-04-22T15:19:41Z</time></trkpt><trkpt lat="36.87948496946815" lon="-3.417040681365326"><ele>360.0</ele><time>2026-04-22T15:19:42Z</time></trkpt><trkpt lat="36.879488454957475" lon="-3.417236246320633"><ele>360.0</ele><time>2026-04-22T15:19:43Z</time></trkpt><trkpt lat="36.879488452192106" lon="-3.4174348153164904"><ele>360.0</ele><time>2026-04-22T15:19:44Z</time></trkpt><trkpt lat="36.87950375626126" lon="-3.417639929674837"><ele>360.0</ele><time>2026-04-22T15:19:45Z</time></trkpt><trkpt lat="36.879504563426515" lon="-3.417850262212654"><ele>362.3333333333333</ele><time>2026-04-22T15:19:46Z</time></trkpt><trkpt lat="36.87950605801488" lon="-3.418057468514201"><ele>364.66666666666663</ele><time>2026-04-22T15:19:47Z</time></trkpt><trkpt lat="36.87952257601954" lon="-3.418267701350221"><ele>367.0</ele><time>2026-04-22T15:19:48Z</time></trkpt><trkpt lat="36.879552676275914" lon="-3.418466347719416"><ele>367.0</ele><time>2026-04-22T15:19:49Z</time></trkpt><trkpt lat="36.879603097841304" lon="-3.4186611264480655"><ele>367.0</ele><time>2026-04-22T15:19:50Z</time></trkpt><trkpt lat="36.87967581958997" lon="-3.418839927394426"><ele>367.0</ele><time>2026-04-22T15:19:51Z</time></trkpt><trkpt lat="36.87976253637718" lon="-3.419009066085228"><ele>365.25</ele><time>2026-04-22T15:19:52Z</time></trkpt><trkpt lat="36.87984390017818" lon="-3.419163563823225"><ele>363.5</ele><time>2026-04-22T15:19:53Z</time></trkpt><trkpt lat="36.87991115729281" lon="-3.419318906915238"><ele>361.75</ele><time>2026-04-22T15:19:54Z</time></trkpt><trkpt lat="36.87995497004437" lon="-3.419473476903988"><ele>360.0</ele><time>2026-04-22T15:19:55Z</time></trkpt><trkpt lat="36.87998042312141" lon="-3.419641355625296"><ele>358.0</ele><time>2026-04-22T15:19:56Z</time></trkpt><trkpt lat="36.87998139227729" lon="-3.419817260168394"><ele>356.0</ele><time>2026-04-22T15:19:57Z</time></trkpt><trkpt lat="36.879963530398534" lon="-3.4199876491567878"><ele>354.0</ele><time>2026-04-22T15:19:58Z</time></trkpt><trkpt lat="36.87993571824105" lon="-3.4201570932733674"><ele>352.0</ele><time>2026-04-22T15:19:59Z</time></trkpt><trkpt lat="36.87991607670504" lon="-3.420314957981336"><ele>352.0</ele><time>2026-04-22T15:20:00Z</time></trkpt><trkpt lat="36.87990468755779" lon="-3.4204717216324387"><ele>352.0</ele><time>2026-04-22T15:20:01Z</time></trkpt><trkpt lat="36.87990604619123" lon="-3.4206183255496376"><ele>352.0</ele><time>2026-04-22T15:20:02Z</time></trkpt><trkpt lat="36.879909677824834" lon="-3.4207647685083473"><ele>352.0</ele><time>2026-04-22T15:20:03Z</time></trkpt><trkpt lat="36.87990333182765" lon="-3.4209237081598287"><ele>348.25</ele><time>2026-04-22T15:20:04Z</time></trkpt><trkpt lat="36.87988500183098" lon="-3.4210843624047276"><ele>344.5</ele><time>2026-04-22T15:20:05Z</time></trkpt><trkpt lat="36.87984170457445" lon="-3.4212376730480862"><ele>340.75</ele><time>2026-04-22T15:20:06Z</time></trkpt><trkpt lat="36.87977090676689" lon="-3.4213920521292747"><ele>337.0</ele><time>2026-04-22T15:20:07Z</time></trkpt><trkpt lat="36.879681942163224" lon="-3.421549331403655"><ele>331.3333333333333</ele><time>2026-04-22T15:20:08Z</time></trkpt><trkpt lat="36.87955783148617" lon="-3.421725203880719"><ele>325.6666666666667</ele><time>2026-04-22T15:20:09Z</time></trkpt><trkpt lat="36.87944809621925" lon="-3.4218725178212424"><ele>320.0</ele><time>2026-04-22T15:20:10Z</time></trkpt><trkpt lat="36.87934555850816" lon="-3.421978224433106"><ele>328.5</ele><time>2026-04-22T15:20:11Z</time></trkpt><trkpt lat="36.87924867847688" lon="-3.422062869590722"><ele>337.0</ele><time>2026-04-22T15:20:12Z</time></trkpt><trkpt lat="36.87917071705036" lon="-3.422176466856102"><ele>345.5</ele><time>2026-04-22T15:20:13Z</time></trkpt><trkpt lat="36.87908888737014" lon="-3.42229585924301"><ele>354.0</ele><time>2026-04-22T15:20:14Z</time></trkpt><trkpt lat="36.87900362903481" lon="-3.4224310540170153"><ele>354.0</ele><time>2026-04-22T15:20:15Z</time></trkpt><trkpt lat="36.878946205884326" lon="-3.422602128740885"><ele>354.0</ele><time>2026-04-22T15:20:16Z</time></trkpt><trkpt lat="36.87891446773174" lon="-3.422789114070899"><ele>354.0</ele><time>2026-04-22T15:20:17Z</time></trkpt><trkpt lat="36.87888678259771" lon="-3.4229833714829843"><ele>349.3333333333333</ele><time>2026-04-22T15:20:18Z</time></trkpt><trkpt lat="36.87886853837702" lon="-3.4231836537030227"><ele>344.66666666666663</ele><time>2026-04-22T15:20:19Z</time></trkpt><trkpt lat="36.87885472401252" lon="-3.4233886322524425"><ele>340.0</ele><time>2026-04-22T15:20:20Z</time></trkpt><trkpt lat="36.8788383654943" lon="-3.4235838226608073"><ele>340.0</ele><time>2026-04-22T15:20:21Z</time></trkpt><trkpt lat="36.87882101004868" lon="-3.423750617323429"><ele>340.0</ele><time>2026-04-22T15:20:22Z</time></trkpt><trkpt lat="36.87880449210263" lon="-3.4239013470218302"><ele>340.0</ele><time>2026-04-22T15:20:23Z</time></trkpt><trkpt lat="36.87880170072561" lon="-3.424046067189083"><ele>340.0</ele><time>2026-04-22T15:20:24Z</time></trkpt><trkpt lat="36.87882816112145" lon="-3.424169692746582"><ele>343.0</ele><time>2026-04-22T15:20:25.001Z</time></trkpt><trkpt lat="36.878907756026884" lon="-3.4242514040021117"><ele>346.0</ele><time>2026-04-22T15:20:26.001Z</time></trkpt><trkpt lat="36.8789750224548" lon="-3.4243571990516033"><ele>349.0</ele><time>2026-04-22T15:20:27.001Z</time></trkpt><trkpt lat="36.879060016621935" lon="-3.4244540996446062"><ele>352.0</ele><time>2026-04-22T15:20:28.001Z</time></trkpt><trkpt lat="36.87913359684462" lon="-3.42455924535268"><ele>355.0</ele><time>2026-04-22T15:20:29.001Z</time></trkpt><trkpt lat="36.87919470139544" lon="-3.4246777891761795"><ele>358.5</ele><time>2026-04-22T15:20:30.001Z</time></trkpt><trkpt lat="36.87923176004312" lon="-3.424805179301308"><ele>362.0</ele><time>2026-04-22T15:20:31.001Z</time></trkpt><trkpt lat="36.87923173249483" lon="-3.4249530497820286"><ele>365.5</ele><time>2026-04-22T15:20:32.001Z</time></trkpt><trkpt lat="36.87919657437152" lon="-3.425090635345705"><ele>369.0</ele><time>2026-04-22T15:20:33.001Z</time></trkpt><trkpt lat="36.879130018112996" lon="-3.4252113195186364"><ele>369.0</ele><time>2026-04-22T15:20:34.001Z</time></trkpt><trkpt lat="36.87900915555904" lon="-3.4253586904267017"><ele>369.0</ele><time>2026-04-22T15:20:35.001Z</time></trkpt><trkpt lat="36.87886785203949" lon="-3.4255279861917387"><ele>369.0</ele><time>2026-04-22T15:20:36.001Z</time></trkpt><trkpt lat="36.87875295623325" lon="-3.425653666625662"><ele>367.25</ele><time>2026-04-22T15:20:37.001Z</time></trkpt><trkpt lat="36.878689503545715" lon="-3.4257684942239015"><ele>365.5</ele><time>2026-04-22T15:20:38.001Z</time></trkpt><trkpt lat="36.87870846775514" lon="-3.4259313931259805"><ele>363.75</ele><time>2026-04-22T15:20:39.001Z</time></trkpt><trkpt lat="36.878814721046524" lon="-3.426077467245288"><ele>362.0</ele><time>2026-04-22T15:20:40.001Z</time></trkpt><trkpt lat="36.87895110912249" lon="-3.426252677352853"><ele>365.0</ele><time>2026-04-22T15:20:41.001Z</time></trkpt><trkpt lat="36.879116439303075" lon="-3.426451443038624"><ele>368.0</ele><time>2026-04-22T15:20:42.001Z</time></trkpt><trkpt lat="36.87924682884163" lon="-3.426631955402219"><ele>371.0</ele><time>2026-04-22T15:20:43.001Z</time></trkpt><trkpt lat="36.87931978174972" lon="-3.4268077663824315"><ele>374.0</ele><time>2026-04-22T15:20:44.001Z</time></trkpt><trkpt lat="36.87932842294984" lon="-3.426999217579823"><ele>377.0</ele><time>2026-04-22T15:20:45.001Z</time></trkpt><trkpt lat="36.87929930948442" lon="-3.4272211258052985"><ele>380.0</ele><time>2026-04-22T15:20:46.001Z</time></trkpt><trkpt lat="36.87923989034884" lon="-3.427494055186042"><ele>380.0</ele><time>2026-04-22T15:20:47.001Z</time></trkpt><trkpt lat="36.8791804493814" lon="-3.427811671440316"><ele>380.0</ele><time>2026-04-22T15:20:48.001Z</time></trkpt><trkpt lat="36.87912706227075" lon="-3.4281133264474097"><ele>379.0</ele><time>2026-04-22T15:20:49.001Z</time></trkpt><trkpt lat="36.87908676600318" lon="-3.4283828949993485"><ele>378.0</ele><time>2026-04-22T15:20:50.001Z</time></trkpt><trkpt lat="36.87911027650649" lon="-3.4286498527022387"><ele>377.0</ele><time>2026-04-22T15:20:51.001Z</time></trkpt><trkpt lat="36.87914778503591" lon="-3.4288946925933383"><ele>376.6666666666667</ele><time>2026-04-22T15:20:52.001Z</time></trkpt><trkpt lat="36.87917186689718" lon="-3.4291171473011457"><ele>376.3333333333333</ele><time>2026-04-22T15:20:53.001Z</time></trkpt><trkpt lat="36.879176884531525" lon="-3.4293366802749636"><ele>376.0</ele><time>2026-04-22T15:20:54.001Z</time></trkpt><trkpt lat="36.87917524701035" lon="-3.4295558739037837"><ele>376.66666666666663</ele><time>2026-04-22T15:20:55.001Z</time></trkpt><trkpt lat="36.87916878268616" lon="-3.429771705645309"><ele>377.3333333333333</ele><time>2026-04-22T15:20:56.001Z</time></trkpt><trkpt lat="36.879170144918646" lon="-3.4299903161180665"><ele>378.0</ele><time>2026-04-22T15:20:57.001Z</time></trkpt><trkpt lat="36.87917589175637" lon="-3.4302069177282806"><ele>378.0</ele><time>2026-04-22T15:20:58.001Z</time></trkpt><trkpt lat="36.87918240014558" lon="-3.43042308354235"><ele>378.0</ele><time>2026-04-22T15:20:59.001Z</time></trkpt><trkpt lat="36.87918636088393" lon="-3.430611981470477"><ele>378.0</ele><time>2026-04-22T15:21:00.001Z</time></trkpt><trkpt lat="36.879173821837824" lon="-3.4307745349433567"><ele>378.0</ele><time>2026-04-22T15:21:01.001Z</time></trkpt><trkpt lat="36.87912127467064" lon="-3.43091111504342"><ele>378.0</ele><time>2026-04-22T15:21:02.001Z</time></trkpt><trkpt lat="36.87902415046485" lon="-3.431014455125545"><ele>378.0</ele><time>2026-04-22T15:21:03.001Z</time></trkpt><trkpt lat="36.87889208040816" lon="-3.4310447824000776"><ele>378.0</ele><time>2026-04-22T15:21:04.001Z</time></trkpt><trkpt lat="36.878741487261856" lon="-3.431040285046574"><ele>378.0</ele><time>2026-04-22T15:21:05.001Z</time></trkpt><trkpt lat="36.87862036850394" lon="-3.4310362966133554"><ele>378.0</ele><time>2026-04-22T15:21:06.001Z</time></trkpt><trkpt lat="36.87848232403456" lon="-3.4310380671613254"><ele>378.0</ele><time>2026-04-22T15:21:07.001Z</time></trkpt><trkpt lat="36.878275142374235" lon="-3.431029185659929"><ele>382.25</ele><time>2026-04-22T15:21:08.001Z</time></trkpt><trkpt lat="36.87811817435907" lon="-3.431038515953447"><ele>386.5</ele><time>2026-04-22T15:21:09.001Z</time></trkpt><trkpt lat="36.87797843895159" lon="-3.4310417462870664"><ele>390.75</ele><time>2026-04-22T15:21:10.001Z</time></trkpt><trkpt lat="36.87783770225985" lon="-3.431043116830286"><ele>395.0</ele><time>2026-04-22T15:21:11.001Z</time></trkpt><trkpt lat="36.87769846648975" lon="-3.431060182706159"><ele>394.5</ele><time>2026-04-22T15:21:12.001Z</time></trkpt><trkpt lat="36.87758193189799" lon="-3.4311143933059105"><ele>394.0</ele><time>2026-04-22T15:21:13.001Z</time></trkpt><trkpt lat="36.87750308648283" lon="-3.431223495023417"><ele>393.5</ele><time>2026-04-22T15:21:14.001Z</time></trkpt><trkpt lat="36.877476413129735" lon="-3.4313878142567926"><ele>393.0</ele><time>2026-04-22T15:21:15.001Z</time></trkpt><trkpt lat="36.87750504267249" lon="-3.431578826400011"><ele>393.0</ele><time>2026-04-22T15:21:16.001Z</time></trkpt><trkpt lat="36.877576023718106" lon="-3.431785293092279"><ele>393.0</ele><time>2026-04-22T15:21:17.001Z</time></trkpt><trkpt lat="36.877619959155844" lon="-3.4319952625730767"><ele>393.0</ele><time>2026-04-22T15:21:18.001Z</time></trkpt><trkpt lat="36.87759024139918" lon="-3.4321778969026644"><ele>388.3333333333333</ele><time>2026-04-22T15:21:19.001Z</time></trkpt><trkpt lat="36.877517791403655" lon="-3.432364814867444"><ele>383.66666666666663</ele><time>2026-04-22T15:21:20.001Z</time></trkpt><trkpt lat="36.87741080677664" lon="-3.432544629743773"><ele>379.0</ele><time>2026-04-22T15:21:21.001Z</time></trkpt><trkpt lat="36.8772864600634" lon="-3.432712567134522"><ele>379.0</ele><time>2026-04-22T15:21:22.001Z</time></trkpt><trkpt lat="36.877162740991665" lon="-3.4328921703958204"><ele>379.0</ele><time>2026-04-22T15:21:23.001Z</time></trkpt><trkpt lat="36.87705163169897" lon="-3.433070992795001"><ele>379.0</ele><time>2026-04-22T15:21:24.001Z</time></trkpt><trkpt lat="36.87694204660807" lon="-3.433233997053428"><ele>382.0</ele><time>2026-04-22T15:21:25.001Z</time></trkpt><trkpt lat="36.87683076367905" lon="-3.4333878078068563"><ele>385.0</ele><time>2026-04-22T15:21:26.001Z</time></trkpt><trkpt lat="36.87670229583761" lon="-3.4335296365228314"><ele>388.0</ele><time>2026-04-22T15:21:27.001Z</time></trkpt><trkpt lat="36.876566984218094" lon="-3.433651331264481"><ele>379.0</ele><time>2026-04-22T15:21:28.001Z</time></trkpt><trkpt lat="36.87644932992687" lon="-3.433815446114334"><ele>370.0</ele><time>2026-04-22T15:21:29.001Z</time></trkpt><trkpt lat="36.876384397319356" lon="-3.434001594984874"><ele>361.0</ele><time>2026-04-22T15:21:30.001Z</time></trkpt><trkpt lat="36.87634565877736" lon="-3.4341722477908676"><ele>361.0</ele><time>2026-04-22T15:21:31.001Z</time></trkpt><trkpt lat="36.87627170632313" lon="-3.4343117411383646"><ele>361.0</ele><time>2026-04-22T15:21:32.001Z</time></trkpt><trkpt lat="36.87615984632409" lon="-3.4343875206690364"><ele>361.0</ele><time>2026-04-22T15:21:33.001Z</time></trkpt><trkpt lat="36.87601567920188" lon="-3.434380828655951"><ele>361.0</ele><time>2026-04-22T15:21:34.001Z</time></trkpt><trkpt lat="36.875840235940125" lon="-3.4343456533891223"><ele>367.0</ele><time>2026-04-22T15:21:35.001Z</time></trkpt><trkpt lat="36.87565010823413" lon="-3.4342656668806555"><ele>373.0</ele><time>2026-04-22T15:21:36.001Z</time></trkpt><trkpt lat="36.87545840772058" lon="-3.4341913726581685"><ele>379.0</ele><time>2026-04-22T15:21:37.001Z</time></trkpt><trkpt lat="36.875336099573026" lon="-3.434159395799103"><ele>379.0</ele><time>2026-04-22T15:21:38.001Z</time></trkpt><trkpt lat="36.875155893915995" lon="-3.434095173211486"><ele>379.0</ele><time>2026-04-22T15:21:39.001Z</time></trkpt><trkpt lat="36.87498525284425" lon="-3.4340456005332394"><ele>379.0</ele><time>2026-04-22T15:21:40.001Z</time></trkpt><trkpt lat="36.87481888233606" lon="-3.4340124441473763"><ele>376.0</ele><time>2026-04-22T15:21:41.001Z</time></trkpt><trkpt lat="36.87466005979498" lon="-3.4339942705812896"><ele>373.0</ele><time>2026-04-22T15:21:42.001Z</time></trkpt><trkpt lat="36.87451058130385" lon="-3.433997218456516"><ele>370.0</ele><time>2026-04-22T15:21:43.001Z</time></trkpt><trkpt lat="36.87438662852561" lon="-3.434050900502847"><ele>367.0</ele><time>2026-04-22T15:21:44.001Z</time></trkpt><trkpt lat="36.87431304964714" lon="-3.4341394051940037"><ele>367.0</ele><time>2026-04-22T15:21:45.001Z</time></trkpt><trkpt lat="36.87427621285361" lon="-3.434244459382948"><ele>367.0</ele><time>2026-04-22T15:21:46.001Z</time></trkpt><trkpt lat="36.87428389541096" lon="-3.434384194986729"><ele>367.0</ele><time>2026-04-22T15:21:47.001Z</time></trkpt><trkpt lat="36.87436644472331" lon="-3.4344903934426636"><ele>367.0</ele><time>2026-04-22T15:21:48.001Z</time></trkpt><trkpt lat="36.874479366345334" lon="-3.4346232295014314"><ele>357.3333333333333</ele><time>2026-04-22T15:21:49.001Z</time></trkpt><trkpt lat="36.87460691681327" lon="-3.434795605574377"><ele>347.6666666666667</ele><time>2026-04-22T15:21:50.001Z</time></trkpt><trkpt lat="36.87470931117029" lon="-3.435008337955903"><ele>338.0</ele><time>2026-04-22T15:21:51.001Z</time></trkpt><trkpt lat="36.874792305509494" lon="-3.435229399385487"><ele>338.0</ele><time>2026-04-22T15:21:52.001Z</time></trkpt><trkpt lat="36.87483990392687" lon="-3.435437564220859"><ele>338.0</ele><time>2026-04-22T15:21:53.001Z</time></trkpt><trkpt lat="36.87488955618262" lon="-3.4356318473379504"><ele>338.0</ele><time>2026-04-22T15:21:54.001Z</time></trkpt><trkpt lat="36.8749562144723" lon="-3.4358300264439663"><ele>342.6666666666667</ele><time>2026-04-22T15:21:55.001Z</time></trkpt><trkpt lat="36.87502980873558" lon="-3.436029131518765"><ele>347.3333333333333</ele><time>2026-04-22T15:21:56.001Z</time></trkpt><trkpt lat="36.87509305569676" lon="-3.436240212507846"><ele>352.0</ele><time>2026-04-22T15:21:57.001Z</time></trkpt><trkpt lat="36.87515723861739" lon="-3.4364437752804684"><ele>338.66666666666663</ele><time>2026-04-22T15:21:58.001Z</time></trkpt><trkpt lat="36.87520898142909" lon="-3.4366290969732183"><ele>325.3333333333333</ele><time>2026-04-22T15:21:59.001Z</time></trkpt><trkpt lat="36.875245943199204" lon="-3.436807074527853"><ele>312.0</ele><time>2026-04-22T15:22:00.001Z</time></trkpt><trkpt lat="36.87520667520832" lon="-3.4369910061288165"><ele>311.6666666666667</ele><time>2026-04-22T15:22:01.001Z</time></trkpt><trkpt lat="36.87510473124424" lon="-3.4371583786589586"><ele>311.33333333333337</ele><time>2026-04-22T15:22:02.001Z</time></trkpt><trkpt lat="36.87497700124059" lon="-3.437295039338789"><ele>311.0</ele><time>2026-04-22T15:22:03.001Z</time></trkpt><trkpt lat="36.874881337009356" lon="-3.437427961735082"><ele>323.0</ele><time>2026-04-22T15:22:04.001Z</time></trkpt><trkpt lat="36.87488038400212" lon="-3.4376157740640005"><ele>335.0</ele><time>2026-04-22T15:22:05.001Z</time></trkpt><trkpt lat="36.87497785317308" lon="-3.4377717678104425"><ele>347.0</ele><time>2026-04-22T15:22:06.001Z</time></trkpt><trkpt lat="36.87506605257548" lon="-3.4379593717657153"><ele>333.6666666666667</ele><time>2026-04-22T15:22:07.001Z</time></trkpt><trkpt lat="36.87515492775383" lon="-3.4381188100347515"><ele>320.3333333333333</ele><time>2026-04-22T15:22:08.001Z</time></trkpt><trkpt lat="36.87517881014939" lon="-3.4383264299774523"><ele>307.0</ele><time>2026-04-22T15:22:09.001Z</time></trkpt><trkpt lat="36.87514102954488" lon="-3.438532867081763"><ele>313.0</ele><time>2026-04-22T15:22:10.001Z</time></trkpt><trkpt lat="36.8750401352548" lon="-3.438730951281759"><ele>319.0</ele><time>2026-04-22T15:22:11.001Z</time></trkpt><trkpt lat="36.874906773775635" lon="-3.4388861533737356"><ele>325.0</ele><time>2026-04-22T15:22:12.001Z</time></trkpt><trkpt lat="36.87473753870568" lon="-3.438968215537497"><ele>325.0</ele><time>2026-04-22T15:22:13.001Z</time></trkpt><trkpt lat="36.874546277304866" lon="-3.4389989585428196"><ele>325.0</ele><time>2026-04-22T15:22:14.001Z</time></trkpt><trkpt lat="36.874332871739036" lon="-3.439003396297847"><ele>325.0</ele><time>2026-04-22T15:22:15.001Z</time></trkpt><trkpt lat="36.874112067635124" lon="-3.439030480265939"><ele>327.0</ele><time>2026-04-22T15:22:16.001Z</time></trkpt><trkpt lat="36.87391723506667" lon="-3.439063977810089"><ele>329.0</ele><time>2026-04-22T15:22:17.001Z</time></trkpt><trkpt lat="36.8737409797657" lon="-3.4390908792414923"><ele>331.0</ele><time>2026-04-22T15:22:18.001Z</time></trkpt><trkpt lat="36.87357146503" lon="-3.4391151566207996"><ele>335.66666666666663</ele><time>2026-04-22T15:22:19.001Z</time></trkpt><trkpt lat="36.87341903878345" lon="-3.439163736832009"><ele>340.3333333333333</ele><time>2026-04-22T15:22:20.001Z</time></trkpt><trkpt lat="36.87326895626186" lon="-3.4392063310976693"><ele>345.0</ele><time>2026-04-22T15:22:21.001Z</time></trkpt><trkpt lat="36.87310482328716" lon="-3.439265844152432"><ele>345.0</ele><time>2026-04-22T15:22:22.001Z</time></trkpt><trkpt lat="36.87293372497568" lon="-3.4393257607960632"><ele>345.0</ele><time>2026-04-22T15:22:23.001Z</time></trkpt><trkpt lat="36.872768325813716" lon="-3.439402255935341"><ele>345.0</ele><time>2026-04-22T15:22:24.001Z</time></trkpt><trkpt lat="36.872608156174486" lon="-3.4394381762721054"><ele>345.0</ele><time>2026-04-22T15:22:25.001Z</time></trkpt><trkpt lat="36.87246520594914" lon="-3.4394546041460825"><ele>345.0</ele><time>2026-04-22T15:22:26.001Z</time></trkpt><trkpt lat="36.87236593049053" lon="-3.4395189317215937"><ele>345.0</ele><time>2026-04-22T15:22:27.001Z</time></trkpt><trkpt lat="36.87230518436399" lon="-3.439623272806541"><ele>345.0</ele><time>2026-04-22T15:22:28.001Z</time></trkpt><trkpt lat="36.87227979201398" lon="-3.4397542596751856"><ele>345.0</ele><time>2026-04-22T15:22:29.001Z</time></trkpt><trkpt lat="36.87233236612304" lon="-3.439906183726867"><ele>345.0</ele><time>2026-04-22T15:22:30.001Z</time></trkpt><trkpt lat="36.872451806503385" lon="-3.4400301634575094"><ele>345.0</ele><time>2026-04-22T15:22:31.001Z</time></trkpt><trkpt lat="36.87262155955169" lon="-3.440125657344041"><ele>337.6666666666667</ele><time>2026-04-22T15:22:32.001Z</time></trkpt><trkpt lat="36.87281833505739" lon="-3.440194282128409"><ele>330.33333333333337</ele><time>2026-04-22T15:22:33.001Z</time></trkpt><trkpt lat="36.87301844988292" lon="-3.4402395242688093"><ele>323.0</ele><time>2026-04-22T15:22:34.001Z</time></trkpt><trkpt lat="36.8732105683962" lon="-3.4402823825851403"><ele>323.0</ele><time>2026-04-22T15:22:35.001Z</time></trkpt><trkpt lat="36.8733924761612" lon="-3.4403776587483934"><ele>323.0</ele><time>2026-04-22T15:22:36.001Z</time></trkpt><trkpt lat="36.87355002484285" lon="-3.440539818055235"><ele>323.0</ele><time>2026-04-22T15:22:37.001Z</time></trkpt><trkpt lat="36.873684337913396" lon="-3.440725529422937"><ele>322.33333333333337</ele><time>2026-04-22T15:22:38.001Z</time></trkpt><trkpt lat="36.873856587505415" lon="-3.4408299884652256"><ele>321.6666666666667</ele><time>2026-04-22T15:22:39.001Z</time></trkpt><trkpt lat="36.874043511996994" lon="-3.440912212003023"><ele>321.0</ele><time>2026-04-22T15:22:40.001Z</time></trkpt><trkpt lat="36.874222568342724" lon="-3.4409813542719725"><ele>315.3333333333333</ele><time>2026-04-22T15:22:41.001Z</time></trkpt><trkpt lat="36.874377447467886" lon="-3.4410949508668978"><ele>309.66666666666663</ele><time>2026-04-22T15:22:42.001Z</time></trkpt><trkpt lat="36.87450856962516" lon="-3.4412257498099845"><ele>304.0</ele><time>2026-04-22T15:22:43.001Z</time></trkpt><trkpt lat="36.874612171019166" lon="-3.441348960937382"><ele>304.0</ele><time>2026-04-22T15:22:44.001Z</time></trkpt><trkpt lat="36.87468564973021" lon="-3.4414761411037564"><ele>304.0</ele><time>2026-04-22T15:22:45.001Z</time></trkpt><trkpt lat="36.87471054172391" lon="-3.4416429936138977"><ele>304.0</ele><time>2026-04-22T15:22:46.001Z</time></trkpt><trkpt lat="36.87468940182706" lon="-3.4418457599683885"><ele>304.0</ele><time>2026-04-22T15:22:47.001Z</time></trkpt><trkpt lat="36.87462526510964" lon="-3.4420801701869466"><ele>306.3333333333333</ele><time>2026-04-22T15:22:48.001Z</time></trkpt><trkpt lat="36.87456619539879" lon="-3.4423261223178736"><ele>308.6666666666667</ele><time>2026-04-22T15:22:49.001Z</time></trkpt><trkpt lat="36.87458934416256" lon="-3.4426010107676452"><ele>311.0</ele><time>2026-04-22T15:22:50.001Z</time></trkpt><trkpt lat="36.8746258403686" lon="-3.442892615786387"><ele>313.33333333333337</ele><time>2026-04-22T15:22:51.001Z</time></trkpt><trkpt lat="36.874699350448445" lon="-3.443136731156303"><ele>315.6666666666667</ele><time>2026-04-22T15:22:52.001Z</time></trkpt><trkpt lat="36.87476933611105" lon="-3.443353998720331"><ele>318.0</ele><time>2026-04-22T15:22:53.001Z</time></trkpt><trkpt lat="36.87483769933575" lon="-3.443564696689959"><ele>318.0</ele><time>2026-04-22T15:22:54.001Z</time></trkpt><trkpt lat="36.874898157004395" lon="-3.443784245386011"><ele>318.0</ele><time>2026-04-22T15:22:55.001Z</time></trkpt><trkpt lat="36.874962414184914" lon="-3.4440217249627296"><ele>318.0</ele><time>2026-04-22T15:22:56.001Z</time></trkpt><trkpt lat="36.8750163735301" lon="-3.444269855502925"><ele>320.3333333333333</ele><time>2026-04-22T15:22:57.001Z</time></trkpt><trkpt lat="36.87504275280965" lon="-3.4445329836875636"><ele>322.66666666666663</ele><time>2026-04-22T15:22:58.001Z</time></trkpt><trkpt lat="36.87507737653836" lon="-3.4447982594898168"><ele>325.0</ele><time>2026-04-22T15:22:59.001Z</time></trkpt><trkpt lat="36.87512605995962" lon="-3.4450491568612667"><ele>315.3333333333333</ele><time>2026-04-22T15:23:00.001Z</time></trkpt><trkpt lat="36.87518724741906" lon="-3.4452737634979154"><ele>305.6666666666667</ele><time>2026-04-22T15:23:01.001Z</time></trkpt><trkpt lat="36.875273155807506" lon="-3.445481704423489"><ele>296.0</ele><time>2026-04-22T15:23:02.001Z</time></trkpt><trkpt lat="36.87536882120942" lon="-3.4456721963697126"><ele>296.0</ele><time>2026-04-22T15:23:03.001Z</time></trkpt><trkpt lat="36.87542832272416" lon="-3.445876987230245"><ele>296.0</ele><time>2026-04-22T15:23:04.001Z</time></trkpt><trkpt lat="36.875440763278256" lon="-3.446118898619996"><ele>296.0</ele><time>2026-04-22T15:23:05.001Z</time></trkpt><trkpt lat="36.87541676732054" lon="-3.4463833523124947"><ele>295.0</ele><time>2026-04-22T15:23:06.001Z</time></trkpt><trkpt lat="36.87537040477658" lon="-3.4466582748243844"><ele>294.0</ele><time>2026-04-22T15:23:07.001Z</time></trkpt><trkpt lat="36.87533141163533" lon="-3.446922302773098"><ele>293.0</ele><time>2026-04-22T15:23:08.001Z</time></trkpt><trkpt lat="36.8752998615371" lon="-3.447162258084656"><ele>291.0</ele><time>2026-04-22T15:23:09.001Z</time></trkpt><trkpt lat="36.87524983377923" lon="-3.4474015917152916"><ele>289.0</ele><time>2026-04-22T15:23:10.001Z</time></trkpt><trkpt lat="36.87516877104872" lon="-3.4476183826695337"><ele>287.0</ele><time>2026-04-22T15:23:11.001Z</time></trkpt><trkpt lat="36.87509607763885" lon="-3.4478032987195206"><ele>287.75</ele><time>2026-04-22T15:23:12.001Z</time></trkpt><trkpt lat="36.8750755343993" lon="-3.4479712468697628"><ele>288.5</ele><time>2026-04-22T15:23:13.001Z</time></trkpt><trkpt lat="36.87510476064102" lon="-3.4481180555683832"><ele>289.25</ele><time>2026-04-22T15:23:14.001Z</time></trkpt><trkpt lat="36.87520162259994" lon="-3.448264646037575"><ele>290.0</ele><time>2026-04-22T15:23:15.001Z</time></trkpt><trkpt lat="36.875305172474654" lon="-3.448440798270256"><ele>290.0</ele><time>2026-04-22T15:23:16.001Z</time></trkpt><trkpt lat="36.87537703822365" lon="-3.4486348667582423"><ele>290.0</ele><time>2026-04-22T15:23:17.001Z</time></trkpt><trkpt lat="36.87541118859927" lon="-3.4488712618233626"><ele>290.0</ele><time>2026-04-22T15:23:18.001Z</time></trkpt><trkpt lat="36.87541467734233" lon="-3.449103066783976"><ele>293.6666666666667</ele><time>2026-04-22T15:23:19.001Z</time></trkpt><trkpt lat="36.875412355274584" lon="-3.4493086845600875"><ele>297.3333333333333</ele><time>2026-04-22T15:23:20.001Z</time></trkpt><trkpt lat="36.87542157283377" lon="-3.449509065717666"><ele>301.0</ele><time>2026-04-22T15:23:21.001Z</time></trkpt><trkpt lat="36.87542162363436" lon="-3.449699479475577"><ele>301.66666666666663</ele><time>2026-04-22T15:23:22.001Z</time></trkpt><trkpt lat="36.875378958212394" lon="-3.449889232856258"><ele>302.3333333333333</ele><time>2026-04-22T15:23:23.002Z</time></trkpt><trkpt lat="36.875276232309496" lon="-3.4500564685565998"><ele>303.0</ele><time>2026-04-22T15:23:24.002Z</time></trkpt><trkpt lat="36.87512628707182" lon="-3.4502012675152103"><ele>314.0</ele><time>2026-04-22T15:23:25.002Z</time></trkpt><trkpt lat="36.87498207338808" lon="-3.4503643490667693"><ele>325.0</ele><time>2026-04-22T15:23:26.002Z</time></trkpt><trkpt lat="36.87486809915778" lon="-3.4505481653909436"><ele>336.0</ele><time>2026-04-22T15:23:27.002Z</time></trkpt><trkpt lat="36.87482989069348" lon="-3.450793301905891"><ele>336.0</ele><time>2026-04-22T15:23:28.002Z</time></trkpt><trkpt lat="36.87481229920283" lon="-3.4510628512844566"><ele>336.0</ele><time>2026-04-22T15:23:29.002Z</time></trkpt><trkpt lat="36.874796220601674" lon="-3.4513333764946212"><ele>336.0</ele><time>2026-04-22T15:23:30.002Z</time></trkpt><trkpt lat="36.87480156595774" lon="-3.451601238173798"><ele>334.6666666666667</ele><time>2026-04-22T15:23:31.002Z</time></trkpt><trkpt lat="36.87479100049541" lon="-3.451857371218704"><ele>333.33333333333337</ele><time>2026-04-22T15:23:32.002Z</time></trkpt><trkpt lat="36.874765194272264" lon="-3.452105817646531"><ele>332.0</ele><time>2026-04-22T15:23:33.002Z</time></trkpt><trkpt lat="36.87472443470387" lon="-3.4523513412511297"><ele>332.33333333333337</ele><time>2026-04-22T15:23:34.002Z</time></trkpt><trkpt lat="36.87467629495213" lon="-3.4526019469734064"><ele>332.6666666666667</ele><time>2026-04-22T15:23:35.002Z</time></trkpt><trkpt lat="36.87463973060638" lon="-3.4528641297694866"><ele>333.0</ele><time>2026-04-22T15:23:36.002Z</time></trkpt><trkpt lat="36.8746281649431" lon="-3.453143850422232"><ele>333.0</ele><time>2026-04-22T15:23:37.002Z</time></trkpt><trkpt lat="36.874633168089666" lon="-3.4534211673784454"><ele>333.0</ele><time>2026-04-22T15:23:38.002Z</time></trkpt><trkpt lat="36.87465964610059" lon="-3.453676036948239"><ele>333.0</ele><time>2026-04-22T15:23:39.002Z</time></trkpt><trkpt lat="36.874697142540484" lon="-3.453900198345047"><ele>333.6666666666667</ele><time>2026-04-22T15:23:40.002Z</time></trkpt><trkpt lat="36.87470265295329" lon="-3.454116897759516"><ele>334.33333333333337</ele><time>2026-04-22T15:23:41.002Z</time></trkpt><trkpt lat="36.8746676198795" lon="-3.4543180891067027"><ele>335.0</ele><time>2026-04-22T15:23:42.001Z</time></trkpt><trkpt lat="36.87460079973057" lon="-3.454488819082761"><ele>335.0</ele><time>2026-04-22T15:23:43.001Z</time></trkpt><trkpt lat="36.87452128289865" lon="-3.4546118300984747"><ele>335.0</ele><time>2026-04-22T15:23:44.001Z</time></trkpt><trkpt lat="36.87441182525715" lon="-3.4546912420836233"><ele>335.0</ele><time>2026-04-22T15:23:45.001Z</time></trkpt><trkpt lat="36.87427748018698" lon="-3.454696643644863"><ele>335.0</ele><time>2026-04-22T15:23:46.001Z</time></trkpt><trkpt lat="36.87412938130831" lon="-3.454625219255321"><ele>350.0</ele><time>2026-04-22T15:23:47.001Z</time></trkpt><trkpt lat="36.873963374923505" lon="-3.454506735816459"><ele>365.0</ele><time>2026-04-22T15:23:48.001Z</time></trkpt><trkpt lat="36.873769600662115" lon="-3.454449656736879"><ele>380.0</ele><time>2026-04-22T15:23:49.001Z</time></trkpt><trkpt lat="36.873606654776935" lon="-3.454387853229562"><ele>380.0</ele><time>2026-04-22T15:23:50.001Z</time></trkpt><trkpt lat="36.873460794783306" lon="-3.454361410812849"><ele>380.0</ele><time>2026-04-22T15:23:51.001Z</time></trkpt><trkpt lat="36.87333865235531" lon="-3.4543339218567026"><ele>380.0</ele><time>2026-04-22T15:23:52.001Z</time></trkpt><trkpt lat="36.873241298571486" lon="-3.454361817705464"><ele>380.0</ele><time>2026-04-22T15:23:53.001Z</time></trkpt><trkpt lat="36.87317090561959" lon="-3.454439812469255"><ele>380.0</ele><time>2026-04-22T15:23:54.001Z</time></trkpt><trkpt lat="36.873148383008925" lon="-3.4545892404453733"><ele>380.0</ele><time>2026-04-22T15:23:55.001Z</time></trkpt><trkpt lat="36.87322257227107" lon="-3.4547445881523506"><ele>380.0</ele><time>2026-04-22T15:23:56.001Z</time></trkpt><trkpt lat="36.87327473933308" lon="-3.454948379882257"><ele>380.0</ele><time>2026-04-22T15:23:57.001Z</time></trkpt><trkpt lat="36.87332356610763" lon="-3.455185849601521"><ele>380.0</ele><time>2026-04-22T15:23:58.001Z</time></trkpt><trkpt lat="36.87333365463041" lon="-3.4554618917915487"><ele>380.0</ele><time>2026-04-22T15:23:59.001Z</time></trkpt><trkpt lat="36.873296147222696" lon="-3.455795131702601"><ele>380.0</ele><time>2026-04-22T15:24:00.001Z</time></trkpt><trkpt lat="36.87324282526926" lon="-3.456165776480541"><ele>380.0</ele><time>2026-04-22T15:24:01.001Z</time></trkpt><trkpt lat="36.873210948717464" lon="-3.4565250263761125"><ele>380.6666666666667</ele><time>2026-04-22T15:24:02.001Z</time></trkpt><trkpt lat="36.87319551944444" lon="-3.4568009819046286"><ele>381.3333333333333</ele><time>2026-04-22T15:24:03.001Z</time></trkpt><trkpt lat="36.87317636763744" lon="-3.4570424204688854"><ele>382.0</ele><time>2026-04-22T15:24:04.001Z</time></trkpt><trkpt lat="36.873152557624344" lon="-3.4572629175862395"><ele>382.0</ele><time>2026-04-22T15:24:05.001Z</time></trkpt><trkpt lat="36.87312311121149" lon="-3.457464034930204"><ele>382.0</ele><time>2026-04-22T15:24:06.001Z</time></trkpt><trkpt lat="36.87306503310549" lon="-3.457661422951998"><ele>382.0</ele><time>2026-04-22T15:24:07.001Z</time></trkpt><trkpt lat="36.87297971327109" lon="-3.457867049374097"><ele>375.0</ele><time>2026-04-22T15:24:08.001Z</time></trkpt><trkpt lat="36.872895795711486" lon="-3.4580831662687803"><ele>368.0</ele><time>2026-04-22T15:24:09.001Z</time></trkpt><trkpt lat="36.87280850814662" lon="-3.4583080845176966"><ele>361.0</ele><time>2026-04-22T15:24:10.001Z</time></trkpt><trkpt lat="36.87272675698455" lon="-3.4585448485825947"><ele>351.66666666666663</ele><time>2026-04-22T15:24:11.001Z</time></trkpt><trkpt lat="36.87267434533143" lon="-3.458798081544227"><ele>342.3333333333333</ele><time>2026-04-22T15:24:12.001Z</time></trkpt><trkpt lat="36.87264467402085" lon="-3.4590545932110515"><ele>333.0</ele><time>2026-04-22T15:24:13.001Z</time></trkpt><trkpt lat="36.87259566139843" lon="-3.459284789694893"><ele>345.0</ele><time>2026-04-22T15:24:14.001Z</time></trkpt><trkpt lat="36.87248223384241" lon="-3.459491957860622"><ele>357.0</ele><time>2026-04-22T15:24:15.001Z</time></trkpt><trkpt lat="36.87234689518051" lon="-3.4596948337462954"><ele>369.0</ele><time>2026-04-22T15:24:16.001Z</time></trkpt><trkpt lat="36.8721995131294" lon="-3.4598812149828735"><ele>369.0</ele><time>2026-04-22T15:24:17.001Z</time></trkpt><trkpt lat="36.87206441787841" lon="-3.460064829002251"><ele>369.0</ele><time>2026-04-22T15:24:18.001Z</time></trkpt><trkpt lat="36.871943048789205" lon="-3.460228448615111"><ele>369.0</ele><time>2026-04-22T15:24:19.001Z</time></trkpt><trkpt lat="36.87184332077262" lon="-3.4603903561399756"><ele>361.3333333333333</ele><time>2026-04-22T15:24:20.001Z</time></trkpt><trkpt lat="36.87178528216991" lon="-3.460573746491923"><ele>353.66666666666663</ele><time>2026-04-22T15:24:21.001Z</time></trkpt><trkpt lat="36.8717828079436" lon="-3.460775170486698"><ele>346.0</ele><time>2026-04-22T15:24:22.001Z</time></trkpt><trkpt lat="36.87185752348207" lon="-3.4609629194479856"><ele>346.0</ele><time>2026-04-22T15:24:23.001Z</time></trkpt><trkpt lat="36.87192410723959" lon="-3.4611603064471432"><ele>346.0</ele><time>2026-04-22T15:24:24.001Z</time></trkpt><trkpt lat="36.871942712039946" lon="-3.461381400513823"><ele>346.0</ele><time>2026-04-22T15:24:25.001Z</time></trkpt><trkpt lat="36.87191584409109" lon="-3.4616208501872086"><ele>345.3333333333333</ele><time>2026-04-22T15:24:26.001Z</time></trkpt><trkpt lat="36.87184558601437" lon="-3.461870415907625"><ele>344.6666666666667</ele><time>2026-04-22T15:24:27.001Z</time></trkpt><trkpt lat="36.87178711353729" lon="-3.4621349296765267"><ele>344.0</ele><time>2026-04-22T15:24:28.001Z</time></trkpt><trkpt lat="36.87175058970893" lon="-3.4624004809942024"><ele>358.6666666666667</ele><time>2026-04-22T15:24:29.001Z</time></trkpt><trkpt lat="36.87171581287962" lon="-3.4626558813127297"><ele>373.33333333333337</ele><time>2026-04-22T15:24:30.001Z</time></trkpt><trkpt lat="36.87167942043334" lon="-3.4629077658804412"><ele>388.0</ele><time>2026-04-22T15:24:31.001Z</time></trkpt><trkpt lat="36.871649367108006" lon="-3.46316272512616"><ele>388.0</ele><time>2026-04-22T15:24:32.001Z</time></trkpt><trkpt lat="36.871618442882415" lon="-3.463420181280754"><ele>388.0</ele><time>2026-04-22T15:24:33.001Z</time></trkpt><trkpt lat="36.87159869912032" lon="-3.4636822279315456"><ele>388.0</ele><time>2026-04-22T15:24:34.001Z</time></trkpt><trkpt lat="36.8716058845613" lon="-3.463950334359377"><ele>387.6666666666667</ele><time>2026-04-22T15:24:35.001Z</time></trkpt><trkpt lat="36.871640943897376" lon="-3.4642258598141593"><ele>387.33333333333337</ele><time>2026-04-22T15:24:36.001Z</time></trkpt><trkpt lat="36.87167814182445" lon="-3.464500024872414"><ele>387.0</ele><time>2026-04-22T15:24:37.001Z</time></trkpt><trkpt lat="36.871699319112004" lon="-3.464779979120825"><ele>388.5</ele><time>2026-04-22T15:24:38.001Z</time></trkpt><trkpt lat="36.871702258628225" lon="-3.465066153512456"><ele>390.0</ele><time>2026-04-22T15:24:39.001Z</time></trkpt><trkpt lat="36.87166900723538" lon="-3.465353244589746"><ele>388.0</ele><time>2026-04-22T15:24:40.001Z</time></trkpt><trkpt lat="36.871620820972765" lon="-3.4656423876774802"><ele>386.0</ele><time>2026-04-22T15:24:41.001Z</time></trkpt><trkpt lat="36.871572557848445" lon="-3.4659195268104397"><ele>386.0</ele><time>2026-04-22T15:24:42.001Z</time></trkpt><trkpt lat="36.8715495130689" lon="-3.4661970049687487"><ele>386.0</ele><time>2026-04-22T15:24:43.001Z</time></trkpt><trkpt lat="36.8715472774469" lon="-3.4664709474564934"><ele>386.0</ele><time>2026-04-22T15:24:44.001Z</time></trkpt><trkpt lat="36.8715530471353" lon="-3.4667312608556866"><ele>386.3333333333333</ele><time>2026-04-22T15:24:45.001Z</time></trkpt><trkpt lat="36.87156362685751" lon="-3.466982427415405"><ele>386.66666666666663</ele><time>2026-04-22T15:24:46.001Z</time></trkpt><trkpt lat="36.871594386597614" lon="-3.4672464589304304"><ele>387.0</ele><time>2026-04-22T15:24:47.001Z</time></trkpt><trkpt lat="36.87161308882581" lon="-3.467522491750778"><ele>387.0</ele><time>2026-04-22T15:24:48.001Z</time></trkpt><trkpt lat="36.87160577599213" lon="-3.4677909874610684"><ele>387.0</ele><time>2026-04-22T15:24:49.001Z</time></trkpt><trkpt lat="36.87159562850251" lon="-3.4680367826244445"><ele>387.0</ele><time>2026-04-22T15:24:50.001Z</time></trkpt><trkpt lat="36.87158697790949" lon="-3.4682753847726966"><ele>387.33333333333337</ele><time>2026-04-22T15:24:51.001Z</time></trkpt><trkpt lat="36.87157455048493" lon="-3.4685089171106336"><ele>387.6666666666667</ele><time>2026-04-22T15:24:52.001Z</time></trkpt><trkpt lat="36.87154464994802" lon="-3.4687264605822947"><ele>388.0</ele><time>2026-04-22T15:24:53.001Z</time></trkpt><trkpt lat="36.87151699808498" lon="-3.468921210062507"><ele>388.0</ele><time>2026-04-22T15:24:54.001Z</time></trkpt><trkpt lat="36.87151599544959" lon="-3.4690908149566253"><ele>388.0</ele><time>2026-04-22T15:24:55.001Z</time></trkpt><trkpt lat="36.87155596725559" lon="-3.469243634488458"><ele>388.0</ele><time>2026-04-22T15:24:56.001Z</time></trkpt><trkpt lat="36.87167127571055" lon="-3.4693549033183824"><ele>388.0</ele><time>2026-04-22T15:24:57.001Z</time></trkpt><trkpt lat="36.87178196037573" lon="-3.4694587035546633"><ele>371.6666666666667</ele><time>2026-04-22T15:24:58.001Z</time></trkpt><trkpt lat="36.87183618900876" lon="-3.469604224318027"><ele>355.33333333333337</ele><time>2026-04-22T15:24:59.001Z</time></trkpt><trkpt lat="36.87184359968959" lon="-3.469803842572184"><ele>339.0</ele><time>2026-04-22T15:25:00.001Z</time></trkpt><trkpt lat="36.871832700605644" lon="-3.470021252188628"><ele>339.0</ele><time>2026-04-22T15:25:01.001Z</time></trkpt><trkpt lat="36.87180230951144" lon="-3.4702499420532162"><ele>339.0</ele><time>2026-04-22T15:25:02.001Z</time></trkpt><trkpt lat="36.87176667588386" lon="-3.470481488232876"><ele>339.0</ele><time>2026-04-22T15:25:03.001Z</time></trkpt><trkpt lat="36.87173609380759" lon="-3.4707050229110203"><ele>359.33333333333337</ele><time>2026-04-22T15:25:04.001Z</time></trkpt><trkpt lat="36.87171677787431" lon="-3.470918525002869"><ele>379.6666666666667</ele><time>2026-04-22T15:25:05.001Z</time></trkpt><trkpt lat="36.87170398073957" lon="-3.4711208307539803"><ele>400.0</ele><time>2026-04-22T15:25:06.001Z</time></trkpt><trkpt lat="36.87170824295997" lon="-3.4713072996940237"><ele>400.0</ele><time>2026-04-22T15:25:07.001Z</time></trkpt><trkpt lat="36.87171469541586" lon="-3.4714803369631784"><ele>400.0</ele><time>2026-04-22T15:25:08.001Z</time></trkpt><trkpt lat="36.87179765317141" lon="-3.4716099974986223"><ele>400.0</ele><time>2026-04-22T15:25:09.001Z</time></trkpt><trkpt lat="36.87193682031006" lon="-3.4716499937626613"><ele>400.0</ele><time>2026-04-22T15:25:10.001Z</time></trkpt><trkpt lat="36.87205743032609" lon="-3.4717012227661725"><ele>390.5</ele><time>2026-04-22T15:25:11.001Z</time></trkpt><trkpt lat="36.87217474256428" lon="-3.471723347096325"><ele>381.0</ele><time>2026-04-22T15:25:12.001Z</time></trkpt><trkpt lat="36.87227747018789" lon="-3.4717946018158274"><ele>371.5</ele><time>2026-04-22T15:25:13.001Z</time></trkpt><trkpt lat="36.872364431985176" lon="-3.4718929009842903"><ele>362.0</ele><time>2026-04-22T15:25:14.001Z</time></trkpt><trkpt lat="36.87241980352064" lon="-3.4720362213198226"><ele>365.5</ele><time>2026-04-22T15:25:15.001Z</time></trkpt><trkpt lat="36.87242618864552" lon="-3.472191148338745"><ele>369.0</ele><time>2026-04-22T15:25:16.001Z</time></trkpt><trkpt lat="36.87238912097261" lon="-3.4723476342995907"><ele>372.5</ele><time>2026-04-22T15:25:17.001Z</time></trkpt><trkpt lat="36.87241551180559" lon="-3.4724859651034743"><ele>376.0</ele><time>2026-04-22T15:25:18.001Z</time></trkpt><trkpt lat="36.8723490131555" lon="-3.4726395284025937"><ele>376.0</ele><time>2026-04-22T15:25:19.001Z</time></trkpt><trkpt lat="36.87229628679247" lon="-3.472798130043499"><ele>376.0</ele><time>2026-04-22T15:25:20.001Z</time></trkpt><trkpt lat="36.87225542412122" lon="-3.4729535754066156"><ele>376.0</ele><time>2026-04-22T15:25:21.001Z</time></trkpt><trkpt lat="36.872216084363316" lon="-3.473109383439379"><ele>376.0</ele><time>2026-04-22T15:25:22.001Z</time></trkpt><trkpt lat="36.87217894190008" lon="-3.4732597461576065"><ele>377.0</ele><time>2026-04-22T15:25:23.001Z</time></trkpt><trkpt lat="36.87214532571103" lon="-3.4734064851865054"><ele>378.0</ele><time>2026-04-22T15:25:24.001Z</time></trkpt><trkpt lat="36.87213990787174" lon="-3.473549844808644"><ele>379.0</ele><time>2026-04-22T15:25:25.001Z</time></trkpt><trkpt lat="36.872177287591676" lon="-3.473702267539531"><ele>380.0</ele><time>2026-04-22T15:25:26.001Z</time></trkpt><trkpt lat="36.87224593842119" lon="-3.473857367213229"><ele>380.0</ele><time>2026-04-22T15:25:27.001Z</time></trkpt><trkpt lat="36.87232338949167" lon="-3.4740132363406273"><ele>380.0</ele><time>2026-04-22T15:25:28.001Z</time></trkpt><trkpt lat="36.8723979705397" lon="-3.4741692447370585"><ele>380.0</ele><time>2026-04-22T15:25:29.001Z</time></trkpt><trkpt lat="36.87245733323198" lon="-3.4743196987017555"><ele>380.0</ele><time>2026-04-22T15:25:30.001Z</time></trkpt><trkpt lat="36.872513681260806" lon="-3.4744549593534924"><ele>380.0</ele><time>2026-04-22T15:25:31.001Z</time></trkpt><trkpt lat="36.872580031791415" lon="-3.4745674993303"><ele>380.0</ele><time>2026-04-22T15:25:32.001Z</time></trkpt><trkpt lat="36.87263218849443" lon="-3.474699152828833"><ele>380.0</ele><time>2026-04-22T15:25:33.001Z</time></trkpt><trkpt lat="36.87267795163241" lon="-3.474824633788777"><ele>380.0</ele><time>2026-04-22T15:25:34.001Z</time></trkpt><trkpt lat="36.87271308355823" lon="-3.4749457689907675"><ele>380.0</ele><time>2026-04-22T15:25:35.001Z</time></trkpt><trkpt lat="36.87270607277395" lon="-3.4750773152023586"><ele>378.25</ele><time>2026-04-22T15:25:36.001Z</time></trkpt><trkpt lat="36.87265102902917" lon="-3.475204645382752"><ele>376.5</ele><time>2026-04-22T15:25:37.001Z</time></trkpt><trkpt lat="36.872548893732265" lon="-3.475320815050431"><ele>374.75</ele><time>2026-04-22T15:25:38.001Z</time></trkpt><trkpt lat="36.872445817621376" lon="-3.475437648373221"><ele>373.0</ele><time>2026-04-22T15:25:39.001Z</time></trkpt><trkpt lat="36.87236230361186" lon="-3.475559739353649"><ele>370.25</ele><time>2026-04-22T15:25:40.001Z</time></trkpt><trkpt lat="36.87227081883938" lon="-3.4756815782533845"><ele>367.5</ele><time>2026-04-22T15:25:41.001Z</time></trkpt><trkpt lat="36.87218798876389" lon="-3.475805215929783"><ele>364.75</ele><time>2026-04-22T15:25:42.001Z</time></trkpt><trkpt lat="36.87210904834542" lon="-3.475920870913212"><ele>362.0</ele><time>2026-04-22T15:25:43.001Z</time></trkpt><trkpt lat="36.87201753338561" lon="-3.476014979411734"><ele>362.0</ele><time>2026-04-22T15:25:44.002Z</time></trkpt><trkpt lat="36.87191109434658" lon="-3.4760754889602983"><ele>362.0</ele><time>2026-04-22T15:25:45.002Z</time></trkpt><trkpt lat="36.87179129673105" lon="-3.4760986059627563"><ele>362.0</ele><time>2026-04-22T15:25:46.002Z</time></trkpt><trkpt lat="36.87166648519835" lon="-3.4761116477387337"><ele>362.0</ele><time>2026-04-22T15:25:47.002Z</time></trkpt><trkpt lat="36.871541102660444" lon="-3.476130234999225"><ele>364.0</ele><time>2026-04-22T15:25:48.001Z</time></trkpt><trkpt lat="36.87141412602107" lon="-3.4761523355741706"><ele>366.0</ele><time>2026-04-22T15:25:49.001Z</time></trkpt><trkpt lat="36.87126970118949" lon="-3.4761746514155805"><ele>368.0</ele><time>2026-04-22T15:25:50.001Z</time></trkpt><trkpt lat="36.8711278100495" lon="-3.476202637939837"><ele>370.0</ele><time>2026-04-22T15:25:51.001Z</time></trkpt><trkpt lat="36.87099638624809" lon="-3.476215677330783"><ele>369.8</ele><time>2026-04-22T15:25:52.001Z</time></trkpt><trkpt lat="36.87087800164338" lon="-3.4762215930700675"><ele>369.6</ele><time>2026-04-22T15:25:53.001Z</time></trkpt><trkpt lat="36.870770444601206" lon="-3.47618989416813"><ele>369.4</ele><time>2026-04-22T15:25:54.001Z</time></trkpt><trkpt lat="36.870669081367886" lon="-3.476128126206526"><ele>369.2</ele><time>2026-04-22T15:25:55.001Z</time></trkpt><trkpt lat="36.870587207275655" lon="-3.476053480267249"><ele>369.0</ele><time>2026-04-22T15:25:56.001Z</time></trkpt><trkpt lat="36.87050583076695" lon="-3.4760271948883794"><ele>369.0</ele><time>2026-04-22T15:25:57.001Z</time></trkpt><trkpt lat="36.87042901565596" lon="-3.476072638783452"><ele>369.0</ele><time>2026-04-22T15:25:58.001Z</time></trkpt><trkpt lat="36.870372030516535" lon="-3.4761942379115816"><ele>369.0</ele><time>2026-04-22T15:25:59.001Z</time></trkpt><trkpt lat="36.87037343525382" lon="-3.4763808607037183"><ele>369.0</ele><time>2026-04-22T15:26:00.001Z</time></trkpt><trkpt lat="36.87039529115103" lon="-3.4765504766192192"><ele>363.0</ele><time>2026-04-22T15:26:01.001Z</time></trkpt><trkpt lat="36.870411823545744" lon="-3.4767165865982297"><ele>357.0</ele><time>2026-04-22T15:26:02.001Z</time></trkpt><trkpt lat="36.870411300877336" lon="-3.476851688534599"><ele>351.0</ele><time>2026-04-22T15:26:03.001Z</time></trkpt><trkpt lat="36.870404410855734" lon="-3.476984972521729"><ele>345.0</ele><time>2026-04-22T15:26:04.001Z</time></trkpt><trkpt lat="36.87038175128657" lon="-3.4771236553027065"><ele>344.5</ele><time>2026-04-22T15:26:05.001Z</time></trkpt><trkpt lat="36.8703321923739" lon="-3.4772618583419095"><ele>344.0</ele><time>2026-04-22T15:26:06.001Z</time></trkpt><trkpt lat="36.87024261762591" lon="-3.4773942545903886"><ele>343.5</ele><time>2026-04-22T15:26:07.001Z</time></trkpt><trkpt lat="36.87011431714685" lon="-3.4775104848479357"><ele>343.0</ele><time>2026-04-22T15:26:08.001Z</time></trkpt><trkpt lat="36.869975409788005" lon="-3.4775843584770443"><ele>343.0</ele><time>2026-04-22T15:26:09.001Z</time></trkpt><trkpt lat="36.86984329689032" lon="-3.4776485310521017"><ele>343.0</ele><time>2026-04-22T15:26:10.001Z</time></trkpt><trkpt lat="36.86971685606347" lon="-3.4777119193331965"><ele>343.0</ele><time>2026-04-22T15:26:11.001Z</time></trkpt><trkpt lat="36.86960319959318" lon="-3.477767840826067"><ele>343.0</ele><time>2026-04-22T15:26:12.001Z</time></trkpt><trkpt lat="36.86949814623562" lon="-3.4777967168463646"><ele>343.0</ele><time>2026-04-22T15:26:13.001Z</time></trkpt><trkpt lat="36.869384291080095" lon="-3.4777937132659855"><ele>343.0</ele><time>2026-04-22T15:26:14.001Z</time></trkpt><trkpt lat="36.86925872448289" lon="-3.4777264972203743"><ele>343.0</ele><time>2026-04-22T15:26:15.001Z</time></trkpt><trkpt lat="36.86913027266245" lon="-3.4776212559490824"><ele>343.0</ele><time>2026-04-22T15:26:16.001Z</time></trkpt><trkpt lat="36.868989206651285" lon="-3.477525088266573"><ele>341.75</ele><time>2026-04-22T15:26:17.001Z</time></trkpt><trkpt lat="36.868857331848766" lon="-3.477441949014813"><ele>340.5</ele><time>2026-04-22T15:26:18.001Z</time></trkpt><trkpt lat="36.86873288243121" lon="-3.4773671083634166"><ele>339.25</ele><time>2026-04-22T15:26:19.001Z</time></trkpt><trkpt lat="36.86860636045533" lon="-3.4773011372346674"><ele>338.0</ele><time>2026-04-22T15:26:20.001Z</time></trkpt><trkpt lat="36.868471979917686" lon="-3.4772607500376678"><ele>333.5</ele><time>2026-04-22T15:26:21.001Z</time></trkpt><trkpt lat="36.868332904738885" lon="-3.4772382184059394"><ele>329.0</ele><time>2026-04-22T15:26:22.001Z</time></trkpt><trkpt lat="36.86818284491794" lon="-3.4772333642007864"><ele>324.5</ele><time>2026-04-22T15:26:23.001Z</time></trkpt><trkpt lat="36.86804839579444" lon="-3.4772078630266594"><ele>320.0</ele><time>2026-04-22T15:26:24.001Z</time></trkpt><trkpt lat="36.867924595255545" lon="-3.477142481656683"><ele>323.0</ele><time>2026-04-22T15:26:25.001Z</time></trkpt><trkpt lat="36.86781268560826" lon="-3.4770428639211315"><ele>326.0</ele><time>2026-04-22T15:26:26.001Z</time></trkpt><trkpt lat="36.86771889529765" lon="-3.4769295609924615"><ele>329.0</ele><time>2026-04-22T15:26:27.001Z</time></trkpt><trkpt lat="36.867627992113505" lon="-3.476833480226103"><ele>332.0</ele><time>2026-04-22T15:26:28.001Z</time></trkpt><trkpt lat="36.86753536608363" lon="-3.4767650905792706"><ele>332.0</ele><time>2026-04-22T15:26:29.001Z</time></trkpt><trkpt lat="36.867442099496586" lon="-3.476726620793796"><ele>332.0</ele><time>2026-04-22T15:26:30.001Z</time></trkpt><trkpt lat="36.867336545729636" lon="-3.4768126086800177"><ele>332.0</ele><time>2026-04-22T15:26:31.001Z</time></trkpt><trkpt lat="36.86726151851724" lon="-3.476940514017564"><ele>332.0</ele><time>2026-04-22T15:26:32.001Z</time></trkpt><trkpt lat="36.86723520420147" lon="-3.477084093462382"><ele>327.75</ele><time>2026-04-22T15:26:33.001Z</time></trkpt><trkpt lat="36.8672556263956" lon="-3.47724671404678"><ele>323.5</ele><time>2026-04-22T15:26:34.001Z</time></trkpt><trkpt lat="36.86725763349606" lon="-3.477410229716719"><ele>319.25</ele><time>2026-04-22T15:26:35.001Z</time></trkpt><trkpt lat="36.86724049175278" lon="-3.4775805717536854"><ele>315.0</ele><time>2026-04-22T15:26:36.001Z</time></trkpt><trkpt lat="36.86723833549845" lon="-3.477733699836423"><ele>315.0</ele><time>2026-04-22T15:26:37.001Z</time></trkpt><trkpt lat="36.86723673974927" lon="-3.477884789474961"><ele>315.0</ele><time>2026-04-22T15:26:38.001Z</time></trkpt><trkpt lat="36.86724588140297" lon="-3.478033095614142"><ele>315.0</ele><time>2026-04-22T15:26:39.001Z</time></trkpt><trkpt lat="36.86724487624507" lon="-3.478201365218097"><ele>315.0</ele><time>2026-04-22T15:26:40.001Z</time></trkpt><trkpt lat="36.86727016044324" lon="-3.478368595636798"><ele>313.6666666666667</ele><time>2026-04-22T15:26:41.001Z</time></trkpt><trkpt lat="36.86730620253627" lon="-3.4785392186761217"><ele>312.33333333333337</ele><time>2026-04-22T15:26:42.001Z</time></trkpt><trkpt lat="36.867401968961175" lon="-3.4787135796256994"><ele>311.0</ele><time>2026-04-22T15:26:43.001Z</time></trkpt><trkpt lat="36.86750963230929" lon="-3.4788726523699967"><ele>311.0</ele><time>2026-04-22T15:26:44.001Z</time></trkpt><trkpt lat="36.867598033567255" lon="-3.4790287179285686"><ele>311.0</ele><time>2026-04-22T15:26:45.001Z</time></trkpt><trkpt lat="36.86768420860329" lon="-3.479209334621631"><ele>311.0</ele><time>2026-04-22T15:26:46.001Z</time></trkpt><trkpt lat="36.867770702323725" lon="-3.479412700394956"><ele>300.6666666666667</ele><time>2026-04-22T15:26:47.001Z</time></trkpt><trkpt lat="36.86785409020971" lon="-3.4796431268375203"><ele>290.3333333333333</ele><time>2026-04-22T15:26:48.001Z</time></trkpt><trkpt lat="36.86792348223026" lon="-3.4798777112671"><ele>280.0</ele><time>2026-04-22T15:26:49.001Z</time></trkpt><trkpt lat="36.86797823877733" lon="-3.4801005421778672"><ele>280.0</ele><time>2026-04-22T15:26:50.001Z</time></trkpt><trkpt lat="36.86803572264938" lon="-3.4803130809237506"><ele>280.0</ele><time>2026-04-22T15:26:51.001Z</time></trkpt><trkpt lat="36.86810712963377" lon="-3.4805180076615816"><ele>280.0</ele><time>2026-04-22T15:26:52.001Z</time></trkpt><trkpt lat="36.86820417270368" lon="-3.480699672875205"><ele>283.0</ele><time>2026-04-22T15:26:53.001Z</time></trkpt><trkpt lat="36.86830850510987" lon="-3.4808734625473368"><ele>286.0</ele><time>2026-04-22T15:26:54.001Z</time></trkpt><trkpt lat="36.8684017721315" lon="-3.481057658499455"><ele>289.0</ele><time>2026-04-22T15:26:55.001Z</time></trkpt><trkpt lat="36.8684617314733" lon="-3.48124142862755"><ele>287.66666666666663</ele><time>2026-04-22T15:26:56.001Z</time></trkpt><trkpt lat="36.86848199003524" lon="-3.4814414682339803"><ele>286.3333333333333</ele><time>2026-04-22T15:26:57.001Z</time></trkpt><trkpt lat="36.86846223196882" lon="-3.481646185120342"><ele>285.0</ele><time>2026-04-22T15:26:58.001Z</time></trkpt><trkpt lat="36.868396228749816" lon="-3.481828616704256"><ele>285.0</ele><time>2026-04-22T15:26:59.001Z</time></trkpt><trkpt lat="36.86828416346322" lon="-3.4819613442461033"><ele>285.0</ele><time>2026-04-22T15:27:00.001Z</time></trkpt><trkpt lat="36.86813526225128" lon="-3.482060458357006"><ele>285.0</ele><time>2026-04-22T15:27:01.001Z</time></trkpt><trkpt lat="36.86797299208451" lon="-3.4821436444374143"><ele>287.0</ele><time>2026-04-22T15:27:02.001Z</time></trkpt><trkpt lat="36.867806135078595" lon="-3.482222372536759"><ele>289.0</ele><time>2026-04-22T15:27:03.001Z</time></trkpt><trkpt lat="36.86764851863682" lon="-3.482309507050724"><ele>291.0</ele><time>2026-04-22T15:27:04.001Z</time></trkpt><trkpt lat="36.86750372109502" lon="-3.48240381264353"><ele>291.0</ele><time>2026-04-22T15:27:05.001Z</time></trkpt><trkpt lat="36.86735957647864" lon="-3.48251206862174"><ele>291.0</ele><time>2026-04-22T15:27:06.001Z</time></trkpt><trkpt lat="36.86721495400209" lon="-3.4826343969971494"><ele>291.0</ele><time>2026-04-22T15:27:07.001Z</time></trkpt><trkpt lat="36.86709175008201" lon="-3.4827501252542086"><ele>291.0</ele><time>2026-04-22T15:27:08.001Z</time></trkpt><trkpt lat="36.866969530787586" lon="-3.4828412546262557"><ele>291.0</ele><time>2026-04-22T15:27:09.001Z</time></trkpt><trkpt lat="36.866828595523494" lon="-3.4829001360229728"><ele>291.0</ele><time>2026-04-22T15:27:10.001Z</time></trkpt><trkpt lat="36.86665963185576" lon="-3.4829015767990468"><ele>292.6666666666667</ele><time>2026-04-22T15:27:11.001Z</time></trkpt><trkpt lat="36.86649506753006" lon="-3.4828648688175203"><ele>294.33333333333337</ele><time>2026-04-22T15:27:12.001Z</time></trkpt><trkpt lat="36.86634915203757" lon="-3.4828941152309345"><ele>296.0</ele><time>2026-04-22T15:27:13.001Z</time></trkpt><trkpt lat="36.86620537361431" lon="-3.482948884931977"><ele>293.5</ele><time>2026-04-22T15:27:14.001Z</time></trkpt><trkpt lat="36.86606154961691" lon="-3.482996929863086"><ele>291.0</ele><time>2026-04-22T15:27:15.001Z</time></trkpt><trkpt lat="36.86591884157056" lon="-3.483057049855084"><ele>288.5</ele><time>2026-04-22T15:27:16.001Z</time></trkpt><trkpt lat="36.86578468304012" lon="-3.4831095630576843"><ele>286.0</ele><time>2026-04-22T15:27:17.001Z</time></trkpt><trkpt lat="36.86566298325563" lon="-3.4831785992179594"><ele>286.0</ele><time>2026-04-22T15:27:18.001Z</time></trkpt><trkpt lat="36.865585752161806" lon="-3.4833311910747233"><ele>286.0</ele><time>2026-04-22T15:27:19.001Z</time></trkpt><trkpt lat="36.86549112638254" lon="-3.4834842650445106"><ele>286.0</ele><time>2026-04-22T15:27:20.001Z</time></trkpt><trkpt lat="36.86538258734189" lon="-3.483642735053345"><ele>286.0</ele><time>2026-04-22T15:27:21.001Z</time></trkpt><trkpt lat="36.86527957683114" lon="-3.4838078340458827"><ele>286.0</ele><time>2026-04-22T15:27:22.001Z</time></trkpt><trkpt lat="36.865174991205485" lon="-3.483976769054218"><ele>286.0</ele><time>2026-04-22T15:27:23.001Z</time></trkpt><trkpt lat="36.86507781916297" lon="-3.4841184021315246"><ele>286.0</ele><time>2026-04-22T15:27:24.001Z</time></trkpt><trkpt lat="36.86495915589369" lon="-3.484254593987347"><ele>286.0</ele><time>2026-04-22T15:27:25.001Z</time></trkpt><trkpt lat="36.86482742522144" lon="-3.484385442417628"><ele>286.0</ele><time>2026-04-22T15:27:26.001Z</time></trkpt><trkpt lat="36.86468519602065" lon="-3.4844982595304503"><ele>286.0</ele><time>2026-04-22T15:27:27.001Z</time></trkpt><trkpt lat="36.86454070772066" lon="-3.484585846491521"><ele>286.0</ele><time>2026-04-22T15:27:28.001Z</time></trkpt><trkpt lat="36.86438796013945" lon="-3.4846444163294508"><ele>286.0</ele><time>2026-04-22T15:27:29.001Z</time></trkpt><trkpt lat="36.86422897362064" lon="-3.484685722309818"><ele>282.5</ele><time>2026-04-22T15:27:30.001Z</time></trkpt><trkpt lat="36.864080768633016" lon="-3.4847266771574334"><ele>279.0</ele><time>2026-04-22T15:27:31.001Z</time></trkpt><trkpt lat="36.863946907474975" lon="-3.484780021668641"><ele>275.5</ele><time>2026-04-22T15:27:32.001Z</time></trkpt><trkpt lat="36.86383524308715" lon="-3.4848789764766077"><ele>272.0</ele><time>2026-04-22T15:27:33.001Z</time></trkpt><trkpt lat="36.86372837945883" lon="-3.4849733573595016"><ele>272.0</ele><time>2026-04-22T15:27:34.001Z</time></trkpt><trkpt lat="36.86362524914708" lon="-3.4850594239521615"><ele>272.0</ele><time>2026-04-22T15:27:35.001Z</time></trkpt><trkpt lat="36.863595388765255" lon="-3.4852011916828842"><ele>272.0</ele><time>2026-04-22T15:27:36.001Z</time></trkpt><trkpt lat="36.86355058224451" lon="-3.4853555055932426"><ele>272.0</ele><time>2026-04-22T15:27:37.001Z</time></trkpt><trkpt lat="36.8635180096897" lon="-3.4855229830703265"><ele>271.6666666666667</ele><time>2026-04-22T15:27:38.001Z</time></trkpt><trkpt lat="36.86345141449126" lon="-3.485676621490277"><ele>271.3333333333333</ele><time>2026-04-22T15:27:39.001Z</time></trkpt><trkpt lat="36.863358044135886" lon="-3.4858142818603506"><ele>271.0</ele><time>2026-04-22T15:27:40.001Z</time></trkpt><trkpt lat="36.863242013890705" lon="-3.4859643111650294"><ele>271.0</ele><time>2026-04-22T15:27:41.001Z</time></trkpt><trkpt lat="36.86311282782028" lon="-3.4861118472764083"><ele>271.0</ele><time>2026-04-22T15:27:42.001Z</time></trkpt><trkpt lat="36.86297875153298" lon="-3.4862415283731405"><ele>271.0</ele><time>2026-04-22T15:27:43.001Z</time></trkpt><trkpt lat="36.86285116275722" lon="-3.4863552018304165"><ele>267.25</ele><time>2026-04-22T15:27:44.001Z</time></trkpt><trkpt lat="36.862728906782074" lon="-3.4864570125893817"><ele>263.5</ele><time>2026-04-22T15:27:45.001Z</time></trkpt><trkpt lat="36.862604750255194" lon="-3.4865482949180144"><ele>259.75</ele><time>2026-04-22T15:27:46.001Z</time></trkpt><trkpt lat="36.86247481610157" lon="-3.486617199805157"><ele>256.0</ele><time>2026-04-22T15:27:47.001Z</time></trkpt><trkpt lat="36.862344360573616" lon="-3.4866400666205215"><ele>256.0</ele><time>2026-04-22T15:27:48.001Z</time></trkpt><trkpt lat="36.86222206884194" lon="-3.4866277398390255"><ele>256.0</ele><time>2026-04-22T15:27:49.001Z</time></trkpt><trkpt lat="36.86211949329395" lon="-3.4865639258389405"><ele>256.0</ele><time>2026-04-22T15:27:50.001Z</time></trkpt><trkpt lat="36.86204189688882" lon="-3.486444512600974"><ele>256.0</ele><time>2026-04-22T15:27:51.001Z</time></trkpt><trkpt lat="36.86197784259578" lon="-3.48629924233286"><ele>264.0</ele><time>2026-04-22T15:27:52.001Z</time></trkpt><trkpt lat="36.861926564640406" lon="-3.4861518534744635"><ele>272.0</ele><time>2026-04-22T15:27:53.001Z</time></trkpt><trkpt lat="36.861898443682065" lon="-3.4860155352514273"><ele>280.0</ele><time>2026-04-22T15:27:54Z</time></trkpt><trkpt lat="36.86187351810353" lon="-3.4858803165498364"><ele>288.0</ele><time>2026-04-22T15:27:55Z</time></trkpt><trkpt lat="36.86184658098645" lon="-3.4857452593473024"><ele>288.0</ele><time>2026-04-22T15:27:56Z</time></trkpt><trkpt lat="36.86179984165704" lon="-3.485618101943696"><ele>288.0</ele><time>2026-04-22T15:27:57Z</time></trkpt><trkpt lat="36.861737731878975" lon="-3.4855041925045582"><ele>288.0</ele><time>2026-04-22T15:27:58Z</time></trkpt><trkpt lat="36.86165779032698" lon="-3.485405865925586"><ele>288.0</ele><time>2026-04-22T15:27:59Z</time></trkpt><trkpt lat="36.86155845085354" lon="-3.485343159753941"><ele>288.0</ele><time>2026-04-22T15:28:00Z</time></trkpt><trkpt lat="36.861462190821946" lon="-3.485320621216764"><ele>288.4</ele><time>2026-04-22T15:28:01Z</time></trkpt><trkpt lat="36.86137142550592" lon="-3.485364581951365"><ele>288.8</ele><time>2026-04-22T15:28:02Z</time></trkpt><trkpt lat="36.86131951477203" lon="-3.485467565390436"><ele>289.2</ele><time>2026-04-22T15:28:03Z</time></trkpt><trkpt lat="36.86128149785656" lon="-3.485558831177922"><ele>289.6</ele><time>2026-04-22T15:28:04Z</time></trkpt><trkpt lat="36.86128574138154" lon="-3.4856864446892564"><ele>290.0</ele><time>2026-04-22T15:28:05Z</time></trkpt><trkpt lat="36.86128563893212" lon="-3.4858310547809235"><ele>282.0</ele><time>2026-04-22T15:28:06Z</time></trkpt><trkpt lat="36.86124869697215" lon="-3.486004661318993"><ele>274.0</ele><time>2026-04-22T15:28:07Z</time></trkpt><trkpt lat="36.86115650686936" lon="-3.486205993902931"><ele>266.0</ele><time>2026-04-22T15:28:08Z</time></trkpt><trkpt lat="36.86108439458355" lon="-3.4864301933746575"><ele>259.6666666666667</ele><time>2026-04-22T15:28:09Z</time></trkpt><trkpt lat="36.86102847743987" lon="-3.4866245439633468"><ele>253.33333333333331</ele><time>2026-04-22T15:28:10Z</time></trkpt><trkpt lat="36.86099022729184" lon="-3.486840620717185"><ele>247.0</ele><time>2026-04-22T15:28:11Z</time></trkpt><trkpt lat="36.860992231544024" lon="-3.4870867220649107"><ele>248.25</ele><time>2026-04-22T15:28:12Z</time></trkpt><trkpt lat="36.86098824941962" lon="-3.487285105931907"><ele>249.5</ele><time>2026-04-22T15:28:13Z</time></trkpt><trkpt lat="36.86097525805425" lon="-3.4874520704249656"><ele>250.75</ele><time>2026-04-22T15:28:14Z</time></trkpt><trkpt lat="36.860900562837436" lon="-3.48760146419299"><ele>252.0</ele><time>2026-04-22T15:28:15Z</time></trkpt><trkpt lat="36.860798108846495" lon="-3.487721741695992"><ele>252.0</ele><time>2026-04-22T15:28:16Z</time></trkpt><trkpt lat="36.86061489665261" lon="-3.4877787594624072"><ele>252.0</ele><time>2026-04-22T15:28:17Z</time></trkpt><trkpt lat="36.86040744301331" lon="-3.4877689838314807"><ele>252.0</ele><time>2026-04-22T15:28:18Z</time></trkpt><trkpt lat="36.86020282216841" lon="-3.4877292225543646"><ele>256.0</ele><time>2026-04-22T15:28:19Z</time></trkpt><trkpt lat="36.860042684699046" lon="-3.4877123364718865"><ele>260.0</ele><time>2026-04-22T15:28:20Z</time></trkpt><trkpt lat="36.85990183963359" lon="-3.487698299970059"><ele>264.0</ele><time>2026-04-22T15:28:21Z</time></trkpt><trkpt lat="36.85977445447171" lon="-3.4876859159509186"><ele>268.0</ele><time>2026-04-22T15:28:22Z</time></trkpt><trkpt lat="36.859657106540496" lon="-3.4876695067409105"><ele>268.0</ele><time>2026-04-22T15:28:23Z</time></trkpt><trkpt lat="36.85954439438586" lon="-3.4876587696713908"><ele>268.0</ele><time>2026-04-22T15:28:24Z</time></trkpt><trkpt lat="36.85942923490268" lon="-3.48769132519914"><ele>268.0</ele><time>2026-04-22T15:28:25Z</time></trkpt><trkpt lat="36.85931053347615" lon="-3.487720689513086"><ele>268.0</ele><time>2026-04-22T15:28:26Z</time></trkpt><trkpt lat="36.85918621864962" lon="-3.487768496858545"><ele>269.25</ele><time>2026-04-22T15:28:27Z</time></trkpt><trkpt lat="36.859066574131525" lon="-3.487845145857123"><ele>270.5</ele><time>2026-04-22T15:28:28Z</time></trkpt><trkpt lat="36.85895378289188" lon="-3.487945520755279"><ele>271.75</ele><time>2026-04-22T15:28:29Z</time></trkpt><trkpt lat="36.85884363196563" lon="-3.488063965408274"><ele>273.0</ele><time>2026-04-22T15:28:30Z</time></trkpt><trkpt lat="36.85874100143862" lon="-3.4882019920611755"><ele>265.0</ele><time>2026-04-22T15:28:31Z</time></trkpt><trkpt lat="36.85863054999685" lon="-3.48836104892672"><ele>257.0</ele><time>2026-04-22T15:28:32Z</time></trkpt><trkpt lat="36.85854312661991" lon="-3.4885296089409947"><ele>249.0</ele><time>2026-04-22T15:28:33Z</time></trkpt><trkpt lat="36.85847272763689" lon="-3.4886971183025026"><ele>253.5</ele><time>2026-04-22T15:28:34Z</time></trkpt><trkpt lat="36.85841481351189" lon="-3.4888629591762"><ele>258.0</ele><time>2026-04-22T15:28:35Z</time></trkpt><trkpt lat="36.858379734223156" lon="-3.489028466229462"><ele>262.5</ele><time>2026-04-22T15:28:36Z</time></trkpt><trkpt lat="36.858341771541404" lon="-3.4891808908367863"><ele>267.0</ele><time>2026-04-22T15:28:37Z</time></trkpt><trkpt lat="36.858313338807505" lon="-3.4893372742174615"><ele>267.0</ele><time>2026-04-22T15:28:38Z</time></trkpt><trkpt lat="36.85828015765564" lon="-3.489489316245071"><ele>267.0</ele><time>2026-04-22T15:28:39Z</time></trkpt><trkpt lat="36.858263956845484" lon="-3.489668368565352"><ele>267.0</ele><time>2026-04-22T15:28:40Z</time></trkpt><trkpt lat="36.858248582624014" lon="-3.489866540280355"><ele>267.0</ele><time>2026-04-22T15:28:41Z</time></trkpt><trkpt lat="36.85824128306129" lon="-3.490043206441433"><ele>265.0</ele><time>2026-04-22T15:28:42Z</time></trkpt><trkpt lat="36.8582239298124" lon="-3.490201300711392"><ele>263.0</ele><time>2026-04-22T15:28:43Z</time></trkpt><trkpt lat="36.8581954983206" lon="-3.490349846171838"><ele>261.0</ele><time>2026-04-22T15:28:44Z</time></trkpt><trkpt lat="36.85815323837233" lon="-3.4904844488825977"><ele>259.0</ele><time>2026-04-22T15:28:45Z</time></trkpt><trkpt lat="36.858106377520876" lon="-3.490627455409675"><ele>258.2</ele><time>2026-04-22T15:28:46Z</time></trkpt><trkpt lat="36.8580513732289" lon="-3.4907539525884386"><ele>257.4</ele><time>2026-04-22T15:28:47Z</time></trkpt><trkpt lat="36.857997800394365" lon="-3.490871898177578"><ele>256.6</ele><time>2026-04-22T15:28:48Z</time></trkpt><trkpt lat="36.85793826539812" lon="-3.4909644687136363"><ele>255.8</ele><time>2026-04-22T15:28:49Z</time></trkpt><trkpt lat="36.85786923802363" lon="-3.491041568612499"><ele>255.0</ele><time>2026-04-22T15:28:50Z</time></trkpt><trkpt lat="36.857789245615564" lon="-3.4911129690211364"><ele>255.0</ele><time>2026-04-22T15:28:51Z</time></trkpt><trkpt lat="36.85770837258048" lon="-3.4911865383311604"><ele>255.0</ele><time>2026-04-22T15:28:52Z</time></trkpt><trkpt lat="36.85763199732195" lon="-3.491250262802018"><ele>255.0</ele><time>2026-04-22T15:28:53Z</time></trkpt><trkpt lat="36.85755878058588" lon="-3.491306946190957"><ele>255.0</ele><time>2026-04-22T15:28:54Z</time></trkpt><trkpt lat="36.85747984180912" lon="-3.4913660750375444"><ele>255.0</ele><time>2026-04-22T15:28:55Z</time></trkpt><trkpt lat="36.85741220788905" lon="-3.491424369210824"><ele>255.5</ele><time>2026-04-22T15:28:56Z</time></trkpt><trkpt lat="36.857351980951954" lon="-3.491484015405011"><ele>256.0</ele><time>2026-04-22T15:28:57Z</time></trkpt><trkpt lat="36.85728888416579" lon="-3.491557844424998"><ele>256.5</ele><time>2026-04-22T15:28:58Z</time></trkpt><trkpt lat="36.85722896348093" lon="-3.491624636407165"><ele>257.0</ele><time>2026-04-22T15:28:59Z</time></trkpt><trkpt lat="36.857165896047974" lon="-3.4916969041940735"><ele>257.5</ele><time>2026-04-22T15:29:00Z</time></trkpt><trkpt lat="36.85710759021128" lon="-3.4917477732265594"><ele>258.0</ele><time>2026-04-22T15:29:01Z</time></trkpt><trkpt lat="36.85703814746364" lon="-3.4917688690939865"><ele>258.0</ele><time>2026-04-22T15:29:02Z</time></trkpt><trkpt lat="36.85696702308031" lon="-3.491773518655663"><ele>258.0</ele><time>2026-04-22T15:29:03Z</time></trkpt><trkpt lat="36.85690723570009" lon="-3.491689519237911"><ele>258.0</ele><time>2026-04-22T15:29:04Z</time></trkpt><trkpt lat="36.85686237235054" lon="-3.4916117263874575"><ele>258.0</ele><time>2026-04-22T15:29:05Z</time></trkpt><trkpt lat="36.856823655362035" lon="-3.4915277270934983"><ele>258.0</ele><time>2026-04-22T15:29:06Z</time></trkpt><trkpt lat="36.8567566266168" lon="-3.491443842778122"><ele>258.0</ele><time>2026-04-22T15:29:07Z</time></trkpt><trkpt lat="36.856657876955275" lon="-3.491388839645217"><ele>261.75</ele><time>2026-04-22T15:29:08Z</time></trkpt><trkpt lat="36.856550160078044" lon="-3.491374637700771"><ele>265.5</ele><time>2026-04-22T15:29:09Z</time></trkpt><trkpt lat="36.856457778276415" lon="-3.4913573182566378"><ele>269.25</ele><time>2026-04-22T15:29:10Z</time></trkpt><trkpt lat="36.856356470270136" lon="-3.491499256314633"><ele>273.0</ele><time>2026-04-22T15:29:11.001Z</time></trkpt><trkpt lat="36.856263528237605" lon="-3.491638718019489"><ele>273.0</ele><time>2026-04-22T15:29:12.001Z</time></trkpt><trkpt lat="36.856151959777044" lon="-3.491795526643964"><ele>273.0</ele><time>2026-04-22T15:29:13.001Z</time></trkpt><trkpt lat="36.85604331180554" lon="-3.4919517260939092"><ele>273.0</ele><time>2026-04-22T15:29:14.001Z</time></trkpt><trkpt lat="36.85592400375446" lon="-3.4921232509482287"><ele>277.5</ele><time>2026-04-22T15:29:15.001Z</time></trkpt><trkpt lat="36.85577870996887" lon="-3.4923321345745775"><ele>282.0</ele><time>2026-04-22T15:29:16.001Z</time></trkpt><trkpt lat="36.85561121020411" lon="-3.4925740313020777"><ele>282.0</ele><time>2026-04-22T15:29:17.001Z</time></trkpt><trkpt lat="36.85543504401876" lon="-3.4928289417027982"><ele>282.0</ele><time>2026-04-22T15:29:18.001Z</time></trkpt><trkpt lat="36.85527952150114" lon="-3.493058131701663"><ele>286.5</ele><time>2026-04-22T15:29:19.001Z</time></trkpt><trkpt lat="36.85511344669123" lon="-3.493268490725382"><ele>291.0</ele><time>2026-04-22T15:29:20.001Z</time></trkpt><trkpt lat="36.85496844603417" lon="-3.4934838223528777"><ele>291.0</ele><time>2026-04-22T15:29:21.001Z</time></trkpt><trkpt lat="36.85484329302264" lon="-3.493675824182678"><ele>291.0</ele><time>2026-04-22T15:29:22.001Z</time></trkpt><trkpt lat="36.85471421266237" lon="-3.4938473539631207"><ele>291.0</ele><time>2026-04-22T15:29:23.001Z</time></trkpt><trkpt lat="36.854573992376096" lon="-3.493998084545703"><ele>290.0</ele><time>2026-04-22T15:29:24.001Z</time></trkpt><trkpt lat="36.854404959191065" lon="-3.494114501174598"><ele>289.0</ele><time>2026-04-22T15:29:25.001Z</time></trkpt><trkpt lat="36.854215646137334" lon="-3.4941798609912755"><ele>288.0</ele><time>2026-04-22T15:29:26.001Z</time></trkpt><trkpt lat="36.85401209924991" lon="-3.494198922791162"><ele>291.0</ele><time>2026-04-22T15:29:27.001Z</time></trkpt><trkpt lat="36.85380790347344" lon="-3.4941602562454004"><ele>294.0</ele><time>2026-04-22T15:29:28.001Z</time></trkpt><trkpt lat="36.85360893391581" lon="-3.4940715719802813"><ele>297.0</ele><time>2026-04-22T15:29:29.001Z</time></trkpt><trkpt lat="36.85344230343691" lon="-3.493934573691723"><ele>300.0</ele><time>2026-04-22T15:29:30.001Z</time></trkpt><trkpt lat="36.853289367896615" lon="-3.4937551898159005"><ele>303.0</ele><time>2026-04-22T15:29:31.001Z</time></trkpt><trkpt lat="36.85311824358659" lon="-3.4936072278963546"><ele>306.0</ele><time>2026-04-22T15:29:32.001Z</time></trkpt><trkpt lat="36.852955657749504" lon="-3.4934780789604947"><ele>306.0</ele><time>2026-04-22T15:29:33.001Z</time></trkpt><trkpt lat="36.8527893185152" lon="-3.4934097954354852"><ele>306.0</ele><time>2026-04-22T15:29:34.001Z</time></trkpt><trkpt lat="36.852621465484326" lon="-3.4933920386165522"><ele>306.0</ele><time>2026-04-22T15:29:35.001Z</time></trkpt><trkpt lat="36.852467224287004" lon="-3.493408609790738"><ele>306.0</ele><time>2026-04-22T15:29:36.001Z</time></trkpt><trkpt lat="36.85231229298986" lon="-3.493454993273439"><ele>306.0</ele><time>2026-04-22T15:29:37.001Z</time></trkpt><trkpt lat="36.8521401562476" lon="-3.4935263436517507"><ele>306.0</ele><time>2026-04-22T15:29:38.001Z</time></trkpt><trkpt lat="36.85193376201601" lon="-3.493616360623389"><ele>306.0</ele><time>2026-04-22T15:29:39.001Z</time></trkpt><trkpt lat="36.85170578383404" lon="-3.493717658409581"><ele>306.0</ele><time>2026-04-22T15:29:40.001Z</time></trkpt><trkpt lat="36.85145450461638" lon="-3.4938322612879316"><ele>306.0</ele><time>2026-04-22T15:29:41.001Z</time></trkpt><trkpt lat="36.85120461687661" lon="-3.493944013187461"><ele>306.0</ele><time>2026-04-22T15:29:42.001Z</time></trkpt><trkpt lat="36.850959365840396" lon="-3.494051515765103"><ele>308.3333333333333</ele><time>2026-04-22T15:29:43.001Z</time></trkpt><trkpt lat="36.850733228478305" lon="-3.4941420127512477"><ele>310.66666666666663</ele><time>2026-04-22T15:29:44.001Z</time></trkpt><trkpt lat="36.8505383984939" lon="-3.4942248150365183"><ele>313.0</ele><time>2026-04-22T15:29:45.001Z</time></trkpt><trkpt lat="36.85035789861165" lon="-3.49427675204884"><ele>313.0</ele><time>2026-04-22T15:29:46.001Z</time></trkpt><trkpt lat="36.85018739117638" lon="-3.4942791125055677"><ele>313.0</ele><time>2026-04-22T15:29:47.001Z</time></trkpt><trkpt lat="36.850020801679285" lon="-3.4942328681123307"><ele>313.0</ele><time>2026-04-22T15:29:48.001Z</time></trkpt><trkpt lat="36.849894152884" lon="-3.49414284551403"><ele>314.0</ele><time>2026-04-22T15:29:49.001Z</time></trkpt><trkpt lat="36.84979728151856" lon="-3.4940409859260835"><ele>315.0</ele><time>2026-04-22T15:29:50.001Z</time></trkpt><trkpt lat="36.849710991168216" lon="-3.4939607493668716"><ele>316.0</ele><time>2026-04-22T15:29:51.001Z</time></trkpt><trkpt lat="36.849617993153714" lon="-3.493913326457909"><ele>317.0</ele><time>2026-04-22T15:29:52.001Z</time></trkpt><trkpt lat="36.84952658324806" lon="-3.4938540533506512"><ele>318.0</ele><time>2026-04-22T15:29:53.001Z</time></trkpt><trkpt lat="36.849455191814954" lon="-3.4937607105503483"><ele>321.5</ele><time>2026-04-22T15:29:54.001Z</time></trkpt><trkpt lat="36.84942439865569" lon="-3.493623238997483"><ele>325.0</ele><time>2026-04-22T15:29:55.001Z</time></trkpt><trkpt lat="36.84940327847336" lon="-3.493456321890185"><ele>328.5</ele><time>2026-04-22T15:29:56.001Z</time></trkpt><trkpt lat="36.849349305892126" lon="-3.493288423642868"><ele>332.0</ele><time>2026-04-22T15:29:57.001Z</time></trkpt><trkpt lat="36.84926110583234" lon="-3.4931757744961005"><ele>332.6</ele><time>2026-04-22T15:29:58.001Z</time></trkpt><trkpt lat="36.8491878399653" lon="-3.493077295332867"><ele>333.20000000000005</ele><time>2026-04-22T15:29:59.001Z</time></trkpt><trkpt lat="36.84912574519195" lon="-3.4930124211199987"><ele>333.8</ele><time>2026-04-22T15:30:00Z</time></trkpt><trkpt lat="36.84912460931984" lon="-3.4928778219448833"><ele>334.4</ele><time>2026-04-22T15:30:02Z</time></trkpt><trkpt lat="36.84917491335648" lon="-3.492784175207517"><ele>335.0</ele><time>2026-04-22T15:30:03Z</time></trkpt><trkpt lat="36.849283515152266" lon="-3.4927399356623057"><ele>338.0</ele><time>2026-04-22T15:30:04Z</time></trkpt><trkpt lat="36.84942378583267" lon="-3.492651157981191"><ele>341.0</ele><time>2026-04-22T15:30:05Z</time></trkpt><trkpt lat="36.849566279490496" lon="-3.492570765312333"><ele>344.0</ele><time>2026-04-22T15:30:06Z</time></trkpt><trkpt lat="36.849720378310884" lon="-3.4924931936913586"><ele>344.0</ele><time>2026-04-22T15:30:07Z</time></trkpt><trkpt lat="36.84987751400047" lon="-3.492420612438097"><ele>344.0</ele><time>2026-04-22T15:30:08Z</time></trkpt><trkpt lat="36.85003325969301" lon="-3.4923569346872547"><ele>344.0</ele><time>2026-04-22T15:30:09Z</time></trkpt><trkpt lat="36.85018685623523" lon="-3.4922981922118113"><ele>343.0</ele><time>2026-04-22T15:30:10Z</time></trkpt><trkpt lat="36.85034562742909" lon="-3.49223786671835"><ele>342.0</ele><time>2026-04-22T15:30:11Z</time></trkpt><trkpt lat="36.85050089333335" lon="-3.4921884991913945"><ele>341.0</ele><time>2026-04-22T15:30:12Z</time></trkpt><trkpt lat="36.85064729608347" lon="-3.4921462441237896"><ele>341.0</ele><time>2026-04-22T15:30:13Z</time></trkpt><trkpt lat="36.85078168098556" lon="-3.4921044668641974"><ele>341.0</ele><time>2026-04-22T15:30:14Z</time></trkpt><trkpt lat="36.85092257997526" lon="-3.4920611569658644"><ele>341.0</ele><time>2026-04-22T15:30:15Z</time></trkpt><trkpt lat="36.851068699292895" lon="-3.4920179029227656"><ele>341.0</ele><time>2026-04-22T15:30:16Z</time></trkpt><trkpt lat="36.85122240309787" lon="-3.4919650703152434"><ele>339.33333333333337</ele><time>2026-04-22T15:30:17Z</time></trkpt><trkpt lat="36.85138516139882" lon="-3.4919061419809094"><ele>337.6666666666667</ele><time>2026-04-22T15:30:18Z</time></trkpt><trkpt lat="36.85155273282102" lon="-3.4918468066366146"><ele>336.0</ele><time>2026-04-22T15:30:19Z</time></trkpt><trkpt lat="36.851720290630674" lon="-3.4918297212768765"><ele>335.0</ele><time>2026-04-22T15:30:20Z</time></trkpt><trkpt lat="36.85188494723921" lon="-3.491714078365307"><ele>334.0</ele><time>2026-04-22T15:30:21Z</time></trkpt><trkpt lat="36.85205860637888" lon="-3.4916294451172414"><ele>333.0</ele><time>2026-04-22T15:30:22Z</time></trkpt><trkpt lat="36.8522376942529" lon="-3.4915388557368976"><ele>333.0</ele><time>2026-04-22T15:30:23Z</time></trkpt><trkpt lat="36.85242090251701" lon="-3.4914473016630314"><ele>333.0</ele><time>2026-04-22T15:30:24Z</time></trkpt><trkpt lat="36.85260523587339" lon="-3.4913564066834644"><ele>333.0</ele><time>2026-04-22T15:30:25Z</time></trkpt><trkpt lat="36.85279702534097" lon="-3.4912553563005937"><ele>334.3333333333333</ele><time>2026-04-22T15:30:26Z</time></trkpt><trkpt lat="36.85299575758246" lon="-3.491142915071845"><ele>335.66666666666663</ele><time>2026-04-22T15:30:27Z</time></trkpt><trkpt lat="36.853198500586636" lon="-3.491023268342936"><ele>337.0</ele><time>2026-04-22T15:30:28Z</time></trkpt><trkpt lat="36.853399530932585" lon="-3.4909011733256934"><ele>329.5</ele><time>2026-04-22T15:30:29Z</time></trkpt><trkpt lat="36.85359955126658" lon="-3.4907741822974043"><ele>322.0</ele><time>2026-04-22T15:30:30Z</time></trkpt><trkpt lat="36.853798947260536" lon="-3.4906421231029854"><ele>322.0</ele><time>2026-04-22T15:30:31Z</time></trkpt><trkpt lat="36.85399075088072" lon="-3.4905035778841333"><ele>322.0</ele><time>2026-04-22T15:30:32Z</time></trkpt><trkpt lat="36.8541815631859" lon="-3.4903500890293935"><ele>322.0</ele><time>2026-04-22T15:30:33Z</time></trkpt><trkpt lat="36.85437416554098" lon="-3.4901888740636697"><ele>321.0</ele><time>2026-04-22T15:30:34Z</time></trkpt><trkpt lat="36.85456178419695" lon="-3.490025614137626"><ele>320.0</ele><time>2026-04-22T15:30:35Z</time></trkpt><trkpt lat="36.854752330566484" lon="-3.4898538928008516"><ele>320.0</ele><time>2026-04-22T15:30:36Z</time></trkpt><trkpt lat="36.85494366239378" lon="-3.4896766842278724"><ele>320.0</ele><time>2026-04-22T15:30:37Z</time></trkpt><trkpt lat="36.855134105195916" lon="-3.4894982994626678"><ele>321.33333333333337</ele><time>2026-04-22T15:30:38Z</time></trkpt><trkpt lat="36.855305999226594" lon="-3.48932171991952"><ele>322.6666666666667</ele><time>2026-04-22T15:30:39Z</time></trkpt><trkpt lat="36.85546538467152" lon="-3.4891491092541593"><ele>324.0</ele><time>2026-04-22T15:30:40Z</time></trkpt><trkpt lat="36.8556219504867" lon="-3.488970320438761"><ele>324.0</ele><time>2026-04-22T15:30:41Z</time></trkpt><trkpt lat="36.85577923562159" lon="-3.488787222265275"><ele>324.0</ele><time>2026-04-22T15:30:42Z</time></trkpt><trkpt lat="36.8559378390724" lon="-3.488591681723918"><ele>324.0</ele><time>2026-04-22T15:30:43Z</time></trkpt><trkpt lat="36.85609431746989" lon="-3.4883918695638862"><ele>328.0</ele><time>2026-04-22T15:30:44Z</time></trkpt><trkpt lat="36.85625170599554" lon="-3.4881886279374137"><ele>332.0</ele><time>2026-04-22T15:30:45Z</time></trkpt><trkpt lat="36.856409870169365" lon="-3.487985655693061"><ele>336.33333333333337</ele><time>2026-04-22T15:30:46Z</time></trkpt><trkpt lat="36.856560707870344" lon="-3.4877803061090207"><ele>340.6666666666667</ele><time>2026-04-22T15:30:47Z</time></trkpt><trkpt lat="36.85670494251206" lon="-3.4875794091883434"><ele>345.0</ele><time>2026-04-22T15:30:48Z</time></trkpt><trkpt lat="36.85684735390687" lon="-3.487378456460885"><ele>340.0</ele><time>2026-04-22T15:30:49Z</time></trkpt><trkpt lat="36.856991978284256" lon="-3.4871818271204886"><ele>335.0</ele><time>2026-04-22T15:30:50Z</time></trkpt><trkpt lat="36.85714214676371" lon="-3.486983057076944"><ele>330.0</ele><time>2026-04-22T15:30:51Z</time></trkpt><trkpt lat="36.85730480151334" lon="-3.486800402201109"><ele>330.0</ele><time>2026-04-22T15:30:52Z</time></trkpt><trkpt lat="36.8574759268474" lon="-3.4866227397479332"><ele>330.0</ele><time>2026-04-22T15:30:53Z</time></trkpt><trkpt lat="36.85765081224785" lon="-3.486462139544963"><ele>330.0</ele><time>2026-04-22T15:30:54Z</time></trkpt><trkpt lat="36.857830053594704" lon="-3.486311423269464"><ele>332.0</ele><time>2026-04-22T15:30:55Z</time></trkpt><trkpt lat="36.85800942499686" lon="-3.486172794956434"><ele>334.0</ele><time>2026-04-22T15:30:56Z</time></trkpt><trkpt lat="36.85819241949716" lon="-3.486042273263187"><ele>336.0</ele><time>2026-04-22T15:30:57Z</time></trkpt><trkpt lat="36.858377351700106" lon="-3.4859349490842115"><ele>333.0</ele><time>2026-04-22T15:30:58Z</time></trkpt><trkpt lat="36.858568199234405" lon="-3.4858358281322075"><ele>330.0</ele><time>2026-04-22T15:30:59Z</time></trkpt><trkpt lat="36.85876171918235" lon="-3.4857399375780114"><ele>327.0</ele><time>2026-04-22T15:31:00Z</time></trkpt><trkpt lat="36.858960965321685" lon="-3.4856546320545876"><ele>327.0</ele><time>2026-04-22T15:31:01Z</time></trkpt><trkpt lat="36.85916810274905" lon="-3.4855803014242013"><ele>327.0</ele><time>2026-04-22T15:31:02Z</time></trkpt><trkpt lat="36.85937856075996" lon="-3.4855139870799623"><ele>327.0</ele><time>2026-04-22T15:31:03Z</time></trkpt><trkpt lat="36.8595885486541" lon="-3.4854469104919423"><ele>328.0</ele><time>2026-04-22T15:31:04Z</time></trkpt><trkpt lat="36.85979778181974" lon="-3.4853834912942"><ele>329.0</ele><time>2026-04-22T15:31:05Z</time></trkpt><trkpt lat="36.860002505613295" lon="-3.4853181148319297"><ele>330.0</ele><time>2026-04-22T15:31:06Z</time></trkpt><trkpt lat="36.86020198688595" lon="-3.485251688621222"><ele>315.0</ele><time>2026-04-22T15:31:07Z</time></trkpt><trkpt lat="36.86039843222602" lon="-3.485184684469127"><ele>300.0</ele><time>2026-04-22T15:31:08Z</time></trkpt><trkpt lat="36.860597245938216" lon="-3.4851010623887615"><ele>285.0</ele><time>2026-04-22T15:31:09Z</time></trkpt><trkpt lat="36.86079341109041" lon="-3.485018693548367"><ele>286.6666666666667</ele><time>2026-04-22T15:31:10Z</time></trkpt><trkpt lat="36.860990011368585" lon="-3.4849297568476816"><ele>288.33333333333337</ele><time>2026-04-22T15:31:11Z</time></trkpt><trkpt lat="36.861183772234405" lon="-3.4848412355587723"><ele>290.0</ele><time>2026-04-22T15:31:12Z</time></trkpt><trkpt lat="36.86137599158369" lon="-3.4847507213830777"><ele>290.0</ele><time>2026-04-22T15:31:13Z</time></trkpt><trkpt lat="36.861564460034806" lon="-3.4846563041331637"><ele>290.0</ele><time>2026-04-22T15:31:14Z</time></trkpt><trkpt lat="36.861751820060235" lon="-3.4845565157041998"><ele>290.0</ele><time>2026-04-22T15:31:15Z</time></trkpt><trkpt lat="36.86192793576943" lon="-3.484461900863223"><ele>303.33333333333337</ele><time>2026-04-22T15:31:16Z</time></trkpt><trkpt lat="36.86209264669711" lon="-3.484365350877596"><ele>316.6666666666667</ele><time>2026-04-22T15:31:17Z</time></trkpt><trkpt lat="36.862261277271216" lon="-3.4842650306331855"><ele>330.0</ele><time>2026-04-22T15:31:18Z</time></trkpt><trkpt lat="36.86243531148993" lon="-3.4841567454665823"><ele>330.0</ele><time>2026-04-22T15:31:19Z</time></trkpt><trkpt lat="36.86260965251619" lon="-3.4840445279914434"><ele>330.0</ele><time>2026-04-22T15:31:20Z</time></trkpt><trkpt lat="36.86278429362149" lon="-3.48392709798161"><ele>330.0</ele><time>2026-04-22T15:31:21Z</time></trkpt><trkpt lat="36.86295882741796" lon="-3.4838083930132675"><ele>330.0</ele><time>2026-04-22T15:31:22Z</time></trkpt><trkpt lat="36.86312911811805" lon="-3.483684565997371"><ele>330.0</ele><time>2026-04-22T15:31:23Z</time></trkpt><trkpt lat="36.86329862139468" lon="-3.4835556984483547"><ele>330.0</ele><time>2026-04-22T15:31:24Z</time></trkpt><trkpt lat="36.863466548268065" lon="-3.483430782054877"><ele>330.3333333333333</ele><time>2026-04-22T15:31:25Z</time></trkpt><trkpt lat="36.86363679466755" lon="-3.4833043301976763"><ele>330.66666666666663</ele><time>2026-04-22T15:31:26Z</time></trkpt><trkpt lat="36.863805005371574" lon="-3.48317327061484"><ele>331.0</ele><time>2026-04-22T15:31:27Z</time></trkpt><trkpt lat="36.86396879954727" lon="-3.4830402133593634"><ele>333.0</ele><time>2026-04-22T15:31:28Z</time></trkpt><trkpt lat="36.86413595119499" lon="-3.4829051273957994"><ele>335.0</ele><time>2026-04-22T15:31:29Z</time></trkpt><trkpt lat="36.86430561053688" lon="-3.482775790970216"><ele>337.0</ele><time>2026-04-22T15:31:30Z</time></trkpt><trkpt lat="36.86447594394396" lon="-3.4826430690142054"><ele>331.3333333333333</ele><time>2026-04-22T15:31:31Z</time></trkpt><trkpt lat="36.86465244894925" lon="-3.482517153840241"><ele>325.6666666666667</ele><time>2026-04-22T15:31:32Z</time></trkpt><trkpt lat="36.864821662385886" lon="-3.482394640707785"><ele>320.0</ele><time>2026-04-22T15:31:33Z</time></trkpt><trkpt lat="36.86499702370594" lon="-3.482270969958629"><ele>321.6666666666667</ele><time>2026-04-22T15:31:34Z</time></trkpt><trkpt lat="36.86518204441974" lon="-3.4821594918079817"><ele>323.3333333333333</ele><time>2026-04-22T15:31:35Z</time></trkpt><trkpt lat="36.86537113721895" lon="-3.482046587135366"><ele>325.0</ele><time>2026-04-22T15:31:36Z</time></trkpt><trkpt lat="36.86556889867746" lon="-3.4819290149806785"><ele>325.0</ele><time>2026-04-22T15:31:37Z</time></trkpt><trkpt lat="36.86577371307398" lon="-3.4818197086323535"><ele>325.0</ele><time>2026-04-22T15:31:38Z</time></trkpt><trkpt lat="36.86598862567653" lon="-3.481716458126408"><ele>317.5</ele><time>2026-04-22T15:31:39Z</time></trkpt><trkpt lat="36.86621083062091" lon="-3.48162121014996"><ele>310.0</ele><time>2026-04-22T15:31:40Z</time></trkpt><trkpt lat="36.866438914525176" lon="-3.481527026731967"><ele>310.0</ele><time>2026-04-22T15:31:41Z</time></trkpt><trkpt lat="36.866674745987844" lon="-3.481440233991489"><ele>310.0</ele><time>2026-04-22T15:31:42Z</time></trkpt><trkpt lat="36.86691070726361" lon="-3.4813597741473843"><ele>311.5</ele><time>2026-04-22T15:31:43Z</time></trkpt><trkpt lat="36.8671496740847" lon="-3.481286075788462"><ele>313.0</ele><time>2026-04-22T15:31:44Z</time></trkpt><trkpt lat="36.867392720295335" lon="-3.4812221929590947"><ele>301.0</ele><time>2026-04-22T15:31:45Z</time></trkpt><trkpt lat="36.867631522756575" lon="-3.481164512537387"><ele>289.0</ele><time>2026-04-22T15:31:46Z</time></trkpt><trkpt lat="36.867869011182265" lon="-3.481107731539213"><ele>289.0</ele><time>2026-04-22T15:31:47.001Z</time></trkpt><trkpt lat="36.86810967705007" lon="-3.4810497879702185"><ele>289.0</ele><time>2026-04-22T15:31:48.001Z</time></trkpt><trkpt lat="36.86835097205446" lon="-3.480988365690032"><ele>273.5</ele><time>2026-04-22T15:31:49.001Z</time></trkpt><trkpt lat="36.86859248713429" lon="-3.4809295241384017"><ele>258.0</ele><time>2026-04-22T15:31:50.001Z</time></trkpt><trkpt lat="36.86883562514257" lon="-3.4808697588900177"><ele>258.0</ele><time>2026-04-22T15:31:51.001Z</time></trkpt><trkpt lat="36.86907802782494" lon="-3.4808083285206104"><ele>258.0</ele><time>2026-04-22T15:31:52.001Z</time></trkpt><trkpt lat="36.86932191774332" lon="-3.4807480136486357"><ele>252.0</ele><time>2026-04-22T15:31:53.001Z</time></trkpt><trkpt lat="36.869565661315285" lon="-3.4806896794080453"><ele>246.0</ele><time>2026-04-22T15:31:54.001Z</time></trkpt><trkpt lat="36.86981359398723" lon="-3.4806272086239014"><ele>246.0</ele><time>2026-04-22T15:31:55.001Z</time></trkpt><trkpt lat="36.87006321757703" lon="-3.4805725265764353"><ele>246.0</ele><time>2026-04-22T15:31:56.001Z</time></trkpt><trkpt lat="36.87031293739811" lon="-3.480514548736774"><ele>254.5</ele><time>2026-04-22T15:31:57.001Z</time></trkpt><trkpt lat="36.870558333339986" lon="-3.4804506497474397"><ele>263.0</ele><time>2026-04-22T15:31:58.001Z</time></trkpt><trkpt lat="36.87080553472539" lon="-3.480387088751095"><ele>277.0</ele><time>2026-04-22T15:31:59.001Z</time></trkpt><trkpt lat="36.8710571425011" lon="-3.480330359881808"><ele>291.0</ele><time>2026-04-22T15:32:00.001Z</time></trkpt><trkpt lat="36.87130492880645" lon="-3.4802719808658305"><ele>291.0</ele><time>2026-04-22T15:32:01.001Z</time></trkpt><trkpt lat="36.87154623348673" lon="-3.4802106143938762"><ele>291.0</ele><time>2026-04-22T15:32:02.001Z</time></trkpt><trkpt lat="36.87179305879002" lon="-3.480150767346598"><ele>284.0</ele><time>2026-04-22T15:32:03.001Z</time></trkpt><trkpt lat="36.872025103330444" lon="-3.48009970471429"><ele>277.0</ele><time>2026-04-22T15:32:04.001Z</time></trkpt><trkpt lat="36.87224635037505" lon="-3.4800547555279864"><ele>277.0</ele><time>2026-04-22T15:32:05.001Z</time></trkpt><trkpt lat="36.872469181523016" lon="-3.4800077216253054"><ele>277.0</ele><time>2026-04-22T15:32:06Z</time></trkpt><trkpt lat="36.872700248545215" lon="-3.479974242610873"><ele>273.0</ele><time>2026-04-22T15:32:07Z</time></trkpt><trkpt lat="36.8729392756737" lon="-3.4799535581318577"><ele>269.0</ele><time>2026-04-22T15:32:08Z</time></trkpt><trkpt lat="36.87318127103553" lon="-3.4799510998009233"><ele>269.0</ele><time>2026-04-22T15:32:09Z</time></trkpt><trkpt lat="36.87342671642021" lon="-3.4799686109631938"><ele>269.0</ele><time>2026-04-22T15:32:10Z</time></trkpt><trkpt lat="36.87367753690081" lon="-3.48000839725292"><ele>266.0</ele><time>2026-04-22T15:32:11Z</time></trkpt><trkpt lat="36.873930952292966" lon="-3.4800665070361028"><ele>263.0</ele><time>2026-04-22T15:32:12Z</time></trkpt><trkpt lat="36.87418747438089" lon="-3.4801443089149564"><ele>249.0</ele><time>2026-04-22T15:32:13Z</time></trkpt><trkpt lat="36.87445246753692" lon="-3.480240461191875"><ele>235.0</ele><time>2026-04-22T15:32:14Z</time></trkpt><trkpt lat="36.8747170953034" lon="-3.4803337025067482"><ele>235.0</ele><time>2026-04-22T15:32:15Z</time></trkpt><trkpt lat="36.87498498658419" lon="-3.4804277687058915"><ele>235.0</ele><time>2026-04-22T15:32:16Z</time></trkpt><trkpt lat="36.87525440947526" lon="-3.4805196995876386"><ele>211.5</ele><time>2026-04-22T15:32:17Z</time></trkpt><trkpt lat="36.875517928090126" lon="-3.4806154434127676"><ele>188.0</ele><time>2026-04-22T15:32:18Z</time></trkpt><trkpt lat="36.875769288893494" lon="-3.4807043781495057"><ele>185.5</ele><time>2026-04-22T15:32:19Z</time></trkpt><trkpt lat="36.87601061969812" lon="-3.480790653891432"><ele>183.0</ele><time>2026-04-22T15:32:20Z</time></trkpt><trkpt lat="36.876250642609776" lon="-3.480875258200112"><ele>183.0</ele><time>2026-04-22T15:32:21Z</time></trkpt><trkpt lat="36.876492243238" lon="-3.4809577705338772"><ele>183.0</ele><time>2026-04-22T15:32:22Z</time></trkpt><trkpt lat="36.876730575056044" lon="-3.4810405250789755"><ele>185.5</ele><time>2026-04-22T15:32:23Z</time></trkpt><trkpt lat="36.876966563087024" lon="-3.4811261953903876"><ele>188.0</ele><time>2026-04-22T15:32:24Z</time></trkpt><trkpt lat="36.87719998037676" lon="-3.4812145752762382"><ele>195.5</ele><time>2026-04-22T15:32:25Z</time></trkpt><trkpt lat="36.8774447136933" lon="-3.481305912298037"><ele>203.0</ele><time>2026-04-22T15:32:26Z</time></trkpt><trkpt lat="36.87768024148257" lon="-3.4813967151192893"><ele>218.5</ele><time>2026-04-22T15:32:27Z</time></trkpt><trkpt lat="36.8779212065257" lon="-3.481485791846632"><ele>234.0</ele><time>2026-04-22T15:32:28Z</time></trkpt><trkpt lat="36.87816110634512" lon="-3.4815764443093555"><ele>234.0</ele><time>2026-04-22T15:32:29Z</time></trkpt><trkpt lat="36.878400686557924" lon="-3.4816654867244887"><ele>234.0</ele><time>2026-04-22T15:32:30Z</time></trkpt><trkpt lat="36.87864167235716" lon="-3.4817571752123735"><ele>242.5</ele><time>2026-04-22T15:32:31Z</time></trkpt><trkpt lat="36.878879239521645" lon="-3.4818540206831368"><ele>251.0</ele><time>2026-04-22T15:32:32Z</time></trkpt><trkpt lat="36.87911597266306" lon="-3.4819619494504237"><ele>254.0</ele><time>2026-04-22T15:32:33Z</time></trkpt><trkpt lat="36.879349947341225" lon="-3.482088785499875"><ele>257.0</ele><time>2026-04-22T15:32:34Z</time></trkpt><trkpt lat="36.87958377710378" lon="-3.4822335126490875"><ele>261.5</ele><time>2026-04-22T15:32:35Z</time></trkpt><trkpt lat="36.8798199800739" lon="-3.4823926994561996"><ele>266.0</ele><time>2026-04-22T15:32:36Z</time></trkpt><trkpt lat="36.880050697969764" lon="-3.4825625807875826"><ele>276.0</ele><time>2026-04-22T15:32:37Z</time></trkpt><trkpt lat="36.88027943175816" lon="-3.482750380232098"><ele>286.0</ele><time>2026-04-22T15:32:38Z</time></trkpt><trkpt lat="36.88049831989189" lon="-3.482957255263833"><ele>286.0</ele><time>2026-04-22T15:32:39Z</time></trkpt><trkpt lat="36.880703998420586" lon="-3.4831817666592166"><ele>286.0</ele><time>2026-04-22T15:32:40Z</time></trkpt><trkpt lat="36.8809040555478" lon="-3.483418114952035"><ele>296.0</ele><time>2026-04-22T15:32:41Z</time></trkpt><trkpt lat="36.881094407852494" lon="-3.4836656957755716"><ele>306.0</ele><time>2026-04-22T15:32:42Z</time></trkpt><trkpt lat="36.881270175641724" lon="-3.4839239145099863"><ele>306.0</ele><time>2026-04-22T15:32:43Z</time></trkpt><trkpt lat="36.8814400293817" lon="-3.484193739314329"><ele>306.0</ele><time>2026-04-22T15:32:44Z</time></trkpt><trkpt lat="36.88159581032901" lon="-3.484473908979481"><ele>314.0</ele><time>2026-04-22T15:32:45Z</time></trkpt><trkpt lat="36.88173130525809" lon="-3.484758546502889"><ele>322.0</ele><time>2026-04-22T15:32:46Z</time></trkpt><trkpt lat="36.88185849357439" lon="-3.4850454395019557"><ele>322.0</ele><time>2026-04-22T15:32:47Z</time></trkpt><trkpt lat="36.8819749596938" lon="-3.4853321733955824"><ele>322.0</ele><time>2026-04-22T15:32:48Z</time></trkpt><trkpt lat="36.88208688354718" lon="-3.4856192140061397"><ele>312.5</ele><time>2026-04-22T15:32:49Z</time></trkpt><trkpt lat="36.88218861397368" lon="-3.4859029789470046"><ele>303.0</ele><time>2026-04-22T15:32:50Z</time></trkpt><trkpt lat="36.8822835503457" lon="-3.4861888971775836"><ele>297.5</ele><time>2026-04-22T15:32:51Z</time></trkpt><trkpt lat="36.88238297305929" lon="-3.4864679697413434"><ele>292.0</ele><time>2026-04-22T15:32:52Z</time></trkpt><trkpt lat="36.88249319258742" lon="-3.4867432527118565"><ele>293.5</ele><time>2026-04-22T15:32:53Z</time></trkpt><trkpt lat="36.882614274435944" lon="-3.4870104168460094"><ele>295.0</ele><time>2026-04-22T15:32:54Z</time></trkpt><trkpt lat="36.882747643181105" lon="-3.4872741823261015"><ele>295.0</ele><time>2026-04-22T15:32:55Z</time></trkpt><trkpt lat="36.88289496358555" lon="-3.48754071547003"><ele>295.0</ele><time>2026-04-22T15:32:56Z</time></trkpt><trkpt lat="36.883050639022535" lon="-3.487795756416504"><ele>277.0</ele><time>2026-04-22T15:32:57Z</time></trkpt><trkpt lat="36.88321605202854" lon="-3.4880501568744657"><ele>259.0</ele><time>2026-04-22T15:32:58Z</time></trkpt><trkpt lat="36.88338470386066" lon="-3.4882972881413497"><ele>262.5</ele><time>2026-04-22T15:32:59Z</time></trkpt><trkpt lat="36.883554736961536" lon="-3.488542018386921"><ele>266.0</ele><time>2026-04-22T15:33:00Z</time></trkpt><trkpt lat="36.88372485272248" lon="-3.4887866260086686"><ele>266.0</ele><time>2026-04-22T15:33:01Z</time></trkpt><trkpt lat="36.883892052488775" lon="-3.4890324942260813"><ele>266.0</ele><time>2026-04-22T15:33:02Z</time></trkpt><trkpt lat="36.88405507589281" lon="-3.4892791528068736"><ele>266.0</ele><time>2026-04-22T15:33:03Z</time></trkpt><trkpt lat="36.88422152042446" lon="-3.4895214465117377"><ele>266.0</ele><time>2026-04-22T15:33:04Z</time></trkpt><trkpt lat="36.88438841525014" lon="-3.4897649576351166"><ele>283.5</ele><time>2026-04-22T15:33:05Z</time></trkpt><trkpt lat="36.88455547967411" lon="-3.49001168842893"><ele>301.0</ele><time>2026-04-22T15:33:06Z</time></trkpt><trkpt lat="36.88472284313518" lon="-3.490261082104323"><ele>291.5</ele><time>2026-04-22T15:33:07Z</time></trkpt><trkpt lat="36.884893162013135" lon="-3.4905100371126325"><ele>282.0</ele><time>2026-04-22T15:33:08Z</time></trkpt><trkpt lat="36.88506387649766" lon="-3.4907588288197684"><ele>293.5</ele><time>2026-04-22T15:33:09Z</time></trkpt><trkpt lat="36.88523591800754" lon="-3.491010846509221"><ele>305.0</ele><time>2026-04-22T15:33:10Z</time></trkpt><trkpt lat="36.88540790224251" lon="-3.491263393249687"><ele>305.0</ele><time>2026-04-22T15:33:11Z</time></trkpt><trkpt lat="36.8855809436528" lon="-3.4915170024224853"><ele>305.0</ele><time>2026-04-22T15:33:12Z</time></trkpt><trkpt lat="36.88575687708643" lon="-3.4917724692441077"><ele>314.5</ele><time>2026-04-22T15:33:13Z</time></trkpt><trkpt lat="36.88593223154578" lon="-3.492027800437235"><ele>324.0</ele><time>2026-04-22T15:33:14Z</time></trkpt><trkpt lat="36.88610864588037" lon="-3.4922853142615127"><ele>324.0</ele><time>2026-04-22T15:33:15Z</time></trkpt><trkpt lat="36.88628692942827" lon="-3.4925377747993718"><ele>324.0</ele><time>2026-04-22T15:33:16Z</time></trkpt><trkpt lat="36.88646709755925" lon="-3.4927808047715145"><ele>315.0</ele><time>2026-04-22T15:33:17Z</time></trkpt><trkpt lat="36.88665916846079" lon="-3.493012417604797"><ele>306.0</ele><time>2026-04-22T15:33:18Z</time></trkpt><trkpt lat="36.88685908029164" lon="-3.4932254613139087"><ele>301.5</ele><time>2026-04-22T15:33:19Z</time></trkpt><trkpt lat="36.88706474026821" lon="-3.4934211775836297"><ele>297.0</ele><time>2026-04-22T15:33:20Z</time></trkpt><trkpt lat="36.887273612269986" lon="-3.493607603505349"><ele>292.5</ele><time>2026-04-22T15:33:21Z</time></trkpt><trkpt lat="36.88748530605368" lon="-3.4937897578858483"><ele>288.0</ele><time>2026-04-22T15:33:22Z</time></trkpt><trkpt lat="36.887702750343976" lon="-3.493962239245634"><ele>288.0</ele><time>2026-04-22T15:33:23Z</time></trkpt><trkpt lat="36.88792124280426" lon="-3.494123509487186"><ele>288.0</ele><time>2026-04-22T15:33:24Z</time></trkpt><trkpt lat="36.88813896079983" lon="-3.4942796363927062"><ele>288.0</ele><time>2026-04-22T15:33:25Z</time></trkpt><trkpt lat="36.88835482169744" lon="-3.4944402037790168"><ele>288.0</ele><time>2026-04-22T15:33:26Z</time></trkpt><trkpt lat="36.888566820944014" lon="-3.494603966316774"><ele>293.5</ele><time>2026-04-22T15:33:27Z</time></trkpt><trkpt lat="36.88877599911222" lon="-3.4947711259871794"><ele>299.0</ele><time>2026-04-22T15:33:28Z</time></trkpt><trkpt lat="36.88898094275586" lon="-3.494949609007616"><ele>299.0</ele><time>2026-04-22T15:33:29Z</time></trkpt><trkpt lat="36.88917797659533" lon="-3.495143129010499"><ele>299.0</ele><time>2026-04-22T15:33:30Z</time></trkpt><trkpt lat="36.889371278468985" lon="-3.495348113078891"><ele>308.0</ele><time>2026-04-22T15:33:31Z</time></trkpt><trkpt lat="36.88956096474356" lon="-3.4955684521185386"><ele>317.0</ele><time>2026-04-22T15:33:32Z</time></trkpt><trkpt lat="36.889738913393664" lon="-3.4958024422676983"><ele>317.0</ele><time>2026-04-22T15:33:33Z</time></trkpt><trkpt lat="36.88991198200003" lon="-3.496052661392719"><ele>317.0</ele><time>2026-04-22T15:33:34Z</time></trkpt><trkpt lat="36.89007633367707" lon="-3.4963149010562202"><ele>329.0</ele><time>2026-04-22T15:33:35Z</time></trkpt><trkpt lat="36.89023332552158" lon="-3.496587372662821"><ele>341.0</ele><time>2026-04-22T15:33:36Z</time></trkpt><trkpt lat="36.89038594367313" lon="-3.4968641913852347"><ele>336.5</ele><time>2026-04-22T15:33:37Z</time></trkpt><trkpt lat="36.89053208689218" lon="-3.497148756864595"><ele>332.0</ele><time>2026-04-22T15:33:38Z</time></trkpt><trkpt lat="36.890674476466366" lon="-3.4974412460374467"><ele>332.0</ele><time>2026-04-22T15:33:39Z</time></trkpt><trkpt lat="36.89081010260292" lon="-3.4977403663444675"><ele>332.0</ele><time>2026-04-22T15:33:40Z</time></trkpt><trkpt lat="36.890938922660986" lon="-3.4980455558663315"><ele>312.5</ele><time>2026-04-22T15:33:41Z</time></trkpt><trkpt lat="36.891047210155484" lon="-3.4983555705740175"><ele>293.0</ele><time>2026-04-22T15:33:42Z</time></trkpt><trkpt lat="36.89113942354819" lon="-3.4986622246175507"><ele>282.0</ele><time>2026-04-22T15:33:43Z</time></trkpt><trkpt lat="36.89123322444479" lon="-3.498966463928092"><ele>271.0</ele><time>2026-04-22T15:33:44Z</time></trkpt><trkpt lat="36.891313996263094" lon="-3.499261680228421"><ele>271.0</ele><time>2026-04-22T15:33:45Z</time></trkpt><trkpt lat="36.89139019212632" lon="-3.499561949319121"><ele>271.0</ele><time>2026-04-22T15:33:46.001Z</time></trkpt><trkpt lat="36.8914603839205" lon="-3.4998690845770155"><ele>257.5</ele><time>2026-04-22T15:33:47.001Z</time></trkpt><trkpt lat="36.8915299336694" lon="-3.5001763574778066"><ele>244.0</ele><time>2026-04-22T15:33:48.001Z</time></trkpt><trkpt lat="36.89159927290572" lon="-3.500485248076928"><ele>242.0</ele><time>2026-04-22T15:33:49.001Z</time></trkpt><trkpt lat="36.8916717746823" lon="-3.5007946630263254"><ele>240.0</ele><time>2026-04-22T15:33:50.001Z</time></trkpt><trkpt lat="36.89174411021431" lon="-3.501105934554996"><ele>257.5</ele><time>2026-04-22T15:33:51.001Z</time></trkpt><trkpt lat="36.8918163601107" lon="-3.5014184514032656"><ele>275.0</ele><time>2026-04-22T15:33:52.001Z</time></trkpt><trkpt lat="36.89188536560192" lon="-3.5017295942976805"><ele>275.0</ele><time>2026-04-22T15:33:53.001Z</time></trkpt><trkpt lat="36.89195406906951" lon="-3.50203901846857"><ele>275.0</ele><time>2026-04-22T15:33:54.001Z</time></trkpt><trkpt lat="36.89202608614398" lon="-3.50234704953776"><ele>270.0</ele><time>2026-04-22T15:33:55.001Z</time></trkpt><trkpt lat="36.8920987201787" lon="-3.502651850045552"><ele>265.0</ele><time>2026-04-22T15:33:56.001Z</time></trkpt><trkpt lat="36.892164115218094" lon="-3.502959958399505"><ele>259.5</ele><time>2026-04-22T15:33:57.001Z</time></trkpt><trkpt lat="36.89223348869692" lon="-3.503264705718049"><ele>254.0</ele><time>2026-04-22T15:33:58.001Z</time></trkpt><trkpt lat="36.89229818702014" lon="-3.5035639662872713"><ele>252.5</ele><time>2026-04-22T15:33:59.001Z</time></trkpt><trkpt lat="36.89236228686179" lon="-3.5038559769586777"><ele>251.0</ele><time>2026-04-22T15:34:00.001Z</time></trkpt><trkpt lat="36.89242923333883" lon="-3.504142362567335"><ele>251.0</ele><time>2026-04-22T15:34:01.001Z</time></trkpt><trkpt lat="36.892509610128606" lon="-3.504418042887712"><ele>251.0</ele><time>2026-04-22T15:34:02.001Z</time></trkpt><trkpt lat="36.89260306928008" lon="-3.504681868140394"><ele>258.5</ele><time>2026-04-22T15:34:03.001Z</time></trkpt><trkpt lat="36.89270064557789" lon="-3.5049451385278423"><ele>266.0</ele><time>2026-04-22T15:34:04.001Z</time></trkpt><trkpt lat="36.89280351410315" lon="-3.5052085777578292"><ele>264.0</ele><time>2026-04-22T15:34:05.001Z</time></trkpt><trkpt lat="36.89291007589978" lon="-3.5054622551033794"><ele>262.0</ele><time>2026-04-22T15:34:06.001Z</time></trkpt><trkpt lat="36.893032802099356" lon="-3.5057081510592476"><ele>262.0</ele><time>2026-04-22T15:34:07.001Z</time></trkpt><trkpt lat="36.89315908534821" lon="-3.5059442367758527"><ele>262.0</ele><time>2026-04-22T15:34:08.001Z</time></trkpt><trkpt lat="36.89330084299901" lon="-3.506170553028092"><ele>278.0</ele><time>2026-04-22T15:34:09.001Z</time></trkpt><trkpt lat="36.893451336205516" lon="-3.506389060496292"><ele>294.0</ele><time>2026-04-22T15:34:10.001Z</time></trkpt><trkpt lat="36.89360923376348" lon="-3.506598936223685"><ele>294.0</ele><time>2026-04-22T15:34:11.001Z</time></trkpt><trkpt lat="36.893767908320186" lon="-3.506802323925906"><ele>294.0</ele><time>2026-04-22T15:34:12Z</time></trkpt><trkpt lat="36.893933306895526" lon="-3.5069965499115163"><ele>290.5</ele><time>2026-04-22T15:34:13Z</time></trkpt><trkpt lat="36.894107806590675" lon="-3.507182480312347"><ele>287.0</ele><time>2026-04-22T15:34:14Z</time></trkpt><trkpt lat="36.89429199489522" lon="-3.507354624062844"><ele>314.0</ele><time>2026-04-22T15:34:15Z</time></trkpt><trkpt lat="36.89448601989809" lon="-3.507510833573583"><ele>341.0</ele><time>2026-04-22T15:34:16Z</time></trkpt><trkpt lat="36.89468885341629" lon="-3.5076603366442334"><ele>341.0</ele><time>2026-04-22T15:34:17Z</time></trkpt><trkpt lat="36.89489874500288" lon="-3.5078033332352687"><ele>341.0</ele><time>2026-04-22T15:34:18Z</time></trkpt><trkpt lat="36.89511315159062" lon="-3.5079456827057234"><ele>342.0</ele><time>2026-04-22T15:34:19Z</time></trkpt><trkpt lat="36.89533803594007" lon="-3.5080835311786713"><ele>343.0</ele><time>2026-04-22T15:34:20Z</time></trkpt><trkpt lat="36.895518804775456" lon="-3.5082250049601433"><ele>343.0</ele><time>2026-04-22T15:34:21Z</time></trkpt><trkpt lat="36.89573923708934" lon="-3.5083475303548033"><ele>343.0</ele><time>2026-04-22T15:34:22Z</time></trkpt><trkpt lat="36.89595822937286" lon="-3.508464712530954"><ele>349.0</ele><time>2026-04-22T15:34:23Z</time></trkpt><trkpt lat="36.8961774002726" lon="-3.508577210104671"><ele>355.0</ele><time>2026-04-22T15:34:24Z</time></trkpt><trkpt lat="36.89639313795944" lon="-3.5086784558921016"><ele>347.5</ele><time>2026-04-22T15:34:25Z</time></trkpt><trkpt lat="36.89660457974127" lon="-3.5087840534479375"><ele>340.0</ele><time>2026-04-22T15:34:26Z</time></trkpt><trkpt lat="36.896818707826704" lon="-3.508891297239538"><ele>340.0</ele><time>2026-04-22T15:34:27Z</time></trkpt><trkpt lat="36.8970253858436" lon="-3.5090023594563298"><ele>340.0</ele><time>2026-04-22T15:34:28Z</time></trkpt><trkpt lat="36.89721404898827" lon="-3.5091101451549043"><ele>340.0</ele><time>2026-04-22T15:34:29Z</time></trkpt><trkpt lat="36.897406781357006" lon="-3.509226633866574"><ele>338.3333333333333</ele><time>2026-04-22T15:34:30Z</time></trkpt><trkpt lat="36.89759366792397" lon="-3.5093554798710387"><ele>336.6666666666667</ele><time>2026-04-22T15:34:31Z</time></trkpt><trkpt lat="36.89777903032608" lon="-3.5094902073154532"><ele>335.0</ele><time>2026-04-22T15:34:32Z</time></trkpt><trkpt lat="36.897960984057114" lon="-3.5096440509453335"><ele>335.0</ele><time>2026-04-22T15:34:33Z</time></trkpt><trkpt lat="36.898141072211345" lon="-3.509805983598368"><ele>335.0</ele><time>2026-04-22T15:34:34Z</time></trkpt><trkpt lat="36.89831672409273" lon="-3.509970628964996"><ele>335.0</ele><time>2026-04-22T15:34:35Z</time></trkpt><trkpt lat="36.89848049091292" lon="-3.51014385977955"><ele>334.33333333333337</ele><time>2026-04-22T15:34:36Z</time></trkpt><trkpt lat="36.89863689689302" lon="-3.5103284418924576"><ele>333.6666666666667</ele><time>2026-04-22T15:34:37Z</time></trkpt><trkpt lat="36.8987885503458" lon="-3.51052754450015"><ele>333.0</ele><time>2026-04-22T15:34:38Z</time></trkpt><trkpt lat="36.898939496158555" lon="-3.5107396113502145"><ele>333.0</ele><time>2026-04-22T15:34:39Z</time></trkpt><trkpt lat="36.899083080235826" lon="-3.5109628862372526"><ele>333.0</ele><time>2026-04-22T15:34:40Z</time></trkpt><trkpt lat="36.89921829567738" lon="-3.51120554235554"><ele>357.5</ele><time>2026-04-22T15:34:41Z</time></trkpt><trkpt lat="36.899342668865614" lon="-3.511455195982604"><ele>382.0</ele><time>2026-04-22T15:34:42Z</time></trkpt><trkpt lat="36.899453370931404" lon="-3.5117330882434064"><ele>382.0</ele><time>2026-04-22T15:34:43Z</time></trkpt><trkpt lat="36.899555169430904" lon="-3.512002729853284"><ele>382.0</ele><time>2026-04-22T15:34:44Z</time></trkpt><trkpt lat="36.899644310435455" lon="-3.512280559092382"><ele>374.0</ele><time>2026-04-22T15:34:45Z</time></trkpt><trkpt lat="36.89973063322608" lon="-3.512565846694508"><ele>366.0</ele><time>2026-04-22T15:34:46Z</time></trkpt><trkpt lat="36.89980095334246" lon="-3.5128564212379314"><ele>357.0</ele><time>2026-04-22T15:34:47Z</time></trkpt><trkpt lat="36.89986086394391" lon="-3.5131524615951335"><ele>348.0</ele><time>2026-04-22T15:34:48Z</time></trkpt><trkpt lat="36.89990010023064" lon="-3.513455339783101"><ele>344.5</ele><time>2026-04-22T15:34:49Z</time></trkpt><trkpt lat="36.89992884305637" lon="-3.513763802552992"><ele>341.0</ele><time>2026-04-22T15:34:50Z</time></trkpt><trkpt lat="36.89994668133945" lon="-3.514080304161185"><ele>341.0</ele><time>2026-04-22T15:34:51Z</time></trkpt><trkpt lat="36.899960829948" lon="-3.5143962996534115"><ele>341.0</ele><time>2026-04-22T15:34:52Z</time></trkpt><trkpt lat="36.8999682191176" lon="-3.5147102711824982"><ele>357.5</ele><time>2026-04-22T15:34:53Z</time></trkpt><trkpt lat="36.89996459958493" lon="-3.5150291381108656"><ele>374.0</ele><time>2026-04-22T15:34:54Z</time></trkpt><trkpt lat="36.89994343816942" lon="-3.515354423472073"><ele>398.5</ele><time>2026-04-22T15:34:55Z</time></trkpt><trkpt lat="36.89992062023001" lon="-3.5156839353114595"><ele>423.0</ele><time>2026-04-22T15:34:56Z</time></trkpt><trkpt lat="36.89990005900148" lon="-3.516023890713891"><ele>427.5</ele><time>2026-04-22T15:34:57Z</time></trkpt><trkpt lat="36.8998849970136" lon="-3.5163689106742044"><ele>432.0</ele><time>2026-04-22T15:34:58Z</time></trkpt><trkpt lat="36.89986806754239" lon="-3.516710925389503"><ele>432.0</ele><time>2026-04-22T15:34:59Z</time></trkpt><trkpt lat="36.89984786629502" lon="-3.517053314008817"><ele>432.0</ele><time>2026-04-22T15:35:00Z</time></trkpt><trkpt lat="36.89982658182722" lon="-3.517397267205343"><ele>429.5</ele><time>2026-04-22T15:35:01Z</time></trkpt><trkpt lat="36.89980279614551" lon="-3.517735988433274"><ele>427.0</ele><time>2026-04-22T15:35:02Z</time></trkpt><trkpt lat="36.89978107012312" lon="-3.5180592409042015"><ele>426.0</ele><time>2026-04-22T15:35:03Z</time></trkpt><trkpt lat="36.89976586779535" lon="-3.518368280205102"><ele>425.0</ele><time>2026-04-22T15:35:04Z</time></trkpt><trkpt lat="36.89975062825752" lon="-3.5186644841258974"><ele>425.0</ele><time>2026-04-22T15:35:05Z</time></trkpt><trkpt lat="36.899730988392534" lon="-3.518953043044655"><ele>425.0</ele><time>2026-04-22T15:35:06Z</time></trkpt><trkpt lat="36.89971143665685" lon="-3.519234155960176"><ele>425.0</ele><time>2026-04-22T15:35:07Z</time></trkpt><trkpt lat="36.89969719788333" lon="-3.519498132687547"><ele>425.0</ele><time>2026-04-22T15:35:08Z</time></trkpt><trkpt lat="36.899683098567714" lon="-3.5197544770975036"><ele>425.0</ele><time>2026-04-22T15:35:09Z</time></trkpt><trkpt lat="36.89966773690357" lon="-3.5200139807512527"><ele>427.66666666666663</ele><time>2026-04-22T15:35:10Z</time></trkpt><trkpt lat="36.89965767295727" lon="-3.520276840959271"><ele>430.33333333333337</ele><time>2026-04-22T15:35:11Z</time></trkpt><trkpt lat="36.89965629677509" lon="-3.520539422296421"><ele>433.0</ele><time>2026-04-22T15:35:12Z</time></trkpt><trkpt lat="36.89966972791509" lon="-3.5208018193177337"><ele>434.33333333333337</ele><time>2026-04-22T15:35:13Z</time></trkpt><trkpt lat="36.89968976338838" lon="-3.521064134701163"><ele>435.66666666666663</ele><time>2026-04-22T15:35:14Z</time></trkpt><trkpt lat="36.8997152989527" lon="-3.5213324764758207"><ele>437.0</ele><time>2026-04-22T15:35:15Z</time></trkpt><trkpt lat="36.89975549600675" lon="-3.5216055528114234"><ele>437.0</ele><time>2026-04-22T15:35:16Z</time></trkpt><trkpt lat="36.89980495555262" lon="-3.521888005613233"><ele>437.0</ele><time>2026-04-22T15:35:17Z</time></trkpt><trkpt lat="36.8998721788448" lon="-3.522169743765181"><ele>434.5</ele><time>2026-04-22T15:35:18Z</time></trkpt><trkpt lat="36.899949307122625" lon="-3.522455341223767"><ele>432.0</ele><time>2026-04-22T15:35:19Z</time></trkpt><trkpt lat="36.90003923151053" lon="-3.522730390986695"><ele>433.5</ele><time>2026-04-22T15:35:20Z</time></trkpt><trkpt lat="36.90013787302877" lon="-3.5229991166912287"><ele>435.0</ele><time>2026-04-22T15:35:21Z</time></trkpt><trkpt lat="36.90025319518319" lon="-3.523263749152098"><ele>435.0</ele><time>2026-04-22T15:35:22Z</time></trkpt><trkpt lat="36.900379386043696" lon="-3.523519411031166"><ele>435.0</ele><time>2026-04-22T15:35:23Z</time></trkpt><trkpt lat="36.90051809765701" lon="-3.5237665519842825"><ele>431.5</ele><time>2026-04-22T15:35:24Z</time></trkpt><trkpt lat="36.900668826232454" lon="-3.5240066540656985"><ele>428.0</ele><time>2026-04-22T15:35:25Z</time></trkpt><trkpt lat="36.90083225881483" lon="-3.5242329740497524"><ele>433.0</ele><time>2026-04-22T15:35:26Z</time></trkpt><trkpt lat="36.901005836102314" lon="-3.5244545545884685"><ele>438.0</ele><time>2026-04-22T15:35:27Z</time></trkpt><trkpt lat="36.90119230823847" lon="-3.524668119495837"><ele>438.0</ele><time>2026-04-22T15:35:28Z</time></trkpt><trkpt lat="36.90138917158934" lon="-3.5248621061598344"><ele>438.0</ele><time>2026-04-22T15:35:29Z</time></trkpt><trkpt lat="36.90159506498567" lon="-3.5250392292719583"><ele>447.5</ele><time>2026-04-22T15:35:30Z</time></trkpt><trkpt lat="36.9018106187738" lon="-3.5252089452667916"><ele>457.0</ele><time>2026-04-22T15:35:31Z</time></trkpt><trkpt lat="36.90203216961762" lon="-3.525359873827675"><ele>448.5</ele><time>2026-04-22T15:35:32Z</time></trkpt><trkpt lat="36.902262838223535" lon="-3.5255046716097835"><ele>440.0</ele><time>2026-04-22T15:35:33Z</time></trkpt><trkpt lat="36.902499636560236" lon="-3.525628960855216"><ele>443.0</ele><time>2026-04-22T15:35:34Z</time></trkpt><trkpt lat="36.90274532415916" lon="-3.5257359900761713"><ele>446.0</ele><time>2026-04-22T15:35:35Z</time></trkpt><trkpt lat="36.90299595453674" lon="-3.525821259083779"><ele>446.0</ele><time>2026-04-22T15:35:36Z</time></trkpt><trkpt lat="36.903255900755134" lon="-3.5258909523088926"><ele>446.0</ele><time>2026-04-22T15:35:37Z</time></trkpt><trkpt lat="36.90351430886589" lon="-3.525945729754009"><ele>445.5</ele><time>2026-04-22T15:35:38Z</time></trkpt><trkpt lat="36.90377636863886" lon="-3.5259851073587343"><ele>445.0</ele><time>2026-04-22T15:35:39Z</time></trkpt><trkpt lat="36.90403892165142" lon="-3.526015822158869"><ele>443.0</ele><time>2026-04-22T15:35:40Z</time></trkpt><trkpt lat="36.9042982046199" lon="-3.526047196435455"><ele>441.0</ele><time>2026-04-22T15:35:41Z</time></trkpt><trkpt lat="36.904554950615754" lon="-3.5260845232060194"><ele>441.0</ele><time>2026-04-22T15:35:42Z</time></trkpt><trkpt lat="36.904811341488276" lon="-3.5261318585791597"><ele>441.0</ele><time>2026-04-22T15:35:43Z</time></trkpt><trkpt lat="36.90506427888182" lon="-3.526193352941606"><ele>439.5</ele><time>2026-04-22T15:35:44.001Z</time></trkpt><trkpt lat="36.90532199447413" lon="-3.526276353812447"><ele>438.0</ele><time>2026-04-22T15:35:45.001Z</time></trkpt><trkpt lat="36.90558148237554" lon="-3.526376301674219"><ele>438.0</ele><time>2026-04-22T15:35:46.001Z</time></trkpt><trkpt lat="36.90583839423352" lon="-3.526492848657694"><ele>438.0</ele><time>2026-04-22T15:35:47.001Z</time></trkpt><trkpt lat="36.906093380678485" lon="-3.5266193469942726"><ele>442.5</ele><time>2026-04-22T15:35:48.001Z</time></trkpt><trkpt lat="36.906350574337864" lon="-3.52675398414979"><ele>447.0</ele><time>2026-04-22T15:35:49.001Z</time></trkpt><trkpt lat="36.90661067602313" lon="-3.526882664066446"><ele>446.5</ele><time>2026-04-22T15:35:50.001Z</time></trkpt><trkpt lat="36.90687599623667" lon="-3.5270013754448883"><ele>446.0</ele><time>2026-04-22T15:35:51.001Z</time></trkpt><trkpt lat="36.907141750879525" lon="-3.527102974938273"><ele>453.0</ele><time>2026-04-22T15:35:52.001Z</time></trkpt><trkpt lat="36.907416570136526" lon="-3.5271792250526346"><ele>460.0</ele><time>2026-04-22T15:35:53.001Z</time></trkpt><trkpt lat="36.90769419094979" lon="-3.5272221013924585"><ele>463.0</ele><time>2026-04-22T15:35:54.001Z</time></trkpt><trkpt lat="36.90796457532647" lon="-3.5272353226207533"><ele>466.0</ele><time>2026-04-22T15:35:55.001Z</time></trkpt><trkpt lat="36.908233470144964" lon="-3.527224958211039"><ele>469.0</ele><time>2026-04-22T15:35:56.001Z</time></trkpt><trkpt lat="36.90850386020393" lon="-3.527196955610879"><ele>472.0</ele><time>2026-04-22T15:35:57.001Z</time></trkpt><trkpt lat="36.90877329832675" lon="-3.527167165080717"><ele>472.0</ele><time>2026-04-22T15:35:58.001Z</time></trkpt><trkpt lat="36.90904606051979" lon="-3.5271421431728407"><ele>472.0</ele><time>2026-04-22T15:35:59.001Z</time></trkpt><trkpt lat="36.90931755592154" lon="-3.5271194639080727"><ele>473.0</ele><time>2026-04-22T15:36:00.001Z</time></trkpt><trkpt lat="36.90958217505827" lon="-3.5271070316865956"><ele>474.0</ele><time>2026-04-22T15:36:01.001Z</time></trkpt><trkpt lat="36.90985155053586" lon="-3.527098614419698"><ele>474.0</ele><time>2026-04-22T15:36:02.001Z</time></trkpt><trkpt lat="36.91009882778778" lon="-3.5270838417776185"><ele>474.0</ele><time>2026-04-22T15:36:03.001Z</time></trkpt><trkpt lat="36.91033057898863" lon="-3.527071019829707"><ele>478.66666666666663</ele><time>2026-04-22T15:36:04.001Z</time></trkpt><trkpt lat="36.91055480447014" lon="-3.52705571540753"><ele>483.3333333333333</ele><time>2026-04-22T15:36:05.001Z</time></trkpt><trkpt lat="36.910768418350166" lon="-3.52704451974006"><ele>488.0</ele><time>2026-04-22T15:36:06.001Z</time></trkpt><trkpt lat="36.91097214165103" lon="-3.527027596113655"><ele>489.3333333333333</ele><time>2026-04-22T15:36:07.001Z</time></trkpt><trkpt lat="36.911158908307215" lon="-3.527015650032865"><ele>490.66666666666663</ele><time>2026-04-22T15:36:08.001Z</time></trkpt><trkpt lat="36.91133827949272" lon="-3.527004194828225"><ele>492.0</ele><time>2026-04-22T15:36:09.001Z</time></trkpt><trkpt lat="36.911521921213975" lon="-3.527003274513282"><ele>492.0</ele><time>2026-04-22T15:36:10.001Z</time></trkpt><trkpt lat="36.91171118131885" lon="-3.5270112122770265"><ele>492.0</ele><time>2026-04-22T15:36:11.001Z</time></trkpt><trkpt lat="36.911895544084445" lon="-3.5270416904733852"><ele>492.0</ele><time>2026-04-22T15:36:12.001Z</time></trkpt><trkpt lat="36.912076457642314" lon="-3.5270944209691812"><ele>491.0</ele><time>2026-04-22T15:36:13.001Z</time></trkpt><trkpt lat="36.91225486246585" lon="-3.5271573099521785"><ele>490.0</ele><time>2026-04-22T15:36:14.001Z</time></trkpt><trkpt lat="36.912424920354674" lon="-3.527244930624124"><ele>489.0</ele><time>2026-04-22T15:36:15.001Z</time></trkpt><trkpt lat="36.91259407818899" lon="-3.5273485086092586"><ele>491.66666666666663</ele><time>2026-04-22T15:36:16.001Z</time></trkpt><trkpt lat="36.912759907643036" lon="-3.5274678363262857"><ele>494.3333333333333</ele><time>2026-04-22T15:36:17.001Z</time></trkpt><trkpt lat="36.912916661256624" lon="-3.5276047363320235"><ele>497.0</ele><time>2026-04-22T15:36:18Z</time></trkpt><trkpt lat="36.91307334228902" lon="-3.527761870514181"><ele>497.0</ele><time>2026-04-22T15:36:19Z</time></trkpt><trkpt lat="36.91321762332727" lon="-3.527943506246696"><ele>497.0</ele><time>2026-04-22T15:36:20Z</time></trkpt><trkpt lat="36.91335512940218" lon="-3.528136609039584"><ele>497.0</ele><time>2026-04-22T15:36:21Z</time></trkpt><trkpt lat="36.9134775807671" lon="-3.528354058280926"><ele>500.66666666666663</ele><time>2026-04-22T15:36:22Z</time></trkpt><trkpt lat="36.91357896560294" lon="-3.5285916345972437"><ele>504.33333333333337</ele><time>2026-04-22T15:36:23Z</time></trkpt><trkpt lat="36.91366976649991" lon="-3.5288397240456155"><ele>508.0</ele><time>2026-04-22T15:36:24Z</time></trkpt><trkpt lat="36.91374696841835" lon="-3.5290960894417873"><ele>495.0</ele><time>2026-04-22T15:36:25Z</time></trkpt><trkpt lat="36.913821582538354" lon="-3.529365479784834"><ele>482.0</ele><time>2026-04-22T15:36:26Z</time></trkpt><trkpt lat="36.91388841539168" lon="-3.5296400745062706"><ele>472.5</ele><time>2026-04-22T15:36:27Z</time></trkpt><trkpt lat="36.91395857665675" lon="-3.5299099008965764"><ele>463.0</ele><time>2026-04-22T15:36:28Z</time></trkpt><trkpt lat="36.91403293049901" lon="-3.5301733336916574"><ele>470.33333333333337</ele><time>2026-04-22T15:36:29Z</time></trkpt><trkpt lat="36.914098757064664" lon="-3.5304205631712193"><ele>477.66666666666663</ele><time>2026-04-22T15:36:30Z</time></trkpt><trkpt lat="36.91416244235085" lon="-3.530662518474913"><ele>485.0</ele><time>2026-04-22T15:36:31Z</time></trkpt><trkpt lat="36.91422936155666" lon="-3.530907684826757"><ele>489.3333333333333</ele><time>2026-04-22T15:36:32Z</time></trkpt><trkpt lat="36.91430447815156" lon="-3.531154506878826"><ele>493.66666666666663</ele><time>2026-04-22T15:36:33Z</time></trkpt><trkpt lat="36.91438111918487" lon="-3.531400051564985"><ele>498.0</ele><time>2026-04-22T15:36:34Z</time></trkpt><trkpt lat="36.914473842556724" lon="-3.531635466736549"><ele>501.0</ele><time>2026-04-22T15:36:35Z</time></trkpt><trkpt lat="36.914589342208295" lon="-3.531857654936484"><ele>504.0</ele><time>2026-04-22T15:36:36Z</time></trkpt><trkpt lat="36.91472391676568" lon="-3.5320580493226683"><ele>507.0</ele><time>2026-04-22T15:36:37Z</time></trkpt><trkpt lat="36.914873803994205" lon="-3.532251739396979"><ele>510.66666666666663</ele><time>2026-04-22T15:36:38Z</time></trkpt><trkpt lat="36.9150356904815" lon="-3.532427137107151"><ele>514.3333333333333</ele><time>2026-04-22T15:36:39Z</time></trkpt><trkpt lat="36.915205268213015" lon="-3.532576758409732"><ele>518.0</ele><time>2026-04-22T15:36:40Z</time></trkpt><trkpt lat="36.91538349105508" lon="-3.5326996553306746"><ele>518.6666666666666</ele><time>2026-04-22T15:36:41Z</time></trkpt><trkpt lat="36.91557420533633" lon="-3.5328044579775413"><ele>519.3333333333334</ele><time>2026-04-22T15:36:42Z</time></trkpt><trkpt lat="36.915776240899255" lon="-3.532882935733234"><ele>520.0</ele><time>2026-04-22T15:36:43Z</time></trkpt><trkpt lat="36.9159782322405" lon="-3.532943391831884"><ele>522.3333333333334</ele><time>2026-04-22T15:36:44Z</time></trkpt><trkpt lat="36.91618658578812" lon="-3.5329791158415507"><ele>524.6666666666666</ele><time>2026-04-22T15:36:45Z</time></trkpt><trkpt lat="36.91639133018895" lon="-3.5329853431004"><ele>527.0</ele><time>2026-04-22T15:36:46Z</time></trkpt><trkpt lat="36.916595493621045" lon="-3.5329710177299347"><ele>527.6666666666666</ele><time>2026-04-22T15:36:47Z</time></trkpt><trkpt lat="36.91680071590241" lon="-3.532937448596697"><ele>528.3333333333334</ele><time>2026-04-22T15:36:48Z</time></trkpt><trkpt lat="36.91699893078214" lon="-3.5328789853218923"><ele>529.0</ele><time>2026-04-22T15:36:49Z</time></trkpt><trkpt lat="36.917189730566" lon="-3.532796365079984"><ele>529.0</ele><time>2026-04-22T15:36:50Z</time></trkpt><trkpt lat="36.91737939811678" lon="-3.5326947286724817"><ele>529.0</ele><time>2026-04-22T15:36:51Z</time></trkpt><trkpt lat="36.917558647896236" lon="-3.5325841578837855"><ele>529.0</ele><time>2026-04-22T15:36:52Z</time></trkpt><trkpt lat="36.91774230780552" lon="-3.5324688337347014"><ele>527.0</ele><time>2026-04-22T15:36:53Z</time></trkpt><trkpt lat="36.91792607083226" lon="-3.5323714685010987"><ele>525.0</ele><time>2026-04-22T15:36:54Z</time></trkpt><trkpt lat="36.91811759271784" lon="-3.5322902663173035"><ele>523.0</ele><time>2026-04-22T15:36:55Z</time></trkpt><trkpt lat="36.91831745624948" lon="-3.532228173534301"><ele>523.0</ele><time>2026-04-22T15:36:56Z</time></trkpt><trkpt lat="36.918514107531045" lon="-3.5321990483214636"><ele>523.0</ele><time>2026-04-22T15:36:57Z</time></trkpt><trkpt lat="36.91873964134097" lon="-3.5321712509305843"><ele>523.0</ele><time>2026-04-22T15:36:58Z</time></trkpt><trkpt lat="36.91895010846634" lon="-3.53218218374607"><ele>523.0</ele><time>2026-04-22T15:36:59Z</time></trkpt><trkpt lat="36.91916094344213" lon="-3.5322196695818215"><ele>523.0</ele><time>2026-04-22T15:37:00Z</time></trkpt><trkpt lat="36.91936648159992" lon="-3.532273868781762"><ele>523.0</ele><time>2026-04-22T15:37:01Z</time></trkpt><trkpt lat="36.91957173323918" lon="-3.532346796474917"><ele>525.0</ele><time>2026-04-22T15:37:02Z</time></trkpt><trkpt lat="36.91977256554642" lon="-3.532426032774272"><ele>527.0</ele><time>2026-04-22T15:37:03Z</time></trkpt><trkpt lat="36.91997149789805" lon="-3.532504721987444"><ele>529.0</ele><time>2026-04-22T15:37:04Z</time></trkpt><trkpt lat="36.92017889300668" lon="-3.5325706920756934"><ele>533.3333333333334</ele><time>2026-04-22T15:37:05Z</time></trkpt><trkpt lat="36.92039108457416" lon="-3.5326240690714457"><ele>537.6666666666666</ele><time>2026-04-22T15:37:06Z</time></trkpt><trkpt lat="36.92060519964043" lon="-3.5326624462474645"><ele>542.0</ele><time>2026-04-22T15:37:07Z</time></trkpt><trkpt lat="36.9208197513035" lon="-3.5326823187018728"><ele>543.0</ele><time>2026-04-22T15:37:08Z</time></trkpt><trkpt lat="36.92103963207448" lon="-3.532682527026616"><ele>544.0</ele><time>2026-04-22T15:37:09Z</time></trkpt><trkpt lat="36.92125855197063" lon="-3.5326665372927324"><ele>545.0</ele><time>2026-04-22T15:37:10Z</time></trkpt><trkpt lat="36.92147727112452" lon="-3.5326297595481875"><ele>545.0</ele><time>2026-04-22T15:37:11Z</time></trkpt><trkpt lat="36.92170009382481" lon="-3.532580739294479"><ele>545.0</ele><time>2026-04-22T15:37:12Z</time></trkpt><trkpt lat="36.92193246848495" lon="-3.5325282265622002"><ele>544.5</ele><time>2026-04-22T15:37:13Z</time></trkpt><trkpt lat="36.92216517640156" lon="-3.5324773871075936"><ele>544.0</ele><time>2026-04-22T15:37:14Z</time></trkpt><trkpt lat="36.92238275325105" lon="-3.5324361410472154"><ele>544.6666666666667</ele><time>2026-04-22T15:37:15Z</time></trkpt><trkpt lat="36.92260006547751" lon="-3.532409132465996"><ele>545.3333333333334</ele><time>2026-04-22T15:37:16Z</time></trkpt><trkpt lat="36.92281789263521" lon="-3.532397959353441"><ele>546.0</ele><time>2026-04-22T15:37:17Z</time></trkpt><trkpt lat="36.923032885415225" lon="-3.5323974831069154"><ele>546.0</ele><time>2026-04-22T15:37:18Z</time></trkpt><trkpt lat="36.92324569986575" lon="-3.5324053466102696"><ele>546.0</ele><time>2026-04-22T15:37:19Z</time></trkpt><trkpt lat="36.92345177873811" lon="-3.532418224617367"><ele>546.0</ele><time>2026-04-22T15:37:20Z</time></trkpt><trkpt lat="36.92365306762979" lon="-3.532442744142505"><ele>549.0</ele><time>2026-04-22T15:37:21Z</time></trkpt><trkpt lat="36.92385597464887" lon="-3.5324784044609805"><ele>552.0</ele><time>2026-04-22T15:37:22Z</time></trkpt><trkpt lat="36.92406104564335" lon="-3.5325298150474906"><ele>555.0</ele><time>2026-04-22T15:37:23Z</time></trkpt><trkpt lat="36.92426623019367" lon="-3.5325988501435943"><ele>556.6666666666666</ele><time>2026-04-22T15:37:24Z</time></trkpt><trkpt lat="36.92446695215264" lon="-3.532682088437963"><ele>558.3333333333333</ele><time>2026-04-22T15:37:25Z</time></trkpt><trkpt lat="36.92467652044915" lon="-3.532781082620223"><ele>560.0</ele><time>2026-04-22T15:37:26Z</time></trkpt><trkpt lat="36.92488413155023" lon="-3.5328856196535647"><ele>563.5</ele><time>2026-04-22T15:37:27Z</time></trkpt><trkpt lat="36.92509031813669" lon="-3.533003584313811"><ele>567.0</ele><time>2026-04-22T15:37:28Z</time></trkpt><trkpt lat="36.92529675163384" lon="-3.5331284948874973"><ele>567.0</ele><time>2026-04-22T15:37:29Z</time></trkpt><trkpt lat="36.92550315777445" lon="-3.533260151346529"><ele>567.0</ele><time>2026-04-22T15:37:30Z</time></trkpt><trkpt lat="36.92570949998084" lon="-3.533388590850977"><ele>567.0</ele><time>2026-04-22T15:37:31Z</time></trkpt><trkpt lat="36.92590214623878" lon="-3.533507013960698"><ele>567.0</ele><time>2026-04-22T15:37:32Z</time></trkpt><trkpt lat="36.92609361699075" lon="-3.5336184012361165"><ele>567.0</ele><time>2026-04-22T15:37:33Z</time></trkpt><trkpt lat="36.92629309071975" lon="-3.533728617963548"><ele>567.0</ele><time>2026-04-22T15:37:34Z</time></trkpt><trkpt lat="36.92649424769907" lon="-3.5338283436182407"><ele>567.0</ele><time>2026-04-22T15:37:35Z</time></trkpt><trkpt lat="36.926700838411406" lon="-3.5339189154619604"><ele>567.0</ele><time>2026-04-22T15:37:36Z</time></trkpt><trkpt lat="36.92691000637802" lon="-3.533996518771184"><ele>564.3333333333334</ele><time>2026-04-22T15:37:37Z</time></trkpt><trkpt lat="36.927118402671915" lon="-3.5340626317032804"><ele>561.6666666666667</ele><time>2026-04-22T15:37:38Z</time></trkpt><trkpt lat="36.92733019513887" lon="-3.534120356094467"><ele>559.0</ele><time>2026-04-22T15:37:39Z</time></trkpt><trkpt lat="36.927546018733004" lon="-3.534169669184335"><ele>560.3333333333334</ele><time>2026-04-22T15:37:40Z</time></trkpt><trkpt lat="36.927763764546604" lon="-3.5342116098136933"><ele>561.6666666666666</ele><time>2026-04-22T15:37:41Z</time></trkpt><trkpt lat="36.927980156039034" lon="-3.534248611361448"><ele>563.0</ele><time>2026-04-22T15:37:42Z</time></trkpt><trkpt lat="36.928200515401336" lon="-3.534286135058654"><ele>566.6666666666666</ele><time>2026-04-22T15:37:43Z</time></trkpt><trkpt lat="36.92841808246478" lon="-3.5343284986548196"><ele>570.3333333333334</ele><time>2026-04-22T15:37:44Z</time></trkpt><trkpt lat="36.92862896153531" lon="-3.5343741039252397"><ele>574.0</ele><time>2026-04-22T15:37:45Z</time></trkpt><trkpt lat="36.92883138113125" lon="-3.534421710720008"><ele>574.0</ele><time>2026-04-22T15:37:46Z</time></trkpt><trkpt lat="36.92903087026831" lon="-3.534474786911633"><ele>574.0</ele><time>2026-04-22T15:37:47Z</time></trkpt><trkpt lat="36.92922880110794" lon="-3.534536117509415"><ele>574.0</ele><time>2026-04-22T15:37:48Z</time></trkpt><trkpt lat="36.929429245293434" lon="-3.5346065083343006"><ele>573.6666666666667</ele><time>2026-04-22T15:37:49Z</time></trkpt><trkpt lat="36.92963719214089" lon="-3.5346905719985626"><ele>573.3333333333334</ele><time>2026-04-22T15:37:50Z</time></trkpt><trkpt lat="36.92984877652598" lon="-3.534785343447264"><ele>573.0</ele><time>2026-04-22T15:37:51Z</time></trkpt><trkpt lat="36.93005643202572" lon="-3.5348817597589903"><ele>576.3333333333334</ele><time>2026-04-22T15:37:52Z</time></trkpt><trkpt lat="36.93025638278892" lon="-3.5349845427479183"><ele>579.6666666666667</ele><time>2026-04-22T15:37:53Z</time></trkpt><trkpt lat="36.930454089152114" lon="-3.5350970825139267"><ele>583.0</ele><time>2026-04-22T15:37:54Z</time></trkpt><trkpt lat="36.93065162471622" lon="-3.535220927055586"><ele>583.0</ele><time>2026-04-22T15:37:55Z</time></trkpt><trkpt lat="36.930853091782936" lon="-3.5353526102971564"><ele>583.0</ele><time>2026-04-22T15:37:56Z</time></trkpt><trkpt lat="36.93105518047653" lon="-3.53549705447289"><ele>589.0</ele><time>2026-04-22T15:37:57Z</time></trkpt><trkpt lat="36.931251094023025" lon="-3.535650553833943"><ele>595.0</ele><time>2026-04-22T15:37:58Z</time></trkpt><trkpt lat="36.931440366931724" lon="-3.535816492171146"><ele>595.0</ele><time>2026-04-22T15:37:59Z</time></trkpt><trkpt lat="36.931622500782545" lon="-3.535987676447741"><ele>595.0</ele><time>2026-04-22T15:38:00Z</time></trkpt><trkpt lat="36.93180381626459" lon="-3.5361682573768816"><ele>600.0</ele><time>2026-04-22T15:38:01Z</time></trkpt><trkpt lat="36.93198021140606" lon="-3.5363595860228707"><ele>605.0</ele><time>2026-04-22T15:38:02Z</time></trkpt><trkpt lat="36.932152016025576" lon="-3.536553161041678"><ele>605.0</ele><time>2026-04-22T15:38:03Z</time></trkpt><trkpt lat="36.93231782768616" lon="-3.5367567824268242"><ele>605.0</ele><time>2026-04-22T15:38:04.001Z</time></trkpt><trkpt lat="36.93247543948763" lon="-3.5369668419860503"><ele>610.3333333333333</ele><time>2026-04-22T15:38:05.001Z</time></trkpt><trkpt lat="36.93261422119722" lon="-3.5371754237089488"><ele>615.6666666666666</ele><time>2026-04-22T15:38:06.001Z</time></trkpt><trkpt lat="36.932752209004875" lon="-3.5373890809435147"><ele>621.0</ele><time>2026-04-22T15:38:07.001Z</time></trkpt><trkpt lat="36.93288694077655" lon="-3.537611693844639"><ele>621.0</ele><time>2026-04-22T15:38:08.001Z</time></trkpt><trkpt lat="36.933020940458135" lon="-3.5378483695386396"><ele>621.0</ele><time>2026-04-22T15:38:09.001Z</time></trkpt><trkpt lat="36.93314402019294" lon="-3.5380969197710126"><ele>613.5</ele><time>2026-04-22T15:38:10.001Z</time></trkpt><trkpt lat="36.93325854029281" lon="-3.538350403417712"><ele>606.0</ele><time>2026-04-22T15:38:11.001Z</time></trkpt><trkpt lat="36.93336780154733" lon="-3.5386098566512927"><ele>619.0</ele><time>2026-04-22T15:38:12.001Z</time></trkpt><trkpt lat="36.933459417791305" lon="-3.538886139284021"><ele>632.0</ele><time>2026-04-22T15:38:13.001Z</time></trkpt><trkpt lat="36.93357437818755" lon="-3.5391177932397015"><ele>632.0</ele><time>2026-04-22T15:38:14.001Z</time></trkpt><trkpt lat="36.93366741453963" lon="-3.5393821975045854"><ele>632.0</ele><time>2026-04-22T15:38:15.001Z</time></trkpt><trkpt lat="36.9337556558157" lon="-3.5396468085998727"><ele>627.5</ele><time>2026-04-22T15:38:16.001Z</time></trkpt><trkpt lat="36.93383261255883" lon="-3.539912714501083"><ele>623.0</ele><time>2026-04-22T15:38:17.001Z</time></trkpt><trkpt lat="36.93390121853311" lon="-3.5401829276892065"><ele>621.6666666666666</ele><time>2026-04-22T15:38:18.001Z</time></trkpt><trkpt lat="36.93396143619875" lon="-3.540455257250358"><ele>620.3333333333334</ele><time>2026-04-22T15:38:19.001Z</time></trkpt><trkpt lat="36.934017429396924" lon="-3.5407246423102374"><ele>619.0</ele><time>2026-04-22T15:38:20.001Z</time></trkpt><trkpt lat="36.93406343290727" lon="-3.5409938727879093"><ele>623.0</ele><time>2026-04-22T15:38:21.001Z</time></trkpt><trkpt lat="36.934106793911376" lon="-3.541263645313584"><ele>627.0</ele><time>2026-04-22T15:38:22.001Z</time></trkpt><trkpt lat="36.93414979689201" lon="-3.5415310311272896"><ele>631.0</ele><time>2026-04-22T15:38:23.001Z</time></trkpt><trkpt lat="36.93419568130357" lon="-3.541801781400732"><ele>639.0</ele><time>2026-04-22T15:38:24Z</time></trkpt><trkpt lat="36.934242135038794" lon="-3.542081636956566"><ele>647.0</ele><time>2026-04-22T15:38:25Z</time></trkpt><trkpt lat="36.93428583434561" lon="-3.5423619502906156"><ele>647.0</ele><time>2026-04-22T15:38:26Z</time></trkpt><trkpt lat="36.93432567729389" lon="-3.5426500062622637"><ele>647.0</ele><time>2026-04-22T15:38:27Z</time></trkpt><trkpt lat="36.93436811041695" lon="-3.542937033061215"><ele>642.0</ele><time>2026-04-22T15:38:28Z</time></trkpt><trkpt lat="36.93440809110188" lon="-3.5432249113358636"><ele>637.0</ele><time>2026-04-22T15:38:29Z</time></trkpt><trkpt lat="36.93445331496035" lon="-3.5435074934254374"><ele>631.0</ele><time>2026-04-22T15:38:30Z</time></trkpt><trkpt lat="36.93450081447904" lon="-3.543788031977837"><ele>625.0</ele><time>2026-04-22T15:38:31Z</time></trkpt><trkpt lat="36.93455043346482" lon="-3.5440674831028547"><ele>625.0</ele><time>2026-04-22T15:38:32Z</time></trkpt><trkpt lat="36.93460510768021" lon="-3.5443479654835275"><ele>625.0</ele><time>2026-04-22T15:38:33Z</time></trkpt><trkpt lat="36.93466705329747" lon="-3.5446245005622408"><ele>622.0</ele><time>2026-04-22T15:38:34Z</time></trkpt><trkpt lat="36.934742009438644" lon="-3.5448953538240593"><ele>619.0</ele><time>2026-04-22T15:38:35Z</time></trkpt><trkpt lat="36.93482967059493" lon="-3.5451607430280814"><ele>620.0</ele><time>2026-04-22T15:38:36Z</time></trkpt><trkpt lat="36.934904404204346" lon="-3.545431681828311"><ele>621.0</ele><time>2026-04-22T15:38:37Z</time></trkpt><trkpt lat="36.93500476686117" lon="-3.545687495319786"><ele>632.0</ele><time>2026-04-22T15:38:38Z</time></trkpt><trkpt lat="36.93511498036315" lon="-3.5459328622411594"><ele>643.0</ele><time>2026-04-22T15:38:39Z</time></trkpt><trkpt lat="36.935234416483446" lon="-3.546176768379628"><ele>647.0</ele><time>2026-04-22T15:38:40Z</time></trkpt><trkpt lat="36.935360853991725" lon="-3.546404513026555"><ele>651.0</ele><time>2026-04-22T15:38:41Z</time></trkpt><trkpt lat="36.93549471787924" lon="-3.5466283114837562"><ele>655.0</ele><time>2026-04-22T15:38:42Z</time></trkpt><trkpt lat="36.9356345433509" lon="-3.546846278885985"><ele>656.6666666666667</ele><time>2026-04-22T15:38:43Z</time></trkpt><trkpt lat="36.93578674855041" lon="-3.547053557306725"><ele>658.3333333333334</ele><time>2026-04-22T15:38:44Z</time></trkpt><trkpt lat="36.935942690508945" lon="-3.547247900340647"><ele>660.0</ele><time>2026-04-22T15:38:45Z</time></trkpt><trkpt lat="36.93611379076002" lon="-3.547432465002984"><ele>660.0</ele><time>2026-04-22T15:38:46Z</time></trkpt><trkpt lat="36.93629081705636" lon="-3.5476156012076037"><ele>660.0</ele><time>2026-04-22T15:38:47Z</time></trkpt><trkpt lat="36.93647203615124" lon="-3.5477901768385673"><ele>659.5</ele><time>2026-04-22T15:38:48Z</time></trkpt><trkpt lat="36.936659669225754" lon="-3.5479541771748884"><ele>659.0</ele><time>2026-04-22T15:38:49Z</time></trkpt><trkpt lat="36.93685506704357" lon="-3.548106578456499"><ele>659.0</ele><time>2026-04-22T15:38:50Z</time></trkpt><trkpt lat="36.937062616603875" lon="-3.5482459151960324"><ele>659.0</ele><time>2026-04-22T15:38:51Z</time></trkpt><trkpt lat="36.937274190366196" lon="-3.548372427012383"><ele>659.0</ele><time>2026-04-22T15:38:52Z</time></trkpt><trkpt lat="36.93749666087569" lon="-3.548480633706869"><ele>659.0</ele><time>2026-04-22T15:38:53Z</time></trkpt><trkpt lat="36.93772417289832" lon="-3.548580839864613"><ele>658.5</ele><time>2026-04-22T15:38:54Z</time></trkpt><trkpt lat="36.937952853156744" lon="-3.548669442872454"><ele>658.0</ele><time>2026-04-22T15:38:55Z</time></trkpt><trkpt lat="36.938184113895424" lon="-3.5487470441460065"><ele>657.0</ele><time>2026-04-22T15:38:56Z</time></trkpt><trkpt lat="36.938417966035324" lon="-3.5488062417761723"><ele>656.0</ele><time>2026-04-22T15:38:57Z</time></trkpt><trkpt lat="36.93865451695563" lon="-3.5488528874950136"><ele>656.0</ele><time>2026-04-22T15:38:58Z</time></trkpt><trkpt lat="36.93889403622352" lon="-3.548887331785579"><ele>656.0</ele><time>2026-04-22T15:38:59Z</time></trkpt><trkpt lat="36.9391349629689" lon="-3.5488760935674635"><ele>657.0</ele><time>2026-04-22T15:39:00Z</time></trkpt><trkpt lat="36.93938115545537" lon="-3.548871422847264"><ele>658.0</ele><time>2026-04-22T15:39:01Z</time></trkpt><trkpt lat="36.93962213972412" lon="-3.5488558185625525"><ele>658.0</ele><time>2026-04-22T15:39:02Z</time></trkpt><trkpt lat="36.9398627898962" lon="-3.5488278261728894"><ele>658.0</ele><time>2026-04-22T15:39:03Z</time></trkpt><trkpt lat="36.940101842051185" lon="-3.548783699654975"><ele>661.0</ele><time>2026-04-22T15:39:04Z</time></trkpt><trkpt lat="36.94033993241111" lon="-3.548723365416382"><ele>664.0</ele><time>2026-04-22T15:39:05Z</time></trkpt><trkpt lat="36.94057359016201" lon="-3.5486457040267254"><ele>667.0</ele><time>2026-04-22T15:39:06Z</time></trkpt><trkpt lat="36.94080295011336" lon="-3.5485500899956124"><ele>670.0</ele><time>2026-04-22T15:39:07Z</time></trkpt><trkpt lat="36.94103160411626" lon="-3.548444243000132"><ele>672.5</ele><time>2026-04-22T15:39:08Z</time></trkpt><trkpt lat="36.94125569645301" lon="-3.548325822111759"><ele>675.0</ele><time>2026-04-22T15:39:09Z</time></trkpt><trkpt lat="36.94147201746248" lon="-3.5481958182222324"><ele>675.0</ele><time>2026-04-22T15:39:10Z</time></trkpt><trkpt lat="36.94168090123439" lon="-3.5480475639719127"><ele>675.0</ele><time>2026-04-22T15:39:11Z</time></trkpt><trkpt lat="36.94189049385531" lon="-3.547895202791467"><ele>683.5</ele><time>2026-04-22T15:39:12Z</time></trkpt><trkpt lat="36.942103876111354" lon="-3.5477511421568457"><ele>692.0</ele><time>2026-04-22T15:39:13Z</time></trkpt><trkpt lat="36.942323198249795" lon="-3.5476116836817657"><ele>692.0</ele><time>2026-04-22T15:39:14Z</time></trkpt><trkpt lat="36.942541375678786" lon="-3.547473804071465"><ele>692.0</ele><time>2026-04-22T15:39:15Z</time></trkpt><trkpt lat="36.94276588339608" lon="-3.547325638787223"><ele>691.0</ele><time>2026-04-22T15:39:16Z</time></trkpt><trkpt lat="36.94299115546472" lon="-3.547177181063873"><ele>690.0</ele><time>2026-04-22T15:39:17Z</time></trkpt><trkpt lat="36.94321836580644" lon="-3.547024224809059"><ele>694.0</ele><time>2026-04-22T15:39:18Z</time></trkpt><trkpt lat="36.94344471174608" lon="-3.5468777127594127"><ele>698.0</ele><time>2026-04-22T15:39:19Z</time></trkpt><trkpt lat="36.94366745067998" lon="-3.5467337072110277"><ele>698.0</ele><time>2026-04-22T15:39:20Z</time></trkpt><trkpt lat="36.94389120032541" lon="-3.546589195949811"><ele>698.0</ele><time>2026-04-22T15:39:21Z</time></trkpt><trkpt lat="36.94411377576507" lon="-3.546442570289749"><ele>699.5</ele><time>2026-04-22T15:39:22Z</time></trkpt><trkpt lat="36.94433445520696" lon="-3.546291227418801"><ele>701.0</ele><time>2026-04-22T15:39:23Z</time></trkpt><trkpt lat="36.944558928271" lon="-3.5461382161635524"><ele>704.5</ele><time>2026-04-22T15:39:24Z</time></trkpt><trkpt lat="36.944784634570276" lon="-3.545989209070508"><ele>708.0</ele><time>2026-04-22T15:39:25Z</time></trkpt><trkpt lat="36.945018710193125" lon="-3.5458383953505805"><ele>711.0</ele><time>2026-04-22T15:39:26Z</time></trkpt><trkpt lat="36.94526319029312" lon="-3.5456820254630617"><ele>714.0</ele><time>2026-04-22T15:39:27Z</time></trkpt><trkpt lat="36.94550942382644" lon="-3.54552721230265"><ele>717.0</ele><time>2026-04-22T15:39:28Z</time></trkpt><trkpt lat="36.94576166935069" lon="-3.5453754980247223"><ele>720.0</ele><time>2026-04-22T15:39:29Z</time></trkpt><trkpt lat="36.94601743555768" lon="-3.545225092332418"><ele>721.5</ele><time>2026-04-22T15:39:30Z</time></trkpt><trkpt lat="36.94627757653661" lon="-3.5450845857028312"><ele>723.0</ele><time>2026-04-22T15:39:31Z</time></trkpt><trkpt lat="36.9465442845255" lon="-3.5449547452674244"><ele>725.0</ele><time>2026-04-22T15:39:32Z</time></trkpt><trkpt lat="36.9468147443506" lon="-3.5448416449671827"><ele>727.0</ele><time>2026-04-22T15:39:33Z</time></trkpt><trkpt lat="36.94708426241917" lon="-3.544745858976619"><ele>727.0</ele><time>2026-04-22T15:39:34Z</time></trkpt><trkpt lat="36.94735840685679" lon="-3.5446592276533364"><ele>727.0</ele><time>2026-04-22T15:39:35Z</time></trkpt><trkpt lat="36.94763280488824" lon="-3.54458798949941"><ele>730.5</ele><time>2026-04-22T15:39:36Z</time></trkpt><trkpt lat="36.94790965392246" lon="-3.5445220274502387"><ele>734.0</ele><time>2026-04-22T15:39:37Z</time></trkpt><trkpt lat="36.94818345681809" lon="-3.5444700242382825"><ele>741.0</ele><time>2026-04-22T15:39:38Z</time></trkpt><trkpt lat="36.94845728198353" lon="-3.54442347636332"><ele>748.0</ele><time>2026-04-22T15:39:39Z</time></trkpt><trkpt lat="36.948731062617966" lon="-3.544389409819242"><ele>748.0</ele><time>2026-04-22T15:39:40Z</time></trkpt><trkpt lat="36.94900600702937" lon="-3.544368600295148"><ele>748.0</ele><time>2026-04-22T15:39:41Z</time></trkpt><trkpt lat="36.949279606675674" lon="-3.544354371335952"><ele>747.0</ele><time>2026-04-22T15:39:42Z</time></trkpt><trkpt lat="36.94954240373361" lon="-3.5443460884740294"><ele>746.0</ele><time>2026-04-22T15:39:43Z</time></trkpt><trkpt lat="36.94979352150915" lon="-3.5443500048289294"><ele>746.0</ele><time>2026-04-22T15:39:44Z</time></trkpt><trkpt lat="36.95003542172004" lon="-3.5443685373300444"><ele>746.0</ele><time>2026-04-22T15:39:45Z</time></trkpt><trkpt lat="36.9502792128342" lon="-3.5444009144202426"><ele>745.5</ele><time>2026-04-22T15:39:46Z</time></trkpt><trkpt lat="36.95052446084623" lon="-3.544443101800885"><ele>745.0</ele><time>2026-04-22T15:39:47Z</time></trkpt><trkpt lat="36.95076276992033" lon="-3.5444909773084228"><ele>746.0</ele><time>2026-04-22T15:39:48Z</time></trkpt><trkpt lat="36.95099443936489" lon="-3.544542404720547"><ele>747.0</ele><time>2026-04-22T15:39:49Z</time></trkpt><trkpt lat="36.95122499061905" lon="-3.5446012887731"><ele>747.0</ele><time>2026-04-22T15:39:50Z</time></trkpt><trkpt lat="36.95144791483822" lon="-3.544674525956035"><ele>747.0</ele><time>2026-04-22T15:39:51Z</time></trkpt><trkpt lat="36.951665716759024" lon="-3.544764111208997"><ele>750.0</ele><time>2026-04-22T15:39:52Z</time></trkpt><trkpt lat="36.95188099948127" lon="-3.5448622079770162"><ele>753.0</ele><time>2026-04-22T15:39:53Z</time></trkpt><trkpt lat="36.95209649866379" lon="-3.5449667536083798"><ele>753.0</ele><time>2026-04-22T15:39:54Z</time></trkpt><trkpt lat="36.95231180573325" lon="-3.5450840527996506"><ele>753.0</ele><time>2026-04-22T15:39:55Z</time></trkpt><trkpt lat="36.95252784397631" lon="-3.545213478564671"><ele>754.0</ele><time>2026-04-22T15:39:56Z</time></trkpt><trkpt lat="36.952744246551546" lon="-3.545350987689945"><ele>755.0</ele><time>2026-04-22T15:39:57Z</time></trkpt><trkpt lat="36.952960711472755" lon="-3.5454890843623934"><ele>755.0</ele><time>2026-04-22T15:39:58Z</time></trkpt><trkpt lat="36.95317222644268" lon="-3.545617966347332"><ele>755.0</ele><time>2026-04-22T15:39:59Z</time></trkpt><trkpt lat="36.953381997833766" lon="-3.545734044583919"><ele>757.0</ele><time>2026-04-22T15:40:00Z</time></trkpt><trkpt lat="36.95357939325667" lon="-3.545847530632261"><ele>759.0</ele><time>2026-04-22T15:40:01Z</time></trkpt><trkpt lat="36.95377720632606" lon="-3.5459587422776697"><ele>761.0</ele><time>2026-04-22T15:40:02Z</time></trkpt><trkpt lat="36.9539799778774" lon="-3.5460559549096797"><ele>761.0</ele><time>2026-04-22T15:40:03Z</time></trkpt><trkpt lat="36.95419171871966" lon="-3.5461364615022637"><ele>761.0</ele><time>2026-04-22T15:40:04Z</time></trkpt><trkpt lat="36.95440795068039" lon="-3.5462035339637192"><ele>761.0</ele><time>2026-04-22T15:40:05Z</time></trkpt><trkpt lat="36.95462963092428" lon="-3.546266112500826"><ele>761.5</ele><time>2026-04-22T15:40:06Z</time></trkpt><trkpt lat="36.95485744784248" lon="-3.5463246047828805"><ele>762.0</ele><time>2026-04-22T15:40:07Z</time></trkpt><trkpt lat="36.955092747377684" lon="-3.546367763926033"><ele>764.0</ele><time>2026-04-22T15:40:08Z</time></trkpt><trkpt lat="36.95533432727234" lon="-3.5463957617843"><ele>766.0</ele><time>2026-04-22T15:40:09Z</time></trkpt><trkpt lat="36.95558165226017" lon="-3.5464027154667175"><ele>766.0</ele><time>2026-04-22T15:40:10.001Z</time></trkpt><trkpt lat="36.955828535321345" lon="-3.546400521345499"><ele>766.0</ele><time>2026-04-22T15:40:11.001Z</time></trkpt><trkpt lat="36.95607325012049" lon="-3.546386242336822"><ele>764.5</ele><time>2026-04-22T15:40:12.001Z</time></trkpt><trkpt lat="36.956316353910495" lon="-3.546359938837158"><ele>763.0</ele><time>2026-04-22T15:40:13.001Z</time></trkpt><trkpt lat="36.95655768883972" lon="-3.546321112372441"><ele>759.5</ele><time>2026-04-22T15:40:14.001Z</time></trkpt><trkpt lat="36.956793868778426" lon="-3.546272640743982"><ele>756.0</ele><time>2026-04-22T15:40:15.001Z</time></trkpt><trkpt lat="36.95702707450926" lon="-3.5462212231530392"><ele>766.5</ele><time>2026-04-22T15:40:16.001Z</time></trkpt><trkpt lat="36.95726247146774" lon="-3.5461695808974874"><ele>777.0</ele><time>2026-04-22T15:40:17.001Z</time></trkpt><trkpt lat="36.95749510689025" lon="-3.54612818723673"><ele>771.0</ele><time>2026-04-22T15:40:18.001Z</time></trkpt><trkpt lat="36.95772728644024" lon="-3.5460944163347534"><ele>765.0</ele><time>2026-04-22T15:40:19.001Z</time></trkpt><trkpt lat="36.957953970628125" lon="-3.5460733411373107"><ele>765.0</ele><time>2026-04-22T15:40:20.001Z</time></trkpt><trkpt lat="36.958183153107505" lon="-3.54606823928427"><ele>765.0</ele><time>2026-04-22T15:40:21.001Z</time></trkpt><trkpt lat="36.95841597752362" lon="-3.546073186136575"><ele>761.0</ele><time>2026-04-22T15:40:22.001Z</time></trkpt><trkpt lat="36.95864439796234" lon="-3.5460954484706986"><ele>757.0</ele><time>2026-04-22T15:40:23.001Z</time></trkpt><trkpt lat="36.95887753417496" lon="-3.546128968193342"><ele>757.0</ele><time>2026-04-22T15:40:24.001Z</time></trkpt><trkpt lat="36.95911163531868" lon="-3.546174628744895"><ele>757.0</ele><time>2026-04-22T15:40:25.001Z</time></trkpt><trkpt lat="36.9593434119756" lon="-3.5462297602597634"><ele>756.0</ele><time>2026-04-22T15:40:26.001Z</time></trkpt><trkpt lat="36.95957308530655" lon="-3.546300747459187"><ele>755.0</ele><time>2026-04-22T15:40:27.001Z</time></trkpt><trkpt lat="36.95980294195974" lon="-3.5463879521653863"><ele>755.0</ele><time>2026-04-22T15:40:28.001Z</time></trkpt><trkpt lat="36.960030357157" lon="-3.546489216904421"><ele>755.0</ele><time>2026-04-22T15:40:29.001Z</time></trkpt><trkpt lat="36.960252741231336" lon="-3.5466047554212348"><ele>757.5</ele><time>2026-04-22T15:40:30Z</time></trkpt><trkpt lat="36.96047236841342" lon="-3.546733709333571"><ele>760.0</ele><time>2026-04-22T15:40:31Z</time></trkpt><trkpt lat="36.96069006410855" lon="-3.5468823300306265"><ele>759.5</ele><time>2026-04-22T15:40:32Z</time></trkpt><trkpt lat="36.96090183828285" lon="-3.547041920465974"><ele>759.0</ele><time>2026-04-22T15:40:33Z</time></trkpt><trkpt lat="36.96110318643859" lon="-3.547206841293841"><ele>775.0</ele><time>2026-04-22T15:40:34Z</time></trkpt><trkpt lat="36.96129866627132" lon="-3.5473832095227684"><ele>791.0</ele><time>2026-04-22T15:40:35Z</time></trkpt><trkpt lat="36.961482665461794" lon="-3.5475656574630117"><ele>791.0</ele><time>2026-04-22T15:40:36Z</time></trkpt><trkpt lat="36.96165513653861" lon="-3.5477566413713086"><ele>791.0</ele><time>2026-04-22T15:40:37Z</time></trkpt><trkpt lat="36.96181803814052" lon="-3.54795384143655"><ele>810.0</ele><time>2026-04-22T15:40:38Z</time></trkpt><trkpt lat="36.96197410757948" lon="-3.548155408847384"><ele>829.0</ele><time>2026-04-22T15:40:39Z</time></trkpt><trkpt lat="36.962121090052236" lon="-3.5483692056584504"><ele>829.0</ele><time>2026-04-22T15:40:40Z</time></trkpt><trkpt lat="36.96225524854062" lon="-3.5485892198966225"><ele>829.0</ele><time>2026-04-22T15:40:41Z</time></trkpt><trkpt lat="36.962386130412476" lon="-3.5488196433925165"><ele>829.0</ele><time>2026-04-22T15:40:42Z</time></trkpt><trkpt lat="36.96251191244496" lon="-3.549062617629549"><ele>832.0</ele><time>2026-04-22T15:40:43Z</time></trkpt><trkpt lat="36.962630176728425" lon="-3.549314667889606"><ele>835.0</ele><time>2026-04-22T15:40:44Z</time></trkpt><trkpt lat="36.96273658255872" lon="-3.5495691402503415"><ele>835.0</ele><time>2026-04-22T15:40:45Z</time></trkpt><trkpt lat="36.962835165440936" lon="-3.549832513610339"><ele>835.0</ele><time>2026-04-22T15:40:46Z</time></trkpt><trkpt lat="36.96292760664701" lon="-3.550105793063114"><ele>834.5</ele><time>2026-04-22T15:40:47Z</time></trkpt><trkpt lat="36.96301205226236" lon="-3.550384817192633"><ele>834.0</ele><time>2026-04-22T15:40:48Z</time></trkpt><trkpt lat="36.96308913239874" lon="-3.5506664168970192"><ele>834.0</ele><time>2026-04-22T15:40:49Z</time></trkpt><trkpt lat="36.96316501067007" lon="-3.5509467672541195"><ele>834.0</ele><time>2026-04-22T15:40:50Z</time></trkpt><trkpt lat="36.96323877991818" lon="-3.551230467668723"><ele>833.5</ele><time>2026-04-22T15:40:51Z</time></trkpt><trkpt lat="36.963316710748146" lon="-3.551511891947165"><ele>833.0</ele><time>2026-04-22T15:40:52Z</time></trkpt><trkpt lat="36.96340221708483" lon="-3.551788305355241"><ele>835.5</ele><time>2026-04-22T15:40:53Z</time></trkpt><trkpt lat="36.96349643777683" lon="-3.5520625757306936"><ele>838.0</ele><time>2026-04-22T15:40:54Z</time></trkpt><trkpt lat="36.96359094066909" lon="-3.552337860938404"><ele>838.0</ele><time>2026-04-22T15:40:55Z</time></trkpt><trkpt lat="36.96369807128418" lon="-3.5526053584042683"><ele>838.0</ele><time>2026-04-22T15:40:56Z</time></trkpt><trkpt lat="36.96381897882812" lon="-3.5528719753731672"><ele>837.5</ele><time>2026-04-22T15:40:57Z</time></trkpt><trkpt lat="36.96394133376068" lon="-3.5531327326521853"><ele>837.0</ele><time>2026-04-22T15:40:58Z</time></trkpt><trkpt lat="36.964073843453114" lon="-3.5533892536956975"><ele>840.0</ele><time>2026-04-22T15:40:59Z</time></trkpt><trkpt lat="36.964212808059834" lon="-3.5536418701425667"><ele>843.0</ele><time>2026-04-22T15:41:00Z</time></trkpt><trkpt lat="36.96435651044487" lon="-3.5538853022760306"><ele>843.0</ele><time>2026-04-22T15:41:01Z</time></trkpt><trkpt lat="36.96450378943562" lon="-3.554119586723785"><ele>843.0</ele><time>2026-04-22T15:41:02Z</time></trkpt><trkpt lat="36.96465255073831" lon="-3.5543472338767086"><ele>841.0</ele><time>2026-04-22T15:41:03Z</time></trkpt><trkpt lat="36.96480422898503" lon="-3.5545670874192266"><ele>839.0</ele><time>2026-04-22T15:41:04Z</time></trkpt><trkpt lat="36.96496448672271" lon="-3.554777285975434"><ele>840.5</ele><time>2026-04-22T15:41:05Z</time></trkpt><trkpt lat="36.96513041193723" lon="-3.5549735002301364"><ele>842.0</ele><time>2026-04-22T15:41:06Z</time></trkpt><trkpt lat="36.96530143329265" lon="-3.5551705458656397"><ele>842.0</ele><time>2026-04-22T15:41:07Z</time></trkpt><trkpt lat="36.96547785942657" lon="-3.555356851891175"><ele>842.0</ele><time>2026-04-22T15:41:08Z</time></trkpt><trkpt lat="36.965662941487444" lon="-3.5555418253356676"><ele>841.0</ele><time>2026-04-22T15:41:09Z</time></trkpt><trkpt lat="36.965853472007915" lon="-3.5557187690428806"><ele>840.0</ele><time>2026-04-22T15:41:10Z</time></trkpt><trkpt lat="36.96604662293056" lon="-3.55588978243209"><ele>840.0</ele><time>2026-04-22T15:41:11Z</time></trkpt><trkpt lat="36.966252769248484" lon="-3.556054458925674"><ele>840.0</ele><time>2026-04-22T15:41:12Z</time></trkpt><trkpt lat="36.96646122055321" lon="-3.556209388388662"><ele>838.0</ele><time>2026-04-22T15:41:13Z</time></trkpt><trkpt lat="36.96667523166795" lon="-3.5563584314391945"><ele>836.0</ele><time>2026-04-22T15:41:14Z</time></trkpt><trkpt lat="36.96689330457381" lon="-3.556500224934256"><ele>836.0</ele><time>2026-04-22T15:41:15Z</time></trkpt><trkpt lat="36.9671208867088" lon="-3.556634444786487"><ele>836.0</ele><time>2026-04-22T15:41:16Z</time></trkpt><trkpt lat="36.96735145592924" lon="-3.556758487784536"><ele>836.5</ele><time>2026-04-22T15:41:17Z</time></trkpt><trkpt lat="36.96758164858666" lon="-3.556876486064011"><ele>837.0</ele><time>2026-04-22T15:41:18Z</time></trkpt><trkpt lat="36.967809364085234" lon="-3.556987797773505"><ele>834.5</ele><time>2026-04-22T15:41:19Z</time></trkpt><trkpt lat="36.96803429089195" lon="-3.55709089188763"><ele>832.0</ele><time>2026-04-22T15:41:20Z</time></trkpt><trkpt lat="36.968259561051575" lon="-3.557185812820045"><ele>833.0</ele><time>2026-04-22T15:41:21Z</time></trkpt><trkpt lat="36.96848384187885" lon="-3.557280220546338"><ele>834.0</ele><time>2026-04-22T15:41:22Z</time></trkpt><trkpt lat="36.96870709367956" lon="-3.5573705813053653"><ele>834.0</ele><time>2026-04-22T15:41:23Z</time></trkpt><trkpt lat="36.968934099387326" lon="-3.5574574097700173"><ele>834.0</ele><time>2026-04-22T15:41:24Z</time></trkpt><trkpt lat="36.96916063279905" lon="-3.557547499225857"><ele>833.5</ele><time>2026-04-22T15:41:25Z</time></trkpt><trkpt lat="36.96939221036467" lon="-3.5576413680788117"><ele>833.0</ele><time>2026-04-22T15:41:26Z</time></trkpt><trkpt lat="36.96962594111699" lon="-3.5577363595738056"><ele>833.0</ele><time>2026-04-22T15:41:27Z</time></trkpt><trkpt lat="36.96986488463649" lon="-3.5578319340871984"><ele>833.0</ele><time>2026-04-22T15:41:28Z</time></trkpt><trkpt lat="36.9701085952982" lon="-3.557929527558324"><ele>830.5</ele><time>2026-04-22T15:41:29Z</time></trkpt><trkpt lat="36.970349037138874" lon="-3.558027143612207"><ele>828.0</ele><time>2026-04-22T15:41:30Z</time></trkpt><trkpt lat="36.97058538367263" lon="-3.5581244001933174"><ele>828.0</ele><time>2026-04-22T15:41:31Z</time></trkpt><trkpt lat="36.970817351855004" lon="-3.558223522158849"><ele>828.0</ele><time>2026-04-22T15:41:32Z</time></trkpt><trkpt lat="36.97104132432789" lon="-3.558319119381648"><ele>828.5</ele><time>2026-04-22T15:41:33Z</time></trkpt><trkpt lat="36.971265689842966" lon="-3.558418194625854"><ele>829.0</ele><time>2026-04-22T15:41:34Z</time></trkpt><trkpt lat="36.971491329746904" lon="-3.5585200357571596"><ele>829.0</ele><time>2026-04-22T15:41:35Z</time></trkpt><trkpt lat="36.97171539884831" lon="-3.558624902642961"><ele>829.0</ele><time>2026-04-22T15:41:36Z</time></trkpt><trkpt lat="36.9719437040852" lon="-3.5587343208841333"><ele>828.0</ele><time>2026-04-22T15:41:37Z</time></trkpt><trkpt lat="36.9721650884875" lon="-3.558841516873663"><ele>827.0</ele><time>2026-04-22T15:41:38Z</time></trkpt><trkpt lat="36.97238676736864" lon="-3.5589506299919504"><ele>829.0</ele><time>2026-04-22T15:41:39Z</time></trkpt><trkpt lat="36.972604707876556" lon="-3.5590620195907845"><ele>831.0</ele><time>2026-04-22T15:41:40Z</time></trkpt><trkpt lat="36.9728200996852" lon="-3.559175310855274"><ele>831.0</ele><time>2026-04-22T15:41:41Z</time></trkpt><trkpt lat="36.97303893393223" lon="-3.559293932786405"><ele>831.0</ele><time>2026-04-22T15:41:42Z</time></trkpt><trkpt lat="36.97325514251624" lon="-3.5594196109156093"><ele>828.0</ele><time>2026-04-22T15:41:43Z</time></trkpt><trkpt lat="36.97347308033151" lon="-3.559549857038885"><ele>825.0</ele><time>2026-04-22T15:41:44Z</time></trkpt><trkpt lat="36.973698638926756" lon="-3.5596887503976666"><ele>825.0</ele><time>2026-04-22T15:41:45Z</time></trkpt><trkpt lat="36.97391965406146" lon="-3.5598291819030576"><ele>825.0</ele><time>2026-04-22T15:41:46Z</time></trkpt><trkpt lat="36.97414932627138" lon="-3.5599689465262156"><ele>825.0</ele><time>2026-04-22T15:41:47Z</time></trkpt><trkpt lat="36.974371471987894" lon="-3.560118632344735"><ele>825.0</ele><time>2026-04-22T15:41:48Z</time></trkpt><trkpt lat="36.974592055038165" lon="-3.5602762894115316"><ele>821.0</ele><time>2026-04-22T15:41:49Z</time></trkpt><trkpt lat="36.974807924940386" lon="-3.560438350005821"><ele>817.0</ele><time>2026-04-22T15:41:50Z</time></trkpt><trkpt lat="36.975024981713176" lon="-3.5606032525948415"><ele>817.0</ele><time>2026-04-22T15:41:51Z</time></trkpt><trkpt lat="36.975238682716466" lon="-3.5607770930235323"><ele>817.0</ele><time>2026-04-22T15:41:52Z</time></trkpt><trkpt lat="36.97544730453053" lon="-3.560957404126893"><ele>817.0</ele><time>2026-04-22T15:41:53Z</time></trkpt><trkpt lat="36.975654590628345" lon="-3.5611438367717843"><ele>817.0</ele><time>2026-04-22T15:41:54Z</time></trkpt><trkpt lat="36.97586159591072" lon="-3.561334715456192"><ele>814.5</ele><time>2026-04-22T15:41:55Z</time></trkpt><trkpt lat="36.97606440960467" lon="-3.5615339146704503"><ele>812.0</ele><time>2026-04-22T15:41:56Z</time></trkpt><trkpt lat="36.976263856906826" lon="-3.5617384040516584"><ele>812.0</ele><time>2026-04-22T15:41:57Z</time></trkpt><trkpt lat="36.97645433355988" lon="-3.561946040452679"><ele>812.0</ele><time>2026-04-22T15:41:58Z</time></trkpt><trkpt lat="36.97663925216797" lon="-3.562160891712833"><ele>809.0</ele><time>2026-04-22T15:41:59Z</time></trkpt><trkpt lat="36.97682465357128" lon="-3.562383821462821"><ele>806.0</ele><time>2026-04-22T15:42:00Z</time></trkpt><trkpt lat="36.97701002187005" lon="-3.5626139719299377"><ele>806.0</ele><time>2026-04-22T15:42:01Z</time></trkpt><trkpt lat="36.977187605354786" lon="-3.5628443471931432"><ele>806.0</ele><time>2026-04-22T15:42:02Z</time></trkpt><trkpt lat="36.977368616565315" lon="-3.5630836270327646"><ele>800.5</ele><time>2026-04-22T15:42:03Z</time></trkpt><trkpt lat="36.977539065889225" lon="-3.5633264399069926"><ele>795.0</ele><time>2026-04-22T15:42:04Z</time></trkpt><trkpt lat="36.97770122732998" lon="-3.563572099291136"><ele>794.0</ele><time>2026-04-22T15:42:05Z</time></trkpt><trkpt lat="36.97785554730043" lon="-3.5638197085710894"><ele>793.0</ele><time>2026-04-22T15:42:06Z</time></trkpt><trkpt lat="36.9780091891353" lon="-3.564063763894726"><ele>793.0</ele><time>2026-04-22T15:42:07Z</time></trkpt><trkpt lat="36.978158269205906" lon="-3.5643092738366864"><ele>793.0</ele><time>2026-04-22T15:42:08Z</time></trkpt><trkpt lat="36.97830287723173" lon="-3.564561603920561"><ele>792.5</ele><time>2026-04-22T15:42:09Z</time></trkpt><trkpt lat="36.97844409112773" lon="-3.564822357740549"><ele>792.0</ele><time>2026-04-22T15:42:10Z</time></trkpt><trkpt lat="36.97857841828826" lon="-3.565094477525521"><ele>790.5</ele><time>2026-04-22T15:42:11Z</time></trkpt><trkpt lat="36.97871087744422" lon="-3.565370717471489"><ele>789.0</ele><time>2026-04-22T15:42:12Z</time></trkpt><trkpt lat="36.97883873878643" lon="-3.5656511391077927"><ele>789.0</ele><time>2026-04-22T15:42:13Z</time></trkpt><trkpt lat="36.97896140410617" lon="-3.565934066798625"><ele>789.0</ele><time>2026-04-22T15:42:14Z</time></trkpt><trkpt lat="36.97929348868273" lon="-3.566813828857187"><ele>784.5</ele><time>2026-04-22T15:42:17Z</time></trkpt><trkpt lat="36.97939436131609" lon="-3.567113737547204"><ele>780.0</ele><time>2026-04-22T15:42:18Z</time></trkpt><trkpt lat="36.97949040072951" lon="-3.567409318886903"><ele>780.0</ele><time>2026-04-22T15:42:19Z</time></trkpt><trkpt lat="36.97958096696534" lon="-3.567699568388788"><ele>780.0</ele><time>2026-04-22T15:42:20Z</time></trkpt><trkpt lat="36.9796703085503" lon="-3.567991384184683"><ele>777.5</ele><time>2026-04-22T15:42:21Z</time></trkpt><trkpt lat="36.97975288032251" lon="-3.568279576975717"><ele>775.0</ele><time>2026-04-22T15:42:22.001Z</time></trkpt><trkpt lat="36.97983402061582" lon="-3.568567691835166"><ele>769.5</ele><time>2026-04-22T15:42:23.001Z</time></trkpt><trkpt lat="36.97991206646177" lon="-3.5688566669406674"><ele>764.0</ele><time>2026-04-22T15:42:24.001Z</time></trkpt><trkpt lat="36.97998508945286" lon="-3.569145701599625"><ele>766.5</ele><time>2026-04-22T15:42:25.001Z</time></trkpt><trkpt lat="36.980055430229456" lon="-3.569433686312779"><ele>769.0</ele><time>2026-04-22T15:42:26.001Z</time></trkpt><trkpt lat="36.98012256122304" lon="-3.56971760027513"><ele>770.5</ele><time>2026-04-22T15:42:27.001Z</time></trkpt><trkpt lat="36.9801895715627" lon="-3.5700020438888758"><ele>772.0</ele><time>2026-04-22T15:42:28.001Z</time></trkpt><trkpt lat="36.98025793768225" lon="-3.5702909960820532"><ele>772.5</ele><time>2026-04-22T15:42:29.001Z</time></trkpt><trkpt lat="36.980322968761676" lon="-3.5705865502156127"><ele>773.0</ele><time>2026-04-22T15:42:30.001Z</time></trkpt><trkpt lat="36.9803859004096" lon="-3.5708857187581917"><ele>773.0</ele><time>2026-04-22T15:42:31.001Z</time></trkpt><trkpt lat="36.98044913800587" lon="-3.571186414087286"><ele>773.0</ele><time>2026-04-22T15:42:32.001Z</time></trkpt><trkpt lat="36.98051679923965" lon="-3.5714943881048153"><ele>771.5</ele><time>2026-04-22T15:42:33.001Z</time></trkpt><trkpt lat="36.98058719670023" lon="-3.5718141638226597"><ele>770.0</ele><time>2026-04-22T15:42:34.001Z</time></trkpt><trkpt lat="36.98066016672354" lon="-3.5721369164343355"><ele>768.0</ele><time>2026-04-22T15:42:35.001Z</time></trkpt><trkpt lat="36.980734544446186" lon="-3.572457842645995"><ele>766.0</ele><time>2026-04-22T15:42:36Z</time></trkpt><trkpt lat="36.98081059609452" lon="-3.572779995232741"><ele>768.0</ele><time>2026-04-22T15:42:37Z</time></trkpt><trkpt lat="36.980886448603215" lon="-3.573097397359297"><ele>770.0</ele><time>2026-04-22T15:42:38Z</time></trkpt><trkpt lat="36.980963451790174" lon="-3.5734044573186616"><ele>768.0</ele><time>2026-04-22T15:42:39Z</time></trkpt><trkpt lat="36.9810390718522" lon="-3.5737043059181097"><ele>766.0</ele><time>2026-04-22T15:42:40Z</time></trkpt><trkpt lat="36.981112816101145" lon="-3.574003630583336"><ele>766.0</ele><time>2026-04-22T15:42:41Z</time></trkpt><trkpt lat="36.981186725846534" lon="-3.574303322873567"><ele>766.0</ele><time>2026-04-22T15:42:42Z</time></trkpt><trkpt lat="36.98126264104954" lon="-3.57460060131269"><ele>764.0</ele><time>2026-04-22T15:42:43Z</time></trkpt><trkpt lat="36.98134207036174" lon="-3.5748923070492427"><ele>762.0</ele><time>2026-04-22T15:42:44Z</time></trkpt><trkpt lat="36.98142346450072" lon="-3.575179092771706"><ele>760.0</ele><time>2026-04-22T15:42:45Z</time></trkpt><trkpt lat="36.98150423894129" lon="-3.5754640348620654"><ele>758.0</ele><time>2026-04-22T15:42:46Z</time></trkpt><trkpt lat="36.981585447887404" lon="-3.575748903299201"><ele>758.0</ele><time>2026-04-22T15:42:47Z</time></trkpt><trkpt lat="36.98166776841215" lon="-3.5760366730292366"><ele>758.0</ele><time>2026-04-22T15:42:48Z</time></trkpt><trkpt lat="36.98175168128682" lon="-3.5763259428493956"><ele>758.5</ele><time>2026-04-22T15:42:49Z</time></trkpt><trkpt lat="36.981837718984174" lon="-3.57661393018085"><ele>759.0</ele><time>2026-04-22T15:42:50Z</time></trkpt><trkpt lat="36.981924530809174" lon="-3.5769007467918734"><ele>762.5</ele><time>2026-04-22T15:42:51Z</time></trkpt><trkpt lat="36.98201033005794" lon="-3.5771893711445895"><ele>766.0</ele><time>2026-04-22T15:42:52Z</time></trkpt><trkpt lat="36.98209944004343" lon="-3.57748275981384"><ele>766.0</ele><time>2026-04-22T15:42:53Z</time></trkpt><trkpt lat="36.98218984030855" lon="-3.5777812131871505"><ele>766.0</ele><time>2026-04-22T15:42:54Z</time></trkpt><trkpt lat="36.98228350840415" lon="-3.578085782890938"><ele>766.0</ele><time>2026-04-22T15:42:55Z</time></trkpt><trkpt lat="36.98238098597006" lon="-3.5783931473697894"><ele>766.0</ele><time>2026-04-22T15:42:56Z</time></trkpt><trkpt lat="36.982486721254546" lon="-3.5787027298223353"><ele>768.0</ele><time>2026-04-22T15:42:57Z</time></trkpt><trkpt lat="36.982594780865554" lon="-3.579019839217364"><ele>770.0</ele><time>2026-04-22T15:42:58Z</time></trkpt><trkpt lat="36.98270195464045" lon="-3.5793384306909597"><ele>769.5</ele><time>2026-04-22T15:42:59Z</time></trkpt><trkpt lat="36.98281169468636" lon="-3.5796594269585884"><ele>769.0</ele><time>2026-04-22T15:43:00Z</time></trkpt><trkpt lat="36.98292369270764" lon="-3.579986255680068"><ele>769.0</ele><time>2026-04-22T15:43:01Z</time></trkpt><trkpt lat="36.983044053682924" lon="-3.58030861261052"><ele>769.0</ele><time>2026-04-22T15:43:02Z</time></trkpt><trkpt lat="36.98316702231867" lon="-3.5806262564177676"><ele>766.5</ele><time>2026-04-22T15:43:03Z</time></trkpt><trkpt lat="36.98329019997597" lon="-3.580941380699746"><ele>764.0</ele><time>2026-04-22T15:43:04Z</time></trkpt><trkpt lat="36.98341517204642" lon="-3.5812586687392747"><ele>763.5</ele><time>2026-04-22T15:43:05Z</time></trkpt><trkpt lat="36.983539793669564" lon="-3.5815678248699987"><ele>763.0</ele><time>2026-04-22T15:43:06Z</time></trkpt><trkpt lat="36.98365744230554" lon="-3.581867400855486"><ele>756.0</ele><time>2026-04-22T15:43:07Z</time></trkpt><trkpt lat="36.98376723097038" lon="-3.5821596478883913"><ele>749.0</ele><time>2026-04-22T15:43:08Z</time></trkpt><trkpt lat="36.98386485688277" lon="-3.5824447383181726"><ele>749.0</ele><time>2026-04-22T15:43:09Z</time></trkpt><trkpt lat="36.9839598128835" lon="-3.5827271979047954"><ele>749.0</ele><time>2026-04-22T15:43:10Z</time></trkpt><trkpt lat="36.98405493333514" lon="-3.583010564536698"><ele>735.0</ele><time>2026-04-22T15:43:11Z</time></trkpt><trkpt lat="36.98415163522388" lon="-3.5832901317910353"><ele>721.0</ele><time>2026-04-22T15:43:12Z</time></trkpt><trkpt lat="36.9842511442206" lon="-3.5835656890307206"><ele>698.5</ele><time>2026-04-22T15:43:13Z</time></trkpt><trkpt lat="36.98435125142777" lon="-3.5838418641714003"><ele>676.0</ele><time>2026-04-22T15:43:14Z</time></trkpt><trkpt lat="36.98445136893463" lon="-3.584116494703331"><ele>676.0</ele><time>2026-04-22T15:43:15Z</time></trkpt><trkpt lat="36.98455180118067" lon="-3.58439459211644"><ele>676.0</ele><time>2026-04-22T15:43:16Z</time></trkpt><trkpt lat="36.98465464493142" lon="-3.5846716438743234"><ele>683.5</ele><time>2026-04-22T15:43:17Z</time></trkpt><trkpt lat="36.98475994632417" lon="-3.584946303547998"><ele>691.0</ele><time>2026-04-22T15:43:18Z</time></trkpt><trkpt lat="36.98485749546185" lon="-3.585219916195743"><ele>707.5</ele><time>2026-04-22T15:43:19Z</time></trkpt><trkpt lat="36.984953435219644" lon="-3.5854975641345863"><ele>724.0</ele><time>2026-04-22T15:43:20Z</time></trkpt><trkpt lat="36.985054250327615" lon="-3.5857723920055333"><ele>733.0</ele><time>2026-04-22T15:43:21Z</time></trkpt><trkpt lat="36.985155953898854" lon="-3.58604263820348"><ele>742.0</ele><time>2026-04-22T15:43:22Z</time></trkpt><trkpt lat="36.98525337150586" lon="-3.586311055560894"><ele>744.5</ele><time>2026-04-22T15:43:23Z</time></trkpt><trkpt lat="36.98535036272764" lon="-3.586585406109653"><ele>747.0</ele><time>2026-04-22T15:43:24Z</time></trkpt><trkpt lat="36.985447516533156" lon="-3.5868523597271658"><ele>748.5</ele><time>2026-04-22T15:43:25Z</time></trkpt><trkpt lat="36.98554752636034" lon="-3.587134700345484"><ele>750.0</ele><time>2026-04-22T15:43:26Z</time></trkpt><trkpt lat="36.98565244730264" lon="-3.5874284751929193"><ele>750.0</ele><time>2026-04-22T15:43:27Z</time></trkpt><trkpt lat="36.98575727514761" lon="-3.587725891661824"><ele>750.0</ele><time>2026-04-22T15:43:28Z</time></trkpt><trkpt lat="36.98586354812616" lon="-3.588025543537998"><ele>756.0</ele><time>2026-04-22T15:43:29Z</time></trkpt><trkpt lat="36.98597178015833" lon="-3.588324586311896"><ele>762.0</ele><time>2026-04-22T15:43:30Z</time></trkpt><trkpt lat="36.98608248508038" lon="-3.5886152209885975"><ele>759.0</ele><time>2026-04-22T15:43:31Z</time></trkpt><trkpt lat="36.986188283797205" lon="-3.5889110678176435"><ele>756.0</ele><time>2026-04-22T15:43:32Z</time></trkpt><trkpt lat="36.986293554750816" lon="-3.589208016180958"><ele>756.0</ele><time>2026-04-22T15:43:33Z</time></trkpt><trkpt lat="36.986398866939346" lon="-3.5895044318122125"><ele>756.0</ele><time>2026-04-22T15:43:34Z</time></trkpt><trkpt lat="36.9864987492778" lon="-3.5898011890163324"><ele>753.5</ele><time>2026-04-22T15:43:35Z</time></trkpt><trkpt lat="36.98659851722517" lon="-3.5901011187513836"><ele>751.0</ele><time>2026-04-22T15:43:36Z</time></trkpt><trkpt lat="36.9866969271801" lon="-3.590401833534143"><ele>751.0</ele><time>2026-04-22T15:43:37Z</time></trkpt><trkpt lat="36.98679081141346" lon="-3.5907033993023885"><ele>751.0</ele><time>2026-04-22T15:43:38Z</time></trkpt><trkpt lat="36.98687932332686" lon="-3.5910015513731337"><ele>747.0</ele><time>2026-04-22T15:43:39Z</time></trkpt><trkpt lat="36.98696708332149" lon="-3.5913006952739366"><ele>743.0</ele><time>2026-04-22T15:43:40Z</time></trkpt><trkpt lat="36.98705159543737" lon="-3.5916053086946222"><ele>743.0</ele><time>2026-04-22T15:43:41Z</time></trkpt><trkpt lat="36.987135582521205" lon="-3.5919149092682274"><ele>743.0</ele><time>2026-04-22T15:43:42Z</time></trkpt><trkpt lat="36.987218367758004" lon="-3.592222153018508"><ele>739.0</ele><time>2026-04-22T15:43:43Z</time></trkpt><trkpt lat="36.987295573410734" lon="-3.592537199535444"><ele>735.0</ele><time>2026-04-22T15:43:44Z</time></trkpt><trkpt lat="36.98737149216276" lon="-3.592857123429733"><ele>734.0</ele><time>2026-04-22T15:43:45Z</time></trkpt><trkpt lat="36.98744300208212" lon="-3.5931807538795"><ele>733.0</ele><time>2026-04-22T15:43:46Z</time></trkpt><trkpt lat="36.98750721637708" lon="-3.5935007248204967"><ele>738.0</ele><time>2026-04-22T15:43:47Z</time></trkpt><trkpt lat="36.987566761435666" lon="-3.5938201286963607"><ele>743.0</ele><time>2026-04-22T15:43:48Z</time></trkpt><trkpt lat="36.987620094716846" lon="-3.5941366833638577"><ele>743.0</ele><time>2026-04-22T15:43:49Z</time></trkpt><trkpt lat="36.98766927228372" lon="-3.5944515180595618"><ele>743.0</ele><time>2026-04-22T15:43:50Z</time></trkpt><trkpt lat="36.98771286551171" lon="-3.594763432162465"><ele>744.0</ele><time>2026-04-22T15:43:51Z</time></trkpt><trkpt lat="36.98775103700647" lon="-3.5950694907224032"><ele>745.0</ele><time>2026-04-22T15:43:52Z</time></trkpt><trkpt lat="36.98778490133312" lon="-3.595359024384712"><ele>745.0</ele><time>2026-04-22T15:43:53Z</time></trkpt><trkpt lat="36.98781081422061" lon="-3.5956380467327094"><ele>745.0</ele><time>2026-04-22T15:43:54Z</time></trkpt><trkpt lat="36.98782731274733" lon="-3.595914774055861"><ele>745.0</ele><time>2026-04-22T15:43:55Z</time></trkpt><trkpt lat="36.98784025009085" lon="-3.59619050263307"><ele>743.0</ele><time>2026-04-22T15:43:56Z</time></trkpt><trkpt lat="36.98785539013363" lon="-3.5964700583871236"><ele>741.0</ele><time>2026-04-22T15:43:57Z</time></trkpt><trkpt lat="36.987878226914134" lon="-3.596732641296187"><ele>739.0</ele><time>2026-04-22T15:43:58Z</time></trkpt><trkpt lat="36.98789450367452" lon="-3.596995847535715"><ele>737.6666666666667</ele><time>2026-04-22T15:43:59Z</time></trkpt><trkpt lat="36.98790815101914" lon="-3.597249389638543"><ele>736.3333333333334</ele><time>2026-04-22T15:44:00Z</time></trkpt><trkpt lat="36.98791703712149" lon="-3.597490615123514"><ele>735.0</ele><time>2026-04-22T15:44:01Z</time></trkpt><trkpt lat="36.987921777581974" lon="-3.5977326006473525"><ele>734.0</ele><time>2026-04-22T15:44:02Z</time></trkpt><trkpt lat="36.98793052816842" lon="-3.597983915859129"><ele>733.0</ele><time>2026-04-22T15:44:03Z</time></trkpt><trkpt lat="36.98793574449198" lon="-3.5982350815770223"><ele>732.0</ele><time>2026-04-22T15:44:04Z</time></trkpt><trkpt lat="36.98794095895449" lon="-3.5984884144941907"><ele>731.3333333333334</ele><time>2026-04-22T15:44:05Z</time></trkpt><trkpt lat="36.98794934635249" lon="-3.5987381920334176"><ele>730.6666666666667</ele><time>2026-04-22T15:44:06Z</time></trkpt><trkpt lat="36.98795773832927" lon="-3.598992027013443"><ele>730.0</ele><time>2026-04-22T15:44:07Z</time></trkpt><trkpt lat="36.98796591788738" lon="-3.5992535302223034"><ele>729.6666666666667</ele><time>2026-04-22T15:44:08Z</time></trkpt><trkpt lat="36.98797354637679" lon="-3.599514528327216"><ele>729.3333333333334</ele><time>2026-04-22T15:44:09Z</time></trkpt><trkpt lat="36.987977340098915" lon="-3.5997804999336336"><ele>729.0</ele><time>2026-04-22T15:44:10Z</time></trkpt><trkpt lat="36.98797843554616" lon="-3.6000448556738855"><ele>729.0</ele><time>2026-04-22T15:44:11Z</time></trkpt><trkpt lat="36.987979590385855" lon="-3.600317090430262"><ele>729.0</ele><time>2026-04-22T15:44:12Z</time></trkpt><trkpt lat="36.9879838052969" lon="-3.600577163861932"><ele>729.0</ele><time>2026-04-22T15:44:13Z</time></trkpt><trkpt lat="36.98798820050996" lon="-3.600824506594256"><ele>730.0</ele><time>2026-04-22T15:44:14Z</time></trkpt><trkpt lat="36.987995411284004" lon="-3.601065378704927"><ele>731.0</ele><time>2026-04-22T15:44:15Z</time></trkpt><trkpt lat="36.988005595352966" lon="-3.601302452109502"><ele>732.0</ele><time>2026-04-22T15:44:16Z</time></trkpt><trkpt lat="36.988019733169864" lon="-3.601533265936658"><ele>732.0</ele><time>2026-04-22T15:44:17Z</time></trkpt><trkpt lat="36.98803924176964" lon="-3.6017622600771864"><ele>732.0</ele><time>2026-04-22T15:44:18Z</time></trkpt><trkpt lat="36.98806441394992" lon="-3.601986287025639"><ele>732.0</ele><time>2026-04-22T15:44:19Z</time></trkpt><trkpt lat="36.9880903339366" lon="-3.6022116135397857"><ele>733.0</ele><time>2026-04-22T15:44:20Z</time></trkpt><trkpt lat="36.98811593821082" lon="-3.6024407423583527"><ele>734.0</ele><time>2026-04-22T15:44:21Z</time></trkpt><trkpt lat="36.98814461833436" lon="-3.602675329461076"><ele>735.0</ele><time>2026-04-22T15:44:22Z</time></trkpt><trkpt lat="36.98817030441263" lon="-3.6028902301729135"><ele>735.6666666666666</ele><time>2026-04-22T15:44:23Z</time></trkpt><trkpt lat="36.98819124888414" lon="-3.603094603203098"><ele>736.3333333333333</ele><time>2026-04-22T15:44:24Z</time></trkpt><trkpt lat="36.98821240039476" lon="-3.603290304955442"><ele>737.0</ele><time>2026-04-22T15:44:25Z</time></trkpt><trkpt lat="36.98822922977869" lon="-3.6034788187648568"><ele>737.0</ele><time>2026-04-22T15:44:26Z</time></trkpt><trkpt lat="36.988251218737226" lon="-3.603667266710502"><ele>737.0</ele><time>2026-04-22T15:44:27Z</time></trkpt><trkpt lat="36.98828254664762" lon="-3.60385407168475"><ele>737.0</ele><time>2026-04-22T15:44:28Z</time></trkpt><trkpt lat="36.9883239285618" lon="-3.604023057633381"><ele>737.0</ele><time>2026-04-22T15:44:29Z</time></trkpt><trkpt lat="36.98838132245389" lon="-3.6041585306899524"><ele>737.0</ele><time>2026-04-22T15:44:30Z</time></trkpt><trkpt lat="36.988454597421" lon="-3.604250532373736"><ele>737.0</ele><time>2026-04-22T15:44:31Z</time></trkpt><trkpt lat="36.98853500255587" lon="-3.604290094812135"><ele>737.0</ele><time>2026-04-22T15:44:32Z</time></trkpt><trkpt lat="36.98861974669265" lon="-3.6042979947484075"><ele>737.0</ele><time>2026-04-22T15:44:33Z</time></trkpt><trkpt lat="36.98869162053249" lon="-3.6043148996089056"><ele>737.0</ele><time>2026-04-22T15:44:34Z</time></trkpt><trkpt lat="36.98875104199959" lon="-3.604366482311469"><ele>737.0</ele><time>2026-04-22T15:44:35Z</time></trkpt><trkpt lat="36.9887953965222" lon="-3.604463801331793"><ele>737.4000000000001</ele><time>2026-04-22T15:44:36Z</time></trkpt><trkpt lat="36.98882440387715" lon="-3.6045771825461315"><ele>737.8000000000001</ele><time>2026-04-22T15:44:37Z</time></trkpt><trkpt lat="36.98884976014723" lon="-3.604706084608466"><ele>738.2</ele><time>2026-04-22T15:44:38Z</time></trkpt><trkpt lat="36.98889102670236" lon="-3.604843225269611"><ele>738.6</ele><time>2026-04-22T15:44:39Z</time></trkpt><trkpt lat="36.9889273625945" lon="-3.6049712030295082"><ele>739.0</ele><time>2026-04-22T15:44:40Z</time></trkpt><trkpt lat="36.98896863539221" lon="-3.6050809819544605"><ele>739.0</ele><time>2026-04-22T15:44:41Z</time></trkpt><trkpt lat="36.98901039975499" lon="-3.6051577556946586"><ele>739.0</ele><time>2026-04-22T15:44:42.001Z</time></trkpt><trkpt lat="36.989117591081985" lon="-3.6052067837108597"><ele>739.0</ele><time>2026-04-22T15:44:44.001Z</time></trkpt><trkpt lat="36.98920011666778" lon="-3.605227706476954"><ele>739.0</ele><time>2026-04-22T15:44:46.001Z</time></trkpt><trkpt lat="36.98924343931631" lon="-3.6051045573712694"><ele>739.0</ele><time>2026-04-22T15:44:47.001Z</time></trkpt><trkpt lat="36.989309797891956" lon="-3.6050877839041866"><ele>739.0</ele><time>2026-04-22T15:44:49.001Z</time></trkpt><trkpt lat="36.98937728349884" lon="-3.6051105838841466"><ele>739.3333333333334</ele><time>2026-04-22T15:46:00.001Z</time></trkpt><trkpt lat="36.98939417296919" lon="-3.605192119092836"><ele>739.6666666666667</ele><time>2026-04-22T15:58:16.999Z</time></trkpt><trkpt lat="36.98942052987475" lon="-3.605305869801518"><ele>740.0</ele><time>2026-04-22T15:58:48.999Z</time></trkpt><trkpt lat="36.98935989369159" lon="-3.6053276636926963"><ele>740.3333333333334</ele><time>2026-04-22T15:58:51.998Z</time></trkpt><trkpt lat="36.989367776349376" lon="-3.6052391625016904"><ele>740.6666666666666</ele><time>2026-04-22T15:58:58.998Z</time></trkpt><trkpt lat="36.989422320183316" lon="-3.6051838874660143"><ele>741.0</ele><time>2026-04-22T15:59:05.998Z</time></trkpt><trkpt lat="36.98940859334153" lon="-3.6050756137758877"><ele>741.0</ele><time>2026-04-22T15:59:24Z</time></trkpt><trkpt lat="36.98946194418019" lon="-3.6050008210590208"><ele>741.0</ele><time>2026-04-22T16:00:56.999Z</time></trkpt><trkpt lat="36.989582747558586" lon="-3.604983472155071"><ele>741.0</ele><time>2026-04-22T16:01:03.999Z</time></trkpt><trkpt lat="36.989564999412465" lon="-3.605065311377549"><ele>741.0</ele><time>2026-04-22T16:13:07.999Z</time></trkpt><trkpt lat="36.989553325831274" lon="-3.604981523920238"><ele>741.0</ele><time>2026-04-22T16:13:32.999Z</time></trkpt><trkpt lat="36.9896099170274" lon="-3.6050192189722092"><ele>741.0</ele><time>2026-04-22T16:13:49.999Z</time></trkpt><trkpt lat="36.98958666496202" lon="-3.6050991747736227"><ele>741.0</ele><time>2026-04-22T16:13:58.999Z</time></trkpt><trkpt lat="36.98953139525275" lon="-3.6052230117410335"><ele>741.0</ele><time>2026-04-22T16:25:07Z</time></trkpt><trkpt lat="36.9894593001121" lon="-3.6053212793724723"><ele>741.0</ele><time>2026-04-22T16:25:09Z</time></trkpt><trkpt lat="36.989377434363" lon="-3.6053746366575377"><ele>741.0</ele><time>2026-04-22T16:25:11Z</time></trkpt><trkpt lat="36.98928143779868" lon="-3.6053686040983424"><ele>741.0</ele><time>2026-04-22T16:25:13Z</time></trkpt><trkpt lat="36.98919980724915" lon="-3.605323328618544"><ele>740.6666666666666</ele><time>2026-04-22T16:25:15Z</time></trkpt><trkpt lat="36.989120916482" lon="-3.605306212726126"><ele>740.3333333333334</ele><time>2026-04-22T16:25:18Z</time></trkpt><trkpt lat="36.989039367194025" lon="-3.6052662521213863"><ele>740.0</ele><time>2026-04-22T16:25:21Z</time></trkpt><trkpt lat="36.988988804547965" lon="-3.605192157364218"><ele>739.6666666666667</ele><time>2026-04-22T16:25:23Z</time></trkpt><trkpt lat="36.988957577412734" lon="-3.605115994062168"><ele>739.3333333333334</ele><time>2026-04-22T16:25:25Z</time></trkpt><trkpt lat="36.988921822672644" lon="-3.6050335578821486"><ele>739.0</ele><time>2026-04-22T16:25:27Z</time></trkpt><trkpt lat="36.98887360199554" lon="-3.6049158411777014"><ele>739.0</ele><time>2026-04-22T16:25:29Z</time></trkpt><trkpt lat="36.98882665822549" lon="-3.6048156722809757"><ele>739.0</ele><time>2026-04-22T16:25:31Z</time></trkpt><trkpt lat="36.988781971468555" lon="-3.6047573143470024"><ele>739.0</ele><time>2026-04-22T16:25:33Z</time></trkpt><trkpt lat="36.98869433630855" lon="-3.6047485951436053"><ele>739.0</ele><time>2026-04-22T16:25:36Z</time></trkpt><trkpt lat="36.98862724960935" lon="-3.604869253673175"><ele>739.0</ele><time>2026-04-22T16:25:38Z</time></trkpt><trkpt lat="36.98859958735043" lon="-3.604962370243043"><ele>739.0</ele><time>2026-04-22T16:25:39Z</time></trkpt><trkpt lat="36.98856938273761" lon="-3.60506246638175"><ele>739.0</ele><time>2026-04-22T16:25:40Z</time></trkpt><trkpt lat="36.98854367016376" lon="-3.6051840573661478"><ele>739.0</ele><time>2026-04-22T16:25:41Z</time></trkpt><trkpt lat="36.98852338519616" lon="-3.605327914000492"><ele>739.0</ele><time>2026-04-22T16:25:42Z</time></trkpt><trkpt lat="36.98850913481646" lon="-3.605475596252543"><ele>739.0</ele><time>2026-04-22T16:25:43Z</time></trkpt><trkpt lat="36.98850523691753" lon="-3.60563076171379"><ele>739.0</ele><time>2026-04-22T16:25:44Z</time></trkpt><trkpt lat="36.98850389322621" lon="-3.605791551135806"><ele>739.0</ele><time>2026-04-22T16:25:45Z</time></trkpt><trkpt lat="36.9885035597459" lon="-3.6059551220399513"><ele>739.0</ele><time>2026-04-22T16:25:46Z</time></trkpt><trkpt lat="36.98850410795673" lon="-3.606119023713161"><ele>739.0</ele><time>2026-04-22T16:25:47Z</time></trkpt><trkpt lat="36.988507375441735" lon="-3.6062942339375317"><ele>739.5</ele><time>2026-04-22T16:25:48Z</time></trkpt><trkpt lat="36.98851041642449" lon="-3.606476697351217"><ele>740.0</ele><time>2026-04-22T16:25:49Z</time></trkpt><trkpt lat="36.9885241731979" lon="-3.606661128567797"><ele>740.5</ele><time>2026-04-22T16:25:50Z</time></trkpt><trkpt lat="36.98853189708161" lon="-3.606846121587196"><ele>741.0</ele><time>2026-04-22T16:25:51Z</time></trkpt><trkpt lat="36.98854837387195" lon="-3.607024805861734"><ele>741.0</ele><time>2026-04-22T16:25:52Z</time></trkpt><trkpt lat="36.98856756921068" lon="-3.6072081291119087"><ele>741.0</ele><time>2026-04-22T16:25:53Z</time></trkpt><trkpt lat="36.98858479621985" lon="-3.6073922290104057"><ele>741.0</ele><time>2026-04-22T16:25:54Z</time></trkpt><trkpt lat="36.98860715491732" lon="-3.607581037688807"><ele>741.0</ele><time>2026-04-22T16:25:55Z</time></trkpt><trkpt lat="36.988636756042425" lon="-3.6077760095877043"><ele>741.6666666666666</ele><time>2026-04-22T16:25:56Z</time></trkpt><trkpt lat="36.98867478695555" lon="-3.6079710664266185"><ele>742.3333333333333</ele><time>2026-04-22T16:25:56.999Z</time></trkpt><trkpt lat="36.988714511861716" lon="-3.6081723607137484"><ele>743.0</ele><time>2026-04-22T16:25:57.999Z</time></trkpt><trkpt lat="36.98875883911362" lon="-3.6083792251852733"><ele>743.0</ele><time>2026-04-22T16:25:58.999Z</time></trkpt><trkpt lat="36.98880636427349" lon="-3.608583932696223"><ele>743.0</ele><time>2026-04-22T16:25:59.999Z</time></trkpt><trkpt lat="36.98885993825858" lon="-3.6087923648262956"><ele>743.0</ele><time>2026-04-22T16:26:00.999Z</time></trkpt><trkpt lat="36.98891812293469" lon="-3.6090086702193775"><ele>743.6666666666666</ele><time>2026-04-22T16:26:01.999Z</time></trkpt><trkpt lat="36.98898121602579" lon="-3.609232774612505"><ele>744.3333333333334</ele><time>2026-04-22T16:26:02.999Z</time></trkpt><trkpt lat="36.9890393202229" lon="-3.609449632342252"><ele>745.0</ele><time>2026-04-22T16:26:03.999Z</time></trkpt><trkpt lat="36.98909965673565" lon="-3.6096694513330903"><ele>745.0</ele><time>2026-04-22T16:26:04.999Z</time></trkpt><trkpt lat="36.98916078343391" lon="-3.609886223545625"><ele>745.0</ele><time>2026-04-22T16:26:05.999Z</time></trkpt><trkpt lat="36.989226817796144" lon="-3.6101006949879864"><ele>745.0</ele><time>2026-04-22T16:26:06.999Z</time></trkpt><trkpt lat="36.98929456985685" lon="-3.6103147912761666"><ele>745.6666666666667</ele><time>2026-04-22T16:26:07.999Z</time></trkpt><trkpt lat="36.98936682749862" lon="-3.610528065771376"><ele>746.3333333333334</ele><time>2026-04-22T16:26:08.999Z</time></trkpt><trkpt lat="36.9894411273866" lon="-3.610743750804078"><ele>747.0</ele><time>2026-04-22T16:26:09.999Z</time></trkpt><trkpt lat="36.98952267174899" lon="-3.6109656936346415"><ele>747.3333333333334</ele><time>2026-04-22T16:26:10.999Z</time></trkpt><trkpt lat="36.98960540923017" lon="-3.611198002451069"><ele>747.6666666666667</ele><time>2026-04-22T16:26:11.999Z</time></trkpt><trkpt lat="36.9896879543992" lon="-3.6114401043494975"><ele>748.0</ele><time>2026-04-22T16:26:12.999Z</time></trkpt><trkpt lat="36.98977454167381" lon="-3.611687202481196"><ele>748.0</ele><time>2026-04-22T16:26:13.999Z</time></trkpt><trkpt lat="36.989860355134205" lon="-3.6119371505555184"><ele>748.0</ele><time>2026-04-22T16:26:14.999Z</time></trkpt><trkpt lat="36.989952513599604" lon="-3.6121915214674285"><ele>748.0</ele><time>2026-04-22T16:26:15.999Z</time></trkpt><trkpt lat="36.99004774173964" lon="-3.6124453874177034"><ele>752.6666666666667</ele><time>2026-04-22T16:26:16.999Z</time></trkpt><trkpt lat="36.99014255367166" lon="-3.612691082556672"><ele>757.3333333333334</ele><time>2026-04-22T16:26:17.999Z</time></trkpt><trkpt lat="36.99023643627544" lon="-3.6129306536645487"><ele>762.0</ele><time>2026-04-22T16:26:18.999Z</time></trkpt><trkpt lat="36.9903287300258" lon="-3.6131684864686067"><ele>762.0</ele><time>2026-04-22T16:26:19.999Z</time></trkpt><trkpt lat="36.990414104517015" lon="-3.6134107972220453"><ele>762.0</ele><time>2026-04-22T16:26:20.999Z</time></trkpt><trkpt lat="36.99049501438567" lon="-3.6136551034636435"><ele>762.0</ele><time>2026-04-22T16:26:21.999Z</time></trkpt><trkpt lat="36.99057369862868" lon="-3.6138952437899143"><ele>761.0</ele><time>2026-04-22T16:26:22.999Z</time></trkpt><trkpt lat="36.990644423340015" lon="-3.6141340782927087"><ele>760.0</ele><time>2026-04-22T16:26:23.999Z</time></trkpt><trkpt lat="36.99070967975064" lon="-3.614364407912581"><ele>759.0</ele><time>2026-04-22T16:26:24.999Z</time></trkpt><trkpt lat="36.990776319738345" lon="-3.6145998594796933"><ele>765.0</ele><time>2026-04-22T16:26:25.999Z</time></trkpt><trkpt lat="36.99084313291661" lon="-3.614837717827282"><ele>771.0</ele><time>2026-04-22T16:26:26.999Z</time></trkpt><trkpt lat="36.99090416365488" lon="-3.6150759305985787"><ele>777.0</ele><time>2026-04-22T16:26:27.999Z</time></trkpt><trkpt lat="36.9909607617268" lon="-3.6153147491001785"><ele>776.0</ele><time>2026-04-22T16:26:28.999Z</time></trkpt><trkpt lat="36.991016687652" lon="-3.6155588416256355"><ele>775.0</ele><time>2026-04-22T16:26:29.999Z</time></trkpt><trkpt lat="36.991065672886144" lon="-3.6158125566934656"><ele>774.0</ele><time>2026-04-22T16:26:30.999Z</time></trkpt><trkpt lat="36.99111343551024" lon="-3.6160680772388853"><ele>773.0</ele><time>2026-04-22T16:26:31.999Z</time></trkpt><trkpt lat="36.99115811617493" lon="-3.6163309786169098"><ele>772.0</ele><time>2026-04-22T16:26:32.999Z</time></trkpt><trkpt lat="36.99119499721376" lon="-3.6165946430213167"><ele>771.0</ele><time>2026-04-22T16:26:33.999Z</time></trkpt><trkpt lat="36.991228325639675" lon="-3.6168605399707534"><ele>770.6666666666667</ele><time>2026-04-22T16:26:34.999Z</time></trkpt><trkpt lat="36.99126087497322" lon="-3.617129666495949"><ele>770.3333333333334</ele><time>2026-04-22T16:26:35.999Z</time></trkpt><trkpt lat="36.991285774857644" lon="-3.6173984324244906"><ele>770.0</ele><time>2026-04-22T16:26:36.999Z</time></trkpt><trkpt lat="36.991305200740676" lon="-3.617664651676845"><ele>769.6666666666667</ele><time>2026-04-22T16:26:37.999Z</time></trkpt><trkpt lat="36.99132140722986" lon="-3.617926356172125"><ele>769.3333333333333</ele><time>2026-04-22T16:26:38.999Z</time></trkpt><trkpt lat="36.99133273637889" lon="-3.618185584910837"><ele>769.0</ele><time>2026-04-22T16:26:39.999Z</time></trkpt><trkpt lat="36.99133928600428" lon="-3.618443487536651"><ele>769.0</ele><time>2026-04-22T16:26:40.999Z</time></trkpt><trkpt lat="36.991341868217205" lon="-3.61869864319069"><ele>769.0</ele><time>2026-04-22T16:26:41.999Z</time></trkpt><trkpt lat="36.99134206230804" lon="-3.6189549527637976"><ele>769.0</ele><time>2026-04-22T16:26:42.999Z</time></trkpt><trkpt lat="36.99133986652941" lon="-3.619210098652528"><ele>769.0</ele><time>2026-04-22T16:26:43.999Z</time></trkpt><trkpt lat="36.991339571798015" lon="-3.6194674693359326"><ele>769.0</ele><time>2026-04-22T16:26:44.999Z</time></trkpt><trkpt lat="36.991336344157624" lon="-3.6197324453223296"><ele>769.0</ele><time>2026-04-22T16:26:45.999Z</time></trkpt><trkpt lat="36.99132403400724" lon="-3.6200033308328683"><ele>769.6666666666666</ele><time>2026-04-22T16:26:46.999Z</time></trkpt><trkpt lat="36.9913104726619" lon="-3.620277118817871"><ele>770.3333333333333</ele><time>2026-04-22T16:26:47.999Z</time></trkpt><trkpt lat="36.99129185911549" lon="-3.6205514283644873"><ele>771.0</ele><time>2026-04-22T16:26:49Z</time></trkpt><trkpt lat="36.99127462909892" lon="-3.620816046096677"><ele>771.0</ele><time>2026-04-22T16:26:50Z</time></trkpt><trkpt lat="36.991244854736586" lon="-3.62108501863845"><ele>771.0</ele><time>2026-04-22T16:26:51Z</time></trkpt><trkpt lat="36.99131110588027" lon="-3.621313061158109"><ele>771.0</ele><time>2026-04-22T16:26:52Z</time></trkpt><trkpt lat="36.991316023485375" lon="-3.621562717868299"><ele>771.0</ele><time>2026-04-22T16:26:53Z</time></trkpt><trkpt lat="36.99132401573325" lon="-3.6218138532684256"><ele>771.0</ele><time>2026-04-22T16:26:54Z</time></trkpt><trkpt lat="36.99134382731153" lon="-3.62206755513003"><ele>771.0</ele><time>2026-04-22T16:26:55Z</time></trkpt><trkpt lat="36.99136684000768" lon="-3.6223191163601904"><ele>771.0</ele><time>2026-04-22T16:26:56Z</time></trkpt><trkpt lat="36.99139946133787" lon="-3.6225681007240222"><ele>771.0</ele><time>2026-04-22T16:26:57Z</time></trkpt><trkpt lat="36.99143415295624" lon="-3.6228163108120786"><ele>771.0</ele><time>2026-04-22T16:26:58Z</time></trkpt><trkpt lat="36.99147999747622" lon="-3.623061576729758"><ele>772.0</ele><time>2026-04-22T16:26:59Z</time></trkpt><trkpt lat="36.99152946399782" lon="-3.6233009683088424"><ele>773.0</ele><time>2026-04-22T16:27:00Z</time></trkpt><trkpt lat="36.99158258014191" lon="-3.6235426067544774"><ele>774.0</ele><time>2026-04-22T16:27:01Z</time></trkpt><trkpt lat="36.991642102753744" lon="-3.623787863762859"><ele>779.6666666666667</ele><time>2026-04-22T16:27:02Z</time></trkpt><trkpt lat="36.99170666027263" lon="-3.6240268130556026"><ele>785.3333333333334</ele><time>2026-04-22T16:27:03Z</time></trkpt><trkpt lat="36.99178477659292" lon="-3.6242764951706152"><ele>791.0</ele><time>2026-04-22T16:27:04Z</time></trkpt><trkpt lat="36.99187527519322" lon="-3.6245310374543203"><ele>791.0</ele><time>2026-04-22T16:27:05Z</time></trkpt><trkpt lat="36.991973912348" lon="-3.624792175696529"><ele>791.0</ele><time>2026-04-22T16:27:06Z</time></trkpt><trkpt lat="36.99207679367098" lon="-3.625046461577037"><ele>791.0</ele><time>2026-04-22T16:27:07Z</time></trkpt><trkpt lat="36.99218756779372" lon="-3.6252988998577806"><ele>791.0</ele><time>2026-04-22T16:27:08Z</time></trkpt><trkpt lat="36.992302953667185" lon="-3.6255411769052985"><ele>790.3333333333334</ele><time>2026-04-22T16:27:09Z</time></trkpt><trkpt lat="36.99242559969143" lon="-3.625776703620321"><ele>789.6666666666667</ele><time>2026-04-22T16:27:10Z</time></trkpt><trkpt lat="36.992553267523135" lon="-3.626007095979202"><ele>789.0</ele><time>2026-04-22T16:27:11Z</time></trkpt><trkpt lat="36.99268758408183" lon="-3.6262314174158914"><ele>795.0</ele><time>2026-04-22T16:27:12Z</time></trkpt><trkpt lat="36.99282723874321" lon="-3.6264419710583233"><ele>801.0</ele><time>2026-04-22T16:27:13Z</time></trkpt><trkpt lat="36.99298502249664" lon="-3.6266407886924434"><ele>807.0</ele><time>2026-04-22T16:27:14Z</time></trkpt><trkpt lat="36.99313326133313" lon="-3.6268454557522105"><ele>804.6666666666667</ele><time>2026-04-22T16:27:15Z</time></trkpt><trkpt lat="36.99328397635607" lon="-3.6270434541795953"><ele>802.3333333333334</ele><time>2026-04-22T16:27:16Z</time></trkpt><trkpt lat="36.99344225221079" lon="-3.6272356019588488"><ele>800.0</ele><time>2026-04-22T16:27:17Z</time></trkpt><trkpt lat="36.99361019830767" lon="-3.627417674765116"><ele>800.0</ele><time>2026-04-22T16:27:18Z</time></trkpt><trkpt lat="36.99378024054133" lon="-3.627599674796719"><ele>800.0</ele><time>2026-04-22T16:27:19Z</time></trkpt><trkpt lat="36.9939559486654" lon="-3.627769799795372"><ele>800.0</ele><time>2026-04-22T16:27:20Z</time></trkpt><trkpt lat="36.99414107244968" lon="-3.6279259792116747"><ele>799.5</ele><time>2026-04-22T16:27:21Z</time></trkpt><trkpt lat="36.994337654294725" lon="-3.628083323587027"><ele>799.0</ele><time>2026-04-22T16:27:22Z</time></trkpt><trkpt lat="36.994531213571165" lon="-3.6282424165433445"><ele>799.0</ele><time>2026-04-22T16:27:23Z</time></trkpt><trkpt lat="36.994732954963986" lon="-3.628375204445296"><ele>799.0</ele><time>2026-04-22T16:27:24Z</time></trkpt><trkpt lat="36.994931672166004" lon="-3.6285093610338914"><ele>800.0</ele><time>2026-04-22T16:27:25Z</time></trkpt><trkpt lat="36.995130298766796" lon="-3.6286370532528873"><ele>801.0</ele><time>2026-04-22T16:27:26Z</time></trkpt><trkpt lat="36.99534049162594" lon="-3.6287506160442367"><ele>804.3333333333333</ele><time>2026-04-22T16:27:27Z</time></trkpt><trkpt lat="36.995542071539916" lon="-3.6288543786049083"><ele>807.6666666666666</ele><time>2026-04-22T16:27:28Z</time></trkpt><trkpt lat="36.99574415811654" lon="-3.6289519953533365"><ele>811.0</ele><time>2026-04-22T16:27:29Z</time></trkpt><trkpt lat="36.99595082694713" lon="-3.629041435713419"><ele>811.0</ele><time>2026-04-22T16:27:30Z</time></trkpt><trkpt lat="36.99615894301607" lon="-3.629122033805912"><ele>811.0</ele><time>2026-04-22T16:27:31Z</time></trkpt><trkpt lat="36.99636299284649" lon="-3.6291941847288616"><ele>811.0</ele><time>2026-04-22T16:27:32Z</time></trkpt><trkpt lat="36.996569083713545" lon="-3.629255876823986"><ele>812.3333333333333</ele><time>2026-04-22T16:27:33Z</time></trkpt><trkpt lat="36.996770167642225" lon="-3.6293112955720974"><ele>813.6666666666667</ele><time>2026-04-22T16:27:34Z</time></trkpt><trkpt lat="36.9969706848981" lon="-3.6293698422553264"><ele>815.0</ele><time>2026-04-22T16:27:35Z</time></trkpt><trkpt lat="36.99716650193229" lon="-3.629429320407011"><ele>815.0</ele><time>2026-04-22T16:27:36Z</time></trkpt><trkpt lat="36.9973596883911" lon="-3.629486959118291"><ele>815.0</ele><time>2026-04-22T16:27:37Z</time></trkpt><trkpt lat="36.99754988861837" lon="-3.629543880692256"><ele>815.0</ele><time>2026-04-22T16:27:38Z</time></trkpt><trkpt lat="36.99773757829838" lon="-3.629603508138729"><ele>818.0</ele><time>2026-04-22T16:27:39Z</time></trkpt><trkpt lat="36.99792440091056" lon="-3.6296647526019554"><ele>821.0</ele><time>2026-04-22T16:27:40Z</time></trkpt><trkpt lat="36.998111266075" lon="-3.629728822167847"><ele>824.0</ele><time>2026-04-22T16:27:41Z</time></trkpt><trkpt lat="36.99829733200577" lon="-3.6297946743130347"><ele>827.3333333333334</ele><time>2026-04-22T16:27:42Z</time></trkpt><trkpt lat="36.99848545825169" lon="-3.6298682248648317"><ele>830.6666666666667</ele><time>2026-04-22T16:27:43Z</time></trkpt><trkpt lat="36.99867642169387" lon="-3.6299458547041983"><ele>834.0</ele><time>2026-04-22T16:27:44Z</time></trkpt><trkpt lat="36.99886835500438" lon="-3.630035666978415"><ele>834.0</ele><time>2026-04-22T16:27:45Z</time></trkpt><trkpt lat="36.99906150975141" lon="-3.6301270003324655"><ele>834.0</ele><time>2026-04-22T16:27:46Z</time></trkpt><trkpt lat="36.99925328060919" lon="-3.6302255149667157"><ele>834.0</ele><time>2026-04-22T16:27:47Z</time></trkpt><trkpt lat="36.99944403265152" lon="-3.630327908740584"><ele>834.6666666666667</ele><time>2026-04-22T16:27:48Z</time></trkpt><trkpt lat="36.99963428385066" lon="-3.6304382400657484"><ele>835.3333333333334</ele><time>2026-04-22T16:27:49Z</time></trkpt><trkpt lat="36.999822449382435" lon="-3.630550741777654"><ele>836.0</ele><time>2026-04-22T16:27:49.999Z</time></trkpt><trkpt lat="37.00000739466625" lon="-3.6306624061234305"><ele>836.0</ele><time>2026-04-22T16:27:50.999Z</time></trkpt><trkpt lat="37.000189528775806" lon="-3.630781477896505"><ele>836.0</ele><time>2026-04-22T16:27:51.999Z</time></trkpt><trkpt lat="37.000370248834535" lon="-3.6309110099950628"><ele>836.0</ele><time>2026-04-22T16:27:52.999Z</time></trkpt><trkpt lat="37.0005564977762" lon="-3.6310473692436496"><ele>836.0</ele><time>2026-04-22T16:27:53.999Z</time></trkpt><trkpt lat="37.0007442567609" lon="-3.6311902244214638"><ele>836.0</ele><time>2026-04-22T16:27:54.999Z</time></trkpt><trkpt lat="37.00093196778968" lon="-3.6313405835198327"><ele>836.0</ele><time>2026-04-22T16:27:55.999Z</time></trkpt><trkpt lat="37.00112054879714" lon="-3.631498033370518"><ele>838.0</ele><time>2026-04-22T16:27:56.999Z</time></trkpt><trkpt lat="37.00130735819714" lon="-3.6316640601515546"><ele>840.0</ele><time>2026-04-22T16:27:57.999Z</time></trkpt><trkpt lat="37.00149389846406" lon="-3.631839581722486"><ele>841.5</ele><time>2026-04-22T16:27:58.999Z</time></trkpt><trkpt lat="37.00167933878385" lon="-3.632020076093919"><ele>843.0</ele><time>2026-04-22T16:27:59.999Z</time></trkpt><trkpt lat="37.00185592690152" lon="-3.6322037669292193"><ele>843.0</ele><time>2026-04-22T16:28:00.999Z</time></trkpt><trkpt lat="37.00202375524501" lon="-3.6323869348965303"><ele>843.0</ele><time>2026-04-22T16:28:01.999Z</time></trkpt><trkpt lat="37.00217792067042" lon="-3.632564928571991"><ele>843.0</ele><time>2026-04-22T16:28:02.999Z</time></trkpt><trkpt lat="37.00233858872711" lon="-3.6327540102458737"><ele>843.5</ele><time>2026-04-22T16:28:03.999Z</time></trkpt><trkpt lat="37.00250297121534" lon="-3.6329538591835466"><ele>844.0</ele><time>2026-04-22T16:28:04.999Z</time></trkpt><trkpt lat="37.00266656564954" lon="-3.633158882609719"><ele>844.0</ele><time>2026-04-22T16:28:05.999Z</time></trkpt><trkpt lat="37.002822616140364" lon="-3.633370756670042"><ele>844.0</ele><time>2026-04-22T16:28:06.999Z</time></trkpt><trkpt lat="37.00297786494773" lon="-3.6335839225222806"><ele>847.5</ele><time>2026-04-22T16:28:07.999Z</time></trkpt><trkpt lat="37.003126798443525" lon="-3.633800552935425"><ele>851.0</ele><time>2026-04-22T16:28:08.999Z</time></trkpt><trkpt lat="37.00327270323189" lon="-3.6340249740525303"><ele>847.0</ele><time>2026-04-22T16:28:09.999Z</time></trkpt><trkpt lat="37.00341583013925" lon="-3.6342550579741504"><ele>843.0</ele><time>2026-04-22T16:28:10.999Z</time></trkpt><trkpt lat="37.00355824031619" lon="-3.634484175009688"><ele>843.0</ele><time>2026-04-22T16:28:11.999Z</time></trkpt><trkpt lat="37.003702321115135" lon="-3.634716802149369"><ele>843.0</ele><time>2026-04-22T16:28:12.999Z</time></trkpt><trkpt lat="37.003845347526386" lon="-3.6349513240485165"><ele>843.0</ele><time>2026-04-22T16:28:13.999Z</time></trkpt><trkpt lat="37.0039863126899" lon="-3.6351864105518494"><ele>843.0</ele><time>2026-04-22T16:28:14.999Z</time></trkpt><trkpt lat="37.00413130784574" lon="-3.6354201366592718"><ele>839.5</ele><time>2026-04-22T16:28:15.999Z</time></trkpt><trkpt lat="37.0042783270687" lon="-3.6356527722621133"><ele>836.0</ele><time>2026-04-22T16:28:16.999Z</time></trkpt><trkpt lat="37.00442936829965" lon="-3.6358830743582513"><ele>836.0</ele><time>2026-04-22T16:28:17.999Z</time></trkpt><trkpt lat="37.004593049536645" lon="-3.636113689992442"><ele>836.0</ele><time>2026-04-22T16:28:18.999Z</time></trkpt><trkpt lat="37.004756284317246" lon="-3.6363439711299375"><ele>835.5</ele><time>2026-04-22T16:28:19.999Z</time></trkpt><trkpt lat="37.004926563244574" lon="-3.636570084311577"><ele>835.0</ele><time>2026-04-22T16:28:20.999Z</time></trkpt><trkpt lat="37.00510628670932" lon="-3.6367910427071286"><ele>834.0</ele><time>2026-04-22T16:28:21.999Z</time></trkpt><trkpt lat="37.00529492337254" lon="-3.637007451260189"><ele>833.0</ele><time>2026-04-22T16:28:22.999Z</time></trkpt><trkpt lat="37.00548525638247" lon="-3.637222633567709"><ele>833.0</ele><time>2026-04-22T16:28:23.999Z</time></trkpt><trkpt lat="37.00567911390066" lon="-3.637432441187154"><ele>833.0</ele><time>2026-04-22T16:28:24.999Z</time></trkpt><trkpt lat="37.00588375902705" lon="-3.6376387922771936"><ele>833.0</ele><time>2026-04-22T16:28:25.999Z</time></trkpt><trkpt lat="37.00609228458129" lon="-3.6378360500501437"><ele>833.0</ele><time>2026-04-22T16:28:26.999Z</time></trkpt><trkpt lat="37.00630505354999" lon="-3.638029743964531"><ele>833.0</ele><time>2026-04-22T16:28:27.999Z</time></trkpt><trkpt lat="37.00652378123416" lon="-3.6382228590756656"><ele>833.0</ele><time>2026-04-22T16:28:28.999Z</time></trkpt><trkpt lat="37.00674375055028" lon="-3.6384048874221397"><ele>830.0</ele><time>2026-04-22T16:28:29.999Z</time></trkpt><trkpt lat="37.006968021580484" lon="-3.63857381192519"><ele>827.0</ele><time>2026-04-22T16:28:30.999Z</time></trkpt><trkpt lat="37.007194871627014" lon="-3.638736485063742"><ele>827.0</ele><time>2026-04-22T16:28:31.999Z</time></trkpt><trkpt lat="37.007422948943145" lon="-3.6388922832471713"><ele>827.0</ele><time>2026-04-22T16:28:32.999Z</time></trkpt><trkpt lat="37.00765385073551" lon="-3.6390414207536335"><ele>823.0</ele><time>2026-04-22T16:28:33.999Z</time></trkpt><trkpt lat="37.00788410319018" lon="-3.639179680287682"><ele>819.0</ele><time>2026-04-22T16:28:34.999Z</time></trkpt><trkpt lat="37.0081122040578" lon="-3.6393020650292174"><ele>820.0</ele><time>2026-04-22T16:28:35.999Z</time></trkpt><trkpt lat="37.00833023548829" lon="-3.6394130535102995"><ele>821.0</ele><time>2026-04-22T16:28:36.999Z</time></trkpt><trkpt lat="37.00854879000379" lon="-3.6395200480901804"><ele>821.0</ele><time>2026-04-22T16:28:37.999Z</time></trkpt><trkpt lat="37.00876965088924" lon="-3.6396232894295597"><ele>821.0</ele><time>2026-04-22T16:28:38.999Z</time></trkpt><trkpt lat="37.0089971550179" lon="-3.639719468928692"><ele>815.5</ele><time>2026-04-22T16:28:39.999Z</time></trkpt><trkpt lat="37.009228872114086" lon="-3.6398070903440547"><ele>810.0</ele><time>2026-04-22T16:28:40.999Z</time></trkpt><trkpt lat="37.00946705792822" lon="-3.639888691517822"><ele>810.0</ele><time>2026-04-22T16:28:41.999Z</time></trkpt><trkpt lat="37.009710488754806" lon="-3.6399641562795066"><ele>810.0</ele><time>2026-04-22T16:28:42.999Z</time></trkpt><trkpt lat="37.009958264886485" lon="-3.6400318535745613"><ele>806.0</ele><time>2026-04-22T16:28:43.999Z</time></trkpt><trkpt lat="37.01021111288733" lon="-3.6400909201175327"><ele>802.0</ele><time>2026-04-22T16:28:45Z</time></trkpt><trkpt lat="37.01046572582458" lon="-3.640143424003716"><ele>802.0</ele><time>2026-04-22T16:28:46Z</time></trkpt><trkpt lat="37.010722243954106" lon="-3.640187511147226"><ele>802.0</ele><time>2026-04-22T16:28:47Z</time></trkpt><trkpt lat="37.01098193762089" lon="-3.640223020549027"><ele>800.0</ele><time>2026-04-22T16:28:48Z</time></trkpt><trkpt lat="37.01124364823877" lon="-3.640249590272194"><ele>798.0</ele><time>2026-04-22T16:28:49Z</time></trkpt><trkpt lat="37.011506156161026" lon="-3.6402684455219436"><ele>799.0</ele><time>2026-04-22T16:28:50Z</time></trkpt><trkpt lat="37.01177003363949" lon="-3.6402799851861074"><ele>800.0</ele><time>2026-04-22T16:28:51Z</time></trkpt><trkpt lat="37.0120348758657" lon="-3.640281357594264"><ele>800.0</ele><time>2026-04-22T16:28:52Z</time></trkpt><trkpt lat="37.012299993764174" lon="-3.640275859140988"><ele>800.0</ele><time>2026-04-22T16:28:53Z</time></trkpt><trkpt lat="37.012561345022775" lon="-3.640262962076055"><ele>801.5</ele><time>2026-04-22T16:28:54Z</time></trkpt><trkpt lat="37.01281774557522" lon="-3.640241835860075"><ele>803.0</ele><time>2026-04-22T16:28:55Z</time></trkpt><trkpt lat="37.01307033103774" lon="-3.640212206652387"><ele>804.0</ele><time>2026-04-22T16:28:56Z</time></trkpt><trkpt lat="37.013353155986245" lon="-3.640182231301414"><ele>805.0</ele><time>2026-04-22T16:28:57Z</time></trkpt><trkpt lat="37.01359137243979" lon="-3.640131848583974"><ele>805.0</ele><time>2026-04-22T16:28:58Z</time></trkpt><trkpt lat="37.01384316713294" lon="-3.640085415761429"><ele>805.0</ele><time>2026-04-22T16:28:59Z</time></trkpt><trkpt lat="37.01409774007207" lon="-3.6400445074810444"><ele>803.5</ele><time>2026-04-22T16:29:00Z</time></trkpt><trkpt lat="37.01435250944759" lon="-3.6400054004424653"><ele>802.0</ele><time>2026-04-22T16:29:01Z</time></trkpt><trkpt lat="37.01460604117009" lon="-3.6399696298768425"><ele>802.0</ele><time>2026-04-22T16:29:02Z</time></trkpt><trkpt lat="37.0148584894641" lon="-3.6399389487700184"><ele>802.0</ele><time>2026-04-22T16:29:03Z</time></trkpt><trkpt lat="37.01511455821366" lon="-3.639920253203231"><ele>803.0</ele><time>2026-04-22T16:29:04Z</time></trkpt><trkpt lat="37.01537741848113" lon="-3.6399116007151973"><ele>804.0</ele><time>2026-04-22T16:29:05Z</time></trkpt><trkpt lat="37.015646403869894" lon="-3.6399122731475297"><ele>800.5</ele><time>2026-04-22T16:29:06Z</time></trkpt><trkpt lat="37.015921691170966" lon="-3.6399265033149577"><ele>797.0</ele><time>2026-04-22T16:29:07Z</time></trkpt><trkpt lat="37.01619976559069" lon="-3.639949596223363"><ele>797.0</ele><time>2026-04-22T16:29:08Z</time></trkpt><trkpt lat="37.01648021918641" lon="-3.639981857275347"><ele>797.0</ele><time>2026-04-22T16:29:09Z</time></trkpt><trkpt lat="37.01675855272837" lon="-3.6400380214614385"><ele>796.0</ele><time>2026-04-22T16:29:10Z</time></trkpt><trkpt lat="37.01703491585307" lon="-3.640099628880517"><ele>795.0</ele><time>2026-04-22T16:29:11Z</time></trkpt><trkpt lat="37.017310264221564" lon="-3.64016785297813"><ele>795.5</ele><time>2026-04-22T16:29:12Z</time></trkpt><trkpt lat="37.01758111349794" lon="-3.640252587482987"><ele>796.0</ele><time>2026-04-22T16:29:13Z</time></trkpt><trkpt lat="37.01785028093567" lon="-3.6403523359556167"><ele>796.0</ele><time>2026-04-22T16:29:14Z</time></trkpt><trkpt lat="37.01811411204266" lon="-3.6404619674890153"><ele>796.0</ele><time>2026-04-22T16:29:15Z</time></trkpt><trkpt lat="37.01837632187679" lon="-3.6405801556853006"><ele>798.0</ele><time>2026-04-22T16:29:16Z</time></trkpt><trkpt lat="37.01863751753794" lon="-3.640710907946001"><ele>800.0</ele><time>2026-04-22T16:29:17Z</time></trkpt><trkpt lat="37.01889401676649" lon="-3.6408507025257255"><ele>800.0</ele><time>2026-04-22T16:29:18Z</time></trkpt><trkpt lat="37.019145594861776" lon="-3.64100192099267"><ele>800.0</ele><time>2026-04-22T16:29:19Z</time></trkpt><trkpt lat="37.01939413678839" lon="-3.641167162526907"><ele>805.0</ele><time>2026-04-22T16:29:20Z</time></trkpt><trkpt lat="37.01963676694575" lon="-3.641341574417322"><ele>810.0</ele><time>2026-04-22T16:29:21Z</time></trkpt><trkpt lat="37.01987945391887" lon="-3.6415297286043105"><ele>806.5</ele><time>2026-04-22T16:29:22Z</time></trkpt><trkpt lat="37.02011231740108" lon="-3.641731180630787"><ele>803.0</ele><time>2026-04-22T16:29:23Z</time></trkpt><trkpt lat="37.020348839306415" lon="-3.6419405772345987"><ele>802.0</ele><time>2026-04-22T16:29:24Z</time></trkpt><trkpt lat="37.02058508944973" lon="-3.6421499363962986"><ele>801.0</ele><time>2026-04-22T16:29:25Z</time></trkpt><trkpt lat="37.020824149535294" lon="-3.642362268416868"><ele>801.0</ele><time>2026-04-22T16:29:26Z</time></trkpt><trkpt lat="37.02106688079897" lon="-3.642571070661834"><ele>801.0</ele><time>2026-04-22T16:29:27Z</time></trkpt><trkpt lat="37.021305133000716" lon="-3.64277811543057"><ele>801.5</ele><time>2026-04-22T16:29:28Z</time></trkpt><trkpt lat="37.021554739519935" lon="-3.6429834629259434"><ele>802.0</ele><time>2026-04-22T16:29:29Z</time></trkpt><trkpt lat="37.021804844998066" lon="-3.643182874407262"><ele>802.0</ele><time>2026-04-22T16:29:30Z</time></trkpt><trkpt lat="37.022059093194635" lon="-3.643372964258592"><ele>802.0</ele><time>2026-04-22T16:29:31Z</time></trkpt><trkpt lat="37.022319499118716" lon="-3.6435527869050004"><ele>801.0</ele><time>2026-04-22T16:29:32Z</time></trkpt><trkpt lat="37.02258064577403" lon="-3.6437274960128074"><ele>800.0</ele><time>2026-04-22T16:29:33Z</time></trkpt><trkpt lat="37.02284777222897" lon="-3.643890149665264"><ele>800.0</ele><time>2026-04-22T16:29:34Z</time></trkpt><trkpt lat="37.02311784937875" lon="-3.644046442088628"><ele>800.0</ele><time>2026-04-22T16:29:35Z</time></trkpt><trkpt lat="37.02338754718546" lon="-3.6441944701090527"><ele>797.5</ele><time>2026-04-22T16:29:36Z</time></trkpt><trkpt lat="37.02365758342527" lon="-3.644337251813511"><ele>795.0</ele><time>2026-04-22T16:29:37Z</time></trkpt><trkpt lat="37.02392919734022" lon="-3.6444731869446905"><ele>796.5</ele><time>2026-04-22T16:29:38Z</time></trkpt><trkpt lat="37.02420747738675" lon="-3.6445926270528304"><ele>798.0</ele><time>2026-04-22T16:29:39Z</time></trkpt><trkpt lat="37.02448823053746" lon="-3.644702631347103"><ele>798.0</ele><time>2026-04-22T16:29:40Z</time></trkpt><trkpt lat="37.02476844838498" lon="-3.644806879192324"><ele>798.0</ele><time>2026-04-22T16:29:41Z</time></trkpt><trkpt lat="37.02504903077358" lon="-3.644901455157922"><ele>798.0</ele><time>2026-04-22T16:29:42Z</time></trkpt><trkpt lat="37.02533380506723" lon="-3.6449886079837417"><ele>798.0</ele><time>2026-04-22T16:29:43Z</time></trkpt><trkpt lat="37.02561993328442" lon="-3.645065832564221"><ele>799.0</ele><time>2026-04-22T16:29:44Z</time></trkpt><trkpt lat="37.02591610562286" lon="-3.6451304495450776"><ele>800.0</ele><time>2026-04-22T16:29:45Z</time></trkpt><trkpt lat="37.02621486461718" lon="-3.6451881263416688"><ele>800.0</ele><time>2026-04-22T16:29:46Z</time></trkpt><trkpt lat="37.026519646154945" lon="-3.645237126264702"><ele>800.0</ele><time>2026-04-22T16:29:47Z</time></trkpt><trkpt lat="37.0268280026092" lon="-3.645273655751283"><ele>801.5</ele><time>2026-04-22T16:29:48Z</time></trkpt><trkpt lat="37.02714085637923" lon="-3.645308144276794"><ele>803.0</ele><time>2026-04-22T16:29:49Z</time></trkpt><trkpt lat="37.027452508159826" lon="-3.645336272992535"><ele>803.0</ele><time>2026-04-22T16:29:50Z</time></trkpt><trkpt lat="37.027757773263716" lon="-3.6453570618012243"><ele>803.0</ele><time>2026-04-22T16:29:51Z</time></trkpt><trkpt lat="37.028059237987094" lon="-3.6453746281449027"><ele>801.5</ele><time>2026-04-22T16:29:52Z</time></trkpt><trkpt lat="37.02835788710414" lon="-3.6453881385129727"><ele>800.0</ele><time>2026-04-22T16:29:53Z</time></trkpt><trkpt lat="37.02865285864528" lon="-3.6454021227340556"><ele>800.0</ele><time>2026-04-22T16:29:54Z</time></trkpt><trkpt lat="37.02894598868468" lon="-3.6454120321107215"><ele>800.0</ele><time>2026-04-22T16:29:55Z</time></trkpt><trkpt lat="37.02923478961605" lon="-3.6454165565372114"><ele>799.0</ele><time>2026-04-22T16:29:56Z</time></trkpt><trkpt lat="37.0295220989511" lon="-3.6454178496208067"><ele>798.0</ele><time>2026-04-22T16:29:57Z</time></trkpt><trkpt lat="37.02980721396278" lon="-3.645415935435852"><ele>797.5</ele><time>2026-04-22T16:29:58Z</time></trkpt><trkpt lat="37.0300906915576" lon="-3.6454124828862677"><ele>797.0</ele><time>2026-04-22T16:29:59Z</time></trkpt><trkpt lat="37.03037672140961" lon="-3.645416333489759"><ele>797.0</ele><time>2026-04-22T16:30:00Z</time></trkpt><trkpt lat="37.03066539833614" lon="-3.645418240122489"><ele>797.0</ele><time>2026-04-22T16:30:01Z</time></trkpt><trkpt lat="37.030952093075406" lon="-3.645418803245996"><ele>799.5</ele><time>2026-04-22T16:30:02Z</time></trkpt><trkpt lat="37.03123898534885" lon="-3.645400664800518"><ele>802.0</ele><time>2026-04-22T16:30:03Z</time></trkpt><trkpt lat="37.03152919272822" lon="-3.6454397071621982"><ele>803.0</ele><time>2026-04-22T16:30:04Z</time></trkpt><trkpt lat="37.03182581951279" lon="-3.6454494149264463"><ele>804.0</ele><time>2026-04-22T16:30:05Z</time></trkpt><trkpt lat="37.032118732671336" lon="-3.6454614466512205"><ele>804.0</ele><time>2026-04-22T16:30:06Z</time></trkpt><trkpt lat="37.032415000757474" lon="-3.6454786394477603"><ele>804.0</ele><time>2026-04-22T16:30:07Z</time></trkpt><trkpt lat="37.032711638703205" lon="-3.6454896056507096"><ele>805.0</ele><time>2026-04-22T16:30:08Z</time></trkpt><trkpt lat="37.03301311688695" lon="-3.64550669234148"><ele>806.0</ele><time>2026-04-22T16:30:09Z</time></trkpt><trkpt lat="37.03331423908001" lon="-3.6455255213408213"><ele>808.0</ele><time>2026-04-22T16:30:10Z</time></trkpt><trkpt lat="37.033617062250784" lon="-3.645553275457509"><ele>810.0</ele><time>2026-04-22T16:30:11Z</time></trkpt><trkpt lat="37.033911942821" lon="-3.645583340885073"><ele>813.0</ele><time>2026-04-22T16:30:12Z</time></trkpt><trkpt lat="37.0342047191768" lon="-3.645615449295578"><ele>816.0</ele><time>2026-04-22T16:30:13Z</time></trkpt><trkpt lat="37.034486384101314" lon="-3.6456452212078774"><ele>816.0</ele><time>2026-04-22T16:30:14Z</time></trkpt><trkpt lat="37.034765727871935" lon="-3.645685260301545"><ele>816.0</ele><time>2026-04-22T16:30:15Z</time></trkpt><trkpt lat="37.03504430622726" lon="-3.6457291090223363"><ele>817.0</ele><time>2026-04-22T16:30:16Z</time></trkpt><trkpt lat="37.03532712721471" lon="-3.6457820745515015"><ele>818.0</ele><time>2026-04-22T16:30:17Z</time></trkpt><trkpt lat="37.035610506819424" lon="-3.645836502007127"><ele>819.0</ele><time>2026-04-22T16:30:18Z</time></trkpt><trkpt lat="37.035895294660904" lon="-3.6458944912254267"><ele>820.0</ele><time>2026-04-22T16:30:19Z</time></trkpt><trkpt lat="37.03617857421966" lon="-3.645960215860387"><ele>820.0</ele><time>2026-04-22T16:30:20Z</time></trkpt><trkpt lat="37.03646197247331" lon="-3.6460284637819833"><ele>820.0</ele><time>2026-04-22T16:30:21Z</time></trkpt><trkpt lat="37.036748499433216" lon="-3.6461042433325144"><ele>823.0</ele><time>2026-04-22T16:30:22Z</time></trkpt><trkpt lat="37.03704002220059" lon="-3.6461834313889807"><ele>826.0</ele><time>2026-04-22T16:30:23Z</time></trkpt><trkpt lat="37.03732615368048" lon="-3.6462754264907296"><ele>824.0</ele><time>2026-04-22T16:30:24Z</time></trkpt><trkpt lat="37.03761151531656" lon="-3.6463717622896055"><ele>822.0</ele><time>2026-04-22T16:30:25Z</time></trkpt><trkpt lat="37.037896937632915" lon="-3.6464692012079336"><ele>822.0</ele><time>2026-04-22T16:30:26Z</time></trkpt><trkpt lat="37.038181296631365" lon="-3.6465779039579527"><ele>822.0</ele><time>2026-04-22T16:30:27Z</time></trkpt><trkpt lat="37.03846255250125" lon="-3.6466847945575114"><ele>824.0</ele><time>2026-04-22T16:30:27.999Z</time></trkpt><trkpt lat="37.038743638810594" lon="-3.6467968799829213"><ele>826.0</ele><time>2026-04-22T16:30:28.999Z</time></trkpt><trkpt lat="37.03902244501342" lon="-3.6469128145785965"><ele>827.0</ele><time>2026-04-22T16:30:29.999Z</time></trkpt><trkpt lat="37.03929945747857" lon="-3.6470385265480267"><ele>828.0</ele><time>2026-04-22T16:30:30.999Z</time></trkpt><trkpt lat="37.03957552005334" lon="-3.647171160995969"><ele>828.0</ele><time>2026-04-22T16:30:31.999Z</time></trkpt><trkpt lat="37.03984740057002" lon="-3.6473074166362816"><ele>828.0</ele><time>2026-04-22T16:30:32.999Z</time></trkpt><trkpt lat="37.04012520184687" lon="-3.647450091277558"><ele>827.5</ele><time>2026-04-22T16:30:33.999Z</time></trkpt><trkpt lat="37.04039782802575" lon="-3.647593481130862"><ele>827.0</ele><time>2026-04-22T16:30:34.999Z</time></trkpt><trkpt lat="37.040670978878104" lon="-3.6477458718564275"><ele>827.0</ele><time>2026-04-22T16:30:35.999Z</time></trkpt><trkpt lat="37.04094024045731" lon="-3.647906917151464"><ele>827.0</ele><time>2026-04-22T16:30:36.999Z</time></trkpt><trkpt lat="37.041212022594664" lon="-3.6480702227569797"><ele>827.0</ele><time>2026-04-22T16:30:37.999Z</time></trkpt><trkpt lat="37.04147796035781" lon="-3.6482429957479723"><ele>827.0</ele><time>2026-04-22T16:30:38.999Z</time></trkpt><trkpt lat="37.04174399096159" lon="-3.64842468016354"><ele>827.5</ele><time>2026-04-22T16:30:39.999Z</time></trkpt><trkpt lat="37.04200803856449" lon="-3.648607689726571"><ele>828.0</ele><time>2026-04-22T16:30:40.999Z</time></trkpt><trkpt lat="37.0422736299827" lon="-3.6487915996434657"><ele>827.5</ele><time>2026-04-22T16:30:41.999Z</time></trkpt><trkpt lat="37.042536827210625" lon="-3.648979215365816"><ele>827.0</ele><time>2026-04-22T16:30:42.999Z</time></trkpt><trkpt lat="37.04280131999678" lon="-3.6491697428356256"><ele>827.0</ele><time>2026-04-22T16:30:43.999Z</time></trkpt><trkpt lat="37.04305997927508" lon="-3.64935976163472"><ele>827.0</ele><time>2026-04-22T16:30:44.999Z</time></trkpt><trkpt lat="37.04332595608821" lon="-3.6495592064977713"><ele>827.5</ele><time>2026-04-22T16:30:45.999Z</time></trkpt><trkpt lat="37.04358957038504" lon="-3.6497626863842014"><ele>828.0</ele><time>2026-04-22T16:30:46.999Z</time></trkpt><trkpt lat="37.043849567780526" lon="-3.64996750800615"><ele>828.0</ele><time>2026-04-22T16:30:47.999Z</time></trkpt><trkpt lat="37.04411121410323" lon="-3.650176397283905"><ele>828.0</ele><time>2026-04-22T16:30:48.999Z</time></trkpt><trkpt lat="37.044372398025985" lon="-3.6503848384941247"><ele>828.0</ele><time>2026-04-22T16:30:50.001Z</time></trkpt><trkpt lat="37.0446345958601" lon="-3.6505918614799753"><ele>828.0</ele><time>2026-04-22T16:30:51.001Z</time></trkpt><trkpt lat="37.04489902953509" lon="-3.6508015603121167"><ele>829.0</ele><time>2026-04-22T16:30:52.001Z</time></trkpt><trkpt lat="37.04516150900684" lon="-3.6510095962272935"><ele>830.0</ele><time>2026-04-22T16:30:53.001Z</time></trkpt><trkpt lat="37.04542857574445" lon="-3.6512147679066635"><ele>830.0</ele><time>2026-04-22T16:30:54.001Z</time></trkpt><trkpt lat="37.045697729462255" lon="-3.6514190342080757"><ele>830.0</ele><time>2026-04-22T16:30:55.001Z</time></trkpt><trkpt lat="37.045966465825586" lon="-3.6516246113840856"><ele>829.5</ele><time>2026-04-22T16:30:56.001Z</time></trkpt><trkpt lat="37.0462338106849" lon="-3.6518275784924565"><ele>829.0</ele><time>2026-04-22T16:30:57.001Z</time></trkpt><trkpt lat="37.046500722132606" lon="-3.6520296923656734"><ele>830.5</ele><time>2026-04-22T16:30:58.001Z</time></trkpt><trkpt lat="37.04676551501043" lon="-3.652232188728582"><ele>832.0</ele><time>2026-04-22T16:30:59.001Z</time></trkpt><trkpt lat="37.047029331081646" lon="-3.6524295090824417"><ele>832.0</ele><time>2026-04-22T16:31:00.001Z</time></trkpt><trkpt lat="37.047296058814496" lon="-3.6526168905943157"><ele>832.0</ele><time>2026-04-22T16:31:01.001Z</time></trkpt><trkpt lat="37.04756446595905" lon="-3.6527982698001984"><ele>832.5</ele><time>2026-04-22T16:31:02.001Z</time></trkpt><trkpt lat="37.04783564649394" lon="-3.6529696421676716"><ele>833.0</ele><time>2026-04-22T16:31:03.001Z</time></trkpt><trkpt lat="37.048117128383495" lon="-3.653143249911246"><ele>830.5</ele><time>2026-04-22T16:31:04.001Z</time></trkpt><trkpt lat="37.048394997523076" lon="-3.6533152221013356"><ele>828.0</ele><time>2026-04-22T16:31:05.001Z</time></trkpt><trkpt lat="37.04868397342669" lon="-3.6534804233256652"><ele>828.5</ele><time>2026-04-22T16:31:06.001Z</time></trkpt><trkpt lat="37.04897506552998" lon="-3.6536402256137843"><ele>829.0</ele><time>2026-04-22T16:31:07.001Z</time></trkpt><trkpt lat="37.04926520743356" lon="-3.653798812349791"><ele>829.0</ele><time>2026-04-22T16:31:08Z</time></trkpt><trkpt lat="37.04955822451125" lon="-3.6539471636442804"><ele>829.0</ele><time>2026-04-22T16:31:09Z</time></trkpt><trkpt lat="37.04985407831917" lon="-3.6540894415529763"><ele>828.5</ele><time>2026-04-22T16:31:10Z</time></trkpt><trkpt lat="37.0501498256048" lon="-3.654230975914053"><ele>828.0</ele><time>2026-04-22T16:31:11Z</time></trkpt><trkpt lat="37.05044311769479" lon="-3.6543636125611627"><ele>829.0</ele><time>2026-04-22T16:31:12Z</time></trkpt><trkpt lat="37.05074170774626" lon="-3.654490046223972"><ele>830.0</ele><time>2026-04-22T16:31:13Z</time></trkpt><trkpt lat="37.05104394115092" lon="-3.6546076014674598"><ele>830.0</ele><time>2026-04-22T16:31:14Z</time></trkpt><trkpt lat="37.05134944171873" lon="-3.654718461643027"><ele>830.0</ele><time>2026-04-22T16:31:15Z</time></trkpt><trkpt lat="37.05165508746289" lon="-3.6548183940450976"><ele>829.5</ele><time>2026-04-22T16:31:16Z</time></trkpt><trkpt lat="37.05196504612036" lon="-3.6549160103481593"><ele>829.0</ele><time>2026-04-22T16:31:17Z</time></trkpt><trkpt lat="37.05227497919089" lon="-3.655002104562718"><ele>826.5</ele><time>2026-04-22T16:31:18Z</time></trkpt><trkpt lat="37.052584477655145" lon="-3.655082188806155"><ele>824.0</ele><time>2026-04-22T16:31:19Z</time></trkpt><trkpt lat="37.052893852493334" lon="-3.655153841927649"><ele>824.0</ele><time>2026-04-22T16:31:20Z</time></trkpt><trkpt lat="37.05320158652894" lon="-3.6552151440835434"><ele>824.0</ele><time>2026-04-22T16:31:21Z</time></trkpt><trkpt lat="37.05348899245447" lon="-3.655254349349105"><ele>825.0</ele><time>2026-04-22T16:31:22Z</time></trkpt><trkpt lat="37.05380390551611" lon="-3.65531665997249"><ele>826.0</ele><time>2026-04-22T16:31:23Z</time></trkpt><trkpt lat="37.054103837213425" lon="-3.6553563731231367"><ele>825.0</ele><time>2026-04-22T16:31:24Z</time></trkpt><trkpt lat="37.054407642792945" lon="-3.655391438683644"><ele>824.0</ele><time>2026-04-22T16:31:25Z</time></trkpt><trkpt lat="37.054709408034256" lon="-3.6554178264366235"><ele>824.0</ele><time>2026-04-22T16:31:26Z</time></trkpt><trkpt lat="37.0550118976422" lon="-3.6554385199113493"><ele>824.0</ele><time>2026-04-22T16:31:27Z</time></trkpt><trkpt lat="37.05531290817718" lon="-3.6554516750442976"><ele>824.0</ele><time>2026-04-22T16:31:28Z</time></trkpt><trkpt lat="37.055616362233195" lon="-3.6554616461829137"><ele>824.0</ele><time>2026-04-22T16:31:29Z</time></trkpt><trkpt lat="37.055917413169475" lon="-3.6554647186366505"><ele>824.0</ele><time>2026-04-22T16:31:30Z</time></trkpt><trkpt lat="37.05621859654363" lon="-3.6554607180901693"><ele>824.0</ele><time>2026-04-22T16:31:31Z</time></trkpt><trkpt lat="37.05651867036691" lon="-3.6554494557863806"><ele>824.5</ele><time>2026-04-22T16:31:32Z</time></trkpt><trkpt lat="37.056817840300276" lon="-3.655434502257328"><ele>825.0</ele><time>2026-04-22T16:31:33Z</time></trkpt><trkpt lat="37.0571168433653" lon="-3.655412375031959"><ele>825.0</ele><time>2026-04-22T16:31:34Z</time></trkpt><trkpt lat="37.05741456905881" lon="-3.655383136416797"><ele>825.0</ele><time>2026-04-22T16:31:35Z</time></trkpt><trkpt lat="37.0577131753166" lon="-3.6553463971217806"><ele>825.5</ele><time>2026-04-22T16:31:36Z</time></trkpt><trkpt lat="37.05800997276563" lon="-3.655309165418528"><ele>826.0</ele><time>2026-04-22T16:31:37Z</time></trkpt><trkpt lat="37.05830475257543" lon="-3.6552614890859285"><ele>827.5</ele><time>2026-04-22T16:31:38Z</time></trkpt><trkpt lat="37.05859747067845" lon="-3.655208346425319"><ele>829.0</ele><time>2026-04-22T16:31:39Z</time></trkpt><trkpt lat="37.058889304890066" lon="-3.6551487326743257"><ele>827.5</ele><time>2026-04-22T16:31:40Z</time></trkpt><trkpt lat="37.05917987515623" lon="-3.6550841659678897"><ele>826.0</ele><time>2026-04-22T16:31:41Z</time></trkpt><trkpt lat="37.05947117522533" lon="-3.6550135718021846"><ele>826.0</ele><time>2026-04-22T16:31:42Z</time></trkpt><trkpt lat="37.059755294985116" lon="-3.65493964195062"><ele>826.0</ele><time>2026-04-22T16:31:43Z</time></trkpt><trkpt lat="37.0600410503515" lon="-3.6548549562452135"><ele>825.0</ele><time>2026-04-22T16:31:44Z</time></trkpt><trkpt lat="37.06032005684493" lon="-3.654768540928482"><ele>824.0</ele><time>2026-04-22T16:31:45Z</time></trkpt><trkpt lat="37.060599311815544" lon="-3.654672171221182"><ele>825.0</ele><time>2026-04-22T16:31:46Z</time></trkpt><trkpt lat="37.06087354059726" lon="-3.654569102086716"><ele>826.0</ele><time>2026-04-22T16:31:47Z</time></trkpt><trkpt lat="37.061146029875715" lon="-3.6544577555513382"><ele>827.0</ele><time>2026-04-22T16:31:48Z</time></trkpt><trkpt lat="37.06141517789577" lon="-3.6543461730974114"><ele>828.0</ele><time>2026-04-22T16:31:49Z</time></trkpt><trkpt lat="37.06168500311918" lon="-3.6542340218871763"><ele>829.5</ele><time>2026-04-22T16:31:50Z</time></trkpt><trkpt lat="37.06195524755898" lon="-3.65411931444818"><ele>831.0</ele><time>2026-04-22T16:31:51Z</time></trkpt><trkpt lat="37.06222502699011" lon="-3.654003575070352"><ele>829.5</ele><time>2026-04-22T16:31:52Z</time></trkpt><trkpt lat="37.062494586642366" lon="-3.653888131635993"><ele>828.0</ele><time>2026-04-22T16:31:53Z</time></trkpt><trkpt lat="37.06275814780492" lon="-3.6537743327305994"><ele>828.0</ele><time>2026-04-22T16:31:54Z</time></trkpt><trkpt lat="37.063015087502194" lon="-3.653662417204736"><ele>828.0</ele><time>2026-04-22T16:31:55Z</time></trkpt><trkpt lat="37.063270314860674" lon="-3.653551962040397"><ele>829.0</ele><time>2026-04-22T16:31:56Z</time></trkpt><trkpt lat="37.06352442764302" lon="-3.653435801883873"><ele>830.0</ele><time>2026-04-22T16:31:57Z</time></trkpt><trkpt lat="37.06377700566696" lon="-3.6533150305187014"><ele>830.0</ele><time>2026-04-22T16:31:58Z</time></trkpt><trkpt lat="37.064034337768355" lon="-3.653195184961005"><ele>830.0</ele><time>2026-04-22T16:31:59Z</time></trkpt><trkpt lat="37.06429283510195" lon="-3.653071713444356"><ele>831.5</ele><time>2026-04-22T16:32:00Z</time></trkpt><trkpt lat="37.06454956392543" lon="-3.6529514239010146"><ele>833.0</ele><time>2026-04-22T16:32:01Z</time></trkpt><trkpt lat="37.06480860254581" lon="-3.6528250215814047"><ele>835.5</ele><time>2026-04-22T16:32:02Z</time></trkpt><trkpt lat="37.06506659595797" lon="-3.6526959174302416"><ele>838.0</ele><time>2026-04-22T16:32:03Z</time></trkpt><trkpt lat="37.065326445205166" lon="-3.6525647496327567"><ele>838.0</ele><time>2026-04-22T16:32:04Z</time></trkpt><trkpt lat="37.06557841734025" lon="-3.6524333203271016"><ele>838.0</ele><time>2026-04-22T16:32:05Z</time></trkpt><trkpt lat="37.065842493320716" lon="-3.6522950998225974"><ele>837.5</ele><time>2026-04-22T16:32:06Z</time></trkpt><trkpt lat="37.066113473433894" lon="-3.652174208481228"><ele>837.0</ele><time>2026-04-22T16:32:07Z</time></trkpt><trkpt lat="37.06637817307178" lon="-3.6520470159614224"><ele>839.0</ele><time>2026-04-22T16:32:08Z</time></trkpt><trkpt lat="37.06664696561141" lon="-3.651920536124409"><ele>841.0</ele><time>2026-04-22T16:32:09Z</time></trkpt><trkpt lat="37.06691681554537" lon="-3.651793646187855"><ele>841.0</ele><time>2026-04-22T16:32:10Z</time></trkpt><trkpt lat="37.06718714773374" lon="-3.65166710046845"><ele>841.0</ele><time>2026-04-22T16:32:11Z</time></trkpt><trkpt lat="37.067455603834375" lon="-3.651539276777122"><ele>839.5</ele><time>2026-04-22T16:32:12Z</time></trkpt><trkpt lat="37.06772738548018" lon="-3.6514105166084954"><ele>838.0</ele><time>2026-04-22T16:32:13Z</time></trkpt><trkpt lat="37.06799813019364" lon="-3.651278595434364"><ele>838.0</ele><time>2026-04-22T16:32:14Z</time></trkpt><trkpt lat="37.06827035219642" lon="-3.6511495879687916"><ele>838.0</ele><time>2026-04-22T16:32:15Z</time></trkpt><trkpt lat="37.068548543957775" lon="-3.6510206107157384"><ele>840.0</ele><time>2026-04-22T16:32:16Z</time></trkpt><trkpt lat="37.06882930963866" lon="-3.650894710058676"><ele>842.0</ele><time>2026-04-22T16:32:17Z</time></trkpt><trkpt lat="37.06910355664571" lon="-3.6507653455300373"><ele>839.0</ele><time>2026-04-22T16:32:18Z</time></trkpt><trkpt lat="37.06938992619331" lon="-3.6506421392414095"><ele>836.0</ele><time>2026-04-22T16:32:19Z</time></trkpt><trkpt lat="37.06966869326492" lon="-3.6505174449494184"><ele>834.5</ele><time>2026-04-22T16:32:20Z</time></trkpt><trkpt lat="37.06995270249035" lon="-3.650394706838882"><ele>833.0</ele><time>2026-04-22T16:32:21Z</time></trkpt><trkpt lat="37.07023891696318" lon="-3.6502695196062076"><ele>833.0</ele><time>2026-04-22T16:32:22Z</time></trkpt><trkpt lat="37.07052482701336" lon="-3.650153213014463"><ele>833.0</ele><time>2026-04-22T16:32:23Z</time></trkpt><trkpt lat="37.07080763388622" lon="-3.6500357446323863"><ele>831.5</ele><time>2026-04-22T16:32:24Z</time></trkpt><trkpt lat="37.07109125115412" lon="-3.6499215047830416"><ele>830.0</ele><time>2026-04-22T16:32:25Z</time></trkpt><trkpt lat="37.07137504273938" lon="-3.6498070377469967"><ele>828.5</ele><time>2026-04-22T16:32:26Z</time></trkpt><trkpt lat="37.07166203866006" lon="-3.649699866363696"><ele>827.0</ele><time>2026-04-22T16:32:27Z</time></trkpt><trkpt lat="37.07195060305719" lon="-3.6495941138809256"><ele>827.0</ele><time>2026-04-22T16:32:28Z</time></trkpt><trkpt lat="37.07223938243123" lon="-3.649491566354516"><ele>827.0</ele><time>2026-04-22T16:32:29Z</time></trkpt><trkpt lat="37.072520500821824" lon="-3.6493880599772988"><ele>824.5</ele><time>2026-04-22T16:32:30Z</time></trkpt><trkpt lat="37.0728040580998" lon="-3.649288239578633"><ele>822.0</ele><time>2026-04-22T16:32:31Z</time></trkpt><trkpt lat="37.0730879429209" lon="-3.6491914164016035"><ele>819.0</ele><time>2026-04-22T16:32:32Z</time></trkpt><trkpt lat="37.0733722369786" lon="-3.649098406339982"><ele>816.0</ele><time>2026-04-22T16:32:33Z</time></trkpt><trkpt lat="37.07365387877451" lon="-3.6490075027591153"><ele>816.0</ele><time>2026-04-22T16:32:33.999Z</time></trkpt><trkpt lat="37.07393923799058" lon="-3.64892028527943"><ele>816.0</ele><time>2026-04-22T16:32:34.999Z</time></trkpt><trkpt lat="37.07422521342693" lon="-3.6488349174691725"><ele>815.0</ele><time>2026-04-22T16:32:35.999Z</time></trkpt><trkpt lat="37.07450842921379" lon="-3.6487552832173686"><ele>814.0</ele><time>2026-04-22T16:32:36.999Z</time></trkpt><trkpt lat="37.074794797292704" lon="-3.648676163347683"><ele>812.0</ele><time>2026-04-22T16:32:37.999Z</time></trkpt><trkpt lat="37.07507208528806" lon="-3.648607596127691"><ele>810.0</ele><time>2026-04-22T16:32:38.999Z</time></trkpt><trkpt lat="37.07534587558161" lon="-3.6485423902362757"><ele>810.0</ele><time>2026-04-22T16:32:39.999Z</time></trkpt><trkpt lat="37.075620291796454" lon="-3.6484776765632345"><ele>810.0</ele><time>2026-04-22T16:32:40.999Z</time></trkpt><trkpt lat="37.07589725242805" lon="-3.6484152856799055"><ele>808.0</ele><time>2026-04-22T16:32:41.999Z</time></trkpt><trkpt lat="37.07617491460656" lon="-3.6483524693305043"><ele>806.0</ele><time>2026-04-22T16:32:42.999Z</time></trkpt><trkpt lat="37.07645411692794" lon="-3.6482970410150535"><ele>802.0</ele><time>2026-04-22T16:32:43.999Z</time></trkpt><trkpt lat="37.07673434845292" lon="-3.648244257118951"><ele>798.0</ele><time>2026-04-22T16:32:44.999Z</time></trkpt><trkpt lat="37.07701532370132" lon="-3.6481911203785615"><ele>798.0</ele><time>2026-04-22T16:32:45.999Z</time></trkpt><trkpt lat="37.07729536586055" lon="-3.6481465316799655"><ele>798.0</ele><time>2026-04-22T16:32:46.999Z</time></trkpt><trkpt lat="37.07756959902314" lon="-3.648107005065827"><ele>796.0</ele><time>2026-04-22T16:32:47.999Z</time></trkpt><trkpt lat="37.077841542156406" lon="-3.648069641172732"><ele>794.0</ele><time>2026-04-22T16:32:48.999Z</time></trkpt><trkpt lat="37.07810248676212" lon="-3.648033476121944"><ele>793.0</ele><time>2026-04-22T16:32:49.999Z</time></trkpt><trkpt lat="37.07836625473697" lon="-3.6480050801851105"><ele>792.0</ele><time>2026-04-22T16:32:50.999Z</time></trkpt><trkpt lat="37.07863606216344" lon="-3.647975625607774"><ele>792.0</ele><time>2026-04-22T16:32:51.999Z</time></trkpt><trkpt lat="37.07890873356226" lon="-3.647945319008055"><ele>792.0</ele><time>2026-04-22T16:32:52.999Z</time></trkpt><trkpt lat="37.07918723185734" lon="-3.647917936486922"><ele>790.5</ele><time>2026-04-22T16:32:53.999Z</time></trkpt><trkpt lat="37.07946302745922" lon="-3.6478902020315225"><ele>789.0</ele><time>2026-04-22T16:32:54.999Z</time></trkpt><trkpt lat="37.079746189139335" lon="-3.6478671274481647"><ele>787.0</ele><time>2026-04-22T16:32:56.001Z</time></trkpt><trkpt lat="37.080008021369736" lon="-3.6478475036113065"><ele>785.0</ele><time>2026-04-22T16:32:57.001Z</time></trkpt><trkpt lat="37.08028979814306" lon="-3.6478346513157898"><ele>785.0</ele><time>2026-04-22T16:32:58.001Z</time></trkpt><trkpt lat="37.0805717475619" lon="-3.647823280193746"><ele>785.0</ele><time>2026-04-22T16:32:59.001Z</time></trkpt><trkpt lat="37.08085399826094" lon="-3.6478210276495857"><ele>785.0</ele><time>2026-04-22T16:33:00.001Z</time></trkpt><trkpt lat="37.08113961181979" lon="-3.647824099427089"><ele>785.0</ele><time>2026-04-22T16:33:01.001Z</time></trkpt><trkpt lat="37.081424595569615" lon="-3.6478235454545507"><ele>785.0</ele><time>2026-04-22T16:33:02.001Z</time></trkpt><trkpt lat="37.08171306825893" lon="-3.6478244786523146"><ele>785.0</ele><time>2026-04-22T16:33:03.001Z</time></trkpt><trkpt lat="37.08200808224648" lon="-3.64783151145656"><ele>785.0</ele><time>2026-04-22T16:33:04.001Z</time></trkpt><trkpt lat="37.08229957532084" lon="-3.6478411825401933"><ele>785.0</ele><time>2026-04-22T16:33:05.001Z</time></trkpt><trkpt lat="37.08259166657391" lon="-3.6478546810292016"><ele>782.0</ele><time>2026-04-22T16:33:06.001Z</time></trkpt><trkpt lat="37.082885469378944" lon="-3.6478708561810236"><ele>779.0</ele><time>2026-04-22T16:33:07.001Z</time></trkpt><trkpt lat="37.083181401993606" lon="-3.647886689716683"><ele>775.5</ele><time>2026-04-22T16:33:08.001Z</time></trkpt><trkpt lat="37.08347797692327" lon="-3.6479077209432003"><ele>772.0</ele><time>2026-04-22T16:33:09.001Z</time></trkpt><trkpt lat="37.083773746601814" lon="-3.647935318921682"><ele>772.0</ele><time>2026-04-22T16:33:10.001Z</time></trkpt><trkpt lat="37.08406133580435" lon="-3.6479575946051774"><ele>772.0</ele><time>2026-04-22T16:33:11.001Z</time></trkpt><trkpt lat="37.08433977622158" lon="-3.6479836673287966"><ele>770.0</ele><time>2026-04-22T16:33:12.001Z</time></trkpt><trkpt lat="37.084621375106366" lon="-3.648009533499112"><ele>768.0</ele><time>2026-04-22T16:33:13.001Z</time></trkpt><trkpt lat="37.08490702887293" lon="-3.6480420310431114"><ele>767.0</ele><time>2026-04-22T16:33:14.001Z</time></trkpt><trkpt lat="37.08519519862389" lon="-3.648071813736303"><ele>766.0</ele><time>2026-04-22T16:33:15.001Z</time></trkpt><trkpt lat="37.08548290343884" lon="-3.648097694847589"><ele>765.5</ele><time>2026-04-22T16:33:16Z</time></trkpt><trkpt lat="37.085771678516096" lon="-3.648124821079352"><ele>765.0</ele><time>2026-04-22T16:33:17Z</time></trkpt><trkpt lat="37.08607469550397" lon="-3.6481532485976973"><ele>765.0</ele><time>2026-04-22T16:33:18Z</time></trkpt><trkpt lat="37.08635278228404" lon="-3.648194467682194"><ele>765.0</ele><time>2026-04-22T16:33:19Z</time></trkpt><trkpt lat="37.086639701233985" lon="-3.648226149034194"><ele>764.0</ele><time>2026-04-22T16:33:20Z</time></trkpt><trkpt lat="37.086933934800165" lon="-3.648254511273556"><ele>763.0</ele><time>2026-04-22T16:33:21Z</time></trkpt><trkpt lat="37.08722245250337" lon="-3.648288348309489"><ele>761.0</ele><time>2026-04-22T16:33:22Z</time></trkpt><trkpt lat="37.08751737064914" lon="-3.6483274418129144"><ele>759.0</ele><time>2026-04-22T16:33:23Z</time></trkpt><trkpt lat="37.08781010243541" lon="-3.6483646994263146"><ele>759.0</ele><time>2026-04-22T16:33:24Z</time></trkpt><trkpt lat="37.08810440740417" lon="-3.648397604435782"><ele>759.0</ele><time>2026-04-22T16:33:25Z</time></trkpt><trkpt lat="37.088400468889574" lon="-3.64842036165287"><ele>759.5</ele><time>2026-04-22T16:33:26Z</time></trkpt><trkpt lat="37.08869792011652" lon="-3.648434727783735"><ele>760.0</ele><time>2026-04-22T16:33:27Z</time></trkpt><trkpt lat="37.08899517782613" lon="-3.6484380532698344"><ele>761.0</ele><time>2026-04-22T16:33:28Z</time></trkpt><trkpt lat="37.08929018468581" lon="-3.6484336786207967"><ele>762.0</ele><time>2026-04-22T16:33:29Z</time></trkpt><trkpt lat="37.089583924766124" lon="-3.648425008241414"><ele>762.0</ele><time>2026-04-22T16:33:30Z</time></trkpt><trkpt lat="37.08988215611891" lon="-3.6484078552419215"><ele>762.0</ele><time>2026-04-22T16:33:31Z</time></trkpt><trkpt lat="37.09017910411623" lon="-3.6483818767952156"><ele>762.0</ele><time>2026-04-22T16:33:32Z</time></trkpt><trkpt lat="37.09046540884689" lon="-3.6483506420901093"><ele>762.0</ele><time>2026-04-22T16:33:33Z</time></trkpt><trkpt lat="37.0907462461675" lon="-3.648315861768812"><ele>763.5</ele><time>2026-04-22T16:33:34Z</time></trkpt><trkpt lat="37.09103030785113" lon="-3.648275478341488"><ele>765.0</ele><time>2026-04-22T16:33:35Z</time></trkpt><trkpt lat="37.09131363074269" lon="-3.648227878876715"><ele>765.0</ele><time>2026-04-22T16:33:36Z</time></trkpt><trkpt lat="37.091596610027494" lon="-3.648173367738172"><ele>765.0</ele><time>2026-04-22T16:33:37Z</time></trkpt><trkpt lat="37.09188237134897" lon="-3.648111829947809"><ele>765.0</ele><time>2026-04-22T16:33:38Z</time></trkpt><trkpt lat="37.092168271526226" lon="-3.648042830888295"><ele>765.0</ele><time>2026-04-22T16:33:39Z</time></trkpt><trkpt lat="37.09245839980128" lon="-3.6479658967430235"><ele>762.0</ele><time>2026-04-22T16:33:40Z</time></trkpt><trkpt lat="37.092750484741636" lon="-3.647881263508686"><ele>759.0</ele><time>2026-04-22T16:33:41Z</time></trkpt><trkpt lat="37.093040628201145" lon="-3.647792999353812"><ele>754.0</ele><time>2026-04-22T16:33:42Z</time></trkpt><trkpt lat="37.09333118241455" lon="-3.647694036627994"><ele>749.0</ele><time>2026-04-22T16:33:43Z</time></trkpt><trkpt lat="37.09361945192415" lon="-3.647587091888285"><ele>749.0</ele><time>2026-04-22T16:33:44Z</time></trkpt><trkpt lat="37.09390184072214" lon="-3.647475158419822"><ele>749.0</ele><time>2026-04-22T16:33:45Z</time></trkpt><trkpt lat="37.09417645137845" lon="-3.6473506035333845"><ele>749.0</ele><time>2026-04-22T16:33:46Z</time></trkpt><trkpt lat="37.094450935239045" lon="-3.6472234237578904"><ele>749.0</ele><time>2026-04-22T16:33:47Z</time></trkpt><trkpt lat="37.09471916350904" lon="-3.647089672057796"><ele>750.0</ele><time>2026-04-22T16:33:48Z</time></trkpt><trkpt lat="37.09498147925" lon="-3.646950678807653"><ele>751.0</ele><time>2026-04-22T16:33:49Z</time></trkpt><trkpt lat="37.09523642025521" lon="-3.64680907368337"><ele>751.0</ele><time>2026-04-22T16:33:50Z</time></trkpt><trkpt lat="37.09548221608387" lon="-3.6466679959821344"><ele>751.0</ele><time>2026-04-22T16:33:51Z</time></trkpt><trkpt lat="37.09572850028925" lon="-3.646523530273324"><ele>751.5</ele><time>2026-04-22T16:33:52Z</time></trkpt><trkpt lat="37.095974262271994" lon="-3.64637619512614"><ele>752.0</ele><time>2026-04-22T16:33:53Z</time></trkpt><trkpt lat="37.09621565227981" lon="-3.646224429683008"><ele>751.5</ele><time>2026-04-22T16:33:54Z</time></trkpt><trkpt lat="37.09645861884068" lon="-3.646066857077836"><ele>751.0</ele><time>2026-04-22T16:33:55Z</time></trkpt><trkpt lat="37.09670052232197" lon="-3.645902825017458"><ele>751.0</ele><time>2026-04-22T16:33:56Z</time></trkpt><trkpt lat="37.096944063102775" lon="-3.6457322405857373"><ele>751.0</ele><time>2026-04-22T16:33:57Z</time></trkpt><trkpt lat="37.09718467971477" lon="-3.6455502310764136"><ele>751.0</ele><time>2026-04-22T16:33:58Z</time></trkpt><trkpt lat="37.09741617672971" lon="-3.6453620626056247"><ele>751.0</ele><time>2026-04-22T16:33:59Z</time></trkpt><trkpt lat="37.097661442705075" lon="-3.645172956404756"><ele>748.0</ele><time>2026-04-22T16:34:00Z</time></trkpt><trkpt lat="37.09789815256771" lon="-3.6449758405006607"><ele>745.0</ele><time>2026-04-22T16:34:01Z</time></trkpt><trkpt lat="37.09813159975994" lon="-3.644773182235162"><ele>744.0</ele><time>2026-04-22T16:34:02Z</time></trkpt><trkpt lat="37.098359173215144" lon="-3.644568470283201"><ele>743.0</ele><time>2026-04-22T16:34:03Z</time></trkpt><trkpt lat="37.098582516357496" lon="-3.6443557321686537"><ele>743.0</ele><time>2026-04-22T16:34:04Z</time></trkpt><trkpt lat="37.09880295832866" lon="-3.6441383270666248"><ele>743.0</ele><time>2026-04-22T16:34:05Z</time></trkpt><trkpt lat="37.09901696686364" lon="-3.6439203162667155"><ele>741.0</ele><time>2026-04-22T16:34:06Z</time></trkpt><trkpt lat="37.099232312364265" lon="-3.6436998513675642"><ele>739.0</ele><time>2026-04-22T16:34:07Z</time></trkpt><trkpt lat="37.09944626236535" lon="-3.6434786553621272"><ele>739.0</ele><time>2026-04-22T16:34:08Z</time></trkpt><trkpt lat="37.09965951619445" lon="-3.6432549138503925"><ele>739.0</ele><time>2026-04-22T16:34:09Z</time></trkpt><trkpt lat="37.09987085843721" lon="-3.6430333509248416"><ele>739.0</ele><time>2026-04-22T16:34:10Z</time></trkpt><trkpt lat="37.10008789091384" lon="-3.642814103870144"><ele>739.0</ele><time>2026-04-22T16:34:11Z</time></trkpt><trkpt lat="37.10030487321113" lon="-3.6425934495725336"><ele>739.0</ele><time>2026-04-22T16:34:12Z</time></trkpt><trkpt lat="37.10051824114476" lon="-3.6423735116816207"><ele>739.0</ele><time>2026-04-22T16:34:13Z</time></trkpt><trkpt lat="37.100733421276594" lon="-3.6421503784069746"><ele>739.5</ele><time>2026-04-22T16:34:14Z</time></trkpt><trkpt lat="37.10094666958874" lon="-3.6419339783088804"><ele>740.0</ele><time>2026-04-22T16:34:15Z</time></trkpt><trkpt lat="37.10115590911839" lon="-3.6417163718562415"><ele>740.0</ele><time>2026-04-22T16:34:16Z</time></trkpt><trkpt lat="37.10136384211973" lon="-3.641501872364615"><ele>740.0</ele><time>2026-04-22T16:34:17Z</time></trkpt><trkpt lat="37.1015679981268" lon="-3.641291692527672"><ele>742.5</ele><time>2026-04-22T16:34:18Z</time></trkpt><trkpt lat="37.10177421458936" lon="-3.6410833489402896"><ele>745.0</ele><time>2026-04-22T16:34:19Z</time></trkpt><trkpt lat="37.10197816929539" lon="-3.640876102260035"><ele>745.0</ele><time>2026-04-22T16:34:20Z</time></trkpt><trkpt lat="37.102183273295005" lon="-3.6406668356251015"><ele>745.0</ele><time>2026-04-22T16:34:21Z</time></trkpt><trkpt lat="37.102390667395476" lon="-3.64045446722564"><ele>745.5</ele><time>2026-04-22T16:34:22Z</time></trkpt><trkpt lat="37.10260076181685" lon="-3.6402336699668103"><ele>746.0</ele><time>2026-04-22T16:34:23Z</time></trkpt><trkpt lat="37.10281447137703" lon="-3.64001467849108"><ele>746.0</ele><time>2026-04-22T16:34:24Z</time></trkpt><trkpt lat="37.10302821925879" lon="-3.639796687933748"><ele>746.0</ele><time>2026-04-22T16:34:25Z</time></trkpt><trkpt lat="37.103241394615274" lon="-3.639580166850885"><ele>746.0</ele><time>2026-04-22T16:34:26Z</time></trkpt><trkpt lat="37.10345334135894" lon="-3.639365525618581"><ele>746.0</ele><time>2026-04-22T16:34:27Z</time></trkpt><trkpt lat="37.1036631359506" lon="-3.639147985058433"><ele>746.0</ele><time>2026-04-22T16:34:28Z</time></trkpt><trkpt lat="37.10386781814315" lon="-3.6389313932327965"><ele>746.0</ele><time>2026-04-22T16:34:29Z</time></trkpt><trkpt lat="37.10407201703464" lon="-3.638721860032243"><ele>746.5</ele><time>2026-04-22T16:34:29.999Z</time></trkpt><trkpt lat="37.10427228639444" lon="-3.6385145684911087"><ele>747.0</ele><time>2026-04-22T16:34:30.999Z</time></trkpt><trkpt lat="37.104474764805495" lon="-3.6383131602935306"><ele>747.0</ele><time>2026-04-22T16:34:31.999Z</time></trkpt><trkpt lat="37.104674427950734" lon="-3.6381112229211503"><ele>747.0</ele><time>2026-04-22T16:34:32.999Z</time></trkpt><trkpt lat="37.10487770480091" lon="-3.63790203149472"><ele>745.5</ele><time>2026-04-22T16:34:33.999Z</time></trkpt><trkpt lat="37.10508297652503" lon="-3.6376955105498663"><ele>744.0</ele><time>2026-04-22T16:34:34.999Z</time></trkpt><trkpt lat="37.105284207536236" lon="-3.6374976469925637"><ele>744.0</ele><time>2026-04-22T16:34:35.999Z</time></trkpt><trkpt lat="37.10549111462435" lon="-3.6372878624889897"><ele>744.0</ele><time>2026-04-22T16:34:36.999Z</time></trkpt><trkpt lat="37.105689504212165" lon="-3.6370758518793327"><ele>743.5</ele><time>2026-04-22T16:34:37.999Z</time></trkpt><trkpt lat="37.10589301879935" lon="-3.636865927968611"><ele>743.0</ele><time>2026-04-22T16:34:38.999Z</time></trkpt><trkpt lat="37.10610034005219" lon="-3.6366568579811935"><ele>743.0</ele><time>2026-04-22T16:34:39.999Z</time></trkpt><trkpt lat="37.10630307314948" lon="-3.63645277790887"><ele>743.0</ele><time>2026-04-22T16:34:40.999Z</time></trkpt><trkpt lat="37.10650187315512" lon="-3.636247724334668"><ele>740.5</ele><time>2026-04-22T16:34:41.999Z</time></trkpt><trkpt lat="37.106702869261056" lon="-3.6360383758593233"><ele>738.0</ele><time>2026-04-22T16:34:42.999Z</time></trkpt><trkpt lat="37.10690670436843" lon="-3.6358294123187687"><ele>738.0</ele><time>2026-04-22T16:34:43.999Z</time></trkpt><trkpt lat="37.107115143371736" lon="-3.635614446319575"><ele>738.0</ele><time>2026-04-22T16:34:44.999Z</time></trkpt><trkpt lat="37.107330911748114" lon="-3.635387574475733"><ele>739.0</ele><time>2026-04-22T16:34:45.999Z</time></trkpt><trkpt lat="37.10755368203671" lon="-3.6351515707811797"><ele>740.0</ele><time>2026-04-22T16:34:46.999Z</time></trkpt><trkpt lat="37.1077730422761" lon="-3.6349228815478245"><ele>740.0</ele><time>2026-04-22T16:34:47.999Z</time></trkpt><trkpt lat="37.107993090941015" lon="-3.6346992706071557"><ele>740.0</ele><time>2026-04-22T16:34:48.999Z</time></trkpt><trkpt lat="37.108213183488054" lon="-3.6344763112438194"><ele>738.0</ele><time>2026-04-22T16:34:49.999Z</time></trkpt><trkpt lat="37.108427695289315" lon="-3.6342522447351318"><ele>736.0</ele><time>2026-04-22T16:34:50.999Z</time></trkpt><trkpt lat="37.10864332527572" lon="-3.6340226525274537"><ele>736.0</ele><time>2026-04-22T16:34:51.999Z</time></trkpt><trkpt lat="37.10885344038234" lon="-3.6337920951114215"><ele>736.0</ele><time>2026-04-22T16:34:52.999Z</time></trkpt><trkpt lat="37.10906225916634" lon="-3.633558230285182"><ele>736.5</ele><time>2026-04-22T16:34:53.999Z</time></trkpt><trkpt lat="37.109271400432085" lon="-3.633329005847807"><ele>737.0</ele><time>2026-04-22T16:34:54.999Z</time></trkpt><trkpt lat="37.109479344137846" lon="-3.6330947502634228"><ele>737.0</ele><time>2026-04-22T16:34:55.999Z</time></trkpt><trkpt lat="37.109683640371316" lon="-3.6328605123131212"><ele>737.0</ele><time>2026-04-22T16:34:56.999Z</time></trkpt><trkpt lat="37.10989362527589" lon="-3.632622181336102"><ele>736.5</ele><time>2026-04-22T16:34:57.999Z</time></trkpt><trkpt lat="37.11009931289631" lon="-3.6323880340824335"><ele>736.0</ele><time>2026-04-22T16:34:58.999Z</time></trkpt><trkpt lat="37.11030742209006" lon="-3.6321440625104637"><ele>736.0</ele><time>2026-04-22T16:34:59.999Z</time></trkpt><trkpt lat="37.110511300835405" lon="-3.631901067780249"><ele>736.0</ele><time>2026-04-22T16:35:00.999Z</time></trkpt><trkpt lat="37.11071279636343" lon="-3.631662740093313"><ele>736.5</ele><time>2026-04-22T16:35:02.001Z</time></trkpt><trkpt lat="37.110918093694764" lon="-3.6314170747594035"><ele>737.0</ele><time>2026-04-22T16:35:03.001Z</time></trkpt><trkpt lat="37.11111999845204" lon="-3.6311701767854907"><ele>735.5</ele><time>2026-04-22T16:35:04.001Z</time></trkpt><trkpt lat="37.111323442761815" lon="-3.6309253070918235"><ele>734.0</ele><time>2026-04-22T16:35:05.001Z</time></trkpt><trkpt lat="37.11152428473561" lon="-3.6306750103575784"><ele>733.5</ele><time>2026-04-22T16:35:06.001Z</time></trkpt><trkpt lat="37.11172565285434" lon="-3.6304284146679002"><ele>733.0</ele><time>2026-04-22T16:35:07.001Z</time></trkpt><trkpt lat="37.11192057853448" lon="-3.6301767541204"><ele>734.0</ele><time>2026-04-22T16:35:08.001Z</time></trkpt><trkpt lat="37.1121011280534" lon="-3.6299345500145175"><ele>735.0</ele><time>2026-04-22T16:35:09.001Z</time></trkpt><trkpt lat="37.11228539384897" lon="-3.629694324466072"><ele>734.0</ele><time>2026-04-22T16:35:10.001Z</time></trkpt><trkpt lat="37.112466770699825" lon="-3.629448503981973"><ele>733.0</ele><time>2026-04-22T16:35:11.001Z</time></trkpt><trkpt lat="37.11264917416839" lon="-3.629209927890584"><ele>733.0</ele><time>2026-04-22T16:35:12.001Z</time></trkpt><trkpt lat="37.11283173192417" lon="-3.628976517274223"><ele>733.0</ele><time>2026-04-22T16:35:13Z</time></trkpt><trkpt lat="37.11301170735252" lon="-3.6287444894524876"><ele>731.0</ele><time>2026-04-22T16:35:14Z</time></trkpt><trkpt lat="37.11319697251784" lon="-3.6285021991969058"><ele>729.0</ele><time>2026-04-22T16:35:15Z</time></trkpt><trkpt lat="37.11338035610394" lon="-3.628263740507008"><ele>728.5</ele><time>2026-04-22T16:35:16Z</time></trkpt><trkpt lat="37.11356235453845" lon="-3.6280296606416647"><ele>728.0</ele><time>2026-04-22T16:35:17Z</time></trkpt><trkpt lat="37.11374569544575" lon="-3.627789213010376"><ele>728.0</ele><time>2026-04-22T16:35:18Z</time></trkpt><trkpt lat="37.11392979942596" lon="-3.627551019986962"><ele>728.0</ele><time>2026-04-22T16:35:19Z</time></trkpt><trkpt lat="37.11411592674648" lon="-3.6273114737014254"><ele>728.0</ele><time>2026-04-22T16:35:20Z</time></trkpt><trkpt lat="37.11430240468782" lon="-3.6270669275222023"><ele>728.0</ele><time>2026-04-22T16:35:21Z</time></trkpt><trkpt lat="37.11448958377433" lon="-3.6268281688356874"><ele>728.0</ele><time>2026-04-22T16:35:22Z</time></trkpt><trkpt lat="37.11467875513926" lon="-3.6265862032281206"><ele>728.0</ele><time>2026-04-22T16:35:23Z</time></trkpt><trkpt lat="37.11486433678988" lon="-3.6263470734551526"><ele>728.5</ele><time>2026-04-22T16:35:24Z</time></trkpt><trkpt lat="37.115051792336374" lon="-3.626104195603568"><ele>729.0</ele><time>2026-04-22T16:35:25Z</time></trkpt><trkpt lat="37.11523827205432" lon="-3.625858788604817"><ele>729.0</ele><time>2026-04-22T16:35:26Z</time></trkpt><trkpt lat="37.1154261583508" lon="-3.6256145053142035"><ele>729.0</ele><time>2026-04-22T16:35:27Z</time></trkpt><trkpt lat="37.11561888008119" lon="-3.6253724149754314"><ele>731.0</ele><time>2026-04-22T16:35:28Z</time></trkpt><trkpt lat="37.1158066877191" lon="-3.6251296774193253"><ele>733.0</ele><time>2026-04-22T16:35:29Z</time></trkpt><trkpt lat="37.11599316308158" lon="-3.6248929264317"><ele>733.0</ele><time>2026-04-22T16:35:30Z</time></trkpt><trkpt lat="37.11618082349368" lon="-3.6246525335424806"><ele>733.0</ele><time>2026-04-22T16:35:31Z</time></trkpt><trkpt lat="37.11636364701497" lon="-3.6244172503066348"><ele>735.5</ele><time>2026-04-22T16:35:32Z</time></trkpt><trkpt lat="37.116543130727514" lon="-3.6241842161985303"><ele>738.0</ele><time>2026-04-22T16:35:33Z</time></trkpt><trkpt lat="37.116728310473455" lon="-3.6239455882959724"><ele>738.0</ele><time>2026-04-22T16:35:34Z</time></trkpt><trkpt lat="37.116909846175915" lon="-3.6237086388154127"><ele>738.0</ele><time>2026-04-22T16:35:35Z</time></trkpt><trkpt lat="37.11709216977322" lon="-3.623469096720156"><ele>738.5</ele><time>2026-04-22T16:35:36Z</time></trkpt><trkpt lat="37.11727889564052" lon="-3.6232292049627675"><ele>739.0</ele><time>2026-04-22T16:35:37Z</time></trkpt><trkpt lat="37.11746668508251" lon="-3.6229935203176376"><ele>738.5</ele><time>2026-04-22T16:35:38Z</time></trkpt><trkpt lat="37.117644202298415" lon="-3.622748378945769"><ele>738.0</ele><time>2026-04-22T16:35:39Z</time></trkpt><trkpt lat="37.117845144584244" lon="-3.622511308634562"><ele>738.0</ele><time>2026-04-22T16:35:40Z</time></trkpt><trkpt lat="37.11803487026494" lon="-3.6222695528985462"><ele>738.0</ele><time>2026-04-22T16:35:41Z</time></trkpt><trkpt lat="37.11822213735455" lon="-3.6220219485885563"><ele>736.0</ele><time>2026-04-22T16:35:42Z</time></trkpt><trkpt lat="37.11840938923989" lon="-3.621778438592379"><ele>734.0</ele><time>2026-04-22T16:35:43Z</time></trkpt><trkpt lat="37.118600077109605" lon="-3.621534297418555"><ele>734.0</ele><time>2026-04-22T16:35:44Z</time></trkpt><trkpt lat="37.118790308907755" lon="-3.6212959493085797"><ele>734.0</ele><time>2026-04-22T16:35:45Z</time></trkpt><trkpt lat="37.1189804584708" lon="-3.621052201817628"><ele>730.5</ele><time>2026-04-22T16:35:46Z</time></trkpt><trkpt lat="37.11916905969493" lon="-3.620808080614456"><ele>727.0</ele><time>2026-04-22T16:35:47Z</time></trkpt><trkpt lat="37.11935879614493" lon="-3.620560407381441"><ele>727.0</ele><time>2026-04-22T16:35:48Z</time></trkpt><trkpt lat="37.119548437558386" lon="-3.620321305715083"><ele>727.0</ele><time>2026-04-22T16:35:49Z</time></trkpt><trkpt lat="37.11973797622999" lon="-3.620077375005025"><ele>721.5</ele><time>2026-04-22T16:35:50Z</time></trkpt><trkpt lat="37.1199227652906" lon="-3.6198370195433043"><ele>716.0</ele><time>2026-04-22T16:35:51Z</time></trkpt><trkpt lat="37.120106270773825" lon="-3.619600239940534"><ele>715.5</ele><time>2026-04-22T16:35:52Z</time></trkpt><trkpt lat="37.120282014068565" lon="-3.6193759275944237"><ele>715.0</ele><time>2026-04-22T16:35:53Z</time></trkpt><trkpt lat="37.12045395521524" lon="-3.619150542361215"><ele>715.0</ele><time>2026-04-22T16:35:54Z</time></trkpt><trkpt lat="37.120633650305024" lon="-3.6189249005785507"><ele>715.0</ele><time>2026-04-22T16:35:55Z</time></trkpt><trkpt lat="37.120815190645764" lon="-3.618694728741141"><ele>711.0</ele><time>2026-04-22T16:35:56Z</time></trkpt><trkpt lat="37.12099213684133" lon="-3.6184657742793798"><ele>707.0</ele><time>2026-04-22T16:35:57Z</time></trkpt><trkpt lat="37.12116557206873" lon="-3.618236721030291"><ele>707.0</ele><time>2026-04-22T16:35:58Z</time></trkpt><trkpt lat="37.12134139716251" lon="-3.61800832878974"><ele>707.0</ele><time>2026-04-22T16:35:59Z</time></trkpt><trkpt lat="37.121516204941535" lon="-3.617780064142224"><ele>706.5</ele><time>2026-04-22T16:36:00Z</time></trkpt><trkpt lat="37.12168731944867" lon="-3.6175640528594784"><ele>706.0</ele><time>2026-04-22T16:36:01Z</time></trkpt><trkpt lat="37.12186144150132" lon="-3.6173453023079003"><ele>706.0</ele><time>2026-04-22T16:36:02Z</time></trkpt><trkpt lat="37.12203614128314" lon="-3.617116774293783"><ele>706.0</ele><time>2026-04-22T16:36:03Z</time></trkpt><trkpt lat="37.12221304556069" lon="-3.6168872765228333"><ele>706.0</ele><time>2026-04-22T16:36:04Z</time></trkpt><trkpt lat="37.122393875455394" lon="-3.6166619758975553"><ele>706.0</ele><time>2026-04-22T16:36:05Z</time></trkpt><trkpt lat="37.12257327670436" lon="-3.6164402814609202"><ele>702.0</ele><time>2026-04-22T16:36:06Z</time></trkpt><trkpt lat="37.122752024282775" lon="-3.616227329011811"><ele>698.0</ele><time>2026-04-22T16:36:07Z</time></trkpt><trkpt lat="37.12293811678908" lon="-3.6160143553177635"><ele>698.0</ele><time>2026-04-22T16:36:08Z</time></trkpt><trkpt lat="37.12311791587168" lon="-3.615807238347593"><ele>698.0</ele><time>2026-04-22T16:36:09Z</time></trkpt><trkpt lat="37.12329880384153" lon="-3.61560318134391"><ele>697.5</ele><time>2026-04-22T16:36:10Z</time></trkpt><trkpt lat="37.123482439580044" lon="-3.615402854850356"><ele>697.0</ele><time>2026-04-22T16:36:11Z</time></trkpt><trkpt lat="37.12367070740853" lon="-3.6152008333278234"><ele>697.0</ele><time>2026-04-22T16:36:12Z</time></trkpt><trkpt lat="37.12387417441078" lon="-3.614998560837543"><ele>697.0</ele><time>2026-04-22T16:36:13Z</time></trkpt><trkpt lat="37.12408993634143" lon="-3.614792099061631"><ele>697.0</ele><time>2026-04-22T16:36:14Z</time></trkpt><trkpt lat="37.12430444335792" lon="-3.614589725900981"><ele>697.0</ele><time>2026-04-22T16:36:15Z</time></trkpt><trkpt lat="37.12451569533915" lon="-3.614384516383996"><ele>697.0</ele><time>2026-04-22T16:36:16Z</time></trkpt><trkpt lat="37.124720575132955" lon="-3.6141859134180416"><ele>697.0</ele><time>2026-04-22T16:36:17Z</time></trkpt><trkpt lat="37.124929903682066" lon="-3.6139978579186973"><ele>697.0</ele><time>2026-04-22T16:36:17.999Z</time></trkpt><trkpt lat="37.12514333700993" lon="-3.613811468422134"><ele>697.0</ele><time>2026-04-22T16:36:18.999Z</time></trkpt><trkpt lat="37.1253587220665" lon="-3.613620685695049"><ele>697.0</ele><time>2026-04-22T16:36:19.999Z</time></trkpt><trkpt lat="37.125579006451225" lon="-3.6134332919481054"><ele>697.0</ele><time>2026-04-22T16:36:20.999Z</time></trkpt><trkpt lat="37.125797155046264" lon="-3.6132376245387365"><ele>696.5</ele><time>2026-04-22T16:36:21.999Z</time></trkpt><trkpt lat="37.12602393622604" lon="-3.613048264545645"><ele>696.0</ele><time>2026-04-22T16:36:22.999Z</time></trkpt><trkpt lat="37.12625157455983" lon="-3.6128623248167338"><ele>695.5</ele><time>2026-04-22T16:36:23.999Z</time></trkpt><trkpt lat="37.12648011776932" lon="-3.612681469338603"><ele>695.0</ele><time>2026-04-22T16:36:24.999Z</time></trkpt><trkpt lat="37.12671105632795" lon="-3.6125013629793816"><ele>694.5</ele><time>2026-04-22T16:36:25.999Z</time></trkpt><trkpt lat="37.12694473889431" lon="-3.612324341610933"><ele>694.0</ele><time>2026-04-22T16:36:26.999Z</time></trkpt><trkpt lat="37.12717977202732" lon="-3.612156433373658"><ele>692.5</ele><time>2026-04-22T16:36:27.999Z</time></trkpt><trkpt lat="37.12741506496051" lon="-3.6119886918578916"><ele>691.0</ele><time>2026-04-22T16:36:28.999Z</time></trkpt><trkpt lat="37.127642740456174" lon="-3.6118355959986217"><ele>691.0</ele><time>2026-04-22T16:36:29.999Z</time></trkpt><trkpt lat="37.12785687630431" lon="-3.611700430655984"><ele>691.0</ele><time>2026-04-22T16:36:30.999Z</time></trkpt><trkpt lat="37.128075916193225" lon="-3.6115567623812117"><ele>692.0</ele><time>2026-04-22T16:36:31.999Z</time></trkpt><trkpt lat="37.12829879268018" lon="-3.6114165422594833"><ele>693.0</ele><time>2026-04-22T16:36:32.999Z</time></trkpt><trkpt lat="37.12852010801416" lon="-3.6112767547529785"><ele>692.0</ele><time>2026-04-22T16:36:33.999Z</time></trkpt><trkpt lat="37.12874297676411" lon="-3.6111396499350428"><ele>691.0</ele><time>2026-04-22T16:36:34.999Z</time></trkpt><trkpt lat="37.12896384777415" lon="-3.6110096892079584"><ele>691.0</ele><time>2026-04-22T16:36:35.999Z</time></trkpt><trkpt lat="37.12918862609871" lon="-3.6108862665129506"><ele>691.0</ele><time>2026-04-22T16:36:36.999Z</time></trkpt><trkpt lat="37.12940798938322" lon="-3.610767723720543"><ele>691.0</ele><time>2026-04-22T16:36:37.999Z</time></trkpt><trkpt lat="37.12962717423244" lon="-3.6106503669499044"><ele>691.0</ele><time>2026-04-22T16:36:38.999Z</time></trkpt><trkpt lat="37.129846285262026" lon="-3.610533034044383"><ele>689.0</ele><time>2026-04-22T16:36:39.999Z</time></trkpt><trkpt lat="37.13006505174716" lon="-3.6104216759883285"><ele>687.0</ele><time>2026-04-22T16:36:40.999Z</time></trkpt><trkpt lat="37.130281864521365" lon="-3.610310384062054"><ele>687.0</ele><time>2026-04-22T16:36:41.999Z</time></trkpt><trkpt lat="37.130499570764854" lon="-3.610206042454253"><ele>687.0</ele><time>2026-04-22T16:36:42.999Z</time></trkpt><trkpt lat="37.13071911255696" lon="-3.6101046101496346"><ele>686.5</ele><time>2026-04-22T16:36:43.999Z</time></trkpt><trkpt lat="37.130938134698916" lon="-3.6100065413240063"><ele>686.0</ele><time>2026-04-22T16:36:44.999Z</time></trkpt><trkpt lat="37.13115629927744" lon="-3.6099097038844277"><ele>686.0</ele><time>2026-04-22T16:36:45.999Z</time></trkpt><trkpt lat="37.13137394274847" lon="-3.609816377057658"><ele>686.0</ele><time>2026-04-22T16:36:46.999Z</time></trkpt><trkpt lat="37.13159284682798" lon="-3.609724443787293"><ele>683.5</ele><time>2026-04-22T16:36:47.999Z</time></trkpt><trkpt lat="37.131813597962186" lon="-3.609635609781767"><ele>681.0</ele><time>2026-04-22T16:36:48.999Z</time></trkpt><trkpt lat="37.132032961311246" lon="-3.6095479842471505"><ele>681.5</ele><time>2026-04-22T16:36:49.999Z</time></trkpt><trkpt lat="37.132254106440584" lon="-3.60945920952002"><ele>682.0</ele><time>2026-04-22T16:36:50.999Z</time></trkpt><trkpt lat="37.13247502118256" lon="-3.6093776233258414"><ele>682.0</ele><time>2026-04-22T16:36:51.999Z</time></trkpt><trkpt lat="37.13269958613685" lon="-3.609302574043048"><ele>682.0</ele><time>2026-04-22T16:36:52.999Z</time></trkpt><trkpt lat="37.13292005172318" lon="-3.609221134690046"><ele>682.0</ele><time>2026-04-22T16:36:53.999Z</time></trkpt><trkpt lat="37.133132886821286" lon="-3.6091478460530992"><ele>682.0</ele><time>2026-04-22T16:36:54.999Z</time></trkpt><trkpt lat="37.13334935527502" lon="-3.6090771198321976"><ele>682.0</ele><time>2026-04-22T16:36:55.999Z</time></trkpt><trkpt lat="37.133565193871455" lon="-3.609006827183401"><ele>681.6666666666667</ele><time>2026-04-22T16:36:56.999Z</time></trkpt><trkpt lat="37.13377367627866" lon="-3.608942896305556"><ele>681.3333333333334</ele><time>2026-04-22T16:36:57.999Z</time></trkpt><trkpt lat="37.13397252644404" lon="-3.608891931990587"><ele>681.0</ele><time>2026-04-22T16:36:58.999Z</time></trkpt><trkpt lat="37.13416454564962" lon="-3.608840421072872"><ele>681.0</ele><time>2026-04-22T16:36:59.999Z</time></trkpt><trkpt lat="37.134356987171415" lon="-3.608790946044672"><ele>681.0</ele><time>2026-04-22T16:37:00.999Z</time></trkpt><trkpt lat="37.13454588201026" lon="-3.608748326154496"><ele>681.0</ele><time>2026-04-22T16:37:01.999Z</time></trkpt><trkpt lat="37.134736095797905" lon="-3.6087014255734347"><ele>681.3333333333334</ele><time>2026-04-22T16:37:02.999Z</time></trkpt><trkpt lat="37.13492880147338" lon="-3.6086560616976895"><ele>681.6666666666667</ele><time>2026-04-22T16:37:03.999Z</time></trkpt><trkpt lat="37.13512263475716" lon="-3.6086161679490645"><ele>682.0</ele><time>2026-04-22T16:37:04.999Z</time></trkpt><trkpt lat="37.13531720206657" lon="-3.6085793528199983"><ele>682.0</ele><time>2026-04-22T16:37:05.999Z</time></trkpt><trkpt lat="37.135515906452135" lon="-3.6085404037357782"><ele>682.0</ele><time>2026-04-22T16:37:06.999Z</time></trkpt><trkpt lat="37.135712149447535" lon="-3.608498198445667"><ele>682.0</ele><time>2026-04-22T16:37:08Z</time></trkpt><trkpt lat="37.13591430199866" lon="-3.608465521512903"><ele>681.0</ele><time>2026-04-22T16:37:09Z</time></trkpt><trkpt lat="37.136114695089276" lon="-3.6084377085278385"><ele>680.0</ele><time>2026-04-22T16:37:10Z</time></trkpt><trkpt lat="37.13630108507635" lon="-3.6084136095778203"><ele>679.0</ele><time>2026-04-22T16:37:11Z</time></trkpt><trkpt lat="37.13649619578202" lon="-3.608384983133468"><ele>678.0</ele><time>2026-04-22T16:37:12Z</time></trkpt><trkpt lat="37.13668980250372" lon="-3.6083592911264377"><ele>677.0</ele><time>2026-04-22T16:37:13Z</time></trkpt><trkpt lat="37.136884846860326" lon="-3.6083331363284024"><ele>676.0</ele><time>2026-04-22T16:37:14Z</time></trkpt><trkpt lat="37.13708521097246" lon="-3.608310151851542"><ele>676.0</ele><time>2026-04-22T16:37:15Z</time></trkpt><trkpt lat="37.13727798127721" lon="-3.6082942496064367"><ele>676.0</ele><time>2026-04-22T16:37:16Z</time></trkpt><trkpt lat="37.137464764892144" lon="-3.608281634105505"><ele>676.0</ele><time>2026-04-22T16:37:17Z</time></trkpt><trkpt lat="37.13763960338396" lon="-3.608257539170429"><ele>676.6666666666667</ele><time>2026-04-22T16:37:18Z</time></trkpt><trkpt lat="37.13781938229058" lon="-3.6082319493638795"><ele>677.3333333333334</ele><time>2026-04-22T16:37:19Z</time></trkpt><trkpt lat="37.13799940355627" lon="-3.6082100440932288"><ele>678.0</ele><time>2026-04-22T16:37:20Z</time></trkpt><trkpt lat="37.13817769827002" lon="-3.6082066318778327"><ele>677.3333333333334</ele><time>2026-04-22T16:37:21Z</time></trkpt><trkpt lat="37.13835989077613" lon="-3.6081637363651438"><ele>676.6666666666667</ele><time>2026-04-22T16:37:22Z</time></trkpt><trkpt lat="37.13854412151542" lon="-3.6081487192746122"><ele>676.0</ele><time>2026-04-22T16:37:23Z</time></trkpt><trkpt lat="37.13873498483431" lon="-3.6081409476955186"><ele>676.0</ele><time>2026-04-22T16:37:24Z</time></trkpt><trkpt lat="37.138927062214734" lon="-3.6081407414120323"><ele>676.0</ele><time>2026-04-22T16:37:25Z</time></trkpt><trkpt lat="37.1391272601287" lon="-3.6081379607118875"><ele>676.0</ele><time>2026-04-22T16:37:26Z</time></trkpt><trkpt lat="37.139327849051625" lon="-3.6081369515395156"><ele>675.6666666666667</ele><time>2026-04-22T16:37:27Z</time></trkpt><trkpt lat="37.1395283655808" lon="-3.6081411910603336"><ele>675.3333333333334</ele><time>2026-04-22T16:37:28Z</time></trkpt><trkpt lat="37.13972989783146" lon="-3.6081384650215136"><ele>675.0</ele><time>2026-04-22T16:37:29Z</time></trkpt><trkpt lat="37.13993046878623" lon="-3.608140403531551"><ele>675.0</ele><time>2026-04-22T16:37:30Z</time></trkpt><trkpt lat="37.1401271950858" lon="-3.6081461716813723"><ele>675.0</ele><time>2026-04-22T16:37:31Z</time></trkpt><trkpt lat="37.14031568156197" lon="-3.6081457097545937"><ele>675.0</ele><time>2026-04-22T16:37:32Z</time></trkpt><trkpt lat="37.14049841284578" lon="-3.6081349739075836"><ele>675.0</ele><time>2026-04-22T16:37:33Z</time></trkpt><trkpt lat="37.1406738305875" lon="-3.608107200737828"><ele>675.0</ele><time>2026-04-22T16:37:34Z</time></trkpt><trkpt lat="37.14082946486182" lon="-3.6080566181698344"><ele>675.0</ele><time>2026-04-22T16:37:35Z</time></trkpt><trkpt lat="37.140969742664446" lon="-3.6079885317675227"><ele>675.0</ele><time>2026-04-22T16:37:36Z</time></trkpt><trkpt lat="37.14109601475484" lon="-3.6078977343223015"><ele>675.0</ele><time>2026-04-22T16:37:37Z</time></trkpt><trkpt lat="37.14121489885996" lon="-3.6077860347415758"><ele>675.0</ele><time>2026-04-22T16:37:38Z</time></trkpt><trkpt lat="37.141313450228196" lon="-3.6076601314260945"><ele>675.0</ele><time>2026-04-22T16:37:39Z</time></trkpt><trkpt lat="37.1413975134504" lon="-3.6075226703812726"><ele>674.3333333333334</ele><time>2026-04-22T16:37:40Z</time></trkpt><trkpt lat="37.14146929466134" lon="-3.607362367797438"><ele>673.6666666666667</ele><time>2026-04-22T16:37:41Z</time></trkpt><trkpt lat="37.14152569498011" lon="-3.607183228049327"><ele>673.0</ele><time>2026-04-22T16:37:42Z</time></trkpt><trkpt lat="37.1415840420787" lon="-3.606996716131947"><ele>673.3333333333334</ele><time>2026-04-22T16:37:43Z</time></trkpt><trkpt lat="37.14164567343682" lon="-3.606806868112226"><ele>673.6666666666666</ele><time>2026-04-22T16:37:44Z</time></trkpt><trkpt lat="37.1417069520132" lon="-3.60662352918121"><ele>674.0</ele><time>2026-04-22T16:37:45Z</time></trkpt><trkpt lat="37.141767299078985" lon="-3.606452879669862"><ele>674.0</ele><time>2026-04-22T16:37:46Z</time></trkpt><trkpt lat="37.14183209792681" lon="-3.6062823428788704"><ele>674.0</ele><time>2026-04-22T16:37:47Z</time></trkpt><trkpt lat="37.14190141288845" lon="-3.606100774099098"><ele>674.0</ele><time>2026-04-22T16:37:48Z</time></trkpt><trkpt lat="37.14197819075071" lon="-3.605910241917317"><ele>673.6666666666666</ele><time>2026-04-22T16:37:49Z</time></trkpt><trkpt lat="37.142069866423626" lon="-3.605715769290775"><ele>673.3333333333334</ele><time>2026-04-22T16:37:50Z</time></trkpt><trkpt lat="37.14217849074407" lon="-3.6055195109033145"><ele>673.0</ele><time>2026-04-22T16:37:51Z</time></trkpt><trkpt lat="37.14230498677494" lon="-3.6053273883448727"><ele>673.3333333333334</ele><time>2026-04-22T16:37:52Z</time></trkpt><trkpt lat="37.14244255059631" lon="-3.6051426243753255"><ele>673.6666666666666</ele><time>2026-04-22T16:37:53Z</time></trkpt><trkpt lat="37.142594973051125" lon="-3.6049714400411648"><ele>674.0</ele><time>2026-04-22T16:37:54Z</time></trkpt><trkpt lat="37.142758117011454" lon="-3.604807100226976"><ele>674.0</ele><time>2026-04-22T16:37:55Z</time></trkpt><trkpt lat="37.14292726574616" lon="-3.604644260227607"><ele>674.0</ele><time>2026-04-22T16:37:56Z</time></trkpt><trkpt lat="37.14310399546172" lon="-3.604484202779649"><ele>674.0</ele><time>2026-04-22T16:37:57Z</time></trkpt><trkpt lat="37.14328220270192" lon="-3.6043286757824817"><ele>675.0</ele><time>2026-04-22T16:37:58Z</time></trkpt><trkpt lat="37.14346420501637" lon="-3.604171628596119"><ele>676.0</ele><time>2026-04-22T16:37:59Z</time></trkpt><trkpt lat="37.143644611239864" lon="-3.604016675644047"><ele>677.0</ele><time>2026-04-22T16:38:00Z</time></trkpt><trkpt lat="37.143822863700194" lon="-3.603854821351061"><ele>677.0</ele><time>2026-04-22T16:38:00.999Z</time></trkpt><trkpt lat="37.14399643579079" lon="-3.6036857107600846"><ele>677.0</ele><time>2026-04-22T16:38:01.999Z</time></trkpt><trkpt lat="37.14416571724134" lon="-3.6035085217331893"><ele>677.0</ele><time>2026-04-22T16:38:02.999Z</time></trkpt><trkpt lat="37.144327368979155" lon="-3.603317201570036"><ele>677.3333333333333</ele><time>2026-04-22T16:38:03.999Z</time></trkpt><trkpt lat="37.14448355069346" lon="-3.6031179727119844"><ele>677.6666666666666</ele><time>2026-04-22T16:38:04.999Z</time></trkpt><trkpt lat="37.14463246922015" lon="-3.6029102042834587"><ele>678.0</ele><time>2026-04-22T16:38:05.999Z</time></trkpt><trkpt lat="37.144775661669435" lon="-3.6026909353025793"><ele>679.3333333333334</ele><time>2026-04-22T16:38:06.999Z</time></trkpt><trkpt lat="37.144908873134035" lon="-3.6024692208182887"><ele>680.6666666666667</ele><time>2026-04-22T16:38:07.999Z</time></trkpt><trkpt lat="37.14503549012199" lon="-3.602240745263592"><ele>682.0</ele><time>2026-04-22T16:38:08.999Z</time></trkpt><trkpt lat="37.14515319038676" lon="-3.6020033185024327"><ele>681.3333333333334</ele><time>2026-04-22T16:38:09.999Z</time></trkpt><trkpt lat="37.14526205992345" lon="-3.6017633979475168"><ele>680.6666666666666</ele><time>2026-04-22T16:38:10.999Z</time></trkpt><trkpt lat="37.14536727212595" lon="-3.6015151783222956"><ele>680.0</ele><time>2026-04-22T16:38:11.999Z</time></trkpt><trkpt lat="37.14546980058653" lon="-3.6012686844339803"><ele>680.0</ele><time>2026-04-22T16:38:12.999Z</time></trkpt><trkpt lat="37.145568982240725" lon="-3.601012649319213"><ele>680.0</ele><time>2026-04-22T16:38:13.999Z</time></trkpt><trkpt lat="37.14565886079441" lon="-3.6007601019485285"><ele>680.0</ele><time>2026-04-22T16:38:14.999Z</time></trkpt><trkpt lat="37.14575558165748" lon="-3.6005064020266375"><ele>680.0</ele><time>2026-04-22T16:38:15.999Z</time></trkpt><trkpt lat="37.14585882522375" lon="-3.6002524899142694"><ele>680.0</ele><time>2026-04-22T16:38:16.999Z</time></trkpt><trkpt lat="37.14595977634788" lon="-3.59999642533085"><ele>680.0</ele><time>2026-04-22T16:38:17.999Z</time></trkpt><trkpt lat="37.146064586018774" lon="-3.599734363307366"><ele>680.0</ele><time>2026-04-22T16:38:18.999Z</time></trkpt><trkpt lat="37.14617732360175" lon="-3.5994793516343084"><ele>679.5</ele><time>2026-04-22T16:38:19.999Z</time></trkpt><trkpt lat="37.14629785779287" lon="-3.599228544912029"><ele>679.0</ele><time>2026-04-22T16:38:20.999Z</time></trkpt><trkpt lat="37.14642443288967" lon="-3.5989791529606543"><ele>678.5</ele><time>2026-04-22T16:38:21.999Z</time></trkpt><trkpt lat="37.14655617180498" lon="-3.598729054073518"><ele>678.0</ele><time>2026-04-22T16:38:22.999Z</time></trkpt><trkpt lat="37.146695060330075" lon="-3.5984838666790298"><ele>679.0</ele><time>2026-04-22T16:38:23.999Z</time></trkpt><trkpt lat="37.14684378965848" lon="-3.598248667106112"><ele>680.0</ele><time>2026-04-22T16:38:24.999Z</time></trkpt><trkpt lat="37.14699292200824" lon="-3.598013399132497"><ele>679.5</ele><time>2026-04-22T16:38:25.999Z</time></trkpt><trkpt lat="37.14714508188526" lon="-3.5977767408474963"><ele>679.0</ele><time>2026-04-22T16:38:26.999Z</time></trkpt><trkpt lat="37.14729473010314" lon="-3.597538304485999"><ele>679.0</ele><time>2026-04-22T16:38:27.999Z</time></trkpt><trkpt lat="37.147441933017895" lon="-3.597291938286109"><ele>679.0</ele><time>2026-04-22T16:38:28.999Z</time></trkpt><trkpt lat="37.1475876684069" lon="-3.5970381533677735"><ele>680.0</ele><time>2026-04-22T16:38:29.999Z</time></trkpt><trkpt lat="37.14772850708714" lon="-3.596782824836681"><ele>681.0</ele><time>2026-04-22T16:38:30.999Z</time></trkpt><trkpt lat="37.14786822831869" lon="-3.59651610698055"><ele>681.0</ele><time>2026-04-22T16:38:31.999Z</time></trkpt><trkpt lat="37.148001924670545" lon="-3.5962539181567967"><ele>681.0</ele><time>2026-04-22T16:38:32.999Z</time></trkpt><trkpt lat="37.14812621312241" lon="-3.5959983535588624"><ele>681.5</ele><time>2026-04-22T16:38:33.999Z</time></trkpt><trkpt lat="37.148238206604745" lon="-3.5957519436383927"><ele>682.0</ele><time>2026-04-22T16:38:34.999Z</time></trkpt><trkpt lat="37.14834836368159" lon="-3.595505108440985"><ele>682.5</ele><time>2026-04-22T16:38:35.999Z</time></trkpt><trkpt lat="37.14845856663975" lon="-3.59525508208742"><ele>683.0</ele><time>2026-04-22T16:38:36.999Z</time></trkpt><trkpt lat="37.14856598199467" lon="-3.595010816567456"><ele>683.0</ele><time>2026-04-22T16:38:37.999Z</time></trkpt><trkpt lat="37.148671486545894" lon="-3.5947705461726676"><ele>683.0</ele><time>2026-04-22T16:38:38.999Z</time></trkpt><trkpt lat="37.148775348583364" lon="-3.5945369772733238"><ele>683.0</ele><time>2026-04-22T16:38:39.999Z</time></trkpt><trkpt lat="37.14888105043999" lon="-3.5943060308120596"><ele>683.6666666666666</ele><time>2026-04-22T16:38:40.999Z</time></trkpt><trkpt lat="37.14898882384476" lon="-3.59407493060888"><ele>684.3333333333334</ele><time>2026-04-22T16:38:41.999Z</time></trkpt><trkpt lat="37.14909420267054" lon="-3.5938525768297196"><ele>685.0</ele><time>2026-04-22T16:38:42.999Z</time></trkpt><trkpt lat="37.149199965692915" lon="-3.5936406443833966"><ele>685.6666666666667</ele><time>2026-04-22T16:38:43.999Z</time></trkpt><trkpt lat="37.1493074776542" lon="-3.593423282808441"><ele>686.3333333333334</ele><time>2026-04-22T16:38:44.999Z</time></trkpt><trkpt lat="37.149420003993" lon="-3.5932145431823455"><ele>687.0</ele><time>2026-04-22T16:38:45.999Z</time></trkpt><trkpt lat="37.14953538218118" lon="-3.593011539967485"><ele>687.0</ele><time>2026-04-22T16:38:46.999Z</time></trkpt><trkpt lat="37.149653066269096" lon="-3.5928085615207395"><ele>687.0</ele><time>2026-04-22T16:38:47.999Z</time></trkpt><trkpt lat="37.149777336227" lon="-3.592609792559402"><ele>687.0</ele><time>2026-04-22T16:38:48.999Z</time></trkpt><trkpt lat="37.14990324177059" lon="-3.5924079355211647"><ele>687.3333333333334</ele><time>2026-04-22T16:38:49.999Z</time></trkpt><trkpt lat="37.15003390727513" lon="-3.5922070190822635"><ele>687.6666666666667</ele><time>2026-04-22T16:38:50.999Z</time></trkpt><trkpt lat="37.15017221408015" lon="-3.5920049365256586"><ele>688.0</ele><time>2026-04-22T16:38:51.999Z</time></trkpt><trkpt lat="37.15031513564258" lon="-3.5918054537676825"><ele>688.0</ele><time>2026-04-22T16:38:52.999Z</time></trkpt><trkpt lat="37.15045884431248" lon="-3.5916098335892452"><ele>688.0</ele><time>2026-04-22T16:38:53.999Z</time></trkpt><trkpt lat="37.150609802597636" lon="-3.5914169776431453"><ele>688.0</ele><time>2026-04-22T16:38:54.999Z</time></trkpt><trkpt lat="37.15076913118077" lon="-3.59122586259522"><ele>688.0</ele><time>2026-04-22T16:38:55.999Z</time></trkpt><trkpt lat="37.15093192956682" lon="-3.5910337999983346"><ele>688.0</ele><time>2026-04-22T16:38:56.999Z</time></trkpt><trkpt lat="37.15109745149952" lon="-3.5908422790615333"><ele>688.0</ele><time>2026-04-22T16:38:57.999Z</time></trkpt><trkpt lat="37.15126754670068" lon="-3.5906512016116165"><ele>688.0</ele><time>2026-04-22T16:38:58.999Z</time></trkpt><trkpt lat="37.15144346503231" lon="-3.5904576941532538"><ele>688.0</ele><time>2026-04-22T16:38:59.999Z</time></trkpt><trkpt lat="37.15162267451125" lon="-3.5902619615299365"><ele>687.5</ele><time>2026-04-22T16:39:00.999Z</time></trkpt><trkpt lat="37.15179913267157" lon="-3.5900609438579774"><ele>687.0</ele><time>2026-04-22T16:39:01.999Z</time></trkpt><trkpt lat="37.151978716400784" lon="-3.5898516127620352"><ele>687.0</ele><time>2026-04-22T16:39:02.999Z</time></trkpt><trkpt lat="37.152153504881724" lon="-3.5896319354803023"><ele>687.0</ele><time>2026-04-22T16:39:03.999Z</time></trkpt><trkpt lat="37.152323043946396" lon="-3.5894454063155394"><ele>687.5</ele><time>2026-04-22T16:39:04.999Z</time></trkpt><trkpt lat="37.15248573712897" lon="-3.5892343874762727"><ele>688.0</ele><time>2026-04-22T16:39:05.999Z</time></trkpt><trkpt lat="37.15263351601573" lon="-3.5890157682087014"><ele>688.0</ele><time>2026-04-22T16:39:06.999Z</time></trkpt><trkpt lat="37.152769800620675" lon="-3.5887826745032134"><ele>688.0</ele><time>2026-04-22T16:39:07.999Z</time></trkpt><trkpt lat="37.152896016429" lon="-3.5885473113364736"><ele>688.0</ele><time>2026-04-22T16:39:08.999Z</time></trkpt><trkpt lat="37.153023559410464" lon="-3.588316161953289"><ele>688.0</ele><time>2026-04-22T16:39:09.999Z</time></trkpt><trkpt lat="37.153152303971" lon="-3.5880861493930145"><ele>688.0</ele><time>2026-04-22T16:39:10.999Z</time></trkpt><trkpt lat="37.153277848358286" lon="-3.5878675942141705"><ele>688.6666666666667</ele><time>2026-04-22T16:39:11.999Z</time></trkpt><trkpt lat="37.15335304135132" lon="-3.587625062545863"><ele>689.3333333333334</ele><time>2026-04-22T16:39:12.999Z</time></trkpt><trkpt lat="37.15346949265172" lon="-3.5874236261173853"><ele>690.0</ele><time>2026-04-22T16:39:14Z</time></trkpt><trkpt lat="37.15363925129425" lon="-3.5872676061660598"><ele>690.0</ele><time>2026-04-22T16:39:15Z</time></trkpt><trkpt lat="37.15377059476804" lon="-3.587065823238669"><ele>690.0</ele><time>2026-04-22T16:39:16Z</time></trkpt><trkpt lat="37.153906892908" lon="-3.5868686807164374"><ele>690.0</ele><time>2026-04-22T16:39:17Z</time></trkpt><trkpt lat="37.15404863970847" lon="-3.5866704227376025"><ele>691.3333333333334</ele><time>2026-04-22T16:39:18Z</time></trkpt><trkpt lat="37.15418916682968" lon="-3.5864772129746028"><ele>692.6666666666667</ele><time>2026-04-22T16:39:19Z</time></trkpt><trkpt lat="37.15433198366601" lon="-3.5862863473551467"><ele>694.0</ele><time>2026-04-22T16:39:20Z</time></trkpt><trkpt lat="37.15447419345293" lon="-3.586097346548511"><ele>694.3333333333334</ele><time>2026-04-22T16:39:21Z</time></trkpt><trkpt lat="37.15461271617968" lon="-3.585909565572803"><ele>694.6666666666666</ele><time>2026-04-22T16:39:22Z</time></trkpt><trkpt lat="37.15474688165296" lon="-3.5857297382557864"><ele>695.0</ele><time>2026-04-22T16:39:23Z</time></trkpt><trkpt lat="37.15488434655496" lon="-3.585550976730901"><ele>695.3333333333333</ele><time>2026-04-22T16:39:24Z</time></trkpt><trkpt lat="37.15501324530447" lon="-3.5853733917141004"><ele>695.6666666666666</ele><time>2026-04-22T16:39:25Z</time></trkpt><trkpt lat="37.15513741864419" lon="-3.585182349096601"><ele>696.0</ele><time>2026-04-22T16:39:26Z</time></trkpt><trkpt lat="37.15525221962072" lon="-3.5849851446168284"><ele>696.3333333333334</ele><time>2026-04-22T16:39:27Z</time></trkpt><trkpt lat="37.15535860785862" lon="-3.584785554068682"><ele>696.6666666666667</ele><time>2026-04-22T16:39:28Z</time></trkpt><trkpt lat="37.155461809626864" lon="-3.5845850315669456"><ele>697.0</ele><time>2026-04-22T16:39:29Z</time></trkpt><trkpt lat="37.155556776660184" lon="-3.584382741977726"><ele>697.6666666666667</ele><time>2026-04-22T16:39:30Z</time></trkpt><trkpt lat="37.15564826728805" lon="-3.5841742795333826"><ele>698.3333333333334</ele><time>2026-04-22T16:39:31Z</time></trkpt><trkpt lat="37.155737540722555" lon="-3.583957608268681"><ele>699.0</ele><time>2026-04-22T16:39:32Z</time></trkpt><trkpt lat="37.155820837604544" lon="-3.5837365399087355"><ele>701.0</ele><time>2026-04-22T16:39:33Z</time></trkpt><trkpt lat="37.155903863642955" lon="-3.583512613441514"><ele>703.0</ele><time>2026-04-22T16:39:34Z</time></trkpt><trkpt lat="37.15597904507706" lon="-3.5832879191320215"><ele>705.0</ele><time>2026-04-22T16:39:35Z</time></trkpt><trkpt lat="37.15605055921696" lon="-3.5830583427748"><ele>705.0</ele><time>2026-04-22T16:39:36Z</time></trkpt><trkpt lat="37.15611776586218" lon="-3.582831439390489"><ele>705.0</ele><time>2026-04-22T16:39:37Z</time></trkpt><trkpt lat="37.15618495918978" lon="-3.5825974843237214"><ele>705.0</ele><time>2026-04-22T16:39:38Z</time></trkpt><trkpt lat="37.15625090140199" lon="-3.5823607942357136"><ele>705.0</ele><time>2026-04-22T16:39:39Z</time></trkpt><trkpt lat="37.156315385997225" lon="-3.5821260664302197"><ele>705.0</ele><time>2026-04-22T16:39:40Z</time></trkpt><trkpt lat="37.15637872879086" lon="-3.5818903533015978"><ele>705.0</ele><time>2026-04-22T16:39:41Z</time></trkpt><trkpt lat="37.15643984486671" lon="-3.58165404349726"><ele>705.3333333333334</ele><time>2026-04-22T16:39:42Z</time></trkpt><trkpt lat="37.15649846349865" lon="-3.5814226366608346"><ele>705.6666666666667</ele><time>2026-04-22T16:39:43Z</time></trkpt><trkpt lat="37.15655512582683" lon="-3.581190592101875"><ele>706.0</ele><time>2026-04-22T16:39:44Z</time></trkpt><trkpt lat="37.15660639925697" lon="-3.5809618763512288"><ele>707.0</ele><time>2026-04-22T16:39:45Z</time></trkpt><trkpt lat="37.15665384863313" lon="-3.5807327017108874"><ele>708.0</ele><time>2026-04-22T16:39:46Z</time></trkpt><trkpt lat="37.15669835765445" lon="-3.5805022704481617"><ele>709.0</ele><time>2026-04-22T16:39:47Z</time></trkpt><trkpt lat="37.15674457925263" lon="-3.580276878700621"><ele>712.3333333333334</ele><time>2026-04-22T16:39:48Z</time></trkpt><trkpt lat="37.15679407668243" lon="-3.580060051908069"><ele>715.6666666666666</ele><time>2026-04-22T16:39:49Z</time></trkpt><trkpt lat="37.1568381936444" lon="-3.5798313388974896"><ele>719.0</ele><time>2026-04-22T16:39:50Z</time></trkpt><trkpt lat="37.15688042091225" lon="-3.5796055487061915"><ele>723.3333333333333</ele><time>2026-04-22T16:39:51Z</time></trkpt><trkpt lat="37.15692364316457" lon="-3.5793738099871466"><ele>727.6666666666666</ele><time>2026-04-22T16:39:52.02Z</time></trkpt><trkpt lat="37.1569661552646" lon="-3.5791507413688737"><ele>732.0</ele><time>2026-04-22T16:39:53.025Z</time></trkpt><trkpt lat="37.15700450070936" lon="-3.5789198114469922"><ele>732.0</ele><time>2026-04-22T16:39:54.018Z</time></trkpt><trkpt lat="37.15704277131192" lon="-3.5786890329145034"><ele>732.0</ele><time>2026-04-22T16:39:55.024Z</time></trkpt><trkpt lat="37.15737764656713" lon="-3.5766722290930275"><ele>702.0</ele><time>2026-04-22T16:40:05.2Z</time></trkpt><trkpt lat="37.160732774098555" lon="-3.5723243001881726"><ele>702.0</ele><time>2026-04-22T16:40:36.999Z</time></trkpt><trkpt lat="37.160832443935014" lon="-3.572235446572274"><ele>702.0</ele><time>2026-04-22T16:40:37.999Z</time></trkpt><trkpt lat="37.1609134962266" lon="-3.5722352370603776"><ele>702.0</ele><time>2026-04-22T16:40:38.999Z</time></trkpt><trkpt lat="37.161034328814644" lon="-3.5721388677497914"><ele>702.0</ele><time>2026-04-22T16:40:39.999Z</time></trkpt><trkpt lat="37.161153521568544" lon="-3.572033250128343"><ele>700.75</ele><time>2026-04-22T16:40:40.999Z</time></trkpt><trkpt lat="37.16125927042916" lon="-3.5719333225480803"><ele>699.5</ele><time>2026-04-22T16:40:41.999Z</time></trkpt><trkpt lat="37.16135048928757" lon="-3.5718462204859485"><ele>698.25</ele><time>2026-04-22T16:40:42.999Z</time></trkpt><trkpt lat="37.16143305726781" lon="-3.5717648876285395"><ele>697.0</ele><time>2026-04-22T16:40:43.999Z</time></trkpt><trkpt lat="37.161530193740084" lon="-3.571674367783269"><ele>697.0</ele><time>2026-04-22T16:40:44.999Z</time></trkpt><trkpt lat="37.1616385866141" lon="-3.5715787167793924"><ele>697.0</ele><time>2026-04-22T16:40:45.999Z</time></trkpt><trkpt lat="37.16176505617393" lon="-3.5714889614216982"><ele>697.0</ele><time>2026-04-22T16:40:46.999Z</time></trkpt><trkpt lat="37.161920750063224" lon="-3.5714021096614212"><ele>697.0</ele><time>2026-04-22T16:40:47.999Z</time></trkpt><trkpt lat="37.16208195854202" lon="-3.5712945207690225"><ele>698.0</ele><time>2026-04-22T16:40:48.999Z</time></trkpt><trkpt lat="37.16223420042939" lon="-3.5711861849200495"><ele>699.0</ele><time>2026-04-22T16:40:49.999Z</time></trkpt><trkpt lat="37.16236364128271" lon="-3.5710954616269404"><ele>700.0</ele><time>2026-04-22T16:40:50.999Z</time></trkpt><trkpt lat="37.16247035577077" lon="-3.5710094895057836"><ele>700.0</ele><time>2026-04-22T16:40:51.999Z</time></trkpt><trkpt lat="37.162537655415285" lon="-3.5709466766520808"><ele>700.0</ele><time>2026-04-22T16:40:52.999Z</time></trkpt><trkpt lat="37.16261266675164" lon="-3.5708315781317164"><ele>700.0</ele><time>2026-04-22T16:40:55.999Z</time></trkpt><trkpt lat="37.16266103494296" lon="-3.5707403844683805"><ele>700.0</ele><time>2026-04-22T16:40:56.999Z</time></trkpt><trkpt lat="37.162710193575315" lon="-3.5706712967364473"><ele>700.0</ele><time>2026-04-22T16:40:57.999Z</time></trkpt><trkpt lat="37.162818079046595" lon="-3.5706181002771777"><ele>700.0</ele><time>2026-04-22T16:40:59.999Z</time></trkpt><trkpt lat="37.16293991758548" lon="-3.5706319021178237"><ele>700.0</ele><time>2026-04-22T16:41:01.999Z</time></trkpt><trkpt lat="37.162992444630184" lon="-3.570702711289532"><ele>700.0</ele><time>2026-04-22T16:41:03.999Z</time></trkpt><trkpt lat="37.163035633121034" lon="-3.5707945893143194"><ele>700.0</ele><time>2026-04-22T16:43:17.999Z</time></trkpt><trkpt lat="37.163071208793" lon="-3.5709021483917316"><ele>700.0</ele><time>2026-04-22T16:43:19.999Z</time></trkpt><trkpt lat="37.16316394838098" lon="-3.5710030473714105"><ele>701.4</ele><time>2026-04-22T16:43:21.999Z</time></trkpt><trkpt lat="37.16322304926408" lon="-3.5710471402804163"><ele>702.8</ele><time>2026-04-22T16:43:22.999Z</time></trkpt><trkpt lat="37.16330145357551" lon="-3.5711115972407157"><ele>704.2</ele><time>2026-04-22T16:43:24.999Z</time></trkpt><trkpt lat="37.163378701415745" lon="-3.5711895386903563"><ele>705.6</ele><time>2026-04-22T16:43:26.998Z</time></trkpt><trkpt lat="37.16343907948101" lon="-3.5713285490538564"><ele>707.0</ele><time>2026-04-22T16:43:28.998Z</time></trkpt><trkpt lat="37.16347922634685" lon="-3.5714130837619673"><ele>707.2</ele><time>2026-04-22T16:43:29.998Z</time></trkpt><trkpt lat="37.16352763018707" lon="-3.5714948300559453"><ele>707.4000000000001</ele><time>2026-04-22T16:43:30.998Z</time></trkpt><trkpt lat="37.16358740903786" lon="-3.571585014096106"><ele>707.5999999999999</ele><time>2026-04-22T16:43:31.998Z</time></trkpt><trkpt lat="37.16365926588257" lon="-3.5716810564494685"><ele>707.8</ele><time>2026-04-22T16:43:32.998Z</time></trkpt><trkpt lat="37.16372434622266" lon="-3.5717789537928963"><ele>708.0</ele><time>2026-04-22T16:43:33.999Z</time></trkpt><trkpt lat="37.16378736427263" lon="-3.5718738936432595"><ele>708.0</ele><time>2026-04-22T16:43:34.999Z</time></trkpt><trkpt lat="37.163849540626416" lon="-3.571968348644096"><ele>708.0</ele><time>2026-04-22T16:43:35.999Z</time></trkpt><trkpt lat="37.16391602262794" lon="-3.5720591319552764"><ele>708.0</ele><time>2026-04-22T16:43:36.999Z</time></trkpt><trkpt lat="37.1639899943649" lon="-3.5721579002605015"><ele>708.0</ele><time>2026-04-22T16:43:37.999Z</time></trkpt><trkpt lat="37.16406391834994" lon="-3.572260188102737"><ele>708.0</ele><time>2026-04-22T16:43:38.999Z</time></trkpt><trkpt lat="37.16413141475977" lon="-3.5723687931142134"><ele>709.25</ele><time>2026-04-22T16:43:39.999Z</time></trkpt><trkpt lat="37.164209429002355" lon="-3.572481573063909"><ele>710.5</ele><time>2026-04-22T16:43:40.999Z</time></trkpt><trkpt lat="37.16429124795362" lon="-3.5726007195135674"><ele>711.75</ele><time>2026-04-22T16:43:41.999Z</time></trkpt><trkpt lat="37.16438136799654" lon="-3.572712164472106"><ele>713.0</ele><time>2026-04-22T16:43:42.999Z</time></trkpt><trkpt lat="37.164451923520424" lon="-3.5728173708992625"><ele>712.0</ele><time>2026-04-22T16:43:43.999Z</time></trkpt><trkpt lat="37.16451743961643" lon="-3.5729229132631133"><ele>711.0</ele><time>2026-04-22T16:43:44.999Z</time></trkpt><trkpt lat="37.16458177517751" lon="-3.573037928344371"><ele>710.0</ele><time>2026-04-22T16:43:45.999Z</time></trkpt><trkpt lat="37.164639097534334" lon="-3.5731692542128854"><ele>709.0</ele><time>2026-04-22T16:43:46.999Z</time></trkpt><trkpt lat="37.16469707229231" lon="-3.5733088918353704"><ele>709.0</ele><time>2026-04-22T16:43:47.999Z</time></trkpt><trkpt lat="37.16475666781969" lon="-3.57344721077732"><ele>709.0</ele><time>2026-04-22T16:43:48.999Z</time></trkpt><trkpt lat="37.164816588627836" lon="-3.573596057007029"><ele>709.0</ele><time>2026-04-22T16:43:49.999Z</time></trkpt><trkpt lat="37.16486449269035" lon="-3.5737408586909254"><ele>709.0</ele><time>2026-04-22T16:43:50.999Z</time></trkpt><trkpt lat="37.16490705517308" lon="-3.5738886050049716"><ele>715.25</ele><time>2026-04-22T16:43:51.999Z</time></trkpt><trkpt lat="37.16494858804696" lon="-3.57403675066409"><ele>721.5</ele><time>2026-04-22T16:43:52.999Z</time></trkpt><trkpt lat="37.164993757716125" lon="-3.574178887984688"><ele>727.75</ele><time>2026-04-22T16:43:53.999Z</time></trkpt><trkpt lat="37.165038828241975" lon="-3.5743189076267656"><ele>734.0</ele><time>2026-04-22T16:43:54.999Z</time></trkpt><trkpt lat="37.165081850259945" lon="-3.5744589140400636"><ele>732.25</ele><time>2026-04-22T16:43:55.999Z</time></trkpt><trkpt lat="37.16512440302719" lon="-3.5745941797975385"><ele>730.5</ele><time>2026-04-22T16:43:56.999Z</time></trkpt><trkpt lat="37.16516609580514" lon="-3.574730604493259"><ele>728.75</ele><time>2026-04-22T16:43:57.999Z</time></trkpt><trkpt lat="37.16520799201915" lon="-3.574864945018174"><ele>727.0</ele><time>2026-04-22T16:43:58.999Z</time></trkpt><trkpt lat="37.16525079519276" lon="-3.5749961344862964"><ele>727.0</ele><time>2026-04-22T16:43:59.999Z</time></trkpt><trkpt lat="37.1652901421258" lon="-3.5751243975153204"><ele>727.0</ele><time>2026-04-22T16:44:00.999Z</time></trkpt><trkpt lat="37.16532714926839" lon="-3.5752529291124855"><ele>727.0</ele><time>2026-04-22T16:44:01.999Z</time></trkpt><trkpt lat="37.16535992749591" lon="-3.575369197406511"><ele>727.0</ele><time>2026-04-22T16:44:02.999Z</time></trkpt><trkpt lat="37.165398474349026" lon="-3.5754777030206455"><ele>727.0</ele><time>2026-04-22T16:44:03.999Z</time></trkpt><trkpt lat="37.16543171158501" lon="-3.5755920702870934"><ele>725.8</ele><time>2026-04-22T16:44:04.999Z</time></trkpt><trkpt lat="37.165466773405576" lon="-3.5757077744389396"><ele>724.6</ele><time>2026-04-22T16:44:05.999Z</time></trkpt><trkpt lat="37.16550032927788" lon="-3.575820558805666"><ele>723.4</ele><time>2026-04-22T16:44:06.999Z</time></trkpt><trkpt lat="37.16553092935955" lon="-3.575934021751423"><ele>722.1999999999999</ele><time>2026-04-22T16:44:07.999Z</time></trkpt><trkpt lat="37.16556211263121" lon="-3.5760464259786175"><ele>721.0</ele><time>2026-04-22T16:44:08.999Z</time></trkpt><trkpt lat="37.165594086429095" lon="-3.5761532250015438"><ele>719.0</ele><time>2026-04-22T16:44:09.999Z</time></trkpt><trkpt lat="37.165628955170945" lon="-3.5762682999429893"><ele>717.0</ele><time>2026-04-22T16:44:10.999Z</time></trkpt><trkpt lat="37.16566871231314" lon="-3.5763845307240874"><ele>715.0</ele><time>2026-04-22T16:44:11.999Z</time></trkpt><trkpt lat="37.16570494986021" lon="-3.5765002080782096"><ele>713.0</ele><time>2026-04-22T16:44:12.999Z</time></trkpt><trkpt lat="37.16573895244322" lon="-3.5766248870754405"><ele>711.0</ele><time>2026-04-22T16:44:13.999Z</time></trkpt><trkpt lat="37.165774933848056" lon="-3.5767660704346467"><ele>719.75</ele><time>2026-04-22T16:44:14.999Z</time></trkpt><trkpt lat="37.16582286447864" lon="-3.5769199822976048"><ele>728.5</ele><time>2026-04-22T16:44:15.999Z</time></trkpt><trkpt lat="37.16586116137156" lon="-3.5770483471013574"><ele>737.25</ele><time>2026-04-22T16:44:16.999Z</time></trkpt><trkpt lat="37.165902335502416" lon="-3.5771802484577426"><ele>746.0</ele><time>2026-04-22T16:44:17.999Z</time></trkpt><trkpt lat="37.16594428817648" lon="-3.5773128398359817"><ele>746.0</ele><time>2026-04-22T16:44:18.999Z</time></trkpt><trkpt lat="37.16598402361759" lon="-3.5774442205396806"><ele>746.0</ele><time>2026-04-22T16:44:19.999Z</time></trkpt><trkpt lat="37.16602565498473" lon="-3.5775720039695837"><ele>746.0</ele><time>2026-04-22T16:44:20.999Z</time></trkpt><trkpt lat="37.16606709407395" lon="-3.577695095779152"><ele>746.0</ele><time>2026-04-22T16:44:21.999Z</time></trkpt><trkpt lat="37.16610606448008" lon="-3.577815470585885"><ele>746.0</ele><time>2026-04-22T16:44:22.999Z</time></trkpt><trkpt lat="37.16613886292712" lon="-3.5779351757288023"><ele>743.5999999999999</ele><time>2026-04-22T16:44:23.999Z</time></trkpt><trkpt lat="37.16616955800621" lon="-3.5780497613291713"><ele>741.2</ele><time>2026-04-22T16:44:24.999Z</time></trkpt><trkpt lat="37.16620290773565" lon="-3.578166101312532"><ele>738.8</ele><time>2026-04-22T16:44:25.999Z</time></trkpt><trkpt lat="37.166235719351086" lon="-3.5782802178467956"><ele>736.4000000000001</ele><time>2026-04-22T16:44:26.999Z</time></trkpt><trkpt lat="37.16626892982697" lon="-3.578398078936542"><ele>734.0</ele><time>2026-04-22T16:44:27.999Z</time></trkpt><trkpt lat="37.166300284269816" lon="-3.5785152384643295"><ele>734.0</ele><time>2026-04-22T16:44:28.999Z</time></trkpt><trkpt lat="37.16634018070128" lon="-3.5786327786457326"><ele>734.0</ele><time>2026-04-22T16:44:29.999Z</time></trkpt><trkpt lat="37.1663837395024" lon="-3.5787568955424"><ele>734.0</ele><time>2026-04-22T16:44:30.999Z</time></trkpt><trkpt lat="37.16642538899785" lon="-3.5788924539287637"><ele>734.0</ele><time>2026-04-22T16:44:31.999Z</time></trkpt><trkpt lat="37.16646994048591" lon="-3.5790315465307168"><ele>734.0</ele><time>2026-04-22T16:44:32.999Z</time></trkpt><trkpt lat="37.16651683188035" lon="-3.579173146994149"><ele>740.25</ele><time>2026-04-22T16:44:33.999Z</time></trkpt><trkpt lat="37.166575263131634" lon="-3.579316437976972"><ele>746.5</ele><time>2026-04-22T16:44:34.999Z</time></trkpt><trkpt lat="37.16663821363191" lon="-3.5794628518763276"><ele>752.75</ele><time>2026-04-22T16:44:35.999Z</time></trkpt><trkpt lat="37.16670640906733" lon="-3.5796149746393215"><ele>759.0</ele><time>2026-04-22T16:44:36.999Z</time></trkpt><trkpt lat="37.16678044893749" lon="-3.57976767737671"><ele>759.0</ele><time>2026-04-22T16:44:37.999Z</time></trkpt><trkpt lat="37.16685569473353" lon="-3.5799241745619224"><ele>759.0</ele><time>2026-04-22T16:44:38.999Z</time></trkpt><trkpt lat="37.16693894491121" lon="-3.580083915578052"><ele>759.0</ele><time>2026-04-22T16:44:39.999Z</time></trkpt><trkpt lat="37.167027355255264" lon="-3.5802387529856117"><ele>755.5</ele><time>2026-04-22T16:44:40.999Z</time></trkpt><trkpt lat="37.16709917458507" lon="-3.5803959544119284"><ele>752.0</ele><time>2026-04-22T16:44:41.999Z</time></trkpt><trkpt lat="37.16718586904016" lon="-3.5805410976835583"><ele>748.5</ele><time>2026-04-22T16:44:42.999Z</time></trkpt><trkpt lat="37.167272618570244" lon="-3.5806798849936796"><ele>745.0</ele><time>2026-04-22T16:44:43.999Z</time></trkpt><trkpt lat="37.167354745965795" lon="-3.580813937885907"><ele>750.3333333333334</ele><time>2026-04-22T16:44:44.999Z</time></trkpt><trkpt lat="37.16744346116348" lon="-3.5809486860814412"><ele>755.6666666666666</ele><time>2026-04-22T16:44:45.999Z</time></trkpt><trkpt lat="37.16754030729594" lon="-3.5810985731153275"><ele>761.0</ele><time>2026-04-22T16:44:46.999Z</time></trkpt><trkpt lat="37.167651088221554" lon="-3.5812791293369868"><ele>761.0</ele><time>2026-04-22T16:44:47.999Z</time></trkpt><trkpt lat="37.16777634902088" lon="-3.5814876347443754"><ele>761.0</ele><time>2026-04-22T16:44:48.999Z</time></trkpt><trkpt lat="37.16791140700591" lon="-3.5817034811418043"><ele>761.0</ele><time>2026-04-22T16:44:49.999Z</time></trkpt><trkpt lat="37.168035651096844" lon="-3.5818910420634458"><ele>765.0</ele><time>2026-04-22T16:44:50.999Z</time></trkpt><trkpt lat="37.16814147526604" lon="-3.5820396988990435"><ele>769.0</ele><time>2026-04-22T16:44:51.999Z</time></trkpt><trkpt lat="37.16823555816005" lon="-3.5821650962844904"><ele>773.0</ele><time>2026-04-22T16:44:52.999Z</time></trkpt><trkpt lat="37.16832263191489" lon="-3.582290023622712"><ele>777.0</ele><time>2026-04-22T16:44:53.999Z</time></trkpt><trkpt lat="37.16839842090702" lon="-3.582407518432106"><ele>777.0</ele><time>2026-04-22T16:44:54.999Z</time></trkpt><trkpt lat="37.16846222964882" lon="-3.582525663130906"><ele>777.0</ele><time>2026-04-22T16:44:55.999Z</time></trkpt><trkpt lat="37.16852549882045" lon="-3.5826541567722896"><ele>777.0</ele><time>2026-04-22T16:44:56.999Z</time></trkpt><trkpt lat="37.16858598572964" lon="-3.5828005966275898"><ele>777.0</ele><time>2026-04-22T16:44:57.999Z</time></trkpt><trkpt lat="37.16864135271234" lon="-3.582930683759432"><ele>775.1666666666666</ele><time>2026-04-22T16:44:58.999Z</time></trkpt><trkpt lat="37.16868025503896" lon="-3.583025192438336"><ele>773.3333333333334</ele><time>2026-04-22T16:44:59.999Z</time></trkpt><trkpt lat="37.16871306164735" lon="-3.5831152092375733"><ele>771.5</ele><time>2026-04-22T16:45:00.999Z</time></trkpt><trkpt lat="37.16874781576638" lon="-3.583210905793231"><ele>769.6666666666667</ele><time>2026-04-22T16:45:01.999Z</time></trkpt><trkpt lat="37.16878382882811" lon="-3.583322394840417"><ele>767.8333333333334</ele><time>2026-04-22T16:45:02.999Z</time></trkpt><trkpt lat="37.16881182346466" lon="-3.5834298714699795"><ele>766.0</ele><time>2026-04-22T16:45:03.999Z</time></trkpt><trkpt lat="37.1688377679549" lon="-3.5835384964583903"><ele>766.0</ele><time>2026-04-22T16:45:04.999Z</time></trkpt><trkpt lat="37.168863540630305" lon="-3.583644738463666"><ele>766.0</ele><time>2026-04-22T16:45:05.999Z</time></trkpt><trkpt lat="37.16887730498647" lon="-3.5837256806959066"><ele>766.0</ele><time>2026-04-22T16:45:06.999Z</time></trkpt><trkpt lat="37.16890871697125" lon="-3.5838287173304444"><ele>766.0</ele><time>2026-04-22T16:45:07.999Z</time></trkpt><trkpt lat="37.16894331533309" lon="-3.5839360559169937"><ele>766.0</ele><time>2026-04-22T16:45:08.999Z</time></trkpt><trkpt lat="37.168982621079344" lon="-3.584044443431438"><ele>766.0</ele><time>2026-04-22T16:45:09.999Z</time></trkpt><trkpt lat="37.16903326971853" lon="-3.5841571449730716"><ele>765.8</ele><time>2026-04-22T16:45:10.999Z</time></trkpt><trkpt lat="37.16909667041758" lon="-3.584264539099785"><ele>765.5999999999999</ele><time>2026-04-22T16:45:11.999Z</time></trkpt><trkpt lat="37.16917079736554" lon="-3.584353823009741"><ele>765.4</ele><time>2026-04-22T16:45:12.999Z</time></trkpt><trkpt lat="37.16924454058796" lon="-3.5844274730858596"><ele>765.2</ele><time>2026-04-22T16:45:13.999Z</time></trkpt><trkpt lat="37.16932117329762" lon="-3.584496281034401"><ele>765.0</ele><time>2026-04-22T16:45:14.999Z</time></trkpt><trkpt lat="37.169402121967636" lon="-3.584559216193162"><ele>765.0</ele><time>2026-04-22T16:45:15.999Z</time></trkpt><trkpt lat="37.16947165220553" lon="-3.584611042815498"><ele>765.0</ele><time>2026-04-22T16:45:16.999Z</time></trkpt><trkpt lat="37.16954236964596" lon="-3.5846632212096896"><ele>765.0</ele><time>2026-04-22T16:45:17.999Z</time></trkpt><trkpt lat="37.169613571157015" lon="-3.584713397316117"><ele>765.0</ele><time>2026-04-22T16:45:18.999Z</time></trkpt><trkpt lat="37.16969096019837" lon="-3.584742157473845"><ele>765.0</ele><time>2026-04-22T16:45:19.999Z</time></trkpt><trkpt lat="37.16977455734472" lon="-3.5847572834970776"><ele>765.0</ele><time>2026-04-22T16:45:20.999Z</time></trkpt><trkpt lat="37.16985301407698" lon="-3.5847426784125247"><ele>768.3333333333334</ele><time>2026-04-22T16:45:21.999Z</time></trkpt><trkpt lat="37.16992514090095" lon="-3.5847061733014844"><ele>771.6666666666667</ele><time>2026-04-22T16:45:22.999Z</time></trkpt><trkpt lat="37.16998771333316" lon="-3.584649216110882"><ele>775.0</ele><time>2026-04-22T16:45:23.999Z</time></trkpt><trkpt lat="37.170041852525685" lon="-3.584576451172019"><ele>778.3333333333334</ele><time>2026-04-22T16:45:24.999Z</time></trkpt><trkpt lat="37.1700824078524" lon="-3.584493818128253"><ele>781.6666666666667</ele><time>2026-04-22T16:45:25.999Z</time></trkpt><trkpt lat="37.17011213275914" lon="-3.584401360417685"><ele>785.0</ele><time>2026-04-22T16:45:26.999Z</time></trkpt><trkpt lat="37.17012515609703" lon="-3.5842965176828927"><ele>787.6</ele><time>2026-04-22T16:45:27.999Z</time></trkpt><trkpt lat="37.170093402800795" lon="-3.5841925560391164"><ele>790.2</ele><time>2026-04-22T16:45:28.999Z</time></trkpt><trkpt lat="37.17005760045798" lon="-3.5840922709196645"><ele>792.8</ele><time>2026-04-22T16:45:29.999Z</time></trkpt><trkpt lat="37.17000844176969" lon="-3.5840024535149984"><ele>795.4</ele><time>2026-04-22T16:45:30.999Z</time></trkpt><trkpt lat="37.169971778574165" lon="-3.583896921661439"><ele>798.0</ele><time>2026-04-22T16:45:31.998Z</time></trkpt><trkpt lat="37.169908189841216" lon="-3.583797143831576"><ele>798.0</ele><time>2026-04-22T16:45:32.998Z</time></trkpt><trkpt lat="37.169851085989755" lon="-3.5836974803912836"><ele>798.0</ele><time>2026-04-22T16:45:33.998Z</time></trkpt><trkpt lat="37.16978974803568" lon="-3.5835999816941504"><ele>798.0</ele><time>2026-04-22T16:45:34.998Z</time></trkpt><trkpt lat="37.16973136846037" lon="-3.5834995965525342"><ele>798.0</ele><time>2026-04-22T16:45:35.998Z</time></trkpt><trkpt lat="37.16967871592318" lon="-3.583406558377725"><ele>798.0</ele><time>2026-04-22T16:45:36.998Z</time></trkpt><trkpt lat="37.16963619981996" lon="-3.583319902787976"><ele>798.0</ele><time>2026-04-22T16:45:37.998Z</time></trkpt><trkpt lat="37.16959963248516" lon="-3.583249903814787"><ele>798.0</ele><time>2026-04-22T16:45:38.998Z</time></trkpt><trkpt lat="37.16952169014314" lon="-3.583178576756536"><ele>798.0</ele><time>2026-04-22T16:45:40.998Z</time></trkpt><trkpt lat="37.16943726577157" lon="-3.583281501190723"><ele>798.0</ele><time>2026-04-22T16:45:42.998Z</time></trkpt><trkpt lat="37.16941320357861" lon="-3.583368748838118"><ele>798.0</ele><time>2026-04-22T16:45:43.998Z</time></trkpt><trkpt lat="37.169353670594546" lon="-3.5834806722253196"><ele>798.0</ele><time>2026-04-22T16:45:45.999Z</time></trkpt><trkpt lat="37.169253650846294" lon="-3.583520373231352"><ele>798.0</ele><time>2026-04-22T16:45:47.999Z</time></trkpt><trkpt lat="37.16920241787853" lon="-3.583460569404539"><ele>798.0</ele><time>2026-04-22T16:45:48.999Z</time></trkpt><trkpt lat="37.16917437806556" lon="-3.583364561257438"><ele>798.0</ele><time>2026-04-22T16:45:49.999Z</time></trkpt><trkpt lat="37.16914884216135" lon="-3.58327011517464"><ele>798.0</ele><time>2026-04-22T16:45:50.999Z</time></trkpt><trkpt lat="37.16911918838981" lon="-3.583157609170383"><ele>798.0</ele><time>2026-04-22T16:45:51.999Z</time></trkpt><trkpt lat="37.16910273982341" lon="-3.5830328408990337"><ele>798.0</ele><time>2026-04-22T16:45:52.999Z</time></trkpt><trkpt lat="37.169072284268836" lon="-3.5829236796236867"><ele>798.0</ele><time>2026-04-22T16:45:53.999Z</time></trkpt><trkpt lat="37.169041683984325" lon="-3.5828158000920607"><ele>798.0</ele><time>2026-04-22T16:45:54.999Z</time></trkpt><trkpt lat="37.16900768377317" lon="-3.582705875820667"><ele>798.0</ele><time>2026-04-22T16:45:55.999Z</time></trkpt><trkpt lat="37.16895894943514" lon="-3.5825935361567622"><ele>798.0</ele><time>2026-04-22T16:45:56.999Z</time></trkpt><trkpt lat="37.16889294483993" lon="-3.582487495600596"><ele>793.8</ele><time>2026-04-22T16:45:57.999Z</time></trkpt><trkpt lat="37.16882128465884" lon="-3.5823961247054634"><ele>789.5999999999999</ele><time>2026-04-22T16:45:58.999Z</time></trkpt><trkpt lat="37.1687492773213" lon="-3.582314483307652"><ele>785.4000000000001</ele><time>2026-04-22T16:45:59.999Z</time></trkpt><trkpt lat="37.168688998981324" lon="-3.582232747104695"><ele>781.2</ele><time>2026-04-22T16:46:00.999Z</time></trkpt><trkpt lat="37.168617989784764" lon="-3.582166348817551"><ele>777.0</ele><time>2026-04-22T16:46:01.999Z</time></trkpt><trkpt lat="37.168570664321734" lon="-3.5820681329073696"><ele>780.3333333333334</ele><time>2026-04-22T16:46:02.999Z</time></trkpt><trkpt lat="37.16851948437784" lon="-3.581984818371863"><ele>783.6666666666667</ele><time>2026-04-22T16:46:03.999Z</time></trkpt><trkpt lat="37.16847269785059" lon="-3.581904229434773"><ele>787.0</ele><time>2026-04-22T16:46:04.999Z</time></trkpt><trkpt lat="37.16842838169869" lon="-3.5818313901422214"><ele>790.3333333333334</ele><time>2026-04-22T16:46:05.999Z</time></trkpt><trkpt lat="37.16834007313258" lon="-3.581780680430902"><ele>793.6666666666667</ele><time>2026-04-22T16:46:07.999Z</time></trkpt><trkpt lat="37.16828780420545" lon="-3.5819045881908633"><ele>797.0</ele><time>2026-04-22T16:46:09.999Z</time></trkpt><trkpt lat="37.16832047722647" lon="-3.581996133968526"><ele>793.0</ele><time>2026-04-22T16:46:10.999Z</time></trkpt><trkpt lat="37.16836729009793" lon="-3.582083383543823"><ele>789.0</ele><time>2026-04-22T16:46:11.999Z</time></trkpt><trkpt lat="37.168415463255364" lon="-3.582197168788723"><ele>785.0</ele><time>2026-04-22T16:46:12.999Z</time></trkpt><trkpt lat="37.16848661348686" lon="-3.582326372960084"><ele>781.0</ele><time>2026-04-22T16:46:13.999Z</time></trkpt><trkpt lat="37.168554350108046" lon="-3.5824432033078746"><ele>777.0</ele><time>2026-04-22T16:46:14.999Z</time></trkpt><trkpt lat="37.16862136562488" lon="-3.582560725134549"><ele>777.0</ele><time>2026-04-22T16:46:15.999Z</time></trkpt><trkpt lat="37.16867710575609" lon="-3.582674383403367"><ele>777.0</ele><time>2026-04-22T16:46:16.999Z</time></trkpt><trkpt lat="37.16871657745584" lon="-3.582780633331732"><ele>777.0</ele><time>2026-04-22T16:46:17.999Z</time></trkpt><trkpt lat="37.168739775036286" lon="-3.582895534008147"><ele>777.0</ele><time>2026-04-22T16:46:18.999Z</time></trkpt><trkpt lat="37.16873448082957" lon="-3.5830175162276463"><ele>777.0</ele><time>2026-04-22T16:46:19.999Z</time></trkpt><trkpt lat="37.16869415379357" lon="-3.5831360467300004"><ele>774.8</ele><time>2026-04-22T16:46:20.999Z</time></trkpt><trkpt lat="37.16865722392903" lon="-3.583267636176285"><ele>772.6</ele><time>2026-04-22T16:46:21.999Z</time></trkpt><trkpt lat="37.16861138734725" lon="-3.5833683513369645"><ele>770.4</ele><time>2026-04-22T16:46:22.999Z</time></trkpt><trkpt lat="37.16855170274257" lon="-3.5835191999615303"><ele>768.1999999999999</ele><time>2026-04-22T16:46:24.999Z</time></trkpt><trkpt lat="37.16854410505428" lon="-3.583604766633236"><ele>766.0</ele><time>2026-04-22T16:46:25.999Z</time></trkpt><trkpt lat="37.168541092504526" lon="-3.583701048696803"><ele>763.8</ele><time>2026-04-22T16:46:26.999Z</time></trkpt><trkpt lat="37.16854176450268" lon="-3.5838147422042304"><ele>761.5999999999999</ele><time>2026-04-22T16:46:27.999Z</time></trkpt><trkpt lat="37.16855068015675" lon="-3.5839278617088763"><ele>759.4</ele><time>2026-04-22T16:46:28.999Z</time></trkpt><trkpt lat="37.16855896661861" lon="-3.584047854154842"><ele>757.2</ele><time>2026-04-22T16:46:29.999Z</time></trkpt><trkpt lat="37.16857515367941" lon="-3.5841632561933525"><ele>755.0</ele><time>2026-04-22T16:46:30.999Z</time></trkpt><trkpt lat="37.16860597086094" lon="-3.5842695552472748"><ele>755.0</ele><time>2026-04-22T16:46:31.999Z</time></trkpt><trkpt lat="37.168648187664665" lon="-3.5843602679531394"><ele>755.0</ele><time>2026-04-22T16:46:32.999Z</time></trkpt><trkpt lat="37.16870231230231" lon="-3.5844490948714056"><ele>755.0</ele><time>2026-04-22T16:46:33.999Z</time></trkpt><trkpt lat="37.16876887272199" lon="-3.5845391271058067"><ele>755.0</ele><time>2026-04-22T16:46:34.999Z</time></trkpt><trkpt lat="37.16883977373901" lon="-3.5846355031901322"><ele>755.0</ele><time>2026-04-22T16:46:35.999Z</time></trkpt><trkpt lat="37.168910051751" lon="-3.584742560808908"><ele>757.0</ele><time>2026-04-22T16:46:36.999Z</time></trkpt><trkpt lat="37.16897623397363" lon="-3.5848430897331798"><ele>759.0</ele><time>2026-04-22T16:46:37.999Z</time></trkpt><trkpt lat="37.16905121452316" lon="-3.5849266934092263"><ele>761.0</ele><time>2026-04-22T16:46:38.999Z</time></trkpt><trkpt lat="37.16912675351141" lon="-3.5850128762267897"><ele>763.0</ele><time>2026-04-22T16:46:39.999Z</time></trkpt><trkpt lat="37.16922005003019" lon="-3.5850590205753416"><ele>765.0</ele><time>2026-04-22T16:46:40.999Z</time></trkpt><trkpt lat="37.169308215485884" lon="-3.5851479704777054"><ele>765.0</ele><time>2026-04-22T16:46:41.999Z</time></trkpt><trkpt lat="37.16937082092364" lon="-3.58525647143919"><ele>765.0</ele><time>2026-04-22T16:46:42.999Z</time></trkpt><trkpt lat="37.169425472213824" lon="-3.585369079929195"><ele>765.0</ele><time>2026-04-22T16:46:43.999Z</time></trkpt><trkpt lat="37.169463806276205" lon="-3.5854796684142545"><ele>765.0</ele><time>2026-04-22T16:46:44.999Z</time></trkpt><trkpt lat="37.169523313545426" lon="-3.5855798138038084"><ele>765.0</ele><time>2026-04-22T16:46:45.999Z</time></trkpt><trkpt lat="37.16958861586422" lon="-3.585669456759256"><ele>764.25</ele><time>2026-04-22T16:46:46.999Z</time></trkpt><trkpt lat="37.16966951927104" lon="-3.5857747580889274"><ele>763.5</ele><time>2026-04-22T16:46:47.999Z</time></trkpt><trkpt lat="37.1697540317336" lon="-3.585878329546551"><ele>762.75</ele><time>2026-04-22T16:46:48.999Z</time></trkpt><trkpt lat="37.16983914615137" lon="-3.5859752406139878"><ele>762.0</ele><time>2026-04-22T16:46:49.999Z</time></trkpt><trkpt lat="37.16992184237447" lon="-3.586050317290461"><ele>762.0</ele><time>2026-04-22T16:46:50.999Z</time></trkpt><trkpt lat="37.169998428710876" lon="-3.586103568853378"><ele>762.0</ele><time>2026-04-22T16:46:51.999Z</time></trkpt><trkpt lat="37.170072387911155" lon="-3.586145947757675"><ele>762.0</ele><time>2026-04-22T16:46:52.999Z</time></trkpt><trkpt lat="37.1701546939894" lon="-3.5861731915026165"><ele>762.0</ele><time>2026-04-22T16:46:53.999Z</time></trkpt><trkpt lat="37.17023015746551" lon="-3.586179224526297"><ele>762.0</ele><time>2026-04-22T16:46:54.999Z</time></trkpt><trkpt lat="37.1703388273275" lon="-3.586159591609234"><ele>762.0</ele><time>2026-04-22T16:46:56.999Z</time></trkpt><trkpt lat="37.17039719910908" lon="-3.5861287855161104"><ele>762.0</ele><time>2026-04-22T16:46:57.999Z</time></trkpt><trkpt lat="37.170460125998034" lon="-3.5860668474734116"><ele>762.0</ele><time>2026-04-22T16:46:58.999Z</time></trkpt><trkpt lat="37.170531847695486" lon="-3.585997698536805"><ele>762.0</ele><time>2026-04-22T16:46:59.999Z</time></trkpt><trkpt lat="37.17059920727491" lon="-3.5859319655368567"><ele>762.0</ele><time>2026-04-22T16:47:00.999Z</time></trkpt><trkpt lat="37.17066411037456" lon="-3.5858712564040176"><ele>762.0</ele><time>2026-04-22T16:47:01.999Z</time></trkpt><trkpt lat="37.17072399665964" lon="-3.58582008139738"><ele>762.0</ele><time>2026-04-22T16:47:02.999Z</time></trkpt><trkpt lat="37.170782854128895" lon="-3.5857682204882657"><ele>761.6</ele><time>2026-04-22T16:47:03.999Z</time></trkpt><trkpt lat="37.170833747775255" lon="-3.585713159809679"><ele>761.2</ele><time>2026-04-22T16:47:04.999Z</time></trkpt><trkpt lat="37.17089301084031" lon="-3.5856782812773096"><ele>760.8</ele><time>2026-04-22T16:47:05.999Z</time></trkpt><trkpt lat="37.17100979708314" lon="-3.585699754203531"><ele>760.4</ele><time>2026-04-22T16:47:07.999Z</time></trkpt><trkpt lat="37.17105084061562" lon="-3.585847936537921"><ele>760.0</ele><time>2026-04-22T16:47:09.999Z</time></trkpt><trkpt lat="37.17105171960818" lon="-3.585948294016084"><ele>760.0</ele><time>2026-04-22T16:47:10.999Z</time></trkpt><trkpt lat="37.17104339798566" lon="-3.5860573859475897"><ele>760.0</ele><time>2026-04-22T16:47:11.999Z</time></trkpt><trkpt lat="37.1710218655691" lon="-3.5861661458617045"><ele>760.0</ele><time>2026-04-22T16:47:12.999Z</time></trkpt><trkpt lat="37.1710063081584" lon="-3.586275365377412"><ele>760.0</ele><time>2026-04-22T16:47:13.999Z</time></trkpt><trkpt lat="37.170985359579994" lon="-3.5863767428570967"><ele>760.0</ele><time>2026-04-22T16:47:14.999Z</time></trkpt><trkpt lat="37.17096800607486" lon="-3.5864702495806995"><ele>760.0</ele><time>2026-04-22T16:47:15.999Z</time></trkpt><trkpt lat="37.17094978346785" lon="-3.5865553831127737"><ele>757.8571428571429</ele><time>2026-04-22T16:47:16.999Z</time></trkpt><trkpt lat="37.17093810488213" lon="-3.586636604884769"><ele>755.7142857142858</ele><time>2026-04-22T16:47:17.999Z</time></trkpt><trkpt lat="37.17094004012086" lon="-3.5867185028654944"><ele>753.5714285714286</ele><time>2026-04-22T16:47:18.999Z</time></trkpt><trkpt lat="37.17095982517036" lon="-3.5867999270943534"><ele>751.4285714285714</ele><time>2026-04-22T16:47:19.999Z</time></trkpt><trkpt lat="37.171004877705435" lon="-3.5868815608776483"><ele>749.2857142857142</ele><time>2026-04-22T16:47:20.999Z</time></trkpt><trkpt lat="37.17105982319092" lon="-3.586955706280819"><ele>747.1428571428571</ele><time>2026-04-22T16:47:21.999Z</time></trkpt><trkpt lat="37.17110651140777" lon="-3.587029905057523"><ele>745.0</ele><time>2026-04-22T16:47:22.999Z</time></trkpt><trkpt lat="37.171151529993935" lon="-3.587121047320757"><ele>742.6666666666667</ele><time>2026-04-22T16:47:23.999Z</time></trkpt><trkpt lat="37.17119893419964" lon="-3.5872192147983295"><ele>740.3333333333334</ele><time>2026-04-22T16:47:24.999Z</time></trkpt><trkpt lat="37.1712512222242" lon="-3.5873081225243877"><ele>738.0</ele><time>2026-04-22T16:47:25.999Z</time></trkpt><trkpt lat="37.1712957471813" lon="-3.587402258727276"><ele>735.6666666666666</ele><time>2026-04-22T16:47:26.999Z</time></trkpt><trkpt lat="37.17134815527059" lon="-3.5874878810366426"><ele>733.3333333333333</ele><time>2026-04-22T16:47:27.999Z</time></trkpt><trkpt lat="37.17140240957798" lon="-3.5875873820419906"><ele>731.0</ele><time>2026-04-22T16:47:28.999Z</time></trkpt><trkpt lat="37.171469133223276" lon="-3.587680326924464"><ele>730.5999999999999</ele><time>2026-04-22T16:47:29.999Z</time></trkpt><trkpt lat="37.17154033456888" lon="-3.587771690882165"><ele>730.2</ele><time>2026-04-22T16:47:30.999Z</time></trkpt><trkpt lat="37.17160608713856" lon="-3.587856523367054"><ele>729.8</ele><time>2026-04-22T16:47:31.999Z</time></trkpt><trkpt lat="37.1716657432802" lon="-3.5879374580987244"><ele>729.4000000000001</ele><time>2026-04-22T16:47:32.999Z</time></trkpt><trkpt lat="37.17172472825797" lon="-3.588013063721542"><ele>729.0</ele><time>2026-04-22T16:47:33.999Z</time></trkpt><trkpt lat="37.17179471911722" lon="-3.5880712043857055"><ele>729.0</ele><time>2026-04-22T16:47:34.999Z</time></trkpt><trkpt lat="37.17185939362565" lon="-3.5881381744189453"><ele>729.0</ele><time>2026-04-22T16:47:35.999Z</time></trkpt><trkpt lat="37.17193678787005" lon="-3.5882019056042447"><ele>729.0</ele><time>2026-04-22T16:47:36.999Z</time></trkpt><trkpt lat="37.172014624716084" lon="-3.588257597347666"><ele>729.0</ele><time>2026-04-22T16:47:37.998Z</time></trkpt><trkpt lat="37.17208520188538" lon="-3.5883058868459337"><ele>729.0</ele><time>2026-04-22T16:47:38.998Z</time></trkpt><trkpt lat="37.172152650878786" lon="-3.5883586460129617"><ele>729.0</ele><time>2026-04-22T16:47:39.999Z</time></trkpt><trkpt lat="37.17220652548905" lon="-3.5884024566850683"><ele>729.0</ele><time>2026-04-22T16:47:40.999Z</time></trkpt><trkpt lat="37.17226729662395" lon="-3.588469770112784"><ele>729.0</ele><time>2026-04-22T16:47:42.999Z</time></trkpt><trkpt lat="37.172342811868326" lon="-3.5885178358419276"><ele>729.0</ele><time>2026-04-22T16:47:45.999Z</time></trkpt><trkpt lat="37.17240186963048" lon="-3.5885594442986797"><ele>729.0</ele><time>2026-04-22T16:47:47.999Z</time></trkpt><trkpt lat="37.17246600966514" lon="-3.5885972205731056"><ele>729.0</ele><time>2026-04-22T16:48:00.999Z</time></trkpt><trkpt lat="37.17253159044282" lon="-3.5886580040820086"><ele>729.0</ele><time>2026-04-22T16:48:03.999Z</time></trkpt><trkpt lat="37.17258676417724" lon="-3.5887151763462457"><ele>728.0</ele><time>2026-04-22T16:48:06.999Z</time></trkpt><trkpt lat="37.17265751253493" lon="-3.588787517368884"><ele>727.0</ele><time>2026-04-22T16:48:09.999Z</time></trkpt><trkpt lat="37.17270947058455" lon="-3.588846567352642"><ele>726.0</ele><time>2026-04-22T16:48:11.999Z</time></trkpt><trkpt lat="37.17275564520956" lon="-3.588914229534779"><ele>725.0</ele><time>2026-04-22T16:48:13.999Z</time></trkpt><trkpt lat="37.17279402826153" lon="-3.5889785172220496"><ele>724.0</ele><time>2026-04-22T16:48:15.999Z</time></trkpt><trkpt lat="37.17285012748222" lon="-3.5890591198651"><ele>723.0</ele><time>2026-04-22T16:48:17.999Z</time></trkpt><trkpt lat="37.1729136546255" lon="-3.589154334075913"><ele>723.0</ele><time>2026-04-22T16:48:19.999Z</time></trkpt><trkpt lat="37.17297361686631" lon="-3.5892653971261423"><ele>723.0</ele><time>2026-04-22T16:48:21.999Z</time></trkpt><trkpt lat="37.172998930201224" lon="-3.589342152193976"><ele>723.0</ele><time>2026-04-22T16:48:23.999Z</time></trkpt><trkpt lat="37.173067613854734" lon="-3.5894110330417166"><ele>723.0</ele><time>2026-04-22T16:48:26.999Z</time></trkpt><trkpt lat="37.17311783818968" lon="-3.58948450003148"><ele>723.0</ele><time>2026-04-22T16:48:28.999Z</time></trkpt><trkpt lat="37.17315811537092" lon="-3.589563811119034"><ele>723.0</ele><time>2026-04-22T16:48:30.999Z</time></trkpt><trkpt lat="37.17319012792382" lon="-3.5896426067188414"><ele>724.0</ele><time>2026-04-22T16:48:32.999Z</time></trkpt><trkpt lat="37.173244278840414" lon="-3.589714089403304"><ele>725.0</ele><time>2026-04-22T16:48:35Z</time></trkpt><trkpt lat="37.17328719728509" lon="-3.589793941864288"><ele>726.0</ele><time>2026-04-22T16:48:37Z</time></trkpt><trkpt lat="37.173346693812015" lon="-3.589869611881711"><ele>727.0</ele><time>2026-04-22T16:48:39Z</time></trkpt><trkpt lat="37.17336907331528" lon="-3.589963620795947"><ele>728.0</ele><time>2026-04-22T16:48:41Z</time></trkpt><trkpt lat="37.17338947797905" lon="-3.590083587610008"><ele>729.0</ele><time>2026-04-22T16:48:44Z</time></trkpt><trkpt lat="37.17339346021162" lon="-3.5901802129659868"><ele>729.0</ele><time>2026-04-22T16:48:46Z</time></trkpt><trkpt lat="37.173380490120934" lon="-3.590274257620878"><ele>729.0</ele><time>2026-04-22T16:48:48Z</time></trkpt><trkpt lat="37.173354651257895" lon="-3.590356469063029"><ele>729.0</ele><time>2026-04-22T16:48:50Z</time></trkpt><trkpt lat="37.17333456270605" lon="-3.590460719350283"><ele>729.0</ele><time>2026-04-22T16:48:52Z</time></trkpt><trkpt lat="37.173339733595306" lon="-3.590556599682375"><ele>729.0</ele><time>2026-04-22T16:48:54Z</time></trkpt><trkpt lat="37.17334478777418" lon="-3.590637809913448"><ele>729.0</ele><time>2026-04-22T16:48:56Z</time></trkpt><trkpt lat="37.17332123264467" lon="-3.590726712411701"><ele>729.0</ele><time>2026-04-22T16:49:00Z</time></trkpt><trkpt lat="37.17338035226837" lon="-3.590790021437752"><ele>721.0</ele><time>2026-04-22T16:49:05Z</time></trkpt><trkpt lat="37.173138813539644" lon="-3.590536989781558"><ele>713.0</ele><time>2026-04-22T16:49:07Z</time></trkpt><trkpt lat="37.1730613219053" lon="-3.5904431692458902"><ele>705.0</ele><time>2026-04-22T16:49:09Z</time></trkpt><trkpt lat="37.17301335222464" lon="-3.590368276198833"><ele>704.9999999999999</ele><time>2026-04-22T16:49:11Z</time></trkpt><trkpt lat="37.1729527402601" lon="-3.5904075606952146"><ele>705.0</ele><time>2026-04-22T16:49:15Z</time></trkpt><trkpt lat="37.17289920131686" lon="-3.5904671128353143"><ele>705.0</ele><time>2026-04-22T16:49:16Z</time></trkpt><trkpt lat="37.17284253910977" lon="-3.590547647017813"><ele>705.0</ele><time>2026-04-22T16:49:17Z</time></trkpt><trkpt lat="37.17278717451157" lon="-3.5906049871838115"><ele>705.0</ele><time>2026-04-22T16:49:18Z</time></trkpt><trkpt lat="37.172742175840234" lon="-3.5906877285874144"><ele>704.9999999999999</ele><time>2026-04-22T16:49:19Z</time></trkpt><trkpt lat="37.172699933666316" lon="-3.590758985518557"><ele>705.0</ele><time>2026-04-22T16:49:20Z</time></trkpt><trkpt lat="37.172650032980826" lon="-3.5908289552834427"><ele>705.0</ele><time>2026-04-22T16:49:21Z</time></trkpt><trkpt lat="37.17260877042954" lon="-3.5908924922627437"><ele>705.0</ele><time>2026-04-22T16:49:22Z</time></trkpt><trkpt lat="37.17253957042319" lon="-3.591004644618795"><ele>705.0</ele><time>2026-04-22T16:49:24Z</time></trkpt><trkpt lat="37.172513571491585" lon="-3.591103133495463"><ele>705.0</ele><time>2026-04-22T16:49:26Z</time></trkpt><trkpt lat="37.172434811494995" lon="-3.5911916330822002"><ele>705.0</ele><time>2026-04-22T16:49:28Z</time></trkpt><trkpt lat="37.17237587172637" lon="-3.5912855199693228"><ele>701.0</ele><time>2026-04-22T16:49:30Z</time></trkpt><trkpt lat="37.17232399236301" lon="-3.5913522682833783"><ele>702.0</ele><time>2026-04-22T16:49:32Z</time></trkpt><trkpt lat="37.172276346401" lon="-3.591405286405361"><ele>702.0</ele><time>2026-04-22T16:49:35Z</time></trkpt><trkpt lat="37.172204260999884" lon="-3.5913671612278364"><ele>702.0</ele><time>2026-04-22T16:49:46.999Z</time></trkpt><trkpt lat="37.17214118886083" lon="-3.591319437912856"><ele>702.0</ele><time>2026-04-22T16:49:50.999Z</time></trkpt></trkseg></trk></gpx>